<?xml version='1.0' encoding='UTF-8'?><gpx version="1.1" creator="JPX - https://github.com/jenetics/jpx" xmlns="http://www.topografix.com/GPX/1/1"><trk><trkseg><trkpt lat="44.3462835529154" lon="9.91506118114476"><ele>200.00000000000003</ele><time>2026-04-03T11:46:53.001Z</time></trkpt><trkpt lat="44.34634757225271" lon="9.91501057728817"><ele>200.0</ele><time>2026-04-03T11:46:56.001Z</time></trkpt><trkpt lat="44.346397054901026" lon="9.914953627468977"><ele>200.0</ele><time>2026-04-03T11:47:04.001Z</time></trkpt><trkpt lat="44.34645555135363" lon="9.914875572925078"><ele>200.0</ele><time>2026-04-03T11:47:07.001Z</time></trkpt><trkpt lat="44.346500520072155" lon="9.914812743282873"><ele>200.0</ele><time>2026-04-03T11:47:09.001Z</time></trkpt><trkpt lat="44.34652655637751" lon="9.91472965561285"><ele>200.00000000000003</ele><time>2026-04-03T11:47:13.001Z</time></trkpt><trkpt lat="44.34647998756025" lon="9.914660406080985"><ele>200.0</ele><time>2026-04-03T11:47:15.001Z</time></trkpt><trkpt lat="44.34641554769715" lon="9.914563322696612"><ele>200.00000000000003</ele><time>2026-04-03T11:47:17.001Z</time></trkpt><trkpt lat="44.34633659688279" lon="9.914433382613584"><ele>200.0</ele><time>2026-04-03T11:47:19.001Z</time></trkpt><trkpt lat="44.34629123402155" lon="9.914359601192533"><ele>200.0</ele><time>2026-04-03T11:47:20.001Z</time></trkpt><trkpt lat="44.346247626392504" lon="9.914281266797072"><ele>200.0</ele><time>2026-04-03T11:47:21.001Z</time></trkpt><trkpt lat="44.346216295777246" lon="9.914201326707971"><ele>200.00000000000003</ele><time>2026-04-03T11:47:22.001Z</time></trkpt><trkpt lat="44.34617956441155" lon="9.914109774212582"><ele>200.0</ele><time>2026-04-03T11:47:23.001Z</time></trkpt><trkpt lat="44.34614725339253" lon="9.914022867673637"><ele>199.50000000000003</ele><time>2026-04-03T11:47:24.001Z</time></trkpt><trkpt lat="44.346102417122246" lon="9.913943136608898"><ele>199.0</ele><time>2026-04-03T11:47:25.001Z</time></trkpt><trkpt lat="44.34605482638494" lon="9.913858324290338"><ele>198.5</ele><time>2026-04-03T11:47:26.001Z</time></trkpt><trkpt lat="44.345985664877645" lon="9.913728136670784"><ele>198.0</ele><time>2026-04-03T11:47:28.001Z</time></trkpt><trkpt lat="44.34593227765116" lon="9.913636563913855"><ele>197.50000000000003</ele><time>2026-04-03T11:47:29.001Z</time></trkpt><trkpt lat="44.34587980418051" lon="9.913552091115953"><ele>197.0</ele><time>2026-04-03T11:47:30.001Z</time></trkpt><trkpt lat="44.34584129251797" lon="9.913479258604378"><ele>196.39999999999998</ele><time>2026-04-03T11:47:31.001Z</time></trkpt><trkpt lat="44.345804346654184" lon="9.91339212122723"><ele>195.79999999999998</ele><time>2026-04-03T11:47:32.001Z</time></trkpt><trkpt lat="44.34572687165013" lon="9.913268116938513"><ele>195.2</ele><time>2026-04-03T11:47:34.001Z</time></trkpt><trkpt lat="44.34566157858109" lon="9.91313258227628"><ele>194.6</ele><time>2026-04-03T11:47:36.001Z</time></trkpt><trkpt lat="44.34561638960916" lon="9.912974117900589"><ele>194.0</ele><time>2026-04-03T11:47:38.001Z</time></trkpt><trkpt lat="44.34558075782039" lon="9.912830308202025"><ele>193.79999999999998</ele><time>2026-04-03T11:47:40.001Z</time></trkpt><trkpt lat="44.34554227784628" lon="9.912722029859971"><ele>193.6</ele><time>2026-04-03T11:47:42.001Z</time></trkpt><trkpt lat="44.345435396364095" lon="9.912653930559888"><ele>193.4</ele><time>2026-04-03T11:47:44.001Z</time></trkpt><trkpt lat="44.3453319693532" lon="9.912635847675947"><ele>193.2</ele><time>2026-04-03T11:47:46.001Z</time></trkpt><trkpt lat="44.34521576635547" lon="9.912643392463448"><ele>193.0</ele><time>2026-04-03T11:47:48.001Z</time></trkpt><trkpt lat="44.34514245515418" lon="9.912584918314192"><ele>192.49999999999997</ele><time>2026-04-03T11:47:51.001Z</time></trkpt><trkpt lat="44.34516622183985" lon="9.912498724831195"><ele>192.0</ele><time>2026-04-03T11:47:53.001Z</time></trkpt><trkpt lat="44.345238189637804" lon="9.912428421694168"><ele>191.5</ele><time>2026-04-03T11:47:55.001Z</time></trkpt><trkpt lat="44.34531209027344" lon="9.912330265109041"><ele>191.0</ele><time>2026-04-03T11:47:57.002Z</time></trkpt><trkpt lat="44.34537812604768" lon="9.912225957349492"><ele>190.5</ele><time>2026-04-03T11:47:59.002Z</time></trkpt><trkpt lat="44.345431778268235" lon="9.91214126983563"><ele>190.0</ele><time>2026-04-03T11:48:01.002Z</time></trkpt><trkpt lat="44.34549221879813" lon="9.912040779067226"><ele>190.4</ele><time>2026-04-03T11:48:03.002Z</time></trkpt><trkpt lat="44.345567222164696" lon="9.911920768468349"><ele>190.8</ele><time>2026-04-03T11:48:05.002Z</time></trkpt><trkpt lat="44.34566779504443" lon="9.911819467962411"><ele>191.2</ele><time>2026-04-03T11:48:07.002Z</time></trkpt><trkpt lat="44.345782734804146" lon="9.91176527242554"><ele>191.6</ele><time>2026-04-03T11:48:09.002Z</time></trkpt><trkpt lat="44.3458490666856" lon="9.911736403627298"><ele>192.0</ele><time>2026-04-03T11:48:10.002Z</time></trkpt><trkpt lat="44.34592512088795" lon="9.91171391638152"><ele>191.8</ele><time>2026-04-03T11:48:11.002Z</time></trkpt><trkpt lat="44.34600740743462" lon="9.911697863494915"><ele>191.6</ele><time>2026-04-03T11:48:12.002Z</time></trkpt><trkpt lat="44.346098513114896" lon="9.91166383331598"><ele>191.4</ele><time>2026-04-03T11:48:13.002Z</time></trkpt><trkpt lat="44.34620162998327" lon="9.911610761722352"><ele>191.20000000000002</ele><time>2026-04-03T11:48:14.002Z</time></trkpt><trkpt lat="44.34630751792488" lon="9.91154810131712"><ele>191.0</ele><time>2026-04-03T11:48:15.002Z</time></trkpt><trkpt lat="44.34640757101507" lon="9.9114833054457"><ele>191.0</ele><time>2026-04-03T11:48:16.002Z</time></trkpt><trkpt lat="44.34650127271595" lon="9.911406845108392"><ele>191.0</ele><time>2026-04-03T11:48:17.002Z</time></trkpt><trkpt lat="44.34659266931018" lon="9.911319085813211"><ele>191.0</ele><time>2026-04-03T11:48:18.002Z</time></trkpt><trkpt lat="44.34667849279367" lon="9.911222519582886"><ele>191.0</ele><time>2026-04-03T11:48:19.002Z</time></trkpt><trkpt lat="44.346756976094674" lon="9.91111890307979"><ele>191.0</ele><time>2026-04-03T11:48:20.002Z</time></trkpt><trkpt lat="44.3468272980364" lon="9.911010342025492"><ele>189.0</ele><time>2026-04-03T11:48:21.002Z</time></trkpt><trkpt lat="44.34689137854075" lon="9.910905932901416"><ele>187.0</ele><time>2026-04-03T11:48:22.002Z</time></trkpt><trkpt lat="44.34695321445377" lon="9.910788900291537"><ele>185.0</ele><time>2026-04-03T11:48:23.002Z</time></trkpt><trkpt lat="44.34702065912116" lon="9.910645038260713"><ele>183.0</ele><time>2026-04-03T11:48:24.002Z</time></trkpt><trkpt lat="44.347104505136265" lon="9.91047725559975"><ele>183.0</ele><time>2026-04-03T11:48:25.002Z</time></trkpt><trkpt lat="44.34720815117719" lon="9.910287170209068"><ele>183.0</ele><time>2026-04-03T11:48:26.002Z</time></trkpt><trkpt lat="44.34731639881048" lon="9.910107981785131"><ele>183.0</ele><time>2026-04-03T11:48:27.002Z</time></trkpt><trkpt lat="44.34742377646024" lon="9.909930944731073"><ele>183.33333333333334</ele><time>2026-04-03T11:48:28.002Z</time></trkpt><trkpt lat="44.347527256541014" lon="9.909745653144062"><ele>183.66666666666669</ele><time>2026-04-03T11:48:29.002Z</time></trkpt><trkpt lat="44.34763213513459" lon="9.90955291334359"><ele>184.0</ele><time>2026-04-03T11:48:30.002Z</time></trkpt><trkpt lat="44.347735643943125" lon="9.909364077377138"><ele>184.0</ele><time>2026-04-03T11:48:31.002Z</time></trkpt><trkpt lat="44.34783396340324" lon="9.909179154548168"><ele>184.0</ele><time>2026-04-03T11:48:32.002Z</time></trkpt><trkpt lat="44.34793451459095" lon="9.909012731312135"><ele>184.0</ele><time>2026-04-03T11:48:33.002Z</time></trkpt><trkpt lat="44.348027079840236" lon="9.908859353195139"><ele>184.0</ele><time>2026-04-03T11:48:34.002Z</time></trkpt><trkpt lat="44.348113817182266" lon="9.908719395434824"><ele>184.0</ele><time>2026-04-03T11:48:35.002Z</time></trkpt><trkpt lat="44.34820160419359" lon="9.908590011729652"><ele>184.0</ele><time>2026-04-03T11:48:36.002Z</time></trkpt><trkpt lat="44.34828406067693" lon="9.908476932227881"><ele>184.0</ele><time>2026-04-03T11:48:37.002Z</time></trkpt><trkpt lat="44.34836958985688" lon="9.908381233720528"><ele>184.0</ele><time>2026-04-03T11:48:38.002Z</time></trkpt><trkpt lat="44.348451883053265" lon="9.908291910789048"><ele>184.0</ele><time>2026-04-03T11:48:39.002Z</time></trkpt><trkpt lat="44.34853789687152" lon="9.908203981226418"><ele>184.0</ele><time>2026-04-03T11:48:40.002Z</time></trkpt><trkpt lat="44.34862662863046" lon="9.90812004546422"><ele>184.0</ele><time>2026-04-03T11:48:41.002Z</time></trkpt><trkpt lat="44.348716785197254" lon="9.908034083080805"><ele>184.0</ele><time>2026-04-03T11:48:42.002Z</time></trkpt><trkpt lat="44.34880708784935" lon="9.907952873447837"><ele>184.39999999999998</ele><time>2026-04-03T11:48:43.002Z</time></trkpt><trkpt lat="44.348899068587876" lon="9.907875893405706"><ele>184.8</ele><time>2026-04-03T11:48:44.002Z</time></trkpt><trkpt lat="44.34899183178734" lon="9.907804225507867"><ele>185.2</ele><time>2026-04-03T11:48:45.002Z</time></trkpt><trkpt lat="44.34908549128962" lon="9.907737847004443"><ele>185.60000000000002</ele><time>2026-04-03T11:48:46.002Z</time></trkpt><trkpt lat="44.34917589490122" lon="9.90766931888725"><ele>186.0</ele><time>2026-04-03T11:48:47.002Z</time></trkpt><trkpt lat="44.34926599030095" lon="9.90759863066033"><ele>186.0</ele><time>2026-04-03T11:48:48.002Z</time></trkpt><trkpt lat="44.349357619340076" lon="9.90752999873775"><ele>186.0</ele><time>2026-04-03T11:48:49.002Z</time></trkpt><trkpt lat="44.34944819217703" lon="9.90745630975028"><ele>186.0</ele><time>2026-04-03T11:48:50.002Z</time></trkpt><trkpt lat="44.34954225408651" lon="9.90738851489962"><ele>186.0</ele><time>2026-04-03T11:48:51.002Z</time></trkpt><trkpt lat="44.3496392410551" lon="9.907328418577404"><ele>186.0</ele><time>2026-04-03T11:48:52.002Z</time></trkpt><trkpt lat="44.349739308822215" lon="9.907269890857323"><ele>186.5</ele><time>2026-04-03T11:48:53.002Z</time></trkpt><trkpt lat="44.34984314294518" lon="9.907211290706824"><ele>187.0</ele><time>2026-04-03T11:48:54.002Z</time></trkpt><trkpt lat="44.349951187287196" lon="9.907152474351612"><ele>187.5</ele><time>2026-04-03T11:48:55.002Z</time></trkpt><trkpt lat="44.35005815105266" lon="9.907103570279226"><ele>188.0</ele><time>2026-04-03T11:48:56.002Z</time></trkpt><trkpt lat="44.35017234654488" lon="9.907051392629494"><ele>188.0</ele><time>2026-04-03T11:48:57.002Z</time></trkpt><trkpt lat="44.35028448873997" lon="9.907003000884933"><ele>188.0</ele><time>2026-04-03T11:48:58.002Z</time></trkpt><trkpt lat="44.350396820955375" lon="9.906960492609542"><ele>188.0</ele><time>2026-04-03T11:48:59.002Z</time></trkpt><trkpt lat="44.35051219371296" lon="9.90691299273983"><ele>188.0</ele><time>2026-04-03T11:49:00.002Z</time></trkpt><trkpt lat="44.35063308658537" lon="9.906868482689386"><ele>188.33333333333331</ele><time>2026-04-03T11:49:01.002Z</time></trkpt><trkpt lat="44.350772632740295" lon="9.90682086031998"><ele>188.66666666666666</ele><time>2026-04-03T11:49:02.002Z</time></trkpt><trkpt lat="44.3509266561853" lon="9.906761467853997"><ele>189.0</ele><time>2026-04-03T11:49:03.002Z</time></trkpt><trkpt lat="44.35108944571035" lon="9.90669618971317"><ele>189.0</ele><time>2026-04-03T11:49:04.002Z</time></trkpt><trkpt lat="44.35126043075411" lon="9.906624613862254"><ele>189.0</ele><time>2026-04-03T11:49:05.002Z</time></trkpt><trkpt lat="44.351441017998155" lon="9.906548210013693"><ele>189.0</ele><time>2026-04-03T11:49:06.002Z</time></trkpt><trkpt lat="44.35162304733465" lon="9.906468009694617"><ele>190.0</ele><time>2026-04-03T11:49:07.002Z</time></trkpt><trkpt lat="44.35180443807034" lon="9.906387821658626"><ele>191.0</ele><time>2026-04-03T11:49:08.002Z</time></trkpt><trkpt lat="44.351986809398156" lon="9.906310231618857"><ele>192.0</ele><time>2026-04-03T11:49:09.002Z</time></trkpt><trkpt lat="44.352171511824565" lon="9.906229998754634"><ele>192.33333333333331</ele><time>2026-04-03T11:49:10.002Z</time></trkpt><trkpt lat="44.35235905915451" lon="9.906151270227433"><ele>192.66666666666666</ele><time>2026-04-03T11:49:11.002Z</time></trkpt><trkpt lat="44.352543901994345" lon="9.906062251414022"><ele>193.0</ele><time>2026-04-03T11:49:12.002Z</time></trkpt><trkpt lat="44.35272722737444" lon="9.90596201895785"><ele>193.0</ele><time>2026-04-03T11:49:13.002Z</time></trkpt><trkpt lat="44.35290325592809" lon="9.905838675831312"><ele>193.0</ele><time>2026-04-03T11:49:14.002Z</time></trkpt><trkpt lat="44.35307335033941" lon="9.905700120757178"><ele>193.0</ele><time>2026-04-03T11:49:15.002Z</time></trkpt><trkpt lat="44.35324369169629" lon="9.9055560010163"><ele>194.0</ele><time>2026-04-03T11:49:16.002Z</time></trkpt><trkpt lat="44.35341609680361" lon="9.905411169179352"><ele>195.0</ele><time>2026-04-03T11:49:17.002Z</time></trkpt><trkpt lat="44.353589539032306" lon="9.905268018659914"><ele>196.0</ele><time>2026-04-03T11:49:18.002Z</time></trkpt><trkpt lat="44.35376608925067" lon="9.905128609540474"><ele>196.66666666666666</ele><time>2026-04-03T11:49:19.002Z</time></trkpt><trkpt lat="44.35394260393281" lon="9.904990041155667"><ele>197.33333333333331</ele><time>2026-04-03T11:49:20.002Z</time></trkpt><trkpt lat="44.35412042283586" lon="9.90484710486234"><ele>198.0</ele><time>2026-04-03T11:49:21.002Z</time></trkpt><trkpt lat="44.354298015065666" lon="9.904701140029644"><ele>198.0</ele><time>2026-04-03T11:49:22.002Z</time></trkpt><trkpt lat="44.354475682132815" lon="9.904558927998718"><ele>198.0</ele><time>2026-04-03T11:49:23.002Z</time></trkpt><trkpt lat="44.354655627487276" lon="9.904411398175986"><ele>198.0</ele><time>2026-04-03T11:49:24.002Z</time></trkpt><trkpt lat="44.354837779841" lon="9.904262009976788"><ele>198.33333333333331</ele><time>2026-04-03T11:49:25.002Z</time></trkpt><trkpt lat="44.35501503280512" lon="9.904111508205347"><ele>198.66666666666666</ele><time>2026-04-03T11:49:26.002Z</time></trkpt><trkpt lat="44.355193637502786" lon="9.903964854404258"><ele>199.0</ele><time>2026-04-03T11:49:27.002Z</time></trkpt><trkpt lat="44.35537602757872" lon="9.90381879663292"><ele>198.66666666666666</ele><time>2026-04-03T11:49:28.002Z</time></trkpt><trkpt lat="44.355558735102925" lon="9.903680406346774"><ele>198.33333333333331</ele><time>2026-04-03T11:49:29.002Z</time></trkpt><trkpt lat="44.35574775407163" lon="9.90355435340557"><ele>198.0</ele><time>2026-04-03T11:49:30.002Z</time></trkpt><trkpt lat="44.3559462246682" lon="9.903442521389328"><ele>199.0</ele><time>2026-04-03T11:49:31.002Z</time></trkpt><trkpt lat="44.356145858163536" lon="9.90333925915342"><ele>200.0</ele><time>2026-04-03T11:49:32.002Z</time></trkpt><trkpt lat="44.356345473037685" lon="9.90323290975156"><ele>201.0</ele><time>2026-04-03T11:49:33.002Z</time></trkpt><trkpt lat="44.35654451041391" lon="9.90311748034224"><ele>201.33333333333331</ele><time>2026-04-03T11:49:34.002Z</time></trkpt><trkpt lat="44.35674711566393" lon="9.90299930323748"><ele>201.66666666666666</ele><time>2026-04-03T11:49:35.002Z</time></trkpt><trkpt lat="44.35694739806133" lon="9.902887514948151"><ele>202.0</ele><time>2026-04-03T11:49:36.002Z</time></trkpt><trkpt lat="44.357145757696735" lon="9.90277759570247"><ele>202.0</ele><time>2026-04-03T11:49:37.002Z</time></trkpt><trkpt lat="44.3573406611688" lon="9.902670342662878"><ele>202.0</ele><time>2026-04-03T11:49:38.002Z</time></trkpt><trkpt lat="44.35752093096827" lon="9.902571633356972"><ele>202.0</ele><time>2026-04-03T11:49:39.002Z</time></trkpt><trkpt lat="44.35768370185559" lon="9.902478925923882"><ele>202.0</ele><time>2026-04-03T11:49:40.002Z</time></trkpt><trkpt lat="44.357828381088815" lon="9.902379050330607"><ele>202.0</ele><time>2026-04-03T11:49:41.002Z</time></trkpt><trkpt lat="44.357962212727166" lon="9.902260938256436"><ele>202.0</ele><time>2026-04-03T11:49:42.002Z</time></trkpt><trkpt lat="44.35808842038125" lon="9.902123925393054"><ele>202.33333333333331</ele><time>2026-04-03T11:49:43.002Z</time></trkpt><trkpt lat="44.35821260773433" lon="9.901980022653689"><ele>202.66666666666669</ele><time>2026-04-03T11:49:44.002Z</time></trkpt><trkpt lat="44.35833636391576" lon="9.90183616167727"><ele>203.0</ele><time>2026-04-03T11:49:45.002Z</time></trkpt><trkpt lat="44.358457474382874" lon="9.901696198858755"><ele>202.5</ele><time>2026-04-03T11:49:46.002Z</time></trkpt><trkpt lat="44.3585684623212" lon="9.901566009521021"><ele>202.0</ele><time>2026-04-03T11:49:47.002Z</time></trkpt><trkpt lat="44.358669202786935" lon="9.901451926781373"><ele>201.5</ele><time>2026-04-03T11:49:48.002Z</time></trkpt><trkpt lat="44.35876146226659" lon="9.90134862760468"><ele>201.0</ele><time>2026-04-03T11:49:49.002Z</time></trkpt><trkpt lat="44.3588530843664" lon="9.901242271096196"><ele>201.25</ele><time>2026-04-03T11:49:50.002Z</time></trkpt><trkpt lat="44.35895538746902" lon="9.901125851749736"><ele>201.5</ele><time>2026-04-03T11:49:51.002Z</time></trkpt><trkpt lat="44.35906146887153" lon="9.901003245361416"><ele>201.75</ele><time>2026-04-03T11:49:52.002Z</time></trkpt><trkpt lat="44.359167096795886" lon="9.900885505309576"><ele>202.0</ele><time>2026-04-03T11:49:53.002Z</time></trkpt><trkpt lat="44.35926072457284" lon="9.900777543556272"><ele>202.0</ele><time>2026-04-03T11:49:54.002Z</time></trkpt><trkpt lat="44.35934891228902" lon="9.900678615101615"><ele>202.0</ele><time>2026-04-03T11:49:55.002Z</time></trkpt><trkpt lat="44.35943261884002" lon="9.90057910065846"><ele>202.0</ele><time>2026-04-03T11:49:56.002Z</time></trkpt><trkpt lat="44.359515925087976" lon="9.900486031387345"><ele>202.0</ele><time>2026-04-03T11:49:57.002Z</time></trkpt><trkpt lat="44.35959707589687" lon="9.900389709836833"><ele>202.0</ele><time>2026-04-03T11:49:58.002Z</time></trkpt><trkpt lat="44.35967707933607" lon="9.900292912383964"><ele>202.39999999999998</ele><time>2026-04-03T11:49:59.002Z</time></trkpt><trkpt lat="44.3597593034802" lon="9.90020438028406"><ele>202.79999999999998</ele><time>2026-04-03T11:50:00.002Z</time></trkpt><trkpt lat="44.35984062005592" lon="9.900109135409625"><ele>203.2</ele><time>2026-04-03T11:50:01.003Z</time></trkpt><trkpt lat="44.35992394119458" lon="9.900016750082825"><ele>203.6</ele><time>2026-04-03T11:50:02.003Z</time></trkpt><trkpt lat="44.36001015794555" lon="9.899921709054734"><ele>204.0</ele><time>2026-04-03T11:50:03.003Z</time></trkpt><trkpt lat="44.36009578520997" lon="9.899819462762185"><ele>204.0</ele><time>2026-04-03T11:50:04.003Z</time></trkpt><trkpt lat="44.360182210194424" lon="9.899720356835143"><ele>204.0</ele><time>2026-04-03T11:50:05.003Z</time></trkpt><trkpt lat="44.36026972259912" lon="9.899624219927977"><ele>204.0</ele><time>2026-04-03T11:50:06.003Z</time></trkpt><trkpt lat="44.36035218266196" lon="9.899531557112068"><ele>204.0</ele><time>2026-04-03T11:50:07.003Z</time></trkpt><trkpt lat="44.360435708611796" lon="9.899443238356811"><ele>204.0</ele><time>2026-04-03T11:50:08.003Z</time></trkpt><trkpt lat="44.36051260014342" lon="9.899350811867997"><ele>204.33333333333334</ele><time>2026-04-03T11:50:09.003Z</time></trkpt><trkpt lat="44.36058855144526" lon="9.899270022225872"><ele>204.66666666666669</ele><time>2026-04-03T11:50:10.003Z</time></trkpt><trkpt lat="44.36065943030863" lon="9.899195679511791"><ele>205.0</ele><time>2026-04-03T11:50:11.003Z</time></trkpt><trkpt lat="44.36071944373505" lon="9.899147803069301"><ele>205.33333333333334</ele><time>2026-04-03T11:50:12.003Z</time></trkpt><trkpt lat="44.360817355019016" lon="9.899134081556879"><ele>205.66666666666669</ele><time>2026-04-03T11:50:14.003Z</time></trkpt><trkpt lat="44.36089603335943" lon="9.899091978690771"><ele>206.0</ele><time>2026-04-03T11:50:16.003Z</time></trkpt><trkpt lat="44.3609691020586" lon="9.89898916705723"><ele>206.00000000000003</ele><time>2026-04-03T11:53:38.004Z</time></trkpt><trkpt lat="44.36103967213863" lon="9.898895893367587"><ele>206.0</ele><time>2026-04-03T11:53:40.004Z</time></trkpt><trkpt lat="44.361071147074234" lon="9.898794033497307"><ele>206.0</ele><time>2026-04-03T11:53:42.004Z</time></trkpt><trkpt lat="44.3611172411745" lon="9.898677942408124"><ele>206.0</ele><time>2026-04-03T11:53:44.004Z</time></trkpt><trkpt lat="44.361163222918194" lon="9.898606481526624"><ele>206.00000000000003</ele><time>2026-04-03T11:53:45.004Z</time></trkpt><trkpt lat="44.361223787893564" lon="9.898534267814549"><ele>206.0</ele><time>2026-04-03T11:53:46.004Z</time></trkpt><trkpt lat="44.361287324830656" lon="9.898459146466184"><ele>206.0</ele><time>2026-04-03T11:53:47.004Z</time></trkpt><trkpt lat="44.36136196281798" lon="9.898379229904474"><ele>206.0</ele><time>2026-04-03T11:53:48.004Z</time></trkpt><trkpt lat="44.36143664299162" lon="9.898299926351907"><ele>206.0</ele><time>2026-04-03T11:53:49.004Z</time></trkpt><trkpt lat="44.36151235238894" lon="9.898212688008453"><ele>206.0</ele><time>2026-04-03T11:53:50.004Z</time></trkpt><trkpt lat="44.361590746147954" lon="9.898121461089039"><ele>206.0</ele><time>2026-04-03T11:53:51.004Z</time></trkpt><trkpt lat="44.36166844902265" lon="9.898028358519184"><ele>206.20000000000002</ele><time>2026-04-03T11:53:52.004Z</time></trkpt><trkpt lat="44.36175224584019" lon="9.897934644359841"><ele>206.4</ele><time>2026-04-03T11:53:53.004Z</time></trkpt><trkpt lat="44.36183817618917" lon="9.897836327165292"><ele>206.6</ele><time>2026-04-03T11:53:54.004Z</time></trkpt><trkpt lat="44.361927669027196" lon="9.897740993632965"><ele>206.8</ele><time>2026-04-03T11:53:55.004Z</time></trkpt><trkpt lat="44.362019020985215" lon="9.89764571074651"><ele>207.0</ele><time>2026-04-03T11:53:56.004Z</time></trkpt><trkpt lat="44.362109969107046" lon="9.897527371264369"><ele>207.5</ele><time>2026-04-03T11:53:57.004Z</time></trkpt><trkpt lat="44.362212948361254" lon="9.897406961940218"><ele>208.0</ele><time>2026-04-03T11:53:58.004Z</time></trkpt><trkpt lat="44.36232443765314" lon="9.897281687830167"><ele>208.5</ele><time>2026-04-03T11:53:59.004Z</time></trkpt><trkpt lat="44.362445506980634" lon="9.89715524224195"><ele>209.0</ele><time>2026-04-03T11:54:00.004Z</time></trkpt><trkpt lat="44.36257267264444" lon="9.897004527787415"><ele>209.0</ele><time>2026-04-03T11:54:01.004Z</time></trkpt><trkpt lat="44.362705456133895" lon="9.896851945622876"><ele>209.0</ele><time>2026-04-03T11:54:02.004Z</time></trkpt><trkpt lat="44.362836925382055" lon="9.896699379839404"><ele>209.0</ele><time>2026-04-03T11:54:03.004Z</time></trkpt><trkpt lat="44.36296399589292" lon="9.896547188579467"><ele>209.66666666666669</ele><time>2026-04-03T11:54:04.004Z</time></trkpt><trkpt lat="44.36309446590456" lon="9.896396320029073"><ele>210.33333333333331</ele><time>2026-04-03T11:54:05.004Z</time></trkpt><trkpt lat="44.363223366653365" lon="9.896248429279803"><ele>211.0</ele><time>2026-04-03T11:54:06.004Z</time></trkpt><trkpt lat="44.36334369862823" lon="9.896093348281402"><ele>209.66666666666666</ele><time>2026-04-03T11:54:07.004Z</time></trkpt><trkpt lat="44.36344328595745" lon="9.895913650035782"><ele>208.33333333333331</ele><time>2026-04-03T11:54:08.004Z</time></trkpt><trkpt lat="44.36353228522988" lon="9.895715965516724"><ele>207.0</ele><time>2026-04-03T11:54:09.004Z</time></trkpt><trkpt lat="44.3636206327588" lon="9.895497762816179"><ele>207.0</ele><time>2026-04-03T11:54:10.005Z</time></trkpt><trkpt lat="44.363707508676754" lon="9.895291050522058"><ele>207.0</ele><time>2026-04-03T11:54:11.005Z</time></trkpt><trkpt lat="44.36380247012809" lon="9.895077933792184"><ele>207.0</ele><time>2026-04-03T11:54:12.005Z</time></trkpt><trkpt lat="44.36390071576215" lon="9.894859499615801"><ele>208.66666666666669</ele><time>2026-04-03T11:54:13.005Z</time></trkpt><trkpt lat="44.36399880243796" lon="9.894641801391657"><ele>210.33333333333334</ele><time>2026-04-03T11:54:14.005Z</time></trkpt><trkpt lat="44.36409472070856" lon="9.89442446176847"><ele>212.0</ele><time>2026-04-03T11:54:15.005Z</time></trkpt><trkpt lat="44.36418478266675" lon="9.89420549296404"><ele>212.0</ele><time>2026-04-03T11:54:16.005Z</time></trkpt><trkpt lat="44.3642657854963" lon="9.893983553643322"><ele>212.0</ele><time>2026-04-03T11:54:17.005Z</time></trkpt><trkpt lat="44.3643336079455" lon="9.893755479815416"><ele>212.0</ele><time>2026-04-03T11:54:18.005Z</time></trkpt><trkpt lat="44.36438829803107" lon="9.893522262248869"><ele>211.66666666666669</ele><time>2026-04-03T11:54:19.005Z</time></trkpt><trkpt lat="44.364425628962685" lon="9.89327673221817"><ele>211.33333333333331</ele><time>2026-04-03T11:54:20.005Z</time></trkpt><trkpt lat="44.3644546086249" lon="9.893025600008857"><ele>211.0</ele><time>2026-04-03T11:54:21.005Z</time></trkpt><trkpt lat="44.3644744110733" lon="9.892769240080293"><ele>211.0</ele><time>2026-04-03T11:54:22.005Z</time></trkpt><trkpt lat="44.36446660437591" lon="9.89250755500501"><ele>211.0</ele><time>2026-04-03T11:54:23.005Z</time></trkpt><trkpt lat="44.36445225886814" lon="9.892253170721784"><ele>211.0</ele><time>2026-04-03T11:54:24.005Z</time></trkpt><trkpt lat="44.36443144113521" lon="9.892002335166321"><ele>211.0</ele><time>2026-04-03T11:54:25.005Z</time></trkpt><trkpt lat="44.3644169025145" lon="9.891740330113828"><ele>211.0</ele><time>2026-04-03T11:54:26.005Z</time></trkpt><trkpt lat="44.364399809214" lon="9.891479648140997"><ele>211.0</ele><time>2026-04-03T11:54:27.005Z</time></trkpt><trkpt lat="44.36438869983821" lon="9.891226107063638"><ele>211.0</ele><time>2026-04-03T11:54:28.005Z</time></trkpt><trkpt lat="44.36437127400334" lon="9.89097489063922"><ele>211.0</ele><time>2026-04-03T11:54:29.005Z</time></trkpt><trkpt lat="44.364357020142144" lon="9.890724350011295"><ele>211.0</ele><time>2026-04-03T11:54:30.005Z</time></trkpt><trkpt lat="44.364343476772646" lon="9.890478099699582"><ele>211.66666666666666</ele><time>2026-04-03T11:54:31.005Z</time></trkpt><trkpt lat="44.36432071342222" lon="9.890234296419361"><ele>212.33333333333331</ele><time>2026-04-03T11:54:32.005Z</time></trkpt><trkpt lat="44.364278617085404" lon="9.889996090736052"><ele>213.0</ele><time>2026-04-03T11:54:33.005Z</time></trkpt><trkpt lat="44.36421521555439" lon="9.889759350939254"><ele>213.66666666666669</ele><time>2026-04-03T11:54:34.005Z</time></trkpt><trkpt lat="44.36414792329343" lon="9.889524943196921"><ele>214.33333333333334</ele><time>2026-04-03T11:54:35.005Z</time></trkpt><trkpt lat="44.364081798966765" lon="9.889283898226173"><ele>215.0</ele><time>2026-04-03T11:54:36.005Z</time></trkpt><trkpt lat="44.36401957768962" lon="9.889048543398928"><ele>213.66666666666669</ele><time>2026-04-03T11:54:37.005Z</time></trkpt><trkpt lat="44.36396165116818" lon="9.888812945726633"><ele>212.33333333333331</ele><time>2026-04-03T11:54:38.005Z</time></trkpt><trkpt lat="44.363898513081864" lon="9.88859833381917"><ele>211.0</ele><time>2026-04-03T11:54:39.005Z</time></trkpt><trkpt lat="44.363836147966055" lon="9.88842211943859"><ele>211.0</ele><time>2026-04-03T11:54:40.005Z</time></trkpt><trkpt lat="44.36377613592545" lon="9.888260819742477"><ele>211.0</ele><time>2026-04-03T11:54:41.005Z</time></trkpt><trkpt lat="44.36371599645477" lon="9.888106430727225"><ele>211.0</ele><time>2026-04-03T11:54:42.005Z</time></trkpt><trkpt lat="44.363654057109265" lon="9.887964285102532"><ele>211.0</ele><time>2026-04-03T11:54:43.005Z</time></trkpt><trkpt lat="44.36362169234949" lon="9.88780363413001"><ele>211.0</ele><time>2026-04-03T11:54:44.005Z</time></trkpt><trkpt lat="44.363614917642" lon="9.887617627758548"><ele>211.0</ele><time>2026-04-03T11:54:45.005Z</time></trkpt><trkpt lat="44.36361876528289" lon="9.887428239167283"><ele>211.0</ele><time>2026-04-03T11:54:46.005Z</time></trkpt><trkpt lat="44.36361095750463" lon="9.88723459088979"><ele>211.0</ele><time>2026-04-03T11:54:47.005Z</time></trkpt><trkpt lat="44.36361179580272" lon="9.887042901200601"><ele>211.75</ele><time>2026-04-03T11:54:48.005Z</time></trkpt><trkpt lat="44.36365100774095" lon="9.886859556822971"><ele>212.5</ele><time>2026-04-03T11:54:49.005Z</time></trkpt><trkpt lat="44.3637236755691" lon="9.886695364592958"><ele>213.25</ele><time>2026-04-03T11:54:50.005Z</time></trkpt><trkpt lat="44.36380797199977" lon="9.886540165638866"><ele>214.0</ele><time>2026-04-03T11:54:51.005Z</time></trkpt><trkpt lat="44.36390378446977" lon="9.886383501813741"><ele>217.33333333333331</ele><time>2026-04-03T11:54:52.005Z</time></trkpt><trkpt lat="44.36399876787544" lon="9.886215090736577"><ele>220.66666666666669</ele><time>2026-04-03T11:54:53.005Z</time></trkpt><trkpt lat="44.36409000505074" lon="9.886043528968248"><ele>224.0</ele><time>2026-04-03T11:54:54.005Z</time></trkpt><trkpt lat="44.36418454269575" lon="9.885867199127645"><ele>224.0</ele><time>2026-04-03T11:54:55.005Z</time></trkpt><trkpt lat="44.36428304298716" lon="9.88568963077542"><ele>224.0</ele><time>2026-04-03T11:54:56.005Z</time></trkpt><trkpt lat="44.36438413079758" lon="9.885527577358955"><ele>224.0</ele><time>2026-04-03T11:54:57.005Z</time></trkpt><trkpt lat="44.36448885815042" lon="9.885387903580028"><ele>224.0</ele><time>2026-04-03T11:54:58.005Z</time></trkpt><trkpt lat="44.36460012578221" lon="9.885264150248993"><ele>224.0</ele><time>2026-04-03T11:54:59.005Z</time></trkpt><trkpt lat="44.36471863345299" lon="9.885154946441823"><ele>224.0</ele><time>2026-04-03T11:55:00.005Z</time></trkpt><trkpt lat="44.364841700265096" lon="9.885067035328575"><ele>224.0</ele><time>2026-04-03T11:55:01.005Z</time></trkpt><trkpt lat="44.36497264034921" lon="9.885011459537292"><ele>223.75</ele><time>2026-04-03T11:55:02.005Z</time></trkpt><trkpt lat="44.36510816339818" lon="9.88497997421615"><ele>223.5</ele><time>2026-04-03T11:55:03.005Z</time></trkpt><trkpt lat="44.36524707023137" lon="9.884987891284718"><ele>223.25</ele><time>2026-04-03T11:55:04.005Z</time></trkpt><trkpt lat="44.36538513962215" lon="9.885016218324546"><ele>223.0</ele><time>2026-04-03T11:55:05.005Z</time></trkpt><trkpt lat="44.36552576290308" lon="9.885041229959791"><ele>224.5</ele><time>2026-04-03T11:55:06.005Z</time></trkpt><trkpt lat="44.36566934106104" lon="9.885070055649935"><ele>226.0</ele><time>2026-04-03T11:55:07.005Z</time></trkpt><trkpt lat="44.36581058534339" lon="9.885099083109562"><ele>227.5</ele><time>2026-04-03T11:55:08.005Z</time></trkpt><trkpt lat="44.36595670208764" lon="9.88512511629478"><ele>229.0</ele><time>2026-04-03T11:55:09.005Z</time></trkpt><trkpt lat="44.36609611253443" lon="9.885143049531425"><ele>234.66666666666666</ele><time>2026-04-03T11:55:10.005Z</time></trkpt><trkpt lat="44.36624507723753" lon="9.88517067084751"><ele>240.33333333333331</ele><time>2026-04-03T11:55:11.005Z</time></trkpt><trkpt lat="44.36639102146784" lon="9.885170053809196"><ele>246.0</ele><time>2026-04-03T11:55:12.005Z</time></trkpt><trkpt lat="44.36654548826675" lon="9.885168653737072"><ele>246.0</ele><time>2026-04-03T11:55:13.005Z</time></trkpt><trkpt lat="44.36671340682254" lon="9.885173554191216"><ele>246.0</ele><time>2026-04-03T11:55:14.005Z</time></trkpt><trkpt lat="44.366874777672955" lon="9.88517662464673"><ele>246.0</ele><time>2026-04-03T11:55:15.005Z</time></trkpt><trkpt lat="44.36704197046458" lon="9.885195463738771"><ele>242.25</ele><time>2026-04-03T11:55:16.005Z</time></trkpt><trkpt lat="44.36719725779032" lon="9.885199149479943"><ele>238.5</ele><time>2026-04-03T11:55:17.005Z</time></trkpt><trkpt lat="44.367341884842006" lon="9.885203512733215"><ele>234.75</ele><time>2026-04-03T11:55:18.005Z</time></trkpt><trkpt lat="44.36746855017563" lon="9.885206821076077"><ele>231.0</ele><time>2026-04-03T11:55:19.005Z</time></trkpt><trkpt lat="44.36758764777733" lon="9.885210087383134"><ele>231.0</ele><time>2026-04-03T11:55:20.005Z</time></trkpt><trkpt lat="44.367703793736176" lon="9.885210779613594"><ele>231.00000000000003</ele><time>2026-04-03T11:55:21.005Z</time></trkpt><trkpt lat="44.3678172133559" lon="9.885215526488976"><ele>231.00000000000003</ele><time>2026-04-03T11:55:22.005Z</time></trkpt><trkpt lat="44.36792394565635" lon="9.88522045808715"><ele>231.0</ele><time>2026-04-03T11:55:23.005Z</time></trkpt><trkpt lat="44.36803223802769" lon="9.885230445303378"><ele>231.0</ele><time>2026-04-03T11:55:24.005Z</time></trkpt><trkpt lat="44.368139022001905" lon="9.88525851063095"><ele>230.8</ele><time>2026-04-03T11:55:25.005Z</time></trkpt><trkpt lat="44.36824116059885" lon="9.885297473888041"><ele>230.60000000000002</ele><time>2026-04-03T11:55:26.005Z</time></trkpt><trkpt lat="44.368341581006746" lon="9.885349870530643"><ele>230.4</ele><time>2026-04-03T11:55:27.005Z</time></trkpt><trkpt lat="44.36843099433188" lon="9.885405006599719"><ele>230.2</ele><time>2026-04-03T11:55:28.005Z</time></trkpt><trkpt lat="44.36851268341923" lon="9.885448810712688"><ele>230.0</ele><time>2026-04-03T11:55:29.005Z</time></trkpt><trkpt lat="44.36858917552313" lon="9.88548772850717"><ele>230.0</ele><time>2026-04-03T11:55:30.005Z</time></trkpt><trkpt lat="44.36867987916946" lon="9.885547813496487"><ele>230.0</ele><time>2026-04-03T11:55:31.005Z</time></trkpt><trkpt lat="44.36878590500775" lon="9.885627284010985"><ele>230.0</ele><time>2026-04-03T11:55:32.005Z</time></trkpt><trkpt lat="44.368911246649034" lon="9.885715989686199"><ele>230.0</ele><time>2026-04-03T11:55:33.005Z</time></trkpt><trkpt lat="44.36905545970984" lon="9.885811406754994"><ele>230.33333333333334</ele><time>2026-04-03T11:55:34.005Z</time></trkpt><trkpt lat="44.369210996492264" lon="9.885910507990246"><ele>230.66666666666669</ele><time>2026-04-03T11:55:35.005Z</time></trkpt><trkpt lat="44.36936609673751" lon="9.886011946868821"><ele>231.0</ele><time>2026-04-03T11:55:36.005Z</time></trkpt><trkpt lat="44.369525487043305" lon="9.886104417835758"><ele>231.0</ele><time>2026-04-03T11:55:37.005Z</time></trkpt><trkpt lat="44.36967671429203" lon="9.886212238269591"><ele>231.0</ele><time>2026-04-03T11:55:38.005Z</time></trkpt><trkpt lat="44.369824794078966" lon="9.886334412471603"><ele>231.0</ele><time>2026-04-03T11:55:39.005Z</time></trkpt><trkpt lat="44.36997085702064" lon="9.886453858100573"><ele>231.0</ele><time>2026-04-03T11:55:40.005Z</time></trkpt><trkpt lat="44.370122886291114" lon="9.886563948364065"><ele>231.0</ele><time>2026-04-03T11:55:41.005Z</time></trkpt><trkpt lat="44.37027556844288" lon="9.886683861763935"><ele>231.0</ele><time>2026-04-03T11:55:42.005Z</time></trkpt><trkpt lat="44.370431116628026" lon="9.886792771057424"><ele>231.33333333333331</ele><time>2026-04-03T11:55:43.005Z</time></trkpt><trkpt lat="44.37058776103533" lon="9.886899189823025"><ele>231.66666666666666</ele><time>2026-04-03T11:55:44.005Z</time></trkpt><trkpt lat="44.370750153220555" lon="9.88699452619262"><ele>232.0</ele><time>2026-04-03T11:55:45.005Z</time></trkpt><trkpt lat="44.37091407680008" lon="9.887077271067286"><ele>232.0</ele><time>2026-04-03T11:55:46.005Z</time></trkpt><trkpt lat="44.37108425985769" lon="9.887146765894204"><ele>232.0</ele><time>2026-04-03T11:55:47.005Z</time></trkpt><trkpt lat="44.37125974016735" lon="9.887196987507323"><ele>232.0</ele><time>2026-04-03T11:55:48.005Z</time></trkpt><trkpt lat="44.37143092160884" lon="9.887216825911496"><ele>232.66666666666666</ele><time>2026-04-03T11:55:49.005Z</time></trkpt><trkpt lat="44.37160167323454" lon="9.887228349780463"><ele>233.33333333333331</ele><time>2026-04-03T11:55:50.005Z</time></trkpt><trkpt lat="44.37177483583688" lon="9.887204033847597"><ele>234.0</ele><time>2026-04-03T11:55:51.005Z</time></trkpt><trkpt lat="44.37196301478474" lon="9.887178642682898"><ele>234.0</ele><time>2026-04-03T11:55:52.005Z</time></trkpt><trkpt lat="44.37215049444618" lon="9.887134499923292"><ele>234.0</ele><time>2026-04-03T11:55:53.005Z</time></trkpt><trkpt lat="44.37232562230152" lon="9.887073831799686"><ele>234.0</ele><time>2026-04-03T11:55:54.005Z</time></trkpt><trkpt lat="44.37250404281667" lon="9.887002981190212"><ele>234.33333333333331</ele><time>2026-04-03T11:55:55.005Z</time></trkpt><trkpt lat="44.37268937656073" lon="9.886941992606792"><ele>234.66666666666666</ele><time>2026-04-03T11:55:56.005Z</time></trkpt><trkpt lat="44.372878397753226" lon="9.886890859506968"><ele>235.0</ele><time>2026-04-03T11:55:57.005Z</time></trkpt><trkpt lat="44.37306468541509" lon="9.88683355425835"><ele>235.33333333333331</ele><time>2026-04-03T11:55:58.005Z</time></trkpt><trkpt lat="44.373255206881005" lon="9.886777615082941"><ele>235.66666666666669</ele><time>2026-04-03T11:55:59.005Z</time></trkpt><trkpt lat="44.373443327542844" lon="9.886723010281226"><ele>236.0</ele><time>2026-04-03T11:56:00.005Z</time></trkpt><trkpt lat="44.37363232882152" lon="9.886652070129324"><ele>235.66666666666669</ele><time>2026-04-03T11:56:01.005Z</time></trkpt><trkpt lat="44.37381906418311" lon="9.886593433258032"><ele>235.33333333333331</ele><time>2026-04-03T11:56:02.005Z</time></trkpt><trkpt lat="44.37400751212623" lon="9.886539494331103"><ele>235.0</ele><time>2026-04-03T11:56:03.005Z</time></trkpt><trkpt lat="44.37419275396547" lon="9.886492054244455"><ele>235.0</ele><time>2026-04-03T11:56:04.005Z</time></trkpt><trkpt lat="44.374371531327746" lon="9.886444608674678"><ele>235.0</ele><time>2026-04-03T11:56:05.005Z</time></trkpt><trkpt lat="44.37454972038764" lon="9.886394415562616"><ele>235.0</ele><time>2026-04-03T11:56:06.005Z</time></trkpt><trkpt lat="44.374721808412204" lon="9.886357197759654"><ele>236.33333333333331</ele><time>2026-04-03T11:56:07.005Z</time></trkpt><trkpt lat="44.37488110241914" lon="9.886301345895959"><ele>237.66666666666669</ele><time>2026-04-03T11:56:08.005Z</time></trkpt><trkpt lat="44.37502918766242" lon="9.886246753205532"><ele>239.0</ele><time>2026-04-03T11:56:09.005Z</time></trkpt><trkpt lat="44.37518100859471" lon="9.886196925934703"><ele>239.0</ele><time>2026-04-03T11:56:10.005Z</time></trkpt><trkpt lat="44.37532125005024" lon="9.8861104628045"><ele>239.0</ele><time>2026-04-03T11:56:11.005Z</time></trkpt><trkpt lat="44.37545196754464" lon="9.885986308341723"><ele>239.0</ele><time>2026-04-03T11:56:12.005Z</time></trkpt><trkpt lat="44.37559146800169" lon="9.885852938107163"><ele>240.66666666666669</ele><time>2026-04-03T11:56:13.005Z</time></trkpt><trkpt lat="44.37574295520089" lon="9.885730610574985"><ele>242.33333333333331</ele><time>2026-04-03T11:56:14.006Z</time></trkpt><trkpt lat="44.375894924001166" lon="9.885625339997208"><ele>244.0</ele><time>2026-04-03T11:56:15.006Z</time></trkpt><trkpt lat="44.376048683399056" lon="9.885534461071998"><ele>244.0</ele><time>2026-04-03T11:56:16.006Z</time></trkpt><trkpt lat="44.376195034049225" lon="9.88545148903886"><ele>244.0</ele><time>2026-04-03T11:56:17.006Z</time></trkpt><trkpt lat="44.37633790616838" lon="9.885393511022471"><ele>244.0</ele><time>2026-04-03T11:56:18.006Z</time></trkpt><trkpt lat="44.37647683094777" lon="9.885324143939885"><ele>247.33333333333331</ele><time>2026-04-03T11:56:19.006Z</time></trkpt><trkpt lat="44.37662002742284" lon="9.885264653451427"><ele>250.66666666666669</ele><time>2026-04-03T11:56:20.006Z</time></trkpt><trkpt lat="44.37676796284669" lon="9.885207216549068"><ele>254.0</ele><time>2026-04-03T11:56:21.006Z</time></trkpt><trkpt lat="44.3769226144724" lon="9.885154478366834"><ele>254.0</ele><time>2026-04-03T11:56:22.006Z</time></trkpt><trkpt lat="44.37709297795763" lon="9.885121864658014"><ele>254.0</ele><time>2026-04-03T11:56:23.006Z</time></trkpt><trkpt lat="44.377259618530864" lon="9.885077471378306"><ele>254.0</ele><time>2026-04-03T11:56:24.006Z</time></trkpt><trkpt lat="44.37743331208173" lon="9.885018488099437"><ele>250.66666666666669</ele><time>2026-04-03T11:56:25.006Z</time></trkpt><trkpt lat="44.377599116189245" lon="9.884946474235946"><ele>247.33333333333331</ele><time>2026-04-03T11:56:26.006Z</time></trkpt><trkpt lat="44.37777705660791" lon="9.884872976060072"><ele>244.0</ele><time>2026-04-03T11:56:27.006Z</time></trkpt><trkpt lat="44.37796038370619" lon="9.884811452793063"><ele>245.33333333333331</ele><time>2026-04-03T11:56:28.006Z</time></trkpt><trkpt lat="44.37813705778212" lon="9.884742198298731"><ele>246.66666666666669</ele><time>2026-04-03T11:56:29.006Z</time></trkpt><trkpt lat="44.37831251242616" lon="9.88467080985757"><ele>248.0</ele><time>2026-04-03T11:56:30.006Z</time></trkpt><trkpt lat="44.37848606564855" lon="9.884607709742081"><ele>248.0</ele><time>2026-04-03T11:56:31.006Z</time></trkpt><trkpt lat="44.37866200800722" lon="9.884526871723047"><ele>248.0</ele><time>2026-04-03T11:56:32.006Z</time></trkpt><trkpt lat="44.378835049915466" lon="9.884442798258055"><ele>248.0</ele><time>2026-04-03T11:56:33.006Z</time></trkpt><trkpt lat="44.37899974315302" lon="9.884359137189392"><ele>249.66666666666669</ele><time>2026-04-03T11:56:34.006Z</time></trkpt><trkpt lat="44.379162147632854" lon="9.884282692747606"><ele>251.33333333333331</ele><time>2026-04-03T11:56:35.006Z</time></trkpt><trkpt lat="44.379320378346044" lon="9.884208914667932"><ele>253.0</ele><time>2026-04-03T11:56:36.006Z</time></trkpt><trkpt lat="44.37947148242447" lon="9.884137227423336"><ele>251.66666666666666</ele><time>2026-04-03T11:56:37.006Z</time></trkpt><trkpt lat="44.37961459778627" lon="9.884069985371394"><ele>250.33333333333331</ele><time>2026-04-03T11:56:38.006Z</time></trkpt><trkpt lat="44.379763075531955" lon="9.884016878657933"><ele>249.0</ele><time>2026-04-03T11:56:39.006Z</time></trkpt><trkpt lat="44.37991125181435" lon="9.883972419342294"><ele>249.0</ele><time>2026-04-03T11:56:40.006Z</time></trkpt><trkpt lat="44.3800572960406" lon="9.883929088645312"><ele>249.0</ele><time>2026-04-03T11:56:41.006Z</time></trkpt><trkpt lat="44.38020560822912" lon="9.883886463706586"><ele>249.0</ele><time>2026-04-03T11:56:42.006Z</time></trkpt><trkpt lat="44.380351842448356" lon="9.883850682679219"><ele>249.0</ele><time>2026-04-03T11:56:43.006Z</time></trkpt><trkpt lat="44.380489029784684" lon="9.883827067603375"><ele>248.66666666666669</ele><time>2026-04-03T11:56:44.006Z</time></trkpt><trkpt lat="44.380627779719504" lon="9.883813516768798"><ele>248.33333333333334</ele><time>2026-04-03T11:56:45.006Z</time></trkpt><trkpt lat="44.38077846832916" lon="9.88367582800723"><ele>248.0</ele><time>2026-04-03T11:56:46.006Z</time></trkpt><trkpt lat="44.381842232579324" lon="9.884308220624465"><ele>248.33333333333334</ele><time>2026-04-03T11:56:52.006Z</time></trkpt><trkpt lat="44.38206503091207" lon="9.884419178560604"><ele>248.66666666666669</ele><time>2026-04-03T11:56:53.006Z</time></trkpt><trkpt lat="44.382215102029086" lon="9.884352841908836"><ele>249.0</ele><time>2026-04-03T11:56:54.006Z</time></trkpt><trkpt lat="44.3823630631928" lon="9.884224728235012"><ele>249.0</ele><time>2026-04-03T11:56:55.006Z</time></trkpt><trkpt lat="44.38250284188574" lon="9.88410196990275"><ele>249.0</ele><time>2026-04-03T11:56:56.006Z</time></trkpt><trkpt lat="44.382638689538126" lon="9.883992050223323"><ele>249.0</ele><time>2026-04-03T11:56:57.006Z</time></trkpt><trkpt lat="44.38277590615931" lon="9.883900110609435"><ele>249.0</ele><time>2026-04-03T11:56:58.006Z</time></trkpt><trkpt lat="44.382915587737585" lon="9.883837291743358"><ele>249.0</ele><time>2026-04-03T11:56:59.006Z</time></trkpt><trkpt lat="44.383055877997506" lon="9.883805778494605"><ele>249.0</ele><time>2026-04-03T11:57:00.006Z</time></trkpt><trkpt lat="44.38320581068162" lon="9.88377267254923"><ele>249.0</ele><time>2026-04-03T11:57:01.006Z</time></trkpt><trkpt lat="44.38337406286302" lon="9.883759754059268"><ele>249.0</ele><time>2026-04-03T11:57:02.006Z</time></trkpt><trkpt lat="44.38354894389275" lon="9.88374251277917"><ele>249.0</ele><time>2026-04-03T11:57:03.006Z</time></trkpt><trkpt lat="44.38373187405405" lon="9.883738169772467"><ele>249.0</ele><time>2026-04-03T11:57:04.006Z</time></trkpt><trkpt lat="44.38390652815978" lon="9.883711029852476"><ele>250.33333333333331</ele><time>2026-04-03T11:57:05.006Z</time></trkpt><trkpt lat="44.384079590474215" lon="9.883701920989852"><ele>251.66666666666666</ele><time>2026-04-03T11:57:06.006Z</time></trkpt><trkpt lat="44.38426587215649" lon="9.88371930917879"><ele>253.0</ele><time>2026-04-03T11:57:07.006Z</time></trkpt><trkpt lat="44.38444889927889" lon="9.883731844916422"><ele>253.0</ele><time>2026-04-03T11:57:08.006Z</time></trkpt><trkpt lat="44.38463219688861" lon="9.883746029990498"><ele>253.0</ele><time>2026-04-03T11:57:09.006Z</time></trkpt><trkpt lat="44.38481694486122" lon="9.88377460926279"><ele>253.0</ele><time>2026-04-03T11:57:10.006Z</time></trkpt><trkpt lat="44.38500302688392" lon="9.883802732660518"><ele>254.0</ele><time>2026-04-03T11:57:11.006Z</time></trkpt><trkpt lat="44.385191006629455" lon="9.883831334305773"><ele>255.0</ele><time>2026-04-03T11:57:12.006Z</time></trkpt><trkpt lat="44.38538895080744" lon="9.883858564630254"><ele>256.0</ele><time>2026-04-03T11:57:13.006Z</time></trkpt><trkpt lat="44.38558790290594" lon="9.883886777924738"><ele>256.66666666666663</ele><time>2026-04-03T11:57:14.006Z</time></trkpt><trkpt lat="44.385790358703396" lon="9.883915926836366"><ele>257.3333333333333</ele><time>2026-04-03T11:57:15.006Z</time></trkpt><trkpt lat="44.38599475047603" lon="9.883949249596075"><ele>258.0</ele><time>2026-04-03T11:57:16.006Z</time></trkpt><trkpt lat="44.38619356507288" lon="9.88398230620034"><ele>259.0</ele><time>2026-04-03T11:57:17.006Z</time></trkpt><trkpt lat="44.386396154499465" lon="9.884009193423239"><ele>260.0</ele><time>2026-04-03T11:57:18.006Z</time></trkpt><trkpt lat="44.38660301251654" lon="9.884034523356991"><ele>261.0</ele><time>2026-04-03T11:57:19.006Z</time></trkpt><trkpt lat="44.3868066949859" lon="9.884066230665049"><ele>261.0</ele><time>2026-04-03T11:57:20.006Z</time></trkpt><trkpt lat="44.3870050571201" lon="9.884098594486563"><ele>261.0</ele><time>2026-04-03T11:57:21.006Z</time></trkpt><trkpt lat="44.38721367288756" lon="9.884129842842322"><ele>261.0</ele><time>2026-04-03T11:57:22.006Z</time></trkpt><trkpt lat="44.387421641597214" lon="9.884160748027988"><ele>262.3333333333333</ele><time>2026-04-03T11:57:23.006Z</time></trkpt><trkpt lat="44.387632646765034" lon="9.884187826307771"><ele>263.66666666666663</ele><time>2026-04-03T11:57:24.006Z</time></trkpt><trkpt lat="44.387842455529395" lon="9.88422406317958"><ele>265.0</ele><time>2026-04-03T11:57:25.006Z</time></trkpt><trkpt lat="44.3880511538253" lon="9.884267442535457"><ele>265.0</ele><time>2026-04-03T11:57:26.006Z</time></trkpt><trkpt lat="44.38826563275537" lon="9.884296989731029"><ele>265.0</ele><time>2026-04-03T11:57:27.006Z</time></trkpt><trkpt lat="44.388479595950216" lon="9.884330940145954"><ele>265.0</ele><time>2026-04-03T11:57:28.006Z</time></trkpt><trkpt lat="44.388693591552574" lon="9.88436369906379"><ele>265.0</ele><time>2026-04-03T11:57:29.006Z</time></trkpt><trkpt lat="44.38889925436806" lon="9.884392127611392"><ele>265.0</ele><time>2026-04-03T11:57:30.006Z</time></trkpt><trkpt lat="44.389109767581935" lon="9.88441126645655"><ele>265.0</ele><time>2026-04-03T11:57:31.006Z</time></trkpt><trkpt lat="44.38931132400208" lon="9.88442144143496"><ele>265.0</ele><time>2026-04-03T11:57:32.006Z</time></trkpt><trkpt lat="44.389514926962505" lon="9.884413241486987"><ele>265.0</ele><time>2026-04-03T11:57:33.006Z</time></trkpt><trkpt lat="44.38971436528379" lon="9.88438291068038"><ele>265.0</ele><time>2026-04-03T11:57:34.006Z</time></trkpt><trkpt lat="44.38991587441107" lon="9.88433285595161"><ele>266.0</ele><time>2026-04-03T11:57:35.006Z</time></trkpt><trkpt lat="44.39010618929935" lon="9.884267218652814"><ele>267.0</ele><time>2026-04-03T11:57:36.006Z</time></trkpt><trkpt lat="44.39029443101542" lon="9.884179309784654"><ele>268.0</ele><time>2026-04-03T11:57:37.006Z</time></trkpt><trkpt lat="44.390478932791396" lon="9.884070015457596"><ele>271.0</ele><time>2026-04-03T11:57:38.006Z</time></trkpt><trkpt lat="44.390656912157375" lon="9.883947396262139"><ele>274.0</ele><time>2026-04-03T11:57:39.006Z</time></trkpt><trkpt lat="44.39082343789241" lon="9.88380816331932"><ele>277.0</ele><time>2026-04-03T11:57:40.006Z</time></trkpt><trkpt lat="44.39098091860278" lon="9.883664196901796"><ele>277.0</ele><time>2026-04-03T11:57:41.006Z</time></trkpt><trkpt lat="44.391126228682836" lon="9.883517629031477"><ele>277.0</ele><time>2026-04-03T11:57:42.006Z</time></trkpt><trkpt lat="44.39126532038194" lon="9.88338174706593"><ele>277.0</ele><time>2026-04-03T11:57:43.006Z</time></trkpt><trkpt lat="44.39139901580959" lon="9.883251088624801"><ele>278.25</ele><time>2026-04-03T11:57:44.006Z</time></trkpt><trkpt lat="44.39151887035141" lon="9.883128205010967"><ele>279.5</ele><time>2026-04-03T11:57:45.006Z</time></trkpt><trkpt lat="44.39163305639405" lon="9.883012066278186"><ele>280.75</ele><time>2026-04-03T11:57:46.006Z</time></trkpt><trkpt lat="44.39174057853636" lon="9.882898941810762"><ele>282.0</ele><time>2026-04-03T11:57:47.006Z</time></trkpt><trkpt lat="44.39183272816609" lon="9.882804789845611"><ele>282.0</ele><time>2026-04-03T11:57:48.006Z</time></trkpt><trkpt lat="44.391911026582505" lon="9.882719731100662"><ele>282.0</ele><time>2026-04-03T11:57:49.006Z</time></trkpt><trkpt lat="44.391989908972185" lon="9.882640995151359"><ele>282.0</ele><time>2026-04-03T11:57:50.006Z</time></trkpt><trkpt lat="44.39207464691558" lon="9.882546313102072"><ele>282.0</ele><time>2026-04-03T11:57:51.006Z</time></trkpt><trkpt lat="44.39217881034322" lon="9.882437472749146"><ele>282.0</ele><time>2026-04-03T11:57:52.006Z</time></trkpt><trkpt lat="44.39230642300148" lon="9.882317139848178"><ele>284.0</ele><time>2026-04-03T11:57:53.006Z</time></trkpt><trkpt lat="44.392443361608706" lon="9.882188692122337"><ele>286.0</ele><time>2026-04-03T11:57:54.006Z</time></trkpt><trkpt lat="44.39257785519184" lon="9.882044601926584"><ele>288.0</ele><time>2026-04-03T11:57:55.006Z</time></trkpt><trkpt lat="44.39271549912947" lon="9.881896207444173"><ele>286.6666666666667</ele><time>2026-04-03T11:57:56.006Z</time></trkpt><trkpt lat="44.392858775217" lon="9.881760859422938"><ele>285.33333333333337</ele><time>2026-04-03T11:57:57.006Z</time></trkpt><trkpt lat="44.39299482729887" lon="9.881620020013148"><ele>284.0</ele><time>2026-04-03T11:57:58.006Z</time></trkpt><trkpt lat="44.39312170059631" lon="9.881497942353246"><ele>284.0</ele><time>2026-04-03T11:57:59.006Z</time></trkpt><trkpt lat="44.39322773952227" lon="9.881386880532077"><ele>284.0</ele><time>2026-04-03T11:58:00.006Z</time></trkpt><trkpt lat="44.39332238649935" lon="9.88129445168244"><ele>284.0</ele><time>2026-04-03T11:58:01.006Z</time></trkpt><trkpt lat="44.393418852091116" lon="9.881250589973153"><ele>284.0</ele><time>2026-04-03T11:58:02.006Z</time></trkpt><trkpt lat="44.39352219303777" lon="9.881261121929837"><ele>284.0</ele><time>2026-04-03T11:58:03.006Z</time></trkpt><trkpt lat="44.39363168333054" lon="9.881343632039876"><ele>284.0</ele><time>2026-04-03T11:58:04.006Z</time></trkpt><trkpt lat="44.393730805584184" lon="9.88148238170409"><ele>284.0</ele><time>2026-04-03T11:58:05.006Z</time></trkpt><trkpt lat="44.39381663451445" lon="9.881657297018464"><ele>284.0</ele><time>2026-04-03T11:58:06.006Z</time></trkpt><trkpt lat="44.39391774374812" lon="9.881839878685266"><ele>284.33333333333337</ele><time>2026-04-03T11:58:07.006Z</time></trkpt><trkpt lat="44.3940382004316" lon="9.88202711978183"><ele>284.6666666666667</ele><time>2026-04-03T11:58:08.006Z</time></trkpt><trkpt lat="44.39415575975126" lon="9.882209884833374"><ele>285.0</ele><time>2026-04-03T11:58:09.006Z</time></trkpt><trkpt lat="44.394267483263114" lon="9.882371292332214"><ele>285.0</ele><time>2026-04-03T11:58:10.006Z</time></trkpt><trkpt lat="44.39438041715719" lon="9.882501307930113"><ele>285.0</ele><time>2026-04-03T11:58:11.006Z</time></trkpt><trkpt lat="44.39451891673269" lon="9.88257481327711"><ele>285.0</ele><time>2026-04-03T11:58:12.006Z</time></trkpt><trkpt lat="44.39467416695908" lon="9.882604117344961"><ele>290.3333333333333</ele><time>2026-04-03T11:58:13.006Z</time></trkpt><trkpt lat="44.39483669971448" lon="9.882592229970456"><ele>295.66666666666663</ele><time>2026-04-03T11:58:14.006Z</time></trkpt><trkpt lat="44.39500446922711" lon="9.882559448482407"><ele>301.0</ele><time>2026-04-03T11:58:15.006Z</time></trkpt><trkpt lat="44.3951785135644" lon="9.882558940424168"><ele>301.0</ele><time>2026-04-03T11:58:16.006Z</time></trkpt><trkpt lat="44.39534136894734" lon="9.882594460434014"><ele>301.0</ele><time>2026-04-03T11:58:17.006Z</time></trkpt><trkpt lat="44.39551037337283" lon="9.882655946352466"><ele>301.0</ele><time>2026-04-03T11:58:18.006Z</time></trkpt><trkpt lat="44.39568953939543" lon="9.882717457876803"><ele>299.3333333333333</ele><time>2026-04-03T11:58:19.007Z</time></trkpt><trkpt lat="44.39587081115027" lon="9.882767775535232"><ele>297.6666666666667</ele><time>2026-04-03T11:58:20.007Z</time></trkpt><trkpt lat="44.39605211156693" lon="9.882834911189883"><ele>296.0</ele><time>2026-04-03T11:58:21.007Z</time></trkpt><trkpt lat="44.39622467839805" lon="9.88289456686636"><ele>303.33333333333337</ele><time>2026-04-03T11:58:22.007Z</time></trkpt><trkpt lat="44.39638287450562" lon="9.882965043706896"><ele>310.6666666666667</ele><time>2026-04-03T11:58:23.007Z</time></trkpt><trkpt lat="44.3965279172795" lon="9.883053704738563"><ele>318.0</ele><time>2026-04-03T11:58:24.007Z</time></trkpt><trkpt lat="44.39664093864577" lon="9.88318328951169"><ele>318.0</ele><time>2026-04-03T11:58:25.007Z</time></trkpt><trkpt lat="44.3967299497309" lon="9.883343572376262"><ele>318.0</ele><time>2026-04-03T11:58:26.007Z</time></trkpt><trkpt lat="44.39679887843164" lon="9.883536889304104"><ele>318.0</ele><time>2026-04-03T11:58:27.007Z</time></trkpt><trkpt lat="44.39685307781557" lon="9.883745795593958"><ele>314.6666666666667</ele><time>2026-04-03T11:58:28.007Z</time></trkpt><trkpt lat="44.39692484721584" lon="9.883956294043218"><ele>311.33333333333337</ele><time>2026-04-03T11:58:29.007Z</time></trkpt><trkpt lat="44.39700716558005" lon="9.884164208400069"><ele>308.0</ele><time>2026-04-03T11:58:30.007Z</time></trkpt><trkpt lat="44.39708396798321" lon="9.884360363958523"><ele>305.75</ele><time>2026-04-03T11:58:31.007Z</time></trkpt><trkpt lat="44.3971589134874" lon="9.884527761323307"><ele>303.5</ele><time>2026-04-03T11:58:32.007Z</time></trkpt><trkpt lat="44.39724389994321" lon="9.884674606642799"><ele>301.25</ele><time>2026-04-03T11:58:33.007Z</time></trkpt><trkpt lat="44.39732906036438" lon="9.88482925134161"><ele>299.0</ele><time>2026-04-03T11:58:34.007Z</time></trkpt><trkpt lat="44.39740942902295" lon="9.884984274587799"><ele>301.8</ele><time>2026-04-03T11:58:35.007Z</time></trkpt><trkpt lat="44.39748240906328" lon="9.885127180238097"><ele>304.59999999999997</ele><time>2026-04-03T11:58:36.007Z</time></trkpt><trkpt lat="44.39754675780891" lon="9.885242883843489"><ele>307.4</ele><time>2026-04-03T11:58:37.007Z</time></trkpt><trkpt lat="44.39761403350277" lon="9.885355067632792"><ele>310.2</ele><time>2026-04-03T11:58:38.007Z</time></trkpt><trkpt lat="44.39769171065811" lon="9.88545518564323"><ele>313.0</ele><time>2026-04-03T11:58:39.007Z</time></trkpt><trkpt lat="44.39776011074781" lon="9.885537577128042"><ele>313.0</ele><time>2026-04-03T11:58:40.007Z</time></trkpt><trkpt lat="44.39781706890834" lon="9.88560020004538"><ele>313.0</ele><time>2026-04-03T11:58:41.007Z</time></trkpt><trkpt lat="44.39788521121003" lon="9.885638731514566"><ele>313.0</ele><time>2026-04-03T11:58:42.007Z</time></trkpt><trkpt lat="44.39795480177104" lon="9.885681136612336"><ele>313.0</ele><time>2026-04-03T11:58:43.007Z</time></trkpt><trkpt lat="44.398027688936416" lon="9.88570695715628"><ele>313.0</ele><time>2026-04-03T11:58:44.007Z</time></trkpt><trkpt lat="44.398119730170656" lon="9.885673024683587"><ele>313.0</ele><time>2026-04-03T11:58:45.007Z</time></trkpt><trkpt lat="44.39821076877305" lon="9.885609089701662"><ele>316.0</ele><time>2026-04-03T11:58:46.007Z</time></trkpt><trkpt lat="44.39830158413986" lon="9.885572900276765"><ele>319.0</ele><time>2026-04-03T11:58:47.007Z</time></trkpt><trkpt lat="44.398397372843014" lon="9.885587062837095"><ele>322.0</ele><time>2026-04-03T11:58:48.007Z</time></trkpt><trkpt lat="44.39849290228889" lon="9.88562185258961"><ele>325.0</ele><time>2026-04-03T11:58:49.007Z</time></trkpt><trkpt lat="44.39859466508288" lon="9.885675687938216"><ele>328.0</ele><time>2026-04-03T11:58:50.007Z</time></trkpt><trkpt lat="44.398690498421686" lon="9.88570964153799"><ele>328.0</ele><time>2026-04-03T11:58:51.007Z</time></trkpt><trkpt lat="44.39878723533296" lon="9.885715599400966"><ele>328.0</ele><time>2026-04-03T11:58:52.007Z</time></trkpt><trkpt lat="44.39888297638934" lon="9.885723473299556"><ele>328.0</ele><time>2026-04-03T11:58:53.007Z</time></trkpt><trkpt lat="44.39897109589143" lon="9.88577593284881"><ele>328.0</ele><time>2026-04-03T11:58:54.007Z</time></trkpt><trkpt lat="44.39904554929777" lon="9.885869791716333"><ele>328.0</ele><time>2026-04-03T11:58:55.007Z</time></trkpt><trkpt lat="44.3991069519353" lon="9.885961307231161"><ele>324.79999999999995</ele><time>2026-04-03T11:58:56.007Z</time></trkpt><trkpt lat="44.399171083867785" lon="9.886038066239019"><ele>321.59999999999997</ele><time>2026-04-03T11:58:57.007Z</time></trkpt><trkpt lat="44.39924789790636" lon="9.886082553809922"><ele>318.4</ele><time>2026-04-03T11:58:58.007Z</time></trkpt><trkpt lat="44.39933924253709" lon="9.886109373999112"><ele>315.2</ele><time>2026-04-03T11:58:59.007Z</time></trkpt><trkpt lat="44.39943648054707" lon="9.88612288356453"><ele>312.0</ele><time>2026-04-03T11:59:00.007Z</time></trkpt><trkpt lat="44.399538454024935" lon="9.886145440249791"><ele>312.0</ele><time>2026-04-03T11:59:01.007Z</time></trkpt><trkpt lat="44.399640874399" lon="9.886179562796826"><ele>312.0</ele><time>2026-04-03T11:59:02.007Z</time></trkpt><trkpt lat="44.399743538362735" lon="9.886195988025602"><ele>312.0</ele><time>2026-04-03T11:59:03.007Z</time></trkpt><trkpt lat="44.39984046367722" lon="9.886227121022753"><ele>312.0</ele><time>2026-04-03T11:59:04.007Z</time></trkpt><trkpt lat="44.39992705581261" lon="9.886306606520026"><ele>312.0</ele><time>2026-04-03T11:59:05.007Z</time></trkpt><trkpt lat="44.40000285448575" lon="9.886402783853306"><ele>317.25</ele><time>2026-04-03T11:59:06.007Z</time></trkpt><trkpt lat="44.4000652862368" lon="9.886524458799633"><ele>322.5</ele><time>2026-04-03T11:59:07.007Z</time></trkpt><trkpt lat="44.400124451923" lon="9.886666626055455"><ele>327.75</ele><time>2026-04-03T11:59:08.007Z</time></trkpt><trkpt lat="44.400164664509134" lon="9.886818442554873"><ele>333.0</ele><time>2026-04-03T11:59:09.007Z</time></trkpt><trkpt lat="44.40019781220879" lon="9.88697438635492"><ele>333.0</ele><time>2026-04-03T11:59:10.007Z</time></trkpt><trkpt lat="44.400231545762594" lon="9.887120370902554"><ele>333.0</ele><time>2026-04-03T11:59:11.007Z</time></trkpt><trkpt lat="44.4002603011409" lon="9.887250768131846"><ele>333.0</ele><time>2026-04-03T11:59:12.007Z</time></trkpt><trkpt lat="44.40029820342038" lon="9.887365130183447"><ele>333.0</ele><time>2026-04-03T11:59:13.007Z</time></trkpt><trkpt lat="44.40035463603053" lon="9.887467201000401"><ele>333.0</ele><time>2026-04-03T11:59:14.007Z</time></trkpt><trkpt lat="44.40041923188438" lon="9.887552641818855"><ele>336.5</ele><time>2026-04-03T11:59:15.007Z</time></trkpt><trkpt lat="44.40050634192533" lon="9.887636539128037"><ele>340.0</ele><time>2026-04-03T11:59:16.007Z</time></trkpt><trkpt lat="44.4006087926435" lon="9.887723914642777"><ele>343.5</ele><time>2026-04-03T11:59:17.007Z</time></trkpt><trkpt lat="44.40070784026296" lon="9.88782021224003"><ele>347.0</ele><time>2026-04-03T11:59:18.007Z</time></trkpt><trkpt lat="44.40080564792139" lon="9.887918149174187"><ele>347.0</ele><time>2026-04-03T11:59:19.007Z</time></trkpt><trkpt lat="44.40089717833104" lon="9.887992832480785"><ele>347.0</ele><time>2026-04-03T11:59:20.007Z</time></trkpt><trkpt lat="44.40098468485165" lon="9.888073080635401"><ele>347.0</ele><time>2026-04-03T11:59:21.007Z</time></trkpt><trkpt lat="44.40106426928687" lon="9.888143418026345"><ele>347.0</ele><time>2026-04-03T11:59:22.007Z</time></trkpt><trkpt lat="44.40113270248821" lon="9.888218381847501"><ele>347.0</ele><time>2026-04-03T11:59:23.007Z</time></trkpt><trkpt lat="44.40120433183601" lon="9.888281529004201"><ele>347.0</ele><time>2026-04-03T11:59:24.007Z</time></trkpt><trkpt lat="44.40127256038783" lon="9.888319272225655"><ele>347.0</ele><time>2026-04-03T11:59:25.007Z</time></trkpt><trkpt lat="44.40138753359742" lon="9.8882770976436"><ele>347.0</ele><time>2026-04-03T11:59:27.007Z</time></trkpt><trkpt lat="44.4013903208082" lon="9.888182056954687"><ele>347.0</ele><time>2026-04-03T11:59:28.007Z</time></trkpt><trkpt lat="44.40136782329577" lon="9.888090984408455"><ele>347.0</ele><time>2026-04-03T11:59:29.007Z</time></trkpt><trkpt lat="44.40126031827183" lon="9.88798008101744"><ele>347.0</ele><time>2026-04-03T11:59:30.007Z</time></trkpt><trkpt lat="44.40113833267352" lon="9.887876726628214"><ele>347.0</ele><time>2026-04-03T11:59:31.007Z</time></trkpt><trkpt lat="44.40101593920676" lon="9.88774406586162"><ele>347.0</ele><time>2026-04-03T11:59:32.007Z</time></trkpt><trkpt lat="44.4009002408799" lon="9.887612934894717"><ele>347.0</ele><time>2026-04-03T11:59:33.007Z</time></trkpt><trkpt lat="44.40078897326535" lon="9.8874828068783"><ele>351.75</ele><time>2026-04-03T11:59:34.007Z</time></trkpt><trkpt lat="44.40070163280278" lon="9.887347664592767"><ele>356.5</ele><time>2026-04-03T11:59:35.007Z</time></trkpt><trkpt lat="44.40066379649396" lon="9.88718282428469"><ele>361.25</ele><time>2026-04-03T11:59:36.007Z</time></trkpt><trkpt lat="44.400654706068096" lon="9.886986473898675"><ele>366.0</ele><time>2026-04-03T11:59:37.007Z</time></trkpt><trkpt lat="44.40064859632843" lon="9.886780025190845"><ele>370.6666666666667</ele><time>2026-04-03T11:59:38.007Z</time></trkpt><trkpt lat="44.40063934310385" lon="9.886575192448364"><ele>375.33333333333337</ele><time>2026-04-03T11:59:39.007Z</time></trkpt><trkpt lat="44.400603302760125" lon="9.886374063569445"><ele>380.0</ele><time>2026-04-03T11:59:40.007Z</time></trkpt><trkpt lat="44.4005334582552" lon="9.886175257023847"><ele>377.6666666666667</ele><time>2026-04-03T11:59:41.007Z</time></trkpt><trkpt lat="44.4004186260154" lon="9.885999359458337"><ele>375.3333333333333</ele><time>2026-04-03T11:59:42.007Z</time></trkpt><trkpt lat="44.400301100101615" lon="9.885824080433453"><ele>373.0</ele><time>2026-04-03T11:59:43.007Z</time></trkpt><trkpt lat="44.40018928343339" lon="9.885670428617562"><ele>373.0</ele><time>2026-04-03T11:59:44.007Z</time></trkpt><trkpt lat="44.40005309433139" lon="9.885564483106759"><ele>373.0</ele><time>2026-04-03T11:59:45.007Z</time></trkpt><trkpt lat="44.399910429076066" lon="9.885490170022257"><ele>373.0</ele><time>2026-04-03T11:59:46.007Z</time></trkpt><trkpt lat="44.399777099562066" lon="9.88541784673152"><ele>374.25</ele><time>2026-04-03T11:59:47.007Z</time></trkpt><trkpt lat="44.39965733007456" lon="9.885341418684643"><ele>375.5</ele><time>2026-04-03T11:59:48.007Z</time></trkpt><trkpt lat="44.3995615299113" lon="9.885223128038588"><ele>376.75</ele><time>2026-04-03T11:59:49.007Z</time></trkpt><trkpt lat="44.399488118101075" lon="9.885054470479062"><ele>378.0</ele><time>2026-04-03T11:59:50.007Z</time></trkpt><trkpt lat="44.39942109515388" lon="9.884863141561313"><ele>378.0</ele><time>2026-04-03T11:59:51.007Z</time></trkpt><trkpt lat="44.39934355963338" lon="9.88466213118146"><ele>378.0</ele><time>2026-04-03T11:59:52.007Z</time></trkpt><trkpt lat="44.399251821911314" lon="9.884473428115825"><ele>378.0</ele><time>2026-04-03T11:59:53.007Z</time></trkpt><trkpt lat="44.39914450732434" lon="9.884294772367367"><ele>384.33333333333337</ele><time>2026-04-03T11:59:54.007Z</time></trkpt><trkpt lat="44.39902741805882" lon="9.884136095719184"><ele>390.6666666666667</ele><time>2026-04-03T11:59:55.007Z</time></trkpt><trkpt lat="44.39892259567114" lon="9.883983755913858"><ele>397.0</ele><time>2026-04-03T11:59:56.007Z</time></trkpt><trkpt lat="44.3988346194959" lon="9.883823152175466"><ele>391.33333333333337</ele><time>2026-04-03T11:59:57.007Z</time></trkpt><trkpt lat="44.3987900951449" lon="9.883608540325543"><ele>385.6666666666667</ele><time>2026-04-03T11:59:58.007Z</time></trkpt><trkpt lat="44.3987818365677" lon="9.883372974539643"><ele>380.0</ele><time>2026-04-03T11:59:59.007Z</time></trkpt><trkpt lat="44.398785979963144" lon="9.883139867187493"><ele>380.0</ele><time>2026-04-03T12:00:00.007Z</time></trkpt><trkpt lat="44.39879562349217" lon="9.88290453692762"><ele>380.0</ele><time>2026-04-03T12:00:01.007Z</time></trkpt><trkpt lat="44.39877414502925" lon="9.882690270018927"><ele>380.0</ele><time>2026-04-03T12:00:02.007Z</time></trkpt><trkpt lat="44.39871158971801" lon="9.8825122773939"><ele>383.6666666666667</ele><time>2026-04-03T12:00:03.007Z</time></trkpt><trkpt lat="44.39859138734162" lon="9.882356063569954"><ele>387.33333333333337</ele><time>2026-04-03T12:00:04.007Z</time></trkpt><trkpt lat="44.39848838946621" lon="9.882180326493181"><ele>391.0</ele><time>2026-04-03T12:00:05.007Z</time></trkpt><trkpt lat="44.3984319063024" lon="9.882003656916538"><ele>391.00000000000006</ele><time>2026-04-03T12:00:06.007Z</time></trkpt><trkpt lat="44.39840211981468" lon="9.881875760528361"><ele>391.0</ele><time>2026-04-03T12:00:07.007Z</time></trkpt><trkpt lat="44.39843350297925" lon="9.8817375523024"><ele>391.0</ele><time>2026-04-03T12:00:09.007Z</time></trkpt><trkpt lat="44.3984984426846" lon="9.881714976079396"><ele>391.0</ele><time>2026-04-03T12:00:10.007Z</time></trkpt><trkpt lat="44.39855983209112" lon="9.881762461647353"><ele>391.00000000000006</ele><time>2026-04-03T12:00:11.007Z</time></trkpt><trkpt lat="44.39860435924552" lon="9.881869603426308"><ele>391.0</ele><time>2026-04-03T12:00:12.007Z</time></trkpt><trkpt lat="44.39863682732776" lon="9.882004191091223"><ele>391.0</ele><time>2026-04-03T12:00:13.007Z</time></trkpt><trkpt lat="44.398678514861096" lon="9.882149787441687"><ele>391.0</ele><time>2026-04-03T12:00:14.007Z</time></trkpt><trkpt lat="44.39872838085143" lon="9.882281010361694"><ele>391.0</ele><time>2026-04-03T12:00:15.007Z</time></trkpt><trkpt lat="44.39879961963434" lon="9.88240805221955"><ele>391.0</ele><time>2026-04-03T12:00:16.007Z</time></trkpt><trkpt lat="44.39889795347081" lon="9.882514166110624"><ele>396.25</ele><time>2026-04-03T12:00:17.007Z</time></trkpt><trkpt lat="44.399013844224335" lon="9.882575211043996"><ele>401.5</ele><time>2026-04-03T12:00:18.007Z</time></trkpt><trkpt lat="44.39915492260772" lon="9.882604609245485"><ele>406.75</ele><time>2026-04-03T12:00:19.007Z</time></trkpt><trkpt lat="44.39927852320436" lon="9.882676944537634"><ele>412.0</ele><time>2026-04-03T12:00:20.007Z</time></trkpt><trkpt lat="44.39936322778571" lon="9.882801502637657"><ele>412.0</ele><time>2026-04-03T12:00:21.007Z</time></trkpt><trkpt lat="44.39940393175457" lon="9.882950810011863"><ele>412.0</ele><time>2026-04-03T12:00:22.007Z</time></trkpt><trkpt lat="44.39940094568289" lon="9.883128584108547"><ele>412.0</ele><time>2026-04-03T12:00:23.008Z</time></trkpt><trkpt lat="44.399394709509046" lon="9.883289539850567"><ele>412.0</ele><time>2026-04-03T12:00:24.008Z</time></trkpt><trkpt lat="44.39941467104096" lon="9.883451847106798"><ele>415.0</ele><time>2026-04-03T12:00:25.008Z</time></trkpt><trkpt lat="44.39951017514365" lon="9.883592381251056"><ele>418.0</ele><time>2026-04-03T12:00:26.008Z</time></trkpt><trkpt lat="44.39962892620415" lon="9.883715318777195"><ele>421.0</ele><time>2026-04-03T12:00:27.008Z</time></trkpt><trkpt lat="44.39976832669" lon="9.8838338674624"><ele>424.0</ele><time>2026-04-03T12:00:28.008Z</time></trkpt><trkpt lat="44.39991888034819" lon="9.8839943127651"><ele>424.0</ele><time>2026-04-03T12:00:29.008Z</time></trkpt><trkpt lat="44.40006539457601" lon="9.884137973207437"><ele>424.0</ele><time>2026-04-03T12:00:30.008Z</time></trkpt><trkpt lat="44.40020268296294" lon="9.884265097932524"><ele>424.0</ele><time>2026-04-03T12:00:31.008Z</time></trkpt><trkpt lat="44.4003483054353" lon="9.884367105215997"><ele>423.6666666666667</ele><time>2026-04-03T12:00:32.008Z</time></trkpt><trkpt lat="44.40049705122794" lon="9.88441665597163"><ele>423.33333333333337</ele><time>2026-04-03T12:00:33.008Z</time></trkpt><trkpt lat="44.400641303799844" lon="9.88451808497036"><ele>423.0</ele><time>2026-04-03T12:00:34.008Z</time></trkpt><trkpt lat="44.40077321992934" lon="9.884662211473033"><ele>423.0</ele><time>2026-04-03T12:00:35.008Z</time></trkpt><trkpt lat="44.400904174631115" lon="9.884802145671939"><ele>423.0</ele><time>2026-04-03T12:00:36.008Z</time></trkpt><trkpt lat="44.401047476472094" lon="9.884930355995584"><ele>423.0</ele><time>2026-04-03T12:00:37.008Z</time></trkpt><trkpt lat="44.40122799422621" lon="9.88500605462516"><ele>423.33333333333337</ele><time>2026-04-03T12:00:38.008Z</time></trkpt><trkpt lat="44.40142809661575" lon="9.885068554153357"><ele>423.6666666666667</ele><time>2026-04-03T12:00:39.008Z</time></trkpt><trkpt lat="44.401631655559264" lon="9.885143443852863"><ele>424.0</ele><time>2026-04-03T12:00:40.008Z</time></trkpt><trkpt lat="44.40182367149497" lon="9.885203917416897"><ele>424.0</ele><time>2026-04-03T12:00:41.008Z</time></trkpt><trkpt lat="44.40201402433235" lon="9.885233617886476"><ele>424.0</ele><time>2026-04-03T12:00:42.008Z</time></trkpt><trkpt lat="44.40219472896834" lon="9.88525155588875"><ele>424.0</ele><time>2026-04-03T12:00:43.008Z</time></trkpt><trkpt lat="44.40236691328147" lon="9.885278927408379"><ele>429.0</ele><time>2026-04-03T12:00:44.008Z</time></trkpt><trkpt lat="44.40250359267854" lon="9.885306474998899"><ele>434.0</ele><time>2026-04-03T12:00:45.008Z</time></trkpt><trkpt lat="44.40264172294816" lon="9.885341782457912"><ele>439.0</ele><time>2026-04-03T12:00:46.008Z</time></trkpt><trkpt lat="44.40278184258122" lon="9.885397494247245"><ele>444.0</ele><time>2026-04-03T12:00:47.008Z</time></trkpt><trkpt lat="44.402929831569686" lon="9.885504107353803"><ele>444.0</ele><time>2026-04-03T12:00:48.008Z</time></trkpt><trkpt lat="44.403075352639064" lon="9.885648308692936"><ele>444.0</ele><time>2026-04-03T12:00:49.008Z</time></trkpt><trkpt lat="44.40319104570791" lon="9.88583987494594"><ele>444.0</ele><time>2026-04-03T12:00:50.008Z</time></trkpt><trkpt lat="44.40331544136015" lon="9.886006715623322"><ele>444.0</ele><time>2026-04-03T12:00:51.008Z</time></trkpt><trkpt lat="44.403454786662124" lon="9.8861495006402"><ele>444.0</ele><time>2026-04-03T12:00:52.008Z</time></trkpt><trkpt lat="44.40361923203019" lon="9.886256850413014"><ele>444.0</ele><time>2026-04-03T12:00:53.008Z</time></trkpt><trkpt lat="44.40377881249698" lon="9.88637281201168"><ele>447.75</ele><time>2026-04-03T12:00:54.008Z</time></trkpt><trkpt lat="44.403916789073484" lon="9.886486798259236"><ele>451.5</ele><time>2026-04-03T12:00:55.008Z</time></trkpt><trkpt lat="44.404036507910924" lon="9.886580936414456"><ele>455.25</ele><time>2026-04-03T12:00:56.008Z</time></trkpt><trkpt lat="44.40413822386299" lon="9.886649098807705"><ele>459.0</ele><time>2026-04-03T12:00:57.008Z</time></trkpt><trkpt lat="44.40421815073434" lon="9.886698432573397"><ele>459.0</ele><time>2026-04-03T12:00:58.008Z</time></trkpt><trkpt lat="44.40428821098039" lon="9.886702699694007"><ele>459.0</ele><time>2026-04-03T12:00:59.008Z</time></trkpt><trkpt lat="44.4043330012455" lon="9.88662994103624"><ele>459.0</ele><time>2026-04-03T12:01:00.008Z</time></trkpt><trkpt lat="44.4043392752224" lon="9.886513705820045"><ele>459.0</ele><time>2026-04-03T12:01:01.008Z</time></trkpt><trkpt lat="44.40432098235422" lon="9.886407065674081"><ele>459.0</ele><time>2026-04-03T12:01:02.008Z</time></trkpt><trkpt lat="44.404203854162354" lon="9.886338821845978"><ele>459.0</ele><time>2026-04-03T12:01:03.008Z</time></trkpt><trkpt lat="44.40406694218115" lon="9.886293590389677"><ele>459.0</ele><time>2026-04-03T12:01:04.008Z</time></trkpt><trkpt lat="44.40393006431587" lon="9.88622513801211"><ele>459.0</ele><time>2026-04-03T12:01:05.008Z</time></trkpt><trkpt lat="44.40379402354331" lon="9.88612963761623"><ele>459.0</ele><time>2026-04-03T12:01:06.008Z</time></trkpt><trkpt lat="44.4036616364887" lon="9.88601775623548"><ele>459.66666666666663</ele><time>2026-04-03T12:01:07.008Z</time></trkpt><trkpt lat="44.403542776833724" lon="9.885885814891203"><ele>460.3333333333333</ele><time>2026-04-03T12:01:08.008Z</time></trkpt><trkpt lat="44.40344675203536" lon="9.885718701844404"><ele>461.0</ele><time>2026-04-03T12:01:09.008Z</time></trkpt><trkpt lat="44.40338355149572" lon="9.88551057399266"><ele>461.0</ele><time>2026-04-03T12:01:10.008Z</time></trkpt><trkpt lat="44.40332186982536" lon="9.885316165839193"><ele>461.0</ele><time>2026-04-03T12:01:11.008Z</time></trkpt><trkpt lat="44.403229903904574" lon="9.885147565353899"><ele>461.0</ele><time>2026-04-03T12:01:12.008Z</time></trkpt><trkpt lat="44.40309342815808" lon="9.88502173715051"><ele>461.66666666666663</ele><time>2026-04-03T12:01:13.008Z</time></trkpt><trkpt lat="44.40291798595867" lon="9.884918888346732"><ele>462.33333333333337</ele><time>2026-04-03T12:01:14.008Z</time></trkpt><trkpt lat="44.40275134142703" lon="9.884814509462053"><ele>463.0</ele><time>2026-04-03T12:01:15.008Z</time></trkpt><trkpt lat="44.40257610359292" lon="9.884715666679805"><ele>463.0</ele><time>2026-04-03T12:01:16.008Z</time></trkpt><trkpt lat="44.40239392659565" lon="9.884623991445048"><ele>463.0</ele><time>2026-04-03T12:01:17.008Z</time></trkpt><trkpt lat="44.40222148056377" lon="9.884527576799522"><ele>463.0</ele><time>2026-04-03T12:01:18.008Z</time></trkpt><trkpt lat="44.40206042044712" lon="9.884424929616129"><ele>464.6666666666667</ele><time>2026-04-03T12:01:19.008Z</time></trkpt><trkpt lat="44.401928832202145" lon="9.884289569104128"><ele>466.33333333333337</ele><time>2026-04-03T12:01:20.008Z</time></trkpt><trkpt lat="44.40182657771313" lon="9.884130272594712"><ele>468.0</ele><time>2026-04-03T12:01:21.008Z</time></trkpt><trkpt lat="44.40176219010087" lon="9.883923837158779"><ele>468.0</ele><time>2026-04-03T12:01:22.008Z</time></trkpt><trkpt lat="44.40169323230997" lon="9.88369937782461"><ele>468.0</ele><time>2026-04-03T12:01:23.008Z</time></trkpt><trkpt lat="44.40161156384185" lon="9.883488929142823"><ele>468.0</ele><time>2026-04-03T12:01:24.008Z</time></trkpt><trkpt lat="44.401531584259466" lon="9.883289320886885"><ele>471.0</ele><time>2026-04-03T12:01:25.008Z</time></trkpt><trkpt lat="44.401465760269524" lon="9.883116826089372"><ele>474.0</ele><time>2026-04-03T12:01:26.008Z</time></trkpt><trkpt lat="44.40140009988372" lon="9.882992117928083"><ele>477.0</ele><time>2026-04-03T12:01:27.008Z</time></trkpt><trkpt lat="44.40134993402941" lon="9.882915187491758"><ele>480.0</ele><time>2026-04-03T12:01:28.008Z</time></trkpt><trkpt lat="44.401414877180514" lon="9.882740423072196"><ele>480.0</ele><time>2026-04-03T12:01:30.008Z</time></trkpt><trkpt lat="44.40151148031809" lon="9.882732425515742"><ele>480.0</ele><time>2026-04-03T12:01:31.008Z</time></trkpt><trkpt lat="44.40159041724474" lon="9.882854183466279"><ele>480.0</ele><time>2026-04-03T12:01:32.008Z</time></trkpt><trkpt lat="44.40161839875613" lon="9.88297215383998"><ele>480.0</ele><time>2026-04-03T12:01:33.008Z</time></trkpt><trkpt lat="44.40166306690315" lon="9.883104869907143"><ele>480.0</ele><time>2026-04-03T12:01:34.008Z</time></trkpt><trkpt lat="44.40173370633003" lon="9.88324568570529"><ele>480.0</ele><time>2026-04-03T12:01:35.008Z</time></trkpt><trkpt lat="44.40181832298675" lon="9.883416537300663"><ele>480.0</ele><time>2026-04-03T12:01:36.008Z</time></trkpt><trkpt lat="44.40192172400776" lon="9.883581908146043"><ele>480.0</ele><time>2026-04-03T12:01:37.008Z</time></trkpt><trkpt lat="44.40203155103651" lon="9.883722825417335"><ele>480.66666666666663</ele><time>2026-04-03T12:01:38.008Z</time></trkpt><trkpt lat="44.402165969704775" lon="9.883820732421505"><ele>481.3333333333333</ele><time>2026-04-03T12:01:39.008Z</time></trkpt><trkpt lat="44.40230742475028" lon="9.88387530334489"><ele>482.0</ele><time>2026-04-03T12:01:40.008Z</time></trkpt><trkpt lat="44.40246009477377" lon="9.88388212390004"><ele>482.0</ele><time>2026-04-03T12:01:41.008Z</time></trkpt><trkpt lat="44.402618783021595" lon="9.883848535573655"><ele>482.0</ele><time>2026-04-03T12:01:42.008Z</time></trkpt><trkpt lat="44.40277239034435" lon="9.883832752564468"><ele>482.0</ele><time>2026-04-03T12:01:43.008Z</time></trkpt><trkpt lat="44.40295002404982" lon="9.883846572586656"><ele>486.3333333333333</ele><time>2026-04-03T12:01:44.008Z</time></trkpt><trkpt lat="44.40312781555758" lon="9.883951563289653"><ele>490.66666666666663</ele><time>2026-04-03T12:01:45.008Z</time></trkpt><trkpt lat="44.403296932001965" lon="9.884032705463142"><ele>495.0</ele><time>2026-04-03T12:01:46.008Z</time></trkpt><trkpt lat="44.40347263182131" lon="9.884083484886434"><ele>495.0</ele><time>2026-04-03T12:01:47.008Z</time></trkpt><trkpt lat="44.403642532027334" lon="9.884148428264627"><ele>495.0</ele><time>2026-04-03T12:01:48.008Z</time></trkpt><trkpt lat="44.40380257849726" lon="9.884255673115183"><ele>495.0</ele><time>2026-04-03T12:01:49.008Z</time></trkpt><trkpt lat="44.40394087829248" lon="9.884412753013278"><ele>495.0</ele><time>2026-04-03T12:01:50.008Z</time></trkpt><trkpt lat="44.40408423792701" lon="9.884566761786663"><ele>495.0</ele><time>2026-04-03T12:01:51.008Z</time></trkpt><trkpt lat="44.40423555125358" lon="9.88469755682622"><ele>495.0</ele><time>2026-04-03T12:01:52.008Z</time></trkpt><trkpt lat="44.404387070423894" lon="9.884824072126287"><ele>495.0</ele><time>2026-04-03T12:01:53.008Z</time></trkpt><trkpt lat="44.40451664912221" lon="9.884936556001453"><ele>495.0</ele><time>2026-04-03T12:01:54.008Z</time></trkpt><trkpt lat="44.40461568089959" lon="9.885035739377951"><ele>495.0</ele><time>2026-04-03T12:01:55.008Z</time></trkpt><trkpt lat="44.404683707958036" lon="9.885124162458787"><ele>495.0</ele><time>2026-04-03T12:01:56.008Z</time></trkpt><trkpt lat="44.404753845321146" lon="9.885170591234198"><ele>495.0</ele><time>2026-04-03T12:01:57.008Z</time></trkpt><trkpt lat="44.40483466548035" lon="9.885150473082303"><ele>498.4</ele><time>2026-04-03T12:01:58.008Z</time></trkpt><trkpt lat="44.404913540746186" lon="9.885075000643013"><ele>501.8</ele><time>2026-04-03T12:01:59.008Z</time></trkpt><trkpt lat="44.404936971325675" lon="9.884940594321726"><ele>505.20000000000005</ele><time>2026-04-03T12:02:00.008Z</time></trkpt><trkpt lat="44.404905334170174" lon="9.884815016997662"><ele>508.6</ele><time>2026-04-03T12:02:01.008Z</time></trkpt><trkpt lat="44.404830588069345" lon="9.884724030602328"><ele>512.0</ele><time>2026-04-03T12:02:02.008Z</time></trkpt><trkpt lat="44.40473286773634" lon="9.884639760612043"><ele>511.0</ele><time>2026-04-03T12:02:03.008Z</time></trkpt><trkpt lat="44.404616294221995" lon="9.884495130480012"><ele>510.0</ele><time>2026-04-03T12:02:04.008Z</time></trkpt><trkpt lat="44.40450880343691" lon="9.884344843774098"><ele>509.0</ele><time>2026-04-03T12:02:05.008Z</time></trkpt><trkpt lat="44.4044001016546" lon="9.884180120460961"><ele>509.0</ele><time>2026-04-03T12:02:06.008Z</time></trkpt><trkpt lat="44.40428249730947" lon="9.884028388632956"><ele>509.0</ele><time>2026-04-03T12:02:07.008Z</time></trkpt><trkpt lat="44.4041628857087" lon="9.883874883997626"><ele>509.0</ele><time>2026-04-03T12:02:08.008Z</time></trkpt><trkpt lat="44.40403568951007" lon="9.883758941696984"><ele>509.0</ele><time>2026-04-03T12:02:09.008Z</time></trkpt><trkpt lat="44.4039213701786" lon="9.883672793671671"><ele>509.0</ele><time>2026-04-03T12:02:10.008Z</time></trkpt><trkpt lat="44.403821903096166" lon="9.883596800619962"><ele>509.0</ele><time>2026-04-03T12:02:11.008Z</time></trkpt><trkpt lat="44.40374490082359" lon="9.883540281418966"><ele>509.0</ele><time>2026-04-03T12:02:12.008Z</time></trkpt><trkpt lat="44.40370850869914" lon="9.883456149730941"><ele>509.0</ele><time>2026-04-03T12:02:13.008Z</time></trkpt><trkpt lat="44.40373236332695" lon="9.88335847858339"><ele>509.0</ele><time>2026-04-03T12:02:14.008Z</time></trkpt><trkpt lat="44.40380292064662" lon="9.883310964698847"><ele>509.0</ele><time>2026-04-03T12:02:15.008Z</time></trkpt><trkpt lat="44.403888727747905" lon="9.883349858754865"><ele>509.0</ele><time>2026-04-03T12:02:16.008Z</time></trkpt><trkpt lat="44.40398418118826" lon="9.883404105277195"><ele>509.0</ele><time>2026-04-03T12:02:17.008Z</time></trkpt><trkpt lat="44.40410114929852" lon="9.88346758758998"><ele>509.0</ele><time>2026-04-03T12:02:18.008Z</time></trkpt><trkpt lat="44.404234561518635" lon="9.88353525778113"><ele>509.0</ele><time>2026-04-03T12:02:19.008Z</time></trkpt><trkpt lat="44.4043891934955" lon="9.883613026697693"><ele>509.0</ele><time>2026-04-03T12:02:20.008Z</time></trkpt><trkpt lat="44.40454729304393" lon="9.883689719895887"><ele>509.0</ele><time>2026-04-03T12:02:21.008Z</time></trkpt><trkpt lat="44.404708476911324" lon="9.883771662427469"><ele>514.3333333333333</ele><time>2026-04-03T12:02:22.008Z</time></trkpt><trkpt lat="44.40487511580469" lon="9.883867911236301"><ele>519.6666666666666</ele><time>2026-04-03T12:02:23.008Z</time></trkpt><trkpt lat="44.40503793572939" lon="9.883995332380875"><ele>525.0</ele><time>2026-04-03T12:02:24.008Z</time></trkpt><trkpt lat="44.405199225118054" lon="9.884137756120602"><ele>527.6666666666666</ele><time>2026-04-03T12:02:25.008Z</time></trkpt><trkpt lat="44.4053474016537" lon="9.884283611117187"><ele>530.3333333333333</ele><time>2026-04-03T12:02:26.008Z</time></trkpt><trkpt lat="44.40547833015496" lon="9.884427212002109"><ele>533.0</ele><time>2026-04-03T12:02:27.008Z</time></trkpt><trkpt lat="44.40560851059755" lon="9.884589526413285"><ele>533.0</ele><time>2026-04-03T12:02:28.009Z</time></trkpt><trkpt lat="44.40572182269773" lon="9.884775448013002"><ele>533.0</ele><time>2026-04-03T12:02:29.009Z</time></trkpt><trkpt lat="44.40582518562928" lon="9.88497159847555"><ele>533.0</ele><time>2026-04-03T12:02:30.009Z</time></trkpt><trkpt lat="44.40591244437658" lon="9.885160333001204"><ele>526.6666666666666</ele><time>2026-04-03T12:02:31.009Z</time></trkpt><trkpt lat="44.406015400325494" lon="9.885321611565542"><ele>520.3333333333334</ele><time>2026-04-03T12:02:32.009Z</time></trkpt><trkpt lat="44.40614852287247" lon="9.885455812010392"><ele>514.0</ele><time>2026-04-03T12:02:33.009Z</time></trkpt><trkpt lat="44.40628565796061" lon="9.885587562980726"><ele>513.3333333333334</ele><time>2026-04-03T12:02:34.009Z</time></trkpt><trkpt lat="44.406437183435834" lon="9.885717009694728"><ele>512.6666666666666</ele><time>2026-04-03T12:02:35.009Z</time></trkpt><trkpt lat="44.40659769290161" lon="9.885844183442982"><ele>512.0</ele><time>2026-04-03T12:02:36.009Z</time></trkpt><trkpt lat="44.406778462702164" lon="9.885935416014965"><ele>512.0</ele><time>2026-04-03T12:02:37.009Z</time></trkpt><trkpt lat="44.40697594016557" lon="9.886019212829433"><ele>512.0</ele><time>2026-04-03T12:02:38.009Z</time></trkpt><trkpt lat="44.40718908693123" lon="9.886104184805072"><ele>512.0</ele><time>2026-04-03T12:02:39.009Z</time></trkpt><trkpt lat="44.40739011066923" lon="9.886202190986062"><ele>519.0</ele><time>2026-04-03T12:02:40.009Z</time></trkpt><trkpt lat="44.40757786958971" lon="9.886308843909022"><ele>526.0</ele><time>2026-04-03T12:02:41.009Z</time></trkpt><trkpt lat="44.40776011491425" lon="9.886447014546643"><ele>533.0</ele><time>2026-04-03T12:02:42.009Z</time></trkpt><trkpt lat="44.40793326860437" lon="9.886613046322921"><ele>535.3333333333333</ele><time>2026-04-03T12:02:43.009Z</time></trkpt><trkpt lat="44.40809724558304" lon="9.886793856068891"><ele>537.6666666666666</ele><time>2026-04-03T12:02:44.009Z</time></trkpt><trkpt lat="44.4082583085317" lon="9.886990533062972"><ele>540.0</ele><time>2026-04-03T12:02:45.009Z</time></trkpt><trkpt lat="44.408417083687844" lon="9.887194667262833"><ele>540.0</ele><time>2026-04-03T12:02:46.009Z</time></trkpt><trkpt lat="44.40859142207177" lon="9.887373501207964"><ele>540.0</ele><time>2026-04-03T12:02:47.009Z</time></trkpt><trkpt lat="44.40877280100355" lon="9.887528755710962"><ele>540.0</ele><time>2026-04-03T12:02:48.009Z</time></trkpt><trkpt lat="44.408949465562145" lon="9.88767770095006"><ele>546.0</ele><time>2026-04-03T12:02:49.009Z</time></trkpt><trkpt lat="44.409111048942464" lon="9.887841381822971"><ele>552.0</ele><time>2026-04-03T12:02:50.009Z</time></trkpt><trkpt lat="44.409246546646656" lon="9.888022321029469"><ele>558.0</ele><time>2026-04-03T12:02:51.009Z</time></trkpt><trkpt lat="44.409352085519444" lon="9.888189540082932"><ele>558.0</ele><time>2026-04-03T12:02:52.009Z</time></trkpt><trkpt lat="44.40942932591481" lon="9.888326690889214"><ele>558.0</ele><time>2026-04-03T12:02:53.009Z</time></trkpt><trkpt lat="44.409487598208344" lon="9.888434596838165"><ele>558.0</ele><time>2026-04-03T12:02:54.009Z</time></trkpt><trkpt lat="44.40950773643247" lon="9.88854569884016"><ele>558.0</ele><time>2026-04-03T12:02:55.009Z</time></trkpt><trkpt lat="44.40948733832286" lon="9.888661034638105"><ele>558.0</ele><time>2026-04-03T12:02:56.009Z</time></trkpt><trkpt lat="44.4094144971569" lon="9.888778846045753"><ele>560.0</ele><time>2026-04-03T12:02:57.009Z</time></trkpt><trkpt lat="44.40932442535792" lon="9.888896886543279"><ele>562.0</ele><time>2026-04-03T12:02:58.009Z</time></trkpt><trkpt lat="44.40923643977357" lon="9.889037992818771"><ele>564.0</ele><time>2026-04-03T12:02:59.009Z</time></trkpt><trkpt lat="44.40914770595148" lon="9.889211997007555"><ele>566.0</ele><time>2026-04-03T12:03:00.009Z</time></trkpt><trkpt lat="44.40906007253561" lon="9.88937072822134"><ele>568.0</ele><time>2026-04-03T12:03:01.009Z</time></trkpt><trkpt lat="44.40897863236172" lon="9.889533498829799"><ele>570.0</ele><time>2026-04-03T12:03:02.009Z</time></trkpt><trkpt lat="44.408917420631404" lon="9.889702546947927"><ele>572.0</ele><time>2026-04-03T12:03:03.009Z</time></trkpt><trkpt lat="44.40889247465219" lon="9.889885546215096"><ele>574.0</ele><time>2026-04-03T12:03:04.009Z</time></trkpt><trkpt lat="44.40889594463934" lon="9.890079945175025"><ele>571.0</ele><time>2026-04-03T12:03:05.009Z</time></trkpt><trkpt lat="44.40892861313176" lon="9.890268167007594"><ele>568.0</ele><time>2026-04-03T12:03:06.009Z</time></trkpt><trkpt lat="44.40900805069733" lon="9.890441363037825"><ele>565.0</ele><time>2026-04-03T12:03:07.009Z</time></trkpt><trkpt lat="44.409105497503845" lon="9.89061579349746"><ele>562.0</ele><time>2026-04-03T12:03:08.009Z</time></trkpt><trkpt lat="44.40921086773902" lon="9.890788683318545"><ele>554.6666666666667</ele><time>2026-04-03T12:03:09.009Z</time></trkpt><trkpt lat="44.40931031083876" lon="9.890949274402704"><ele>547.3333333333334</ele><time>2026-04-03T12:03:10.009Z</time></trkpt><trkpt lat="44.409432250403206" lon="9.891080692907634"><ele>540.0</ele><time>2026-04-03T12:03:11.009Z</time></trkpt><trkpt lat="44.409581937779485" lon="9.891176987334257"><ele>551.6666666666666</ele><time>2026-04-03T12:03:12.009Z</time></trkpt><trkpt lat="44.40975047043446" lon="9.891265607981085"><ele>563.3333333333333</ele><time>2026-04-03T12:03:13.009Z</time></trkpt><trkpt lat="44.409920780231275" lon="9.891361849087756"><ele>575.0</ele><time>2026-04-03T12:03:14.009Z</time></trkpt><trkpt lat="44.41011848381658" lon="9.891473197695884"><ele>575.0</ele><time>2026-04-03T12:03:15.009Z</time></trkpt><trkpt lat="44.41031403180236" lon="9.891590905202538"><ele>575.0</ele><time>2026-04-03T12:03:16.009Z</time></trkpt><trkpt lat="44.41051546886447" lon="9.891700916043956"><ele>575.0</ele><time>2026-04-03T12:03:17.009Z</time></trkpt><trkpt lat="44.41071811989014" lon="9.891814333801472"><ele>580.3333333333333</ele><time>2026-04-03T12:03:18.009Z</time></trkpt><trkpt lat="44.41092583578532" lon="9.89193001106941"><ele>585.6666666666666</ele><time>2026-04-03T12:03:19.009Z</time></trkpt><trkpt lat="44.411132513002585" lon="9.892048571849697"><ele>591.0</ele><time>2026-04-03T12:03:20.009Z</time></trkpt><trkpt lat="44.411321957382306" lon="9.892157738791214"><ele>592.0</ele><time>2026-04-03T12:03:21.009Z</time></trkpt><trkpt lat="44.41150296087435" lon="9.892275451261632"><ele>593.0</ele><time>2026-04-03T12:03:22.009Z</time></trkpt><trkpt lat="44.41166629596427" lon="9.892422340783904"><ele>594.0</ele><time>2026-04-03T12:03:23.009Z</time></trkpt><trkpt lat="44.41181610775455" lon="9.892596454310262"><ele>595.0</ele><time>2026-04-03T12:03:24.009Z</time></trkpt><trkpt lat="44.411949655369035" lon="9.892789619957824"><ele>596.0</ele><time>2026-04-03T12:03:25.009Z</time></trkpt><trkpt lat="44.412072333876665" lon="9.893007874143118"><ele>597.0</ele><time>2026-04-03T12:03:26.009Z</time></trkpt><trkpt lat="44.412175655904306" lon="9.893255761651476"><ele>602.3333333333334</ele><time>2026-04-03T12:03:27.009Z</time></trkpt><trkpt lat="44.41227218219854" lon="9.893500860054353"><ele>607.6666666666667</ele><time>2026-04-03T12:03:28.009Z</time></trkpt><trkpt lat="44.41237771442709" lon="9.893732577828638"><ele>613.0</ele><time>2026-04-03T12:03:29.009Z</time></trkpt><trkpt lat="44.412512223618144" lon="9.893925856985371"><ele>613.0</ele><time>2026-04-03T12:03:30.009Z</time></trkpt><trkpt lat="44.41263441688801" lon="9.894097907948437"><ele>613.0</ele><time>2026-04-03T12:03:31.009Z</time></trkpt><trkpt lat="44.412762255234064" lon="9.894236695912612"><ele>613.0</ele><time>2026-04-03T12:03:32.009Z</time></trkpt><trkpt lat="44.41288567449926" lon="9.894359092819734"><ele>614.0</ele><time>2026-04-03T12:03:33.009Z</time></trkpt><trkpt lat="44.41298499817063" lon="9.894497123076883"><ele>615.0</ele><time>2026-04-03T12:03:34.009Z</time></trkpt><trkpt lat="44.413052547486984" lon="9.89467939759903"><ele>616.0</ele><time>2026-04-03T12:03:35.009Z</time></trkpt><trkpt lat="44.41308621329789" lon="9.894899629171166"><ele>617.0</ele><time>2026-04-03T12:03:36.009Z</time></trkpt><trkpt lat="44.41310879656309" lon="9.89513016719035"><ele>617.0</ele><time>2026-04-03T12:03:37.009Z</time></trkpt><trkpt lat="44.41312824177755" lon="9.895364556143944"><ele>617.0</ele><time>2026-04-03T12:03:38.009Z</time></trkpt><trkpt lat="44.413149134714" lon="9.89561848194101"><ele>617.0</ele><time>2026-04-03T12:03:39.009Z</time></trkpt><trkpt lat="44.413172971375744" lon="9.895879458732953"><ele>615.3333333333333</ele><time>2026-04-03T12:03:40.009Z</time></trkpt><trkpt lat="44.41320623427368" lon="9.896139059672969"><ele>613.6666666666666</ele><time>2026-04-03T12:03:41.009Z</time></trkpt><trkpt lat="44.41323948523674" lon="9.89638939803808"><ele>612.0</ele><time>2026-04-03T12:03:42.009Z</time></trkpt><trkpt lat="44.41328546021391" lon="9.896615944076062"><ele>607.25</ele><time>2026-04-03T12:03:43.009Z</time></trkpt><trkpt lat="44.41332891761001" lon="9.8968096020607"><ele>602.5</ele><time>2026-04-03T12:03:44.009Z</time></trkpt><trkpt lat="44.4133780502518" lon="9.896986449703014"><ele>597.75</ele><time>2026-04-03T12:03:45.009Z</time></trkpt><trkpt lat="44.41344080010537" lon="9.897117824081967"><ele>593.0</ele><time>2026-04-03T12:03:45.982Z</time></trkpt><trkpt lat="44.413537715020304" lon="9.897211756331577"><ele>593.0</ele><time>2026-04-03T12:03:46.982Z</time></trkpt><trkpt lat="44.41365240370941" lon="9.89728414669895"><ele>593.0</ele><time>2026-04-03T12:03:47.983Z</time></trkpt><trkpt lat="44.41379705341103" lon="9.897327240089247"><ele>593.0</ele><time>2026-04-03T12:03:48.983Z</time></trkpt><trkpt lat="44.413944598565" lon="9.897411832838701"><ele>593.0</ele><time>2026-04-03T12:03:49.983Z</time></trkpt><trkpt lat="44.41408452626978" lon="9.897524797599754"><ele>597.6666666666666</ele><time>2026-04-03T12:03:50.983Z</time></trkpt><trkpt lat="44.414199521525084" lon="9.897670281393292"><ele>602.3333333333334</ele><time>2026-04-03T12:03:51.983Z</time></trkpt><trkpt lat="44.41428113216397" lon="9.89786238623896"><ele>607.0</ele><time>2026-04-03T12:03:52.983Z</time></trkpt><trkpt lat="44.414342372996046" lon="9.898081114288015"><ele>607.0</ele><time>2026-04-03T12:03:53.983Z</time></trkpt><trkpt lat="44.41436758933102" lon="9.898337507032887"><ele>607.0</ele><time>2026-04-03T12:03:54.983Z</time></trkpt><trkpt lat="44.41438999619272" lon="9.898592338353875"><ele>607.0</ele><time>2026-04-03T12:03:55.983Z</time></trkpt><trkpt lat="44.414417295541924" lon="9.898859246620065"><ele>603.3333333333334</ele><time>2026-04-03T12:03:56.983Z</time></trkpt><trkpt lat="44.41444632053466" lon="9.899125054649941"><ele>599.6666666666666</ele><time>2026-04-03T12:03:57.983Z</time></trkpt><trkpt lat="44.414486084445564" lon="9.899368684538537"><ele>596.0</ele><time>2026-04-03T12:03:58.983Z</time></trkpt><trkpt lat="44.41452328586547" lon="9.899599057114031"><ele>593.0</ele><time>2026-04-03T12:03:59.983Z</time></trkpt><trkpt lat="44.41458406222364" lon="9.899787104732487"><ele>590.0</ele><time>2026-04-03T12:04:00.983Z</time></trkpt><trkpt lat="44.41468213294087" lon="9.89996435373327"><ele>587.0</ele><time>2026-04-03T12:04:01.983Z</time></trkpt><trkpt lat="44.41479371736158" lon="9.90016044787842"><ele>593.6666666666666</ele><time>2026-04-03T12:04:02.983Z</time></trkpt><trkpt lat="44.414880588692576" lon="9.900369550570192"><ele>600.3333333333334</ele><time>2026-04-03T12:04:03.983Z</time></trkpt><trkpt lat="44.414980421592446" lon="9.90060201264499"><ele>607.0</ele><time>2026-04-03T12:04:04.983Z</time></trkpt><trkpt lat="44.41509030736113" lon="9.900808556542598"><ele>600.0</ele><time>2026-04-03T12:04:05.983Z</time></trkpt><trkpt lat="44.41521663592344" lon="9.90098869817227"><ele>593.0</ele><time>2026-04-03T12:04:06.983Z</time></trkpt><trkpt lat="44.41532551765357" lon="9.901162874006674"><ele>586.0</ele><time>2026-04-03T12:04:07.983Z</time></trkpt><trkpt lat="44.415409344301644" lon="9.90135895342191"><ele>586.0</ele><time>2026-04-03T12:04:08.983Z</time></trkpt><trkpt lat="44.415471421351896" lon="9.901574476636183"><ele>586.0</ele><time>2026-04-03T12:04:09.983Z</time></trkpt><trkpt lat="44.41553061912497" lon="9.901781761076801"><ele>586.0</ele><time>2026-04-03T12:04:10.983Z</time></trkpt><trkpt lat="44.41560298490892" lon="9.901953006082667"><ele>589.25</ele><time>2026-04-03T12:04:11.983Z</time></trkpt><trkpt lat="44.415693137882975" lon="9.902089127536586"><ele>592.5</ele><time>2026-04-03T12:04:12.983Z</time></trkpt><trkpt lat="44.41580766506437" lon="9.902180630266985"><ele>595.75</ele><time>2026-04-03T12:04:13.983Z</time></trkpt><trkpt lat="44.41594131555962" lon="9.90222800435249"><ele>599.0</ele><time>2026-04-03T12:04:14.983Z</time></trkpt><trkpt lat="44.416086802767836" lon="9.90224802873688"><ele>599.0</ele><time>2026-04-03T12:04:15.983Z</time></trkpt><trkpt lat="44.41624185916116" lon="9.90227884533679"><ele>599.0</ele><time>2026-04-03T12:04:16.983Z</time></trkpt><trkpt lat="44.41642907613802" lon="9.902304289445949"><ele>599.0</ele><time>2026-04-03T12:04:17.983Z</time></trkpt><trkpt lat="44.4166126398645" lon="9.902349750023673"><ele>600.6666666666666</ele><time>2026-04-03T12:04:18.983Z</time></trkpt><trkpt lat="44.41679083530769" lon="9.902379088537323"><ele>602.3333333333334</ele><time>2026-04-03T12:04:19.983Z</time></trkpt><trkpt lat="44.416951710194205" lon="9.902412843248873"><ele>604.0</ele><time>2026-04-03T12:04:20.983Z</time></trkpt><trkpt lat="44.41709225670548" lon="9.902450460532753"><ele>601.5</ele><time>2026-04-03T12:04:21.983Z</time></trkpt><trkpt lat="44.417213399286275" lon="9.902528546841015"><ele>599.0</ele><time>2026-04-03T12:04:22.983Z</time></trkpt><trkpt lat="44.417311299661776" lon="9.902653228219066"><ele>596.5</ele><time>2026-04-03T12:04:23.983Z</time></trkpt><trkpt lat="44.41738080168182" lon="9.90281478557944"><ele>594.0</ele><time>2026-04-03T12:04:24.983Z</time></trkpt><trkpt lat="44.417458998446335" lon="9.9029668986022"><ele>594.0</ele><time>2026-04-03T12:04:25.983Z</time></trkpt><trkpt lat="44.41756226789128" lon="9.903086595940353"><ele>594.0</ele><time>2026-04-03T12:04:26.983Z</time></trkpt><trkpt lat="44.417687795555764" lon="9.90317471617959"><ele>594.0</ele><time>2026-04-03T12:04:27.983Z</time></trkpt><trkpt lat="44.41783706105103" lon="9.90324906128455"><ele>594.0</ele><time>2026-04-03T12:04:28.983Z</time></trkpt><trkpt lat="44.41799555079283" lon="9.903304861912673"><ele>595.0</ele><time>2026-04-03T12:04:29.983Z</time></trkpt><trkpt lat="44.41814436978954" lon="9.903350930129335"><ele>596.0</ele><time>2026-04-03T12:04:30.983Z</time></trkpt><trkpt lat="44.41828002866334" lon="9.903368283490453"><ele>597.0</ele><time>2026-04-03T12:04:31.98Z</time></trkpt><trkpt lat="44.418415941233526" lon="9.903347388870417"><ele>598.0</ele><time>2026-04-03T12:04:32.98Z</time></trkpt><trkpt lat="44.418552110924544" lon="9.90330279292945"><ele>598.0</ele><time>2026-04-03T12:04:33.98Z</time></trkpt><trkpt lat="44.41869664364269" lon="9.90325395268686"><ele>598.0</ele><time>2026-04-03T12:04:34.98Z</time></trkpt><trkpt lat="44.41884191220624" lon="9.903211742192758"><ele>598.0</ele><time>2026-04-03T12:04:35.98Z</time></trkpt><trkpt lat="44.418966322790745" lon="9.903196122712059"><ele>598.0</ele><time>2026-04-03T12:04:36.98Z</time></trkpt><trkpt lat="44.41909139098452" lon="9.903236541451728"><ele>599.0</ele><time>2026-04-03T12:04:37.98Z</time></trkpt><trkpt lat="44.4192077983775" lon="9.903322080126538"><ele>600.0</ele><time>2026-04-03T12:04:38.98Z</time></trkpt><trkpt lat="44.41931374447127" lon="9.903440866300635"><ele>601.0</ele><time>2026-04-03T12:04:39.98Z</time></trkpt><trkpt lat="44.41943645263693" lon="9.903572886781387"><ele>602.0</ele><time>2026-04-03T12:04:40.98Z</time></trkpt><trkpt lat="44.419574461519055" lon="9.903697732300255"><ele>605.6666666666666</ele><time>2026-04-03T12:04:41.98Z</time></trkpt><trkpt lat="44.41972362953415" lon="9.903815853166652"><ele>609.3333333333334</ele><time>2026-04-03T12:04:42.98Z</time></trkpt><trkpt lat="44.41987587039922" lon="9.903933570344192"><ele>613.0</ele><time>2026-04-03T12:04:43.98Z</time></trkpt><trkpt lat="44.420012578239316" lon="9.904076480764084"><ele>613.0</ele><time>2026-04-03T12:04:44.98Z</time></trkpt><trkpt lat="44.420123179958814" lon="9.904241569256188"><ele>613.0</ele><time>2026-04-03T12:04:45.98Z</time></trkpt><trkpt lat="44.42022246235987" lon="9.904428788048525"><ele>613.0</ele><time>2026-04-03T12:04:46.98Z</time></trkpt><trkpt lat="44.42032827286357" lon="9.904603411152417"><ele>612.3333333333334</ele><time>2026-04-03T12:04:47.98Z</time></trkpt><trkpt lat="44.42045443434023" lon="9.904754384047878"><ele>611.6666666666666</ele><time>2026-04-03T12:04:48.98Z</time></trkpt><trkpt lat="44.42059015626469" lon="9.90486137123173"><ele>611.0</ele><time>2026-04-03T12:04:49.98Z</time></trkpt><trkpt lat="44.42072755510228" lon="9.90493476320202"><ele>612.3333333333333</ele><time>2026-04-03T12:04:50.98Z</time></trkpt><trkpt lat="44.42087435644721" lon="9.90496275295988"><ele>613.6666666666666</ele><time>2026-04-03T12:04:51.98Z</time></trkpt><trkpt lat="44.42103738612765" lon="9.904948138134044"><ele>615.0</ele><time>2026-04-03T12:04:52.98Z</time></trkpt><trkpt lat="44.42120924192334" lon="9.904894458336774"><ele>618.6666666666666</ele><time>2026-04-03T12:04:53.98Z</time></trkpt><trkpt lat="44.42138753187025" lon="9.904843763498109"><ele>622.3333333333333</ele><time>2026-04-03T12:04:54.98Z</time></trkpt><trkpt lat="44.4215759323625" lon="9.90480223507278"><ele>626.0</ele><time>2026-04-03T12:04:55.98Z</time></trkpt><trkpt lat="44.4217719135539" lon="9.904769701217425"><ele>626.0</ele><time>2026-04-03T12:04:56.98Z</time></trkpt><trkpt lat="44.42195501928092" lon="9.904748103411688"><ele>626.0</ele><time>2026-04-03T12:04:57.98Z</time></trkpt><trkpt lat="44.42211593180777" lon="9.904727532996107"><ele>626.0</ele><time>2026-04-03T12:04:58.98Z</time></trkpt><trkpt lat="44.42226885798099" lon="9.90466592317508"><ele>627.6666666666666</ele><time>2026-04-03T12:04:59.98Z</time></trkpt><trkpt lat="44.422407368823734" lon="9.904572459677313"><ele>629.3333333333334</ele><time>2026-04-03T12:05:00.98Z</time></trkpt><trkpt lat="44.42253759166528" lon="9.904420356352412"><ele>631.0</ele><time>2026-04-03T12:05:01.98Z</time></trkpt><trkpt lat="44.42264737071045" lon="9.904264690067057"><ele>630.5</ele><time>2026-04-03T12:05:02.98Z</time></trkpt><trkpt lat="44.42275165865941" lon="9.904133590309911"><ele>630.0</ele><time>2026-04-03T12:05:03.98Z</time></trkpt><trkpt lat="44.42288744474264" lon="9.904058405430794"><ele>629.5</ele><time>2026-04-03T12:05:04.98Z</time></trkpt><trkpt lat="44.42303808696597" lon="9.904028712661368"><ele>629.0</ele><time>2026-04-03T12:05:05.98Z</time></trkpt><trkpt lat="44.423198152427126" lon="9.904023409443644"><ele>631.0</ele><time>2026-04-03T12:05:06.98Z</time></trkpt><trkpt lat="44.423362703925314" lon="9.904039651625972"><ele>633.0</ele><time>2026-04-03T12:05:07.98Z</time></trkpt><trkpt lat="44.423534007019626" lon="9.90409963042309"><ele>635.0</ele><time>2026-04-03T12:05:08.98Z</time></trkpt><trkpt lat="44.42370458303327" lon="9.9041730654546"><ele>636.6666666666666</ele><time>2026-04-03T12:05:09.98Z</time></trkpt><trkpt lat="44.42386073122557" lon="9.90425653094603"><ele>638.3333333333334</ele><time>2026-04-03T12:05:10.98Z</time></trkpt><trkpt lat="44.42399285070366" lon="9.904350105146902"><ele>640.0</ele><time>2026-04-03T12:05:11.98Z</time></trkpt><trkpt lat="44.424099551151436" lon="9.904465518768314"><ele>640.0</ele><time>2026-04-03T12:05:12.98Z</time></trkpt><trkpt lat="44.42417233135174" lon="9.904609959079053"><ele>640.0</ele><time>2026-04-03T12:05:13.98Z</time></trkpt><trkpt lat="44.42421261011678" lon="9.904788349764571"><ele>640.0</ele><time>2026-04-03T12:05:14.98Z</time></trkpt><trkpt lat="44.42424538292116" lon="9.904980831813232"><ele>640.0</ele><time>2026-04-03T12:05:15.98Z</time></trkpt><trkpt lat="44.42430102518373" lon="9.905168535071036"><ele>635.6666666666667</ele><time>2026-04-03T12:05:16.98Z</time></trkpt><trkpt lat="44.42437366389815" lon="9.905344363962687"><ele>631.3333333333334</ele><time>2026-04-03T12:05:17.98Z</time></trkpt><trkpt lat="44.424460449847615" lon="9.905515208112396"><ele>627.0</ele><time>2026-04-03T12:05:18.98Z</time></trkpt><trkpt lat="44.42456530996267" lon="9.90567612241758"><ele>629.3333333333334</ele><time>2026-04-03T12:05:19.98Z</time></trkpt><trkpt lat="44.42468108488724" lon="9.905821508230444"><ele>631.6666666666667</ele><time>2026-04-03T12:05:20.981Z</time></trkpt><trkpt lat="44.42482162172142" lon="9.9059460103275"><ele>634.0</ele><time>2026-04-03T12:05:21.981Z</time></trkpt><trkpt lat="44.42497469572808" lon="9.906051279180954"><ele>634.0</ele><time>2026-04-03T12:05:22.981Z</time></trkpt><trkpt lat="44.42513288603196" lon="9.906162111280471"><ele>634.0</ele><time>2026-04-03T12:05:23.981Z</time></trkpt><trkpt lat="44.42527745433681" lon="9.906288647756579"><ele>634.0</ele><time>2026-04-03T12:05:24.981Z</time></trkpt><trkpt lat="44.425405282926555" lon="9.906448263018596"><ele>638.6666666666667</ele><time>2026-04-03T12:05:25.981Z</time></trkpt><trkpt lat="44.42552438843465" lon="9.906633497296971"><ele>643.3333333333334</ele><time>2026-04-03T12:05:26.981Z</time></trkpt><trkpt lat="44.42563355909496" lon="9.90682091896268"><ele>648.0</ele><time>2026-04-03T12:05:27.981Z</time></trkpt><trkpt lat="44.42573885526913" lon="9.907004868615816"><ele>648.0</ele><time>2026-04-03T12:05:28.981Z</time></trkpt><trkpt lat="44.425822183445746" lon="9.907201687960635"><ele>648.0</ele><time>2026-04-03T12:05:29.981Z</time></trkpt><trkpt lat="44.42588929476684" lon="9.907403140031235"><ele>648.0</ele><time>2026-04-03T12:05:30.981Z</time></trkpt><trkpt lat="44.42595977001465" lon="9.907569172219848"><ele>647.5999999999999</ele><time>2026-04-03T12:05:31.981Z</time></trkpt><trkpt lat="44.42602155155241" lon="9.90770521679955"><ele>647.1999999999999</ele><time>2026-04-03T12:05:32.981Z</time></trkpt><trkpt lat="44.4260970855355" lon="9.907791343103789"><ele>646.8</ele><time>2026-04-03T12:05:33.981Z</time></trkpt><trkpt lat="44.42619634254764" lon="9.907832712771137"><ele>646.4</ele><time>2026-04-03T12:05:34.981Z</time></trkpt><trkpt lat="44.42630978316065" lon="9.907805271083976"><ele>646.0</ele><time>2026-04-03T12:05:35.981Z</time></trkpt><trkpt lat="44.426441108968724" lon="9.907738960702265"><ele>646.0</ele><time>2026-04-03T12:05:36.981Z</time></trkpt><trkpt lat="44.42658300783322" lon="9.907675374982496"><ele>646.0</ele><time>2026-04-03T12:05:37.981Z</time></trkpt><trkpt lat="44.426724491779396" lon="9.90764678563442"><ele>646.0</ele><time>2026-04-03T12:05:38.981Z</time></trkpt><trkpt lat="44.426869823228124" lon="9.907667938613232"><ele>646.0</ele><time>2026-04-03T12:05:39.981Z</time></trkpt><trkpt lat="44.427023989330124" lon="9.907733723241792"><ele>649.3333333333334</ele><time>2026-04-03T12:05:40.981Z</time></trkpt><trkpt lat="44.42718741457988" lon="9.907817100956498"><ele>652.6666666666666</ele><time>2026-04-03T12:05:41.981Z</time></trkpt><trkpt lat="44.42736343179663" lon="9.907902770144812"><ele>656.0</ele><time>2026-04-03T12:05:42.981Z</time></trkpt><trkpt lat="44.427544111022776" lon="9.907984313230974"><ele>656.0</ele><time>2026-04-03T12:05:43.981Z</time></trkpt><trkpt lat="44.42773021192953" lon="9.908055468307708"><ele>656.0</ele><time>2026-04-03T12:05:44.981Z</time></trkpt><trkpt lat="44.42792118087704" lon="9.90811742440991"><ele>656.0</ele><time>2026-04-03T12:05:45.981Z</time></trkpt><trkpt lat="44.428098570814306" lon="9.908191990690609"><ele>656.3333333333333</ele><time>2026-04-03T12:05:46.981Z</time></trkpt><trkpt lat="44.4282601867759" lon="9.908292142937428"><ele>656.6666666666666</ele><time>2026-04-03T12:05:47.981Z</time></trkpt><trkpt lat="44.42841679549837" lon="9.908392510960628"><ele>657.0</ele><time>2026-04-03T12:05:48.981Z</time></trkpt><trkpt lat="44.42857070817577" lon="9.908474011146536"><ele>657.0</ele><time>2026-04-03T12:05:49.981Z</time></trkpt><trkpt lat="44.428723115889994" lon="9.908535576637288"><ele>657.0</ele><time>2026-04-03T12:05:50.981Z</time></trkpt><trkpt lat="44.42887834920311" lon="9.908546092846693"><ele>657.0</ele><time>2026-04-03T12:05:51.981Z</time></trkpt><trkpt lat="44.42905256867639" lon="9.90852190285971"><ele>657.3333333333334</ele><time>2026-04-03T12:05:52.981Z</time></trkpt><trkpt lat="44.429237231540135" lon="9.908442721058753"><ele>657.6666666666667</ele><time>2026-04-03T12:05:53.981Z</time></trkpt><trkpt lat="44.42939270378157" lon="9.90838622317787"><ele>658.0</ele><time>2026-04-03T12:05:54.981Z</time></trkpt><trkpt lat="44.42952734020022" lon="9.908377252724218"><ele>658.0</ele><time>2026-04-03T12:05:55.981Z</time></trkpt><trkpt lat="44.42963548497645" lon="9.908432678394155"><ele>658.0</ele><time>2026-04-03T12:05:56.981Z</time></trkpt><trkpt lat="44.42973367465873" lon="9.908554528393221"><ele>658.0</ele><time>2026-04-03T12:05:57.981Z</time></trkpt><trkpt lat="44.4298226050354" lon="9.908690598844716"><ele>658.0</ele><time>2026-04-03T12:05:58.981Z</time></trkpt><trkpt lat="44.42992121268653" lon="9.908746791551831"><ele>659.0</ele><time>2026-04-03T12:05:59.981Z</time></trkpt><trkpt lat="44.43004640242394" lon="9.908760227819442"><ele>660.0</ele><time>2026-04-03T12:06:00.981Z</time></trkpt><trkpt lat="44.43018725061111" lon="9.90873113872485"><ele>661.0</ele><time>2026-04-03T12:06:01.981Z</time></trkpt><trkpt lat="44.430326568523675" lon="9.908654646266038"><ele>662.0</ele><time>2026-04-03T12:06:02.981Z</time></trkpt><trkpt lat="44.43046195805301" lon="9.90852742935712"><ele>666.3333333333333</ele><time>2026-04-03T12:06:03.981Z</time></trkpt><trkpt lat="44.43060533130399" lon="9.908392225784329"><ele>670.6666666666666</ele><time>2026-04-03T12:06:04.981Z</time></trkpt><trkpt lat="44.430755854494755" lon="9.90825528977859"><ele>675.0</ele><time>2026-04-03T12:06:05.981Z</time></trkpt><trkpt lat="44.43089548033605" lon="9.908146688130696"><ele>675.0</ele><time>2026-04-03T12:06:06.981Z</time></trkpt><trkpt lat="44.43102373021544" lon="9.90806520499199"><ele>675.0</ele><time>2026-04-03T12:06:07.981Z</time></trkpt><trkpt lat="44.431164758342526" lon="9.908022211955835"><ele>675.0</ele><time>2026-04-03T12:06:08.981Z</time></trkpt><trkpt lat="44.431329972388504" lon="9.908019102024966"><ele>673.6666666666666</ele><time>2026-04-03T12:06:09.981Z</time></trkpt><trkpt lat="44.43150259109164" lon="9.908033382868322"><ele>672.3333333333333</ele><time>2026-04-03T12:06:10.981Z</time></trkpt><trkpt lat="44.43167590179064" lon="9.908037644193694"><ele>671.0</ele><time>2026-04-03T12:06:11.981Z</time></trkpt><trkpt lat="44.43184516711351" lon="9.908037968750712"><ele>671.0</ele><time>2026-04-03T12:06:12.981Z</time></trkpt><trkpt lat="44.432006329925436" lon="9.908046692344108"><ele>671.0</ele><time>2026-04-03T12:06:13.981Z</time></trkpt><trkpt lat="44.432158798483044" lon="9.908058973748261"><ele>671.0</ele><time>2026-04-03T12:06:14.981Z</time></trkpt><trkpt lat="44.43230734338987" lon="9.908082194506944"><ele>674.3333333333333</ele><time>2026-04-03T12:06:15.981Z</time></trkpt><trkpt lat="44.432445399334526" lon="9.90813724298706"><ele>677.6666666666666</ele><time>2026-04-03T12:06:16.981Z</time></trkpt><trkpt lat="44.432586577906726" lon="9.90824161595947"><ele>681.0</ele><time>2026-04-03T12:06:17.981Z</time></trkpt><trkpt lat="44.43272593402622" lon="9.90834057654301"><ele>681.0</ele><time>2026-04-03T12:06:18.981Z</time></trkpt><trkpt lat="44.43284786247244" lon="9.908403537928054"><ele>681.0</ele><time>2026-04-03T12:06:19.981Z</time></trkpt><trkpt lat="44.432962634504875" lon="9.908438765392946"><ele>681.0</ele><time>2026-04-03T12:06:20.981Z</time></trkpt><trkpt lat="44.43306521479497" lon="9.908401589205548"><ele>681.0</ele><time>2026-04-03T12:06:21.981Z</time></trkpt><trkpt lat="44.43316903744011" lon="9.908305721648375"><ele>681.75</ele><time>2026-04-03T12:06:22.981Z</time></trkpt><trkpt lat="44.43326663184662" lon="9.908165070472634"><ele>682.5</ele><time>2026-04-03T12:06:23.981Z</time></trkpt><trkpt lat="44.433344595236775" lon="9.908017099876952"><ele>683.25</ele><time>2026-04-03T12:06:24.981Z</time></trkpt><trkpt lat="44.433420059508855" lon="9.907905592348376"><ele>684.0</ele><time>2026-04-03T12:06:25.981Z</time></trkpt><trkpt lat="44.433507714588025" lon="9.907851904681472"><ele>684.0</ele><time>2026-04-03T12:06:26.981Z</time></trkpt><trkpt lat="44.4336012522667" lon="9.907893492539364"><ele>684.0</ele><time>2026-04-03T12:06:27.981Z</time></trkpt><trkpt lat="44.43369775689334" lon="9.908018751487626"><ele>684.0</ele><time>2026-04-03T12:06:28.981Z</time></trkpt><trkpt lat="44.43386567430745" lon="9.908364110856278"><ele>686.3333333333334</ele><time>2026-04-03T12:06:30.981Z</time></trkpt><trkpt lat="44.43396869399847" lon="9.908557948012088"><ele>688.6666666666667</ele><time>2026-04-03T12:06:31.981Z</time></trkpt><trkpt lat="44.434062962313455" lon="9.908739929276647"><ele>691.0</ele><time>2026-04-03T12:06:32.981Z</time></trkpt><trkpt lat="44.43415576693342" lon="9.908880120058464"><ele>691.0</ele><time>2026-04-03T12:06:33.981Z</time></trkpt><trkpt lat="44.4342674973048" lon="9.908985341292276"><ele>691.0</ele><time>2026-04-03T12:06:34.981Z</time></trkpt><trkpt lat="44.434406792930766" lon="9.909036707955675"><ele>691.0</ele><time>2026-04-03T12:06:35.981Z</time></trkpt><trkpt lat="44.43456021829729" lon="9.90905768601886"><ele>691.0</ele><time>2026-04-03T12:06:36.981Z</time></trkpt><trkpt lat="44.434716120541076" lon="9.909067226248075"><ele>690.75</ele><time>2026-04-03T12:06:37.978Z</time></trkpt><trkpt lat="44.43485008455236" lon="9.909091778666241"><ele>690.5</ele><time>2026-04-03T12:06:38.978Z</time></trkpt><trkpt lat="44.434962723606844" lon="9.909159257792352"><ele>690.25</ele><time>2026-04-03T12:06:39.978Z</time></trkpt><trkpt lat="44.435065514102746" lon="9.909290705128061"><ele>690.0</ele><time>2026-04-03T12:06:40.978Z</time></trkpt><trkpt lat="44.435136342754994" lon="9.909491527866042"><ele>693.0</ele><time>2026-04-03T12:06:41.979Z</time></trkpt><trkpt lat="44.43521395023695" lon="9.909662527459817"><ele>696.0</ele><time>2026-04-03T12:06:42.979Z</time></trkpt><trkpt lat="44.435339420453886" lon="9.909777134774956"><ele>699.0</ele><time>2026-04-03T12:06:43.978Z</time></trkpt><trkpt lat="44.43549875586917" lon="9.909874644468498"><ele>699.0</ele><time>2026-04-03T12:06:44.978Z</time></trkpt><trkpt lat="44.435661055645824" lon="9.909980446081224"><ele>699.0</ele><time>2026-04-03T12:06:45.978Z</time></trkpt><trkpt lat="44.4358624453245" lon="9.910092003037162"><ele>699.0</ele><time>2026-04-03T12:06:46.978Z</time></trkpt><trkpt lat="44.43605699631644" lon="9.910200494291617"><ele>703.0</ele><time>2026-04-03T12:06:47.978Z</time></trkpt><trkpt lat="44.436231254124685" lon="9.910308009286027"><ele>707.0</ele><time>2026-04-03T12:06:48.978Z</time></trkpt><trkpt lat="44.4363845183505" lon="9.910395734499888"><ele>711.0</ele><time>2026-04-03T12:06:49.978Z</time></trkpt><trkpt lat="44.43651806899568" lon="9.910460027184945"><ele>711.0</ele><time>2026-04-03T12:06:50.978Z</time></trkpt><trkpt lat="44.436648978018084" lon="9.910477697984433"><ele>711.0</ele><time>2026-04-03T12:06:51.978Z</time></trkpt><trkpt lat="44.43678941555068" lon="9.910444619362494"><ele>711.0</ele><time>2026-04-03T12:06:52.978Z</time></trkpt><trkpt lat="44.436919405577214" lon="9.910358211260128"><ele>711.0</ele><time>2026-04-03T12:06:53.978Z</time></trkpt><trkpt lat="44.43704099249278" lon="9.910234361243408"><ele>710.0</ele><time>2026-04-03T12:06:54.978Z</time></trkpt><trkpt lat="44.43715316507198" lon="9.910085223080376"><ele>709.0</ele><time>2026-04-03T12:06:55.978Z</time></trkpt><trkpt lat="44.43726516583595" lon="9.909933203943437"><ele>708.0</ele><time>2026-04-03T12:06:56.978Z</time></trkpt><trkpt lat="44.4373931755194" lon="9.909803721142147"><ele>708.0</ele><time>2026-04-03T12:06:57.978Z</time></trkpt><trkpt lat="44.43754229567089" lon="9.909714829305226"><ele>708.0</ele><time>2026-04-03T12:06:58.978Z</time></trkpt><trkpt lat="44.43770031272183" lon="9.909681310583295"><ele>708.0</ele><time>2026-04-03T12:06:59.978Z</time></trkpt><trkpt lat="44.43787188027792" lon="9.9096952903741"><ele>709.3333333333334</ele><time>2026-04-03T12:07:00.978Z</time></trkpt><trkpt lat="44.43805739786535" lon="9.909744135099137"><ele>710.6666666666667</ele><time>2026-04-03T12:07:01.978Z</time></trkpt><trkpt lat="44.43824722031909" lon="9.909793103823537"><ele>712.0</ele><time>2026-04-03T12:07:02.978Z</time></trkpt><trkpt lat="44.43844406983008" lon="9.909833167264084"><ele>712.0</ele><time>2026-04-03T12:07:03.978Z</time></trkpt><trkpt lat="44.43863359251386" lon="9.90985560846421"><ele>712.0</ele><time>2026-04-03T12:07:04.978Z</time></trkpt><trkpt lat="44.43880639236084" lon="9.909869804829473"><ele>712.0</ele><time>2026-04-03T12:07:05.978Z</time></trkpt><trkpt lat="44.43895902211099" lon="9.909856156509166"><ele>711.75</ele><time>2026-04-03T12:07:06.978Z</time></trkpt><trkpt lat="44.439085175542324" lon="9.909860041308649"><ele>711.5</ele><time>2026-04-03T12:07:07.978Z</time></trkpt><trkpt lat="44.43920117456844" lon="9.909907298447651"><ele>711.25</ele><time>2026-04-03T12:07:08.978Z</time></trkpt><trkpt lat="44.439298911348274" lon="9.910008154327295"><ele>711.0</ele><time>2026-04-03T12:07:09.978Z</time></trkpt><trkpt lat="44.43936507035012" lon="9.91016623012183"><ele>712.0</ele><time>2026-04-03T12:07:10.978Z</time></trkpt><trkpt lat="44.43942006176332" lon="9.910333511126721"><ele>713.0</ele><time>2026-04-03T12:07:11.978Z</time></trkpt><trkpt lat="44.43949244127105" lon="9.910453793566539"><ele>714.0</ele><time>2026-04-03T12:07:12.978Z</time></trkpt><trkpt lat="44.43959345265333" lon="9.91052209694209"><ele>715.0</ele><time>2026-04-03T12:07:13.978Z</time></trkpt><trkpt lat="44.43973373514031" lon="9.910512740510212"><ele>715.3333333333334</ele><time>2026-04-03T12:07:14.978Z</time></trkpt><trkpt lat="44.43989241929661" lon="9.910485468757823"><ele>715.6666666666666</ele><time>2026-04-03T12:07:15.978Z</time></trkpt><trkpt lat="44.440054900211095" lon="9.91045427301041"><ele>716.0</ele><time>2026-04-03T12:07:16.978Z</time></trkpt><trkpt lat="44.4402172769939" lon="9.910437389730072"><ele>716.0</ele><time>2026-04-03T12:07:17.979Z</time></trkpt><trkpt lat="44.44037550737578" lon="9.910423112419798"><ele>716.0</ele><time>2026-04-03T12:07:18.979Z</time></trkpt><trkpt lat="44.440520668769516" lon="9.91039403667188"><ele>716.0</ele><time>2026-04-03T12:07:19.979Z</time></trkpt><trkpt lat="44.44066225111741" lon="9.910346280307264"><ele>719.25</ele><time>2026-04-03T12:07:20.979Z</time></trkpt><trkpt lat="44.44079947079796" lon="9.910293925443808"><ele>722.5</ele><time>2026-04-03T12:07:21.979Z</time></trkpt><trkpt lat="44.440936872155135" lon="9.910237032405583"><ele>725.75</ele><time>2026-04-03T12:07:22.979Z</time></trkpt><trkpt lat="44.4410719126472" lon="9.910176115265187"><ele>729.0</ele><time>2026-04-03T12:07:23.979Z</time></trkpt><trkpt lat="44.441203760174226" lon="9.910084572772899"><ele>730.6666666666666</ele><time>2026-04-03T12:07:24.979Z</time></trkpt><trkpt lat="44.441327183954265" lon="9.909943839365248"><ele>732.3333333333333</ele><time>2026-04-03T12:07:25.979Z</time></trkpt><trkpt lat="44.441453183939636" lon="9.909796789359833"><ele>734.0</ele><time>2026-04-03T12:07:26.979Z</time></trkpt><trkpt lat="44.441571471369905" lon="9.90965268528979"><ele>734.0</ele><time>2026-04-03T12:07:27.979Z</time></trkpt><trkpt lat="44.44167719883686" lon="9.909531570091017"><ele>734.0</ele><time>2026-04-03T12:07:28.979Z</time></trkpt><trkpt lat="44.44176781951781" lon="9.909442130104843"><ele>734.0</ele><time>2026-04-03T12:07:29.979Z</time></trkpt><trkpt lat="44.44184490328272" lon="9.909387090878555"><ele>734.0</ele><time>2026-04-03T12:07:30.979Z</time></trkpt><trkpt lat="44.441934004862" lon="9.909366410249259"><ele>734.0</ele><time>2026-04-03T12:07:31.979Z</time></trkpt><trkpt lat="44.44202989786861" lon="9.90940607830546"><ele>734.0</ele><time>2026-04-03T12:07:32.979Z</time></trkpt><trkpt lat="44.44211453908275" lon="9.909499233446631"><ele>734.0</ele><time>2026-04-03T12:07:33.979Z</time></trkpt><trkpt lat="44.44218308626035" lon="9.909635293199255"><ele>734.0</ele><time>2026-04-03T12:07:34.979Z</time></trkpt><trkpt lat="44.442262851365825" lon="9.909767897866528"><ele>734.0</ele><time>2026-04-03T12:07:35.979Z</time></trkpt><trkpt lat="44.44236060536094" lon="9.909878617369131"><ele>735.25</ele><time>2026-04-03T12:07:36.979Z</time></trkpt><trkpt lat="44.44247779207057" lon="9.909948583517792"><ele>736.5</ele><time>2026-04-03T12:07:37.979Z</time></trkpt><trkpt lat="44.442609881077814" lon="9.90998024086113"><ele>737.75</ele><time>2026-04-03T12:07:38.979Z</time></trkpt><trkpt lat="44.44275283827832" lon="9.909969677034214"><ele>739.0</ele><time>2026-04-03T12:07:39.979Z</time></trkpt><trkpt lat="44.442891901683126" lon="9.909942300002934"><ele>742.25</ele><time>2026-04-03T12:07:40.979Z</time></trkpt><trkpt lat="44.44302463786586" lon="9.909884944698067"><ele>745.5</ele><time>2026-04-03T12:07:41.979Z</time></trkpt><trkpt lat="44.44315632514449" lon="9.909830504195876"><ele>748.75</ele><time>2026-04-03T12:07:42.979Z</time></trkpt><trkpt lat="44.443287466054045" lon="9.909772656992628"><ele>752.0</ele><time>2026-04-03T12:07:43.979Z</time></trkpt><trkpt lat="44.443409669040946" lon="9.90969738931681"><ele>752.0</ele><time>2026-04-03T12:07:44.979Z</time></trkpt><trkpt lat="44.44351732753725" lon="9.909600540634205"><ele>752.0</ele><time>2026-04-03T12:07:45.979Z</time></trkpt><trkpt lat="44.44360618825047" lon="9.909466010411599"><ele>752.0</ele><time>2026-04-03T12:07:46.979Z</time></trkpt><trkpt lat="44.44368622417924" lon="9.909313049646075"><ele>752.0</ele><time>2026-04-03T12:07:47.979Z</time></trkpt><trkpt lat="44.44376681522954" lon="9.909155073504397"><ele>754.5</ele><time>2026-04-03T12:07:48.979Z</time></trkpt><trkpt lat="44.443831074368916" lon="9.908984691248392"><ele>757.0</ele><time>2026-04-03T12:07:49.979Z</time></trkpt><trkpt lat="44.44388314126788" lon="9.908796887416079"><ele>759.5</ele><time>2026-04-03T12:07:50.979Z</time></trkpt><trkpt lat="44.44391558238459" lon="9.90859971824033"><ele>762.0</ele><time>2026-04-03T12:07:51.979Z</time></trkpt><trkpt lat="44.44393851925795" lon="9.908393268904"><ele>762.75</ele><time>2026-04-03T12:07:52.979Z</time></trkpt><trkpt lat="44.44398674264854" lon="9.90820368782126"><ele>763.5</ele><time>2026-04-03T12:07:53.979Z</time></trkpt><trkpt lat="44.44406880021671" lon="9.90804602042487"><ele>764.25</ele><time>2026-04-03T12:07:54.979Z</time></trkpt><trkpt lat="44.444165508252" lon="9.907913054928494"><ele>765.0</ele><time>2026-04-03T12:07:55.979Z</time></trkpt><trkpt lat="44.444263263503515" lon="9.90777915180912"><ele>765.0</ele><time>2026-04-03T12:07:56.979Z</time></trkpt><trkpt lat="44.44435894684075" lon="9.90764239135174"><ele>765.0</ele><time>2026-04-03T12:07:57.979Z</time></trkpt><trkpt lat="44.44443880406402" lon="9.907487445512592"><ele>765.0</ele><time>2026-04-03T12:07:58.979Z</time></trkpt><trkpt lat="44.444491650968644" lon="9.907333338679395"><ele>765.0</ele><time>2026-04-03T12:07:59.979Z</time></trkpt><trkpt lat="44.444520234513604" lon="9.907187251168917"><ele>762.75</ele><time>2026-04-03T12:08:00.979Z</time></trkpt><trkpt lat="44.44452506699181" lon="9.907034348363378"><ele>760.5</ele><time>2026-04-03T12:08:01.979Z</time></trkpt><trkpt lat="44.44450412980531" lon="9.906878232270017"><ele>758.25</ele><time>2026-04-03T12:08:02.979Z</time></trkpt><trkpt lat="44.44445052124759" lon="9.906712697169022"><ele>756.0</ele><time>2026-04-03T12:08:03.979Z</time></trkpt><trkpt lat="44.44440575163588" lon="9.906563144879893"><ele>755.75</ele><time>2026-04-03T12:08:04.979Z</time></trkpt><trkpt lat="44.44439511147263" lon="9.906378091891536"><ele>755.5</ele><time>2026-04-03T12:08:05.979Z</time></trkpt><trkpt lat="44.44443094394896" lon="9.906207157531904"><ele>755.25</ele><time>2026-04-03T12:08:06.979Z</time></trkpt><trkpt lat="44.44447408360289" lon="9.906043191182498"><ele>755.0</ele><time>2026-04-03T12:08:07.979Z</time></trkpt><trkpt lat="44.44453889848196" lon="9.90589280120177"><ele>755.0</ele><time>2026-04-03T12:08:08.979Z</time></trkpt><trkpt lat="44.4446211780094" lon="9.905762104465968"><ele>755.0</ele><time>2026-04-03T12:08:09.979Z</time></trkpt><trkpt lat="44.44472427538497" lon="9.905689449763457"><ele>755.0</ele><time>2026-04-03T12:08:10.979Z</time></trkpt><trkpt lat="44.44483367681852" lon="9.90569330053043"><ele>755.0</ele><time>2026-04-03T12:08:11.979Z</time></trkpt><trkpt lat="44.44493404911701" lon="9.90576251630489"><ele>759.75</ele><time>2026-04-03T12:08:12.979Z</time></trkpt><trkpt lat="44.44503445520645" lon="9.905847880583487"><ele>764.5</ele><time>2026-04-03T12:08:13.979Z</time></trkpt><trkpt lat="44.44515234479469" lon="9.905918429396932"><ele>769.25</ele><time>2026-04-03T12:08:14.979Z</time></trkpt><trkpt lat="44.44528789225674" lon="9.90597230927261"><ele>774.0</ele><time>2026-04-03T12:08:15.979Z</time></trkpt><trkpt lat="44.44544485559331" lon="9.906023674186224"><ele>781.3333333333333</ele><time>2026-04-03T12:08:16.979Z</time></trkpt><trkpt lat="44.445630247177625" lon="9.90608695403631"><ele>788.6666666666666</ele><time>2026-04-03T12:08:17.979Z</time></trkpt><trkpt lat="44.44581936185224" lon="9.906151697735448"><ele>796.0</ele><time>2026-04-03T12:08:18.979Z</time></trkpt><trkpt lat="44.44599024274325" lon="9.906209141341236"><ele>796.0</ele><time>2026-04-03T12:08:19.979Z</time></trkpt><trkpt lat="44.446144136756345" lon="9.906253983342431"><ele>796.0</ele><time>2026-04-03T12:08:20.979Z</time></trkpt><trkpt lat="44.44628396407075" lon="9.90628996766053"><ele>796.0</ele><time>2026-04-03T12:08:21.979Z</time></trkpt><trkpt lat="44.44641239641506" lon="9.906320428369922"><ele>796.0</ele><time>2026-04-03T12:08:22.979Z</time></trkpt><trkpt lat="44.4465230475592" lon="9.90634100408778"><ele>796.1666666666666</ele><time>2026-04-03T12:08:23.979Z</time></trkpt><trkpt lat="44.446615154526555" lon="9.906362234894239"><ele>796.3333333333333</ele><time>2026-04-03T12:08:24.979Z</time></trkpt><trkpt lat="44.446687268667624" lon="9.906409105756573"><ele>796.5</ele><time>2026-04-03T12:08:25.979Z</time></trkpt><trkpt lat="44.44672674688627" lon="9.906504872745447"><ele>796.6666666666667</ele><time>2026-04-03T12:08:26.979Z</time></trkpt><trkpt lat="44.44671550387753" lon="9.906617976807537"><ele>796.8333333333334</ele><time>2026-04-03T12:08:27.979Z</time></trkpt><trkpt lat="44.44663064074287" lon="9.906684765830754"><ele>797.0</ele><time>2026-04-03T12:08:28.979Z</time></trkpt><trkpt lat="44.446527895625735" lon="9.906675116198969"><ele>797.0</ele><time>2026-04-03T12:08:29.979Z</time></trkpt><trkpt lat="44.4464286356306" lon="9.906662836648607"><ele>797.0</ele><time>2026-04-03T12:08:30.979Z</time></trkpt><trkpt lat="44.446295856207385" lon="9.906649016045765"><ele>797.0</ele><time>2026-04-03T12:08:31.979Z</time></trkpt><trkpt lat="44.446143048562796" lon="9.906636073069224"><ele>797.0</ele><time>2026-04-03T12:08:32.979Z</time></trkpt><trkpt lat="44.445969609209534" lon="9.906625036755438"><ele>796.75</ele><time>2026-04-03T12:08:33.979Z</time></trkpt><trkpt lat="44.445816371498914" lon="9.906622313384181"><ele>796.5</ele><time>2026-04-03T12:08:34.979Z</time></trkpt><trkpt lat="44.445684619361735" lon="9.906628576694404"><ele>796.25</ele><time>2026-04-03T12:08:35.979Z</time></trkpt><trkpt lat="44.44557422360363" lon="9.90664894615035"><ele>796.0</ele><time>2026-04-03T12:08:36.979Z</time></trkpt><trkpt lat="44.44548642627591" lon="9.906708550043907"><ele>793.75</ele><time>2026-04-03T12:08:37.979Z</time></trkpt><trkpt lat="44.44541971457738" lon="9.90681594828501"><ele>791.5</ele><time>2026-04-03T12:08:38.979Z</time></trkpt><trkpt lat="44.44539927778204" lon="9.906964697795416"><ele>789.25</ele><time>2026-04-03T12:08:39.979Z</time></trkpt><trkpt lat="44.44540953442546" lon="9.907153985862688"><ele>787.0</ele><time>2026-04-03T12:08:40.979Z</time></trkpt><trkpt lat="44.44542087431184" lon="9.907358834729"><ele>787.0</ele><time>2026-04-03T12:08:41.979Z</time></trkpt><trkpt lat="44.445422771979715" lon="9.907567519973009"><ele>787.0</ele><time>2026-04-03T12:08:42.979Z</time></trkpt><trkpt lat="44.44542189710245" lon="9.90777104874475"><ele>787.0</ele><time>2026-04-03T12:08:43.977Z</time></trkpt><trkpt lat="44.445416393955675" lon="9.90796666494217"><ele>787.0</ele><time>2026-04-03T12:08:44.977Z</time></trkpt><trkpt lat="44.44541210850049" lon="9.908163920375241"><ele>788.0</ele><time>2026-04-03T12:08:45.977Z</time></trkpt><trkpt lat="44.44540903433128" lon="9.908360304726799"><ele>789.0</ele><time>2026-04-03T12:08:46.977Z</time></trkpt><trkpt lat="44.44541192119715" lon="9.908522236464645"><ele>790.0</ele><time>2026-04-03T12:08:47.977Z</time></trkpt><trkpt lat="44.44542967689262" lon="9.908659705505396"><ele>791.0</ele><time>2026-04-03T12:08:48.977Z</time></trkpt><trkpt lat="44.44547320223129" lon="9.908774118020732"><ele>792.0</ele><time>2026-04-03T12:08:49.977Z</time></trkpt><trkpt lat="44.4455448267616" lon="9.908851640089654"><ele>795.25</ele><time>2026-04-03T12:08:50.977Z</time></trkpt><trkpt lat="44.44563719121729" lon="9.908884354774477"><ele>798.5</ele><time>2026-04-03T12:08:51.977Z</time></trkpt><trkpt lat="44.4457664115209" lon="9.908883320789164"><ele>801.75</ele><time>2026-04-03T12:08:52.976Z</time></trkpt><trkpt lat="44.44589828907105" lon="9.908886308166087"><ele>805.0</ele><time>2026-04-03T12:08:53.977Z</time></trkpt><trkpt lat="44.446019877491665" lon="9.908889345431707"><ele>805.0</ele><time>2026-04-03T12:08:54.977Z</time></trkpt><trkpt lat="44.44612400543387" lon="9.908859008386822"><ele>805.0</ele><time>2026-04-03T12:08:55.976Z</time></trkpt><trkpt lat="44.44622246247097" lon="9.90877623822348"><ele>805.0</ele><time>2026-04-03T12:08:56.976Z</time></trkpt><trkpt lat="44.44632525736343" lon="9.908682770861953"><ele>805.0</ele><time>2026-04-03T12:08:57.976Z</time></trkpt><trkpt lat="44.44643552934179" lon="9.908628634670682"><ele>807.0</ele><time>2026-04-03T12:08:58.976Z</time></trkpt><trkpt lat="44.44655687715975" lon="9.908647560476837"><ele>809.0</ele><time>2026-04-03T12:08:59.976Z</time></trkpt><trkpt lat="44.44668654264816" lon="9.908725605518852"><ele>811.0</ele><time>2026-04-03T12:09:00.976Z</time></trkpt><trkpt lat="44.446805613686514" lon="9.908808582806385"><ele>813.0</ele><time>2026-04-03T12:09:01.976Z</time></trkpt><trkpt lat="44.44692220807956" lon="9.908852419546593"><ele>813.0</ele><time>2026-04-03T12:09:02.976Z</time></trkpt><trkpt lat="44.44702436256492" lon="9.908835204884872"><ele>813.0</ele><time>2026-04-03T12:09:03.976Z</time></trkpt><trkpt lat="44.447150107731105" lon="9.908775376696696"><ele>813.0</ele><time>2026-04-03T12:09:04.976Z</time></trkpt><trkpt lat="44.44728074626331" lon="9.908673410719189"><ele>813.0</ele><time>2026-04-03T12:09:05.976Z</time></trkpt><trkpt lat="44.44741161439113" lon="9.908583797961802"><ele>815.0</ele><time>2026-04-03T12:09:06.976Z</time></trkpt><trkpt lat="44.44753576174147" lon="9.90848659103731"><ele>817.0</ele><time>2026-04-03T12:09:07.976Z</time></trkpt><trkpt lat="44.44765470867078" lon="9.908379279381338"><ele>819.0</ele><time>2026-04-03T12:09:08.976Z</time></trkpt><trkpt lat="44.44776654267046" lon="9.908280220240059"><ele>821.0</ele><time>2026-04-03T12:09:09.976Z</time></trkpt><trkpt lat="44.44786517889314" lon="9.9081774878488"><ele>825.75</ele><time>2026-04-03T12:09:10.976Z</time></trkpt><trkpt lat="44.44796311702365" lon="9.908078239910006"><ele>830.5</ele><time>2026-04-03T12:09:11.976Z</time></trkpt><trkpt lat="44.448052636427526" lon="9.907966932101958"><ele>835.25</ele><time>2026-04-03T12:09:12.976Z</time></trkpt><trkpt lat="44.448120568384546" lon="9.907827966591876"><ele>840.0</ele><time>2026-04-03T12:09:13.976Z</time></trkpt><trkpt lat="44.448178887419935" lon="9.907646616303317"><ele>840.0</ele><time>2026-04-03T12:09:14.976Z</time></trkpt><trkpt lat="44.44823420913946" lon="9.907459842095898"><ele>840.0</ele><time>2026-04-03T12:09:15.976Z</time></trkpt><trkpt lat="44.44830660716302" lon="9.90729613435003"><ele>840.0</ele><time>2026-04-03T12:09:16.976Z</time></trkpt><trkpt lat="44.44840013216277" lon="9.907170773521287"><ele>840.0</ele><time>2026-04-03T12:09:17.976Z</time></trkpt><trkpt lat="44.448509457722366" lon="9.907039632432673"><ele>840.0</ele><time>2026-04-03T12:09:18.976Z</time></trkpt><trkpt lat="44.44862594069075" lon="9.906913296091982"><ele>840.0</ele><time>2026-04-03T12:09:19.976Z</time></trkpt><trkpt lat="44.448741280947125" lon="9.906795620051486"><ele>840.0</ele><time>2026-04-03T12:09:20.976Z</time></trkpt><trkpt lat="44.44887859878622" lon="9.906699588297812"><ele>840.0</ele><time>2026-04-03T12:09:21.976Z</time></trkpt><trkpt lat="44.44903189161238" lon="9.906608794569493"><ele>841.75</ele><time>2026-04-03T12:09:22.976Z</time></trkpt><trkpt lat="44.449189010424035" lon="9.906508753460217"><ele>843.5</ele><time>2026-04-03T12:09:23.976Z</time></trkpt><trkpt lat="44.44932268068295" lon="9.906423281713572"><ele>845.25</ele><time>2026-04-03T12:09:24.976Z</time></trkpt><trkpt lat="44.44942345094813" lon="9.906362476926782"><ele>847.0</ele><time>2026-04-03T12:09:25.976Z</time></trkpt><trkpt lat="44.44950359750739" lon="9.90632563093356"><ele>847.0</ele><time>2026-04-03T12:09:26.976Z</time></trkpt><trkpt lat="44.44957037311226" lon="9.906331172462938"><ele>847.0</ele><time>2026-04-03T12:09:27.976Z</time></trkpt><trkpt lat="44.449602357973085" lon="9.90648814014223"><ele>847.0</ele><time>2026-04-03T12:09:29.976Z</time></trkpt><trkpt lat="44.4495465867423" lon="9.906578701851169"><ele>847.0</ele><time>2026-04-03T12:09:30.976Z</time></trkpt><trkpt lat="44.44945443046661" lon="9.906631106050675"><ele>847.0</ele><time>2026-04-03T12:09:31.976Z</time></trkpt><trkpt lat="44.44934303373" lon="9.906695638754789"><ele>851.0</ele><time>2026-04-03T12:09:32.976Z</time></trkpt><trkpt lat="44.44920611343872" lon="9.90679513065339"><ele>855.0</ele><time>2026-04-03T12:09:33.976Z</time></trkpt><trkpt lat="44.4490759846511" lon="9.906926490104512"><ele>859.0</ele><time>2026-04-03T12:09:34.976Z</time></trkpt><trkpt lat="44.44896907294211" lon="9.90706403885812"><ele>858.9999999999999</ele><time>2026-04-03T12:09:35.976Z</time></trkpt><trkpt lat="44.44888518097925" lon="9.907189014416943"><ele>859.0</ele><time>2026-04-03T12:09:36.976Z</time></trkpt><trkpt lat="44.44882065870589" lon="9.90729556222121"><ele>859.0</ele><time>2026-04-03T12:09:37.976Z</time></trkpt><trkpt lat="44.4488015317357" lon="9.907393882293485"><ele>859.0</ele><time>2026-04-03T12:09:38.976Z</time></trkpt><trkpt lat="44.44882498401629" lon="9.907485170626677"><ele>858.9999999999999</ele><time>2026-04-03T12:09:39.976Z</time></trkpt><trkpt lat="44.44888398189597" lon="9.907543129571872"><ele>859.0</ele><time>2026-04-03T12:09:40.976Z</time></trkpt><trkpt lat="44.44896375221271" lon="9.907532566700683"><ele>859.0</ele><time>2026-04-03T12:09:41.976Z</time></trkpt><trkpt lat="44.44904433769176" lon="9.90745747676844"><ele>859.0</ele><time>2026-04-03T12:09:42.976Z</time></trkpt><trkpt lat="44.44913091016239" lon="9.907360541261086"><ele>859.0</ele><time>2026-04-03T12:09:43.976Z</time></trkpt><trkpt lat="44.44923315778179" lon="9.907261192139456"><ele>859.0</ele><time>2026-04-03T12:09:44.976Z</time></trkpt><trkpt lat="44.44933716842422" lon="9.907174565913069"><ele>859.0</ele><time>2026-04-03T12:09:45.976Z</time></trkpt><trkpt lat="44.44943305774981" lon="9.90715787375054"><ele>859.0000000000001</ele><time>2026-04-03T12:09:46.976Z</time></trkpt><trkpt lat="44.44952238091154" lon="9.907212636412352"><ele>859.0000000000001</ele><time>2026-04-03T12:09:47.976Z</time></trkpt><trkpt lat="44.449576336501316" lon="9.907319046680149"><ele>859.0</ele><time>2026-04-03T12:09:48.976Z</time></trkpt><trkpt lat="44.44959217150747" lon="9.907456054468042"><ele>859.0</ele><time>2026-04-03T12:09:49.976Z</time></trkpt><trkpt lat="44.44958306257942" lon="9.907616646394324"><ele>860.0</ele><time>2026-04-03T12:09:50.976Z</time></trkpt><trkpt lat="44.449545108887776" lon="9.907793395972302"><ele>861.0</ele><time>2026-04-03T12:09:51.976Z</time></trkpt><trkpt lat="44.44948172296236" lon="9.90795621617419"><ele>862.0</ele><time>2026-04-03T12:09:52.976Z</time></trkpt><trkpt lat="44.44939589657787" lon="9.908079639131266"><ele>863.0</ele><time>2026-04-03T12:09:53.976Z</time></trkpt><trkpt lat="44.4492904221697" lon="9.908148311840064"><ele>863.0</ele><time>2026-04-03T12:09:54.976Z</time></trkpt><trkpt lat="44.44920616687339" lon="9.908216377805788"><ele>863.0</ele><time>2026-04-03T12:09:55.976Z</time></trkpt><trkpt lat="44.44915202750448" lon="9.908333215241175"><ele>863.0</ele><time>2026-04-03T12:09:56.976Z</time></trkpt><trkpt lat="44.44912481715033" lon="9.908468763567026"><ele>863.0</ele><time>2026-04-03T12:09:57.976Z</time></trkpt><trkpt lat="44.44913056540535" lon="9.908613344815583"><ele>863.0</ele><time>2026-04-03T12:09:58.976Z</time></trkpt><trkpt lat="44.44917139778866" lon="9.908742890835184"><ele>861.0</ele><time>2026-04-03T12:09:59.976Z</time></trkpt><trkpt lat="44.44923968842297" lon="9.908853106738672"><ele>859.0</ele><time>2026-04-03T12:10:00.976Z</time></trkpt><trkpt lat="44.44933543972586" lon="9.908915587623413"><ele>857.0</ele><time>2026-04-03T12:10:01.976Z</time></trkpt><trkpt lat="44.44945676925129" lon="9.908934143823492"><ele>855.0</ele><time>2026-04-03T12:10:02.976Z</time></trkpt><trkpt lat="44.449589856025916" lon="9.908966064873686"><ele>858.0</ele><time>2026-04-03T12:10:03.976Z</time></trkpt><trkpt lat="44.44974133571522" lon="9.908999764193426"><ele>861.0</ele><time>2026-04-03T12:10:04.976Z</time></trkpt><trkpt lat="44.44989086216724" lon="9.909035450383314"><ele>864.0</ele><time>2026-04-03T12:10:05.976Z</time></trkpt><trkpt lat="44.450017226696936" lon="9.909058788776212"><ele>867.0</ele><time>2026-04-03T12:10:06.977Z</time></trkpt><trkpt lat="44.45012390171771" lon="9.909056304392992"><ele>867.0</ele><time>2026-04-03T12:10:07.977Z</time></trkpt><trkpt lat="44.450215354609924" lon="9.909010174593915"><ele>867.0</ele><time>2026-04-03T12:10:08.977Z</time></trkpt><trkpt lat="44.45029841819534" lon="9.908917357679229"><ele>867.0</ele><time>2026-04-03T12:10:09.977Z</time></trkpt><trkpt lat="44.45038057925227" lon="9.908788591319006"><ele>867.0</ele><time>2026-04-03T12:10:10.977Z</time></trkpt><trkpt lat="44.45049203372833" lon="9.90863846934825"><ele>869.0</ele><time>2026-04-03T12:10:11.977Z</time></trkpt><trkpt lat="44.45061151279355" lon="9.908495432248868"><ele>871.0</ele><time>2026-04-03T12:10:12.977Z</time></trkpt><trkpt lat="44.45075380262619" lon="9.908390550454268"><ele>873.0</ele><time>2026-04-03T12:10:13.977Z</time></trkpt><trkpt lat="44.45089414745264" lon="9.908302050345926"><ele>877.3333333333333</ele><time>2026-04-03T12:10:14.977Z</time></trkpt><trkpt lat="44.45104442346491" lon="9.908210705678083"><ele>881.6666666666666</ele><time>2026-04-03T12:10:15.977Z</time></trkpt><trkpt lat="44.45119617060522" lon="9.908115694114207"><ele>886.0</ele><time>2026-04-03T12:10:16.977Z</time></trkpt><trkpt lat="44.451346667525165" lon="9.908028415057572"><ele>887.25</ele><time>2026-04-03T12:10:17.977Z</time></trkpt><trkpt lat="44.45147549671593" lon="9.907957888030188"><ele>888.5</ele><time>2026-04-03T12:10:18.977Z</time></trkpt><trkpt lat="44.45160556835921" lon="9.907930443919533"><ele>889.75</ele><time>2026-04-03T12:10:19.977Z</time></trkpt><trkpt lat="44.45174140569984" lon="9.90795233842319"><ele>891.0</ele><time>2026-04-03T12:10:20.977Z</time></trkpt><trkpt lat="44.45185928327153" lon="9.908032616504501"><ele>891.0</ele><time>2026-04-03T12:10:21.977Z</time></trkpt><trkpt lat="44.45196343284937" lon="9.90816886309848"><ele>891.0</ele><time>2026-04-03T12:10:22.977Z</time></trkpt><trkpt lat="44.45205902084982" lon="9.90833549390301"><ele>891.0</ele><time>2026-04-03T12:10:23.977Z</time></trkpt><trkpt lat="44.45216792122325" lon="9.908514552052221"><ele>895.0</ele><time>2026-04-03T12:10:24.977Z</time></trkpt><trkpt lat="44.452273121662444" lon="9.908687956687663"><ele>899.0</ele><time>2026-04-03T12:10:25.977Z</time></trkpt><trkpt lat="44.45236188422949" lon="9.90884123089454"><ele>903.0</ele><time>2026-04-03T12:10:26.977Z</time></trkpt><trkpt lat="44.45241333514213" lon="9.90899199471431"><ele>907.0</ele><time>2026-04-03T12:10:27.977Z</time></trkpt><trkpt lat="44.45242813663778" lon="9.909163304507647"><ele>908.0</ele><time>2026-04-03T12:10:28.977Z</time></trkpt><trkpt lat="44.452398128298846" lon="9.909329825155975"><ele>909.0</ele><time>2026-04-03T12:10:29.977Z</time></trkpt><trkpt lat="44.452327615368475" lon="9.909486975253955"><ele>910.0</ele><time>2026-04-03T12:10:30.977Z</time></trkpt><trkpt lat="44.45225272671754" lon="9.909672888748505"><ele>911.0</ele><time>2026-04-03T12:10:31.977Z</time></trkpt><trkpt lat="44.452260153499175" lon="9.90987796949101"><ele>911.0</ele><time>2026-04-03T12:10:32.977Z</time></trkpt><trkpt lat="44.45231223819295" lon="9.910052359839899"><ele>911.0</ele><time>2026-04-03T12:10:33.977Z</time></trkpt><trkpt lat="44.45239318328047" lon="9.910176630639178"><ele>911.0</ele><time>2026-04-03T12:10:34.977Z</time></trkpt><trkpt lat="44.4525078556473" lon="9.910292531322716"><ele>911.0</ele><time>2026-04-03T12:10:35.977Z</time></trkpt><trkpt lat="44.45262779169334" lon="9.910450144765981"><ele>909.3333333333334</ele><time>2026-04-03T12:10:36.977Z</time></trkpt><trkpt lat="44.452725759487045" lon="9.910655387733836"><ele>907.6666666666667</ele><time>2026-04-03T12:10:37.977Z</time></trkpt><trkpt lat="44.45283910639951" lon="9.910863690556875"><ele>906.0</ele><time>2026-04-03T12:10:38.977Z</time></trkpt><trkpt lat="44.45294818254842" lon="9.911083124809798"><ele>911.6666666666667</ele><time>2026-04-03T12:10:39.977Z</time></trkpt><trkpt lat="44.45305874253789" lon="9.911299399957208"><ele>917.3333333333334</ele><time>2026-04-03T12:10:40.977Z</time></trkpt><trkpt lat="44.45316009944793" lon="9.911533116409402"><ele>923.0</ele><time>2026-04-03T12:10:41.977Z</time></trkpt><trkpt lat="44.45324593165324" lon="9.911763775728772"><ele>923.0</ele><time>2026-04-03T12:10:42.977Z</time></trkpt><trkpt lat="44.453321428953366" lon="9.911996361360927"><ele>923.0</ele><time>2026-04-03T12:10:43.977Z</time></trkpt><trkpt lat="44.45339142531394" lon="9.91222046115043"><ele>923.0</ele><time>2026-04-03T12:10:44.977Z</time></trkpt><trkpt lat="44.45345799218527" lon="9.91243936839388"><ele>923.5</ele><time>2026-04-03T12:10:45.977Z</time></trkpt><trkpt lat="44.453521776008486" lon="9.912646732313478"><ele>924.0</ele><time>2026-04-03T12:10:46.977Z</time></trkpt><trkpt lat="44.45357440988023" lon="9.912833840159655"><ele>924.5</ele><time>2026-04-03T12:10:47.977Z</time></trkpt><trkpt lat="44.453603395635625" lon="9.912993564834478"><ele>925.0</ele><time>2026-04-03T12:10:48.977Z</time></trkpt><trkpt lat="44.453610383541054" lon="9.91312064436302"><ele>924.9999999999999</ele><time>2026-04-03T12:10:49.974Z</time></trkpt><trkpt lat="44.453590322349264" lon="9.91323870180974"><ele>925.0</ele><time>2026-04-03T12:10:51.975Z</time></trkpt><trkpt lat="44.453522182433026" lon="9.9133104893416"><ele>925.0</ele><time>2026-04-03T12:11:46.975Z</time></trkpt><trkpt lat="44.45353446958273" lon="9.913400110837586"><ele>925.0</ele><time>2026-04-03T12:11:48.975Z</time></trkpt><trkpt lat="44.453542531676526" lon="9.913544844293448"><ele>924.9999999999999</ele><time>2026-04-03T12:11:50.975Z</time></trkpt><trkpt lat="44.453547084258126" lon="9.913693003861763"><ele>925.0</ele><time>2026-04-03T12:11:52.975Z</time></trkpt><trkpt lat="44.45354230018301" lon="9.91386763581998"><ele>926.2</ele><time>2026-04-03T12:11:54.975Z</time></trkpt><trkpt lat="44.453538973878786" lon="9.913970724228564"><ele>927.4</ele><time>2026-04-03T12:11:55.975Z</time></trkpt><trkpt lat="44.4535402007642" lon="9.914103682953515"><ele>928.5999999999999</ele><time>2026-04-03T12:11:56.975Z</time></trkpt><trkpt lat="44.453531366236255" lon="9.914258697787227"><ele>929.8</ele><time>2026-04-03T12:11:57.975Z</time></trkpt><trkpt lat="44.453511034871696" lon="9.914417945495883"><ele>931.0</ele><time>2026-04-03T12:11:58.975Z</time></trkpt><trkpt lat="44.45347994058933" lon="9.914592591436145"><ele>933.5</ele><time>2026-04-03T12:11:59.975Z</time></trkpt><trkpt lat="44.45343633909761" lon="9.91475713183558"><ele>936.0</ele><time>2026-04-03T12:12:00.975Z</time></trkpt><trkpt lat="44.45337625506556" lon="9.914925982774806"><ele>938.5</ele><time>2026-04-03T12:12:01.975Z</time></trkpt><trkpt lat="44.45330906964884" lon="9.915086250579144"><ele>941.0</ele><time>2026-04-03T12:12:02.975Z</time></trkpt><trkpt lat="44.45322044531864" lon="9.91522652307573"><ele>940.0</ele><time>2026-04-03T12:12:03.975Z</time></trkpt><trkpt lat="44.45311017462339" lon="9.915391786920333"><ele>939.0</ele><time>2026-04-03T12:12:04.975Z</time></trkpt><trkpt lat="44.45299453920944" lon="9.915579641844639"><ele>938.0</ele><time>2026-04-03T12:12:05.975Z</time></trkpt><trkpt lat="44.45287606347086" lon="9.915784741763881"><ele>942.0</ele><time>2026-04-03T12:12:06.975Z</time></trkpt><trkpt lat="44.452747869514006" lon="9.916003444939815"><ele>946.0</ele><time>2026-04-03T12:12:07.975Z</time></trkpt><trkpt lat="44.45260290073081" lon="9.916232872241414"><ele>950.0</ele><time>2026-04-03T12:12:08.975Z</time></trkpt><trkpt lat="44.452472909471616" lon="9.916448572807449"><ele>950.0</ele><time>2026-04-03T12:12:09.975Z</time></trkpt><trkpt lat="44.45235411465308" lon="9.916633044759127"><ele>950.0</ele><time>2026-04-03T12:12:10.975Z</time></trkpt><trkpt lat="44.45224337506761" lon="9.916815909848891"><ele>950.0</ele><time>2026-04-03T12:12:11.975Z</time></trkpt><trkpt lat="44.452141655375364" lon="9.917009040461394"><ele>948.6666666666667</ele><time>2026-04-03T12:12:12.975Z</time></trkpt><trkpt lat="44.45205154180655" lon="9.917194681151827"><ele>947.3333333333333</ele><time>2026-04-03T12:12:13.975Z</time></trkpt><trkpt lat="44.451996312013705" lon="9.917387265899777"><ele>946.0</ele><time>2026-04-03T12:12:14.975Z</time></trkpt><trkpt lat="44.451971919016465" lon="9.917582231509481"><ele>948.25</ele><time>2026-04-03T12:12:15.975Z</time></trkpt><trkpt lat="44.4519622461966" lon="9.917778630756962"><ele>950.5</ele><time>2026-04-03T12:12:16.975Z</time></trkpt><trkpt lat="44.45192953266031" lon="9.917984401514106"><ele>952.75</ele><time>2026-04-03T12:12:17.975Z</time></trkpt><trkpt lat="44.45186606344487" lon="9.91817555598878"><ele>955.0</ele><time>2026-04-03T12:12:18.975Z</time></trkpt><trkpt lat="44.451782961022936" lon="9.9183507019354"><ele>960.6666666666666</ele><time>2026-04-03T12:12:19.975Z</time></trkpt><trkpt lat="44.45168359554456" lon="9.918511389284179"><ele>966.3333333333333</ele><time>2026-04-03T12:12:20.975Z</time></trkpt><trkpt lat="44.45156540533927" lon="9.918670965258048"><ele>972.0</ele><time>2026-04-03T12:12:21.975Z</time></trkpt><trkpt lat="44.45143423851147" lon="9.91882559287634"><ele>972.0</ele><time>2026-04-03T12:12:22.975Z</time></trkpt><trkpt lat="44.45129659996924" lon="9.918988900812417"><ele>972.0</ele><time>2026-04-03T12:12:23.975Z</time></trkpt><trkpt lat="44.45115457381287" lon="9.919136538473932"><ele>972.0</ele><time>2026-04-03T12:12:24.975Z</time></trkpt><trkpt lat="44.45102363757135" lon="9.919269711081917"><ele>971.4000000000001</ele><time>2026-04-03T12:12:25.975Z</time></trkpt><trkpt lat="44.45091115027813" lon="9.91937472271611"><ele>970.8000000000001</ele><time>2026-04-03T12:12:26.975Z</time></trkpt><trkpt lat="44.450816603831214" lon="9.91947162432513"><ele>970.2</ele><time>2026-04-03T12:12:27.975Z</time></trkpt><trkpt lat="44.45074955574221" lon="9.91957165764623"><ele>969.6</ele><time>2026-04-03T12:12:28.975Z</time></trkpt><trkpt lat="44.450726206403274" lon="9.919682810600117"><ele>969.0</ele><time>2026-04-03T12:12:29.975Z</time></trkpt><trkpt lat="44.45074032946902" lon="9.919806382916358"><ele>969.0</ele><time>2026-04-03T12:12:30.975Z</time></trkpt><trkpt lat="44.45079799714364" lon="9.919916508478064"><ele>969.0000000000001</ele><time>2026-04-03T12:12:31.975Z</time></trkpt><trkpt lat="44.45090571761378" lon="9.91995332399414"><ele>969.0000000000001</ele><time>2026-04-03T12:12:32.975Z</time></trkpt><trkpt lat="44.45100173244152" lon="9.919917542873755"><ele>969.0</ele><time>2026-04-03T12:12:33.975Z</time></trkpt><trkpt lat="44.45109342557191" lon="9.919804446376482"><ele>969.0</ele><time>2026-04-03T12:12:34.975Z</time></trkpt><trkpt lat="44.45118314527371" lon="9.919631386121733"><ele>969.0</ele><time>2026-04-03T12:12:35.975Z</time></trkpt><trkpt lat="44.451281197450164" lon="9.919467266649452"><ele>969.0</ele><time>2026-04-03T12:12:36.975Z</time></trkpt><trkpt lat="44.45139510612695" lon="9.919322887315744"><ele>969.0</ele><time>2026-04-03T12:12:37.975Z</time></trkpt><trkpt lat="44.45152469795526" lon="9.919190774064226"><ele>970.0</ele><time>2026-04-03T12:12:38.975Z</time></trkpt><trkpt lat="44.451658530086725" lon="9.919080609677131"><ele>971.0</ele><time>2026-04-03T12:12:39.975Z</time></trkpt><trkpt lat="44.45180800763978" lon="9.91900299411608"><ele>972.0</ele><time>2026-04-03T12:12:40.975Z</time></trkpt><trkpt lat="44.451964319179574" lon="9.918949097401526"><ele>972.3333333333333</ele><time>2026-04-03T12:12:41.975Z</time></trkpt><trkpt lat="44.452124814846435" lon="9.918930993075875"><ele>972.6666666666666</ele><time>2026-04-03T12:12:42.975Z</time></trkpt><trkpt lat="44.45227691935352" lon="9.918924415355264"><ele>973.0</ele><time>2026-04-03T12:12:43.975Z</time></trkpt><trkpt lat="44.45242292362497" lon="9.918904542703235"><ele>973.0</ele><time>2026-04-03T12:12:44.975Z</time></trkpt><trkpt lat="44.45257821211584" lon="9.918824801933852"><ele>973.0</ele><time>2026-04-03T12:12:45.975Z</time></trkpt><trkpt lat="44.45272440983014" lon="9.918719773801795"><ele>973.0</ele><time>2026-04-03T12:12:46.975Z</time></trkpt><trkpt lat="44.45286239372737" lon="9.918595812494324"><ele>974.3333333333333</ele><time>2026-04-03T12:12:47.975Z</time></trkpt><trkpt lat="44.45298514443067" lon="9.918439148734976"><ele>975.6666666666667</ele><time>2026-04-03T12:12:48.975Z</time></trkpt><trkpt lat="44.453092423567824" lon="9.918260061090832"><ele>977.0</ele><time>2026-04-03T12:12:49.975Z</time></trkpt><trkpt lat="44.453202930066624" lon="9.918107767812014"><ele>977.0</ele><time>2026-04-03T12:12:50.975Z</time></trkpt><trkpt lat="44.453324662770136" lon="9.917991654391445"><ele>977.0</ele><time>2026-04-03T12:12:51.975Z</time></trkpt><trkpt lat="44.453453326221165" lon="9.917913128005484"><ele>977.0</ele><time>2026-04-03T12:12:52.975Z</time></trkpt><trkpt lat="44.45359021749071" lon="9.91786165356699"><ele>977.0</ele><time>2026-04-03T12:12:53.975Z</time></trkpt><trkpt lat="44.4537334827363" lon="9.91783585992468"><ele>975.0</ele><time>2026-04-03T12:12:54.975Z</time></trkpt><trkpt lat="44.45388768987001" lon="9.917827086066238"><ele>973.0</ele><time>2026-04-03T12:12:55.974Z</time></trkpt><trkpt lat="44.454045590941455" lon="9.917843019079678"><ele>971.0</ele><time>2026-04-03T12:12:56.974Z</time></trkpt><trkpt lat="44.4542077186382" lon="9.917886662826895"><ele>971.0</ele><time>2026-04-03T12:12:57.974Z</time></trkpt><trkpt lat="44.454371587035745" lon="9.917956159050291"><ele>971.0</ele><time>2026-04-03T12:12:58.974Z</time></trkpt><trkpt lat="44.454534465039295" lon="9.918062583373514"><ele>971.0</ele><time>2026-04-03T12:12:59.974Z</time></trkpt><trkpt lat="44.454693020140304" lon="9.918169218601427"><ele>969.6666666666667</ele><time>2026-04-03T12:13:00.974Z</time></trkpt><trkpt lat="44.45483588809299" lon="9.918271469106553"><ele>968.3333333333333</ele><time>2026-04-03T12:13:01.974Z</time></trkpt><trkpt lat="44.4549725252777" lon="9.918390727762484"><ele>967.0</ele><time>2026-04-03T12:13:02.974Z</time></trkpt><trkpt lat="44.455094277015824" lon="9.918546939462896"><ele>967.0</ele><time>2026-04-03T12:13:03.974Z</time></trkpt><trkpt lat="44.45520333754784" lon="9.918730046299322"><ele>967.0</ele><time>2026-04-03T12:13:04.974Z</time></trkpt><trkpt lat="44.45531304156299" lon="9.918907527731943"><ele>967.0</ele><time>2026-04-03T12:13:05.974Z</time></trkpt><trkpt lat="44.455416357651394" lon="9.91906700683796"><ele>964.0</ele><time>2026-04-03T12:13:06.974Z</time></trkpt><trkpt lat="44.45549953469415" lon="9.91918389084889"><ele>961.0</ele><time>2026-04-03T12:13:07.974Z</time></trkpt><trkpt lat="44.45558165482046" lon="9.91926770006363"><ele>958.0</ele><time>2026-04-03T12:13:08.974Z</time></trkpt><trkpt lat="44.45567452613018" lon="9.919284119200409"><ele>955.0</ele><time>2026-04-03T12:13:09.974Z</time></trkpt><trkpt lat="44.45577552223519" lon="9.919245043033008"><ele>952.0</ele><time>2026-04-03T12:13:10.974Z</time></trkpt><trkpt lat="44.45590147865555" lon="9.919158909006386"><ele>962.3333333333333</ele><time>2026-04-03T12:13:11.974Z</time></trkpt><trkpt lat="44.45604815643787" lon="9.919086573728082"><ele>972.6666666666667</ele><time>2026-04-03T12:13:12.974Z</time></trkpt><trkpt lat="44.456199766753336" lon="9.919030091091962"><ele>983.0</ele><time>2026-04-03T12:13:13.974Z</time></trkpt><trkpt lat="44.45636025652733" lon="9.919001067390045"><ele>983.6666666666667</ele><time>2026-04-03T12:13:14.974Z</time></trkpt><trkpt lat="44.456530662321335" lon="9.919004262026121"><ele>984.3333333333333</ele><time>2026-04-03T12:13:15.974Z</time></trkpt><trkpt lat="44.456695694437954" lon="9.919035115609075"><ele>985.0</ele><time>2026-04-03T12:13:16.974Z</time></trkpt><trkpt lat="44.4568652478361" lon="9.91910105168437"><ele>985.0</ele><time>2026-04-03T12:13:17.974Z</time></trkpt><trkpt lat="44.45702944799733" lon="9.919173026231288"><ele>985.0</ele><time>2026-04-03T12:13:18.974Z</time></trkpt><trkpt lat="44.45718491929491" lon="9.919211114895466"><ele>985.0</ele><time>2026-04-03T12:13:19.974Z</time></trkpt><trkpt lat="44.457327055752266" lon="9.919257659205707"><ele>982.25</ele><time>2026-04-03T12:13:20.974Z</time></trkpt><trkpt lat="44.45745602511382" lon="9.919352549029886"><ele>979.5</ele><time>2026-04-03T12:13:21.974Z</time></trkpt><trkpt lat="44.45756427069689" lon="9.91947660577424"><ele>976.75</ele><time>2026-04-03T12:13:22.974Z</time></trkpt><trkpt lat="44.457667882274606" lon="9.91962074749774"><ele>974.0</ele><time>2026-04-03T12:13:23.974Z</time></trkpt><trkpt lat="44.457753209931795" lon="9.919776032242662"><ele>974.0</ele><time>2026-04-03T12:13:24.974Z</time></trkpt><trkpt lat="44.45784726514503" lon="9.919871729477554"><ele>974.0</ele><time>2026-04-03T12:13:25.974Z</time></trkpt><trkpt lat="44.45795918235901" lon="9.919904839732308"><ele>974.0</ele><time>2026-04-03T12:13:26.974Z</time></trkpt><trkpt lat="44.45807793064237" lon="9.919852813101867"><ele>974.0</ele><time>2026-04-03T12:13:27.974Z</time></trkpt><trkpt lat="44.4582012251214" lon="9.919782716848216"><ele>976.0</ele><time>2026-04-03T12:13:28.974Z</time></trkpt><trkpt lat="44.45832979731448" lon="9.919719562561712"><ele>978.0000000000001</ele><time>2026-04-03T12:13:29.974Z</time></trkpt><trkpt lat="44.458426886003615" lon="9.91969671510991"><ele>980.0000000000001</ele><time>2026-04-03T12:13:30.974Z</time></trkpt><trkpt lat="44.45849900230221" lon="9.919753165980064"><ele>982.0</ele><time>2026-04-03T12:13:31.974Z</time></trkpt><trkpt lat="44.458547642917594" lon="9.91988723689739"><ele>984.0</ele><time>2026-04-03T12:13:32.974Z</time></trkpt><trkpt lat="44.45859782936153" lon="9.920044247460261"><ele>985.25</ele><time>2026-04-03T12:13:33.974Z</time></trkpt><trkpt lat="44.45866538333751" lon="9.920201661185851"><ele>986.5</ele><time>2026-04-03T12:13:34.974Z</time></trkpt><trkpt lat="44.458729309998446" lon="9.92037454063783"><ele>987.75</ele><time>2026-04-03T12:13:35.974Z</time></trkpt><trkpt lat="44.45879339860518" lon="9.920566721521407"><ele>989.0</ele><time>2026-04-03T12:13:36.974Z</time></trkpt><trkpt lat="44.458858681463695" lon="9.920756905592146"><ele>985.0</ele><time>2026-04-03T12:13:37.974Z</time></trkpt><trkpt lat="44.458924845065155" lon="9.920932391515422"><ele>981.0</ele><time>2026-04-03T12:13:38.974Z</time></trkpt><trkpt lat="44.458998039006424" lon="9.92108380636264"><ele>977.0</ele><time>2026-04-03T12:13:39.974Z</time></trkpt><trkpt lat="44.45910194854947" lon="9.921189118991322"><ele>973.0</ele><time>2026-04-03T12:13:40.974Z</time></trkpt><trkpt lat="44.45924960536839" lon="9.921241578891614"><ele>973.0</ele><time>2026-04-03T12:13:41.974Z</time></trkpt><trkpt lat="44.45939776428369" lon="9.921255827916099"><ele>973.0</ele><time>2026-04-03T12:13:42.974Z</time></trkpt><trkpt lat="44.45953449681641" lon="9.921225170182746"><ele>973.0</ele><time>2026-04-03T12:13:43.975Z</time></trkpt><trkpt lat="44.45969953741428" lon="9.921135999719777"><ele>973.0</ele><time>2026-04-03T12:13:44.975Z</time></trkpt><trkpt lat="44.45986601357862" lon="9.921033473454266"><ele>973.0</ele><time>2026-04-03T12:13:45.975Z</time></trkpt><trkpt lat="44.460018348949134" lon="9.92091939303663"><ele>973.0</ele><time>2026-04-03T12:13:46.975Z</time></trkpt><trkpt lat="44.46012820875787" lon="9.92080187489374"><ele>978.0</ele><time>2026-04-03T12:13:47.975Z</time></trkpt><trkpt lat="44.46023777739687" lon="9.92071162063248"><ele>983.0</ele><time>2026-04-03T12:13:48.975Z</time></trkpt><trkpt lat="44.46035628676177" lon="9.920637732248238"><ele>988.0</ele><time>2026-04-03T12:13:49.975Z</time></trkpt><trkpt lat="44.460489152708234" lon="9.920616192666511"><ele>993.0</ele><time>2026-04-03T12:13:50.975Z</time></trkpt><trkpt lat="44.460642286376995" lon="9.920632629156698"><ele>993.0</ele><time>2026-04-03T12:13:51.975Z</time></trkpt><trkpt lat="44.46079464917947" lon="9.920677855421317"><ele>993.0</ele><time>2026-04-03T12:13:52.975Z</time></trkpt><trkpt lat="44.46094844116503" lon="9.920718563141907"><ele>993.0</ele><time>2026-04-03T12:13:53.975Z</time></trkpt><trkpt lat="44.46109120383861" lon="9.920772030617048"><ele>993.0</ele><time>2026-04-03T12:13:54.975Z</time></trkpt><trkpt lat="44.46122633987374" lon="9.92086508321564"><ele>993.0</ele><time>2026-04-03T12:13:55.975Z</time></trkpt><trkpt lat="44.46134758708491" lon="9.92100437752953"><ele>993.0</ele><time>2026-04-03T12:13:56.975Z</time></trkpt><trkpt lat="44.461471120395665" lon="9.92114633329511"><ele>990.0</ele><time>2026-04-03T12:13:57.975Z</time></trkpt><trkpt lat="44.461601882744596" lon="9.921283309188741"><ele>987.0</ele><time>2026-04-03T12:13:58.975Z</time></trkpt><trkpt lat="44.461738781987385" lon="9.921406548942596"><ele>984.0</ele><time>2026-04-03T12:13:59.975Z</time></trkpt><trkpt lat="44.46186881307289" lon="9.921517142417308"><ele>984.0</ele><time>2026-04-03T12:14:00.975Z</time></trkpt><trkpt lat="44.4619779276073" lon="9.921596765212822"><ele>984.0000000000001</ele><time>2026-04-03T12:14:01.975Z</time></trkpt><trkpt lat="44.46208713082022" lon="9.921639408037489"><ele>984.0000000000001</ele><time>2026-04-03T12:14:02.975Z</time></trkpt><trkpt lat="44.46218582057914" lon="9.921634820522264"><ele>984.0</ele><time>2026-04-03T12:14:03.975Z</time></trkpt><trkpt lat="44.462270302083894" lon="9.921577585721819"><ele>984.0</ele><time>2026-04-03T12:14:04.975Z</time></trkpt><trkpt lat="44.46232547438458" lon="9.92146733648913"><ele>985.5</ele><time>2026-04-03T12:14:05.975Z</time></trkpt><trkpt lat="44.46236299448348" lon="9.921316877951769"><ele>987.0</ele><time>2026-04-03T12:14:06.975Z</time></trkpt><trkpt lat="44.46238894010179" lon="9.921145033629424"><ele>988.5</ele><time>2026-04-03T12:14:07.975Z</time></trkpt><trkpt lat="44.46240666904258" lon="9.920955277443642"><ele>990.0</ele><time>2026-04-03T12:14:08.975Z</time></trkpt><trkpt lat="44.46243467159296" lon="9.92073958675398"><ele>994.0</ele><time>2026-04-03T12:14:09.975Z</time></trkpt><trkpt lat="44.46246684082205" lon="9.920515651148074"><ele>998.0</ele><time>2026-04-03T12:14:10.975Z</time></trkpt><trkpt lat="44.46249696462221" lon="9.920293563821694"><ele>1002.0</ele><time>2026-04-03T12:14:11.975Z</time></trkpt><trkpt lat="44.462549453509936" lon="9.92008171652089"><ele>1005.3333333333333</ele><time>2026-04-03T12:14:12.975Z</time></trkpt><trkpt lat="44.462636770636834" lon="9.919883822673349"><ele>1008.6666666666666</ele><time>2026-04-03T12:14:13.975Z</time></trkpt><trkpt lat="44.46273630570772" lon="9.919702810639743"><ele>1012.0</ele><time>2026-04-03T12:14:14.975Z</time></trkpt><trkpt lat="44.46283719964828" lon="9.919539405629235"><ele>1012.0</ele><time>2026-04-03T12:14:15.975Z</time></trkpt><trkpt lat="44.46293166533664" lon="9.91939982750576"><ele>1012.0</ele><time>2026-04-03T12:14:16.975Z</time></trkpt><trkpt lat="44.46301493695549" lon="9.919286472885858"><ele>1012.0</ele><time>2026-04-03T12:14:17.975Z</time></trkpt><trkpt lat="44.463106208636546" lon="9.919205732846198"><ele>1012.0</ele><time>2026-04-03T12:14:18.975Z</time></trkpt><trkpt lat="44.46320482589979" lon="9.919178987850595"><ele>1012.0</ele><time>2026-04-03T12:14:19.975Z</time></trkpt><trkpt lat="44.46330596077933" lon="9.919226604379153"><ele>1012.0</ele><time>2026-04-03T12:14:20.975Z</time></trkpt><trkpt lat="44.463397321198315" lon="9.919332918429298"><ele>1012.0</ele><time>2026-04-03T12:14:21.975Z</time></trkpt><trkpt lat="44.463476222348376" lon="9.919468778575164"><ele>1012.0</ele><time>2026-04-03T12:14:22.975Z</time></trkpt><trkpt lat="44.463565563970654" lon="9.919612331467729"><ele>1011.0</ele><time>2026-04-03T12:14:23.975Z</time></trkpt><trkpt lat="44.46367716937457" lon="9.919740554886872"><ele>1010.0</ele><time>2026-04-03T12:14:24.975Z</time></trkpt><trkpt lat="44.46381582100428" lon="9.919841714200258"><ele>1009.0</ele><time>2026-04-03T12:14:25.975Z</time></trkpt><trkpt lat="44.46397605336416" lon="9.919931085135152"><ele>1009.0</ele><time>2026-04-03T12:14:26.975Z</time></trkpt><trkpt lat="44.464138304136924" lon="9.920012448486565"><ele>1009.0</ele><time>2026-04-03T12:14:27.975Z</time></trkpt><trkpt lat="44.46432530058493" lon="9.920114607238071"><ele>1009.0</ele><time>2026-04-03T12:14:28.975Z</time></trkpt><trkpt lat="44.46451101435156" lon="9.920258860958809"><ele>1006.3333333333333</ele><time>2026-04-03T12:14:29.975Z</time></trkpt><trkpt lat="44.46467811901939" lon="9.9203980541113"><ele>1003.6666666666667</ele><time>2026-04-03T12:14:30.975Z</time></trkpt><trkpt lat="44.46483133751445" lon="9.920516732148581"><ele>1001.0</ele><time>2026-04-03T12:14:31.975Z</time></trkpt><trkpt lat="44.46496159592539" lon="9.920609263833251"><ele>1001.0</ele><time>2026-04-03T12:14:32.975Z</time></trkpt><trkpt lat="44.46507724224475" lon="9.920683304076025"><ele>1001.0</ele><time>2026-04-03T12:14:33.975Z</time></trkpt><trkpt lat="44.46520690944328" lon="9.92069341067587"><ele>1001.0</ele><time>2026-04-03T12:14:34.975Z</time></trkpt><trkpt lat="44.46534534510434" lon="9.920637977081416"><ele>1001.0</ele><time>2026-04-03T12:14:35.975Z</time></trkpt><trkpt lat="44.465493074190654" lon="9.920552825340984"><ele>1002.0</ele><time>2026-04-03T12:14:36.975Z</time></trkpt><trkpt lat="44.46565133465477" lon="9.920467724025874"><ele>1003.0</ele><time>2026-04-03T12:14:37.975Z</time></trkpt><trkpt lat="44.465839091404426" lon="9.920371045715706"><ele>1004.0</ele><time>2026-04-03T12:14:38.975Z</time></trkpt><trkpt lat="44.46601279521435" lon="9.92030545168689"><ele>1004.0</ele><time>2026-04-03T12:14:39.975Z</time></trkpt><trkpt lat="44.46618224155238" lon="9.920254591459427"><ele>1004.0</ele><time>2026-04-03T12:14:40.975Z</time></trkpt><trkpt lat="44.466366206204725" lon="9.92024405192714"><ele>1004.0</ele><time>2026-04-03T12:14:41.975Z</time></trkpt><trkpt lat="44.46655889689007" lon="9.920259540761746"><ele>1003.6666666666667</ele><time>2026-04-03T12:14:42.975Z</time></trkpt><trkpt lat="44.466760639589566" lon="9.920281279017651"><ele>1003.3333333333333</ele><time>2026-04-03T12:14:43.975Z</time></trkpt><trkpt lat="44.46696902051938" lon="9.92031252620338"><ele>1003.0</ele><time>2026-04-03T12:14:44.975Z</time></trkpt><trkpt lat="44.46717046807448" lon="9.920349232719497"><ele>1005.6666666666666</ele><time>2026-04-03T12:14:45.975Z</time></trkpt><trkpt lat="44.4673597027952" lon="9.9203771132523"><ele>1008.3333333333333</ele><time>2026-04-03T12:14:46.975Z</time></trkpt><trkpt lat="44.46753499665102" lon="9.920406787804833"><ele>1011.0</ele><time>2026-04-03T12:14:47.975Z</time></trkpt><trkpt lat="44.467698669638146" lon="9.920473722210847"><ele>1011.0</ele><time>2026-04-03T12:14:48.975Z</time></trkpt><trkpt lat="44.467830287464714" lon="9.920594161508852"><ele>1011.0</ele><time>2026-04-03T12:14:49.975Z</time></trkpt><trkpt lat="44.46796313049953" lon="9.920739290754923"><ele>1011.0</ele><time>2026-04-03T12:14:50.975Z</time></trkpt><trkpt lat="44.46810865161847" lon="9.920894645840365"><ele>1012.3333333333333</ele><time>2026-04-03T12:14:51.975Z</time></trkpt><trkpt lat="44.46825254359372" lon="9.921064431254308"><ele>1013.6666666666666</ele><time>2026-04-03T12:14:52.975Z</time></trkpt><trkpt lat="44.46838502926292" lon="9.921260898456056"><ele>1015.0</ele><time>2026-04-03T12:14:53.975Z</time></trkpt><trkpt lat="44.46849665368313" lon="9.921484887880458"><ele>1015.0</ele><time>2026-04-03T12:14:54.975Z</time></trkpt><trkpt lat="44.46860919682647" lon="9.921729531299196"><ele>1015.0</ele><time>2026-04-03T12:14:55.975Z</time></trkpt><trkpt lat="44.468721924155076" lon="9.921979699713146"><ele>1015.0</ele><time>2026-04-03T12:14:56.975Z</time></trkpt><trkpt lat="44.468826942633726" lon="9.922181417656937"><ele>1016.0</ele><time>2026-04-03T12:14:57.975Z</time></trkpt><trkpt lat="44.468915734396255" lon="9.922348393448708"><ele>1017.0</ele><time>2026-04-03T12:14:58.975Z</time></trkpt><trkpt lat="44.46899591909774" lon="9.922475626439352"><ele>1018.0</ele><time>2026-04-03T12:14:59.975Z</time></trkpt><trkpt lat="44.46908610927319" lon="9.922572413283183"><ele>1019.0</ele><time>2026-04-03T12:15:00.975Z</time></trkpt><trkpt lat="44.46919273549087" lon="9.922593440226358"><ele>1019.0</ele><time>2026-04-03T12:15:01.973Z</time></trkpt><trkpt lat="44.46929577375147" lon="9.922547216860556"><ele>1019.0</ele><time>2026-04-03T12:15:02.973Z</time></trkpt><trkpt lat="44.46937407061486" lon="9.922428784328675"><ele>1019.0</ele><time>2026-04-03T12:15:03.973Z</time></trkpt><trkpt lat="44.46942404121829" lon="9.922273961669239"><ele>1019.0</ele><time>2026-04-03T12:15:04.972Z</time></trkpt><trkpt lat="44.46943768837442" lon="9.922085490960027"><ele>1019.0</ele><time>2026-04-03T12:15:05.973Z</time></trkpt><trkpt lat="44.46950553762659" lon="9.921922323074922"><ele>1019.0</ele><time>2026-04-03T12:15:06.973Z</time></trkpt><trkpt lat="44.46957928375988" lon="9.921709931460414"><ele>1019.0</ele><time>2026-04-03T12:15:07.972Z</time></trkpt><trkpt lat="44.46968297908725" lon="9.921482740303986"><ele>1018.3333333333334</ele><time>2026-04-03T12:15:08.972Z</time></trkpt><trkpt lat="44.46977024414566" lon="9.921251012133371"><ele>1017.6666666666667</ele><time>2026-04-03T12:15:09.972Z</time></trkpt><trkpt lat="44.46985144947719" lon="9.921042356373412"><ele>1017.0</ele><time>2026-04-03T12:15:10.972Z</time></trkpt><trkpt lat="44.469921403902774" lon="9.92085453079092"><ele>1020.2</ele><time>2026-04-03T12:15:11.972Z</time></trkpt><trkpt lat="44.46996664342226" lon="9.92071143182355"><ele>1023.4000000000001</ele><time>2026-04-03T12:15:12.972Z</time></trkpt><trkpt lat="44.47002135176112" lon="9.920611510453677"><ele>1026.6</ele><time>2026-04-03T12:15:13.972Z</time></trkpt><trkpt lat="44.470095347874285" lon="9.920540027420797"><ele>1029.8</ele><time>2026-04-03T12:15:14.972Z</time></trkpt><trkpt lat="44.47017890431009" lon="9.920517732176572"><ele>1033.0</ele><time>2026-04-03T12:15:15.972Z</time></trkpt><trkpt lat="44.470279357950986" lon="9.920556694978364"><ele>1033.0</ele><time>2026-04-03T12:15:16.972Z</time></trkpt><trkpt lat="44.47039229246927" lon="9.920649169242699"><ele>1033.0</ele><time>2026-04-03T12:15:17.972Z</time></trkpt><trkpt lat="44.47050005438956" lon="9.920783171048054"><ele>1033.0</ele><time>2026-04-03T12:15:18.972Z</time></trkpt><trkpt lat="44.47061014334874" lon="9.920933388044665"><ele>1033.0</ele><time>2026-04-03T12:15:19.972Z</time></trkpt><trkpt lat="44.470727899306695" lon="9.921119293345855"><ele>1029.0</ele><time>2026-04-03T12:15:20.972Z</time></trkpt><trkpt lat="44.47084948207437" lon="9.92129486586568"><ele>1025.0</ele><time>2026-04-03T12:15:21.972Z</time></trkpt><trkpt lat="44.47096618893721" lon="9.92145578877469"><ele>1021.0</ele><time>2026-04-03T12:15:22.972Z</time></trkpt><trkpt lat="44.47106413364268" lon="9.921586122583738"><ele>1021.0</ele><time>2026-04-03T12:15:23.972Z</time></trkpt><trkpt lat="44.471130407190294" lon="9.921680200086488"><ele>1020.9999999999999</ele><time>2026-04-03T12:15:24.972Z</time></trkpt><trkpt lat="44.47117522316244" lon="9.921748757103133"><ele>1020.9999999999999</ele><time>2026-04-03T12:15:25.972Z</time></trkpt><trkpt lat="44.47121511833688" lon="9.921841662201865"><ele>1021.0</ele><time>2026-04-03T12:15:27.972Z</time></trkpt><trkpt lat="44.47128946398639" lon="9.921976987619177"><ele>1021.0</ele><time>2026-04-03T12:16:10.972Z</time></trkpt><trkpt lat="44.47131541220612" lon="9.922120492809299"><ele>1023.1666666666666</ele><time>2026-04-03T12:16:13.972Z</time></trkpt><trkpt lat="44.47131839154961" lon="9.922212300751733"><ele>1025.3333333333333</ele><time>2026-04-03T12:16:14.972Z</time></trkpt><trkpt lat="44.47131350970553" lon="9.922320142900375"><ele>1027.5</ele><time>2026-04-03T12:16:15.972Z</time></trkpt><trkpt lat="44.47130561898462" lon="9.92242754985263"><ele>1029.6666666666667</ele><time>2026-04-03T12:16:16.972Z</time></trkpt><trkpt lat="44.47130072198606" lon="9.922534022984603"><ele>1031.8333333333335</ele><time>2026-04-03T12:16:17.972Z</time></trkpt><trkpt lat="44.471306108970055" lon="9.92264051074238"><ele>1034.0</ele><time>2026-04-03T12:16:18.972Z</time></trkpt><trkpt lat="44.471329374254594" lon="9.922770196920972"><ele>1034.0</ele><time>2026-04-03T12:16:19.972Z</time></trkpt><trkpt lat="44.47137093139392" lon="9.922908913219075"><ele>1034.0</ele><time>2026-04-03T12:16:20.972Z</time></trkpt><trkpt lat="44.471441576621025" lon="9.923062612142932"><ele>1034.0</ele><time>2026-04-03T12:16:21.972Z</time></trkpt><trkpt lat="44.47152454829363" lon="9.92322431809559"><ele>1034.0</ele><time>2026-04-03T12:16:22.972Z</time></trkpt><trkpt lat="44.47161241444373" lon="9.923404904753971"><ele>1032.3333333333335</ele><time>2026-04-03T12:16:23.972Z</time></trkpt><trkpt lat="44.47169070547418" lon="9.923618673132278"><ele>1030.6666666666667</ele><time>2026-04-03T12:16:24.972Z</time></trkpt><trkpt lat="44.47176305774333" lon="9.923827589429647"><ele>1029.0</ele><time>2026-04-03T12:16:25.972Z</time></trkpt><trkpt lat="44.47182265401728" lon="9.924006767916488"><ele>1029.0</ele><time>2026-04-03T12:16:26.972Z</time></trkpt><trkpt lat="44.47184633933682" lon="9.924188625820321"><ele>1029.0</ele><time>2026-04-03T12:16:27.972Z</time></trkpt><trkpt lat="44.47183709100086" lon="9.924376751935581"><ele>1029.0</ele><time>2026-04-03T12:16:28.972Z</time></trkpt><trkpt lat="44.471807507625286" lon="9.924574847575448"><ele>1029.0</ele><time>2026-04-03T12:16:29.972Z</time></trkpt><trkpt lat="44.471745364645344" lon="9.924783826993316"><ele>1031.6666666666667</ele><time>2026-04-03T12:16:30.972Z</time></trkpt><trkpt lat="44.47166585346297" lon="9.925009254601827"><ele>1034.3333333333335</ele><time>2026-04-03T12:16:31.972Z</time></trkpt><trkpt lat="44.47158137632016" lon="9.925246689771146"><ele>1037.0</ele><time>2026-04-03T12:16:32.972Z</time></trkpt><trkpt lat="44.47150096406185" lon="9.925478276930182"><ele>1041.0</ele><time>2026-04-03T12:16:33.972Z</time></trkpt><trkpt lat="44.47143277709471" lon="9.925687056127025"><ele>1045.0</ele><time>2026-04-03T12:16:34.972Z</time></trkpt><trkpt lat="44.47138208175491" lon="9.925897917878133"><ele>1049.0</ele><time>2026-04-03T12:16:35.972Z</time></trkpt><trkpt lat="44.471345452376525" lon="9.92610491937696"><ele>1049.6666666666667</ele><time>2026-04-03T12:16:36.972Z</time></trkpt><trkpt lat="44.471342835453555" lon="9.92632041093035"><ele>1050.3333333333333</ele><time>2026-04-03T12:16:37.972Z</time></trkpt><trkpt lat="44.47135705418015" lon="9.926529857587438"><ele>1051.0</ele><time>2026-04-03T12:16:38.972Z</time></trkpt><trkpt lat="44.471373778578304" lon="9.926741792669475"><ele>1049.25</ele><time>2026-04-03T12:16:39.972Z</time></trkpt><trkpt lat="44.471383940979706" lon="9.926944615204023"><ele>1047.5</ele><time>2026-04-03T12:16:40.972Z</time></trkpt><trkpt lat="44.4713771833304" lon="9.927145233178225"><ele>1045.75</ele><time>2026-04-03T12:16:41.972Z</time></trkpt><trkpt lat="44.47136296060805" lon="9.927329538870831"><ele>1044.0</ele><time>2026-04-03T12:16:42.972Z</time></trkpt><trkpt lat="44.47134450101808" lon="9.927513204180114"><ele>1042.5</ele><time>2026-04-03T12:16:43.972Z</time></trkpt><trkpt lat="44.47133676519185" lon="9.927690939208231"><ele>1041.0</ele><time>2026-04-03T12:16:44.972Z</time></trkpt><trkpt lat="44.47135115993553" lon="9.927855187500052"><ele>1039.5</ele><time>2026-04-03T12:16:45.972Z</time></trkpt><trkpt lat="44.47138970689251" lon="9.92800806616674"><ele>1038.0</ele><time>2026-04-03T12:16:46.972Z</time></trkpt><trkpt lat="44.4714403311237" lon="9.928160521632526"><ele>1038.0</ele><time>2026-04-03T12:16:47.972Z</time></trkpt><trkpt lat="44.47149700905029" lon="9.928300455319892"><ele>1038.0</ele><time>2026-04-03T12:16:48.972Z</time></trkpt><trkpt lat="44.47155962473683" lon="9.928445578257344"><ele>1038.0</ele><time>2026-04-03T12:16:49.972Z</time></trkpt><trkpt lat="44.471622039320586" lon="9.928600983031702"><ele>1038.0</ele><time>2026-04-03T12:16:50.972Z</time></trkpt><trkpt lat="44.471688812777415" lon="9.928758328094943"><ele>1039.0</ele><time>2026-04-03T12:16:51.972Z</time></trkpt><trkpt lat="44.4717622736169" lon="9.928926196474464"><ele>1040.0</ele><time>2026-04-03T12:16:52.972Z</time></trkpt><trkpt lat="44.47183945059664" lon="9.929100438669291"><ele>1041.0</ele><time>2026-04-03T12:16:53.972Z</time></trkpt><trkpt lat="44.47191721152284" lon="9.929273436579317"><ele>1042.0</ele><time>2026-04-03T12:16:54.972Z</time></trkpt><trkpt lat="44.471987288187954" lon="9.929443833858173"><ele>1045.6666666666665</ele><time>2026-04-03T12:16:55.972Z</time></trkpt><trkpt lat="44.47205987143012" lon="9.929623902280397"><ele>1049.3333333333333</ele><time>2026-04-03T12:16:56.972Z</time></trkpt><trkpt lat="44.47213159976758" lon="9.92980787626769"><ele>1053.0</ele><time>2026-04-03T12:16:57.972Z</time></trkpt><trkpt lat="44.472209189898685" lon="9.929994734872698"><ele>1046.3333333333333</ele><time>2026-04-03T12:16:58.973Z</time></trkpt><trkpt lat="44.47228170940848" lon="9.930183453507679"><ele>1039.6666666666665</ele><time>2026-04-03T12:16:59.973Z</time></trkpt><trkpt lat="44.47234818795046" lon="9.930371013489859"><ele>1033.0</ele><time>2026-04-03T12:17:00.973Z</time></trkpt><trkpt lat="44.472414071897205" lon="9.930559753404935"><ele>1033.0</ele><time>2026-04-03T12:17:01.973Z</time></trkpt><trkpt lat="44.47246351227071" lon="9.930753859068787"><ele>1033.0</ele><time>2026-04-03T12:17:02.973Z</time></trkpt><trkpt lat="44.472498976228486" lon="9.930945903212256"><ele>1033.0</ele><time>2026-04-03T12:17:03.973Z</time></trkpt><trkpt lat="44.47251109932848" lon="9.931146095157853"><ele>1033.0</ele><time>2026-04-03T12:17:04.973Z</time></trkpt><trkpt lat="44.47250011047242" lon="9.931356058130431"><ele>1030.6666666666665</ele><time>2026-04-03T12:17:05.973Z</time></trkpt><trkpt lat="44.47247015667025" lon="9.931571251918019"><ele>1028.3333333333333</ele><time>2026-04-03T12:17:06.973Z</time></trkpt><trkpt lat="44.47242999470128" lon="9.93179038882725"><ele>1026.0</ele><time>2026-04-03T12:17:07.971Z</time></trkpt><trkpt lat="44.47237976567722" lon="9.932017756448387"><ele>1022.6666666666667</ele><time>2026-04-03T12:17:08.971Z</time></trkpt><trkpt lat="44.47232773665213" lon="9.932254641662558"><ele>1019.3333333333334</ele><time>2026-04-03T12:17:09.971Z</time></trkpt><trkpt lat="44.47226884843465" lon="9.932493632016614"><ele>1016.0</ele><time>2026-04-03T12:17:10.97Z</time></trkpt><trkpt lat="44.47220824923862" lon="9.932721659173158"><ele>1014.0</ele><time>2026-04-03T12:17:11.971Z</time></trkpt><trkpt lat="44.472132621592706" lon="9.932939742685843"><ele>1012.0</ele><time>2026-04-03T12:17:12.971Z</time></trkpt><trkpt lat="44.472046289814394" lon="9.933156965229092"><ele>1010.0</ele><time>2026-04-03T12:17:13.971Z</time></trkpt><trkpt lat="44.471954435716384" lon="9.933373097727097"><ele>1015.0</ele><time>2026-04-03T12:17:14.971Z</time></trkpt><trkpt lat="44.47185961027695" lon="9.933589443561841"><ele>1020.0</ele><time>2026-04-03T12:17:15.971Z</time></trkpt><trkpt lat="44.47176928711676" lon="9.933802685529441"><ele>1025.0</ele><time>2026-04-03T12:17:16.971Z</time></trkpt><trkpt lat="44.47168670406666" lon="9.934004172215525"><ele>1025.0</ele><time>2026-04-03T12:17:17.971Z</time></trkpt><trkpt lat="44.47160668385397" lon="9.934199070197257"><ele>1025.0</ele><time>2026-04-03T12:17:18.971Z</time></trkpt><trkpt lat="44.47154307722546" lon="9.934388206231219"><ele>1025.0</ele><time>2026-04-03T12:17:19.97Z</time></trkpt><trkpt lat="44.471504741561034" lon="9.934574192063467"><ele>1025.0</ele><time>2026-04-03T12:17:20.971Z</time></trkpt><trkpt lat="44.4714830351173" lon="9.93474686299238"><ele>1025.8333333333335</ele><time>2026-04-03T12:17:21.971Z</time></trkpt><trkpt lat="44.4714783293412" lon="9.934899263506733"><ele>1026.6666666666667</ele><time>2026-04-03T12:17:22.971Z</time></trkpt><trkpt lat="44.47149256586977" lon="9.935022894002836"><ele>1027.5</ele><time>2026-04-03T12:17:23.971Z</time></trkpt><trkpt lat="44.47153104999876" lon="9.935108593451336"><ele>1028.3333333333333</ele><time>2026-04-03T12:17:24.971Z</time></trkpt><trkpt lat="44.47159797380406" lon="9.935162527799188"><ele>1029.1666666666665</ele><time>2026-04-03T12:17:25.971Z</time></trkpt><trkpt lat="44.471690083915256" lon="9.935171343720421"><ele>1030.0</ele><time>2026-04-03T12:17:26.971Z</time></trkpt><trkpt lat="44.471783110339395" lon="9.935155778495222"><ele>1030.0</ele><time>2026-04-03T12:17:27.971Z</time></trkpt><trkpt lat="44.47185619765462" lon="9.93516836573868"><ele>1030.0</ele><time>2026-04-03T12:17:28.971Z</time></trkpt><trkpt lat="44.47194347471879" lon="9.93518339423967"><ele>1030.0</ele><time>2026-04-03T12:17:29.971Z</time></trkpt><trkpt lat="44.4720369426267" lon="9.935240690340033"><ele>1030.0</ele><time>2026-04-03T12:17:30.971Z</time></trkpt><trkpt lat="44.47215037471496" lon="9.93535728703144"><ele>1030.0</ele><time>2026-04-03T12:17:31.971Z</time></trkpt><trkpt lat="44.47225337740058" lon="9.935496776008678"><ele>1029.75</ele><time>2026-04-03T12:17:32.971Z</time></trkpt><trkpt lat="44.47235612536253" lon="9.935640221634559"><ele>1029.5</ele><time>2026-04-03T12:17:33.971Z</time></trkpt><trkpt lat="44.47246421860035" lon="9.935772898519565"><ele>1029.25</ele><time>2026-04-03T12:17:34.971Z</time></trkpt><trkpt lat="44.47257047543204" lon="9.935914116659474"><ele>1029.0</ele><time>2026-04-03T12:17:35.971Z</time></trkpt><trkpt lat="44.47267935627622" lon="9.936039441897787"><ele>1029.0</ele><time>2026-04-03T12:17:36.971Z</time></trkpt><trkpt lat="44.472768747335884" lon="9.936181822715533"><ele>1029.0</ele><time>2026-04-03T12:17:37.971Z</time></trkpt><trkpt lat="44.47282848426098" lon="9.936345125568197"><ele>1029.0</ele><time>2026-04-03T12:17:38.971Z</time></trkpt><trkpt lat="44.472851616735966" lon="9.936522548635637"><ele>1029.0</ele><time>2026-04-03T12:17:39.971Z</time></trkpt><trkpt lat="44.47283421755969" lon="9.936710741173782"><ele>1028.3333333333333</ele><time>2026-04-03T12:17:40.971Z</time></trkpt><trkpt lat="44.47278481102399" lon="9.936900555096795"><ele>1027.6666666666665</ele><time>2026-04-03T12:17:41.971Z</time></trkpt><trkpt lat="44.47274594459479" lon="9.937134575341407"><ele>1027.0</ele><time>2026-04-03T12:17:42.971Z</time></trkpt><trkpt lat="44.47272538405327" lon="9.937405280005295"><ele>1025.6666666666665</ele><time>2026-04-03T12:17:43.971Z</time></trkpt><trkpt lat="44.47271707551968" lon="9.937710530914577"><ele>1024.3333333333333</ele><time>2026-04-03T12:17:44.971Z</time></trkpt><trkpt lat="44.4727145980007" lon="9.938028416236108"><ele>1023.0</ele><time>2026-04-03T12:17:45.971Z</time></trkpt><trkpt lat="44.47271284543796" lon="9.938337318486266"><ele>1021.3333333333333</ele><time>2026-04-03T12:17:46.971Z</time></trkpt><trkpt lat="44.47271954067403" lon="9.938627329989144"><ele>1019.6666666666666</ele><time>2026-04-03T12:17:47.971Z</time></trkpt><trkpt lat="44.47272181102488" lon="9.93889228125116"><ele>1018.0</ele><time>2026-04-03T12:17:48.971Z</time></trkpt><trkpt lat="44.47257847616201" lon="9.938545813279637"><ele>1018.0</ele><time>2026-04-03T12:17:49.971Z</time></trkpt><trkpt lat="44.47255026921261" lon="9.93870405609732"><ele>1018.0</ele><time>2026-04-03T12:17:50.971Z</time></trkpt><trkpt lat="44.47248866572027" lon="9.93883179857644"><ele>1018.0</ele><time>2026-04-03T12:17:51.971Z</time></trkpt><trkpt lat="44.472386313106306" lon="9.938928470391074"><ele>1018.0</ele><time>2026-04-03T12:17:52.971Z</time></trkpt><trkpt lat="44.472265306271915" lon="9.939015086928299"><ele>1018.0</ele><time>2026-04-03T12:17:53.971Z</time></trkpt><trkpt lat="44.472191434339415" lon="9.9391114244805"><ele>1018.0</ele><time>2026-04-03T12:17:54.971Z</time></trkpt><trkpt lat="44.472154371950616" lon="9.939221166580616"><ele>1018.0</ele><time>2026-04-03T12:17:55.971Z</time></trkpt><trkpt lat="44.47216050258556" lon="9.93935879322881"><ele>1018.0</ele><time>2026-04-03T12:17:56.971Z</time></trkpt><trkpt lat="44.47219335043077" lon="9.93950423859676"><ele>1018.0</ele><time>2026-04-03T12:17:57.971Z</time></trkpt><trkpt lat="44.47223921373055" lon="9.939668068128517"><ele>1018.8</ele><time>2026-04-03T12:17:58.971Z</time></trkpt><trkpt lat="44.472295410494105" lon="9.939840829555148"><ele>1019.5999999999999</ele><time>2026-04-03T12:17:59.971Z</time></trkpt><trkpt lat="44.472334912552135" lon="9.939990589924221"><ele>1020.4000000000001</ele><time>2026-04-03T12:18:00.971Z</time></trkpt><trkpt lat="44.472387179579435" lon="9.940109469397054"><ele>1021.2</ele><time>2026-04-03T12:18:01.971Z</time></trkpt><trkpt lat="44.47246615024975" lon="9.940196378250992"><ele>1022.0</ele><time>2026-04-03T12:18:02.971Z</time></trkpt><trkpt lat="44.47258114007698" lon="9.940233641976908"><ele>1024.0</ele><time>2026-04-03T12:18:03.971Z</time></trkpt><trkpt lat="44.47272135263627" lon="9.940252984966303"><ele>1026.0</ele><time>2026-04-03T12:18:04.971Z</time></trkpt><trkpt lat="44.47287160838672" lon="9.940279754789401"><ele>1028.0</ele><time>2026-04-03T12:18:05.971Z</time></trkpt><trkpt lat="44.47302541554019" lon="9.940290585248484"><ele>1030.0</ele><time>2026-04-03T12:18:06.971Z</time></trkpt><trkpt lat="44.4731729987159" lon="9.940288883911755"><ele>1030.0</ele><time>2026-04-03T12:18:07.971Z</time></trkpt><trkpt lat="44.47330508230043" lon="9.940296927824612"><ele>1030.0</ele><time>2026-04-03T12:18:08.971Z</time></trkpt><trkpt lat="44.473432424947994" lon="9.940345850136863"><ele>1030.0</ele><time>2026-04-03T12:18:09.971Z</time></trkpt><trkpt lat="44.47354525445282" lon="9.94044997658587"><ele>1030.0</ele><time>2026-04-03T12:18:10.971Z</time></trkpt><trkpt lat="44.47363840868616" lon="9.940597261672249"><ele>1030.0</ele><time>2026-04-03T12:18:11.971Z</time></trkpt><trkpt lat="44.47373291421868" lon="9.940819993499083"><ele>1030.0</ele><time>2026-04-03T12:18:12.971Z</time></trkpt><trkpt lat="44.47382342496375" lon="9.941006741997025"><ele>1030.0</ele><time>2026-04-03T12:18:13.971Z</time></trkpt><trkpt lat="44.473913510619454" lon="9.941163849388886"><ele>1025.25</ele><time>2026-04-03T12:18:14.971Z</time></trkpt><trkpt lat="44.474016589146544" lon="9.941284992142512"><ele>1020.5</ele><time>2026-04-03T12:18:15.971Z</time></trkpt><trkpt lat="44.47412578667246" lon="9.94136178083314"><ele>1015.75</ele><time>2026-04-03T12:18:16.971Z</time></trkpt><trkpt lat="44.47423276013294" lon="9.941402913424648"><ele>1011.0</ele><time>2026-04-03T12:18:17.971Z</time></trkpt><trkpt lat="44.474300443254926" lon="9.941480761260838"><ele>1011.0</ele><time>2026-04-03T12:18:18.971Z</time></trkpt><trkpt lat="44.47431670212747" lon="9.941596490515607"><ele>1010.9999999999999</ele><time>2026-04-03T12:18:19.971Z</time></trkpt><trkpt lat="44.47426772355038" lon="9.941709817154237"><ele>1010.9999999999999</ele><time>2026-04-03T12:18:20.971Z</time></trkpt><trkpt lat="44.474192669308636" lon="9.94180584183524"><ele>1011.0</ele><time>2026-04-03T12:18:21.971Z</time></trkpt><trkpt lat="44.47409347678852" lon="9.941891063627587"><ele>1011.0</ele><time>2026-04-03T12:18:22.971Z</time></trkpt><trkpt lat="44.47398696345005" lon="9.941989220584562"><ele>1008.0</ele><time>2026-04-03T12:18:23.971Z</time></trkpt><trkpt lat="44.473872083118735" lon="9.942124880683618"><ele>1005.0</ele><time>2026-04-03T12:18:24.971Z</time></trkpt><trkpt lat="44.47375840680674" lon="9.94226198098412"><ele>1002.0</ele><time>2026-04-03T12:18:25.971Z</time></trkpt><trkpt lat="44.47366408065481" lon="9.94239105472752"><ele>999.0</ele><time>2026-04-03T12:18:26.971Z</time></trkpt><trkpt lat="44.473600302377065" lon="9.942531834835512"><ele>1004.25</ele><time>2026-04-03T12:18:27.971Z</time></trkpt><trkpt lat="44.47355394219688" lon="9.942703931826259"><ele>1009.5</ele><time>2026-04-03T12:18:28.971Z</time></trkpt><trkpt lat="44.47353969813689" lon="9.942912102796548"><ele>1014.75</ele><time>2026-04-03T12:18:29.971Z</time></trkpt><trkpt lat="44.4735558185249" lon="9.94311811994103"><ele>1020.0</ele><time>2026-04-03T12:18:30.971Z</time></trkpt><trkpt lat="44.47358094441897" lon="9.943298363991307"><ele>1019.3333333333333</ele><time>2026-04-03T12:18:31.971Z</time></trkpt><trkpt lat="44.47363278043227" lon="9.943488914055678"><ele>1018.6666666666666</ele><time>2026-04-03T12:18:32.971Z</time></trkpt><trkpt lat="44.47371457528257" lon="9.943679938650442"><ele>1018.0</ele><time>2026-04-03T12:18:33.971Z</time></trkpt><trkpt lat="44.473810032799896" lon="9.943871559696749"><ele>1014.0</ele><time>2026-04-03T12:18:34.971Z</time></trkpt><trkpt lat="44.47390852656292" lon="9.944075228466746"><ele>1010.0</ele><time>2026-04-03T12:18:35.971Z</time></trkpt><trkpt lat="44.473999376519444" lon="9.944296211654601"><ele>1006.0</ele><time>2026-04-03T12:18:36.971Z</time></trkpt><trkpt lat="44.47408018617137" lon="9.944528463857205"><ele>1006.0</ele><time>2026-04-03T12:18:37.971Z</time></trkpt><trkpt lat="44.4741463017481" lon="9.944764490611824"><ele>1006.0</ele><time>2026-04-03T12:18:38.971Z</time></trkpt><trkpt lat="44.474199969974784" lon="9.944992848976456"><ele>1006.0</ele><time>2026-04-03T12:18:39.971Z</time></trkpt><trkpt lat="44.47424353080559" lon="9.945226078343826"><ele>1007.0</ele><time>2026-04-03T12:18:40.971Z</time></trkpt><trkpt lat="44.47427765681426" lon="9.94545969315824"><ele>1008.0</ele><time>2026-04-03T12:18:41.972Z</time></trkpt><trkpt lat="44.47432188576872" lon="9.945680774711647"><ele>1009.0</ele><time>2026-04-03T12:18:42.972Z</time></trkpt><trkpt lat="44.47435921041228" lon="9.94588146952161"><ele>1008.0</ele><time>2026-04-03T12:18:43.972Z</time></trkpt><trkpt lat="44.474390947790916" lon="9.946044832868868"><ele>1007.0000000000001</ele><time>2026-04-03T12:18:44.972Z</time></trkpt><trkpt lat="44.47443430272816" lon="9.946183527844452"><ele>1006.0000000000001</ele><time>2026-04-03T12:18:45.972Z</time></trkpt><trkpt lat="44.47450400588215" lon="9.946288106941491"><ele>1005.0</ele><time>2026-04-03T12:18:46.972Z</time></trkpt><trkpt lat="44.47461316780811" lon="9.946348035957268"><ele>1004.0</ele><time>2026-04-03T12:18:47.972Z</time></trkpt><trkpt lat="44.47474980618389" lon="9.946382863867115"><ele>1004.0</ele><time>2026-04-03T12:18:48.972Z</time></trkpt><trkpt lat="44.47489754140033" lon="9.946435640292423"><ele>1004.0</ele><time>2026-04-03T12:18:49.972Z</time></trkpt><trkpt lat="44.475049093147845" lon="9.946488264284728"><ele>1004.0</ele><time>2026-04-03T12:18:50.972Z</time></trkpt><trkpt lat="44.475207654259144" lon="9.946529670093721"><ele>1004.0</ele><time>2026-04-03T12:18:51.972Z</time></trkpt><trkpt lat="44.4753689055232" lon="9.946548236097417"><ele>1004.0</ele><time>2026-04-03T12:18:52.972Z</time></trkpt><trkpt lat="44.47553910267628" lon="9.946563209663857"><ele>1004.0</ele><time>2026-04-03T12:18:53.972Z</time></trkpt><trkpt lat="44.47570382715615" lon="9.94660265396025"><ele>1006.0</ele><time>2026-04-03T12:18:54.972Z</time></trkpt><trkpt lat="44.475865319732364" lon="9.946673994773684"><ele>1008.0</ele><time>2026-04-03T12:18:55.972Z</time></trkpt><trkpt lat="44.47602711391384" lon="9.946791204387333"><ele>1010.0</ele><time>2026-04-03T12:18:56.972Z</time></trkpt><trkpt lat="44.47618125812871" lon="9.946884087075809"><ele>1005.75</ele><time>2026-04-03T12:18:57.972Z</time></trkpt><trkpt lat="44.47632003360512" lon="9.946964772095276"><ele>1001.5</ele><time>2026-04-03T12:18:58.972Z</time></trkpt><trkpt lat="44.476436446824486" lon="9.947048445578147"><ele>997.25</ele><time>2026-04-03T12:18:59.972Z</time></trkpt><trkpt lat="44.476531260146494" lon="9.94716464081867"><ele>993.0</ele><time>2026-04-03T12:19:00.972Z</time></trkpt><trkpt lat="44.4766180238907" lon="9.947322587996544"><ele>993.0</ele><time>2026-04-03T12:19:01.972Z</time></trkpt><trkpt lat="44.47669101540475" lon="9.947531455076996"><ele>993.0</ele><time>2026-04-03T12:19:02.972Z</time></trkpt><trkpt lat="44.476765172785164" lon="9.947737610265213"><ele>993.0</ele><time>2026-04-03T12:19:03.972Z</time></trkpt><trkpt lat="44.47686110887939" lon="9.947917855527479"><ele>990.0</ele><time>2026-04-03T12:19:04.972Z</time></trkpt><trkpt lat="44.47699013302256" lon="9.94804844975199"><ele>987.0</ele><time>2026-04-03T12:19:05.972Z</time></trkpt><trkpt lat="44.47725765424694" lon="9.948227535283014"><ele>987.0</ele><time>2026-04-03T12:19:07.972Z</time></trkpt><trkpt lat="44.47737505055591" lon="9.94829241996066"><ele>987.0</ele><time>2026-04-03T12:19:08.972Z</time></trkpt><trkpt lat="44.4774888612727" lon="9.9483559616888"><ele>987.0</ele><time>2026-04-03T12:19:09.972Z</time></trkpt><trkpt lat="44.47758220905596" lon="9.948476568781096"><ele>987.0</ele><time>2026-04-03T12:19:10.972Z</time></trkpt><trkpt lat="44.47763951210624" lon="9.948640020466208"><ele>989.6666666666667</ele><time>2026-04-03T12:19:11.972Z</time></trkpt><trkpt lat="44.47769188305608" lon="9.948833405173891"><ele>992.3333333333334</ele><time>2026-04-03T12:19:12.972Z</time></trkpt><trkpt lat="44.47771780116705" lon="9.949045664923277"><ele>995.0</ele><time>2026-04-03T12:19:13.969Z</time></trkpt><trkpt lat="44.47771990370602" lon="9.949253903247193"><ele>996.25</ele><time>2026-04-03T12:19:14.969Z</time></trkpt><trkpt lat="44.47770718196273" lon="9.949446376841909"><ele>997.5</ele><time>2026-04-03T12:19:15.969Z</time></trkpt><trkpt lat="44.47770809478767" lon="9.949624128398622"><ele>998.75</ele><time>2026-04-03T12:19:16.969Z</time></trkpt><trkpt lat="44.47773554995669" lon="9.949771669125393"><ele>1000.0</ele><time>2026-04-03T12:19:17.969Z</time></trkpt><trkpt lat="44.477814934050684" lon="9.949901051683515"><ele>1000.75</ele><time>2026-04-03T12:19:18.969Z</time></trkpt><trkpt lat="44.477936672440634" lon="9.950003100931374"><ele>1001.5</ele><time>2026-04-03T12:19:19.969Z</time></trkpt><trkpt lat="44.47805982046314" lon="9.95008987004677"><ele>1002.25</ele><time>2026-04-03T12:19:20.969Z</time></trkpt><trkpt lat="44.47819532682588" lon="9.950146116870553"><ele>1003.0</ele><time>2026-04-03T12:19:21.969Z</time></trkpt><trkpt lat="44.47834302477828" lon="9.95016974626752"><ele>1003.0</ele><time>2026-04-03T12:19:22.969Z</time></trkpt><trkpt lat="44.47848250560503" lon="9.95016796352463"><ele>1003.0</ele><time>2026-04-03T12:19:23.969Z</time></trkpt><trkpt lat="44.47860576679147" lon="9.950149407684725"><ele>1003.0</ele><time>2026-04-03T12:19:24.969Z</time></trkpt><trkpt lat="44.47871869388689" lon="9.950102116706942"><ele>1003.0</ele><time>2026-04-03T12:19:25.969Z</time></trkpt><trkpt lat="44.4788363229627" lon="9.950067933509406"><ele>998.25</ele><time>2026-04-03T12:19:26.969Z</time></trkpt><trkpt lat="44.478957373924416" lon="9.950034558146074"><ele>993.5</ele><time>2026-04-03T12:19:27.969Z</time></trkpt><trkpt lat="44.479077494444496" lon="9.95001446619073"><ele>988.75</ele><time>2026-04-03T12:19:28.969Z</time></trkpt><trkpt lat="44.47919099826312" lon="9.9499988071252"><ele>984.0</ele><time>2026-04-03T12:19:29.969Z</time></trkpt><trkpt lat="44.47929859781259" lon="9.949975129318172"><ele>984.0</ele><time>2026-04-03T12:19:30.969Z</time></trkpt><trkpt lat="44.47941872480149" lon="9.949967479074244"><ele>984.0</ele><time>2026-04-03T12:19:31.969Z</time></trkpt><trkpt lat="44.47953149164149" lon="9.94995175695184"><ele>984.0</ele><time>2026-04-03T12:19:32.969Z</time></trkpt><trkpt lat="44.479639501263065" lon="9.949933755117359"><ele>984.0</ele><time>2026-04-03T12:19:33.969Z</time></trkpt><trkpt lat="44.4797486111371" lon="9.949918191789948"><ele>984.0</ele><time>2026-04-03T12:19:34.969Z</time></trkpt><trkpt lat="44.47985661655371" lon="9.949887096474548"><ele>984.0000000000001</ele><time>2026-04-03T12:19:35.969Z</time></trkpt><trkpt lat="44.47996219461456" lon="9.949864736875355"><ele>984.0000000000001</ele><time>2026-04-03T12:19:36.969Z</time></trkpt><trkpt lat="44.48006729705567" lon="9.949838947435781"><ele>984.0</ele><time>2026-04-03T12:19:37.969Z</time></trkpt><trkpt lat="44.480173159023764" lon="9.949832790167163"><ele>984.0</ele><time>2026-04-03T12:19:38.969Z</time></trkpt><trkpt lat="44.48027552397994" lon="9.949809005620313"><ele>984.0</ele><time>2026-04-03T12:19:39.969Z</time></trkpt><trkpt lat="44.48037896409273" lon="9.949792898505523"><ele>984.0000000000001</ele><time>2026-04-03T12:19:40.969Z</time></trkpt><trkpt lat="44.480483985280614" lon="9.949770515126813"><ele>984.0000000000001</ele><time>2026-04-03T12:19:41.969Z</time></trkpt><trkpt lat="44.48059009929036" lon="9.949738139236832"><ele>984.0</ele><time>2026-04-03T12:19:42.969Z</time></trkpt><trkpt lat="44.48069576295733" lon="9.949641580032548"><ele>984.0</ele><time>2026-04-03T12:19:43.969Z</time></trkpt><trkpt lat="44.4808039041498" lon="9.949478704908705"><ele>984.3333333333333</ele><time>2026-04-03T12:19:44.969Z</time></trkpt><trkpt lat="44.48092353702192" lon="9.949288658342063"><ele>984.6666666666666</ele><time>2026-04-03T12:19:45.969Z</time></trkpt><trkpt lat="44.48104765522667" lon="9.949090798743406"><ele>985.0</ele><time>2026-04-03T12:19:46.969Z</time></trkpt><trkpt lat="44.48116977643979" lon="9.948919223083134"><ele>982.25</ele><time>2026-04-03T12:19:47.969Z</time></trkpt><trkpt lat="44.48128505691195" lon="9.948777693168532"><ele>979.5</ele><time>2026-04-03T12:19:48.969Z</time></trkpt><trkpt lat="44.481384671280466" lon="9.948650173147952"><ele>976.75</ele><time>2026-04-03T12:19:49.969Z</time></trkpt><trkpt lat="44.4814593729399" lon="9.948547031497803"><ele>974.0</ele><time>2026-04-03T12:19:50.969Z</time></trkpt><trkpt lat="44.48152630088755" lon="9.948473322286905"><ele>974.0</ele><time>2026-04-03T12:19:51.969Z</time></trkpt><trkpt lat="44.481607401599014" lon="9.94845041505816"><ele>974.0000000000001</ele><time>2026-04-03T12:19:52.969Z</time></trkpt><trkpt lat="44.48169022100094" lon="9.948483488881195"><ele>974.0000000000001</ele><time>2026-04-03T12:19:53.969Z</time></trkpt><trkpt lat="44.48175992350123" lon="9.948567488166574"><ele>974.0</ele><time>2026-04-03T12:19:54.969Z</time></trkpt><trkpt lat="44.481802294889505" lon="9.94870515870971"><ele>974.0</ele><time>2026-04-03T12:19:55.969Z</time></trkpt><trkpt lat="44.481839350542735" lon="9.948866456403843"><ele>974.0</ele><time>2026-04-03T12:19:56.969Z</time></trkpt><trkpt lat="44.481877448332995" lon="9.949024238585261"><ele>974.0</ele><time>2026-04-03T12:19:57.969Z</time></trkpt><trkpt lat="44.48193622755817" lon="9.94916471369078"><ele>974.0</ele><time>2026-04-03T12:19:58.969Z</time></trkpt><trkpt lat="44.48202909408911" lon="9.949286412714134"><ele>974.0</ele><time>2026-04-03T12:19:59.969Z</time></trkpt><trkpt lat="44.48213921285334" lon="9.94940019717425"><ele>973.3333333333334</ele><time>2026-04-03T12:20:00.969Z</time></trkpt><trkpt lat="44.48226416323505" lon="9.949517802372856"><ele>972.6666666666667</ele><time>2026-04-03T12:20:01.969Z</time></trkpt><trkpt lat="44.48241578223965" lon="9.949641768833228"><ele>972.0</ele><time>2026-04-03T12:20:02.969Z</time></trkpt><trkpt lat="44.48255824170661" lon="9.949770349151956"><ele>972.0</ele><time>2026-04-03T12:20:03.969Z</time></trkpt><trkpt lat="44.4826934400865" lon="9.949900723557695"><ele>972.0</ele><time>2026-04-03T12:20:04.969Z</time></trkpt><trkpt lat="44.48282186207788" lon="9.950005817014349"><ele>972.0</ele><time>2026-04-03T12:20:05.969Z</time></trkpt><trkpt lat="44.48294241531307" lon="9.950064364179294"><ele>972.0</ele><time>2026-04-03T12:20:06.969Z</time></trkpt><trkpt lat="44.48308431910585" lon="9.950065436467"><ele>973.25</ele><time>2026-04-03T12:20:07.969Z</time></trkpt><trkpt lat="44.48323265654966" lon="9.950021738937595"><ele>974.5</ele><time>2026-04-03T12:20:08.969Z</time></trkpt><trkpt lat="44.48337754207603" lon="9.950004796747118"><ele>975.75</ele><time>2026-04-03T12:20:09.969Z</time></trkpt><trkpt lat="44.48352055567538" lon="9.95002709103203"><ele>977.0</ele><time>2026-04-03T12:20:10.969Z</time></trkpt><trkpt lat="44.483660144557824" lon="9.950102756742192"><ele>970.25</ele><time>2026-04-03T12:20:11.969Z</time></trkpt><trkpt lat="44.4837850524504" lon="9.950211592636133"><ele>963.5</ele><time>2026-04-03T12:20:12.969Z</time></trkpt><trkpt lat="44.48389048142803" lon="9.950340578882662"><ele>956.75</ele><time>2026-04-03T12:20:13.969Z</time></trkpt><trkpt lat="44.483982341125476" lon="9.950493393376403"><ele>950.0</ele><time>2026-04-03T12:20:14.969Z</time></trkpt><trkpt lat="44.484058523289406" lon="9.95067039221134"><ele>950.0</ele><time>2026-04-03T12:20:15.969Z</time></trkpt><trkpt lat="44.484120132169394" lon="9.950873471303503"><ele>950.0</ele><time>2026-04-03T12:20:16.969Z</time></trkpt><trkpt lat="44.48416353898314" lon="9.951095712513558"><ele>950.0</ele><time>2026-04-03T12:20:17.969Z</time></trkpt><trkpt lat="44.48420850489327" lon="9.951325151975375"><ele>952.3333333333334</ele><time>2026-04-03T12:20:18.969Z</time></trkpt><trkpt lat="44.48426022454371" lon="9.95154847919521"><ele>954.6666666666667</ele><time>2026-04-03T12:20:19.969Z</time></trkpt><trkpt lat="44.48431105670068" lon="9.951755120293175"><ele>957.0</ele><time>2026-04-03T12:20:20.969Z</time></trkpt><trkpt lat="44.48437263513606" lon="9.951950621923128"><ele>959.3333333333333</ele><time>2026-04-03T12:20:21.969Z</time></trkpt><trkpt lat="44.484467500577296" lon="9.952122374980544"><ele>961.6666666666666</ele><time>2026-04-03T12:20:22.969Z</time></trkpt><trkpt lat="44.48456740460328" lon="9.95230105175083"><ele>964.0</ele><time>2026-04-03T12:20:23.969Z</time></trkpt><trkpt lat="44.48467447195644" lon="9.952491811967132"><ele>954.6666666666666</ele><time>2026-04-03T12:20:24.969Z</time></trkpt><trkpt lat="44.484761335324144" lon="9.95269899325421"><ele>945.3333333333333</ele><time>2026-04-03T12:20:25.969Z</time></trkpt><trkpt lat="44.48483538225213" lon="9.95290056395405"><ele>936.0</ele><time>2026-04-03T12:20:26.969Z</time></trkpt><trkpt lat="44.48490354850356" lon="9.953091438505492"><ele>936.0</ele><time>2026-04-03T12:20:27.969Z</time></trkpt><trkpt lat="44.48496279294099" lon="9.95328296836548"><ele>936.0</ele><time>2026-04-03T12:20:28.969Z</time></trkpt><trkpt lat="44.4849985491141" lon="9.953480805006901"><ele>936.0</ele><time>2026-04-03T12:20:29.969Z</time></trkpt><trkpt lat="44.48501667468531" lon="9.953693422027458"><ele>936.0</ele><time>2026-04-03T12:20:30.969Z</time></trkpt><trkpt lat="44.48503109139116" lon="9.953913783356832"><ele>935.6666666666667</ele><time>2026-04-03T12:20:31.969Z</time></trkpt><trkpt lat="44.48503147758852" lon="9.954133653309675"><ele>935.3333333333334</ele><time>2026-04-03T12:20:32.969Z</time></trkpt><trkpt lat="44.48500667485103" lon="9.954356728312648"><ele>935.0</ele><time>2026-04-03T12:20:33.969Z</time></trkpt><trkpt lat="44.4849606620682" lon="9.954580102194322"><ele>932.6666666666667</ele><time>2026-04-03T12:20:34.969Z</time></trkpt><trkpt lat="44.484908182233255" lon="9.95481217564654"><ele>930.3333333333333</ele><time>2026-04-03T12:20:35.97Z</time></trkpt><trkpt lat="44.48486038093596" lon="9.955047601741743"><ele>928.0</ele><time>2026-04-03T12:20:36.97Z</time></trkpt><trkpt lat="44.48482004452429" lon="9.955289954532159"><ele>923.3333333333333</ele><time>2026-04-03T12:20:37.97Z</time></trkpt><trkpt lat="44.4847710743216" lon="9.955531261910728"><ele>918.6666666666667</ele><time>2026-04-03T12:20:38.97Z</time></trkpt><trkpt lat="44.48470918533449" lon="9.955759336077437"><ele>914.0</ele><time>2026-04-03T12:20:39.97Z</time></trkpt><trkpt lat="44.48465164766768" lon="9.95598536615984"><ele>910.6666666666667</ele><time>2026-04-03T12:20:40.97Z</time></trkpt><trkpt lat="44.48460161699433" lon="9.956226215827186"><ele>907.3333333333333</ele><time>2026-04-03T12:20:41.97Z</time></trkpt><trkpt lat="44.48457177159278" lon="9.956487132212624"><ele>904.0</ele><time>2026-04-03T12:20:42.97Z</time></trkpt><trkpt lat="44.48454777792941" lon="9.95675622075895"><ele>910.6666666666666</ele><time>2026-04-03T12:20:43.97Z</time></trkpt><trkpt lat="44.484523561656395" lon="9.957031835271254"><ele>917.3333333333333</ele><time>2026-04-03T12:20:44.97Z</time></trkpt><trkpt lat="44.484496033177784" lon="9.957321484804215"><ele>924.0</ele><time>2026-04-03T12:20:45.97Z</time></trkpt><trkpt lat="44.484470084936255" lon="9.957594356483913"><ele>924.3333333333333</ele><time>2026-04-03T12:20:46.97Z</time></trkpt><trkpt lat="44.48444497791718" lon="9.957843173399814"><ele>924.6666666666666</ele><time>2026-04-03T12:20:47.97Z</time></trkpt><trkpt lat="44.484424807691056" lon="9.95805318593519"><ele>925.0</ele><time>2026-04-03T12:20:48.97Z</time></trkpt><trkpt lat="44.484409316155414" lon="9.958232735289771"><ele>927.5</ele><time>2026-04-03T12:20:49.97Z</time></trkpt><trkpt lat="44.484398973131334" lon="9.958403962682103"><ele>930.0</ele><time>2026-04-03T12:20:50.97Z</time></trkpt><trkpt lat="44.484409988490704" lon="9.95855465037725"><ele>932.5</ele><time>2026-04-03T12:20:51.97Z</time></trkpt><trkpt lat="44.48446261258508" lon="9.958677200748085"><ele>935.0</ele><time>2026-04-03T12:20:52.97Z</time></trkpt><trkpt lat="44.484569854703516" lon="9.958758214140667"><ele>929.25</ele><time>2026-04-03T12:20:53.97Z</time></trkpt><trkpt lat="44.484683757304" lon="9.958802048365966"><ele>923.5</ele><time>2026-04-03T12:20:54.97Z</time></trkpt><trkpt lat="44.48481993757576" lon="9.958830487987811"><ele>917.75</ele><time>2026-04-03T12:20:55.97Z</time></trkpt><trkpt lat="44.4849640939582" lon="9.958842216890881"><ele>912.0</ele><time>2026-04-03T12:20:56.97Z</time></trkpt><trkpt lat="44.48511106471842" lon="9.958853481440668"><ele>912.0</ele><time>2026-04-03T12:20:57.97Z</time></trkpt><trkpt lat="44.48525738963714" lon="9.958881118509314"><ele>912.0</ele><time>2026-04-03T12:20:58.97Z</time></trkpt><trkpt lat="44.48538487459055" lon="9.95892174142071"><ele>912.0</ele><time>2026-04-03T12:20:59.97Z</time></trkpt><trkpt lat="44.485496514413974" lon="9.958992315066883"><ele>912.0</ele><time>2026-04-03T12:21:00.97Z</time></trkpt><trkpt lat="44.48557276230381" lon="9.959115482417946"><ele>906.75</ele><time>2026-04-03T12:21:01.97Z</time></trkpt><trkpt lat="44.48561711200909" lon="9.95926972536483"><ele>901.5</ele><time>2026-04-03T12:21:02.97Z</time></trkpt><trkpt lat="44.48563935721485" lon="9.959445736378308"><ele>896.25</ele><time>2026-04-03T12:21:03.97Z</time></trkpt><trkpt lat="44.48563680433877" lon="9.959648818543723"><ele>891.0</ele><time>2026-04-03T12:21:04.97Z</time></trkpt><trkpt lat="44.48563323902581" lon="9.959861901749305"><ele>891.6666666666667</ele><time>2026-04-03T12:21:05.97Z</time></trkpt><trkpt lat="44.4856318477363" lon="9.960083818326995"><ele>892.3333333333334</ele><time>2026-04-03T12:21:06.97Z</time></trkpt><trkpt lat="44.48564429291783" lon="9.96030907585009"><ele>893.0</ele><time>2026-04-03T12:21:07.97Z</time></trkpt><trkpt lat="44.48567630360835" lon="9.960538774141554"><ele>893.0</ele><time>2026-04-03T12:21:08.97Z</time></trkpt><trkpt lat="44.48571873835119" lon="9.960764206666344"><ele>893.0</ele><time>2026-04-03T12:21:09.97Z</time></trkpt><trkpt lat="44.485758021168905" lon="9.960994389263496"><ele>893.0</ele><time>2026-04-03T12:21:10.97Z</time></trkpt><trkpt lat="44.485792752271166" lon="9.961227993454438"><ele>893.0</ele><time>2026-04-03T12:21:11.97Z</time></trkpt><trkpt lat="44.485832546187105" lon="9.961467725165006"><ele>893.0</ele><time>2026-04-03T12:21:12.97Z</time></trkpt><trkpt lat="44.48587544134644" lon="9.961717372920852"><ele>893.0</ele><time>2026-04-03T12:21:13.97Z</time></trkpt><trkpt lat="44.48592507678781" lon="9.961966303519207"><ele>893.0</ele><time>2026-04-03T12:21:14.97Z</time></trkpt><trkpt lat="44.485964219316486" lon="9.962206555575136"><ele>893.0</ele><time>2026-04-03T12:21:15.97Z</time></trkpt><trkpt lat="44.48600332479944" lon="9.962436294479541"><ele>893.0</ele><time>2026-04-03T12:21:16.97Z</time></trkpt><trkpt lat="44.486038057971705" lon="9.962638693122722"><ele>892.5</ele><time>2026-04-03T12:21:17.97Z</time></trkpt><trkpt lat="44.48606171523178" lon="9.962825592548791"><ele>892.0</ele><time>2026-04-03T12:21:18.97Z</time></trkpt><trkpt lat="44.486052944809714" lon="9.96301836944422"><ele>891.5</ele><time>2026-04-03T12:21:19.968Z</time></trkpt><trkpt lat="44.486013253749995" lon="9.963213181712007"><ele>891.0</ele><time>2026-04-03T12:21:20.968Z</time></trkpt><trkpt lat="44.48592872996804" lon="9.96339475589742"><ele>890.5</ele><time>2026-04-03T12:21:21.968Z</time></trkpt><trkpt lat="44.485828916234595" lon="9.963568692875562"><ele>890.0</ele><time>2026-04-03T12:21:22.968Z</time></trkpt><trkpt lat="44.485741149989266" lon="9.96374258386128"><ele>889.5</ele><time>2026-04-03T12:21:23.969Z</time></trkpt><trkpt lat="44.48568194868501" lon="9.963894066673058"><ele>889.0</ele><time>2026-04-03T12:21:24.969Z</time></trkpt><trkpt lat="44.485635898531676" lon="9.964048448120979"><ele>889.5</ele><time>2026-04-03T12:21:25.968Z</time></trkpt><trkpt lat="44.48561189465581" lon="9.964214980535207"><ele>890.0</ele><time>2026-04-03T12:21:26.968Z</time></trkpt><trkpt lat="44.48561065808751" lon="9.964394079602714"><ele>890.5</ele><time>2026-04-03T12:21:27.968Z</time></trkpt><trkpt lat="44.48562755931422" lon="9.964572789458098"><ele>891.0</ele><time>2026-04-03T12:21:28.968Z</time></trkpt><trkpt lat="44.48566826180631" lon="9.96472729662613"><ele>891.0</ele><time>2026-04-03T12:21:29.968Z</time></trkpt><trkpt lat="44.485719922774635" lon="9.964861454271638"><ele>890.9999999999999</ele><time>2026-04-03T12:21:30.968Z</time></trkpt><trkpt lat="44.48578809110645" lon="9.964972633495249"><ele>890.9999999999999</ele><time>2026-04-03T12:21:31.968Z</time></trkpt><trkpt lat="44.48586439299186" lon="9.965048289753993"><ele>891.0</ele><time>2026-04-03T12:21:32.968Z</time></trkpt><trkpt lat="44.48600180894946" lon="9.965027121561796"><ele>891.0</ele><time>2026-04-03T12:21:33.968Z</time></trkpt><trkpt lat="44.48615294371059" lon="9.964967553056821"><ele>887.75</ele><time>2026-04-03T12:21:34.968Z</time></trkpt><trkpt lat="44.48629042503206" lon="9.964878553227436"><ele>884.5</ele><time>2026-04-03T12:21:35.968Z</time></trkpt><trkpt lat="44.486429457232305" lon="9.964783466559211"><ele>881.25</ele><time>2026-04-03T12:21:36.968Z</time></trkpt><trkpt lat="44.4865480742196" lon="9.96471382305442"><ele>878.0</ele><time>2026-04-03T12:21:37.968Z</time></trkpt><trkpt lat="44.48665831144286" lon="9.964683136568825"><ele>878.0</ele><time>2026-04-03T12:21:38.968Z</time></trkpt><trkpt lat="44.48675925305597" lon="9.964667552481513"><ele>878.0</ele><time>2026-04-03T12:21:39.968Z</time></trkpt><trkpt lat="44.48686757200181" lon="9.96466864226473"><ele>878.0</ele><time>2026-04-03T12:21:40.968Z</time></trkpt><trkpt lat="44.48699398474277" lon="9.964712936221671"><ele>878.0</ele><time>2026-04-03T12:21:41.968Z</time></trkpt><trkpt lat="44.48712413717121" lon="9.9648069175112"><ele>875.3333333333334</ele><time>2026-04-03T12:21:42.968Z</time></trkpt><trkpt lat="44.487247758230595" lon="9.964938746881419"><ele>872.6666666666667</ele><time>2026-04-03T12:21:43.968Z</time></trkpt><trkpt lat="44.48734867205885" lon="9.965104815313818"><ele>870.0</ele><time>2026-04-03T12:21:44.968Z</time></trkpt><trkpt lat="44.487424346042054" lon="9.965283941276551"><ele>870.0</ele><time>2026-04-03T12:21:45.968Z</time></trkpt><trkpt lat="44.48747920500007" lon="9.965441951118722"><ele>870.0</ele><time>2026-04-03T12:21:46.968Z</time></trkpt><trkpt lat="44.48754227288711" lon="9.965581970520937"><ele>870.0</ele><time>2026-04-03T12:21:47.968Z</time></trkpt><trkpt lat="44.487618869634105" lon="9.965725098685342"><ele>870.0</ele><time>2026-04-03T12:21:48.968Z</time></trkpt><trkpt lat="44.487692020317304" lon="9.965875064052517"><ele>871.4</ele><time>2026-04-03T12:21:49.968Z</time></trkpt><trkpt lat="44.48776120638222" lon="9.966029529410712"><ele>872.8</ele><time>2026-04-03T12:21:50.968Z</time></trkpt><trkpt lat="44.48782566599002" lon="9.966159375977087"><ele>874.2</ele><time>2026-04-03T12:21:51.968Z</time></trkpt><trkpt lat="44.48789330200716" lon="9.96625537836851"><ele>875.6</ele><time>2026-04-03T12:21:52.968Z</time></trkpt><trkpt lat="44.48798304003603" lon="9.966301278436658"><ele>877.0</ele><time>2026-04-03T12:21:53.968Z</time></trkpt><trkpt lat="44.48809697572668" lon="9.966307954158943"><ele>877.0</ele><time>2026-04-03T12:21:54.968Z</time></trkpt><trkpt lat="44.4882184959364" lon="9.966272618125899"><ele>877.0</ele><time>2026-04-03T12:21:55.968Z</time></trkpt><trkpt lat="44.48833742343285" lon="9.96619579010638"><ele>877.0</ele><time>2026-04-03T12:21:56.968Z</time></trkpt><trkpt lat="44.48845668182763" lon="9.966121220832989"><ele>877.0</ele><time>2026-04-03T12:21:57.968Z</time></trkpt><trkpt lat="44.48857193671759" lon="9.966081409080207"><ele>877.0</ele><time>2026-04-03T12:21:58.968Z</time></trkpt><trkpt lat="44.48868380378505" lon="9.966102658784791"><ele>877.0</ele><time>2026-04-03T12:21:59.968Z</time></trkpt><trkpt lat="44.48879745986045" lon="9.966175132077058"><ele>877.0</ele><time>2026-04-03T12:22:00.968Z</time></trkpt><trkpt lat="44.48889879774608" lon="9.96630758210483"><ele>877.0</ele><time>2026-04-03T12:22:01.968Z</time></trkpt><trkpt lat="44.4889767928462" lon="9.966457394014718"><ele>877.0</ele><time>2026-04-03T12:22:02.968Z</time></trkpt><trkpt lat="44.48905566942537" lon="9.966606939147765"><ele>877.0</ele><time>2026-04-03T12:22:03.968Z</time></trkpt><trkpt lat="44.48914276949793" lon="9.966730499601757"><ele>877.0</ele><time>2026-04-03T12:22:04.968Z</time></trkpt><trkpt lat="44.48922947063465" lon="9.966799086811061"><ele>877.0</ele><time>2026-04-03T12:22:05.968Z</time></trkpt><trkpt lat="44.48932662646528" lon="9.966831483494527"><ele>877.0</ele><time>2026-04-03T12:22:06.968Z</time></trkpt><trkpt lat="44.48944245260642" lon="9.966808734722662"><ele>877.0</ele><time>2026-04-03T12:22:07.968Z</time></trkpt><trkpt lat="44.48955118670313" lon="9.966726447479264"><ele>877.0</ele><time>2026-04-03T12:22:08.968Z</time></trkpt><trkpt lat="44.48964517892261" lon="9.966601672478523"><ele>877.0</ele><time>2026-04-03T12:22:09.968Z</time></trkpt><trkpt lat="44.48975530515834" lon="9.966480268313845"><ele>877.0</ele><time>2026-04-03T12:22:10.968Z</time></trkpt><trkpt lat="44.48987411775055" lon="9.966333026041491"><ele>877.0</ele><time>2026-04-03T12:22:11.968Z</time></trkpt><trkpt lat="44.489979924282515" lon="9.966200980581071"><ele>877.0</ele><time>2026-04-03T12:22:12.968Z</time></trkpt><trkpt lat="44.49008177602091" lon="9.966092051059917"><ele>877.0</ele><time>2026-04-03T12:22:13.968Z</time></trkpt><trkpt lat="44.49019786436518" lon="9.966000263140533"><ele>877.0</ele><time>2026-04-03T12:22:14.968Z</time></trkpt><trkpt lat="44.490327860669964" lon="9.96593981386365"><ele>877.0</ele><time>2026-04-03T12:22:15.968Z</time></trkpt><trkpt lat="44.49047666625709" lon="9.96591897628421"><ele>877.0</ele><time>2026-04-03T12:22:16.968Z</time></trkpt><trkpt lat="44.49063392104652" lon="9.965915116027972"><ele>877.0</ele><time>2026-04-03T12:22:17.968Z</time></trkpt><trkpt lat="44.490795073302806" lon="9.965918649067694"><ele>878.0</ele><time>2026-04-03T12:22:18.968Z</time></trkpt><trkpt lat="44.490957125178305" lon="9.965936297907373"><ele>879.0</ele><time>2026-04-03T12:22:19.968Z</time></trkpt><trkpt lat="44.49112496874303" lon="9.965976745550288"><ele>880.0</ele><time>2026-04-03T12:22:20.968Z</time></trkpt><trkpt lat="44.491297082647755" lon="9.966040758991403"><ele>877.3333333333333</ele><time>2026-04-03T12:22:21.968Z</time></trkpt><trkpt lat="44.49146781254347" lon="9.966133029914815"><ele>874.6666666666667</ele><time>2026-04-03T12:22:22.968Z</time></trkpt><trkpt lat="44.491641716826265" lon="9.966227157388412"><ele>872.0</ele><time>2026-04-03T12:22:23.968Z</time></trkpt><trkpt lat="44.491810302305595" lon="9.966323193000626"><ele>872.0</ele><time>2026-04-03T12:22:24.968Z</time></trkpt><trkpt lat="44.49197664449576" lon="9.966411965132368"><ele>872.0</ele><time>2026-04-03T12:22:25.968Z</time></trkpt><trkpt lat="44.49213133772178" lon="9.966496934950294"><ele>872.0</ele><time>2026-04-03T12:22:26.968Z</time></trkpt><trkpt lat="44.49227116640879" lon="9.966577175384025"><ele>871.0</ele><time>2026-04-03T12:22:27.968Z</time></trkpt><trkpt lat="44.49239284193586" lon="9.96665088571567"><ele>870.0</ele><time>2026-04-03T12:22:28.969Z</time></trkpt><trkpt lat="44.49248778675198" lon="9.96675180485409"><ele>869.0</ele><time>2026-04-03T12:22:29.969Z</time></trkpt><trkpt lat="44.492555659837976" lon="9.966894938565963"><ele>868.0</ele><time>2026-04-03T12:22:30.969Z</time></trkpt><trkpt lat="44.49258683752628" lon="9.9670712603868"><ele>868.0</ele><time>2026-04-03T12:22:31.969Z</time></trkpt><trkpt lat="44.49258856682603" lon="9.967262009491828"><ele>868.0</ele><time>2026-04-03T12:22:32.969Z</time></trkpt><trkpt lat="44.492588714922526" lon="9.967470360075314"><ele>868.0</ele><time>2026-04-03T12:22:33.969Z</time></trkpt><trkpt lat="44.49261069400171" lon="9.96767403092647"><ele>868.0</ele><time>2026-04-03T12:22:34.969Z</time></trkpt><trkpt lat="44.49263979760177" lon="9.967857732871614"><ele>868.6666666666666</ele><time>2026-04-03T12:22:35.969Z</time></trkpt><trkpt lat="44.492678057664925" lon="9.968021557441578"><ele>869.3333333333333</ele><time>2026-04-03T12:22:36.969Z</time></trkpt><trkpt lat="44.492693481460265" lon="9.968164954403314"><ele>870.0</ele><time>2026-04-03T12:22:37.969Z</time></trkpt><trkpt lat="44.49283622654521" lon="9.968418398408993"><ele>870.2</ele><time>2026-04-03T12:22:38.969Z</time></trkpt><trkpt lat="44.49287352501515" lon="9.96856307203631"><ele>870.4</ele><time>2026-04-03T12:22:39.969Z</time></trkpt><trkpt lat="44.49291241614255" lon="9.968702406213241"><ele>870.5999999999999</ele><time>2026-04-03T12:22:40.969Z</time></trkpt><trkpt lat="44.49295088416725" lon="9.968842896374365"><ele>870.8</ele><time>2026-04-03T12:22:41.969Z</time></trkpt><trkpt lat="44.492986182144676" lon="9.968995015838644"><ele>871.0</ele><time>2026-04-03T12:22:42.969Z</time></trkpt><trkpt lat="44.49302963440341" lon="9.969140118201535"><ele>870.5999999999999</ele><time>2026-04-03T12:22:43.969Z</time></trkpt><trkpt lat="44.49307410179839" lon="9.969280103681172"><ele>870.1999999999999</ele><time>2026-04-03T12:22:44.969Z</time></trkpt><trkpt lat="44.49311490859037" lon="9.969426422720213"><ele>869.8000000000001</ele><time>2026-04-03T12:22:45.969Z</time></trkpt><trkpt lat="44.49315617781511" lon="9.969567443212854"><ele>869.4000000000001</ele><time>2026-04-03T12:22:46.969Z</time></trkpt><trkpt lat="44.493197287851004" lon="9.969709334131982"><ele>869.0</ele><time>2026-04-03T12:22:47.969Z</time></trkpt><trkpt lat="44.49323680354523" lon="9.969849441435445"><ele>869.0</ele><time>2026-04-03T12:22:48.969Z</time></trkpt><trkpt lat="44.49327850723463" lon="9.969991150704079"><ele>869.0000000000001</ele><time>2026-04-03T12:22:49.969Z</time></trkpt><trkpt lat="44.49332330320942" lon="9.970133055387194"><ele>869.0000000000001</ele><time>2026-04-03T12:22:50.969Z</time></trkpt><trkpt lat="44.49336811424573" lon="9.970271600306658"><ele>869.0</ele><time>2026-04-03T12:22:51.969Z</time></trkpt><trkpt lat="44.493415466926585" lon="9.970411272761414"><ele>869.0</ele><time>2026-04-03T12:22:52.969Z</time></trkpt><trkpt lat="44.49347401711978" lon="9.970535348304745"><ele>868.0</ele><time>2026-04-03T12:22:53.969Z</time></trkpt><trkpt lat="44.493561124253524" lon="9.970646269201026"><ele>867.0</ele><time>2026-04-03T12:22:54.969Z</time></trkpt><trkpt lat="44.49366823701407" lon="9.970740884425533"><ele>866.0</ele><time>2026-04-03T12:22:55.969Z</time></trkpt><trkpt lat="44.4937804844058" lon="9.970830571749064"><ele>865.0</ele><time>2026-04-03T12:22:56.969Z</time></trkpt><trkpt lat="44.493896669121085" lon="9.97091790433877"><ele>867.0</ele><time>2026-04-03T12:22:57.969Z</time></trkpt><trkpt lat="44.494014172393655" lon="9.971010836531235"><ele>869.0</ele><time>2026-04-03T12:22:58.969Z</time></trkpt><trkpt lat="44.49411365649699" lon="9.971106209342315"><ele>871.0</ele><time>2026-04-03T12:22:59.969Z</time></trkpt><trkpt lat="44.49418357546423" lon="9.971227617135833"><ele>873.0</ele><time>2026-04-03T12:23:00.969Z</time></trkpt><trkpt lat="44.49418234810458" lon="9.971392273214615"><ele>873.0</ele><time>2026-04-03T12:23:01.969Z</time></trkpt><trkpt lat="44.49412936705809" lon="9.971559904344968"><ele>873.0</ele><time>2026-04-03T12:23:02.969Z</time></trkpt><trkpt lat="44.49405260558031" lon="9.971702536521493"><ele>873.0</ele><time>2026-04-03T12:23:03.969Z</time></trkpt><trkpt lat="44.49398826416901" lon="9.97179812326147"><ele>873.0</ele><time>2026-04-03T12:23:04.969Z</time></trkpt><trkpt lat="44.493967266734" lon="9.971921091233032"><ele>873.0</ele><time>2026-04-03T12:23:05.969Z</time></trkpt><trkpt lat="44.493970740556165" lon="9.972098497059138"><ele>875.0</ele><time>2026-04-03T12:23:06.969Z</time></trkpt><trkpt lat="44.49399637677426" lon="9.972270706295086"><ele>877.0</ele><time>2026-04-03T12:23:07.969Z</time></trkpt><trkpt lat="44.49404416774853" lon="9.972449108925522"><ele>879.0</ele><time>2026-04-03T12:23:08.969Z</time></trkpt><trkpt lat="44.49412630026186" lon="9.972595409767445"><ele>881.0</ele><time>2026-04-03T12:23:09.969Z</time></trkpt><trkpt lat="44.49423043717412" lon="9.972720773435187"><ele>882.3333333333334</ele><time>2026-04-03T12:23:10.969Z</time></trkpt><trkpt lat="44.49438907205547" lon="9.972805191319054"><ele>883.6666666666667</ele><time>2026-04-03T12:23:11.969Z</time></trkpt><trkpt lat="44.494571099610646" lon="9.972902846931538"><ele>885.0</ele><time>2026-04-03T12:23:12.969Z</time></trkpt><trkpt lat="44.49475736365602" lon="9.973020234985901"><ele>885.0</ele><time>2026-04-03T12:23:13.969Z</time></trkpt><trkpt lat="44.49494751789976" lon="9.973149112321611"><ele>885.0</ele><time>2026-04-03T12:23:14.969Z</time></trkpt><trkpt lat="44.495144001700204" lon="9.973279623190997"><ele>885.0</ele><time>2026-04-03T12:23:15.969Z</time></trkpt><trkpt lat="44.495326348163324" lon="9.97339858723505"><ele>890.0</ele><time>2026-04-03T12:23:16.969Z</time></trkpt><trkpt lat="44.495498649721796" lon="9.973503686447133"><ele>895.0</ele><time>2026-04-03T12:23:17.969Z</time></trkpt><trkpt lat="44.4956860902113" lon="9.973578849880589"><ele>900.0</ele><time>2026-04-03T12:23:18.969Z</time></trkpt><trkpt lat="44.495872625499636" lon="9.973623880435579"><ele>900.0</ele><time>2026-04-03T12:23:19.969Z</time></trkpt><trkpt lat="44.49605774001456" lon="9.973673850695995"><ele>900.0</ele><time>2026-04-03T12:23:20.969Z</time></trkpt><trkpt lat="44.49624034652291" lon="9.973714602263792"><ele>900.0</ele><time>2026-04-03T12:23:21.969Z</time></trkpt><trkpt lat="44.496409460118414" lon="9.97374737173149"><ele>895.3333333333333</ele><time>2026-04-03T12:23:22.969Z</time></trkpt><trkpt lat="44.49657593224411" lon="9.973824631752224"><ele>890.6666666666666</ele><time>2026-04-03T12:23:23.969Z</time></trkpt><trkpt lat="44.496741883721" lon="9.973937029353074"><ele>886.0</ele><time>2026-04-03T12:23:24.969Z</time></trkpt><trkpt lat="44.49689581793795" lon="9.974038183333247"><ele>886.0</ele><time>2026-04-03T12:23:25.968Z</time></trkpt><trkpt lat="44.49703774793036" lon="9.974108723010612"><ele>886.0</ele><time>2026-04-03T12:23:26.968Z</time></trkpt><trkpt lat="44.4971793300731" lon="9.974120499258223"><ele>886.0</ele><time>2026-04-03T12:23:27.968Z</time></trkpt><trkpt lat="44.49731239846576" lon="9.974155260199616"><ele>886.0</ele><time>2026-04-03T12:23:28.967Z</time></trkpt><trkpt lat="44.49744062652307" lon="9.974221925673326"><ele>890.3333333333333</ele><time>2026-04-03T12:23:29.967Z</time></trkpt><trkpt lat="44.49754716692161" lon="9.97435809856731"><ele>894.6666666666667</ele><time>2026-04-03T12:23:30.967Z</time></trkpt><trkpt lat="44.49765259284118" lon="9.97453311659482"><ele>899.0</ele><time>2026-04-03T12:23:31.967Z</time></trkpt><trkpt lat="44.4977485370906" lon="9.974706003267515"><ele>899.0</ele><time>2026-04-03T12:23:32.967Z</time></trkpt><trkpt lat="44.49785431346524" lon="9.974859323322189"><ele>899.0</ele><time>2026-04-03T12:23:33.967Z</time></trkpt><trkpt lat="44.497967559444874" lon="9.97498563556419"><ele>899.0</ele><time>2026-04-03T12:23:34.967Z</time></trkpt><trkpt lat="44.498097476450035" lon="9.975070194191103"><ele>899.0</ele><time>2026-04-03T12:23:35.967Z</time></trkpt><trkpt lat="44.49827155386663" lon="9.975139775475828"><ele>902.3333333333334</ele><time>2026-04-03T12:23:36.967Z</time></trkpt><trkpt lat="44.49843864614954" lon="9.975203400617183"><ele>905.6666666666667</ele><time>2026-04-03T12:23:37.967Z</time></trkpt><trkpt lat="44.498601311873934" lon="9.97527607337996"><ele>909.0</ele><time>2026-04-03T12:23:38.967Z</time></trkpt><trkpt lat="44.498755130615535" lon="9.975342162688738"><ele>902.25</ele><time>2026-04-03T12:23:39.967Z</time></trkpt><trkpt lat="44.49889992810148" lon="9.975384069137505"><ele>895.5</ele><time>2026-04-03T12:23:40.967Z</time></trkpt><trkpt lat="44.49903426755982" lon="9.975416447089934"><ele>888.75</ele><time>2026-04-03T12:23:41.967Z</time></trkpt><trkpt lat="44.4991627449399" lon="9.975427537997774"><ele>882.0</ele><time>2026-04-03T12:23:42.967Z</time></trkpt><trkpt lat="44.49926530439827" lon="9.975441407793378"><ele>882.0</ele><time>2026-04-03T12:23:43.967Z</time></trkpt><trkpt lat="44.49933608254944" lon="9.975513907277538"><ele>882.0</ele><time>2026-04-03T12:23:44.967Z</time></trkpt><trkpt lat="44.499372134751816" lon="9.975648391125363"><ele>882.0</ele><time>2026-04-03T12:23:45.967Z</time></trkpt><trkpt lat="44.49937683766981" lon="9.975824345647839"><ele>882.0</ele><time>2026-04-03T12:23:46.967Z</time></trkpt><trkpt lat="44.499383215896714" lon="9.976022118199845"><ele>888.3333333333333</ele><time>2026-04-03T12:23:47.967Z</time></trkpt><trkpt lat="44.499404874267256" lon="9.976235363842951"><ele>894.6666666666666</ele><time>2026-04-03T12:23:48.967Z</time></trkpt><trkpt lat="44.49944098674151" lon="9.976461584323799"><ele>901.0</ele><time>2026-04-03T12:23:49.967Z</time></trkpt><trkpt lat="44.499514348155536" lon="9.976692138833878"><ele>887.3333333333333</ele><time>2026-04-03T12:23:50.967Z</time></trkpt><trkpt lat="44.49960212838872" lon="9.97691966931017"><ele>873.6666666666667</ele><time>2026-04-03T12:23:51.967Z</time></trkpt><trkpt lat="44.49967670427419" lon="9.977139948640259"><ele>860.0</ele><time>2026-04-03T12:23:52.967Z</time></trkpt><trkpt lat="44.49973603967087" lon="9.977338983567574"><ele>860.75</ele><time>2026-04-03T12:23:53.967Z</time></trkpt><trkpt lat="44.49978182235876" lon="9.977530648038652"><ele>861.5</ele><time>2026-04-03T12:23:54.967Z</time></trkpt><trkpt lat="44.49980720387323" lon="9.977718910991461"><ele>862.25</ele><time>2026-04-03T12:23:55.967Z</time></trkpt><trkpt lat="44.49980929897282" lon="9.977918962577922"><ele>863.0</ele><time>2026-04-03T12:23:56.967Z</time></trkpt><trkpt lat="44.49979188883236" lon="9.97813770008711"><ele>863.0</ele><time>2026-04-03T12:23:57.967Z</time></trkpt><trkpt lat="44.49976761014196" lon="9.978342116429538"><ele>863.0</ele><time>2026-04-03T12:23:58.967Z</time></trkpt><trkpt lat="44.499758601060655" lon="9.97853400939305"><ele>863.0</ele><time>2026-04-03T12:23:59.967Z</time></trkpt><trkpt lat="44.49976477227483" lon="9.97871512969151"><ele>863.0</ele><time>2026-04-03T12:24:00.967Z</time></trkpt><trkpt lat="44.499806851400244" lon="9.978900293771"><ele>863.3333333333334</ele><time>2026-04-03T12:24:01.967Z</time></trkpt><trkpt lat="44.49987287945368" lon="9.979089557209543"><ele>863.6666666666667</ele><time>2026-04-03T12:24:02.967Z</time></trkpt><trkpt lat="44.49994800766524" lon="9.97929090885798"><ele>864.0</ele><time>2026-04-03T12:24:03.967Z</time></trkpt><trkpt lat="44.500015946240225" lon="9.979490563808596"><ele>864.75</ele><time>2026-04-03T12:24:04.967Z</time></trkpt><trkpt lat="44.500073247556074" lon="9.979671555546096"><ele>865.5</ele><time>2026-04-03T12:24:05.967Z</time></trkpt><trkpt lat="44.500119053401136" lon="9.97983948351635"><ele>866.25</ele><time>2026-04-03T12:24:06.967Z</time></trkpt><trkpt lat="44.50012274429346" lon="9.980011122595775"><ele>867.0</ele><time>2026-04-03T12:24:07.967Z</time></trkpt><trkpt lat="44.50009774327053" lon="9.980195089558718"><ele>867.5</ele><time>2026-04-03T12:24:08.967Z</time></trkpt><trkpt lat="44.50008021519343" lon="9.980383218364052"><ele>868.0</ele><time>2026-04-03T12:24:09.967Z</time></trkpt><trkpt lat="44.500073533125686" lon="9.980574873222235"><ele>868.5</ele><time>2026-04-03T12:24:10.967Z</time></trkpt><trkpt lat="44.50009255799298" lon="9.980769948796468"><ele>869.0</ele><time>2026-04-03T12:24:11.967Z</time></trkpt><trkpt lat="44.500135080474884" lon="9.980952482821753"><ele>865.6666666666667</ele><time>2026-04-03T12:24:12.967Z</time></trkpt><trkpt lat="44.50021009708969" lon="9.981124011433424"><ele>862.3333333333333</ele><time>2026-04-03T12:24:13.967Z</time></trkpt><trkpt lat="44.500315872990946" lon="9.981282733213284"><ele>859.0</ele><time>2026-04-03T12:24:14.967Z</time></trkpt><trkpt lat="44.500417078191255" lon="9.98144541737705"><ele>859.0</ele><time>2026-04-03T12:24:15.967Z</time></trkpt><trkpt lat="44.50052890705115" lon="9.98161238672189"><ele>859.0</ele><time>2026-04-03T12:24:16.967Z</time></trkpt><trkpt lat="44.50064800597171" lon="9.98176975044071"><ele>859.0</ele><time>2026-04-03T12:24:17.967Z</time></trkpt><trkpt lat="44.500772683296546" lon="9.981918574659513"><ele>864.6666666666666</ele><time>2026-04-03T12:24:18.967Z</time></trkpt><trkpt lat="44.50088807980004" lon="9.982052799338895"><ele>870.3333333333333</ele><time>2026-04-03T12:24:19.967Z</time></trkpt><trkpt lat="44.50100668321243" lon="9.982172508361328"><ele>876.0</ele><time>2026-04-03T12:24:20.967Z</time></trkpt><trkpt lat="44.50114974067808" lon="9.982266331540162"><ele>873.25</ele><time>2026-04-03T12:24:21.967Z</time></trkpt><trkpt lat="44.50129966130492" lon="9.982346868034705"><ele>870.5</ele><time>2026-04-03T12:24:22.967Z</time></trkpt><trkpt lat="44.50143817795689" lon="9.982405789348565"><ele>867.75</ele><time>2026-04-03T12:24:23.967Z</time></trkpt><trkpt lat="44.50155702588561" lon="9.982457936845279"><ele>865.0</ele><time>2026-04-03T12:24:24.967Z</time></trkpt><trkpt lat="44.50165522374878" lon="9.982534653006708"><ele>865.0</ele><time>2026-04-03T12:24:25.967Z</time></trkpt><trkpt lat="44.501733853341634" lon="9.982677520120047"><ele>865.0</ele><time>2026-04-03T12:24:26.967Z</time></trkpt><trkpt lat="44.50178218895842" lon="9.982872906817905"><ele>865.0</ele><time>2026-04-03T12:24:27.967Z</time></trkpt><trkpt lat="44.50181934435112" lon="9.983079341628594"><ele>865.0</ele><time>2026-04-03T12:24:28.967Z</time></trkpt><trkpt lat="44.5018481641225" lon="9.98328520148806"><ele>865.0</ele><time>2026-04-03T12:24:29.967Z</time></trkpt><trkpt lat="44.50187868095337" lon="9.983480710277526"><ele>865.0</ele><time>2026-04-03T12:24:30.967Z</time></trkpt><trkpt lat="44.50189170790865" lon="9.983674436323287"><ele>865.0</ele><time>2026-04-03T12:24:31.967Z</time></trkpt><trkpt lat="44.50186205747234" lon="9.983870219149598"><ele>865.0</ele><time>2026-04-03T12:24:32.967Z</time></trkpt><trkpt lat="44.501805712635516" lon="9.984068863540445"><ele>863.25</ele><time>2026-04-03T12:24:33.967Z</time></trkpt><trkpt lat="44.50174355396821" lon="9.984261815487407"><ele>861.5</ele><time>2026-04-03T12:24:34.967Z</time></trkpt><trkpt lat="44.501672119725164" lon="9.984440951174168"><ele>859.75</ele><time>2026-04-03T12:24:35.967Z</time></trkpt><trkpt lat="44.50158344721505" lon="9.984601089734884"><ele>858.0</ele><time>2026-04-03T12:24:36.967Z</time></trkpt><trkpt lat="44.50149628999952" lon="9.984753417505672"><ele>858.0</ele><time>2026-04-03T12:24:37.967Z</time></trkpt><trkpt lat="44.50143679563688" lon="9.984902977291556"><ele>858.0</ele><time>2026-04-03T12:24:38.967Z</time></trkpt><trkpt lat="44.501411798227224" lon="9.985052447268382"><ele>858.0</ele><time>2026-04-03T12:24:39.967Z</time></trkpt><trkpt lat="44.50144759490901" lon="9.985215482262891"><ele>858.0</ele><time>2026-04-03T12:24:40.967Z</time></trkpt><trkpt lat="44.50151382481871" lon="9.985371237942962"><ele>858.5</ele><time>2026-04-03T12:24:41.967Z</time></trkpt><trkpt lat="44.501601338040494" lon="9.985519031935494"><ele>859.0</ele><time>2026-04-03T12:24:42.967Z</time></trkpt><trkpt lat="44.501733502559496" lon="9.985622859927675"><ele>859.5</ele><time>2026-04-03T12:24:43.967Z</time></trkpt><trkpt lat="44.501871232304495" lon="9.985727996572113"><ele>860.0</ele><time>2026-04-03T12:24:44.967Z</time></trkpt><trkpt lat="44.50198779505892" lon="9.985863455291453"><ele>856.75</ele><time>2026-04-03T12:24:45.967Z</time></trkpt><trkpt lat="44.50208677621645" lon="9.986026780643444"><ele>853.5</ele><time>2026-04-03T12:24:46.967Z</time></trkpt><trkpt lat="44.50216824258781" lon="9.986200716804792"><ele>850.25</ele><time>2026-04-03T12:24:47.967Z</time></trkpt><trkpt lat="44.50222725622992" lon="9.986361435618363"><ele>847.0</ele><time>2026-04-03T12:24:48.967Z</time></trkpt><trkpt lat="44.502260107788864" lon="9.986515611182908"><ele>848.5</ele><time>2026-04-03T12:24:49.967Z</time></trkpt><trkpt lat="44.50223668989821" lon="9.986681392745727"><ele>850.0</ele><time>2026-04-03T12:24:50.967Z</time></trkpt><trkpt lat="44.502176738123644" lon="9.986839646984038"><ele>851.5</ele><time>2026-04-03T12:24:51.967Z</time></trkpt><trkpt lat="44.50210505872124" lon="9.986998106480815"><ele>853.0</ele><time>2026-04-03T12:24:52.967Z</time></trkpt><trkpt lat="44.50205812152207" lon="9.987162011500622"><ele>853.0</ele><time>2026-04-03T12:24:53.967Z</time></trkpt><trkpt lat="44.50205711968352" lon="9.987314414690292"><ele>853.0</ele><time>2026-04-03T12:24:54.967Z</time></trkpt><trkpt lat="44.50210591633807" lon="9.987457379148813"><ele>853.0</ele><time>2026-04-03T12:24:55.967Z</time></trkpt><trkpt lat="44.50218566344377" lon="9.9875670070586"><ele>853.0</ele><time>2026-04-03T12:24:56.967Z</time></trkpt><trkpt lat="44.5022927128428" lon="9.98763189965538"><ele>853.0</ele><time>2026-04-03T12:24:57.967Z</time></trkpt><trkpt lat="44.502427326222154" lon="9.987614646331316"><ele>853.0</ele><time>2026-04-03T12:24:58.967Z</time></trkpt><trkpt lat="44.502579073521005" lon="9.98756703421957"><ele>853.0</ele><time>2026-04-03T12:24:59.967Z</time></trkpt><trkpt lat="44.5027272323457" lon="9.987515383006167"><ele>853.0</ele><time>2026-04-03T12:25:00.967Z</time></trkpt><trkpt lat="44.502863768599696" lon="9.987478925214198"><ele>853.2</ele><time>2026-04-03T12:25:01.967Z</time></trkpt><trkpt lat="44.50298334576899" lon="9.98746904420371"><ele>853.4</ele><time>2026-04-03T12:25:02.967Z</time></trkpt><trkpt lat="44.50308478848317" lon="9.987506040301021"><ele>853.6000000000001</ele><time>2026-04-03T12:25:03.967Z</time></trkpt><trkpt lat="44.503163753754315" lon="9.987603038177308"><ele>853.8000000000001</ele><time>2026-04-03T12:25:04.967Z</time></trkpt><trkpt lat="44.50322302862366" lon="9.987747021676313"><ele>854.0</ele><time>2026-04-03T12:25:05.967Z</time></trkpt><trkpt lat="44.50328213309446" lon="9.987913688111268"><ele>854.0</ele><time>2026-04-03T12:25:06.967Z</time></trkpt><trkpt lat="44.50335923867822" lon="9.988074427538784"><ele>854.0</ele><time>2026-04-03T12:25:07.967Z</time></trkpt><trkpt lat="44.50344252822144" lon="9.988231835422138"><ele>854.0</ele><time>2026-04-03T12:25:08.967Z</time></trkpt><trkpt lat="44.50352166649339" lon="9.988373741236726"><ele>854.0</ele><time>2026-04-03T12:25:09.967Z</time></trkpt><trkpt lat="44.503609863763295" lon="9.988509737855354"><ele>853.75</ele><time>2026-04-03T12:25:10.967Z</time></trkpt><trkpt lat="44.503718409774564" lon="9.988619397128376"><ele>853.5</ele><time>2026-04-03T12:25:11.967Z</time></trkpt><trkpt lat="44.503830835066786" lon="9.98871696911944"><ele>853.25</ele><time>2026-04-03T12:25:12.967Z</time></trkpt><trkpt lat="44.50394501243286" lon="9.98881050175775"><ele>853.0</ele><time>2026-04-03T12:25:13.967Z</time></trkpt><trkpt lat="44.504055676613675" lon="9.988887170790179"><ele>853.0</ele><time>2026-04-03T12:25:14.967Z</time></trkpt><trkpt lat="44.50416564154604" lon="9.9889586268549"><ele>853.0</ele><time>2026-04-03T12:25:15.967Z</time></trkpt><trkpt lat="44.50428063883656" lon="9.989002957757522"><ele>853.0</ele><time>2026-04-03T12:25:16.967Z</time></trkpt><trkpt lat="44.50440326069848" lon="9.989017558542525"><ele>853.0</ele><time>2026-04-03T12:25:17.967Z</time></trkpt><trkpt lat="44.504523008508826" lon="9.98901516850682"><ele>852.0</ele><time>2026-04-03T12:25:18.967Z</time></trkpt><trkpt lat="44.50464634693286" lon="9.989018441044832"><ele>851.0</ele><time>2026-04-03T12:25:19.967Z</time></trkpt><trkpt lat="44.50476686302669" lon="9.98901733633008"><ele>850.0</ele><time>2026-04-03T12:25:20.967Z</time></trkpt><trkpt lat="44.50488693076559" lon="9.989022920818309"><ele>849.0</ele><time>2026-04-03T12:25:21.967Z</time></trkpt><trkpt lat="44.50500852991811" lon="9.989041225549792"><ele>849.0</ele><time>2026-04-03T12:25:22.967Z</time></trkpt><trkpt lat="44.50512455937361" lon="9.989073583441478"><ele>849.0</ele><time>2026-04-03T12:25:23.967Z</time></trkpt><trkpt lat="44.50524561646241" lon="9.989144756745553"><ele>849.0</ele><time>2026-04-03T12:25:24.967Z</time></trkpt><trkpt lat="44.50534643534112" lon="9.989251061776534"><ele>849.0</ele><time>2026-04-03T12:25:25.967Z</time></trkpt><trkpt lat="44.50544200000593" lon="9.989362928736073"><ele>848.25</ele><time>2026-04-03T12:25:26.967Z</time></trkpt><trkpt lat="44.50554060101501" lon="9.989477951264274"><ele>847.5</ele><time>2026-04-03T12:25:27.967Z</time></trkpt><trkpt lat="44.505641848867256" lon="9.98958455201146"><ele>846.75</ele><time>2026-04-03T12:25:28.967Z</time></trkpt><trkpt lat="44.50575233695385" lon="9.989686783628514"><ele>846.0</ele><time>2026-04-03T12:25:29.967Z</time></trkpt><trkpt lat="44.50585099840276" lon="9.989794468182337"><ele>846.0</ele><time>2026-04-03T12:25:30.968Z</time></trkpt><trkpt lat="44.50594919165657" lon="9.989896730556058"><ele>846.0</ele><time>2026-04-03T12:25:31.966Z</time></trkpt><trkpt lat="44.50603801596823" lon="9.99001055911276"><ele>846.0</ele><time>2026-04-03T12:25:32.966Z</time></trkpt><trkpt lat="44.506129776994634" lon="9.99011710928885"><ele>846.0</ele><time>2026-04-03T12:25:33.966Z</time></trkpt><trkpt lat="44.50620514001583" lon="9.990245227652805"><ele>844.75</ele><time>2026-04-03T12:25:34.967Z</time></trkpt><trkpt lat="44.50625923619009" lon="9.99038352462245"><ele>843.5</ele><time>2026-04-03T12:25:35.966Z</time></trkpt><trkpt lat="44.506307598293745" lon="9.990522407338714"><ele>842.25</ele><time>2026-04-03T12:25:36.966Z</time></trkpt><trkpt lat="44.50637135546607" lon="9.990664959313461"><ele>841.0</ele><time>2026-04-03T12:25:37.966Z</time></trkpt><trkpt lat="44.50642530077046" lon="9.990807298862206"><ele>841.5</ele><time>2026-04-03T12:25:38.966Z</time></trkpt><trkpt lat="44.50649467509383" lon="9.990936387310898"><ele>842.0</ele><time>2026-04-03T12:25:39.966Z</time></trkpt><trkpt lat="44.50658071079558" lon="9.991058678406931"><ele>842.5</ele><time>2026-04-03T12:25:40.967Z</time></trkpt><trkpt lat="44.50666758243292" lon="9.991172605777411"><ele>843.0</ele><time>2026-04-03T12:25:41.966Z</time></trkpt><trkpt lat="44.50675556912917" lon="9.991277533459666"><ele>843.0</ele><time>2026-04-03T12:25:42.966Z</time></trkpt><trkpt lat="44.50684082557624" lon="9.991383861828817"><ele>843.0</ele><time>2026-04-03T12:25:43.966Z</time></trkpt><trkpt lat="44.50692220014787" lon="9.991486243033739"><ele>843.0</ele><time>2026-04-03T12:25:44.966Z</time></trkpt><trkpt lat="44.50699501485438" lon="9.9915769532283"><ele>843.0</ele><time>2026-04-03T12:25:45.966Z</time></trkpt><trkpt lat="44.50705897230303" lon="9.991650145887348"><ele>843.0</ele><time>2026-04-03T12:25:46.966Z</time></trkpt><trkpt lat="44.50713652544252" lon="9.991697727478961"><ele>843.0</ele><time>2026-04-03T12:25:47.966Z</time></trkpt><trkpt lat="44.50722662874038" lon="9.991737555635275"><ele>843.0</ele><time>2026-04-03T12:25:48.966Z</time></trkpt><trkpt lat="44.50732662297222" lon="9.991789726866946"><ele>843.0</ele><time>2026-04-03T12:25:49.966Z</time></trkpt><trkpt lat="44.507441736956125" lon="9.991858544072763"><ele>843.0</ele><time>2026-04-03T12:25:50.966Z</time></trkpt><trkpt lat="44.50754833500947" lon="9.991932982823467"><ele>843.0</ele><time>2026-04-03T12:25:51.966Z</time></trkpt><trkpt lat="44.507653089627716" lon="9.992004546128298"><ele>843.0</ele><time>2026-04-03T12:25:52.966Z</time></trkpt><trkpt lat="44.50776522684323" lon="9.992064056644132"><ele>843.0</ele><time>2026-04-03T12:25:53.966Z</time></trkpt><trkpt lat="44.50789236405905" lon="9.992109015861782"><ele>843.0</ele><time>2026-04-03T12:25:54.966Z</time></trkpt><trkpt lat="44.50801122258318" lon="9.992148760695406"><ele>843.0</ele><time>2026-04-03T12:25:55.966Z</time></trkpt><trkpt lat="44.50815079125597" lon="9.99214916269661"><ele>842.25</ele><time>2026-04-03T12:25:56.966Z</time></trkpt><trkpt lat="44.50828640939919" lon="9.992138230026034"><ele>841.5</ele><time>2026-04-03T12:25:57.967Z</time></trkpt><trkpt lat="44.50841773582081" lon="9.992131943849767"><ele>840.75</ele><time>2026-04-03T12:25:58.967Z</time></trkpt><trkpt lat="44.508538400676414" lon="9.992124088035222"><ele>840.0</ele><time>2026-04-03T12:25:59.967Z</time></trkpt><trkpt lat="44.50866069681477" lon="9.99210737857464"><ele>839.2</ele><time>2026-04-03T12:26:00.967Z</time></trkpt><trkpt lat="44.508777591436704" lon="9.99209177450677"><ele>838.4</ele><time>2026-04-03T12:26:01.967Z</time></trkpt><trkpt lat="44.50888720064384" lon="9.992078720124521"><ele>837.5999999999999</ele><time>2026-04-03T12:26:02.967Z</time></trkpt><trkpt lat="44.5089917171648" lon="9.992073985904057"><ele>836.8</ele><time>2026-04-03T12:26:03.967Z</time></trkpt><trkpt lat="44.509090939259565" lon="9.99207441222962"><ele>836.0</ele><time>2026-04-03T12:26:04.967Z</time></trkpt><trkpt lat="44.509184379713055" lon="9.99211188683508"><ele>836.0</ele><time>2026-04-03T12:26:05.967Z</time></trkpt><trkpt lat="44.50926455615527" lon="9.992198653820362"><ele>836.0</ele><time>2026-04-03T12:26:06.967Z</time></trkpt><trkpt lat="44.50933617463291" lon="9.992310436378155"><ele>836.0</ele><time>2026-04-03T12:26:07.967Z</time></trkpt><trkpt lat="44.509406142694665" lon="9.992420136501345"><ele>836.0</ele><time>2026-04-03T12:26:08.967Z</time></trkpt><trkpt lat="44.50948307628427" lon="9.992511951257383"><ele>836.0</ele><time>2026-04-03T12:26:09.967Z</time></trkpt><trkpt lat="44.509565086498554" lon="9.992577013481696"><ele>836.4</ele><time>2026-04-03T12:26:10.967Z</time></trkpt><trkpt lat="44.50966034811897" lon="9.992612605634353"><ele>836.8</ele><time>2026-04-03T12:26:11.967Z</time></trkpt><trkpt lat="44.50977297228724" lon="9.992613792347903"><ele>837.1999999999999</ele><time>2026-04-03T12:26:12.967Z</time></trkpt><trkpt lat="44.50989527196897" lon="9.992604898636683"><ele>837.5999999999999</ele><time>2026-04-03T12:26:13.967Z</time></trkpt><trkpt lat="44.50999902242994" lon="9.992589957820535"><ele>838.0</ele><time>2026-04-03T12:26:14.967Z</time></trkpt><trkpt lat="44.51007960718724" lon="9.99257417175026"><ele>837.9999999999999</ele><time>2026-04-03T12:26:15.967Z</time></trkpt><trkpt lat="44.5101449156574" lon="9.992554571137436"><ele>838.0</ele><time>2026-04-03T12:26:16.967Z</time></trkpt><trkpt lat="44.51021127940499" lon="9.992531451372543"><ele>838.0</ele><time>2026-04-03T12:26:17.967Z</time></trkpt><trkpt lat="44.5102926219872" lon="9.992512764898445"><ele>838.0</ele><time>2026-04-03T12:26:18.967Z</time></trkpt><trkpt lat="44.51038673582237" lon="9.992499182118847"><ele>837.9999999999999</ele><time>2026-04-03T12:26:19.967Z</time></trkpt><trkpt lat="44.51048543200553" lon="9.992482597462935"><ele>838.0</ele><time>2026-04-03T12:26:20.967Z</time></trkpt><trkpt lat="44.51057395625099" lon="9.992439933581771"><ele>835.9999999999999</ele><time>2026-04-03T12:26:21.967Z</time></trkpt><trkpt lat="44.51065431902404" lon="9.99239922521582"><ele>834.0</ele><time>2026-04-03T12:26:22.967Z</time></trkpt><trkpt lat="44.51071766058768" lon="9.992309868377365"><ele>832.0</ele><time>2026-04-03T12:26:23.967Z</time></trkpt><trkpt lat="44.51075409448402" lon="9.992206653652827"><ele>830.0</ele><time>2026-04-03T12:26:24.967Z</time></trkpt><trkpt lat="44.51077118818018" lon="9.992113392139917"><ele>827.9999999999999</ele><time>2026-04-03T12:26:25.967Z</time></trkpt><trkpt lat="44.51076940170121" lon="9.991987573774065"><ele>826.0</ele><time>2026-04-03T12:26:26.967Z</time></trkpt><trkpt lat="44.51074115471977" lon="9.991864665589851"><ele>826.0</ele><time>2026-04-03T12:26:27.967Z</time></trkpt><trkpt lat="44.51071932983611" lon="9.991753968896317"><ele>826.0</ele><time>2026-04-03T12:26:28.967Z</time></trkpt><trkpt lat="44.51070156919401" lon="9.991657868722546"><ele>826.0</ele><time>2026-04-03T12:26:29.967Z</time></trkpt><trkpt lat="44.51067969263069" lon="9.991518562848636"><ele>826.0</ele><time>2026-04-03T12:26:31.967Z</time></trkpt><trkpt lat="44.51064302757343" lon="9.99136077605708"><ele>826.0</ele><time>2026-04-03T12:26:33.967Z</time></trkpt><trkpt lat="44.510614481673194" lon="9.991215249156069"><ele>823.9999999999999</ele><time>2026-04-03T12:26:35.967Z</time></trkpt><trkpt lat="44.51063053803719" lon="9.991105041185932"><ele>822.0</ele><time>2026-04-03T12:26:37.967Z</time></trkpt><trkpt lat="44.510637056393925" lon="9.990984274884049"><ele>820.0</ele><time>2026-04-03T12:26:39.967Z</time></trkpt><trkpt lat="44.51063892885416" lon="9.990886147749638"><ele>818.0</ele><time>2026-04-03T12:26:41.967Z</time></trkpt><trkpt lat="44.510621020205605" lon="9.990780676972442"><ele>815.9999999999999</ele><time>2026-04-03T12:26:44.967Z</time></trkpt><trkpt lat="44.51055232458482" lon="9.990784142367776"><ele>814.0</ele><time>2026-04-03T12:26:46.967Z</time></trkpt><trkpt lat="44.510437315265186" lon="9.990783568209144"><ele>812.4999999999999</ele><time>2026-04-03T12:26:48.967Z</time></trkpt><trkpt lat="44.51032838376702" lon="9.990764772380787"><ele>811.0</ele><time>2026-04-03T12:26:50.967Z</time></trkpt><trkpt lat="44.510219787505044" lon="9.990673131883264"><ele>809.5</ele><time>2026-04-03T12:26:52.967Z</time></trkpt><trkpt lat="44.5101609177431" lon="9.990619291826043"><ele>808.0</ele><time>2026-04-03T12:26:53.967Z</time></trkpt><trkpt lat="44.51010523447578" lon="9.9905635880143"><ele>806.4999999999999</ele><time>2026-04-03T12:26:54.967Z</time></trkpt><trkpt lat="44.510048978188514" lon="9.990502709648002"><ele>805.0</ele><time>2026-04-03T12:26:55.967Z</time></trkpt><trkpt lat="44.5100014956384" lon="9.99043120599295"><ele>804.9999999999999</ele><time>2026-04-03T12:26:56.967Z</time></trkpt><trkpt lat="44.50995135486505" lon="9.99036361463997"><ele>805.0</ele><time>2026-04-03T12:26:57.967Z</time></trkpt><trkpt lat="44.50990401947694" lon="9.990296152421427"><ele>805.0</ele><time>2026-04-03T12:26:58.967Z</time></trkpt><trkpt lat="44.50986322831009" lon="9.990228844672613"><ele>805.0</ele><time>2026-04-03T12:26:59.967Z</time></trkpt><trkpt lat="44.509791260729735" lon="9.990119433467346"><ele>804.9999999999999</ele><time>2026-04-03T12:27:01.967Z</time></trkpt><trkpt lat="44.50973682023841" lon="9.990059313323096"><ele>805.0</ele><time>2026-04-03T12:27:03.967Z</time></trkpt><trkpt lat="44.50968588048446" lon="9.989963258602717"><ele>805.1666666666666</ele><time>2026-04-03T12:27:05.967Z</time></trkpt><trkpt lat="44.509633690989325" lon="9.989902341631256"><ele>805.3333333333333</ele><time>2026-04-03T12:27:06.967Z</time></trkpt><trkpt lat="44.50957761632104" lon="9.9898316291382"><ele>805.5</ele><time>2026-04-03T12:27:07.967Z</time></trkpt><trkpt lat="44.50952415494523" lon="9.989750402531447"><ele>805.6666666666667</ele><time>2026-04-03T12:27:08.967Z</time></trkpt><trkpt lat="44.50947171904519" lon="9.989667362916704"><ele>805.8333333333334</ele><time>2026-04-03T12:27:09.967Z</time></trkpt><trkpt lat="44.509405903223666" lon="9.9896043173643"><ele>806.0</ele><time>2026-04-03T12:27:10.967Z</time></trkpt><trkpt lat="44.50934894629442" lon="9.989528832145023"><ele>806.0</ele><time>2026-04-03T12:27:11.967Z</time></trkpt><trkpt lat="44.509300519660194" lon="9.989446076492754"><ele>806.0</ele><time>2026-04-03T12:27:12.967Z</time></trkpt><trkpt lat="44.50926054521887" lon="9.989372466968568"><ele>806.0</ele><time>2026-04-03T12:27:13.967Z</time></trkpt><trkpt lat="44.50917708714312" lon="9.989251704056585"><ele>806.0</ele><time>2026-04-03T12:27:15.967Z</time></trkpt><trkpt lat="44.509096424160695" lon="9.989114240761385"><ele>806.0</ele><time>2026-04-03T12:27:17.967Z</time></trkpt><trkpt lat="44.509079468361755" lon="9.988969554839258"><ele>806.1999999999999</ele><time>2026-04-03T12:27:19.967Z</time></trkpt><trkpt lat="44.50916701126556" lon="9.988857049381583"><ele>806.4</ele><time>2026-04-03T12:27:21.967Z</time></trkpt><trkpt lat="44.50921383980238" lon="9.98879428862034"><ele>806.6</ele><time>2026-04-03T12:27:22.967Z</time></trkpt><trkpt lat="44.50930701584308" lon="9.988691291246345"><ele>806.8</ele><time>2026-04-03T12:27:24.967Z</time></trkpt><trkpt lat="44.50935635299118" lon="9.988633224487682"><ele>807.0</ele><time>2026-04-03T12:27:25.967Z</time></trkpt><trkpt lat="44.509432232692845" lon="9.988504780134939"><ele>807.0</ele><time>2026-04-03T12:27:27.967Z</time></trkpt><trkpt lat="44.50949436228484" lon="9.98842468012857"><ele>807.0</ele><time>2026-04-03T12:27:29.967Z</time></trkpt><trkpt lat="44.50951927839425" lon="9.988341849708284"><ele>807.0</ele><time>2026-04-03T12:27:39.965Z</time></trkpt><trkpt lat="44.50959621502307" lon="9.988287518720414"><ele>807.0</ele><time>2026-04-03T12:27:42.965Z</time></trkpt><trkpt lat="44.5096493698174" lon="9.988204166512341"><ele>807.0</ele><time>2026-04-03T12:27:46.965Z</time></trkpt><trkpt lat="44.50971256321098" lon="9.988135539996016"><ele>807.0</ele><time>2026-04-03T12:27:50.965Z</time></trkpt><trkpt lat="44.50975568595496" lon="9.988067970372404"><ele>806.6666666666666</ele><time>2026-04-03T12:27:52.965Z</time></trkpt><trkpt lat="44.5098127303985" lon="9.987963466187963"><ele>806.3333333333333</ele><time>2026-04-03T12:27:55.965Z</time></trkpt><trkpt lat="44.50985804614049" lon="9.987851033987276"><ele>806.0</ele><time>2026-04-03T12:27:57.965Z</time></trkpt><trkpt lat="44.50992129650462" lon="9.987768292474716"><ele>805.6666666666666</ele><time>2026-04-03T12:27:59.965Z</time></trkpt><trkpt lat="44.509981673138505" lon="9.987740676976465"><ele>805.3333333333333</ele><time>2026-04-03T12:28:01.965Z</time></trkpt><trkpt lat="44.51003055971047" lon="9.987681956589865"><ele>805.0</ele><time>2026-04-03T12:28:04.965Z</time></trkpt><trkpt lat="44.51009100119591" lon="9.98773988240925"><ele>805.0</ele><time>2026-04-03T12:28:06.965Z</time></trkpt><trkpt lat="44.51015895561906" lon="9.987871569461808"><ele>805.0</ele><time>2026-04-03T12:28:08.965Z</time></trkpt><trkpt lat="44.51023309638527" lon="9.98795709726889"><ele>805.0</ele><time>2026-04-03T12:28:10.965Z</time></trkpt><trkpt lat="44.51032173085178" lon="9.988023923543343"><ele>805.0</ele><time>2026-04-03T12:28:12.965Z</time></trkpt><trkpt lat="44.51039274292242" lon="9.988072467388063"><ele>805.0</ele><time>2026-04-03T12:28:14.965Z</time></trkpt><trkpt lat="44.51047822994846" lon="9.988126337981182"><ele>805.3333333333333</ele><time>2026-04-03T12:28:16.965Z</time></trkpt><trkpt lat="44.51056851536257" lon="9.988202529327795"><ele>805.6666666666666</ele><time>2026-04-03T12:28:18.965Z</time></trkpt><trkpt lat="44.51065614042434" lon="9.988274887543692"><ele>806.0</ele><time>2026-04-03T12:28:20.965Z</time></trkpt><trkpt lat="44.51071944247316" lon="9.988320237784647"><ele>806.3333333333333</ele><time>2026-04-03T12:28:22.965Z</time></trkpt><trkpt lat="44.51078174525252" lon="9.988390308308805"><ele>806.6666666666666</ele><time>2026-04-03T12:28:24.965Z</time></trkpt><trkpt lat="44.51078510338927" lon="9.988483899025303"><ele>807.0</ele><time>2026-04-03T12:28:27.965Z</time></trkpt><trkpt lat="44.51081374333423" lon="9.988563873482025"><ele>807.0</ele><time>2026-04-03T12:28:29.965Z</time></trkpt><trkpt lat="44.51090724496783" lon="9.988613683202678"><ele>807.0</ele><time>2026-04-03T12:28:31.965Z</time></trkpt><trkpt lat="44.5110278458586" lon="9.988700472225531"><ele>807.0</ele><time>2026-04-03T12:28:33.965Z</time></trkpt><trkpt lat="44.51109889886401" lon="9.988744514422676"><ele>807.0</ele><time>2026-04-03T12:28:34.965Z</time></trkpt><trkpt lat="44.51117070808428" lon="9.988793226147104"><ele>807.0</ele><time>2026-04-03T12:28:35.965Z</time></trkpt><trkpt lat="44.51124347533645" lon="9.988843288839949"><ele>806.4000000000001</ele><time>2026-04-03T12:28:36.965Z</time></trkpt><trkpt lat="44.51131914404248" lon="9.988903816367937"><ele>805.8000000000001</ele><time>2026-04-03T12:28:37.965Z</time></trkpt><trkpt lat="44.51140893477135" lon="9.988955183786002"><ele>805.2</ele><time>2026-04-03T12:28:38.965Z</time></trkpt><trkpt lat="44.51151443176885" lon="9.988991278287017"><ele>804.6</ele><time>2026-04-03T12:28:39.965Z</time></trkpt><trkpt lat="44.511619732437495" lon="9.989001275597067"><ele>804.0</ele><time>2026-04-03T12:28:40.965Z</time></trkpt><trkpt lat="44.51172661431321" lon="9.988978333558205"><ele>804.0</ele><time>2026-04-03T12:28:41.965Z</time></trkpt><trkpt lat="44.51182685940019" lon="9.988933794018314"><ele>804.0</ele><time>2026-04-03T12:28:42.965Z</time></trkpt><trkpt lat="44.511929890102756" lon="9.988888080594302"><ele>804.0</ele><time>2026-04-03T12:28:43.965Z</time></trkpt><trkpt lat="44.51203526676184" lon="9.988846818949725"><ele>804.0</ele><time>2026-04-03T12:28:44.965Z</time></trkpt><trkpt lat="44.5121423139782" lon="9.988818086046932"><ele>804.0</ele><time>2026-04-03T12:28:45.965Z</time></trkpt><trkpt lat="44.512246732725636" lon="9.988777455110725"><ele>804.0</ele><time>2026-04-03T12:28:46.965Z</time></trkpt><trkpt lat="44.5123491606661" lon="9.988741074467196"><ele>804.0</ele><time>2026-04-03T12:28:47.965Z</time></trkpt><trkpt lat="44.51245302412239" lon="9.988737939273179"><ele>804.0</ele><time>2026-04-03T12:28:48.965Z</time></trkpt><trkpt lat="44.51255430193809" lon="9.98873999179363"><ele>804.0</ele><time>2026-04-03T12:28:49.965Z</time></trkpt><trkpt lat="44.51265615488682" lon="9.988742459681063"><ele>804.0</ele><time>2026-04-03T12:28:50.965Z</time></trkpt><trkpt lat="44.51275395045976" lon="9.98876681091833"><ele>804.0</ele><time>2026-04-03T12:28:51.965Z</time></trkpt><trkpt lat="44.512855577302105" lon="9.988810280128343"><ele>804.0</ele><time>2026-04-03T12:28:52.965Z</time></trkpt><trkpt lat="44.512967156709074" lon="9.988863401312132"><ele>804.0</ele><time>2026-04-03T12:28:53.965Z</time></trkpt><trkpt lat="44.51307208895007" lon="9.988925402229878"><ele>804.0</ele><time>2026-04-03T12:28:54.965Z</time></trkpt><trkpt lat="44.51316348249331" lon="9.988991842993249"><ele>804.0</ele><time>2026-04-03T12:28:55.965Z</time></trkpt><trkpt lat="44.51324407369971" lon="9.989055191244152"><ele>802.8333333333334</ele><time>2026-04-03T12:28:56.965Z</time></trkpt><trkpt lat="44.513317983052076" lon="9.989118028898993"><ele>801.6666666666667</ele><time>2026-04-03T12:28:57.965Z</time></trkpt><trkpt lat="44.513386889732324" lon="9.989172070834915"><ele>800.5</ele><time>2026-04-03T12:28:58.965Z</time></trkpt><trkpt lat="44.51345858918791" lon="9.989230336008655"><ele>799.3333333333334</ele><time>2026-04-03T12:28:59.965Z</time></trkpt><trkpt lat="44.51353847114774" lon="9.989290764647865"><ele>798.1666666666667</ele><time>2026-04-03T12:29:00.965Z</time></trkpt><trkpt lat="44.5136220997982" lon="9.989350895794415"><ele>797.0</ele><time>2026-04-03T12:29:01.965Z</time></trkpt><trkpt lat="44.513706262230336" lon="9.989421774318341"><ele>797.6</ele><time>2026-04-03T12:29:02.965Z</time></trkpt><trkpt lat="44.5137895552472" lon="9.989494358945018"><ele>798.2</ele><time>2026-04-03T12:29:03.965Z</time></trkpt><trkpt lat="44.513873660371054" lon="9.98957064817405"><ele>798.8</ele><time>2026-04-03T12:29:04.965Z</time></trkpt><trkpt lat="44.51395753633982" lon="9.98965412851525"><ele>799.4</ele><time>2026-04-03T12:29:05.965Z</time></trkpt><trkpt lat="44.514039210909196" lon="9.989736774484095"><ele>800.0</ele><time>2026-04-03T12:29:06.965Z</time></trkpt><trkpt lat="44.51410969974706" lon="9.989822012691153"><ele>800.0000000000001</ele><time>2026-04-03T12:29:07.965Z</time></trkpt><trkpt lat="44.514173593628655" lon="9.989900778352885"><ele>800.0</ele><time>2026-04-03T12:29:08.965Z</time></trkpt><trkpt lat="44.51423191122797" lon="9.98998118343914"><ele>800.0</ele><time>2026-04-03T12:29:09.965Z</time></trkpt><trkpt lat="44.5142950306538" lon="9.990058952567919"><ele>800.0</ele><time>2026-04-03T12:29:10.965Z</time></trkpt><trkpt lat="44.514364591313225" lon="9.990136764635473"><ele>800.0000000000001</ele><time>2026-04-03T12:29:11.965Z</time></trkpt><trkpt lat="44.514435545102764" lon="9.990214872820538"><ele>800.0</ele><time>2026-04-03T12:29:12.965Z</time></trkpt><trkpt lat="44.51450812484134" lon="9.990292737969797"><ele>800.4</ele><time>2026-04-03T12:29:13.965Z</time></trkpt><trkpt lat="44.51458837986286" lon="9.990358758035415"><ele>800.8</ele><time>2026-04-03T12:29:14.965Z</time></trkpt><trkpt lat="44.514673637923856" lon="9.990399657680209"><ele>801.2</ele><time>2026-04-03T12:29:15.965Z</time></trkpt><trkpt lat="44.51476441073321" lon="9.990410232119068"><ele>801.6</ele><time>2026-04-03T12:29:16.965Z</time></trkpt><trkpt lat="44.51486494622257" lon="9.990399165929668"><ele>802.0</ele><time>2026-04-03T12:29:17.965Z</time></trkpt><trkpt lat="44.51496612565554" lon="9.990353241153938"><ele>802.0</ele><time>2026-04-03T12:29:18.965Z</time></trkpt><trkpt lat="44.515070455866386" lon="9.990298797230821"><ele>802.0</ele><time>2026-04-03T12:29:19.966Z</time></trkpt><trkpt lat="44.515176029509114" lon="9.990241058766308"><ele>802.0</ele><time>2026-04-03T12:29:20.966Z</time></trkpt><trkpt lat="44.51528622828338" lon="9.990185754709263"><ele>802.0</ele><time>2026-04-03T12:29:21.966Z</time></trkpt><trkpt lat="44.51539704182076" lon="9.990132014061064"><ele>802.5</ele><time>2026-04-03T12:29:22.966Z</time></trkpt><trkpt lat="44.5155125672571" lon="9.990080528864272"><ele>803.0</ele><time>2026-04-03T12:29:23.966Z</time></trkpt><trkpt lat="44.51562637616248" lon="9.990030136257264"><ele>803.5</ele><time>2026-04-03T12:29:24.966Z</time></trkpt><trkpt lat="44.51573711678325" lon="9.989977344507913"><ele>804.0</ele><time>2026-04-03T12:29:25.966Z</time></trkpt><trkpt lat="44.51584284789235" lon="9.989926870468578"><ele>800.4000000000001</ele><time>2026-04-03T12:29:26.966Z</time></trkpt><trkpt lat="44.51593906853981" lon="9.989874833343556"><ele>796.8</ele><time>2026-04-03T12:29:27.966Z</time></trkpt><trkpt lat="44.51602160004576" lon="9.989812408736816"><ele>793.2</ele><time>2026-04-03T12:29:28.966Z</time></trkpt><trkpt lat="44.516078635353345" lon="9.989718482856981"><ele>789.5999999999999</ele><time>2026-04-03T12:29:29.966Z</time></trkpt><trkpt lat="44.51611041052338" lon="9.989609394059425"><ele>786.0</ele><time>2026-04-03T12:29:30.966Z</time></trkpt><trkpt lat="44.516109515319684" lon="9.989490517875664"><ele>786.0</ele><time>2026-04-03T12:29:31.966Z</time></trkpt><trkpt lat="44.51608055632365" lon="9.989370623952293"><ele>786.0</ele><time>2026-04-03T12:29:32.966Z</time></trkpt><trkpt lat="44.51602591185995" lon="9.989250367654744"><ele>786.0</ele><time>2026-04-03T12:29:33.966Z</time></trkpt><trkpt lat="44.515966708620546" lon="9.989124145722299"><ele>786.0</ele><time>2026-04-03T12:29:34.966Z</time></trkpt><trkpt lat="44.51590586256227" lon="9.98899035178501"><ele>786.0</ele><time>2026-04-03T12:29:35.966Z</time></trkpt><trkpt lat="44.51584009203459" lon="9.988859078418823"><ele>785.1999999999999</ele><time>2026-04-03T12:29:36.966Z</time></trkpt><trkpt lat="44.51577776657581" lon="9.988729311711884"><ele>784.4</ele><time>2026-04-03T12:29:37.966Z</time></trkpt><trkpt lat="44.51572236681408" lon="9.988601418543121"><ele>783.6</ele><time>2026-04-03T12:29:38.966Z</time></trkpt><trkpt lat="44.51567463144202" lon="9.988474620285372"><ele>782.8</ele><time>2026-04-03T12:29:39.966Z</time></trkpt><trkpt lat="44.515639347663786" lon="9.988342659845268"><ele>782.0</ele><time>2026-04-03T12:29:40.966Z</time></trkpt><trkpt lat="44.51562342246105" lon="9.9882031694368"><ele>782.0</ele><time>2026-04-03T12:29:41.966Z</time></trkpt><trkpt lat="44.515631270492115" lon="9.988049383209061"><ele>782.0</ele><time>2026-04-03T12:29:42.966Z</time></trkpt><trkpt lat="44.51566040065417" lon="9.987897634038115"><ele>782.0</ele><time>2026-04-03T12:29:43.963Z</time></trkpt><trkpt lat="44.515698980282174" lon="9.987738044812914"><ele>782.0</ele><time>2026-04-03T12:29:44.963Z</time></trkpt><trkpt lat="44.5157412905344" lon="9.987573978950703"><ele>780.25</ele><time>2026-04-03T12:29:45.963Z</time></trkpt><trkpt lat="44.51577903255164" lon="9.987408409000126"><ele>778.5</ele><time>2026-04-03T12:29:46.963Z</time></trkpt><trkpt lat="44.51581408463576" lon="9.987249360751742"><ele>776.75</ele><time>2026-04-03T12:29:47.962Z</time></trkpt><trkpt lat="44.51584933049699" lon="9.98710010813022"><ele>775.0</ele><time>2026-04-03T12:29:48.962Z</time></trkpt><trkpt lat="44.51588343096072" lon="9.9869579339886"><ele>775.0</ele><time>2026-04-03T12:29:49.963Z</time></trkpt><trkpt lat="44.51591730459897" lon="9.986822285076235"><ele>775.0</ele><time>2026-04-03T12:29:50.963Z</time></trkpt><trkpt lat="44.515952310454566" lon="9.986685656963008"><ele>775.0</ele><time>2026-04-03T12:29:51.963Z</time></trkpt><trkpt lat="44.515994646482525" lon="9.986547469849203"><ele>775.0</ele><time>2026-04-03T12:29:52.963Z</time></trkpt><trkpt lat="44.51605485490175" lon="9.9864099053586"><ele>775.0</ele><time>2026-04-03T12:29:53.963Z</time></trkpt><trkpt lat="44.51612350927249" lon="9.986271801328028"><ele>775.5</ele><time>2026-04-03T12:29:54.963Z</time></trkpt><trkpt lat="44.5162064963471" lon="9.986142437378978"><ele>776.0</ele><time>2026-04-03T12:29:55.963Z</time></trkpt><trkpt lat="44.516297015757075" lon="9.986018152873887"><ele>776.5</ele><time>2026-04-03T12:29:56.963Z</time></trkpt><trkpt lat="44.51639173869154" lon="9.9858972528008"><ele>777.0</ele><time>2026-04-03T12:29:57.963Z</time></trkpt><trkpt lat="44.51648158492976" lon="9.985785394658404"><ele>775.0</ele><time>2026-04-03T12:29:58.963Z</time></trkpt><trkpt lat="44.516564588272686" lon="9.985689813971344"><ele>773.0</ele><time>2026-04-03T12:29:59.963Z</time></trkpt><trkpt lat="44.51665403904187" lon="9.985628752518737"><ele>771.0</ele><time>2026-04-03T12:30:00.963Z</time></trkpt><trkpt lat="44.51674918814873" lon="9.985615757796818"><ele>769.0</ele><time>2026-04-03T12:30:01.963Z</time></trkpt><trkpt lat="44.516848012252446" lon="9.985661392824209"><ele>767.0</ele><time>2026-04-03T12:30:02.963Z</time></trkpt><trkpt lat="44.516952882413584" lon="9.985749164469041"><ele>767.25</ele><time>2026-04-03T12:30:03.963Z</time></trkpt><trkpt lat="44.51706537961729" lon="9.985846165468686"><ele>767.5</ele><time>2026-04-03T12:30:04.963Z</time></trkpt><trkpt lat="44.51719286923944" lon="9.985938066997834"><ele>767.75</ele><time>2026-04-03T12:30:05.963Z</time></trkpt><trkpt lat="44.51733257741646" lon="9.986041813788985"><ele>768.0</ele><time>2026-04-03T12:30:06.963Z</time></trkpt><trkpt lat="44.51747362288795" lon="9.986155643650157"><ele>768.0</ele><time>2026-04-03T12:30:07.963Z</time></trkpt><trkpt lat="44.517610222198066" lon="9.98626151961641"><ele>768.0</ele><time>2026-04-03T12:30:08.963Z</time></trkpt><trkpt lat="44.51773985295809" lon="9.986357673548746"><ele>768.0</ele><time>2026-04-03T12:30:09.963Z</time></trkpt><trkpt lat="44.51785927874867" lon="9.986441742603754"><ele>768.0</ele><time>2026-04-03T12:30:10.963Z</time></trkpt><trkpt lat="44.51796384690038" lon="9.98651145043101"><ele>767.8</ele><time>2026-04-03T12:30:11.963Z</time></trkpt><trkpt lat="44.51806233930829" lon="9.986560084962544"><ele>767.5999999999999</ele><time>2026-04-03T12:30:12.963Z</time></trkpt><trkpt lat="44.51815864104706" lon="9.986574333187406"><ele>767.4000000000001</ele><time>2026-04-03T12:30:13.963Z</time></trkpt><trkpt lat="44.518255409268214" lon="9.98653761894045"><ele>767.2</ele><time>2026-04-03T12:30:14.963Z</time></trkpt><trkpt lat="44.51834170601551" lon="9.986442368544457"><ele>767.0</ele><time>2026-04-03T12:30:15.963Z</time></trkpt><trkpt lat="44.51840244077752" lon="9.986303914330051"><ele>767.0</ele><time>2026-04-03T12:30:16.963Z</time></trkpt><trkpt lat="44.51843278686062" lon="9.986145680997303"><ele>767.0</ele><time>2026-04-03T12:30:17.963Z</time></trkpt><trkpt lat="44.518428944581565" lon="9.985981404361477"><ele>767.0</ele><time>2026-04-03T12:30:18.963Z</time></trkpt><trkpt lat="44.518414956753695" lon="9.98581294988646"><ele>767.0</ele><time>2026-04-03T12:30:19.963Z</time></trkpt><trkpt lat="44.51839832922789" lon="9.985641860924998"><ele>763.75</ele><time>2026-04-03T12:30:20.963Z</time></trkpt><trkpt lat="44.51837824938458" lon="9.985474168239083"><ele>760.5</ele><time>2026-04-03T12:30:21.963Z</time></trkpt><trkpt lat="44.518359055479586" lon="9.98531263647265"><ele>757.25</ele><time>2026-04-03T12:30:22.963Z</time></trkpt><trkpt lat="44.518344123045125" lon="9.985155711912066"><ele>754.0</ele><time>2026-04-03T12:30:23.963Z</time></trkpt><trkpt lat="44.51833107846459" lon="9.985009902229374"><ele>753.0</ele><time>2026-04-03T12:30:24.963Z</time></trkpt><trkpt lat="44.518334992065014" lon="9.984871218635993"><ele>752.0</ele><time>2026-04-03T12:30:25.963Z</time></trkpt><trkpt lat="44.51836972478368" lon="9.984740449283297"><ele>751.0</ele><time>2026-04-03T12:30:26.963Z</time></trkpt><trkpt lat="44.51843062424525" lon="9.984608315610103"><ele>750.0</ele><time>2026-04-03T12:30:27.963Z</time></trkpt><trkpt lat="44.518513106404896" lon="9.984490631171983"><ele>749.0</ele><time>2026-04-03T12:30:28.963Z</time></trkpt><trkpt lat="44.51860935042981" lon="9.984386854361984"><ele>749.0</ele><time>2026-04-03T12:30:29.963Z</time></trkpt><trkpt lat="44.51872056071571" lon="9.984310518826137"><ele>749.0</ele><time>2026-04-03T12:30:30.963Z</time></trkpt><trkpt lat="44.51883537378305" lon="9.984260642109492"><ele>749.0</ele><time>2026-04-03T12:30:31.963Z</time></trkpt><trkpt lat="44.51894953868426" lon="9.98425085792499"><ele>749.0</ele><time>2026-04-03T12:30:32.963Z</time></trkpt><trkpt lat="44.519064036259095" lon="9.984281049085947"><ele>749.25</ele><time>2026-04-03T12:30:33.964Z</time></trkpt><trkpt lat="44.51918310454673" lon="9.984337722015693"><ele>749.5</ele><time>2026-04-03T12:30:34.964Z</time></trkpt><trkpt lat="44.5193010271552" lon="9.984413757891321"><ele>749.75</ele><time>2026-04-03T12:30:35.964Z</time></trkpt><trkpt lat="44.51941907793951" lon="9.984488488866276"><ele>750.0</ele><time>2026-04-03T12:30:36.964Z</time></trkpt><trkpt lat="44.519524304217235" lon="9.984554663582655"><ele>749.2</ele><time>2026-04-03T12:30:37.964Z</time></trkpt><trkpt lat="44.519597629855085" lon="9.984605163912025"><ele>748.4</ele><time>2026-04-03T12:30:38.964Z</time></trkpt><trkpt lat="44.519712000031454" lon="9.984614472432462"><ele>747.5999999999999</ele><time>2026-04-03T12:30:40.964Z</time></trkpt><trkpt lat="44.51976818731318" lon="9.984522219715046"><ele>746.8</ele><time>2026-04-03T12:30:41.964Z</time></trkpt><trkpt lat="44.519780847292964" lon="9.984351776412487"><ele>746.0</ele><time>2026-04-03T12:30:42.964Z</time></trkpt><trkpt lat="44.519794025902" lon="9.984161392896485"><ele>743.75</ele><time>2026-04-03T12:30:43.964Z</time></trkpt><trkpt lat="44.519814443227624" lon="9.983971701639689"><ele>741.5</ele><time>2026-04-03T12:30:44.964Z</time></trkpt><trkpt lat="44.519838354899186" lon="9.983766066767199"><ele>739.25</ele><time>2026-04-03T12:30:45.964Z</time></trkpt><trkpt lat="44.51987288521781" lon="9.983548070330057"><ele>737.0</ele><time>2026-04-03T12:30:46.964Z</time></trkpt><trkpt lat="44.5199059984047" lon="9.983344891945478"><ele>735.75</ele><time>2026-04-03T12:30:47.964Z</time></trkpt><trkpt lat="44.519940642671926" lon="9.983164486720792"><ele>734.5</ele><time>2026-04-03T12:30:48.964Z</time></trkpt><trkpt lat="44.51998847237437" lon="9.983012108305141"><ele>733.25</ele><time>2026-04-03T12:30:49.964Z</time></trkpt><trkpt lat="44.52002658027773" lon="9.982860126893604"><ele>732.0</ele><time>2026-04-03T12:30:50.964Z</time></trkpt><trkpt lat="44.52001983667269" lon="9.982656334172724"><ele>730.0</ele><time>2026-04-03T12:30:51.964Z</time></trkpt><trkpt lat="44.520030879202174" lon="9.982467191233225"><ele>728.0</ele><time>2026-04-03T12:30:52.964Z</time></trkpt><trkpt lat="44.52006338677221" lon="9.982302738159953"><ele>726.0</ele><time>2026-04-03T12:30:53.964Z</time></trkpt><trkpt lat="44.520113614735806" lon="9.982164770818626"><ele>724.0</ele><time>2026-04-03T12:30:54.964Z</time></trkpt><trkpt lat="44.52040269842177" lon="9.982294290560114"><ele>724.0</ele><time>2026-04-03T12:30:55.964Z</time></trkpt><trkpt lat="44.5205593755698" lon="9.982312541164216"><ele>724.0</ele><time>2026-04-03T12:30:56.964Z</time></trkpt><trkpt lat="44.5207003467969" lon="9.982347202777708"><ele>724.0</ele><time>2026-04-03T12:30:57.964Z</time></trkpt><trkpt lat="44.52083487654039" lon="9.98238305084973"><ele>724.0</ele><time>2026-04-03T12:30:58.964Z</time></trkpt><trkpt lat="44.520965840351074" lon="9.982409134608528"><ele>724.0</ele><time>2026-04-03T12:30:59.964Z</time></trkpt><trkpt lat="44.521091691161175" lon="9.982410526794892"><ele>724.0</ele><time>2026-04-03T12:31:00.964Z</time></trkpt><trkpt lat="44.52120580749419" lon="9.98239682639188"><ele>724.0</ele><time>2026-04-03T12:31:01.964Z</time></trkpt><trkpt lat="44.52129838372789" lon="9.982377188765431"><ele>724.0</ele><time>2026-04-03T12:31:02.964Z</time></trkpt><trkpt lat="44.52137511932417" lon="9.982335947325419"><ele>724.0</ele><time>2026-04-03T12:31:03.964Z</time></trkpt><trkpt lat="44.52143036609153" lon="9.982272192577025"><ele>724.0</ele><time>2026-04-03T12:31:04.964Z</time></trkpt><trkpt lat="44.521476271484566" lon="9.982176464706946"><ele>724.0</ele><time>2026-04-03T12:31:05.964Z</time></trkpt><trkpt lat="44.521515134786334" lon="9.982051232318215"><ele>724.0</ele><time>2026-04-03T12:31:06.964Z</time></trkpt><trkpt lat="44.52155551175795" lon="9.981896367818146"><ele>724.0</ele><time>2026-04-03T12:31:07.964Z</time></trkpt><trkpt lat="44.52160007130782" lon="9.981722014595011"><ele>724.0</ele><time>2026-04-03T12:31:08.964Z</time></trkpt><trkpt lat="44.52164612971366" lon="9.981542037093982"><ele>724.0</ele><time>2026-04-03T12:31:09.964Z</time></trkpt><trkpt lat="44.52169823765674" lon="9.981357616136087"><ele>724.0</ele><time>2026-04-03T12:31:10.964Z</time></trkpt><trkpt lat="44.52175225432532" lon="9.981163012442623"><ele>724.0</ele><time>2026-04-03T12:31:11.964Z</time></trkpt><trkpt lat="44.52180784263163" lon="9.980950483499175"><ele>720.75</ele><time>2026-04-03T12:31:12.964Z</time></trkpt><trkpt lat="44.52186839375679" lon="9.98075301724924"><ele>717.5</ele><time>2026-04-03T12:31:13.964Z</time></trkpt><trkpt lat="44.52193081228971" lon="9.980562362358006"><ele>714.25</ele><time>2026-04-03T12:31:14.964Z</time></trkpt><trkpt lat="44.52200340851455" lon="9.98038416366938"><ele>711.0</ele><time>2026-04-03T12:31:15.964Z</time></trkpt><trkpt lat="44.52205806352424" lon="9.98022345918033"><ele>714.5</ele><time>2026-04-03T12:31:16.964Z</time></trkpt><trkpt lat="44.52210127159562" lon="9.98005382497418"><ele>718.0</ele><time>2026-04-03T12:31:17.964Z</time></trkpt><trkpt lat="44.52213366121866" lon="9.979874015111234"><ele>721.5</ele><time>2026-04-03T12:31:18.964Z</time></trkpt><trkpt lat="44.522129622658625" lon="9.979691806475188"><ele>725.0</ele><time>2026-04-03T12:31:19.964Z</time></trkpt><trkpt lat="44.522101574428845" lon="9.979501645593688"><ele>718.5</ele><time>2026-04-03T12:31:20.964Z</time></trkpt><trkpt lat="44.52205711582786" lon="9.97932483948561"><ele>712.0</ele><time>2026-04-03T12:31:21.964Z</time></trkpt><trkpt lat="44.52198223815765" lon="9.979155528945366"><ele>705.5</ele><time>2026-04-03T12:31:22.964Z</time></trkpt><trkpt lat="44.52189003674036" lon="9.979001222283783"><ele>699.0</ele><time>2026-04-03T12:31:23.964Z</time></trkpt><trkpt lat="44.52176721785983" lon="9.978853347883733"><ele>699.25</ele><time>2026-04-03T12:31:24.964Z</time></trkpt><trkpt lat="44.52167283142039" lon="9.97869059968196"><ele>699.5</ele><time>2026-04-03T12:31:25.964Z</time></trkpt><trkpt lat="44.521601679715644" lon="9.978520571907545"><ele>699.75</ele><time>2026-04-03T12:31:26.964Z</time></trkpt><trkpt lat="44.52154865805282" lon="9.978347420833215"><ele>700.0</ele><time>2026-04-03T12:31:27.964Z</time></trkpt><trkpt lat="44.5215016019207" lon="9.978164431119502"><ele>700.0</ele><time>2026-04-03T12:31:28.964Z</time></trkpt><trkpt lat="44.521458324436885" lon="9.977977246476101"><ele>700.0</ele><time>2026-04-03T12:31:29.964Z</time></trkpt><trkpt lat="44.52142546390459" lon="9.977782435792577"><ele>700.0</ele><time>2026-04-03T12:31:30.964Z</time></trkpt><trkpt lat="44.52141132097196" lon="9.977577808590741"><ele>700.0</ele><time>2026-04-03T12:31:31.964Z</time></trkpt><trkpt lat="44.52142320198078" lon="9.97736670218341"><ele>702.0</ele><time>2026-04-03T12:31:32.964Z</time></trkpt><trkpt lat="44.52145312579352" lon="9.977153912615895"><ele>704.0</ele><time>2026-04-03T12:31:33.964Z</time></trkpt><trkpt lat="44.52148691276843" lon="9.976942828053412"><ele>706.0</ele><time>2026-04-03T12:31:34.964Z</time></trkpt><trkpt lat="44.52151289501051" lon="9.97672689523168"><ele>705.25</ele><time>2026-04-03T12:31:35.964Z</time></trkpt><trkpt lat="44.5215288359281" lon="9.976521326180496"><ele>704.5</ele><time>2026-04-03T12:31:36.964Z</time></trkpt><trkpt lat="44.52153282644534" lon="9.976325233475144"><ele>703.75</ele><time>2026-04-03T12:31:37.964Z</time></trkpt><trkpt lat="44.521528432571415" lon="9.976156211261335"><ele>703.0</ele><time>2026-04-03T12:31:38.964Z</time></trkpt><trkpt lat="44.52150687436919" lon="9.976004873890211"><ele>703.0</ele><time>2026-04-03T12:31:39.964Z</time></trkpt><trkpt lat="44.52144890097713" lon="9.97586424660233"><ele>703.0</ele><time>2026-04-03T12:31:40.964Z</time></trkpt><trkpt lat="44.521363018806575" lon="9.97573271467291"><ele>703.0</ele><time>2026-04-03T12:31:41.964Z</time></trkpt><trkpt lat="44.52125613093961" lon="9.975591065074978"><ele>703.0</ele><time>2026-04-03T12:31:42.964Z</time></trkpt><trkpt lat="44.521165379435985" lon="9.975453326520515"><ele>697.2</ele><time>2026-04-03T12:31:43.964Z</time></trkpt><trkpt lat="44.52107719027628" lon="9.97531932013306"><ele>691.4</ele><time>2026-04-03T12:31:44.964Z</time></trkpt><trkpt lat="44.5209990157579" lon="9.975202225327795"><ele>685.6</ele><time>2026-04-03T12:31:45.964Z</time></trkpt><trkpt lat="44.520946783233" lon="9.975083354330158"><ele>679.8000000000001</ele><time>2026-04-03T12:31:46.964Z</time></trkpt><trkpt lat="44.52092376972398" lon="9.97495200628355"><ele>674.0</ele><time>2026-04-03T12:31:47.964Z</time></trkpt><trkpt lat="44.52093513045252" lon="9.974820512112577"><ele>672.25</ele><time>2026-04-03T12:31:48.964Z</time></trkpt><trkpt lat="44.52098500210343" lon="9.974678771628396"><ele>670.5</ele><time>2026-04-03T12:31:49.962Z</time></trkpt><trkpt lat="44.521058529288084" lon="9.974536259514197"><ele>668.75</ele><time>2026-04-03T12:31:50.961Z</time></trkpt><trkpt lat="44.52113597177902" lon="9.974386930995772"><ele>667.0</ele><time>2026-04-03T12:31:51.961Z</time></trkpt><trkpt lat="44.521185472391764" lon="9.974222793766327"><ele>665.5</ele><time>2026-04-03T12:31:52.962Z</time></trkpt><trkpt lat="44.52120458738245" lon="9.974047603092094"><ele>664.0</ele><time>2026-04-03T12:31:53.962Z</time></trkpt><trkpt lat="44.52120195734789" lon="9.973858550390368"><ele>662.5</ele><time>2026-04-03T12:31:54.962Z</time></trkpt><trkpt lat="44.52118515592544" lon="9.973661418672192"><ele>661.0</ele><time>2026-04-03T12:31:55.962Z</time></trkpt><trkpt lat="44.52116508290578" lon="9.973445914626494"><ele>660.0</ele><time>2026-04-03T12:31:56.961Z</time></trkpt><trkpt lat="44.521145221483756" lon="9.973223155181513"><ele>659.0</ele><time>2026-04-03T12:31:57.962Z</time></trkpt><trkpt lat="44.52112587922343" lon="9.972990925611159"><ele>658.0</ele><time>2026-04-03T12:31:58.962Z</time></trkpt><trkpt lat="44.52110706149447" lon="9.972751337980576"><ele>658.0</ele><time>2026-04-03T12:31:59.962Z</time></trkpt><trkpt lat="44.52108212818574" lon="9.972503341694722"><ele>658.0</ele><time>2026-04-03T12:32:00.962Z</time></trkpt><trkpt lat="44.52105859369524" lon="9.972262843910194"><ele>658.0</ele><time>2026-04-03T12:32:01.961Z</time></trkpt><trkpt lat="44.5210361027183" lon="9.972037896827164"><ele>658.0</ele><time>2026-04-03T12:32:02.962Z</time></trkpt><trkpt lat="44.52101669032733" lon="9.971831906275074"><ele>658.0</ele><time>2026-04-03T12:32:03.962Z</time></trkpt><trkpt lat="44.5209973057032" lon="9.971647358935078"><ele>658.0</ele><time>2026-04-03T12:32:04.962Z</time></trkpt><trkpt lat="44.52098468183105" lon="9.971506122272517"><ele>658.0</ele><time>2026-04-03T12:32:05.962Z</time></trkpt><trkpt lat="44.520968956521756" lon="9.971404109216587"><ele>658.0</ele><time>2026-04-03T12:32:06.962Z</time></trkpt><trkpt lat="44.520932210013804" lon="9.971324841142055"><ele>658.0</ele><time>2026-04-03T12:32:07.962Z</time></trkpt><trkpt lat="44.520838001362904" lon="9.971323398411537"><ele>658.0</ele><time>2026-04-03T12:32:09.962Z</time></trkpt><trkpt lat="44.52079684248675" lon="9.971404135535801"><ele>658.0</ele><time>2026-04-03T12:32:10.962Z</time></trkpt><trkpt lat="44.520776729679035" lon="9.97151934987988"><ele>658.0</ele><time>2026-04-03T12:32:11.962Z</time></trkpt><trkpt lat="44.52077726719513" lon="9.971671826170144"><ele>658.0</ele><time>2026-04-03T12:32:12.962Z</time></trkpt><trkpt lat="44.52077511955583" lon="9.971834122608714"><ele>658.0</ele><time>2026-04-03T12:32:13.962Z</time></trkpt><trkpt lat="44.520771199513874" lon="9.97200334433029"><ele>658.0</ele><time>2026-04-03T12:32:14.962Z</time></trkpt><trkpt lat="44.52076677325028" lon="9.97215210287429"><ele>658.0</ele><time>2026-04-03T12:32:15.962Z</time></trkpt><trkpt lat="44.520751817845564" lon="9.972285922831698"><ele>658.0</ele><time>2026-04-03T12:32:16.962Z</time></trkpt><trkpt lat="44.52072320752228" lon="9.97240197768358"><ele>658.0</ele><time>2026-04-03T12:32:17.962Z</time></trkpt><trkpt lat="44.52067120264254" lon="9.972502310380236"><ele>658.0</ele><time>2026-04-03T12:32:18.962Z</time></trkpt><trkpt lat="44.520591987542566" lon="9.972552733299068"><ele>658.0</ele><time>2026-04-03T12:32:19.962Z</time></trkpt><trkpt lat="44.520494418266885" lon="9.972541975175059"><ele>658.0</ele><time>2026-04-03T12:32:20.962Z</time></trkpt><trkpt lat="44.52040828967074" lon="9.972485020143024"><ele>658.0</ele><time>2026-04-03T12:32:21.962Z</time></trkpt><trkpt lat="44.52034439791329" lon="9.972379036774726"><ele>658.0</ele><time>2026-04-03T12:32:22.962Z</time></trkpt><trkpt lat="44.520312033732495" lon="9.972245091369928"><ele>653.0</ele><time>2026-04-03T12:32:23.962Z</time></trkpt><trkpt lat="44.5202918738483" lon="9.972078720189353"><ele>648.0</ele><time>2026-04-03T12:32:24.962Z</time></trkpt><trkpt lat="44.52026680100041" lon="9.971899011239222"><ele>643.0</ele><time>2026-04-03T12:32:25.962Z</time></trkpt><trkpt lat="44.52023608970372" lon="9.971703193100337"><ele>638.0</ele><time>2026-04-03T12:32:26.962Z</time></trkpt><trkpt lat="44.52020205750053" lon="9.971491661718774"><ele>637.3333333333333</ele><time>2026-04-03T12:32:27.962Z</time></trkpt><trkpt lat="44.5201709275522" lon="9.971269857329334"><ele>636.6666666666666</ele><time>2026-04-03T12:32:28.962Z</time></trkpt><trkpt lat="44.52014088442344" lon="9.9710483670105"><ele>636.0</ele><time>2026-04-03T12:32:29.962Z</time></trkpt><trkpt lat="44.52010525843162" lon="9.970826172121404"><ele>635.6666666666666</ele><time>2026-04-03T12:32:30.962Z</time></trkpt><trkpt lat="44.52008069950667" lon="9.970606438137855"><ele>635.3333333333333</ele><time>2026-04-03T12:32:31.962Z</time></trkpt><trkpt lat="44.52004812922218" lon="9.970385964231257"><ele>635.0</ele><time>2026-04-03T12:32:32.962Z</time></trkpt><trkpt lat="44.52002213598505" lon="9.970169411119969"><ele>634.0</ele><time>2026-04-03T12:32:33.962Z</time></trkpt><trkpt lat="44.52000621787412" lon="9.969951643789937"><ele>633.0</ele><time>2026-04-03T12:32:34.962Z</time></trkpt><trkpt lat="44.52000802225713" lon="9.969734312584755"><ele>632.0</ele><time>2026-04-03T12:32:35.962Z</time></trkpt><trkpt lat="44.52001894005163" lon="9.96952836135383"><ele>632.0</ele><time>2026-04-03T12:32:36.962Z</time></trkpt><trkpt lat="44.5200051714394" lon="9.969338453132162"><ele>632.0</ele><time>2026-04-03T12:32:37.962Z</time></trkpt><trkpt lat="44.51997433452396" lon="9.969166282108295"><ele>632.0</ele><time>2026-04-03T12:32:38.962Z</time></trkpt><trkpt lat="44.519927229609955" lon="9.969005806054215"><ele>632.0</ele><time>2026-04-03T12:32:39.962Z</time></trkpt><trkpt lat="44.519884140267685" lon="9.968847150090626"><ele>631.4</ele><time>2026-04-03T12:32:40.962Z</time></trkpt><trkpt lat="44.5198591628424" lon="9.968690715639688"><ele>630.8000000000001</ele><time>2026-04-03T12:32:41.962Z</time></trkpt><trkpt lat="44.519876973496466" lon="9.968540704067765"><ele>630.2</ele><time>2026-04-03T12:32:42.962Z</time></trkpt><trkpt lat="44.51993514297058" lon="9.968414033017584"><ele>629.6</ele><time>2026-04-03T12:32:43.962Z</time></trkpt><trkpt lat="44.52002003542357" lon="9.968301745642982"><ele>629.0</ele><time>2026-04-03T12:32:44.962Z</time></trkpt><trkpt lat="44.52012283268722" lon="9.968214640962762"><ele>627.2</ele><time>2026-04-03T12:32:45.962Z</time></trkpt><trkpt lat="44.520205001152384" lon="9.968114522362676"><ele>625.4</ele><time>2026-04-03T12:32:46.962Z</time></trkpt><trkpt lat="44.52025558276395" lon="9.967991252315924"><ele>623.6</ele><time>2026-04-03T12:32:47.962Z</time></trkpt><trkpt lat="44.520274440255456" lon="9.967842532681427"><ele>621.8</ele><time>2026-04-03T12:32:48.962Z</time></trkpt><trkpt lat="44.52025287655357" lon="9.967687414369403"><ele>620.0</ele><time>2026-04-03T12:32:49.962Z</time></trkpt><trkpt lat="44.5202037716443" lon="9.967534843292306"><ele>618.8</ele><time>2026-04-03T12:32:50.962Z</time></trkpt><trkpt lat="44.52015011578693" lon="9.967392191133959"><ele>617.6</ele><time>2026-04-03T12:32:51.962Z</time></trkpt><trkpt lat="44.52008831854883" lon="9.967260740431644"><ele>616.4</ele><time>2026-04-03T12:32:52.962Z</time></trkpt><trkpt lat="44.520034070262135" lon="9.967135674874275"><ele>615.2</ele><time>2026-04-03T12:32:53.962Z</time></trkpt><trkpt lat="44.52001024694023" lon="9.96700713279365"><ele>614.0</ele><time>2026-04-03T12:32:54.962Z</time></trkpt><trkpt lat="44.52003565074462" lon="9.966875641546816"><ele>614.0</ele><time>2026-04-03T12:32:55.962Z</time></trkpt><trkpt lat="44.520104734351705" lon="9.966745904187707"><ele>614.0</ele><time>2026-04-03T12:32:56.962Z</time></trkpt><trkpt lat="44.520206084264444" lon="9.966630447672346"><ele>614.0</ele><time>2026-04-03T12:32:57.962Z</time></trkpt><trkpt lat="44.52031744918008" lon="9.966520579367751"><ele>614.0</ele><time>2026-04-03T12:32:58.962Z</time></trkpt><trkpt lat="44.5204267665567" lon="9.966392365231812"><ele>614.0</ele><time>2026-04-03T12:32:59.962Z</time></trkpt><trkpt lat="44.52052122415567" lon="9.966243086664551"><ele>614.0</ele><time>2026-04-03T12:33:00.962Z</time></trkpt><trkpt lat="44.520595915659605" lon="9.966070878006013"><ele>614.0</ele><time>2026-04-03T12:33:01.962Z</time></trkpt><trkpt lat="44.520674983969975" lon="9.965934610525943"><ele>614.0</ele><time>2026-04-03T12:33:02.962Z</time></trkpt><trkpt lat="44.52076366375292" lon="9.965836756288773"><ele>614.0</ele><time>2026-04-03T12:33:03.962Z</time></trkpt><trkpt lat="44.52087585069386" lon="9.965801324089325"><ele>614.0</ele><time>2026-04-03T12:33:04.962Z</time></trkpt><trkpt lat="44.520983414907704" lon="9.965834399087276"><ele>614.0</ele><time>2026-04-03T12:33:05.962Z</time></trkpt><trkpt lat="44.521078338248074" lon="9.965930211912816"><ele>614.0</ele><time>2026-04-03T12:33:06.962Z</time></trkpt><trkpt lat="44.521162670879896" lon="9.966052385788668"><ele>615.4</ele><time>2026-04-03T12:33:07.962Z</time></trkpt><trkpt lat="44.52123420474297" lon="9.966160506367139"><ele>616.8</ele><time>2026-04-03T12:33:08.962Z</time></trkpt><trkpt lat="44.52130850792268" lon="9.966229696166373"><ele>618.2</ele><time>2026-04-03T12:33:09.962Z</time></trkpt><trkpt lat="44.52141400871219" lon="9.96623072764639"><ele>619.6</ele><time>2026-04-03T12:33:10.962Z</time></trkpt><trkpt lat="44.52152701718973" lon="9.966166365444648"><ele>621.0</ele><time>2026-04-03T12:33:11.962Z</time></trkpt><trkpt lat="44.52163153167" lon="9.966048948136887"><ele>621.0</ele><time>2026-04-03T12:33:12.962Z</time></trkpt><trkpt lat="44.52174298878992" lon="9.96590863376852"><ele>621.0</ele><time>2026-04-03T12:33:13.962Z</time></trkpt><trkpt lat="44.52186382286318" lon="9.96576877380706"><ele>621.0</ele><time>2026-04-03T12:33:14.962Z</time></trkpt><trkpt lat="44.52198982031683" lon="9.965634578348569"><ele>614.6666666666666</ele><time>2026-04-03T12:33:15.962Z</time></trkpt><trkpt lat="44.52211683834648" lon="9.965507001621873"><ele>608.3333333333333</ele><time>2026-04-03T12:33:16.962Z</time></trkpt><trkpt lat="44.52224023538417" lon="9.965365421861522"><ele>602.0</ele><time>2026-04-03T12:33:17.962Z</time></trkpt><trkpt lat="44.52236361309585" lon="9.96522463865042"><ele>602.0</ele><time>2026-04-03T12:33:18.962Z</time></trkpt><trkpt lat="44.52248885691495" lon="9.965085244987675"><ele>602.0</ele><time>2026-04-03T12:33:19.962Z</time></trkpt><trkpt lat="44.52261500663143" lon="9.964944944399317"><ele>602.0</ele><time>2026-04-03T12:33:20.962Z</time></trkpt><trkpt lat="44.52273881572571" lon="9.964803431200224"><ele>597.3333333333333</ele><time>2026-04-03T12:33:21.962Z</time></trkpt><trkpt lat="44.522862411650394" lon="9.964659641383724"><ele>592.6666666666666</ele><time>2026-04-03T12:33:22.962Z</time></trkpt><trkpt lat="44.52298879066206" lon="9.964522278271588"><ele>588.0</ele><time>2026-04-03T12:33:23.962Z</time></trkpt><trkpt lat="44.523112660159626" lon="9.964384418097572"><ele>587.6666666666666</ele><time>2026-04-03T12:33:24.962Z</time></trkpt><trkpt lat="44.52323187984616" lon="9.964243517757483"><ele>587.3333333333333</ele><time>2026-04-03T12:33:25.962Z</time></trkpt><trkpt lat="44.52335831085931" lon="9.964109869410354"><ele>587.0</ele><time>2026-04-03T12:33:26.962Z</time></trkpt><trkpt lat="44.52347673798662" lon="9.96397250544237"><ele>585.5</ele><time>2026-04-03T12:33:27.962Z</time></trkpt><trkpt lat="44.52359421730273" lon="9.963839037393477"><ele>584.0</ele><time>2026-04-03T12:33:28.962Z</time></trkpt><trkpt lat="44.523711317770825" lon="9.96370584317382"><ele>582.5</ele><time>2026-04-03T12:33:29.962Z</time></trkpt><trkpt lat="44.52382432871793" lon="9.963575200347098"><ele>581.0</ele><time>2026-04-03T12:33:30.962Z</time></trkpt><trkpt lat="44.52392794571543" lon="9.963451806598362"><ele>578.4</ele><time>2026-04-03T12:33:31.962Z</time></trkpt><trkpt lat="44.52401637753969" lon="9.963345628274718"><ele>575.8</ele><time>2026-04-03T12:33:32.962Z</time></trkpt><trkpt lat="44.5240931146621" lon="9.96324417385688"><ele>573.1999999999999</ele><time>2026-04-03T12:33:33.962Z</time></trkpt><trkpt lat="44.524148266406776" lon="9.963140579606838"><ele>570.6</ele><time>2026-04-03T12:33:34.962Z</time></trkpt><trkpt lat="44.524182455170866" lon="9.963025024608742"><ele>568.0</ele><time>2026-04-03T12:33:35.962Z</time></trkpt><trkpt lat="44.52419336218727" lon="9.962896569134712"><ele>568.0</ele><time>2026-04-03T12:33:36.962Z</time></trkpt><trkpt lat="44.52417908430569" lon="9.962762360247106"><ele>568.0</ele><time>2026-04-03T12:33:37.962Z</time></trkpt><trkpt lat="44.52414570648242" lon="9.962628050288707"><ele>568.0</ele><time>2026-04-03T12:33:38.962Z</time></trkpt><trkpt lat="44.52408076032305" lon="9.962514564664987"><ele>568.0</ele><time>2026-04-03T12:33:39.962Z</time></trkpt><trkpt lat="44.52400558399709" lon="9.962415222929947"><ele>568.0</ele><time>2026-04-03T12:33:40.962Z</time></trkpt><trkpt lat="44.52390405476432" lon="9.962351669337016"><ele>567.5</ele><time>2026-04-03T12:33:41.962Z</time></trkpt><trkpt lat="44.52378565686812" lon="9.962316273788776"><ele>567.0</ele><time>2026-04-03T12:33:42.962Z</time></trkpt><trkpt lat="44.523666888269645" lon="9.96228806282241"><ele>566.5</ele><time>2026-04-03T12:33:43.962Z</time></trkpt><trkpt lat="44.523539156640354" lon="9.962263515548178"><ele>566.0</ele><time>2026-04-03T12:33:44.962Z</time></trkpt><trkpt lat="44.52341911774015" lon="9.962224039637695"><ele>566.8</ele><time>2026-04-03T12:33:45.962Z</time></trkpt><trkpt lat="44.523313131089346" lon="9.96216021748986"><ele>567.6</ele><time>2026-04-03T12:33:46.963Z</time></trkpt><trkpt lat="44.523221141739576" lon="9.962073249077731"><ele>568.4</ele><time>2026-04-03T12:33:47.963Z</time></trkpt><trkpt lat="44.523137990106235" lon="9.961967519791433"><ele>569.2</ele><time>2026-04-03T12:33:48.963Z</time></trkpt><trkpt lat="44.52307359358604" lon="9.961842046364222"><ele>570.0</ele><time>2026-04-03T12:33:49.963Z</time></trkpt><trkpt lat="44.52303087152502" lon="9.961689320191844"><ele>567.75</ele><time>2026-04-03T12:33:50.963Z</time></trkpt><trkpt lat="44.52300817020156" lon="9.961525474811724"><ele>565.5</ele><time>2026-04-03T12:33:51.963Z</time></trkpt><trkpt lat="44.523007937277214" lon="9.9613542824163"><ele>563.25</ele><time>2026-04-03T12:33:52.963Z</time></trkpt><trkpt lat="44.52304672746563" lon="9.961161507641343"><ele>561.0</ele><time>2026-04-03T12:33:53.963Z</time></trkpt><trkpt lat="44.5231114465547" lon="9.960945911650715"><ele>558.6666666666666</ele><time>2026-04-03T12:33:54.963Z</time></trkpt><trkpt lat="44.523173191305716" lon="9.96071150538118"><ele>556.3333333333333</ele><time>2026-04-03T12:33:55.961Z</time></trkpt><trkpt lat="44.523221943439715" lon="9.96045321930641"><ele>554.0</ele><time>2026-04-03T12:33:56.961Z</time></trkpt><trkpt lat="44.523256448218994" lon="9.960187150940817"><ele>551.6666666666666</ele><time>2026-04-03T12:33:57.961Z</time></trkpt><trkpt lat="44.52326697057303" lon="9.959912886435491"><ele>549.3333333333334</ele><time>2026-04-03T12:33:58.96Z</time></trkpt><trkpt lat="44.52326291268898" lon="9.959642721049763"><ele>547.0</ele><time>2026-04-03T12:33:59.96Z</time></trkpt><trkpt lat="44.52325950398235" lon="9.95938732787698"><ele>546.0</ele><time>2026-04-03T12:34:00.96Z</time></trkpt><trkpt lat="44.523263564084225" lon="9.959145388923048"><ele>545.0</ele><time>2026-04-03T12:34:01.96Z</time></trkpt><trkpt lat="44.52329472852605" lon="9.958920719937037"><ele>544.0</ele><time>2026-04-03T12:34:02.96Z</time></trkpt><trkpt lat="44.52335285269937" lon="9.958711772079452"><ele>544.0</ele><time>2026-04-03T12:34:03.96Z</time></trkpt><trkpt lat="44.523428234517844" lon="9.95851844212322"><ele>544.0</ele><time>2026-04-03T12:34:04.961Z</time></trkpt><trkpt lat="44.523516421447404" lon="9.958338445205326"><ele>544.0</ele><time>2026-04-03T12:34:05.96Z</time></trkpt><trkpt lat="44.523628652161996" lon="9.958172544028997"><ele>545.0</ele><time>2026-04-03T12:34:06.96Z</time></trkpt><trkpt lat="44.523756415163646" lon="9.9580178557572"><ele>546.0</ele><time>2026-04-03T12:34:07.96Z</time></trkpt><trkpt lat="44.52390601663125" lon="9.957884238683272"><ele>547.0</ele><time>2026-04-03T12:34:08.96Z</time></trkpt><trkpt lat="44.524060674469666" lon="9.957749965555708"><ele>547.0</ele><time>2026-04-03T12:34:09.96Z</time></trkpt><trkpt lat="44.52421337413068" lon="9.957601392326504"><ele>547.0</ele><time>2026-04-03T12:34:10.96Z</time></trkpt><trkpt lat="44.524360814084815" lon="9.95743901394893"><ele>547.0</ele><time>2026-04-03T12:34:11.96Z</time></trkpt><trkpt lat="44.524516537295526" lon="9.957293712248886"><ele>546.0</ele><time>2026-04-03T12:34:12.96Z</time></trkpt><trkpt lat="44.524675712413234" lon="9.957179210394742"><ele>545.0</ele><time>2026-04-03T12:34:13.96Z</time></trkpt><trkpt lat="44.52483456558599" lon="9.957066206298329"><ele>544.0</ele><time>2026-04-03T12:34:14.96Z</time></trkpt><trkpt lat="44.52498532670671" lon="9.956955954119529"><ele>544.0</ele><time>2026-04-03T12:34:15.96Z</time></trkpt><trkpt lat="44.52511192688299" lon="9.956826271310495"><ele>544.0</ele><time>2026-04-03T12:34:16.96Z</time></trkpt><trkpt lat="44.52521285154518" lon="9.956673848292843"><ele>544.0</ele><time>2026-04-03T12:34:17.96Z</time></trkpt><trkpt lat="44.52529025626672" lon="9.95649222777297"><ele>536.6666666666667</ele><time>2026-04-03T12:34:18.96Z</time></trkpt><trkpt lat="44.525346769655215" lon="9.956286045784537"><ele>529.3333333333334</ele><time>2026-04-03T12:34:19.96Z</time></trkpt><trkpt lat="44.52539459985344" lon="9.956069364873388"><ele>522.0</ele><time>2026-04-03T12:34:20.96Z</time></trkpt><trkpt lat="44.52544673874494" lon="9.955851961807067"><ele>521.75</ele><time>2026-04-03T12:34:21.96Z</time></trkpt><trkpt lat="44.525498204733005" lon="9.95563964670002"><ele>521.5</ele><time>2026-04-03T12:34:22.96Z</time></trkpt><trkpt lat="44.5255470559684" lon="9.955449186559894"><ele>521.25</ele><time>2026-04-03T12:34:23.96Z</time></trkpt><trkpt lat="44.52558820995703" lon="9.955294857977925"><ele>521.0</ele><time>2026-04-03T12:34:24.96Z</time></trkpt><trkpt lat="44.52563721240261" lon="9.955163214218882"><ele>521.0</ele><time>2026-04-03T12:34:25.96Z</time></trkpt><trkpt lat="44.52571351830561" lon="9.955059022434714"><ele>521.0</ele><time>2026-04-03T12:34:26.96Z</time></trkpt><trkpt lat="44.525821222531775" lon="9.954995982964787"><ele>521.0</ele><time>2026-04-03T12:34:27.96Z</time></trkpt><trkpt lat="44.52594403833954" lon="9.954984082675983"><ele>521.0</ele><time>2026-04-03T12:34:28.96Z</time></trkpt><trkpt lat="44.52607201920133" lon="9.955011397443627"><ele>521.0</ele><time>2026-04-03T12:34:29.96Z</time></trkpt><trkpt lat="44.52619575878766" lon="9.955069119786703"><ele>521.0</ele><time>2026-04-03T12:34:30.96Z</time></trkpt><trkpt lat="44.52631070823763" lon="9.955165423035277"><ele>521.0</ele><time>2026-04-03T12:34:31.96Z</time></trkpt><trkpt lat="44.526408494464214" lon="9.955299861703601"><ele>521.0</ele><time>2026-04-03T12:34:32.96Z</time></trkpt><trkpt lat="44.52649126383748" lon="9.955449619496608"><ele>518.0</ele><time>2026-04-03T12:34:33.96Z</time></trkpt><trkpt lat="44.52655812173403" lon="9.955588426325011"><ele>515.0</ele><time>2026-04-03T12:34:34.96Z</time></trkpt><trkpt lat="44.52662719993103" lon="9.955717333507298"><ele>512.0</ele><time>2026-04-03T12:34:35.96Z</time></trkpt><trkpt lat="44.52669001431417" lon="9.955841719985653"><ele>509.0</ele><time>2026-04-03T12:34:36.96Z</time></trkpt><trkpt lat="44.52675226979087" lon="9.955958437386546"><ele>506.0</ele><time>2026-04-03T12:34:37.96Z</time></trkpt><trkpt lat="44.52682774912896" lon="9.956065083008452"><ele>505.0</ele><time>2026-04-03T12:34:38.96Z</time></trkpt><trkpt lat="44.52691370809987" lon="9.956149569019887"><ele>504.0</ele><time>2026-04-03T12:34:39.96Z</time></trkpt><trkpt lat="44.52700615949148" lon="9.95619613541211"><ele>503.0</ele><time>2026-04-03T12:34:40.96Z</time></trkpt><trkpt lat="44.52710771874641" lon="9.956214449936336"><ele>502.0</ele><time>2026-04-03T12:34:41.96Z</time></trkpt><trkpt lat="44.52720460181456" lon="9.956199711308477"><ele>501.0</ele><time>2026-04-03T12:34:42.96Z</time></trkpt><trkpt lat="44.52726953379849" lon="9.956140475393513"><ele>502.0</ele><time>2026-04-03T12:34:43.96Z</time></trkpt><trkpt lat="44.527298648982345" lon="9.956048946929382"><ele>503.0</ele><time>2026-04-03T12:34:44.96Z</time></trkpt><trkpt lat="44.52729323950264" lon="9.955951939875773"><ele>504.0</ele><time>2026-04-03T12:34:45.96Z</time></trkpt><trkpt lat="44.52724539543968" lon="9.955831665549377"><ele>505.0</ele><time>2026-04-03T12:34:46.96Z</time></trkpt><trkpt lat="44.52715563176462" lon="9.955750584936808"><ele>506.0</ele><time>2026-04-03T12:34:47.96Z</time></trkpt><trkpt lat="44.52704706522331" lon="9.955691974661637"><ele>506.0</ele><time>2026-04-03T12:34:48.96Z</time></trkpt><trkpt lat="44.52694543876678" lon="9.955598801912412"><ele>506.0</ele><time>2026-04-03T12:34:49.96Z</time></trkpt><trkpt lat="44.52687652775494" lon="9.955465292276534"><ele>506.0</ele><time>2026-04-03T12:34:50.96Z</time></trkpt><trkpt lat="44.526835515627894" lon="9.955296492993671"><ele>506.0</ele><time>2026-04-03T12:34:51.96Z</time></trkpt><trkpt lat="44.52681200970291" lon="9.955127250190824"><ele>503.25</ele><time>2026-04-03T12:34:52.96Z</time></trkpt><trkpt lat="44.526791377112325" lon="9.954962552874642"><ele>500.5</ele><time>2026-04-03T12:34:53.96Z</time></trkpt><trkpt lat="44.52676407515064" lon="9.954806489631116"><ele>497.75</ele><time>2026-04-03T12:34:54.96Z</time></trkpt><trkpt lat="44.526723207198636" lon="9.954649920156623"><ele>495.0</ele><time>2026-04-03T12:34:55.96Z</time></trkpt><trkpt lat="44.526669026673105" lon="9.95448946793173"><ele>495.0</ele><time>2026-04-03T12:34:56.96Z</time></trkpt><trkpt lat="44.52660896015023" lon="9.95432389794287"><ele>495.0</ele><time>2026-04-03T12:34:57.96Z</time></trkpt><trkpt lat="44.52654389166036" lon="9.954146985843135"><ele>495.0</ele><time>2026-04-03T12:34:58.96Z</time></trkpt><trkpt lat="44.52646421398236" lon="9.953967217113215"><ele>495.0</ele><time>2026-04-03T12:34:59.96Z</time></trkpt><trkpt lat="44.52638482348646" lon="9.953797291978315"><ele>495.0</ele><time>2026-04-03T12:35:00.96Z</time></trkpt><trkpt lat="44.52630522909186" lon="9.953640185552766"><ele>495.0</ele><time>2026-04-03T12:35:01.96Z</time></trkpt><trkpt lat="44.52623637049704" lon="9.953504048769291"><ele>495.0</ele><time>2026-04-03T12:35:02.96Z</time></trkpt><trkpt lat="44.526171314993334" lon="9.953390632284533"><ele>495.0</ele><time>2026-04-03T12:35:03.96Z</time></trkpt><trkpt lat="44.52608808955252" lon="9.953311786097379"><ele>491.0</ele><time>2026-04-03T12:35:04.96Z</time></trkpt><trkpt lat="44.525990335093724" lon="9.95328510728872"><ele>487.0</ele><time>2026-04-03T12:35:05.96Z</time></trkpt><trkpt lat="44.525885731038066" lon="9.953312080587954"><ele>483.0</ele><time>2026-04-03T12:35:06.96Z</time></trkpt><trkpt lat="44.525794596179296" lon="9.953358075589284"><ele>479.0</ele><time>2026-04-03T12:35:07.96Z</time></trkpt><trkpt lat="44.525723491771906" lon="9.953363742989591"><ele>475.0</ele><time>2026-04-03T12:35:08.96Z</time></trkpt><trkpt lat="44.52567486974688" lon="9.953227869031132"><ele>475.0</ele><time>2026-04-03T12:35:10.96Z</time></trkpt><trkpt lat="44.52570714777905" lon="9.953145432654003"><ele>475.0</ele><time>2026-04-03T12:35:11.96Z</time></trkpt><trkpt lat="44.52578323358802" lon="9.953087408509118"><ele>475.0</ele><time>2026-04-03T12:35:12.96Z</time></trkpt><trkpt lat="44.525880646411544" lon="9.953047101055512"><ele>475.0</ele><time>2026-04-03T12:35:13.96Z</time></trkpt><trkpt lat="44.52599086605718" lon="9.953026540998682"><ele>475.0</ele><time>2026-04-03T12:35:14.96Z</time></trkpt><trkpt lat="44.52610612293714" lon="9.95304947412695"><ele>475.0</ele><time>2026-04-03T12:35:15.96Z</time></trkpt><trkpt lat="44.52621407475039" lon="9.95311313931017"><ele>475.0</ele><time>2026-04-03T12:35:16.96Z</time></trkpt><trkpt lat="44.52630088098967" lon="9.953207619571696"><ele>475.0</ele><time>2026-04-03T12:35:17.96Z</time></trkpt><trkpt lat="44.526356120641324" lon="9.953324871418333"><ele>475.0</ele><time>2026-04-03T12:35:18.96Z</time></trkpt><trkpt lat="44.52640058423369" lon="9.953437213655988"><ele>475.0</ele><time>2026-04-03T12:35:19.96Z</time></trkpt><trkpt lat="44.52645895337103" lon="9.953519214698952"><ele>476.33333333333337</ele><time>2026-04-03T12:35:20.96Z</time></trkpt><trkpt lat="44.526536340206555" lon="9.953541975523217"><ele>477.6666666666667</ele><time>2026-04-03T12:35:21.96Z</time></trkpt><trkpt lat="44.52659954747551" lon="9.953487743767504"><ele>479.0</ele><time>2026-04-03T12:35:22.96Z</time></trkpt><trkpt lat="44.52662193049184" lon="9.953393775708903"><ele>480.33333333333337</ele><time>2026-04-03T12:35:23.96Z</time></trkpt><trkpt lat="44.52659986709499" lon="9.953279937522515"><ele>481.6666666666667</ele><time>2026-04-03T12:35:24.96Z</time></trkpt><trkpt lat="44.5265419605982" lon="9.953156277556262"><ele>483.0</ele><time>2026-04-03T12:35:25.96Z</time></trkpt><trkpt lat="44.526461287477034" lon="9.95304719480457"><ele>481.0</ele><time>2026-04-03T12:35:26.96Z</time></trkpt><trkpt lat="44.52635853912553" lon="9.952943713605318"><ele>479.0</ele><time>2026-04-03T12:35:27.96Z</time></trkpt><trkpt lat="44.52624591602541" lon="9.952851219948"><ele>477.0</ele><time>2026-04-03T12:35:28.96Z</time></trkpt><trkpt lat="44.5261265747736" lon="9.952758499565896"><ele>475.0</ele><time>2026-04-03T12:35:29.96Z</time></trkpt><trkpt lat="44.52599929263758" lon="9.952681094808083"><ele>475.0</ele><time>2026-04-03T12:35:30.96Z</time></trkpt><trkpt lat="44.52587948338206" lon="9.952617178076084"><ele>475.0</ele><time>2026-04-03T12:35:31.96Z</time></trkpt><trkpt lat="44.525772491297424" lon="9.952576546481504"><ele>475.0</ele><time>2026-04-03T12:35:32.96Z</time></trkpt><trkpt lat="44.52566619456812" lon="9.952575620981179"><ele>475.0</ele><time>2026-04-03T12:35:33.96Z</time></trkpt><trkpt lat="44.52557052384604" lon="9.952632058913709"><ele>475.0</ele><time>2026-04-03T12:35:34.96Z</time></trkpt><trkpt lat="44.52550129066845" lon="9.952734887031975"><ele>475.0</ele><time>2026-04-03T12:35:35.96Z</time></trkpt><trkpt lat="44.52545672313106" lon="9.952839778640223"><ele>475.0</ele><time>2026-04-03T12:35:36.96Z</time></trkpt><trkpt lat="44.52538518276104" lon="9.952934534185546"><ele>475.0</ele><time>2026-04-03T12:35:38.96Z</time></trkpt><trkpt lat="44.5252978256374" lon="9.95283354002344"><ele>475.0</ele><time>2026-04-03T12:35:40.961Z</time></trkpt><trkpt lat="44.52532172541997" lon="9.952724864861052"><ele>475.0</ele><time>2026-04-03T12:35:41.961Z</time></trkpt><trkpt lat="44.52537505083221" lon="9.95264335093884"><ele>475.0</ele><time>2026-04-03T12:35:42.961Z</time></trkpt><trkpt lat="44.525454800020896" lon="9.952547841834786"><ele>475.0</ele><time>2026-04-03T12:35:43.961Z</time></trkpt><trkpt lat="44.525554128534814" lon="9.95244282361215"><ele>475.0</ele><time>2026-04-03T12:35:44.961Z</time></trkpt><trkpt lat="44.525668715939226" lon="9.952356070141402"><ele>475.0</ele><time>2026-04-03T12:35:45.961Z</time></trkpt><trkpt lat="44.52579305546723" lon="9.952286327324826"><ele>470.5</ele><time>2026-04-03T12:35:46.961Z</time></trkpt><trkpt lat="44.52591468281465" lon="9.952235123843636"><ele>466.0</ele><time>2026-04-03T12:35:47.961Z</time></trkpt><trkpt lat="44.526031234788086" lon="9.95219586839389"><ele>461.5</ele><time>2026-04-03T12:35:48.961Z</time></trkpt><trkpt lat="44.52614876110713" lon="9.952175423106954"><ele>457.0</ele><time>2026-04-03T12:35:49.961Z</time></trkpt><trkpt lat="44.52626726008694" lon="9.952191448552838"><ele>455.0</ele><time>2026-04-03T12:35:50.961Z</time></trkpt><trkpt lat="44.52638553424514" lon="9.952230146181659"><ele>453.0</ele><time>2026-04-03T12:35:51.961Z</time></trkpt><trkpt lat="44.52650498809632" lon="9.952293913104342"><ele>451.0</ele><time>2026-04-03T12:35:52.961Z</time></trkpt><trkpt lat="44.52661960084156" lon="9.952387373468062"><ele>449.0</ele><time>2026-04-03T12:35:53.961Z</time></trkpt><trkpt lat="44.52673497442679" lon="9.952511727879944"><ele>454.3333333333333</ele><time>2026-04-03T12:35:54.961Z</time></trkpt><trkpt lat="44.5268524377955" lon="9.952662014446323"><ele>459.66666666666663</ele><time>2026-04-03T12:35:55.961Z</time></trkpt><trkpt lat="44.5269539862739" lon="9.952822585402268"><ele>465.0</ele><time>2026-04-03T12:35:56.961Z</time></trkpt><trkpt lat="44.5270340783071" lon="9.952994390993512"><ele>461.0</ele><time>2026-04-03T12:35:57.961Z</time></trkpt><trkpt lat="44.527095293095535" lon="9.953190267691506"><ele>457.0</ele><time>2026-04-03T12:35:58.961Z</time></trkpt><trkpt lat="44.52714866596426" lon="9.953392261952848"><ele>453.0</ele><time>2026-04-03T12:35:59.961Z</time></trkpt><trkpt lat="44.52720926573406" lon="9.953567968918048"><ele>449.0</ele><time>2026-04-03T12:36:00.961Z</time></trkpt><trkpt lat="44.52727091908219" lon="9.953697566593393"><ele>449.0</ele><time>2026-04-03T12:36:01.96Z</time></trkpt><trkpt lat="44.52733567389274" lon="9.953795128355518"><ele>449.0</ele><time>2026-04-03T12:36:02.959Z</time></trkpt><trkpt lat="44.527418571993636" lon="9.95384840312006"><ele>449.0</ele><time>2026-04-03T12:36:03.959Z</time></trkpt><trkpt lat="44.52751426160247" lon="9.953826298767073"><ele>449.0</ele><time>2026-04-03T12:36:04.959Z</time></trkpt><trkpt lat="44.527616777290106" lon="9.953752371428203"><ele>449.0</ele><time>2026-04-03T12:36:05.96Z</time></trkpt><trkpt lat="44.52769638308936" lon="9.953633279546997"><ele>449.0</ele><time>2026-04-03T12:36:06.96Z</time></trkpt><trkpt lat="44.5277502571231" lon="9.953500186479555"><ele>449.0</ele><time>2026-04-03T12:36:07.96Z</time></trkpt><trkpt lat="44.52777053321776" lon="9.953348318773196"><ele>449.0</ele><time>2026-04-03T12:36:08.959Z</time></trkpt><trkpt lat="44.527744228812104" lon="9.953180482058533"><ele>449.0</ele><time>2026-04-03T12:36:09.959Z</time></trkpt><trkpt lat="44.52768548373053" lon="9.953032474490541"><ele>446.99999999999994</ele><time>2026-04-03T12:36:10.959Z</time></trkpt><trkpt lat="44.52761155709332" lon="9.952909964063467"><ele>445.0</ele><time>2026-04-03T12:36:11.959Z</time></trkpt><trkpt lat="44.52755744385376" lon="9.952818262645728"><ele>443.0</ele><time>2026-04-03T12:36:12.959Z</time></trkpt><trkpt lat="44.52753880538341" lon="9.952729416120055"><ele>441.0</ele><time>2026-04-03T12:36:13.96Z</time></trkpt><trkpt lat="44.52756323979999" lon="9.952646487673638"><ele>438.99999999999994</ele><time>2026-04-03T12:36:14.959Z</time></trkpt><trkpt lat="44.52762858662449" lon="9.952600334470334"><ele>437.0</ele><time>2026-04-03T12:36:15.959Z</time></trkpt><trkpt lat="44.52771371275447" lon="9.952633675126265"><ele>437.0</ele><time>2026-04-03T12:36:16.959Z</time></trkpt><trkpt lat="44.52779685840307" lon="9.952699135959456"><ele>437.00000000000006</ele><time>2026-04-03T12:36:17.959Z</time></trkpt><trkpt lat="44.52790136570501" lon="9.952767769587888"><ele>437.00000000000006</ele><time>2026-04-03T12:36:18.959Z</time></trkpt><trkpt lat="44.528007095808825" lon="9.952841753311988"><ele>437.0</ele><time>2026-04-03T12:36:19.959Z</time></trkpt><trkpt lat="44.528098666923775" lon="9.952928492495452"><ele>437.0</ele><time>2026-04-03T12:36:20.959Z</time></trkpt><trkpt lat="44.528174593419806" lon="9.953040055819963"><ele>436.0</ele><time>2026-04-03T12:36:21.959Z</time></trkpt><trkpt lat="44.52823231427958" lon="9.953178837341007"><ele>435.00000000000006</ele><time>2026-04-03T12:36:22.959Z</time></trkpt><trkpt lat="44.528287744501476" lon="9.95331610661113"><ele>434.00000000000006</ele><time>2026-04-03T12:36:23.959Z</time></trkpt><trkpt lat="44.52835181311618" lon="9.953440239052844"><ele>433.0</ele><time>2026-04-03T12:36:24.959Z</time></trkpt><trkpt lat="44.52843204877185" lon="9.953525463379652"><ele>432.0</ele><time>2026-04-03T12:36:25.959Z</time></trkpt><trkpt lat="44.528520144511894" lon="9.953560637607431"><ele>432.0</ele><time>2026-04-03T12:36:26.959Z</time></trkpt><trkpt lat="44.52860870370614" lon="9.953540068303095"><ele>432.0</ele><time>2026-04-03T12:36:27.959Z</time></trkpt><trkpt lat="44.52867256939989" lon="9.95346745131073"><ele>432.0</ele><time>2026-04-03T12:36:28.959Z</time></trkpt><trkpt lat="44.52870841514832" lon="9.953363515891269"><ele>432.0</ele><time>2026-04-03T12:36:29.959Z</time></trkpt><trkpt lat="44.52870212724684" lon="9.953235214945323"><ele>432.0</ele><time>2026-04-03T12:36:30.959Z</time></trkpt><trkpt lat="44.52864125242606" lon="9.953130286147141"><ele>432.0</ele><time>2026-04-03T12:36:31.959Z</time></trkpt><trkpt lat="44.528553027100735" lon="9.953039585523307"><ele>430.8</ele><time>2026-04-03T12:36:32.959Z</time></trkpt><trkpt lat="44.528458247764405" lon="9.95292383689978"><ele>429.6</ele><time>2026-04-03T12:36:33.959Z</time></trkpt><trkpt lat="44.528376909718645" lon="9.952783668113668"><ele>428.40000000000003</ele><time>2026-04-03T12:36:34.959Z</time></trkpt><trkpt lat="44.52831736807967" lon="9.952665704234803"><ele>427.20000000000005</ele><time>2026-04-03T12:36:35.959Z</time></trkpt><trkpt lat="44.52827147150984" lon="9.952576496523918"><ele>426.0</ele><time>2026-04-03T12:36:36.959Z</time></trkpt><trkpt lat="44.52821544747079" lon="9.952451933437084"><ele>426.0</ele><time>2026-04-03T12:36:38.959Z</time></trkpt><trkpt lat="44.528259342297" lon="9.952357623616251"><ele>426.0</ele><time>2026-04-03T12:36:40.959Z</time></trkpt><trkpt lat="44.52834091806581" lon="9.952418241442983"><ele>426.0</ele><time>2026-04-03T12:36:42.959Z</time></trkpt><trkpt lat="44.52837128116668" lon="9.952497527169031"><ele>426.0</ele><time>2026-04-03T12:36:43.959Z</time></trkpt><trkpt lat="44.5284121055312" lon="9.952578629190128"><ele>426.0</ele><time>2026-04-03T12:36:44.959Z</time></trkpt><trkpt lat="44.52846373076829" lon="9.95266361861128"><ele>426.0</ele><time>2026-04-03T12:36:45.959Z</time></trkpt><trkpt lat="44.528519225218815" lon="9.952745195204525"><ele>426.0</ele><time>2026-04-03T12:36:46.959Z</time></trkpt><trkpt lat="44.52857777313819" lon="9.952833365951793"><ele>426.0</ele><time>2026-04-03T12:36:47.959Z</time></trkpt><trkpt lat="44.52863843439448" lon="9.952919802971376"><ele>426.0</ele><time>2026-04-03T12:36:48.959Z</time></trkpt><trkpt lat="44.52869878008408" lon="9.953002034820056"><ele>426.0</ele><time>2026-04-03T12:36:49.959Z</time></trkpt><trkpt lat="44.52874822597455" lon="9.953080956235896"><ele>426.0</ele><time>2026-04-03T12:36:50.959Z</time></trkpt><trkpt lat="44.52879849038374" lon="9.953159757780657"><ele>426.0</ele><time>2026-04-03T12:36:51.959Z</time></trkpt><trkpt lat="44.528847288841824" lon="9.953238713195487"><ele>422.8333333333333</ele><time>2026-04-03T12:36:52.959Z</time></trkpt><trkpt lat="44.52888899401575" lon="9.953308380761662"><ele>419.66666666666663</ele><time>2026-04-03T12:36:53.959Z</time></trkpt><trkpt lat="44.52895435538392" lon="9.953395346329552"><ele>416.5</ele><time>2026-04-03T12:36:55.959Z</time></trkpt><trkpt lat="44.52901502965094" lon="9.953463757254504"><ele>413.3333333333333</ele><time>2026-04-03T12:36:58.959Z</time></trkpt><trkpt lat="44.529087066274606" lon="9.953479166222737"><ele>410.16666666666663</ele><time>2026-04-03T12:38:22.959Z</time></trkpt><trkpt lat="44.52916593285809" lon="9.953520179627997"><ele>407.0</ele><time>2026-04-03T12:38:24.959Z</time></trkpt><trkpt lat="44.52928307079429" lon="9.953595662041145"><ele>406.99999999999994</ele><time>2026-04-03T12:38:26.959Z</time></trkpt><trkpt lat="44.52935100871759" lon="9.953629592361938"><ele>407.0</ele><time>2026-04-03T12:38:27.959Z</time></trkpt><trkpt lat="44.52943238633557" lon="9.953628762507696"><ele>407.0</ele><time>2026-04-03T12:38:28.959Z</time></trkpt><trkpt lat="44.529515196719146" lon="9.953602535656973"><ele>407.0</ele><time>2026-04-03T12:38:29.959Z</time></trkpt><trkpt lat="44.52958720082684" lon="9.95353481681297"><ele>406.99999999999994</ele><time>2026-04-03T12:38:30.959Z</time></trkpt><trkpt lat="44.529666883511574" lon="9.953439563008107"><ele>407.0</ele><time>2026-04-03T12:38:31.959Z</time></trkpt><trkpt lat="44.529747232233746" lon="9.953334318131116"><ele>409.8</ele><time>2026-04-03T12:38:32.959Z</time></trkpt><trkpt lat="44.52982290655878" lon="9.953213190232448"><ele>412.6</ele><time>2026-04-03T12:38:33.959Z</time></trkpt><trkpt lat="44.52989803560108" lon="9.953090238516511"><ele>415.40000000000003</ele><time>2026-04-03T12:38:34.959Z</time></trkpt><trkpt lat="44.52996537683821" lon="9.952967065437432"><ele>418.20000000000005</ele><time>2026-04-03T12:38:35.959Z</time></trkpt><trkpt lat="44.53003073223526" lon="9.95285140778072"><ele>421.0</ele><time>2026-04-03T12:38:36.959Z</time></trkpt><trkpt lat="44.53009719884754" lon="9.952744501776497"><ele>421.0</ele><time>2026-04-03T12:38:37.959Z</time></trkpt><trkpt lat="44.53016059535361" lon="9.952643100471844"><ele>421.0</ele><time>2026-04-03T12:38:38.959Z</time></trkpt><trkpt lat="44.53022088570137" lon="9.952555826340667"><ele>421.0</ele><time>2026-04-03T12:38:39.959Z</time></trkpt><trkpt lat="44.530289958454865" lon="9.952486428612106"><ele>421.0</ele><time>2026-04-03T12:38:40.959Z</time></trkpt><trkpt lat="44.53037767363397" lon="9.952452903255626"><ele>421.0</ele><time>2026-04-03T12:38:41.959Z</time></trkpt><trkpt lat="44.53048525792702" lon="9.952462134293137"><ele>422.8</ele><time>2026-04-03T12:38:42.959Z</time></trkpt><trkpt lat="44.53059753134404" lon="9.952501681503561"><ele>424.6</ele><time>2026-04-03T12:38:43.959Z</time></trkpt><trkpt lat="44.53070842387506" lon="9.952552837814995"><ele>426.4</ele><time>2026-04-03T12:38:44.959Z</time></trkpt><trkpt lat="44.53080679728881" lon="9.952612132555002"><ele>428.2</ele><time>2026-04-03T12:38:45.959Z</time></trkpt><trkpt lat="44.53089174826314" lon="9.952687147295471"><ele>430.0</ele><time>2026-04-03T12:38:46.959Z</time></trkpt><trkpt lat="44.53096157138785" lon="9.952776788492633"><ele>430.00000000000006</ele><time>2026-04-03T12:38:47.959Z</time></trkpt><trkpt lat="44.53102550505205" lon="9.95285961611322"><ele>430.0</ele><time>2026-04-03T12:38:48.959Z</time></trkpt><trkpt lat="44.5311007389168" lon="9.95290359329389"><ele>430.0</ele><time>2026-04-03T12:38:49.959Z</time></trkpt><trkpt lat="44.531193341186224" lon="9.95290920694403"><ele>430.0</ele><time>2026-04-03T12:38:50.959Z</time></trkpt><trkpt lat="44.53128582579071" lon="9.952887343186932"><ele>430.00000000000006</ele><time>2026-04-03T12:38:51.959Z</time></trkpt><trkpt lat="44.53136793707055" lon="9.952826590404513"><ele>430.0</ele><time>2026-04-03T12:38:52.959Z</time></trkpt><trkpt lat="44.53144203319802" lon="9.952732305812061"><ele>428.25</ele><time>2026-04-03T12:38:53.959Z</time></trkpt><trkpt lat="44.53150865753559" lon="9.952605908671513"><ele>426.5</ele><time>2026-04-03T12:38:54.959Z</time></trkpt><trkpt lat="44.53157886651236" lon="9.95246082206008"><ele>424.75</ele><time>2026-04-03T12:38:55.959Z</time></trkpt><trkpt lat="44.53167963620546" lon="9.952353698769425"><ele>423.0</ele><time>2026-04-03T12:38:56.959Z</time></trkpt><trkpt lat="44.53177987539928" lon="9.952269811717677"><ele>423.25</ele><time>2026-04-03T12:38:57.959Z</time></trkpt><trkpt lat="44.53188568895922" lon="9.952208532981976"><ele>423.5</ele><time>2026-04-03T12:38:58.959Z</time></trkpt><trkpt lat="44.53199998445844" lon="9.952172971841124"><ele>423.75</ele><time>2026-04-03T12:38:59.959Z</time></trkpt><trkpt lat="44.532120029778966" lon="9.95215595109783"><ele>424.0</ele><time>2026-04-03T12:39:00.959Z</time></trkpt><trkpt lat="44.53224029857661" lon="9.952133804352338"><ele>424.0</ele><time>2026-04-03T12:39:01.959Z</time></trkpt><trkpt lat="44.53236707806111" lon="9.952082425760027"><ele>424.0</ele><time>2026-04-03T12:39:02.959Z</time></trkpt><trkpt lat="44.5324895812913" lon="9.951988914694493"><ele>424.0</ele><time>2026-04-03T12:39:03.959Z</time></trkpt><trkpt lat="44.53261087532943" lon="9.951876510275639"><ele>424.0</ele><time>2026-04-03T12:39:04.959Z</time></trkpt><trkpt lat="44.532727615959395" lon="9.95176435351434"><ele>422.75</ele><time>2026-04-03T12:39:05.959Z</time></trkpt><trkpt lat="44.53283302605903" lon="9.951652549079222"><ele>421.5</ele><time>2026-04-03T12:39:06.959Z</time></trkpt><trkpt lat="44.53293032146553" lon="9.951531939160088"><ele>420.25</ele><time>2026-04-03T12:39:07.959Z</time></trkpt><trkpt lat="44.53301735231604" lon="9.951389036671756"><ele>419.0</ele><time>2026-04-03T12:39:08.959Z</time></trkpt><trkpt lat="44.533094843967625" lon="9.951241696002135"><ele>419.0</ele><time>2026-04-03T12:39:09.959Z</time></trkpt><trkpt lat="44.53316975006023" lon="9.951085698899208"><ele>419.0</ele><time>2026-04-03T12:39:10.959Z</time></trkpt><trkpt lat="44.533242879958095" lon="9.950917601316846"><ele>419.0</ele><time>2026-04-03T12:39:11.959Z</time></trkpt><trkpt lat="44.53330438261267" lon="9.950736756377106"><ele>419.0</ele><time>2026-04-03T12:39:12.959Z</time></trkpt><trkpt lat="44.533364503324044" lon="9.950547787579831"><ele>415.25</ele><time>2026-04-03T12:39:13.959Z</time></trkpt><trkpt lat="44.533430531836736" lon="9.950362506930249"><ele>411.5</ele><time>2026-04-03T12:39:14.959Z</time></trkpt><trkpt lat="44.533497257253416" lon="9.950171744534106"><ele>407.75</ele><time>2026-04-03T12:39:15.959Z</time></trkpt><trkpt lat="44.53356337969204" lon="9.949986925241907"><ele>404.0</ele><time>2026-04-03T12:39:16.959Z</time></trkpt><trkpt lat="44.53363135261467" lon="9.949808715632855"><ele>399.66666666666663</ele><time>2026-04-03T12:39:17.959Z</time></trkpt><trkpt lat="44.53370329619864" lon="9.949634232075628"><ele>395.33333333333337</ele><time>2026-04-03T12:39:18.959Z</time></trkpt><trkpt lat="44.53379190215284" lon="9.949448957474592"><ele>391.0</ele><time>2026-04-03T12:39:19.959Z</time></trkpt><trkpt lat="44.5339148365527" lon="9.949256377472329"><ele>394.6666666666667</ele><time>2026-04-03T12:39:20.959Z</time></trkpt><trkpt lat="44.534050532565864" lon="9.949060847354554"><ele>398.33333333333337</ele><time>2026-04-03T12:39:21.959Z</time></trkpt><trkpt lat="44.53418033260774" lon="9.948877508218471"><ele>402.0</ele><time>2026-04-03T12:39:22.959Z</time></trkpt><trkpt lat="44.53429388254295" lon="9.948693078262663"><ele>402.0</ele><time>2026-04-03T12:39:23.959Z</time></trkpt><trkpt lat="44.53439158086219" lon="9.948514068408866"><ele>402.0</ele><time>2026-04-03T12:39:24.959Z</time></trkpt><trkpt lat="44.534466901918876" lon="9.948343117206699"><ele>402.0</ele><time>2026-04-03T12:39:25.959Z</time></trkpt><trkpt lat="44.534522302921346" lon="9.948166237547571"><ele>402.0</ele><time>2026-04-03T12:39:26.959Z</time></trkpt><trkpt lat="44.53456380414066" lon="9.947990378557193"><ele>402.5</ele><time>2026-04-03T12:39:27.959Z</time></trkpt><trkpt lat="44.534601036834054" lon="9.947815435176231"><ele>403.0</ele><time>2026-04-03T12:39:28.959Z</time></trkpt><trkpt lat="44.53463638743853" lon="9.947650055394039"><ele>403.5</ele><time>2026-04-03T12:39:29.959Z</time></trkpt><trkpt lat="44.53466274468435" lon="9.947491688019"><ele>404.0</ele><time>2026-04-03T12:39:30.959Z</time></trkpt><trkpt lat="44.53467083272333" lon="9.9473326294754"><ele>404.0</ele><time>2026-04-03T12:39:31.959Z</time></trkpt><trkpt lat="44.534661478880366" lon="9.947173404303506"><ele>404.0</ele><time>2026-04-03T12:39:32.959Z</time></trkpt><trkpt lat="44.53464338476206" lon="9.947012161787095"><ele>404.0</ele><time>2026-04-03T12:39:33.959Z</time></trkpt><trkpt lat="44.534634312714104" lon="9.946876500208358"><ele>404.0</ele><time>2026-04-03T12:39:34.959Z</time></trkpt><trkpt lat="44.53463749449661" lon="9.946755924641174"><ele>404.0</ele><time>2026-04-03T12:39:35.959Z</time></trkpt><trkpt lat="44.534666152849915" lon="9.946647092356871"><ele>399.4</ele><time>2026-04-03T12:39:36.959Z</time></trkpt><trkpt lat="44.534729653548666" lon="9.94656437998367"><ele>394.79999999999995</ele><time>2026-04-03T12:39:37.959Z</time></trkpt><trkpt lat="44.53481771226137" lon="9.946498112658743"><ele>390.20000000000005</ele><time>2026-04-03T12:39:38.959Z</time></trkpt><trkpt lat="44.53491160799794" lon="9.946438171355524"><ele>385.6</ele><time>2026-04-03T12:39:39.959Z</time></trkpt><trkpt lat="44.53500983102395" lon="9.946404710065064"><ele>381.0</ele><time>2026-04-03T12:39:40.959Z</time></trkpt><trkpt lat="44.53511192972882" lon="9.946387014201951"><ele>381.0</ele><time>2026-04-03T12:39:41.959Z</time></trkpt><trkpt lat="44.53522327828868" lon="9.946365900231928"><ele>381.0</ele><time>2026-04-03T12:39:42.959Z</time></trkpt><trkpt lat="44.53533923231907" lon="9.946346014118937"><ele>381.0</ele><time>2026-04-03T12:39:43.959Z</time></trkpt><trkpt lat="44.53546075903476" lon="9.946321085307487"><ele>381.0</ele><time>2026-04-03T12:39:44.959Z</time></trkpt><trkpt lat="44.535582124141925" lon="9.946296523777022"><ele>386.75</ele><time>2026-04-03T12:39:45.959Z</time></trkpt><trkpt lat="44.535709283836105" lon="9.946270782644667"><ele>392.5</ele><time>2026-04-03T12:39:46.959Z</time></trkpt><trkpt lat="44.5358352012431" lon="9.946244090427195"><ele>398.25</ele><time>2026-04-03T12:39:47.959Z</time></trkpt><trkpt lat="44.53596004498291" lon="9.94621857012107"><ele>404.0</ele><time>2026-04-03T12:39:48.96Z</time></trkpt><trkpt lat="44.536081815689414" lon="9.946189709924457"><ele>404.0</ele><time>2026-04-03T12:39:49.96Z</time></trkpt><trkpt lat="44.53620101337217" lon="9.946163969687428"><ele>404.0</ele><time>2026-04-03T12:39:50.96Z</time></trkpt><trkpt lat="44.536317563648204" lon="9.9461277716503"><ele>404.0</ele><time>2026-04-03T12:39:51.96Z</time></trkpt><trkpt lat="44.53643373801412" lon="9.946075502419564"><ele>404.0</ele><time>2026-04-03T12:39:52.96Z</time></trkpt><trkpt lat="44.536546563961274" lon="9.946022378052165"><ele>403.2</ele><time>2026-04-03T12:39:53.96Z</time></trkpt><trkpt lat="44.53665241509786" lon="9.945983706234772"><ele>402.4</ele><time>2026-04-03T12:39:54.96Z</time></trkpt><trkpt lat="44.53676121760811" lon="9.945937277832504"><ele>401.6</ele><time>2026-04-03T12:39:55.96Z</time></trkpt><trkpt lat="44.5368569154217" lon="9.945900350508511"><ele>400.8</ele><time>2026-04-03T12:39:56.96Z</time></trkpt><trkpt lat="44.536936040259754" lon="9.945869393664907"><ele>400.0</ele><time>2026-04-03T12:39:57.96Z</time></trkpt><trkpt lat="44.53700222308905" lon="9.945850354311606"><ele>395.00000000000006</ele><time>2026-04-03T12:39:58.96Z</time></trkpt><trkpt lat="44.537083715922925" lon="9.945794182270669"><ele>390.0</ele><time>2026-04-03T12:40:00.96Z</time></trkpt><trkpt lat="44.53712666520876" lon="9.94571072939248"><ele>385.0</ele><time>2026-04-03T12:40:04.96Z</time></trkpt><trkpt lat="44.537189747418815" lon="9.945649591968836"><ele>380.0</ele><time>2026-04-03T12:52:50.951Z</time></trkpt><trkpt lat="44.537253624698685" lon="9.945617503311697"><ele>375.0</ele><time>2026-04-03T12:52:52.951Z</time></trkpt><trkpt lat="44.53734014027334" lon="9.945575129133758"><ele>370.0</ele><time>2026-04-03T12:52:54.951Z</time></trkpt><trkpt lat="44.53744371374479" lon="9.94550402266226"><ele>370.0</ele><time>2026-04-03T12:52:56.951Z</time></trkpt><trkpt lat="44.537499152600915" lon="9.945457161821817"><ele>370.0</ele><time>2026-04-03T12:52:57.951Z</time></trkpt><trkpt lat="44.53755465789103" lon="9.945401270298438"><ele>370.0</ele><time>2026-04-03T12:52:58.951Z</time></trkpt><trkpt lat="44.5376150819363" lon="9.945338041085408"><ele>370.0</ele><time>2026-04-03T12:52:59.951Z</time></trkpt><trkpt lat="44.53768061537805" lon="9.945277421179203"><ele>370.0</ele><time>2026-04-03T12:53:00.951Z</time></trkpt><trkpt lat="44.53775599894144" lon="9.9452093800645"><ele>370.0</ele><time>2026-04-03T12:53:01.95Z</time></trkpt><trkpt lat="44.53783419061369" lon="9.94513611101598"><ele>368.8</ele><time>2026-04-03T12:53:02.95Z</time></trkpt><trkpt lat="44.53791144594172" lon="9.945052280103848"><ele>367.6</ele><time>2026-04-03T12:53:03.95Z</time></trkpt><trkpt lat="44.537994358776565" lon="9.944975630154026"><ele>366.4</ele><time>2026-04-03T12:53:04.95Z</time></trkpt><trkpt lat="44.538074769117344" lon="9.944903846865902"><ele>365.2</ele><time>2026-04-03T12:53:05.95Z</time></trkpt><trkpt lat="44.53816201184358" lon="9.944817539403228"><ele>364.0</ele><time>2026-04-03T12:53:06.95Z</time></trkpt><trkpt lat="44.53824935408271" lon="9.944734704643494"><ele>364.0</ele><time>2026-04-03T12:53:07.95Z</time></trkpt><trkpt lat="44.53834360503246" lon="9.944641178941975"><ele>364.0</ele><time>2026-04-03T12:53:08.95Z</time></trkpt><trkpt lat="44.53843344991757" lon="9.944546971387604"><ele>364.0</ele><time>2026-04-03T12:53:09.95Z</time></trkpt><trkpt lat="44.53852606113662" lon="9.944456192587865"><ele>364.0</ele><time>2026-04-03T12:53:10.95Z</time></trkpt><trkpt lat="44.53861799079925" lon="9.9443639971756"><ele>364.0</ele><time>2026-04-03T12:53:11.95Z</time></trkpt><trkpt lat="44.538706933008186" lon="9.94427603020207"><ele>364.0</ele><time>2026-04-03T12:53:12.95Z</time></trkpt><trkpt lat="44.53880027030137" lon="9.94417724934143"><ele>364.0</ele><time>2026-04-03T12:53:13.95Z</time></trkpt><trkpt lat="44.53889416849807" lon="9.94408093435087"><ele>364.0</ele><time>2026-04-03T12:53:14.95Z</time></trkpt><trkpt lat="44.538991131285684" lon="9.943983209998096"><ele>363.75</ele><time>2026-04-03T12:53:15.95Z</time></trkpt><trkpt lat="44.539092186661705" lon="9.943882260158695"><ele>363.5</ele><time>2026-04-03T12:53:16.95Z</time></trkpt><trkpt lat="44.53919730898741" lon="9.943775440140481"><ele>363.25</ele><time>2026-04-03T12:53:17.95Z</time></trkpt><trkpt lat="44.53930788209557" lon="9.943669480787415"><ele>363.0</ele><time>2026-04-03T12:53:18.95Z</time></trkpt><trkpt lat="44.53942071225021" lon="9.943562549870867"><ele>363.0</ele><time>2026-04-03T12:53:19.95Z</time></trkpt><trkpt lat="44.539532239840334" lon="9.943479653606408"><ele>363.0</ele><time>2026-04-03T12:53:20.95Z</time></trkpt><trkpt lat="44.53965385901083" lon="9.943409809558352"><ele>363.0</ele><time>2026-04-03T12:53:21.95Z</time></trkpt><trkpt lat="44.53977724649927" lon="9.94334432138711"><ele>363.0</ele><time>2026-04-03T12:53:22.95Z</time></trkpt><trkpt lat="44.53989977280691" lon="9.943283745553739"><ele>360.25</ele><time>2026-04-03T12:53:23.95Z</time></trkpt><trkpt lat="44.54001813438708" lon="9.943223315807293"><ele>357.5</ele><time>2026-04-03T12:53:24.95Z</time></trkpt><trkpt lat="44.5401315472476" lon="9.943164979365903"><ele>354.75</ele><time>2026-04-03T12:53:25.95Z</time></trkpt><trkpt lat="44.54024297215736" lon="9.943102542434328"><ele>352.0</ele><time>2026-04-03T12:53:26.951Z</time></trkpt><trkpt lat="44.54035535308825" lon="9.943038946421131"><ele>354.5</ele><time>2026-04-03T12:53:27.951Z</time></trkpt><trkpt lat="44.54046936798879" lon="9.94298240748124"><ele>357.0</ele><time>2026-04-03T12:53:28.951Z</time></trkpt><trkpt lat="44.54058491997591" lon="9.942928148711001"><ele>359.5</ele><time>2026-04-03T12:53:29.951Z</time></trkpt><trkpt lat="44.54070092634877" lon="9.942874957574157"><ele>362.0</ele><time>2026-04-03T12:53:30.951Z</time></trkpt><trkpt lat="44.54081342187068" lon="9.942816327053439"><ele>362.0</ele><time>2026-04-03T12:53:31.951Z</time></trkpt><trkpt lat="44.54091895459321" lon="9.942750476884594"><ele>362.0</ele><time>2026-04-03T12:53:32.951Z</time></trkpt><trkpt lat="44.541029894298546" lon="9.942669724756819"><ele>362.0</ele><time>2026-04-03T12:53:33.951Z</time></trkpt><trkpt lat="44.54114740750897" lon="9.942582075810074"><ele>362.0</ele><time>2026-04-03T12:53:34.951Z</time></trkpt><trkpt lat="44.541274731414966" lon="9.942499954734654"><ele>357.25</ele><time>2026-04-03T12:53:35.951Z</time></trkpt><trkpt lat="44.54140555898963" lon="9.942450749103424"><ele>352.5</ele><time>2026-04-03T12:53:36.951Z</time></trkpt><trkpt lat="44.541534632209796" lon="9.94241368660307"><ele>347.75</ele><time>2026-04-03T12:53:37.951Z</time></trkpt><trkpt lat="44.54165821093838" lon="9.942375631605236"><ele>343.0</ele><time>2026-04-03T12:53:38.951Z</time></trkpt><trkpt lat="44.54177765806423" lon="9.942329334953415"><ele>343.0</ele><time>2026-04-03T12:53:39.951Z</time></trkpt><trkpt lat="44.541900979282886" lon="9.942279888233347"><ele>343.0</ele><time>2026-04-03T12:53:40.951Z</time></trkpt><trkpt lat="44.54202919464383" lon="9.942223042005528"><ele>343.0</ele><time>2026-04-03T12:53:41.951Z</time></trkpt><trkpt lat="44.54215568248704" lon="9.94217105427151"><ele>343.0</ele><time>2026-04-03T12:53:42.951Z</time></trkpt><trkpt lat="44.542273550010805" lon="9.942122271630401"><ele>345.5</ele><time>2026-04-03T12:53:43.951Z</time></trkpt><trkpt lat="44.54238413267515" lon="9.942062467676175"><ele>348.0</ele><time>2026-04-03T12:53:44.951Z</time></trkpt><trkpt lat="44.542480595345495" lon="9.941969925513057"><ele>350.5</ele><time>2026-04-03T12:53:45.951Z</time></trkpt><trkpt lat="44.542568927601906" lon="9.941850911284629"><ele>353.0</ele><time>2026-04-03T12:53:46.951Z</time></trkpt><trkpt lat="44.542648291367236" lon="9.94169758860952"><ele>351.0</ele><time>2026-04-03T12:53:47.951Z</time></trkpt><trkpt lat="44.54273526707418" lon="9.941530813629726"><ele>349.0</ele><time>2026-04-03T12:53:48.951Z</time></trkpt><trkpt lat="44.54282809275679" lon="9.941384417532811"><ele>347.0</ele><time>2026-04-03T12:53:49.951Z</time></trkpt><trkpt lat="44.54291808051872" lon="9.941269483146456"><ele>345.0</ele><time>2026-04-03T12:53:50.951Z</time></trkpt><trkpt lat="44.543001186793234" lon="9.941181917631715"><ele>345.0</ele><time>2026-04-03T12:53:51.951Z</time></trkpt><trkpt lat="44.54309283192892" lon="9.941110899654115"><ele>345.0</ele><time>2026-04-03T12:53:52.951Z</time></trkpt><trkpt lat="44.54319956380139" lon="9.941066562155648"><ele>345.0</ele><time>2026-04-03T12:53:53.951Z</time></trkpt><trkpt lat="44.54332164996219" lon="9.941063043762982"><ele>345.0</ele><time>2026-04-03T12:53:54.951Z</time></trkpt><trkpt lat="44.54345296085499" lon="9.94107072043162"><ele>345.0</ele><time>2026-04-03T12:53:55.951Z</time></trkpt><trkpt lat="44.543578419874656" lon="9.941095203079943"><ele>345.0</ele><time>2026-04-03T12:53:56.951Z</time></trkpt><trkpt lat="44.54370610962742" lon="9.941139365186581"><ele>345.0</ele><time>2026-04-03T12:53:57.951Z</time></trkpt><trkpt lat="44.5438341333731" lon="9.941207781787975"><ele>345.0</ele><time>2026-04-03T12:53:58.951Z</time></trkpt><trkpt lat="44.54396029738325" lon="9.941288587976084"><ele>344.0</ele><time>2026-04-03T12:53:59.951Z</time></trkpt><trkpt lat="44.54408851310842" lon="9.941381799115259"><ele>343.0</ele><time>2026-04-03T12:54:00.951Z</time></trkpt><trkpt lat="44.54421387839361" lon="9.941481575545142"><ele>342.0</ele><time>2026-04-03T12:54:01.951Z</time></trkpt><trkpt lat="44.544334205658416" lon="9.941576786334895"><ele>341.0</ele><time>2026-04-03T12:54:02.951Z</time></trkpt><trkpt lat="44.54444125806734" lon="9.941658832947471"><ele>342.5</ele><time>2026-04-03T12:54:03.951Z</time></trkpt><trkpt lat="44.54455719040077" lon="9.941719074270459"><ele>344.0</ele><time>2026-04-03T12:54:04.951Z</time></trkpt><trkpt lat="44.544684690484246" lon="9.941731270760117"><ele>345.5</ele><time>2026-04-03T12:54:05.951Z</time></trkpt><trkpt lat="44.544829865948614" lon="9.941714842039442"><ele>347.0</ele><time>2026-04-03T12:54:06.951Z</time></trkpt><trkpt lat="44.544963991943845" lon="9.941703241195798"><ele>344.0</ele><time>2026-04-03T12:54:07.951Z</time></trkpt><trkpt lat="44.545091807307685" lon="9.941700796240188"><ele>341.0</ele><time>2026-04-03T12:54:08.951Z</time></trkpt><trkpt lat="44.54521275848742" lon="9.941696273951113"><ele>338.0</ele><time>2026-04-03T12:54:09.951Z</time></trkpt><trkpt lat="44.545337553008274" lon="9.941686900482344"><ele>335.0</ele><time>2026-04-03T12:54:10.951Z</time></trkpt><trkpt lat="44.54546571462844" lon="9.941669885308459"><ele>335.0</ele><time>2026-04-03T12:54:11.951Z</time></trkpt><trkpt lat="44.545600346815554" lon="9.941647675337371"><ele>335.0</ele><time>2026-04-03T12:54:12.951Z</time></trkpt><trkpt lat="44.54572137795735" lon="9.94162424190139"><ele>335.0</ele><time>2026-04-03T12:54:13.951Z</time></trkpt><trkpt lat="44.54582393213187" lon="9.94161870926671"><ele>335.0</ele><time>2026-04-03T12:54:14.951Z</time></trkpt><trkpt lat="44.54591488740749" lon="9.941609979280852"><ele>335.0</ele><time>2026-04-03T12:54:15.951Z</time></trkpt><trkpt lat="44.54600470290326" lon="9.941574638421471"><ele>335.0</ele><time>2026-04-03T12:54:16.951Z</time></trkpt><trkpt lat="44.54609976975869" lon="9.941502829593556"><ele>335.0</ele><time>2026-04-03T12:54:17.951Z</time></trkpt><trkpt lat="44.5462005089227" lon="9.94141036382052"><ele>335.0</ele><time>2026-04-03T12:54:18.951Z</time></trkpt><trkpt lat="44.5462896042976" lon="9.941308304456118"><ele>335.0</ele><time>2026-04-03T12:54:19.951Z</time></trkpt><trkpt lat="44.546343883554286" lon="9.94117454484395"><ele>336.25</ele><time>2026-04-03T12:54:20.951Z</time></trkpt><trkpt lat="44.54636931139534" lon="9.941006306137208"><ele>337.5</ele><time>2026-04-03T12:54:21.951Z</time></trkpt><trkpt lat="44.54636389033632" lon="9.940807644145822"><ele>338.75</ele><time>2026-04-03T12:54:22.951Z</time></trkpt><trkpt lat="44.546352057002515" lon="9.940608750006238"><ele>340.0</ele><time>2026-04-03T12:54:23.951Z</time></trkpt><trkpt lat="44.546355667654936" lon="9.940395222348931"><ele>340.0</ele><time>2026-04-03T12:54:24.951Z</time></trkpt><trkpt lat="44.546384532505996" lon="9.940184283965372"><ele>340.0</ele><time>2026-04-03T12:54:25.951Z</time></trkpt><trkpt lat="44.54643853085638" lon="9.939979391815447"><ele>340.0</ele><time>2026-04-03T12:54:26.951Z</time></trkpt><trkpt lat="44.54649934881742" lon="9.939776660218289"><ele>339.25</ele><time>2026-04-03T12:54:27.951Z</time></trkpt><trkpt lat="44.54655897438039" lon="9.93958010531271"><ele>338.5</ele><time>2026-04-03T12:54:28.951Z</time></trkpt><trkpt lat="44.54660929673055" lon="9.939406885183228"><ele>337.75</ele><time>2026-04-03T12:54:29.951Z</time></trkpt><trkpt lat="44.54666420956071" lon="9.939253336183349"><ele>337.0</ele><time>2026-04-03T12:54:30.951Z</time></trkpt><trkpt lat="44.54673421770366" lon="9.939143920086236"><ele>335.8</ele><time>2026-04-03T12:54:31.951Z</time></trkpt><trkpt lat="44.54682659471851" lon="9.939087133424879"><ele>334.6</ele><time>2026-04-03T12:54:32.951Z</time></trkpt><trkpt lat="44.54692783031268" lon="9.939093209511714"><ele>333.40000000000003</ele><time>2026-04-03T12:54:33.951Z</time></trkpt><trkpt lat="44.547018304359675" lon="9.939163720797758"><ele>332.20000000000005</ele><time>2026-04-03T12:54:34.951Z</time></trkpt><trkpt lat="44.54708363295382" lon="9.939288015433757"><ele>331.0</ele><time>2026-04-03T12:54:35.951Z</time></trkpt><trkpt lat="44.54715440722039" lon="9.939380965329255"><ele>331.0</ele><time>2026-04-03T12:54:36.951Z</time></trkpt><trkpt lat="44.54723679262234" lon="9.939424413004758"><ele>331.0</ele><time>2026-04-03T12:54:37.951Z</time></trkpt><trkpt lat="44.54733074169031" lon="9.939375447969985"><ele>331.0</ele><time>2026-04-03T12:54:38.951Z</time></trkpt><trkpt lat="44.547433744373336" lon="9.9393068569856"><ele>331.0</ele><time>2026-04-03T12:54:39.951Z</time></trkpt><trkpt lat="44.54754689333678" lon="9.93923380879967"><ele>331.0</ele><time>2026-04-03T12:54:40.951Z</time></trkpt><trkpt lat="44.54764734646066" lon="9.939156675852276"><ele>332.75</ele><time>2026-04-03T12:54:41.951Z</time></trkpt><trkpt lat="44.547733123503804" lon="9.939059643466903"><ele>334.5</ele><time>2026-04-03T12:54:42.951Z</time></trkpt><trkpt lat="44.54778992221772" lon="9.93890438906967"><ele>336.25</ele><time>2026-04-03T12:54:43.951Z</time></trkpt><trkpt lat="44.54783538738828" lon="9.938734097500348"><ele>338.0</ele><time>2026-04-03T12:54:44.951Z</time></trkpt><trkpt lat="44.54790511354617" lon="9.938565818711425"><ele>338.0</ele><time>2026-04-03T12:54:45.951Z</time></trkpt><trkpt lat="44.54800229249872" lon="9.938427966203786"><ele>338.0</ele><time>2026-04-03T12:54:46.951Z</time></trkpt><trkpt lat="44.54812976862413" lon="9.938324021679367"><ele>338.0</ele><time>2026-04-03T12:54:47.951Z</time></trkpt><trkpt lat="44.54825432841491" lon="9.938230819958534"><ele>338.0</ele><time>2026-04-03T12:54:48.951Z</time></trkpt><trkpt lat="44.548376731090755" lon="9.938130029842966"><ele>336.0</ele><time>2026-04-03T12:54:49.951Z</time></trkpt><trkpt lat="44.548493235427706" lon="9.938021797901477"><ele>334.0</ele><time>2026-04-03T12:54:50.951Z</time></trkpt><trkpt lat="44.54860112687263" lon="9.937909895898661"><ele>332.0</ele><time>2026-04-03T12:54:51.951Z</time></trkpt><trkpt lat="44.54869386359512" lon="9.937775996575661"><ele>330.0</ele><time>2026-04-03T12:54:52.951Z</time></trkpt><trkpt lat="44.54876900063991" lon="9.937624277334656"><ele>330.75</ele><time>2026-04-03T12:54:53.951Z</time></trkpt><trkpt lat="44.54884586287982" lon="9.937480647820184"><ele>331.5</ele><time>2026-04-03T12:54:54.951Z</time></trkpt><trkpt lat="44.548942537791106" lon="9.937367131006656"><ele>332.25</ele><time>2026-04-03T12:54:55.948Z</time></trkpt><trkpt lat="44.54905829675209" lon="9.937298573968242"><ele>333.0</ele><time>2026-04-03T12:54:56.948Z</time></trkpt><trkpt lat="44.54918738818398" lon="9.937258194218355"><ele>333.0</ele><time>2026-04-03T12:54:57.948Z</time></trkpt><trkpt lat="44.5493145578178" lon="9.93721143406007"><ele>333.0</ele><time>2026-04-03T12:54:58.948Z</time></trkpt><trkpt lat="44.54944181186682" lon="9.937132715078187"><ele>333.0</ele><time>2026-04-03T12:54:59.948Z</time></trkpt><trkpt lat="44.5495628603485" lon="9.937040191835044"><ele>333.0</ele><time>2026-04-03T12:55:00.948Z</time></trkpt><trkpt lat="44.54967523051474" lon="9.936960622425659"><ele>334.2</ele><time>2026-04-03T12:55:01.949Z</time></trkpt><trkpt lat="44.54978007751261" lon="9.93691863034813"><ele>335.4</ele><time>2026-04-03T12:55:02.949Z</time></trkpt><trkpt lat="44.549883519462455" lon="9.936914956016475"><ele>336.59999999999997</ele><time>2026-04-03T12:55:03.949Z</time></trkpt><trkpt lat="44.54999403175644" lon="9.936952883077053"><ele>337.79999999999995</ele><time>2026-04-03T12:55:04.948Z</time></trkpt><trkpt lat="44.55010086921565" lon="9.937004024524526"><ele>339.0</ele><time>2026-04-03T12:55:05.948Z</time></trkpt><trkpt lat="44.55019514060734" lon="9.937038598349138"><ele>339.0</ele><time>2026-04-03T12:55:06.948Z</time></trkpt><trkpt lat="44.55027786041764" lon="9.937019643730846"><ele>339.0</ele><time>2026-04-03T12:55:07.948Z</time></trkpt><trkpt lat="44.5503351496607" lon="9.936947553291397"><ele>339.0</ele><time>2026-04-03T12:55:08.948Z</time></trkpt><trkpt lat="44.55037885565293" lon="9.936816033626998"><ele>339.0</ele><time>2026-04-03T12:55:09.948Z</time></trkpt><trkpt lat="44.55037849337784" lon="9.936639752438202"><ele>339.0</ele><time>2026-04-03T12:55:10.948Z</time></trkpt><trkpt lat="44.55037180319756" lon="9.936455464548263"><ele>338.6</ele><time>2026-04-03T12:55:11.948Z</time></trkpt><trkpt lat="44.55036731486329" lon="9.936260825942107"><ele>338.2</ele><time>2026-04-03T12:55:12.948Z</time></trkpt><trkpt lat="44.55039756703641" lon="9.936119869007433"><ele>337.8</ele><time>2026-04-03T12:55:13.948Z</time></trkpt><trkpt lat="44.55046121453677" lon="9.936022974936252"><ele>337.40000000000003</ele><time>2026-04-03T12:55:14.949Z</time></trkpt><trkpt lat="44.55054978550167" lon="9.935982928837085"><ele>337.0</ele><time>2026-04-03T12:55:15.949Z</time></trkpt><trkpt lat="44.55065205022453" lon="9.935973679929969"><ele>337.0</ele><time>2026-04-03T12:55:16.949Z</time></trkpt><trkpt lat="44.550757271339705" lon="9.93599777235479"><ele>337.0</ele><time>2026-04-03T12:55:17.949Z</time></trkpt><trkpt lat="44.55087269976838" lon="9.936060520158478"><ele>337.0</ele><time>2026-04-03T12:55:18.949Z</time></trkpt><trkpt lat="44.55099441665027" lon="9.936119855878498"><ele>337.0</ele><time>2026-04-03T12:55:19.949Z</time></trkpt><trkpt lat="44.55110128926912" lon="9.936166590936958"><ele>337.25</ele><time>2026-04-03T12:55:20.949Z</time></trkpt><trkpt lat="44.55120835777912" lon="9.936188147545854"><ele>337.5</ele><time>2026-04-03T12:55:21.949Z</time></trkpt><trkpt lat="44.55131695225392" lon="9.936160600765247"><ele>337.75</ele><time>2026-04-03T12:55:22.949Z</time></trkpt><trkpt lat="44.551406799553966" lon="9.936084676926484"><ele>338.0</ele><time>2026-04-03T12:55:23.949Z</time></trkpt><trkpt lat="44.55147855748591" lon="9.935937219122279"><ele>335.59999999999997</ele><time>2026-04-03T12:55:24.949Z</time></trkpt><trkpt lat="44.551518214650706" lon="9.935787110325018"><ele>333.2</ele><time>2026-04-03T12:55:25.949Z</time></trkpt><trkpt lat="44.551551322994236" lon="9.935653764675129"><ele>330.8</ele><time>2026-04-03T12:55:26.949Z</time></trkpt><trkpt lat="44.55161674515271" lon="9.935572587062872"><ele>328.4</ele><time>2026-04-03T12:55:27.949Z</time></trkpt><trkpt lat="44.55169960026069" lon="9.935546456726833"><ele>326.0</ele><time>2026-04-03T12:55:28.949Z</time></trkpt><trkpt lat="44.551799836981175" lon="9.935553886837853"><ele>326.0</ele><time>2026-04-03T12:55:29.949Z</time></trkpt><trkpt lat="44.55190190066308" lon="9.935541318679237"><ele>326.0</ele><time>2026-04-03T12:55:30.949Z</time></trkpt><trkpt lat="44.55199786204422" lon="9.935466050890684"><ele>326.0</ele><time>2026-04-03T12:55:31.949Z</time></trkpt><trkpt lat="44.55207011684404" lon="9.935295084707766"><ele>326.0</ele><time>2026-04-03T12:55:32.949Z</time></trkpt><trkpt lat="44.55213410286661" lon="9.935101610678036"><ele>325.33333333333337</ele><time>2026-04-03T12:55:33.949Z</time></trkpt><trkpt lat="44.55218737491862" lon="9.934884984426768"><ele>324.6666666666667</ele><time>2026-04-03T12:55:34.949Z</time></trkpt><trkpt lat="44.552258037359906" lon="9.934678666543316"><ele>324.0</ele><time>2026-04-03T12:55:35.949Z</time></trkpt><trkpt lat="44.55235989647782" lon="9.934482658056927"><ele>324.0</ele><time>2026-04-03T12:55:36.949Z</time></trkpt><trkpt lat="44.552464647124374" lon="9.93427894824987"><ele>324.0</ele><time>2026-04-03T12:55:37.949Z</time></trkpt><trkpt lat="44.552560989215685" lon="9.934084331659493"><ele>324.0</ele><time>2026-04-03T12:55:38.949Z</time></trkpt><trkpt lat="44.55266021920378" lon="9.933917422476302"><ele>325.25</ele><time>2026-04-03T12:55:39.949Z</time></trkpt><trkpt lat="44.55275246598937" lon="9.933740568587847"><ele>326.5</ele><time>2026-04-03T12:55:40.949Z</time></trkpt><trkpt lat="44.55283050426714" lon="9.933571252289537"><ele>327.75</ele><time>2026-04-03T12:55:41.949Z</time></trkpt><trkpt lat="44.55288678914068" lon="9.933386852121135"><ele>329.0</ele><time>2026-04-03T12:55:42.949Z</time></trkpt><trkpt lat="44.55291141091773" lon="9.933192095449499"><ele>329.0</ele><time>2026-04-03T12:55:43.949Z</time></trkpt><trkpt lat="44.55293484550453" lon="9.93297218096332"><ele>329.0</ele><time>2026-04-03T12:55:44.949Z</time></trkpt><trkpt lat="44.55296802848285" lon="9.93276406106889"><ele>329.0</ele><time>2026-04-03T12:55:45.949Z</time></trkpt><trkpt lat="44.55300097958643" lon="9.932565940879224"><ele>325.5</ele><time>2026-04-03T12:55:46.949Z</time></trkpt><trkpt lat="44.55303788401222" lon="9.932386836883058"><ele>322.0</ele><time>2026-04-03T12:55:47.949Z</time></trkpt><trkpt lat="44.55308038497224" lon="9.932222199972097"><ele>318.5</ele><time>2026-04-03T12:55:48.949Z</time></trkpt><trkpt lat="44.553143056841876" lon="9.932071923392416"><ele>315.0</ele><time>2026-04-03T12:55:49.949Z</time></trkpt><trkpt lat="44.55322401888307" lon="9.931935631326004"><ele>315.0</ele><time>2026-04-03T12:55:50.949Z</time></trkpt><trkpt lat="44.55331539531781" lon="9.931824984337373"><ele>315.0</ele><time>2026-04-03T12:55:51.949Z</time></trkpt><trkpt lat="44.553418216517485" lon="9.931759641062747"><ele>315.0</ele><time>2026-04-03T12:55:52.949Z</time></trkpt><trkpt lat="44.55353253170044" lon="9.931728962167037"><ele>315.0</ele><time>2026-04-03T12:55:53.949Z</time></trkpt><trkpt lat="44.55364536419476" lon="9.931722058315357"><ele>313.75</ele><time>2026-04-03T12:55:54.949Z</time></trkpt><trkpt lat="44.55377301708004" lon="9.931742734208862"><ele>312.5</ele><time>2026-04-03T12:55:55.949Z</time></trkpt><trkpt lat="44.553913565949436" lon="9.931796895809294"><ele>311.25</ele><time>2026-04-03T12:55:56.949Z</time></trkpt><trkpt lat="44.55406283919551" lon="9.931865386464725"><ele>310.0</ele><time>2026-04-03T12:55:57.949Z</time></trkpt><trkpt lat="44.554219116941596" lon="9.93194031175985"><ele>310.0</ele><time>2026-04-03T12:55:58.949Z</time></trkpt><trkpt lat="44.554365377619646" lon="9.93199495105796"><ele>310.0</ele><time>2026-04-03T12:55:59.949Z</time></trkpt><trkpt lat="44.55449915623393" lon="9.932043841851783"><ele>310.0</ele><time>2026-04-03T12:56:00.949Z</time></trkpt><trkpt lat="44.554605330052105" lon="9.932093752071252"><ele>310.0</ele><time>2026-04-03T12:56:01.949Z</time></trkpt><trkpt lat="44.55469033679764" lon="9.932129824124207"><ele>307.6</ele><time>2026-04-03T12:56:02.949Z</time></trkpt><trkpt lat="44.554779532793596" lon="9.932157755426372"><ele>305.2</ele><time>2026-04-03T12:56:03.949Z</time></trkpt><trkpt lat="44.5548635847013" lon="9.93218797904192"><ele>302.8</ele><time>2026-04-03T12:56:04.949Z</time></trkpt><trkpt lat="44.55497236344529" lon="9.93222463601506"><ele>300.4</ele><time>2026-04-03T12:56:05.949Z</time></trkpt><trkpt lat="44.5550845837147" lon="9.932284375292717"><ele>298.0</ele><time>2026-04-03T12:56:06.949Z</time></trkpt><trkpt lat="44.555184414632606" lon="9.932358762626157"><ele>298.0</ele><time>2026-04-03T12:56:07.949Z</time></trkpt><trkpt lat="44.555276430258324" lon="9.932428661548977"><ele>298.0</ele><time>2026-04-03T12:56:08.949Z</time></trkpt><trkpt lat="44.55536574924956" lon="9.932502214101406"><ele>298.0</ele><time>2026-04-03T12:56:09.949Z</time></trkpt><trkpt lat="44.555455247489775" lon="9.932568581363197"><ele>298.0</ele><time>2026-04-03T12:56:10.949Z</time></trkpt><trkpt lat="44.55553364127536" lon="9.932627500311062"><ele>298.0</ele><time>2026-04-03T12:56:11.949Z</time></trkpt><trkpt lat="44.55559270458906" lon="9.932676571808692"><ele>297.8</ele><time>2026-04-03T12:56:12.949Z</time></trkpt><trkpt lat="44.55565607839375" lon="9.932657859823284"><ele>297.6</ele><time>2026-04-03T12:56:13.949Z</time></trkpt><trkpt lat="44.55573327290162" lon="9.932568375340376"><ele>297.4</ele><time>2026-04-03T12:56:14.949Z</time></trkpt><trkpt lat="44.55581419774727" lon="9.932521407393653"><ele>297.2</ele><time>2026-04-03T12:56:15.949Z</time></trkpt><trkpt lat="44.555917693175026" lon="9.932534535532922"><ele>297.0</ele><time>2026-04-03T12:56:16.949Z</time></trkpt><trkpt lat="44.55602981826872" lon="9.932572159437346"><ele>297.0</ele><time>2026-04-03T12:56:17.949Z</time></trkpt><trkpt lat="44.556153637635106" lon="9.932621900962781"><ele>297.0</ele><time>2026-04-03T12:56:18.949Z</time></trkpt><trkpt lat="44.556289651991484" lon="9.932671421177782"><ele>297.0</ele><time>2026-04-03T12:56:19.949Z</time></trkpt><trkpt lat="44.5564346126844" lon="9.932718325820039"><ele>297.0</ele><time>2026-04-03T12:56:20.949Z</time></trkpt><trkpt lat="44.556590049984315" lon="9.932765017523838"><ele>297.0</ele><time>2026-04-03T12:56:21.949Z</time></trkpt><trkpt lat="44.55674300391318" lon="9.932809320018693"><ele>297.0</ele><time>2026-04-03T12:56:22.949Z</time></trkpt><trkpt lat="44.5568995600678" lon="9.93285610492277"><ele>297.0</ele><time>2026-04-03T12:56:23.949Z</time></trkpt><trkpt lat="44.55705906042657" lon="9.932919223756773"><ele>296.3333333333333</ele><time>2026-04-03T12:56:24.949Z</time></trkpt><trkpt lat="44.55722366928642" lon="9.93300640596252"><ele>295.66666666666663</ele><time>2026-04-03T12:56:25.949Z</time></trkpt><trkpt lat="44.55738762090076" lon="9.933111378619557"><ele>295.0</ele><time>2026-04-03T12:56:26.949Z</time></trkpt><trkpt lat="44.55755100767095" lon="9.933218694279011"><ele>295.0</ele><time>2026-04-03T12:56:27.949Z</time></trkpt><trkpt lat="44.55771467945622" lon="9.933334393677642"><ele>295.0</ele><time>2026-04-03T12:56:28.949Z</time></trkpt><trkpt lat="44.55787492209668" lon="9.93346008095777"><ele>295.0</ele><time>2026-04-03T12:56:29.949Z</time></trkpt><trkpt lat="44.558039152562365" lon="9.933593309115958"><ele>295.3333333333333</ele><time>2026-04-03T12:56:30.949Z</time></trkpt><trkpt lat="44.55820436602111" lon="9.933727108553576"><ele>295.6666666666667</ele><time>2026-04-03T12:56:31.949Z</time></trkpt><trkpt lat="44.55837205234944" lon="9.93385748794161"><ele>296.0</ele><time>2026-04-03T12:56:32.949Z</time></trkpt><trkpt lat="44.55853161379732" lon="9.933976858318573"><ele>296.0</ele><time>2026-04-03T12:56:33.949Z</time></trkpt><trkpt lat="44.558691182333256" lon="9.934088841937896"><ele>296.0</ele><time>2026-04-03T12:56:34.949Z</time></trkpt><trkpt lat="44.55884596632338" lon="9.934197305990592"><ele>296.0</ele><time>2026-04-03T12:56:35.949Z</time></trkpt><trkpt lat="44.55899985266252" lon="9.934305767846622"><ele>296.0</ele><time>2026-04-03T12:56:36.949Z</time></trkpt><trkpt lat="44.5591556724495" lon="9.934415692479881"><ele>296.0</ele><time>2026-04-03T12:56:37.949Z</time></trkpt><trkpt lat="44.559303892312194" lon="9.934527268409811"><ele>296.0</ele><time>2026-04-03T12:56:38.949Z</time></trkpt><trkpt lat="44.55944564243795" lon="9.934651388706254"><ele>294.75</ele><time>2026-04-03T12:56:39.949Z</time></trkpt><trkpt lat="44.55957681906932" lon="9.93477096118463"><ele>293.5</ele><time>2026-04-03T12:56:40.949Z</time></trkpt><trkpt lat="44.55969247883418" lon="9.934888093419547"><ele>292.25</ele><time>2026-04-03T12:56:41.949Z</time></trkpt><trkpt lat="44.559798704410824" lon="9.935005943286956"><ele>291.0</ele><time>2026-04-03T12:56:42.949Z</time></trkpt><trkpt lat="44.55990561554834" lon="9.93511740383267"><ele>291.0</ele><time>2026-04-03T12:56:43.949Z</time></trkpt><trkpt lat="44.56000747412806" lon="9.935249791190522"><ele>291.0</ele><time>2026-04-03T12:56:44.949Z</time></trkpt><trkpt lat="44.56009688778712" lon="9.935418725758291"><ele>291.0</ele><time>2026-04-03T12:56:45.949Z</time></trkpt><trkpt lat="44.56016736403751" lon="9.935625055685962"><ele>291.0</ele><time>2026-04-03T12:56:46.949Z</time></trkpt><trkpt lat="44.560239058061704" lon="9.935846896019296"><ele>291.0</ele><time>2026-04-03T12:56:47.949Z</time></trkpt><trkpt lat="44.560316569584806" lon="9.936070185350156"><ele>291.0</ele><time>2026-04-03T12:56:48.949Z</time></trkpt><trkpt lat="44.56039326686275" lon="9.93627865404331"><ele>293.6666666666667</ele><time>2026-04-03T12:56:49.949Z</time></trkpt><trkpt lat="44.56046590536057" lon="9.936477850420523"><ele>296.33333333333337</ele><time>2026-04-03T12:56:50.949Z</time></trkpt><trkpt lat="44.56053843005073" lon="9.93666267507856"><ele>299.0</ele><time>2026-04-03T12:56:51.949Z</time></trkpt><trkpt lat="44.56061940173606" lon="9.936822705149222"><ele>299.0</ele><time>2026-04-03T12:56:52.949Z</time></trkpt><trkpt lat="44.56070527665326" lon="9.93696395789254"><ele>299.0</ele><time>2026-04-03T12:56:53.949Z</time></trkpt><trkpt lat="44.56081875961294" lon="9.937077837712975"><ele>299.0</ele><time>2026-04-03T12:56:54.949Z</time></trkpt><trkpt lat="44.560961634380696" lon="9.937168190475305"><ele>299.0</ele><time>2026-04-03T12:56:55.949Z</time></trkpt><trkpt lat="44.561116011500545" lon="9.937255351023023"><ele>293.33333333333337</ele><time>2026-04-03T12:56:56.949Z</time></trkpt><trkpt lat="44.56127436981667" lon="9.937343332377855"><ele>287.6666666666667</ele><time>2026-04-03T12:56:57.949Z</time></trkpt><trkpt lat="44.56142548196687" lon="9.937434550900774"><ele>282.0</ele><time>2026-04-03T12:56:58.949Z</time></trkpt><trkpt lat="44.5615668711596" lon="9.937529872178455"><ele>285.0</ele><time>2026-04-03T12:56:59.949Z</time></trkpt><trkpt lat="44.56168737811943" lon="9.937649681208724"><ele>288.0</ele><time>2026-04-03T12:57:00.949Z</time></trkpt><trkpt lat="44.561782116963094" lon="9.937785566788238"><ele>291.0</ele><time>2026-04-03T12:57:01.946Z</time></trkpt><trkpt lat="44.56186605049318" lon="9.937917676538149"><ele>294.0</ele><time>2026-04-03T12:57:02.946Z</time></trkpt><trkpt lat="44.5619578865215" lon="9.93802085987183"><ele>290.5</ele><time>2026-04-03T12:57:03.946Z</time></trkpt><trkpt lat="44.562057532889966" lon="9.938074772862079"><ele>287.0</ele><time>2026-04-03T12:57:04.946Z</time></trkpt><trkpt lat="44.562162564854496" lon="9.938082699163498"><ele>283.5</ele><time>2026-04-03T12:57:05.946Z</time></trkpt><trkpt lat="44.56227482918916" lon="9.938052856614252"><ele>280.0</ele><time>2026-04-03T12:57:06.946Z</time></trkpt><trkpt lat="44.562393164828244" lon="9.937990518840934"><ele>280.0</ele><time>2026-04-03T12:57:07.946Z</time></trkpt><trkpt lat="44.56249294725488" lon="9.93789821448673"><ele>280.0</ele><time>2026-04-03T12:57:08.946Z</time></trkpt><trkpt lat="44.5625798466801" lon="9.93779690412924"><ele>280.0</ele><time>2026-04-03T12:57:09.946Z</time></trkpt><trkpt lat="44.562663794347735" lon="9.937714982041271"><ele>280.0</ele><time>2026-04-03T12:57:10.946Z</time></trkpt><trkpt lat="44.56275110457259" lon="9.937685103503291"><ele>280.0</ele><time>2026-04-03T12:57:11.946Z</time></trkpt><trkpt lat="44.562845209391206" lon="9.937700527645339"><ele>278.6</ele><time>2026-04-03T12:57:12.946Z</time></trkpt><trkpt lat="44.56292354027725" lon="9.937747735038403"><ele>277.2</ele><time>2026-04-03T12:57:13.946Z</time></trkpt><trkpt lat="44.56299083330047" lon="9.937814836676935"><ele>275.8</ele><time>2026-04-03T12:57:14.946Z</time></trkpt><trkpt lat="44.56305070336797" lon="9.937913111914591"><ele>274.4</ele><time>2026-04-03T12:57:15.946Z</time></trkpt><trkpt lat="44.56311441415808" lon="9.938040456932915"><ele>273.0</ele><time>2026-04-03T12:57:16.946Z</time></trkpt><trkpt lat="44.56319797521776" lon="9.938177811521186"><ele>273.0</ele><time>2026-04-03T12:57:17.946Z</time></trkpt><trkpt lat="44.563298894229355" lon="9.938315835662296"><ele>273.0</ele><time>2026-04-03T12:57:18.946Z</time></trkpt><trkpt lat="44.5634185071313" lon="9.938454406127853"><ele>273.0</ele><time>2026-04-03T12:57:19.946Z</time></trkpt><trkpt lat="44.56354892830312" lon="9.938587516699362"><ele>274.3333333333333</ele><time>2026-04-03T12:57:20.946Z</time></trkpt><trkpt lat="44.56368804930832" lon="9.9387197029877"><ele>275.66666666666663</ele><time>2026-04-03T12:57:21.946Z</time></trkpt><trkpt lat="44.56383711659899" lon="9.938858347782359"><ele>277.0</ele><time>2026-04-03T12:57:22.946Z</time></trkpt><trkpt lat="44.563994590958515" lon="9.939005849872544"><ele>277.0</ele><time>2026-04-03T12:57:23.946Z</time></trkpt><trkpt lat="44.56415395158828" lon="9.93915628561047"><ele>277.0</ele><time>2026-04-03T12:57:24.946Z</time></trkpt><trkpt lat="44.56431466456335" lon="9.939312045369267"><ele>277.0</ele><time>2026-04-03T12:57:25.946Z</time></trkpt><trkpt lat="44.56447226899333" lon="9.939464324430661"><ele>276.0</ele><time>2026-04-03T12:57:26.946Z</time></trkpt><trkpt lat="44.564620581181785" lon="9.939619243051787"><ele>275.0</ele><time>2026-04-03T12:57:27.946Z</time></trkpt><trkpt lat="44.564762771655225" lon="9.939781459077189"><ele>274.0</ele><time>2026-04-03T12:57:28.946Z</time></trkpt><trkpt lat="44.564895198289015" lon="9.939957063076113"><ele>275.66666666666663</ele><time>2026-04-03T12:57:29.946Z</time></trkpt><trkpt lat="44.565022090841545" lon="9.940133197900794"><ele>277.3333333333333</ele><time>2026-04-03T12:57:30.946Z</time></trkpt><trkpt lat="44.56514918297867" lon="9.940308542632325"><ele>279.0</ele><time>2026-04-03T12:57:31.946Z</time></trkpt><trkpt lat="44.56527365565982" lon="9.940477891935393"><ele>278.3333333333333</ele><time>2026-04-03T12:57:32.946Z</time></trkpt><trkpt lat="44.56539162733367" lon="9.940643933531762"><ele>277.66666666666663</ele><time>2026-04-03T12:57:33.946Z</time></trkpt><trkpt lat="44.565498367894236" lon="9.940829050551407"><ele>277.0</ele><time>2026-04-03T12:57:34.946Z</time></trkpt><trkpt lat="44.565597407855705" lon="9.94103497397018"><ele>277.0</ele><time>2026-04-03T12:57:35.946Z</time></trkpt><trkpt lat="44.56568314360534" lon="9.941258981952922"><ele>277.0</ele><time>2026-04-03T12:57:36.946Z</time></trkpt><trkpt lat="44.56576561157918" lon="9.941482015426407"><ele>277.0</ele><time>2026-04-03T12:57:37.946Z</time></trkpt><trkpt lat="44.56584109059677" lon="9.941704546277556"><ele>278.0</ele><time>2026-04-03T12:57:38.946Z</time></trkpt><trkpt lat="44.565903583118676" lon="9.941909775729806"><ele>279.0</ele><time>2026-04-03T12:57:39.946Z</time></trkpt><trkpt lat="44.5659587473734" lon="9.942102885421622"><ele>280.0</ele><time>2026-04-03T12:57:40.946Z</time></trkpt><trkpt lat="44.56599322094185" lon="9.94230064320392"><ele>280.0</ele><time>2026-04-03T12:57:41.946Z</time></trkpt><trkpt lat="44.56600383535754" lon="9.942509161292547"><ele>280.0</ele><time>2026-04-03T12:57:42.946Z</time></trkpt><trkpt lat="44.56600720553268" lon="9.942716640153835"><ele>280.0</ele><time>2026-04-03T12:57:43.946Z</time></trkpt><trkpt lat="44.56601590512443" lon="9.942912022400147"><ele>280.0</ele><time>2026-04-03T12:57:44.946Z</time></trkpt><trkpt lat="44.566032491422206" lon="9.943085142611306"><ele>281.0</ele><time>2026-04-03T12:57:45.946Z</time></trkpt><trkpt lat="44.566053340093944" lon="9.943242658465616"><ele>282.0</ele><time>2026-04-03T12:57:46.946Z</time></trkpt><trkpt lat="44.56610021898705" lon="9.943375020653479"><ele>283.0</ele><time>2026-04-03T12:57:47.946Z</time></trkpt><trkpt lat="44.56619759728611" lon="9.943472466597058"><ele>284.0</ele><time>2026-04-03T12:57:48.946Z</time></trkpt><trkpt lat="44.5663209975649" lon="9.943534174836646"><ele>280.0</ele><time>2026-04-03T12:57:49.946Z</time></trkpt><trkpt lat="44.56647149759862" lon="9.943541215287025"><ele>276.0</ele><time>2026-04-03T12:57:50.946Z</time></trkpt><trkpt lat="44.566623358467" lon="9.94353709761879"><ele>272.0</ele><time>2026-04-03T12:57:51.946Z</time></trkpt><trkpt lat="44.56678771512126" lon="9.943544739507418"><ele>272.0</ele><time>2026-04-03T12:57:52.946Z</time></trkpt><trkpt lat="44.56696494206851" lon="9.943564218129147"><ele>272.0</ele><time>2026-04-03T12:57:53.946Z</time></trkpt><trkpt lat="44.56714745177108" lon="9.943583474756387"><ele>272.0</ele><time>2026-04-03T12:57:54.946Z</time></trkpt><trkpt lat="44.56733309309802" lon="9.943603154259575"><ele>269.0</ele><time>2026-04-03T12:57:55.946Z</time></trkpt><trkpt lat="44.56751531727481" lon="9.943623837572023"><ele>266.0</ele><time>2026-04-03T12:57:56.946Z</time></trkpt><trkpt lat="44.56768676614459" lon="9.943642832794339"><ele>263.0</ele><time>2026-04-03T12:57:57.946Z</time></trkpt><trkpt lat="44.56784472758981" lon="9.943662280489747"><ele>265.25</ele><time>2026-04-03T12:57:58.946Z</time></trkpt><trkpt lat="44.56798829343269" lon="9.943677684681969"><ele>267.5</ele><time>2026-04-03T12:57:59.946Z</time></trkpt><trkpt lat="44.568107242298886" lon="9.943699251535083"><ele>269.75</ele><time>2026-04-03T12:58:00.946Z</time></trkpt><trkpt lat="44.56820081104477" lon="9.943749150387355"><ele>272.0</ele><time>2026-04-03T12:58:01.946Z</time></trkpt><trkpt lat="44.56827062724672" lon="9.943840119408929"><ele>272.0</ele><time>2026-04-03T12:58:02.946Z</time></trkpt><trkpt lat="44.568323618605824" lon="9.943970943792541"><ele>272.0</ele><time>2026-04-03T12:58:03.946Z</time></trkpt><trkpt lat="44.56837773699711" lon="9.944122064517448"><ele>272.0</ele><time>2026-04-03T12:58:04.946Z</time></trkpt><trkpt lat="44.568443920496996" lon="9.944260356467641"><ele>272.0</ele><time>2026-04-03T12:58:05.946Z</time></trkpt><trkpt lat="44.568535757528174" lon="9.944366578650076"><ele>270.5</ele><time>2026-04-03T12:58:06.946Z</time></trkpt><trkpt lat="44.56865022209226" lon="9.944432667651546"><ele>269.0</ele><time>2026-04-03T12:58:07.946Z</time></trkpt><trkpt lat="44.56877774449309" lon="9.944483191790399"><ele>267.5</ele><time>2026-04-03T12:58:08.946Z</time></trkpt><trkpt lat="44.56891053548717" lon="9.94453464100229"><ele>266.0</ele><time>2026-04-03T12:58:09.946Z</time></trkpt><trkpt lat="44.56905588446546" lon="9.944575186258525"><ele>266.0</ele><time>2026-04-03T12:58:10.946Z</time></trkpt><trkpt lat="44.56919076383167" lon="9.944602918699365"><ele>266.0</ele><time>2026-04-03T12:58:11.946Z</time></trkpt><trkpt lat="44.56932078625193" lon="9.944585627016327"><ele>266.0</ele><time>2026-04-03T12:58:12.946Z</time></trkpt><trkpt lat="44.56944663321047" lon="9.944533434997588"><ele>266.0</ele><time>2026-04-03T12:58:13.946Z</time></trkpt><trkpt lat="44.569580546443184" lon="9.944430238865095"><ele>266.75</ele><time>2026-04-03T12:58:14.946Z</time></trkpt><trkpt lat="44.569696391617505" lon="9.944352264148252"><ele>267.5</ele><time>2026-04-03T12:58:15.946Z</time></trkpt><trkpt lat="44.56980945207947" lon="9.944309197035983"><ele>268.25</ele><time>2026-04-03T12:58:16.946Z</time></trkpt><trkpt lat="44.569932347917636" lon="9.944324171840526"><ele>269.0</ele><time>2026-04-03T12:58:17.946Z</time></trkpt><trkpt lat="44.57004990293599" lon="9.944404949642124"><ele>269.0</ele><time>2026-04-03T12:58:18.946Z</time></trkpt><trkpt lat="44.570151855862974" lon="9.94453898711645"><ele>269.0</ele><time>2026-04-03T12:58:19.946Z</time></trkpt><trkpt lat="44.570260874944246" lon="9.944665874555705"><ele>269.0</ele><time>2026-04-03T12:58:20.946Z</time></trkpt><trkpt lat="44.5703651854835" lon="9.94476332187031"><ele>269.0</ele><time>2026-04-03T12:58:21.946Z</time></trkpt><trkpt lat="44.57049471152913" lon="9.944817124228368"><ele>270.33333333333337</ele><time>2026-04-03T12:58:22.946Z</time></trkpt><trkpt lat="44.570652887860334" lon="9.944828625992573"><ele>271.6666666666667</ele><time>2026-04-03T12:58:23.946Z</time></trkpt><trkpt lat="44.57079912491057" lon="9.944830043453141"><ele>273.0</ele><time>2026-04-03T12:58:24.946Z</time></trkpt><trkpt lat="44.570957226682964" lon="9.944814633018073"><ele>273.0</ele><time>2026-04-03T12:58:25.946Z</time></trkpt><trkpt lat="44.5711180645214" lon="9.944791139965984"><ele>273.0</ele><time>2026-04-03T12:58:26.946Z</time></trkpt><trkpt lat="44.57128982717286" lon="9.944781584732503"><ele>273.0</ele><time>2026-04-03T12:58:27.946Z</time></trkpt><trkpt lat="44.57145814718692" lon="9.944802790297086"><ele>272.0</ele><time>2026-04-03T12:58:28.946Z</time></trkpt><trkpt lat="44.571636865319896" lon="9.944849594219917"><ele>271.0</ele><time>2026-04-03T12:58:29.946Z</time></trkpt><trkpt lat="44.571817708120285" lon="9.944921004381658"><ele>270.0</ele><time>2026-04-03T12:58:30.946Z</time></trkpt><trkpt lat="44.57200124475702" lon="9.944994679545195"><ele>267.0</ele><time>2026-04-03T12:58:31.946Z</time></trkpt><trkpt lat="44.57218613284314" lon="9.945062981852228"><ele>264.0</ele><time>2026-04-03T12:58:32.946Z</time></trkpt><trkpt lat="44.57236972054582" lon="9.945127066638326"><ele>261.0</ele><time>2026-04-03T12:58:33.946Z</time></trkpt><trkpt lat="44.57254122248681" lon="9.945184798476363"><ele>261.0</ele><time>2026-04-03T12:58:34.946Z</time></trkpt><trkpt lat="44.57270169425567" lon="9.945239394719895"><ele>261.0</ele><time>2026-04-03T12:58:35.946Z</time></trkpt><trkpt lat="44.57286403162938" lon="9.945287681973728"><ele>261.0</ele><time>2026-04-03T12:58:36.946Z</time></trkpt><trkpt lat="44.573038073785526" lon="9.945315537376104"><ele>261.3333333333333</ele><time>2026-04-03T12:58:37.946Z</time></trkpt><trkpt lat="44.573222087248034" lon="9.945307570983324"><ele>261.66666666666663</ele><time>2026-04-03T12:58:38.946Z</time></trkpt><trkpt lat="44.573408652223804" lon="9.945276735895897"><ele>262.0</ele><time>2026-04-03T12:58:39.946Z</time></trkpt><trkpt lat="44.57359983790555" lon="9.945240160537386"><ele>261.3333333333333</ele><time>2026-04-03T12:58:40.946Z</time></trkpt><trkpt lat="44.57378638024575" lon="9.945211008170565"><ele>260.6666666666667</ele><time>2026-04-03T12:58:41.946Z</time></trkpt><trkpt lat="44.573959325536855" lon="9.945186185400345"><ele>260.0</ele><time>2026-04-03T12:58:42.946Z</time></trkpt><trkpt lat="44.57410641710263" lon="9.945153187368742"><ele>260.0</ele><time>2026-04-03T12:58:43.946Z</time></trkpt><trkpt lat="44.57424558249616" lon="9.945095162472093"><ele>260.0</ele><time>2026-04-03T12:58:44.946Z</time></trkpt><trkpt lat="44.57438107185527" lon="9.944991035162559"><ele>260.0</ele><time>2026-04-03T12:58:45.946Z</time></trkpt><trkpt lat="44.5745042660933" lon="9.944856220498151"><ele>261.0</ele><time>2026-04-03T12:58:46.946Z</time></trkpt><trkpt lat="44.57462357967607" lon="9.944713463307918"><ele>262.0</ele><time>2026-04-03T12:58:47.946Z</time></trkpt><trkpt lat="44.57475980539311" lon="9.944557662466327"><ele>263.0</ele><time>2026-04-03T12:58:48.946Z</time></trkpt><trkpt lat="44.57490131276101" lon="9.94441193546567"><ele>263.0</ele><time>2026-04-03T12:58:49.946Z</time></trkpt><trkpt lat="44.57505016367931" lon="9.944290202720202"><ele>263.0</ele><time>2026-04-03T12:58:50.946Z</time></trkpt><trkpt lat="44.57521744647187" lon="9.944212571321566"><ele>263.0</ele><time>2026-04-03T12:58:51.946Z</time></trkpt><trkpt lat="44.57539482617214" lon="9.944164242941028"><ele>264.0</ele><time>2026-04-03T12:58:52.946Z</time></trkpt><trkpt lat="44.57557843845947" lon="9.944130515054697"><ele>265.0</ele><time>2026-04-03T12:58:53.946Z</time></trkpt><trkpt lat="44.575767657399226" lon="9.94409533605211"><ele>266.0</ele><time>2026-04-03T12:58:54.946Z</time></trkpt><trkpt lat="44.57596708809177" lon="9.944058312630885"><ele>266.0</ele><time>2026-04-03T12:58:55.946Z</time></trkpt><trkpt lat="44.57616569161951" lon="9.944042681785426"><ele>266.0</ele><time>2026-04-03T12:58:56.946Z</time></trkpt><trkpt lat="44.57636926065978" lon="9.944045506846532"><ele>266.0</ele><time>2026-04-03T12:58:57.946Z</time></trkpt><trkpt lat="44.576572383531165" lon="9.94403461878811"><ele>264.33333333333337</ele><time>2026-04-03T12:58:58.946Z</time></trkpt><trkpt lat="44.57675831310612" lon="9.944001566220303"><ele>262.6666666666667</ele><time>2026-04-03T12:58:59.946Z</time></trkpt><trkpt lat="44.576942440888885" lon="9.943933974300863"><ele>261.0</ele><time>2026-04-03T12:59:00.946Z</time></trkpt><trkpt lat="44.57711955570774" lon="9.943840874051526"><ele>259.6666666666667</ele><time>2026-04-03T12:59:01.946Z</time></trkpt><trkpt lat="44.57729470628334" lon="9.943724976938544"><ele>258.33333333333337</ele><time>2026-04-03T12:59:02.946Z</time></trkpt><trkpt lat="44.577462145515334" lon="9.943613223998021"><ele>257.0</ele><time>2026-04-03T12:59:03.946Z</time></trkpt><trkpt lat="44.577619953440255" lon="9.943495201398003"><ele>258.6666666666667</ele><time>2026-04-03T12:59:04.946Z</time></trkpt><trkpt lat="44.577779686378236" lon="9.943376712480086"><ele>260.3333333333333</ele><time>2026-04-03T12:59:05.946Z</time></trkpt><trkpt lat="44.57794073251583" lon="9.943276014974995"><ele>262.0</ele><time>2026-04-03T12:59:06.946Z</time></trkpt><trkpt lat="44.578106708758696" lon="9.943194772864162"><ele>262.0</ele><time>2026-04-03T12:59:07.945Z</time></trkpt><trkpt lat="44.57828182871112" lon="9.943139613659469"><ele>262.0</ele><time>2026-04-03T12:59:08.944Z</time></trkpt><trkpt lat="44.578459600005374" lon="9.943094841591506"><ele>262.0</ele><time>2026-04-03T12:59:09.944Z</time></trkpt><trkpt lat="44.5786406171355" lon="9.943062637365221"><ele>261.3333333333333</ele><time>2026-04-03T12:59:10.944Z</time></trkpt><trkpt lat="44.57882079063619" lon="9.943034088446291"><ele>260.6666666666667</ele><time>2026-04-03T12:59:11.944Z</time></trkpt><trkpt lat="44.57899324094517" lon="9.942995784845662"><ele>260.0</ele><time>2026-04-03T12:59:12.944Z</time></trkpt><trkpt lat="44.579158106916495" lon="9.942920946142749"><ele>260.0</ele><time>2026-04-03T12:59:13.944Z</time></trkpt><trkpt lat="44.579316743380396" lon="9.942846205756188"><ele>260.0</ele><time>2026-04-03T12:59:14.944Z</time></trkpt><trkpt lat="44.579465260242735" lon="9.942739147441118"><ele>260.0</ele><time>2026-04-03T12:59:15.944Z</time></trkpt><trkpt lat="44.579615452476794" lon="9.94261219175679"><ele>261.33333333333337</ele><time>2026-04-03T12:59:16.944Z</time></trkpt><trkpt lat="44.57976695051523" lon="9.942496920766255"><ele>262.6666666666667</ele><time>2026-04-03T12:59:17.944Z</time></trkpt><trkpt lat="44.57990442964817" lon="9.942366191040287"><ele>264.0</ele><time>2026-04-03T12:59:18.944Z</time></trkpt><trkpt lat="44.580056399557165" lon="9.942230112611398"><ele>264.0</ele><time>2026-04-03T12:59:19.945Z</time></trkpt><trkpt lat="44.58022649511313" lon="9.942156991009726"><ele>264.0</ele><time>2026-04-03T12:59:20.944Z</time></trkpt><trkpt lat="44.58039639808399" lon="9.942122925616955"><ele>264.0</ele><time>2026-04-03T12:59:21.944Z</time></trkpt><trkpt lat="44.58056860426892" lon="9.942122427994919"><ele>262.0</ele><time>2026-04-03T12:59:22.944Z</time></trkpt><trkpt lat="44.58073169634217" lon="9.942094523620575"><ele>260.0</ele><time>2026-04-03T12:59:23.944Z</time></trkpt><trkpt lat="44.58088548965427" lon="9.942036294497843"><ele>258.0</ele><time>2026-04-03T12:59:24.944Z</time></trkpt><trkpt lat="44.5810406673013" lon="9.941960370003528"><ele>258.0</ele><time>2026-04-03T12:59:25.944Z</time></trkpt><trkpt lat="44.581163017159064" lon="9.941888453449454"><ele>258.0</ele><time>2026-04-03T12:59:26.944Z</time></trkpt><trkpt lat="44.581276260146566" lon="9.941802478616635"><ele>258.0</ele><time>2026-04-03T12:59:27.944Z</time></trkpt><trkpt lat="44.581387467411666" lon="9.941704886483084"><ele>258.0</ele><time>2026-04-03T12:59:28.944Z</time></trkpt><trkpt lat="44.581493080880385" lon="9.941617425982722"><ele>258.8333333333333</ele><time>2026-04-03T12:59:29.944Z</time></trkpt><trkpt lat="44.581586810581626" lon="9.94153962718037"><ele>259.6666666666667</ele><time>2026-04-03T12:59:30.944Z</time></trkpt><trkpt lat="44.58167522517987" lon="9.9414772609962"><ele>260.5</ele><time>2026-04-03T12:59:31.944Z</time></trkpt><trkpt lat="44.581757307620514" lon="9.941434727865017"><ele>261.33333333333337</ele><time>2026-04-03T12:59:32.944Z</time></trkpt><trkpt lat="44.581838252121734" lon="9.941427960621573"><ele>262.1666666666667</ele><time>2026-04-03T12:59:33.944Z</time></trkpt><trkpt lat="44.581905982546544" lon="9.941426981318653"><ele>263.0</ele><time>2026-04-03T12:59:34.944Z</time></trkpt><trkpt lat="44.582006564571856" lon="9.941390385423876"><ele>262.6</ele><time>2026-04-03T12:59:36.944Z</time></trkpt><trkpt lat="44.58204571153693" lon="9.94131368166366"><ele>262.20000000000005</ele><time>2026-04-03T12:59:37.944Z</time></trkpt><trkpt lat="44.58207207593225" lon="9.941140408690787"><ele>261.8</ele><time>2026-04-03T12:59:39.944Z</time></trkpt><trkpt lat="44.58205852275378" lon="9.941050432331934"><ele>261.40000000000003</ele><time>2026-04-03T12:59:40.944Z</time></trkpt><trkpt lat="44.582039690905205" lon="9.940903691035189"><ele>261.0</ele><time>2026-04-03T12:59:42.944Z</time></trkpt><trkpt lat="44.582068290655954" lon="9.940785693402068"><ele>261.0</ele><time>2026-04-03T12:59:45.944Z</time></trkpt><trkpt lat="44.58205574641556" lon="9.94068114756706"><ele>261.0</ele><time>2026-04-03T12:59:48.944Z</time></trkpt><trkpt lat="44.582001332450936" lon="9.94063202900253"><ele>261.0</ele><time>2026-04-03T12:59:56.944Z</time></trkpt><trkpt lat="44.58195818949658" lon="9.940736991991246"><ele>261.0</ele><time>2026-04-03T12:59:59.944Z</time></trkpt><trkpt lat="44.58195455496129" lon="9.940897871421289"><ele>261.0</ele><time>2026-04-03T13:00:01.944Z</time></trkpt><trkpt lat="44.581941648199475" lon="9.940996232772179"><ele>261.0</ele><time>2026-04-03T13:00:02.944Z</time></trkpt><trkpt lat="44.581915797669744" lon="9.941093562358201"><ele>261.3333333333333</ele><time>2026-04-03T13:00:03.944Z</time></trkpt><trkpt lat="44.58188725650518" lon="9.94118249565601"><ele>261.6666666666667</ele><time>2026-04-03T13:00:04.944Z</time></trkpt><trkpt lat="44.5818442730494" lon="9.941258338178429"><ele>262.0</ele><time>2026-04-03T13:00:05.944Z</time></trkpt><trkpt lat="44.58176563801891" lon="9.941371873202998"><ele>262.33333333333337</ele><time>2026-04-03T13:00:06.944Z</time></trkpt><trkpt lat="44.58170201369974" lon="9.94142241515575"><ele>262.6666666666667</ele><time>2026-04-03T13:00:07.944Z</time></trkpt><trkpt lat="44.5816341859156" lon="9.9414739890153"><ele>263.0</ele><time>2026-04-03T13:00:08.944Z</time></trkpt><trkpt lat="44.58156448806813" lon="9.941525610349693"><ele>263.0</ele><time>2026-04-03T13:00:09.944Z</time></trkpt><trkpt lat="44.58149934600347" lon="9.941582962851129"><ele>263.0</ele><time>2026-04-03T13:00:10.944Z</time></trkpt><trkpt lat="44.58143881605823" lon="9.941637497912142"><ele>263.0</ele><time>2026-04-03T13:00:11.944Z</time></trkpt><trkpt lat="44.5813828071162" lon="9.94169127888222"><ele>263.0</ele><time>2026-04-03T13:00:12.944Z</time></trkpt><trkpt lat="44.58128646133986" lon="9.941850382715"><ele>263.0</ele><time>2026-04-03T13:00:15.944Z</time></trkpt><trkpt lat="44.58133381942751" lon="9.942006320760335"><ele>261.5</ele><time>2026-04-03T13:00:17.944Z</time></trkpt><trkpt lat="44.58139514052785" lon="9.942061123443139"><ele>260.0</ele><time>2026-04-03T13:00:18.944Z</time></trkpt><trkpt lat="44.58147011844303" lon="9.942088023499403"><ele>258.5</ele><time>2026-04-03T13:00:19.944Z</time></trkpt><trkpt lat="44.58154507835872" lon="9.94210717195582"><ele>257.0</ele><time>2026-04-03T13:00:20.944Z</time></trkpt><trkpt lat="44.58162250946111" lon="9.942117314150499"><ele>255.50000000000003</ele><time>2026-04-03T13:00:21.944Z</time></trkpt><trkpt lat="44.58170249621894" lon="9.942117198167857"><ele>254.0</ele><time>2026-04-03T13:00:22.944Z</time></trkpt><trkpt lat="44.581784152802" lon="9.942110381495018"><ele>254.0</ele><time>2026-04-03T13:00:23.944Z</time></trkpt><trkpt lat="44.58187837293739" lon="9.942108171783097"><ele>253.99999999999997</ele><time>2026-04-03T13:00:24.944Z</time></trkpt><trkpt lat="44.5819753464157" lon="9.942108510136329"><ele>253.99999999999997</ele><time>2026-04-03T13:00:25.944Z</time></trkpt><trkpt lat="44.58208095094722" lon="9.942113319645673"><ele>254.0</ele><time>2026-04-03T13:00:26.944Z</time></trkpt><trkpt lat="44.582195306870965" lon="9.942119812194965"><ele>254.0</ele><time>2026-04-03T13:00:27.944Z</time></trkpt><trkpt lat="44.58231221728816" lon="9.942129693442848"><ele>254.0</ele><time>2026-04-03T13:00:28.944Z</time></trkpt><trkpt lat="44.58243209392806" lon="9.942137726637567"><ele>254.0</ele><time>2026-04-03T13:00:29.944Z</time></trkpt><trkpt lat="44.582548759598374" lon="9.94215161250465"><ele>254.0</ele><time>2026-04-03T13:00:30.944Z</time></trkpt><trkpt lat="44.58266789293374" lon="9.942173329386037"><ele>254.0</ele><time>2026-04-03T13:00:31.944Z</time></trkpt><trkpt lat="44.58278458246506" lon="9.94220126746985"><ele>254.25</ele><time>2026-04-03T13:00:32.944Z</time></trkpt><trkpt lat="44.58290200548427" lon="9.942232353999666"><ele>254.5</ele><time>2026-04-03T13:00:33.945Z</time></trkpt><trkpt lat="44.5830155375928" lon="9.942267628161959"><ele>254.75</ele><time>2026-04-03T13:00:34.945Z</time></trkpt><trkpt lat="44.583123355731274" lon="9.942307109368572"><ele>255.0</ele><time>2026-04-03T13:00:35.945Z</time></trkpt><trkpt lat="44.58322973960725" lon="9.942345106052846"><ele>255.0</ele><time>2026-04-03T13:00:36.945Z</time></trkpt><trkpt lat="44.58333072847205" lon="9.942372021200464"><ele>255.0</ele><time>2026-04-03T13:00:37.945Z</time></trkpt><trkpt lat="44.58342957268895" lon="9.9423732875389"><ele>255.0</ele><time>2026-04-03T13:00:38.945Z</time></trkpt><trkpt lat="44.58352356441551" lon="9.942362151106808"><ele>255.0</ele><time>2026-04-03T13:00:39.945Z</time></trkpt><trkpt lat="44.58361985145326" lon="9.942362214046362"><ele>255.0</ele><time>2026-04-03T13:00:40.945Z</time></trkpt><trkpt lat="44.58371768484411" lon="9.942404724918525"><ele>254.25</ele><time>2026-04-03T13:00:41.945Z</time></trkpt><trkpt lat="44.583808677607834" lon="9.942481687951664"><ele>253.5</ele><time>2026-04-03T13:00:42.945Z</time></trkpt><trkpt lat="44.58390521496996" lon="9.94255878584618"><ele>252.75</ele><time>2026-04-03T13:00:43.945Z</time></trkpt><trkpt lat="44.58402678536415" lon="9.94261160165566"><ele>252.0</ele><time>2026-04-03T13:00:44.945Z</time></trkpt><trkpt lat="44.58415448128712" lon="9.942682361928307"><ele>252.0</ele><time>2026-04-03T13:00:45.945Z</time></trkpt><trkpt lat="44.584278366340484" lon="9.942759212887154"><ele>252.0</ele><time>2026-04-03T13:00:46.945Z</time></trkpt><trkpt lat="44.584413124767174" lon="9.942845559994602"><ele>252.0</ele><time>2026-04-03T13:00:47.945Z</time></trkpt><trkpt lat="44.5845459502934" lon="9.94295356287533"><ele>252.0</ele><time>2026-04-03T13:00:48.945Z</time></trkpt><trkpt lat="44.58468133314303" lon="9.943086824930235"><ele>252.0</ele><time>2026-04-03T13:00:49.945Z</time></trkpt><trkpt lat="44.58481585180751" lon="9.943230667733374"><ele>252.0</ele><time>2026-04-03T13:00:50.945Z</time></trkpt><trkpt lat="44.58495570988516" lon="9.94339216777347"><ele>252.0</ele><time>2026-04-03T13:00:51.945Z</time></trkpt><trkpt lat="44.585101412252214" lon="9.943546342389434"><ele>252.0</ele><time>2026-04-03T13:00:52.945Z</time></trkpt><trkpt lat="44.585237378596794" lon="9.9437016155807"><ele>252.0</ele><time>2026-04-03T13:00:53.945Z</time></trkpt><trkpt lat="44.585373512043454" lon="9.94385787934051"><ele>252.0</ele><time>2026-04-03T13:00:54.945Z</time></trkpt><trkpt lat="44.58551024666688" lon="9.944015855512717"><ele>252.66666666666669</ele><time>2026-04-03T13:00:55.945Z</time></trkpt><trkpt lat="44.58564530204051" lon="9.944167028631913"><ele>253.33333333333334</ele><time>2026-04-03T13:00:56.945Z</time></trkpt><trkpt lat="44.58577604283587" lon="9.944313002218534"><ele>254.0</ele><time>2026-04-03T13:00:57.945Z</time></trkpt><trkpt lat="44.58590493198021" lon="9.944456846816118"><ele>254.0</ele><time>2026-04-03T13:00:58.945Z</time></trkpt><trkpt lat="44.58603612755473" lon="9.944599569757552"><ele>254.0</ele><time>2026-04-03T13:00:59.945Z</time></trkpt><trkpt lat="44.58616699875869" lon="9.944744438711206"><ele>254.0</ele><time>2026-04-03T13:01:00.945Z</time></trkpt><trkpt lat="44.58629771883768" lon="9.944899010253343"><ele>253.33333333333334</ele><time>2026-04-03T13:01:01.945Z</time></trkpt><trkpt lat="44.586428122097274" lon="9.945053526317158"><ele>252.66666666666669</ele><time>2026-04-03T13:01:02.945Z</time></trkpt><trkpt lat="44.5865622912354" lon="9.945203748103632"><ele>252.0</ele><time>2026-04-03T13:01:03.945Z</time></trkpt><trkpt lat="44.58669368202466" lon="9.945346400688049"><ele>252.0</ele><time>2026-04-03T13:01:04.945Z</time></trkpt><trkpt lat="44.586825761994085" lon="9.945493576156661"><ele>252.0</ele><time>2026-04-03T13:01:05.945Z</time></trkpt><trkpt lat="44.58696154999852" lon="9.945633085894958"><ele>252.0</ele><time>2026-04-03T13:01:06.945Z</time></trkpt><trkpt lat="44.58709390290628" lon="9.945779943521671"><ele>251.66666666666669</ele><time>2026-04-03T13:01:07.945Z</time></trkpt><trkpt lat="44.58723114367097" lon="9.94592082002304"><ele>251.33333333333334</ele><time>2026-04-03T13:01:08.945Z</time></trkpt><trkpt lat="44.587367830852266" lon="9.946063800615937"><ele>251.0</ele><time>2026-04-03T13:01:09.945Z</time></trkpt><trkpt lat="44.58750903077177" lon="9.946202553747952"><ele>251.0</ele><time>2026-04-03T13:01:10.945Z</time></trkpt><trkpt lat="44.58764399569732" lon="9.946336439692233"><ele>251.0</ele><time>2026-04-03T13:01:11.945Z</time></trkpt><trkpt lat="44.58778386504624" lon="9.946465111881825"><ele>251.0</ele><time>2026-04-03T13:01:12.945Z</time></trkpt><trkpt lat="44.58792337853036" lon="9.946589044084565"><ele>250.0</ele><time>2026-04-03T13:01:13.943Z</time></trkpt><trkpt lat="44.58806099053545" lon="9.946715653732431"><ele>249.0</ele><time>2026-04-03T13:01:14.942Z</time></trkpt><trkpt lat="44.58819955699258" lon="9.946841352157593"><ele>248.0</ele><time>2026-04-03T13:01:15.942Z</time></trkpt><trkpt lat="44.5883516024064" lon="9.946939063698135"><ele>248.0</ele><time>2026-04-03T13:01:16.943Z</time></trkpt><trkpt lat="44.58852078706426" lon="9.947010006982547"><ele>248.0</ele><time>2026-04-03T13:01:17.942Z</time></trkpt><trkpt lat="44.58868907268489" lon="9.94706561362038"><ele>248.0</ele><time>2026-04-03T13:01:18.942Z</time></trkpt><trkpt lat="44.588850709017976" lon="9.947129096162394"><ele>249.66666666666669</ele><time>2026-04-03T13:01:19.942Z</time></trkpt><trkpt lat="44.588999989876974" lon="9.947209015392305"><ele>251.33333333333331</ele><time>2026-04-03T13:01:20.943Z</time></trkpt><trkpt lat="44.5891468966407" lon="9.947310248683735"><ele>253.0</ele><time>2026-04-03T13:01:21.943Z</time></trkpt><trkpt lat="44.58929394692677" lon="9.947452537835918"><ele>252.66666666666666</ele><time>2026-04-03T13:01:22.943Z</time></trkpt><trkpt lat="44.5894350789509" lon="9.947635537956927"><ele>252.33333333333331</ele><time>2026-04-03T13:01:23.942Z</time></trkpt><trkpt lat="44.58957382754705" lon="9.947817653206963"><ele>252.0</ele><time>2026-04-03T13:01:24.942Z</time></trkpt><trkpt lat="44.58971109297666" lon="9.947980641498795"><ele>252.0</ele><time>2026-04-03T13:01:25.942Z</time></trkpt><trkpt lat="44.58983688110334" lon="9.948131640255744"><ele>252.0</ele><time>2026-04-03T13:01:26.942Z</time></trkpt><trkpt lat="44.589964547893736" lon="9.948279731218426"><ele>252.0</ele><time>2026-04-03T13:01:27.942Z</time></trkpt><trkpt lat="44.59009294593746" lon="9.948433217984322"><ele>252.66666666666669</ele><time>2026-04-03T13:01:28.942Z</time></trkpt><trkpt lat="44.59021913663389" lon="9.948596837867834"><ele>253.33333333333334</ele><time>2026-04-03T13:01:29.942Z</time></trkpt><trkpt lat="44.59034653831816" lon="9.948754799340211"><ele>254.0</ele><time>2026-04-03T13:01:30.942Z</time></trkpt><trkpt lat="44.59047787983308" lon="9.94891402216553"><ele>254.0</ele><time>2026-04-03T13:01:31.942Z</time></trkpt><trkpt lat="44.590602941997595" lon="9.949067964851315"><ele>254.0</ele><time>2026-04-03T13:01:32.942Z</time></trkpt><trkpt lat="44.59073095917924" lon="9.949226263534733"><ele>254.0</ele><time>2026-04-03T13:01:33.942Z</time></trkpt><trkpt lat="44.59085669566411" lon="9.94937733401236"><ele>254.33333333333334</ele><time>2026-04-03T13:01:34.942Z</time></trkpt><trkpt lat="44.590986685929096" lon="9.94953625787932"><ele>254.66666666666669</ele><time>2026-04-03T13:01:35.942Z</time></trkpt><trkpt lat="44.591116613620976" lon="9.94969289092713"><ele>255.0</ele><time>2026-04-03T13:01:36.942Z</time></trkpt><trkpt lat="44.591252224610386" lon="9.949855687833955"><ele>255.0</ele><time>2026-04-03T13:01:37.942Z</time></trkpt><trkpt lat="44.59138638251346" lon="9.950016965745093"><ele>255.0</ele><time>2026-04-03T13:01:38.942Z</time></trkpt><trkpt lat="44.591509902545006" lon="9.950190639787987"><ele>255.0</ele><time>2026-04-03T13:01:39.942Z</time></trkpt><trkpt lat="44.59163257014035" lon="9.950375292956085"><ele>252.0</ele><time>2026-04-03T13:01:40.942Z</time></trkpt><trkpt lat="44.59175329111069" lon="9.950577006324078"><ele>249.0</ele><time>2026-04-03T13:01:41.942Z</time></trkpt><trkpt lat="44.59185551200588" lon="9.950797279827325"><ele>246.0</ele><time>2026-04-03T13:01:42.942Z</time></trkpt><trkpt lat="44.59194787642174" lon="9.951017488114559"><ele>247.33333333333331</ele><time>2026-04-03T13:01:43.942Z</time></trkpt><trkpt lat="44.59204183133759" lon="9.951236093713884"><ele>248.66666666666666</ele><time>2026-04-03T13:01:44.942Z</time></trkpt><trkpt lat="44.592136084456754" lon="9.951448578984404"><ele>250.0</ele><time>2026-04-03T13:01:45.942Z</time></trkpt><trkpt lat="44.59223510871197" lon="9.951658243937255"><ele>248.33333333333331</ele><time>2026-04-03T13:01:46.942Z</time></trkpt><trkpt lat="44.592331710713765" lon="9.951874102616294"><ele>246.66666666666669</ele><time>2026-04-03T13:01:47.942Z</time></trkpt><trkpt lat="44.59243372916137" lon="9.952097463318132"><ele>245.0</ele><time>2026-04-03T13:01:48.942Z</time></trkpt><trkpt lat="44.59253127563202" lon="9.952320227274013"><ele>243.33333333333334</ele><time>2026-04-03T13:01:49.942Z</time></trkpt><trkpt lat="44.59263220785265" lon="9.952546149781853"><ele>241.66666666666669</ele><time>2026-04-03T13:01:50.942Z</time></trkpt><trkpt lat="44.5927348431928" lon="9.952776413755512"><ele>240.0</ele><time>2026-04-03T13:01:51.942Z</time></trkpt><trkpt lat="44.59284174162959" lon="9.953013304549495"><ele>242.0</ele><time>2026-04-03T13:01:52.942Z</time></trkpt><trkpt lat="44.592952272804716" lon="9.953253869939923"><ele>244.0</ele><time>2026-04-03T13:01:53.942Z</time></trkpt><trkpt lat="44.59306006848373" lon="9.953498378469652"><ele>246.0</ele><time>2026-04-03T13:01:54.942Z</time></trkpt><trkpt lat="44.59316896508295" lon="9.953742815747818"><ele>246.0</ele><time>2026-04-03T13:01:55.942Z</time></trkpt><trkpt lat="44.59327696262149" lon="9.953991115264477"><ele>246.0</ele><time>2026-04-03T13:01:56.942Z</time></trkpt><trkpt lat="44.593382447630866" lon="9.95423265177999"><ele>246.0</ele><time>2026-04-03T13:01:57.942Z</time></trkpt><trkpt lat="44.59349183839401" lon="9.954474017958779"><ele>246.66666666666669</ele><time>2026-04-03T13:01:58.942Z</time></trkpt><trkpt lat="44.593599672801766" lon="9.954712428241917"><ele>247.33333333333334</ele><time>2026-04-03T13:01:59.942Z</time></trkpt><trkpt lat="44.593703311249" lon="9.954948654989103"><ele>248.0</ele><time>2026-04-03T13:02:00.942Z</time></trkpt><trkpt lat="44.593806440919174" lon="9.955181957631106"><ele>248.0</ele><time>2026-04-03T13:02:01.942Z</time></trkpt><trkpt lat="44.593910163625395" lon="9.955413628363567"><ele>248.0</ele><time>2026-04-03T13:02:02.942Z</time></trkpt><trkpt lat="44.594012058053764" lon="9.95564431854748"><ele>248.0</ele><time>2026-04-03T13:02:03.942Z</time></trkpt><trkpt lat="44.594113721532224" lon="9.955873778988199"><ele>246.33333333333334</ele><time>2026-04-03T13:02:04.942Z</time></trkpt><trkpt lat="44.59420816291766" lon="9.956103501203474"><ele>244.66666666666669</ele><time>2026-04-03T13:02:05.942Z</time></trkpt><trkpt lat="44.59431047786873" lon="9.95632756461647"><ele>243.0</ele><time>2026-04-03T13:02:06.942Z</time></trkpt><trkpt lat="44.594411852398814" lon="9.956554570479405"><ele>245.66666666666669</ele><time>2026-04-03T13:02:07.942Z</time></trkpt><trkpt lat="44.59450830267313" lon="9.956791694673669"><ele>248.33333333333334</ele><time>2026-04-03T13:02:08.942Z</time></trkpt><trkpt lat="44.59460147226612" lon="9.957041754677112"><ele>251.0</ele><time>2026-04-03T13:02:09.942Z</time></trkpt><trkpt lat="44.59469189146153" lon="9.957301778708489"><ele>249.33333333333334</ele><time>2026-04-03T13:02:10.942Z</time></trkpt><trkpt lat="44.594773262589484" lon="9.957569735750127"><ele>247.66666666666669</ele><time>2026-04-03T13:02:11.942Z</time></trkpt><trkpt lat="44.594833470913954" lon="9.957840292175439"><ele>246.0</ele><time>2026-04-03T13:02:12.942Z</time></trkpt><trkpt lat="44.59489913202389" lon="9.958117791320992"><ele>244.0</ele><time>2026-04-03T13:02:13.942Z</time></trkpt><trkpt lat="44.594969311936254" lon="9.95838908129299"><ele>242.0</ele><time>2026-04-03T13:02:14.942Z</time></trkpt><trkpt lat="44.59503993816346" lon="9.95866112580487"><ele>240.0</ele><time>2026-04-03T13:02:15.942Z</time></trkpt><trkpt lat="44.59511180274215" lon="9.958927707159155"><ele>240.0</ele><time>2026-04-03T13:02:16.942Z</time></trkpt><trkpt lat="44.59518324531024" lon="9.959184944446502"><ele>240.0</ele><time>2026-04-03T13:02:17.942Z</time></trkpt><trkpt lat="44.595249816557455" lon="9.959433002399322"><ele>240.0</ele><time>2026-04-03T13:02:18.942Z</time></trkpt><trkpt lat="44.59531999480998" lon="9.959678755831215"><ele>242.66666666666669</ele><time>2026-04-03T13:02:19.942Z</time></trkpt><trkpt lat="44.59538949859705" lon="9.959923621895918"><ele>245.33333333333334</ele><time>2026-04-03T13:02:20.942Z</time></trkpt><trkpt lat="44.59545397069677" lon="9.960169684502944"><ele>248.0</ele><time>2026-04-03T13:02:21.942Z</time></trkpt><trkpt lat="44.595524201085446" lon="9.960410253614743"><ele>248.0</ele><time>2026-04-03T13:02:22.942Z</time></trkpt><trkpt lat="44.595600945879404" lon="9.960652352401306"><ele>248.0</ele><time>2026-04-03T13:02:23.942Z</time></trkpt><trkpt lat="44.59569464437259" lon="9.96088378848669"><ele>248.0</ele><time>2026-04-03T13:02:24.942Z</time></trkpt><trkpt lat="44.595794095138274" lon="9.961108839951164"><ele>245.66666666666669</ele><time>2026-04-03T13:02:25.942Z</time></trkpt><trkpt lat="44.59590308518987" lon="9.961326603889768"><ele>243.33333333333331</ele><time>2026-04-03T13:02:26.942Z</time></trkpt><trkpt lat="44.59602227762044" lon="9.961536511915448"><ele>241.0</ele><time>2026-04-03T13:02:27.942Z</time></trkpt><trkpt lat="44.59614871409542" lon="9.96174418190896"><ele>241.0</ele><time>2026-04-03T13:02:28.942Z</time></trkpt><trkpt lat="44.59628243818436" lon="9.961940813678844"><ele>241.0</ele><time>2026-04-03T13:02:29.942Z</time></trkpt><trkpt lat="44.596422201066616" lon="9.962132228373582"><ele>241.0</ele><time>2026-04-03T13:02:30.943Z</time></trkpt><trkpt lat="44.59657223520762" lon="9.962319415261048"><ele>241.0</ele><time>2026-04-03T13:02:31.943Z</time></trkpt><trkpt lat="44.59672991143289" lon="9.962501263913861"><ele>241.0</ele><time>2026-04-03T13:02:32.943Z</time></trkpt><trkpt lat="44.596891192497836" lon="9.962676800965369"><ele>241.0</ele><time>2026-04-03T13:02:33.943Z</time></trkpt><trkpt lat="44.59705199826693" lon="9.962851683134968"><ele>241.33333333333331</ele><time>2026-04-03T13:02:34.943Z</time></trkpt><trkpt lat="44.59721406513071" lon="9.963034913454662"><ele>241.66666666666669</ele><time>2026-04-03T13:02:35.943Z</time></trkpt><trkpt lat="44.59737660261996" lon="9.96322279986768"><ele>242.0</ele><time>2026-04-03T13:02:36.943Z</time></trkpt><trkpt lat="44.59754272867534" lon="9.963410100619598"><ele>242.66666666666669</ele><time>2026-04-03T13:02:37.943Z</time></trkpt><trkpt lat="44.597706104094456" lon="9.963592254797668"><ele>243.33333333333331</ele><time>2026-04-03T13:02:38.943Z</time></trkpt><trkpt lat="44.597869255045424" lon="9.963774919382574"><ele>244.0</ele><time>2026-04-03T13:02:39.943Z</time></trkpt><trkpt lat="44.59802871433905" lon="9.963961312515666"><ele>244.0</ele><time>2026-04-03T13:02:40.943Z</time></trkpt><trkpt lat="44.598178743090806" lon="9.964131835592287"><ele>244.0</ele><time>2026-04-03T13:02:41.943Z</time></trkpt><trkpt lat="44.59832017176043" lon="9.964305538034687"><ele>244.0</ele><time>2026-04-03T13:02:42.943Z</time></trkpt><trkpt lat="44.5984521920356" lon="9.964479295246718"><ele>243.33333333333331</ele><time>2026-04-03T13:02:43.943Z</time></trkpt><trkpt lat="44.598586703036894" lon="9.964648293009848"><ele>242.66666666666669</ele><time>2026-04-03T13:02:44.943Z</time></trkpt><trkpt lat="44.59872161974411" lon="9.964815942626998"><ele>242.0</ele><time>2026-04-03T13:02:45.943Z</time></trkpt><trkpt lat="44.59885056704077" lon="9.964982524628562"><ele>240.66666666666669</ele><time>2026-04-03T13:02:46.943Z</time></trkpt><trkpt lat="44.59897463020488" lon="9.965163709069758"><ele>239.33333333333331</ele><time>2026-04-03T13:02:47.943Z</time></trkpt><trkpt lat="44.59909515165818" lon="9.965348636382913"><ele>238.0</ele><time>2026-04-03T13:02:48.943Z</time></trkpt><trkpt lat="44.599236035963344" lon="9.96554943991671"><ele>238.0</ele><time>2026-04-03T13:02:49.943Z</time></trkpt><trkpt lat="44.59937697584996" lon="9.96576083172726"><ele>238.0</ele><time>2026-04-03T13:02:50.943Z</time></trkpt><trkpt lat="44.599518604391235" lon="9.96597560189135"><ele>238.0</ele><time>2026-04-03T13:02:51.943Z</time></trkpt><trkpt lat="44.599658735195156" lon="9.96619308852413"><ele>237.33333333333331</ele><time>2026-04-03T13:02:52.943Z</time></trkpt><trkpt lat="44.599799103798524" lon="9.966403847606884"><ele>236.66666666666669</ele><time>2026-04-03T13:02:53.943Z</time></trkpt><trkpt lat="44.59993480998079" lon="9.96660963317658"><ele>236.0</ele><time>2026-04-03T13:02:54.943Z</time></trkpt><trkpt lat="44.60007230375077" lon="9.966807304380218"><ele>235.66666666666669</ele><time>2026-04-03T13:02:55.943Z</time></trkpt><trkpt lat="44.60020722845555" lon="9.967002284428238"><ele>235.33333333333331</ele><time>2026-04-03T13:02:56.943Z</time></trkpt><trkpt lat="44.6003416112479" lon="9.967194930051413"><ele>235.0</ele><time>2026-04-03T13:02:57.943Z</time></trkpt><trkpt lat="44.600478360726896" lon="9.96739015970296"><ele>234.33333333333331</ele><time>2026-04-03T13:02:58.943Z</time></trkpt><trkpt lat="44.600611410360145" lon="9.967586969643099"><ele>233.66666666666669</ele><time>2026-04-03T13:02:59.943Z</time></trkpt><trkpt lat="44.60074880368086" lon="9.967791021512305"><ele>233.0</ele><time>2026-04-03T13:03:00.943Z</time></trkpt><trkpt lat="44.6008886014607" lon="9.967992293355111"><ele>233.0</ele><time>2026-04-03T13:03:01.943Z</time></trkpt><trkpt lat="44.601025702941016" lon="9.968195902111049"><ele>233.0</ele><time>2026-04-03T13:03:02.943Z</time></trkpt><trkpt lat="44.601161344907474" lon="9.968397736884114"><ele>233.0</ele><time>2026-04-03T13:03:03.943Z</time></trkpt><trkpt lat="44.601293552189375" lon="9.968594066255227"><ele>234.0</ele><time>2026-04-03T13:03:04.943Z</time></trkpt><trkpt lat="44.601426415393824" lon="9.968789627481996"><ele>235.0</ele><time>2026-04-03T13:03:05.943Z</time></trkpt><trkpt lat="44.601558907327764" lon="9.968986992941861"><ele>236.0</ele><time>2026-04-03T13:03:06.943Z</time></trkpt><trkpt lat="44.60169380101446" lon="9.969179936919897"><ele>236.0</ele><time>2026-04-03T13:03:07.943Z</time></trkpt><trkpt lat="44.60182338105216" lon="9.969373354993149"><ele>236.0</ele><time>2026-04-03T13:03:08.943Z</time></trkpt><trkpt lat="44.60195012845959" lon="9.969563129425433"><ele>236.0</ele><time>2026-04-03T13:03:09.943Z</time></trkpt><trkpt lat="44.602077390241874" lon="9.969749486713361"><ele>236.0</ele><time>2026-04-03T13:03:10.943Z</time></trkpt><trkpt lat="44.60220601573944" lon="9.969936362426923"><ele>236.0</ele><time>2026-04-03T13:03:11.943Z</time></trkpt><trkpt lat="44.60233262407921" lon="9.970119326153752"><ele>236.0</ele><time>2026-04-03T13:03:12.943Z</time></trkpt><trkpt lat="44.60246064358523" lon="9.970305714720931"><ele>235.0</ele><time>2026-04-03T13:03:13.943Z</time></trkpt><trkpt lat="44.602591892683954" lon="9.970494721963096"><ele>234.0</ele><time>2026-04-03T13:03:14.943Z</time></trkpt><trkpt lat="44.602719848691436" lon="9.970681472967264"><ele>233.0</ele><time>2026-04-03T13:03:15.943Z</time></trkpt><trkpt lat="44.60284372697156" lon="9.970866860557303"><ele>233.0</ele><time>2026-04-03T13:03:16.943Z</time></trkpt><trkpt lat="44.602968291462005" lon="9.971047567395967"><ele>233.0</ele><time>2026-04-03T13:03:17.943Z</time></trkpt><trkpt lat="44.603090205008414" lon="9.971226444579537"><ele>233.0</ele><time>2026-04-03T13:03:18.943Z</time></trkpt><trkpt lat="44.6032215752652" lon="9.971419803624952"><ele>233.0</ele><time>2026-04-03T13:03:19.941Z</time></trkpt><trkpt lat="44.60337048521649" lon="9.971625461497078"><ele>233.0</ele><time>2026-04-03T13:03:20.941Z</time></trkpt><trkpt lat="44.603532781430935" lon="9.971844218969016"><ele>233.0</ele><time>2026-04-03T13:03:21.941Z</time></trkpt><trkpt lat="44.6036975905805" lon="9.972078778146184"><ele>233.0</ele><time>2026-04-03T13:03:22.941Z</time></trkpt><trkpt lat="44.60386866813371" lon="9.972335257473356"><ele>233.0</ele><time>2026-04-03T13:03:23.941Z</time></trkpt><trkpt lat="44.604041324368715" lon="9.972604198562165"><ele>231.0</ele><time>2026-04-03T13:03:24.941Z</time></trkpt><trkpt lat="44.60421220443579" lon="9.97286852869062"><ele>229.0</ele><time>2026-04-03T13:03:25.941Z</time></trkpt><trkpt lat="44.60437886721139" lon="9.973117459600132"><ele>231.0</ele><time>2026-04-03T13:03:26.941Z</time></trkpt><trkpt lat="44.60454939636571" lon="9.973353604484695"><ele>233.0</ele><time>2026-04-03T13:03:27.941Z</time></trkpt><trkpt lat="44.604720102529335" lon="9.973577296892419"><ele>233.0</ele><time>2026-04-03T13:03:28.941Z</time></trkpt><trkpt lat="44.60489313251394" lon="9.973794270823946"><ele>233.0</ele><time>2026-04-03T13:03:29.941Z</time></trkpt><trkpt lat="44.605061195862795" lon="9.974013272027184"><ele>233.0</ele><time>2026-04-03T13:03:30.941Z</time></trkpt><trkpt lat="44.605224831560236" lon="9.974228149045702"><ele>233.0</ele><time>2026-04-03T13:03:31.941Z</time></trkpt><trkpt lat="44.60538612893055" lon="9.974439795045864"><ele>233.0</ele><time>2026-04-03T13:03:32.941Z</time></trkpt><trkpt lat="44.60554073385449" lon="9.974646628757458"><ele>233.0</ele><time>2026-04-03T13:03:33.941Z</time></trkpt><trkpt lat="44.6056889968408" lon="9.974837145613284"><ele>233.0</ele><time>2026-04-03T13:03:34.941Z</time></trkpt><trkpt lat="44.60582880968245" lon="9.975019458496773"><ele>233.0</ele><time>2026-04-03T13:03:35.941Z</time></trkpt><trkpt lat="44.60596406232431" lon="9.975193146569929"><ele>232.66666666666669</ele><time>2026-04-03T13:03:36.941Z</time></trkpt><trkpt lat="44.606102333801545" lon="9.975360057495902"><ele>232.33333333333331</ele><time>2026-04-03T13:03:37.941Z</time></trkpt><trkpt lat="44.60624513918941" lon="9.975514793150428"><ele>232.0</ele><time>2026-04-03T13:03:38.941Z</time></trkpt><trkpt lat="44.60640041367295" lon="9.97564898981416"><ele>232.0</ele><time>2026-04-03T13:03:39.941Z</time></trkpt><trkpt lat="44.6065714811255" lon="9.975768139328453"><ele>232.0</ele><time>2026-04-03T13:03:40.941Z</time></trkpt><trkpt lat="44.60674408132659" lon="9.975865612499566"><ele>232.0</ele><time>2026-04-03T13:03:41.941Z</time></trkpt><trkpt lat="44.60692207585742" lon="9.975939433095968"><ele>230.66666666666666</ele><time>2026-04-03T13:03:42.941Z</time></trkpt><trkpt lat="44.60710441666692" lon="9.975993850993126"><ele>229.33333333333331</ele><time>2026-04-03T13:03:43.941Z</time></trkpt><trkpt lat="44.60728583341149" lon="9.976025572891702"><ele>228.0</ele><time>2026-04-03T13:03:44.941Z</time></trkpt><trkpt lat="44.60747737308176" lon="9.976041291308132"><ele>228.0</ele><time>2026-04-03T13:03:45.941Z</time></trkpt><trkpt lat="44.60766888881811" lon="9.976035015343921"><ele>228.0</ele><time>2026-04-03T13:03:46.941Z</time></trkpt><trkpt lat="44.60785839125601" lon="9.976024974007771"><ele>228.0</ele><time>2026-04-03T13:03:47.941Z</time></trkpt><trkpt lat="44.608046131111294" lon="9.97602895014687"><ele>229.66666666666669</ele><time>2026-04-03T13:03:48.941Z</time></trkpt><trkpt lat="44.60823771502326" lon="9.97604972654014"><ele>231.33333333333334</ele><time>2026-04-03T13:03:49.941Z</time></trkpt><trkpt lat="44.60843586617762" lon="9.976084653659386"><ele>233.0</ele><time>2026-04-03T13:03:50.941Z</time></trkpt><trkpt lat="44.60862380003205" lon="9.976133662098006"><ele>232.66666666666669</ele><time>2026-04-03T13:03:51.941Z</time></trkpt><trkpt lat="44.60880229809018" lon="9.976196145018672"><ele>232.33333333333331</ele><time>2026-04-03T13:03:52.941Z</time></trkpt><trkpt lat="44.6089816247309" lon="9.976257024761681"><ele>232.0</ele><time>2026-04-03T13:03:53.941Z</time></trkpt><trkpt lat="44.60915721217901" lon="9.976315369131699"><ele>232.0</ele><time>2026-04-03T13:03:54.941Z</time></trkpt><trkpt lat="44.60933506020122" lon="9.976375414625164"><ele>232.0</ele><time>2026-04-03T13:03:55.941Z</time></trkpt><trkpt lat="44.60951485680889" lon="9.97643588270031"><ele>232.0</ele><time>2026-04-03T13:03:56.941Z</time></trkpt><trkpt lat="44.609694528704786" lon="9.976495843532518"><ele>233.0</ele><time>2026-04-03T13:03:57.941Z</time></trkpt><trkpt lat="44.609875893472896" lon="9.976555400216673"><ele>234.0</ele><time>2026-04-03T13:03:58.941Z</time></trkpt><trkpt lat="44.61005735922336" lon="9.976607856221383"><ele>235.0</ele><time>2026-04-03T13:03:59.941Z</time></trkpt><trkpt lat="44.61023504873277" lon="9.976663159913546"><ele>234.0</ele><time>2026-04-03T13:04:00.941Z</time></trkpt><trkpt lat="44.610407105679485" lon="9.97672202950396"><ele>233.0</ele><time>2026-04-03T13:04:01.941Z</time></trkpt><trkpt lat="44.610581018977655" lon="9.976774497281147"><ele>232.0</ele><time>2026-04-03T13:04:02.941Z</time></trkpt><trkpt lat="44.61075977545545" lon="9.976826747055823"><ele>232.0</ele><time>2026-04-03T13:04:03.941Z</time></trkpt><trkpt lat="44.610933559668965" lon="9.976878997182387"><ele>232.0</ele><time>2026-04-03T13:04:04.941Z</time></trkpt><trkpt lat="44.61110112918644" lon="9.97692965999665"><ele>232.0</ele><time>2026-04-03T13:04:05.941Z</time></trkpt><trkpt lat="44.61126284797565" lon="9.976982290212996"><ele>232.66666666666666</ele><time>2026-04-03T13:04:06.941Z</time></trkpt><trkpt lat="44.61141746030232" lon="9.97703199551166"><ele>233.33333333333331</ele><time>2026-04-03T13:04:07.941Z</time></trkpt><trkpt lat="44.611569578798054" lon="9.977083329948638"><ele>234.0</ele><time>2026-04-03T13:04:08.941Z</time></trkpt><trkpt lat="44.61172522149068" lon="9.977127290330676"><ele>234.0</ele><time>2026-04-03T13:04:09.941Z</time></trkpt><trkpt lat="44.61188032407606" lon="9.977171785633537"><ele>234.0</ele><time>2026-04-03T13:04:10.941Z</time></trkpt><trkpt lat="44.61203440783338" lon="9.977223194313215"><ele>234.0</ele><time>2026-04-03T13:04:11.941Z</time></trkpt><trkpt lat="44.61218708285612" lon="9.977274173550063"><ele>234.5</ele><time>2026-04-03T13:04:12.941Z</time></trkpt><trkpt lat="44.6123380507209" lon="9.97732968373047"><ele>235.0</ele><time>2026-04-03T13:04:13.941Z</time></trkpt><trkpt lat="44.61249163290362" lon="9.977373695960297"><ele>235.5</ele><time>2026-04-03T13:04:14.941Z</time></trkpt><trkpt lat="44.61262496877782" lon="9.977414147107455"><ele>236.0</ele><time>2026-04-03T13:04:15.941Z</time></trkpt><trkpt lat="44.6127145376158" lon="9.977434824309807"><ele>236.00000000000003</ele><time>2026-04-03T13:04:16.941Z</time></trkpt><trkpt lat="44.61277645758447" lon="9.977455790918686"><ele>236.0</ele><time>2026-04-03T13:04:18.941Z</time></trkpt><trkpt lat="44.612869207778196" lon="9.97747527379565"><ele>236.0</ele><time>2026-04-03T13:04:31.941Z</time></trkpt><trkpt lat="44.612963461149306" lon="9.977506546238512"><ele>236.0</ele><time>2026-04-03T13:04:33.941Z</time></trkpt><trkpt lat="44.613034598887054" lon="9.977535679083653"><ele>236.00000000000003</ele><time>2026-04-03T13:04:34.941Z</time></trkpt><trkpt lat="44.61311299012366" lon="9.977577775404974"><ele>236.0</ele><time>2026-04-03T13:04:35.941Z</time></trkpt><trkpt lat="44.613199474286475" lon="9.977630843239176"><ele>235.4</ele><time>2026-04-03T13:04:36.941Z</time></trkpt><trkpt lat="44.61328493579091" lon="9.97768400215831"><ele>234.8</ele><time>2026-04-03T13:04:37.941Z</time></trkpt><trkpt lat="44.61337232174736" lon="9.977738117859335"><ele>234.20000000000002</ele><time>2026-04-03T13:04:38.941Z</time></trkpt><trkpt lat="44.61346016766544" lon="9.977795384638252"><ele>233.60000000000002</ele><time>2026-04-03T13:04:39.941Z</time></trkpt><trkpt lat="44.6135529271735" lon="9.977855092920874"><ele>233.0</ele><time>2026-04-03T13:04:40.941Z</time></trkpt><trkpt lat="44.61364828186402" lon="9.977920246554769"><ele>234.4</ele><time>2026-04-03T13:04:41.941Z</time></trkpt><trkpt lat="44.613746135226876" lon="9.977986749777058"><ele>235.8</ele><time>2026-04-03T13:04:42.941Z</time></trkpt><trkpt lat="44.61384127806776" lon="9.978058549799162"><ele>237.2</ele><time>2026-04-03T13:04:43.941Z</time></trkpt><trkpt lat="44.61393670922401" lon="9.978129518081877"><ele>238.6</ele><time>2026-04-03T13:04:44.941Z</time></trkpt><trkpt lat="44.61403846418731" lon="9.978188022236905"><ele>240.0</ele><time>2026-04-03T13:04:45.941Z</time></trkpt><trkpt lat="44.61413949485018" lon="9.978253227933658"><ele>240.0</ele><time>2026-04-03T13:04:46.941Z</time></trkpt><trkpt lat="44.614249337766466" lon="9.978310709570817"><ele>240.0</ele><time>2026-04-03T13:04:47.941Z</time></trkpt><trkpt lat="44.61435712326039" lon="9.978366424004887"><ele>240.0</ele><time>2026-04-03T13:04:48.941Z</time></trkpt><trkpt lat="44.614463753941024" lon="9.978426367890107"><ele>240.0</ele><time>2026-04-03T13:04:49.941Z</time></trkpt><trkpt lat="44.61457064094558" lon="9.978485547426052"><ele>239.4</ele><time>2026-04-03T13:04:50.941Z</time></trkpt><trkpt lat="44.61468146659304" lon="9.978542033758247"><ele>238.8</ele><time>2026-04-03T13:04:51.941Z</time></trkpt><trkpt lat="44.61478197987711" lon="9.97860371139374"><ele>238.2</ele><time>2026-04-03T13:04:52.941Z</time></trkpt><trkpt lat="44.61487994491695" lon="9.978662597842026"><ele>237.6</ele><time>2026-04-03T13:04:53.941Z</time></trkpt><trkpt lat="44.61497105864444" lon="9.978726301810061"><ele>237.0</ele><time>2026-04-03T13:04:54.941Z</time></trkpt><trkpt lat="44.61505388154785" lon="9.978797368277975"><ele>237.0</ele><time>2026-04-03T13:04:55.941Z</time></trkpt><trkpt lat="44.61512929694969" lon="9.978858796837232"><ele>237.0</ele><time>2026-04-03T13:04:56.941Z</time></trkpt><trkpt lat="44.61519420410311" lon="9.978936515864726"><ele>237.0</ele><time>2026-04-03T13:04:57.941Z</time></trkpt><trkpt lat="44.615263273289486" lon="9.9790036826426"><ele>237.0</ele><time>2026-04-03T13:04:58.941Z</time></trkpt><trkpt lat="44.61534837220344" lon="9.979045685720529"><ele>237.0</ele><time>2026-04-03T13:04:59.941Z</time></trkpt><trkpt lat="44.61543167433891" lon="9.979094988006365"><ele>237.0</ele><time>2026-04-03T13:05:00.941Z</time></trkpt><trkpt lat="44.615496993587314" lon="9.979174166715476"><ele>239.2</ele><time>2026-04-03T13:05:01.941Z</time></trkpt><trkpt lat="44.61554480417161" lon="9.9792917146776"><ele>241.39999999999998</ele><time>2026-04-03T13:05:02.941Z</time></trkpt><trkpt lat="44.61560383108285" lon="9.979413631663226"><ele>243.60000000000002</ele><time>2026-04-03T13:05:03.941Z</time></trkpt><trkpt lat="44.61566480922676" lon="9.979532828139712"><ele>245.8</ele><time>2026-04-03T13:05:04.941Z</time></trkpt><trkpt lat="44.61572817633641" lon="9.979658394205327"><ele>248.0</ele><time>2026-04-03T13:05:05.941Z</time></trkpt><trkpt lat="44.61579818650369" lon="9.979796166354443"><ele>248.0</ele><time>2026-04-03T13:05:06.941Z</time></trkpt><trkpt lat="44.61586657398291" lon="9.979939826954926"><ele>248.0</ele><time>2026-04-03T13:05:07.941Z</time></trkpt><trkpt lat="44.615936783590044" lon="9.980076054381575"><ele>248.0</ele><time>2026-04-03T13:05:08.941Z</time></trkpt><trkpt lat="44.616003863113356" lon="9.980204927553917"><ele>248.0</ele><time>2026-04-03T13:05:09.941Z</time></trkpt><trkpt lat="44.616062333374124" lon="9.980334572063631"><ele>246.0</ele><time>2026-04-03T13:05:10.941Z</time></trkpt><trkpt lat="44.61611739386104" lon="9.980465857463797"><ele>244.0</ele><time>2026-04-03T13:05:11.941Z</time></trkpt><trkpt lat="44.61618008136004" lon="9.980594654416983"><ele>242.0</ele><time>2026-04-03T13:05:12.941Z</time></trkpt><trkpt lat="44.61625444773711" lon="9.980717412306975"><ele>240.0</ele><time>2026-04-03T13:05:13.941Z</time></trkpt><trkpt lat="44.61633604946563" lon="9.980834668465072"><ele>243.8</ele><time>2026-04-03T13:05:14.941Z</time></trkpt><trkpt lat="44.61641222048979" lon="9.98094493040919"><ele>247.6</ele><time>2026-04-03T13:05:15.941Z</time></trkpt><trkpt lat="44.61649042899206" lon="9.981042597002338"><ele>251.39999999999998</ele><time>2026-04-03T13:05:16.941Z</time></trkpt><trkpt lat="44.61656477501387" lon="9.981113244270327"><ele>255.2</ele><time>2026-04-03T13:05:17.941Z</time></trkpt><trkpt lat="44.6166518228427" lon="9.98114404012886"><ele>259.0</ele><time>2026-04-03T13:05:18.942Z</time></trkpt><trkpt lat="44.61674349263091" lon="9.981134025105632"><ele>259.0</ele><time>2026-04-03T13:05:19.942Z</time></trkpt><trkpt lat="44.61682934900038" lon="9.9811019594423"><ele>259.0</ele><time>2026-04-03T13:05:20.942Z</time></trkpt><trkpt lat="44.616950372938696" lon="9.981054275058206"><ele>259.0</ele><time>2026-04-03T13:05:22.942Z</time></trkpt><trkpt lat="44.617042811618525" lon="9.981020317255144"><ele>259.0</ele><time>2026-04-03T13:05:24.942Z</time></trkpt><trkpt lat="44.61701554291698" lon="9.98093825551935"><ele>259.0</ele><time>2026-04-03T13:05:27.94Z</time></trkpt><trkpt lat="44.616955713258236" lon="9.980975344362399"><ele>259.0</ele><time>2026-04-03T13:05:29.94Z</time></trkpt><trkpt lat="44.61686693811952" lon="9.981048979268467"><ele>259.0</ele><time>2026-04-03T13:05:31.94Z</time></trkpt><trkpt lat="44.616786582344574" lon="9.980947872155697"><ele>259.0</ele><time>2026-04-03T13:05:33.94Z</time></trkpt><trkpt lat="44.616751861820546" lon="9.980855450812877"><ele>259.0</ele><time>2026-04-03T13:05:34.94Z</time></trkpt><trkpt lat="44.616706631919506" lon="9.98076127613543"><ele>259.0</ele><time>2026-04-03T13:05:35.94Z</time></trkpt><trkpt lat="44.61663813655563" lon="9.980662538042994"><ele>259.0</ele><time>2026-04-03T13:05:36.94Z</time></trkpt><trkpt lat="44.61656998528443" lon="9.980576010166908"><ele>259.59999999999997</ele><time>2026-04-03T13:05:37.939Z</time></trkpt><trkpt lat="44.61649939400957" lon="9.980477349568789"><ele>260.2</ele><time>2026-04-03T13:05:38.939Z</time></trkpt><trkpt lat="44.616442328192896" lon="9.980367425575393"><ele>260.79999999999995</ele><time>2026-04-03T13:05:39.939Z</time></trkpt><trkpt lat="44.616396309096366" lon="9.980242271825226"><ele>261.4</ele><time>2026-04-03T13:05:40.939Z</time></trkpt><trkpt lat="44.616377878672274" lon="9.980103961665055"><ele>262.0</ele><time>2026-04-03T13:05:41.939Z</time></trkpt><trkpt lat="44.61637100431882" lon="9.979944194949264"><ele>263.75</ele><time>2026-04-03T13:05:42.939Z</time></trkpt><trkpt lat="44.61635980069174" lon="9.979772866845886"><ele>265.5</ele><time>2026-04-03T13:05:43.939Z</time></trkpt><trkpt lat="44.61634548998967" lon="9.97960235921575"><ele>267.25</ele><time>2026-04-03T13:05:44.939Z</time></trkpt><trkpt lat="44.61633410395115" lon="9.979429026313207"><ele>269.0</ele><time>2026-04-03T13:05:45.939Z</time></trkpt><trkpt lat="44.61632094546736" lon="9.979251778035087"><ele>270.5</ele><time>2026-04-03T13:05:46.939Z</time></trkpt><trkpt lat="44.61630858196504" lon="9.979073715945816"><ele>272.0</ele><time>2026-04-03T13:05:47.939Z</time></trkpt><trkpt lat="44.6162962386659" lon="9.978894713732227"><ele>273.5</ele><time>2026-04-03T13:05:48.939Z</time></trkpt><trkpt lat="44.6162851954229" lon="9.978716849017745"><ele>275.0</ele><time>2026-04-03T13:05:49.939Z</time></trkpt><trkpt lat="44.61627575643572" lon="9.978548127589912"><ele>275.0</ele><time>2026-04-03T13:05:50.939Z</time></trkpt><trkpt lat="44.61626091946351" lon="9.978389220324726"><ele>275.0</ele><time>2026-04-03T13:05:51.939Z</time></trkpt><trkpt lat="44.61625140821221" lon="9.97824236838977"><ele>275.0</ele><time>2026-04-03T13:05:52.939Z</time></trkpt><trkpt lat="44.61625953984682" lon="9.978107246523122"><ele>275.0</ele><time>2026-04-03T13:05:53.939Z</time></trkpt><trkpt lat="44.616292797696175" lon="9.977975164640396"><ele>275.0</ele><time>2026-04-03T13:05:54.939Z</time></trkpt><trkpt lat="44.616354196347835" lon="9.977852983132577"><ele>275.5</ele><time>2026-04-03T13:05:55.939Z</time></trkpt><trkpt lat="44.61643410908781" lon="9.977748566745674"><ele>276.0</ele><time>2026-04-03T13:05:56.939Z</time></trkpt><trkpt lat="44.616527990253005" lon="9.97763723775365"><ele>276.5</ele><time>2026-04-03T13:05:57.939Z</time></trkpt><trkpt lat="44.616628455469446" lon="9.977533062601339"><ele>277.0</ele><time>2026-04-03T13:05:58.939Z</time></trkpt><trkpt lat="44.616751606363685" lon="9.97746008687969"><ele>277.5</ele><time>2026-04-03T13:05:59.939Z</time></trkpt><trkpt lat="44.61687826837436" lon="9.977397145754342"><ele>278.0</ele><time>2026-04-03T13:06:00.939Z</time></trkpt><trkpt lat="44.61699651247478" lon="9.977340175931703"><ele>278.5</ele><time>2026-04-03T13:06:01.939Z</time></trkpt><trkpt lat="44.61709239038473" lon="9.977251781089402"><ele>279.0</ele><time>2026-04-03T13:06:02.939Z</time></trkpt><trkpt lat="44.61716332071894" lon="9.977165517739325"><ele>279.0</ele><time>2026-04-03T13:06:03.939Z</time></trkpt><trkpt lat="44.6172319721946" lon="9.977108299957003"><ele>279.0</ele><time>2026-04-03T13:06:04.939Z</time></trkpt><trkpt lat="44.61731664579848" lon="9.977066939579775"><ele>279.0</ele><time>2026-04-03T13:06:05.939Z</time></trkpt><trkpt lat="44.61742542767572" lon="9.977051727184326"><ele>279.0</ele><time>2026-04-03T13:06:06.939Z</time></trkpt><trkpt lat="44.61755242526278" lon="9.977068249810806"><ele>279.0</ele><time>2026-04-03T13:06:07.939Z</time></trkpt><trkpt lat="44.617683794966304" lon="9.977118278947295"><ele>280.25</ele><time>2026-04-03T13:06:08.939Z</time></trkpt><trkpt lat="44.6178202373201" lon="9.97717824212114"><ele>281.5</ele><time>2026-04-03T13:06:09.939Z</time></trkpt><trkpt lat="44.6179380406926" lon="9.977230613049478"><ele>282.75</ele><time>2026-04-03T13:06:10.939Z</time></trkpt><trkpt lat="44.618034645593085" lon="9.977301838686229"><ele>284.0</ele><time>2026-04-03T13:06:11.939Z</time></trkpt><trkpt lat="44.61811583757835" lon="9.977395915360196"><ele>284.0</ele><time>2026-04-03T13:06:12.94Z</time></trkpt><trkpt lat="44.618167883478975" lon="9.977511768807954"><ele>284.0</ele><time>2026-04-03T13:06:13.94Z</time></trkpt><trkpt lat="44.61820081746034" lon="9.977654159935662"><ele>284.0</ele><time>2026-04-03T13:06:14.94Z</time></trkpt><trkpt lat="44.61821022412192" lon="9.977808399684031"><ele>284.0</ele><time>2026-04-03T13:06:15.94Z</time></trkpt><trkpt lat="44.61820600175245" lon="9.977970816688648"><ele>284.0</ele><time>2026-04-03T13:06:16.94Z</time></trkpt><trkpt lat="44.61820521690595" lon="9.978142714177805"><ele>286.5</ele><time>2026-04-03T13:06:17.94Z</time></trkpt><trkpt lat="44.618208886558904" lon="9.978327500482218"><ele>289.0</ele><time>2026-04-03T13:06:18.94Z</time></trkpt><trkpt lat="44.61821539889854" lon="9.978539145430643"><ele>291.5</ele><time>2026-04-03T13:06:19.94Z</time></trkpt><trkpt lat="44.6182230352244" lon="9.978772862908281"><ele>294.0</ele><time>2026-04-03T13:06:20.94Z</time></trkpt><trkpt lat="44.61822933988031" lon="9.979027117757942"><ele>296.0</ele><time>2026-04-03T13:06:21.94Z</time></trkpt><trkpt lat="44.61823615149677" lon="9.979256368201916"><ele>298.0</ele><time>2026-04-03T13:06:22.94Z</time></trkpt><trkpt lat="44.61823882146146" lon="9.979449690453146"><ele>300.0</ele><time>2026-04-03T13:06:23.94Z</time></trkpt><trkpt lat="44.618248920666105" lon="9.97960751380487"><ele>302.0</ele><time>2026-04-03T13:06:24.94Z</time></trkpt><trkpt lat="44.61826048157262" lon="9.979745988657863"><ele>302.0</ele><time>2026-04-03T13:06:25.94Z</time></trkpt><trkpt lat="44.61827794379565" lon="9.979897160070353"><ele>302.0</ele><time>2026-04-03T13:06:26.94Z</time></trkpt><trkpt lat="44.61831232213809" lon="9.980056814490332"><ele>302.0</ele><time>2026-04-03T13:06:27.94Z</time></trkpt><trkpt lat="44.61835698462193" lon="9.98021836597045"><ele>302.0</ele><time>2026-04-03T13:06:28.94Z</time></trkpt><trkpt lat="44.6183934241959" lon="9.980387408093417"><ele>301.75</ele><time>2026-04-03T13:06:29.94Z</time></trkpt><trkpt lat="44.61840223428864" lon="9.980562802604659"><ele>301.5</ele><time>2026-04-03T13:06:30.94Z</time></trkpt><trkpt lat="44.61839043832537" lon="9.980740454282506"><ele>301.25</ele><time>2026-04-03T13:06:31.94Z</time></trkpt><trkpt lat="44.61837868263058" lon="9.98092511534572"><ele>301.0</ele><time>2026-04-03T13:06:32.94Z</time></trkpt><trkpt lat="44.618370434217034" lon="9.98110950055143"><ele>303.25</ele><time>2026-04-03T13:06:33.94Z</time></trkpt><trkpt lat="44.61836157924293" lon="9.981300731324538"><ele>305.5</ele><time>2026-04-03T13:06:34.94Z</time></trkpt><trkpt lat="44.61835660972392" lon="9.98148923240389"><ele>307.75</ele><time>2026-04-03T13:06:35.94Z</time></trkpt><trkpt lat="44.61835616553272" lon="9.981681496460473"><ele>310.0</ele><time>2026-04-03T13:06:36.94Z</time></trkpt><trkpt lat="44.618349499631144" lon="9.981857838613278"><ele>312.6</ele><time>2026-04-03T13:06:37.94Z</time></trkpt><trkpt lat="44.61834593536648" lon="9.982020263486925"><ele>315.2</ele><time>2026-04-03T13:06:38.94Z</time></trkpt><trkpt lat="44.618331176849516" lon="9.982164372644444"><ele>317.79999999999995</ele><time>2026-04-03T13:06:39.94Z</time></trkpt><trkpt lat="44.61830366299137" lon="9.98230984278241"><ele>320.4</ele><time>2026-04-03T13:06:40.94Z</time></trkpt><trkpt lat="44.61825351898187" lon="9.982435565894114"><ele>323.0</ele><time>2026-04-03T13:06:41.94Z</time></trkpt><trkpt lat="44.618191757794015" lon="9.982563891853895"><ele>328.0</ele><time>2026-04-03T13:06:42.94Z</time></trkpt><trkpt lat="44.61811584348836" lon="9.982681994180291"><ele>333.0</ele><time>2026-04-03T13:06:43.94Z</time></trkpt><trkpt lat="44.61803266093225" lon="9.982808049143076"><ele>338.0</ele><time>2026-04-03T13:06:44.94Z</time></trkpt><trkpt lat="44.61796141426685" lon="9.982934422412937"><ele>343.0</ele><time>2026-04-03T13:06:45.94Z</time></trkpt><trkpt lat="44.61789444427964" lon="9.98307963556418"><ele>343.0</ele><time>2026-04-03T13:06:46.94Z</time></trkpt><trkpt lat="44.61783600183722" lon="9.98320285280176"><ele>343.0</ele><time>2026-04-03T13:06:47.94Z</time></trkpt><trkpt lat="44.61778327904297" lon="9.983305661231398"><ele>343.0</ele><time>2026-04-03T13:06:48.94Z</time></trkpt><trkpt lat="44.617752888831006" lon="9.983387847609213"><ele>343.0</ele><time>2026-04-03T13:06:49.94Z</time></trkpt><trkpt lat="44.61777625429217" lon="9.983524235468474"><ele>343.0</ele><time>2026-04-03T13:06:51.94Z</time></trkpt><trkpt lat="44.61791270433024" lon="9.983455179099007"><ele>343.0</ele><time>2026-04-03T13:06:53.94Z</time></trkpt><trkpt lat="44.6179668669885" lon="9.983311604393977"><ele>343.0</ele><time>2026-04-03T13:06:54.94Z</time></trkpt><trkpt lat="44.618010877006576" lon="9.98316129374676"><ele>343.0</ele><time>2026-04-03T13:06:55.94Z</time></trkpt><trkpt lat="44.61806321951431" lon="9.983025871555347"><ele>343.0</ele><time>2026-04-03T13:06:56.94Z</time></trkpt><trkpt lat="44.61814486086696" lon="9.98289541301661"><ele>343.0</ele><time>2026-04-03T13:06:57.94Z</time></trkpt><trkpt lat="44.61824810662863" lon="9.982800013179322"><ele>343.0</ele><time>2026-04-03T13:06:58.94Z</time></trkpt><trkpt lat="44.61835030698017" lon="9.982704985989566"><ele>343.0</ele><time>2026-04-03T13:06:59.94Z</time></trkpt><trkpt lat="44.618442248923245" lon="9.982597287054977"><ele>343.0</ele><time>2026-04-03T13:07:00.94Z</time></trkpt><trkpt lat="44.61854520825163" lon="9.982467076999438"><ele>345.25</ele><time>2026-04-03T13:07:01.94Z</time></trkpt><trkpt lat="44.618620425330256" lon="9.982313710552226"><ele>347.5</ele><time>2026-04-03T13:07:02.94Z</time></trkpt><trkpt lat="44.618702053930505" lon="9.982154224516627"><ele>349.75</ele><time>2026-04-03T13:07:03.94Z</time></trkpt><trkpt lat="44.6187899629759" lon="9.982008236150303"><ele>352.0</ele><time>2026-04-03T13:07:04.94Z</time></trkpt><trkpt lat="44.61889488647802" lon="9.9818754936749"><ele>352.0</ele><time>2026-04-03T13:07:05.94Z</time></trkpt><trkpt lat="44.619001257005394" lon="9.981748221163949"><ele>352.0</ele><time>2026-04-03T13:07:06.94Z</time></trkpt><trkpt lat="44.61911176062315" lon="9.981626182353205"><ele>352.0</ele><time>2026-04-03T13:07:07.94Z</time></trkpt><trkpt lat="44.61921587866076" lon="9.981497149537555"><ele>352.0</ele><time>2026-04-03T13:07:08.94Z</time></trkpt><trkpt lat="44.619316997970515" lon="9.981364045651393"><ele>352.75</ele><time>2026-04-03T13:07:09.94Z</time></trkpt><trkpt lat="44.61940948348642" lon="9.981239795629435"><ele>353.5</ele><time>2026-04-03T13:07:10.94Z</time></trkpt><trkpt lat="44.61950727534808" lon="9.981144434236645"><ele>354.25</ele><time>2026-04-03T13:07:11.94Z</time></trkpt><trkpt lat="44.619614529761" lon="9.98107606264432"><ele>355.0</ele><time>2026-04-03T13:07:12.94Z</time></trkpt><trkpt lat="44.61972474117651" lon="9.981027020477788"><ele>355.0</ele><time>2026-04-03T13:07:13.94Z</time></trkpt><trkpt lat="44.61984059964965" lon="9.98099869806744"><ele>355.0</ele><time>2026-04-03T13:07:14.94Z</time></trkpt><trkpt lat="44.619955637830614" lon="9.980992600717164"><ele>355.0</ele><time>2026-04-03T13:07:15.94Z</time></trkpt><trkpt lat="44.62006802968122" lon="9.980972323932175"><ele>355.0</ele><time>2026-04-03T13:07:16.94Z</time></trkpt><trkpt lat="44.62016611833369" lon="9.980907345135224"><ele>354.75</ele><time>2026-04-03T13:07:17.94Z</time></trkpt><trkpt lat="44.62025322610179" lon="9.980806312420238"><ele>354.5</ele><time>2026-04-03T13:07:18.94Z</time></trkpt><trkpt lat="44.62031654477503" lon="9.98066199905544"><ele>354.25</ele><time>2026-04-03T13:07:19.94Z</time></trkpt><trkpt lat="44.62038375826026" lon="9.980503827612283"><ele>354.0</ele><time>2026-04-03T13:07:20.94Z</time></trkpt><trkpt lat="44.620468716729896" lon="9.980383682497775"><ele>354.0</ele><time>2026-04-03T13:07:21.94Z</time></trkpt><trkpt lat="44.62056180380851" lon="9.980274596289934"><ele>354.0</ele><time>2026-04-03T13:07:22.94Z</time></trkpt><trkpt lat="44.6206480156517" lon="9.980155816631692"><ele>354.0</ele><time>2026-04-03T13:07:23.94Z</time></trkpt><trkpt lat="44.620715443733665" lon="9.980021576266036"><ele>354.0</ele><time>2026-04-03T13:07:24.94Z</time></trkpt><trkpt lat="44.62076563524768" lon="9.979899435016124"><ele>354.0</ele><time>2026-04-03T13:07:25.94Z</time></trkpt><trkpt lat="44.620810004767236" lon="9.979814245936698"><ele>354.0</ele><time>2026-04-03T13:07:26.94Z</time></trkpt><trkpt lat="44.62087583823121" lon="9.979763700862888"><ele>354.0</ele><time>2026-04-03T13:07:27.94Z</time></trkpt><trkpt lat="44.62096823186197" lon="9.979760529873074"><ele>354.0</ele><time>2026-04-03T13:07:28.94Z</time></trkpt><trkpt lat="44.621077864562565" lon="9.979789998005636"><ele>354.0</ele><time>2026-04-03T13:07:29.94Z</time></trkpt><trkpt lat="44.62119415905009" lon="9.979808534820567"><ele>354.0</ele><time>2026-04-03T13:07:30.94Z</time></trkpt><trkpt lat="44.621305892241644" lon="9.979832700766362"><ele>354.0</ele><time>2026-04-03T13:07:31.938Z</time></trkpt><trkpt lat="44.62138888153175" lon="9.979869051644712"><ele>354.0</ele><time>2026-04-03T13:07:32.939Z</time></trkpt><trkpt lat="44.62147971407255" lon="9.97992711233254"><ele>354.0</ele><time>2026-04-03T13:07:33.939Z</time></trkpt><trkpt lat="44.62156024235836" lon="9.980036386092234"><ele>354.0</ele><time>2026-04-03T13:07:34.938Z</time></trkpt><trkpt lat="44.62165281335147" lon="9.980152763588439"><ele>355.25</ele><time>2026-04-03T13:07:35.939Z</time></trkpt><trkpt lat="44.62174752045354" lon="9.98025732222127"><ele>356.5</ele><time>2026-04-03T13:07:36.939Z</time></trkpt><trkpt lat="44.62183753060698" lon="9.980361551802693"><ele>357.75</ele><time>2026-04-03T13:07:37.939Z</time></trkpt><trkpt lat="44.62191546636237" lon="9.980470959487878"><ele>359.0</ele><time>2026-04-03T13:07:38.938Z</time></trkpt><trkpt lat="44.62198855434293" lon="9.980587775216195"><ele>361.1666666666667</ele><time>2026-04-03T13:07:39.938Z</time></trkpt><trkpt lat="44.62206128222108" lon="9.98068769200909"><ele>363.33333333333337</ele><time>2026-04-03T13:07:40.939Z</time></trkpt><trkpt lat="44.622129638858205" lon="9.980760928359286"><ele>365.5</ele><time>2026-04-03T13:07:41.939Z</time></trkpt><trkpt lat="44.622199993679715" lon="9.980804671920888"><ele>367.6666666666667</ele><time>2026-04-03T13:07:42.939Z</time></trkpt><trkpt lat="44.62227994173391" lon="9.980827432977305"><ele>369.8333333333333</ele><time>2026-04-03T13:07:43.938Z</time></trkpt><trkpt lat="44.622369236641696" lon="9.98081207750994"><ele>372.0</ele><time>2026-04-03T13:07:44.938Z</time></trkpt><trkpt lat="44.62244865936149" lon="9.980746482237649"><ele>372.0</ele><time>2026-04-03T13:07:45.938Z</time></trkpt><trkpt lat="44.622513237624084" lon="9.980630465122026"><ele>372.0</ele><time>2026-04-03T13:07:46.938Z</time></trkpt><trkpt lat="44.62254834065281" lon="9.980493666856406"><ele>372.0</ele><time>2026-04-03T13:07:47.938Z</time></trkpt><trkpt lat="44.62255590452902" lon="9.980337175099836"><ele>372.0</ele><time>2026-04-03T13:07:48.938Z</time></trkpt><trkpt lat="44.6225532555368" lon="9.980181374231229"><ele>372.0</ele><time>2026-04-03T13:07:49.938Z</time></trkpt><trkpt lat="44.62257449863611" lon="9.980038368854366"><ele>370.6</ele><time>2026-04-03T13:07:50.938Z</time></trkpt><trkpt lat="44.62262065586229" lon="9.97989883770038"><ele>369.20000000000005</ele><time>2026-04-03T13:07:51.938Z</time></trkpt><trkpt lat="44.622685000491494" lon="9.979777479101292"><ele>367.8</ele><time>2026-04-03T13:07:52.938Z</time></trkpt><trkpt lat="44.62274720317932" lon="9.97966475420964"><ele>366.4</ele><time>2026-04-03T13:07:53.938Z</time></trkpt><trkpt lat="44.6228278448078" lon="9.979552746009077"><ele>365.0</ele><time>2026-04-03T13:07:54.938Z</time></trkpt><trkpt lat="44.62290881738613" lon="9.979489957466981"><ele>369.4</ele><time>2026-04-03T13:07:55.938Z</time></trkpt><trkpt lat="44.622995160916695" lon="9.97944638947558"><ele>373.8</ele><time>2026-04-03T13:07:56.938Z</time></trkpt><trkpt lat="44.62308907063206" lon="9.979414608760061"><ele>378.20000000000005</ele><time>2026-04-03T13:07:57.938Z</time></trkpt><trkpt lat="44.623189895730135" lon="9.979374119309616"><ele>382.6</ele><time>2026-04-03T13:07:58.938Z</time></trkpt><trkpt lat="44.62328792675105" lon="9.97931670860575"><ele>387.0</ele><time>2026-04-03T13:07:59.938Z</time></trkpt><trkpt lat="44.62337151073005" lon="9.979263896547344"><ele>387.0</ele><time>2026-04-03T13:08:00.938Z</time></trkpt><trkpt lat="44.62344127196014" lon="9.979215551320431"><ele>387.0</ele><time>2026-04-03T13:08:01.938Z</time></trkpt><trkpt lat="44.62350990083193" lon="9.979173937572583"><ele>387.0</ele><time>2026-04-03T13:08:02.938Z</time></trkpt><trkpt lat="44.62358008280795" lon="9.979130372676126"><ele>387.0</ele><time>2026-04-03T13:08:03.939Z</time></trkpt><trkpt lat="44.623651974400985" lon="9.979098724485258"><ele>387.0</ele><time>2026-04-03T13:08:04.939Z</time></trkpt><trkpt lat="44.62372512208531" lon="9.97907286119272"><ele>387.0</ele><time>2026-04-03T13:08:05.939Z</time></trkpt><trkpt lat="44.623804585775" lon="9.979054962324996"><ele>386.6</ele><time>2026-04-03T13:08:06.939Z</time></trkpt><trkpt lat="44.62389407770079" lon="9.979035165072265"><ele>386.20000000000005</ele><time>2026-04-03T13:08:07.939Z</time></trkpt><trkpt lat="44.62399396461028" lon="9.978987302502224"><ele>385.8</ele><time>2026-04-03T13:08:08.939Z</time></trkpt><trkpt lat="44.62409221694352" lon="9.978938648196928"><ele>385.4</ele><time>2026-04-03T13:08:09.939Z</time></trkpt><trkpt lat="44.624194041327556" lon="9.978877015770436"><ele>385.0</ele><time>2026-04-03T13:08:10.939Z</time></trkpt><trkpt lat="44.62428749034084" lon="9.97880444883544"><ele>385.00000000000006</ele><time>2026-04-03T13:08:11.939Z</time></trkpt><trkpt lat="44.62437041549203" lon="9.97874052394464"><ele>385.0</ele><time>2026-04-03T13:08:12.939Z</time></trkpt><trkpt lat="44.62445202980793" lon="9.97870114367497"><ele>385.0</ele><time>2026-04-03T13:08:13.939Z</time></trkpt><trkpt lat="44.62454023664898" lon="9.978688313076653"><ele>385.0</ele><time>2026-04-03T13:08:14.939Z</time></trkpt><trkpt lat="44.624622019027136" lon="9.978711555921018"><ele>385.00000000000006</ele><time>2026-04-03T13:08:15.939Z</time></trkpt><trkpt lat="44.624679669069124" lon="9.978779189910266"><ele>385.0</ele><time>2026-04-03T13:08:16.939Z</time></trkpt><trkpt lat="44.62469466727745" lon="9.978881137622585"><ele>385.0</ele><time>2026-04-03T13:08:17.939Z</time></trkpt><trkpt lat="44.62467047022514" lon="9.978975967447223"><ele>385.0</ele><time>2026-04-03T13:08:18.939Z</time></trkpt><trkpt lat="44.62461443654158" lon="9.979055800899499"><ele>385.0</ele><time>2026-04-03T13:08:19.939Z</time></trkpt><trkpt lat="44.62453314201484" lon="9.979115872847686"><ele>385.0</ele><time>2026-04-03T13:08:20.939Z</time></trkpt><trkpt lat="44.624433866789175" lon="9.979165004938228"><ele>385.0</ele><time>2026-04-03T13:08:21.939Z</time></trkpt><trkpt lat="44.62432706400825" lon="9.979212214245317"><ele>388.6</ele><time>2026-04-03T13:08:22.939Z</time></trkpt><trkpt lat="44.624217225056995" lon="9.979267172555344"><ele>392.2</ele><time>2026-04-03T13:08:23.939Z</time></trkpt><trkpt lat="44.62411410342318" lon="9.97931184857771"><ele>395.79999999999995</ele><time>2026-04-03T13:08:24.939Z</time></trkpt><trkpt lat="44.624005347042015" lon="9.979349204917856"><ele>399.4</ele><time>2026-04-03T13:08:25.939Z</time></trkpt><trkpt lat="44.62391644585211" lon="9.97935338582264"><ele>403.0</ele><time>2026-04-03T13:08:26.939Z</time></trkpt><trkpt lat="44.62384238013564" lon="9.97937365877658"><ele>403.0</ele><time>2026-04-03T13:08:27.939Z</time></trkpt><trkpt lat="44.62376232734024" lon="9.979529225568047"><ele>403.0</ele><time>2026-04-03T13:08:29.939Z</time></trkpt><trkpt lat="44.6237573060471" lon="9.97965097077653"><ele>403.0</ele><time>2026-04-03T13:08:30.939Z</time></trkpt><trkpt lat="44.62377990246472" lon="9.979811281173399"><ele>403.0</ele><time>2026-04-03T13:08:31.939Z</time></trkpt><trkpt lat="44.62379670220967" lon="9.979981934262723"><ele>406.25</ele><time>2026-04-03T13:08:32.939Z</time></trkpt><trkpt lat="44.62379892809265" lon="9.980152873445"><ele>409.5</ele><time>2026-04-03T13:08:33.939Z</time></trkpt><trkpt lat="44.623780170239776" lon="9.980318760639339"><ele>412.75</ele><time>2026-04-03T13:08:34.939Z</time></trkpt><trkpt lat="44.62374317466377" lon="9.980484336825121"><ele>416.0</ele><time>2026-04-03T13:08:35.939Z</time></trkpt><trkpt lat="44.62369199305547" lon="9.980639301734184"><ele>415.75</ele><time>2026-04-03T13:08:36.939Z</time></trkpt><trkpt lat="44.623624691844185" lon="9.980788921420288"><ele>415.5</ele><time>2026-04-03T13:08:37.939Z</time></trkpt><trkpt lat="44.623557620836245" lon="9.98093179937884"><ele>415.25</ele><time>2026-04-03T13:08:38.939Z</time></trkpt><trkpt lat="44.623497831035195" lon="9.981078602882219"><ele>415.0</ele><time>2026-04-03T13:08:39.939Z</time></trkpt><trkpt lat="44.623427939852" lon="9.981244579550834"><ele>415.0</ele><time>2026-04-03T13:08:40.939Z</time></trkpt><trkpt lat="44.62336384186185" lon="9.981425687875795"><ele>415.0</ele><time>2026-04-03T13:08:41.939Z</time></trkpt><trkpt lat="44.62329725917012" lon="9.981596667960263"><ele>415.0</ele><time>2026-04-03T13:08:42.939Z</time></trkpt><trkpt lat="44.62322849882699" lon="9.98175790810366"><ele>415.0</ele><time>2026-04-03T13:08:43.939Z</time></trkpt><trkpt lat="44.623158799081445" lon="9.981931828697784"><ele>416.75</ele><time>2026-04-03T13:08:44.939Z</time></trkpt><trkpt lat="44.6230848068709" lon="9.982105364512535"><ele>418.5</ele><time>2026-04-03T13:08:45.939Z</time></trkpt><trkpt lat="44.623020333495994" lon="9.982278114449315"><ele>420.25</ele><time>2026-04-03T13:08:46.939Z</time></trkpt><trkpt lat="44.62296367392872" lon="9.982424905700176"><ele>422.0</ele><time>2026-04-03T13:08:47.939Z</time></trkpt><trkpt lat="44.62291501059232" lon="9.982557114824967"><ele>422.20000000000005</ele><time>2026-04-03T13:08:48.939Z</time></trkpt><trkpt lat="44.62287395938173" lon="9.98268860969009"><ele>422.4</ele><time>2026-04-03T13:08:49.939Z</time></trkpt><trkpt lat="44.622846529554536" lon="9.982824071513466"><ele>422.6</ele><time>2026-04-03T13:08:50.939Z</time></trkpt><trkpt lat="44.622842370346916" lon="9.982966707376566"><ele>422.79999999999995</ele><time>2026-04-03T13:08:51.939Z</time></trkpt><trkpt lat="44.62284978522124" lon="9.983151086179348"><ele>423.0</ele><time>2026-04-03T13:08:52.939Z</time></trkpt><trkpt lat="44.622867483808754" lon="9.983344180155012"><ele>423.66666666666663</ele><time>2026-04-03T13:08:53.939Z</time></trkpt><trkpt lat="44.62289159802734" lon="9.983553551832959"><ele>424.3333333333333</ele><time>2026-04-03T13:08:54.939Z</time></trkpt><trkpt lat="44.62290674449913" lon="9.983761430476575"><ele>425.0</ele><time>2026-04-03T13:08:55.939Z</time></trkpt><trkpt lat="44.62292184410175" lon="9.983972274204548"><ele>425.0</ele><time>2026-04-03T13:08:56.939Z</time></trkpt><trkpt lat="44.62293666758395" lon="9.984164692429946"><ele>425.0</ele><time>2026-04-03T13:08:57.939Z</time></trkpt><trkpt lat="44.62293980409901" lon="9.984340698874847"><ele>425.0</ele><time>2026-04-03T13:08:58.939Z</time></trkpt><trkpt lat="44.62292737424682" lon="9.984502078621714"><ele>425.0</ele><time>2026-04-03T13:08:59.939Z</time></trkpt><trkpt lat="44.622885772319876" lon="9.984652687218613"><ele>424.0</ele><time>2026-04-03T13:09:00.939Z</time></trkpt><trkpt lat="44.622816961736866" lon="9.984797287111295"><ele>423.0</ele><time>2026-04-03T13:09:01.939Z</time></trkpt><trkpt lat="44.622739313133465" lon="9.984931410277241"><ele>422.0</ele><time>2026-04-03T13:09:02.939Z</time></trkpt><trkpt lat="44.62267002824205" lon="9.985065742937717"><ele>421.0</ele><time>2026-04-03T13:09:03.939Z</time></trkpt><trkpt lat="44.62260641292035" lon="9.985192133132996"><ele>421.0</ele><time>2026-04-03T13:09:04.939Z</time></trkpt><trkpt lat="44.62255745077889" lon="9.985318224275426"><ele>421.0</ele><time>2026-04-03T13:09:05.939Z</time></trkpt><trkpt lat="44.622522325798705" lon="9.985460780787962"><ele>421.0</ele><time>2026-04-03T13:09:06.939Z</time></trkpt><trkpt lat="44.62251482590901" lon="9.985622357277178"><ele>421.0</ele><time>2026-04-03T13:09:07.939Z</time></trkpt><trkpt lat="44.62252811621038" lon="9.985793657038572"><ele>421.0</ele><time>2026-04-03T13:09:08.939Z</time></trkpt><trkpt lat="44.622543769589306" lon="9.985976013611971"><ele>421.75</ele><time>2026-04-03T13:09:09.939Z</time></trkpt><trkpt lat="44.622558950475025" lon="9.986158448383405"><ele>422.5</ele><time>2026-04-03T13:09:10.939Z</time></trkpt><trkpt lat="44.622570201858196" lon="9.986349132576601"><ele>423.25</ele><time>2026-04-03T13:09:11.939Z</time></trkpt><trkpt lat="44.62257270141345" lon="9.986518728678867"><ele>424.0</ele><time>2026-04-03T13:09:12.939Z</time></trkpt><trkpt lat="44.62256892387391" lon="9.986670597680106"><ele>428.0</ele><time>2026-04-03T13:09:13.939Z</time></trkpt><trkpt lat="44.622542256950894" lon="9.986825350319721"><ele>432.0</ele><time>2026-04-03T13:09:14.939Z</time></trkpt><trkpt lat="44.62248834727675" lon="9.986973559218722"><ele>436.0</ele><time>2026-04-03T13:09:15.939Z</time></trkpt><trkpt lat="44.62240788101276" lon="9.987096747740086"><ele>440.0</ele><time>2026-04-03T13:09:16.939Z</time></trkpt><trkpt lat="44.6223071606339" lon="9.987173182903716"><ele>440.0</ele><time>2026-04-03T13:09:17.939Z</time></trkpt><trkpt lat="44.62218540060712" lon="9.987194580750828"><ele>440.0</ele><time>2026-04-03T13:09:18.939Z</time></trkpt><trkpt lat="44.62205371845364" lon="9.987181361850416"><ele>440.0</ele><time>2026-04-03T13:09:19.939Z</time></trkpt><trkpt lat="44.6219102454624" lon="9.9871500406071"><ele>440.0</ele><time>2026-04-03T13:09:20.939Z</time></trkpt><trkpt lat="44.6217670226564" lon="9.987120050534553"><ele>440.2</ele><time>2026-04-03T13:09:21.939Z</time></trkpt><trkpt lat="44.62162713923227" lon="9.98709293455292"><ele>440.4</ele><time>2026-04-03T13:09:22.939Z</time></trkpt><trkpt lat="44.62151684165351" lon="9.987077763618295"><ele>440.6</ele><time>2026-04-03T13:09:23.939Z</time></trkpt><trkpt lat="44.62142828042986" lon="9.98706393915248"><ele>440.8</ele><time>2026-04-03T13:09:24.939Z</time></trkpt><trkpt lat="44.6213350122027" lon="9.987123422790553"><ele>441.0</ele><time>2026-04-03T13:09:26.939Z</time></trkpt><trkpt lat="44.621384942404546" lon="9.987262375914204"><ele>441.0</ele><time>2026-04-03T13:09:28.939Z</time></trkpt><trkpt lat="44.621463149893486" lon="9.987299691704893"><ele>441.0</ele><time>2026-04-03T13:09:29.939Z</time></trkpt><trkpt lat="44.62155993555444" lon="9.987331204260782"><ele>441.0</ele><time>2026-04-03T13:09:30.939Z</time></trkpt><trkpt lat="44.6216639929907" lon="9.987386744471983"><ele>441.0</ele><time>2026-04-03T13:09:31.939Z</time></trkpt><trkpt lat="44.6217801566149" lon="9.987466140083674"><ele>441.0</ele><time>2026-04-03T13:09:32.939Z</time></trkpt><trkpt lat="44.621894427674945" lon="9.987560873003133"><ele>443.75</ele><time>2026-04-03T13:09:33.939Z</time></trkpt><trkpt lat="44.62201110047602" lon="9.987661429691952"><ele>446.5</ele><time>2026-04-03T13:09:34.939Z</time></trkpt><trkpt lat="44.622122377834756" lon="9.987757186925707"><ele>449.25</ele><time>2026-04-03T13:09:35.939Z</time></trkpt><trkpt lat="44.62223188815446" lon="9.987846296404443"><ele>452.0</ele><time>2026-04-03T13:09:36.939Z</time></trkpt><trkpt lat="44.62232552035967" lon="9.98793751042537"><ele>452.0</ele><time>2026-04-03T13:09:37.937Z</time></trkpt><trkpt lat="44.62240249988361" lon="9.988034138197692"><ele>452.00000000000006</ele><time>2026-04-03T13:09:38.937Z</time></trkpt><trkpt lat="44.62246842760974" lon="9.988127143618641"><ele>452.00000000000006</ele><time>2026-04-03T13:09:39.937Z</time></trkpt><trkpt lat="44.62254986198553" lon="9.988194152819514"><ele>452.0</ele><time>2026-04-03T13:09:40.937Z</time></trkpt><trkpt lat="44.622650679178356" lon="9.988228621634804"><ele>452.0</ele><time>2026-04-03T13:09:41.938Z</time></trkpt><trkpt lat="44.62276410556262" lon="9.988220635596134"><ele>454.0</ele><time>2026-04-03T13:09:42.938Z</time></trkpt><trkpt lat="44.62288447702467" lon="9.988183877359385"><ele>456.0</ele><time>2026-04-03T13:09:43.937Z</time></trkpt><trkpt lat="44.622996746641626" lon="9.98813635684256"><ele>458.0</ele><time>2026-04-03T13:09:44.937Z</time></trkpt><trkpt lat="44.62309942705592" lon="9.988057878106147"><ele>460.0</ele><time>2026-04-03T13:09:45.937Z</time></trkpt><trkpt lat="44.623194580540805" lon="9.987954413620947"><ele>460.0</ele><time>2026-04-03T13:09:46.937Z</time></trkpt><trkpt lat="44.62328438482473" lon="9.987839049883119"><ele>460.0</ele><time>2026-04-03T13:09:47.937Z</time></trkpt><trkpt lat="44.62337093236931" lon="9.987734808716047"><ele>460.0</ele><time>2026-04-03T13:09:48.937Z</time></trkpt><trkpt lat="44.62347161915918" lon="9.987660974994318"><ele>460.0</ele><time>2026-04-03T13:09:49.938Z</time></trkpt><trkpt lat="44.62357887399937" lon="9.98761225885852"><ele>462.6</ele><time>2026-04-03T13:09:50.937Z</time></trkpt><trkpt lat="44.623682641999885" lon="9.987565644582226"><ele>465.2</ele><time>2026-04-03T13:09:51.937Z</time></trkpt><trkpt lat="44.623774394324435" lon="9.987494330771815"><ele>467.79999999999995</ele><time>2026-04-03T13:09:52.937Z</time></trkpt><trkpt lat="44.623858426303066" lon="9.987395426423333"><ele>470.4</ele><time>2026-04-03T13:09:53.937Z</time></trkpt><trkpt lat="44.623941386654835" lon="9.987269531163227"><ele>473.0</ele><time>2026-04-03T13:09:54.937Z</time></trkpt><trkpt lat="44.624024404403556" lon="9.98710961169465"><ele>473.0</ele><time>2026-04-03T13:09:55.937Z</time></trkpt><trkpt lat="44.62409789567691" lon="9.986951277924566"><ele>472.99999999999994</ele><time>2026-04-03T13:09:56.937Z</time></trkpt><trkpt lat="44.624162009149764" lon="9.98681417566274"><ele>472.99999999999994</ele><time>2026-04-03T13:09:57.937Z</time></trkpt><trkpt lat="44.62421416662087" lon="9.986690698562379"><ele>473.0</ele><time>2026-04-03T13:09:58.937Z</time></trkpt><trkpt lat="44.62426226718693" lon="9.986584894913014"><ele>473.0</ele><time>2026-04-03T13:09:59.937Z</time></trkpt><trkpt lat="44.62430008935521" lon="9.986499663087924"><ele>474.16666666666663</ele><time>2026-04-03T13:10:00.937Z</time></trkpt><trkpt lat="44.624333050980596" lon="9.986420885571885"><ele>475.3333333333333</ele><time>2026-04-03T13:10:01.937Z</time></trkpt><trkpt lat="44.624358357425514" lon="9.986337420906725"><ele>476.5</ele><time>2026-04-03T13:10:02.937Z</time></trkpt><trkpt lat="44.62441552427318" lon="9.986266877890406"><ele>477.66666666666663</ele><time>2026-04-03T13:10:03.937Z</time></trkpt><trkpt lat="44.624494028443074" lon="9.986191093226045"><ele>478.8333333333333</ele><time>2026-04-03T13:10:04.937Z</time></trkpt><trkpt lat="44.62458784176264" lon="9.986110666705065"><ele>480.0</ele><time>2026-04-03T13:10:05.937Z</time></trkpt><trkpt lat="44.62468662978371" lon="9.986006827401638"><ele>480.0</ele><time>2026-04-03T13:10:06.937Z</time></trkpt><trkpt lat="44.62480273211809" lon="9.985912732067993"><ele>480.0</ele><time>2026-04-03T13:10:07.937Z</time></trkpt><trkpt lat="44.62491591375876" lon="9.985808510455506"><ele>480.0</ele><time>2026-04-03T13:10:08.937Z</time></trkpt><trkpt lat="44.6250185747862" lon="9.98569065470903"><ele>480.0</ele><time>2026-04-03T13:10:09.937Z</time></trkpt><trkpt lat="44.62511340354633" lon="9.985572058006719"><ele>478.75</ele><time>2026-04-03T13:10:10.937Z</time></trkpt><trkpt lat="44.62520353487955" lon="9.98545684386129"><ele>477.5</ele><time>2026-04-03T13:10:11.937Z</time></trkpt><trkpt lat="44.625299550020955" lon="9.985346807903047"><ele>476.25</ele><time>2026-04-03T13:10:12.937Z</time></trkpt><trkpt lat="44.62539712951287" lon="9.985252755311427"><ele>475.0</ele><time>2026-04-03T13:10:13.937Z</time></trkpt><trkpt lat="44.62550825024303" lon="9.985151089265827"><ele>477.5</ele><time>2026-04-03T13:10:14.937Z</time></trkpt><trkpt lat="44.625622865182834" lon="9.985039550472742"><ele>480.0</ele><time>2026-04-03T13:10:15.937Z</time></trkpt><trkpt lat="44.62573422020183" lon="9.984936431617285"><ele>482.5</ele><time>2026-04-03T13:10:16.937Z</time></trkpt><trkpt lat="44.62584620667308" lon="9.98484604151568"><ele>485.0</ele><time>2026-04-03T13:10:17.937Z</time></trkpt><trkpt lat="44.625951629014786" lon="9.984763156398376"><ele>484.99999999999994</ele><time>2026-04-03T13:10:18.937Z</time></trkpt><trkpt lat="44.62604494387204" lon="9.9846944454287"><ele>485.0</ele><time>2026-04-03T13:10:19.937Z</time></trkpt><trkpt lat="44.626126681645125" lon="9.98465731772597"><ele>485.0</ele><time>2026-04-03T13:10:20.937Z</time></trkpt><trkpt lat="44.626194690005065" lon="9.984666029010475"><ele>485.0</ele><time>2026-04-03T13:10:21.937Z</time></trkpt><trkpt lat="44.62625316739547" lon="9.984727321500559"><ele>484.99999999999994</ele><time>2026-04-03T13:10:22.937Z</time></trkpt><trkpt lat="44.626293676618594" lon="9.984831863301324"><ele>485.0</ele><time>2026-04-03T13:10:23.937Z</time></trkpt><trkpt lat="44.62634099060219" lon="9.984945872790744"><ele>488.25</ele><time>2026-04-03T13:10:24.937Z</time></trkpt><trkpt lat="44.626408263031" lon="9.985025550106819"><ele>491.5</ele><time>2026-04-03T13:10:25.937Z</time></trkpt><trkpt lat="44.62650961565072" lon="9.985067616807077"><ele>494.75</ele><time>2026-04-03T13:10:26.937Z</time></trkpt><trkpt lat="44.62663434099357" lon="9.985081716601277"><ele>498.0</ele><time>2026-04-03T13:10:27.937Z</time></trkpt><trkpt lat="44.62676447678405" lon="9.98506302793872"><ele>498.0</ele><time>2026-04-03T13:10:28.937Z</time></trkpt><trkpt lat="44.62688857777186" lon="9.985041659274934"><ele>498.0</ele><time>2026-04-03T13:10:29.937Z</time></trkpt><trkpt lat="44.62700577391501" lon="9.984985453042327"><ele>498.0</ele><time>2026-04-03T13:10:30.937Z</time></trkpt><trkpt lat="44.6271016078759" lon="9.984886710485386"><ele>498.0</ele><time>2026-04-03T13:10:31.937Z</time></trkpt><trkpt lat="44.62719698736076" lon="9.984750172492712"><ele>496.75</ele><time>2026-04-03T13:10:32.937Z</time></trkpt><trkpt lat="44.62727547713586" lon="9.984603148683421"><ele>495.5</ele><time>2026-04-03T13:10:33.937Z</time></trkpt><trkpt lat="44.6273461308094" lon="9.984458020211088"><ele>494.25</ele><time>2026-04-03T13:10:34.937Z</time></trkpt><trkpt lat="44.627409874271905" lon="9.984331773335297"><ele>493.0</ele><time>2026-04-03T13:10:35.937Z</time></trkpt><trkpt lat="44.62746593796256" lon="9.984233170838678"><ele>493.00000000000006</ele><time>2026-04-03T13:10:36.937Z</time></trkpt><trkpt lat="44.6275387118693" lon="9.984189415443238"><ele>493.0</ele><time>2026-04-03T13:10:37.937Z</time></trkpt><trkpt lat="44.627605886447036" lon="9.984184408371037"><ele>493.0</ele><time>2026-04-03T13:10:38.937Z</time></trkpt><trkpt lat="44.62768975279661" lon="9.98419818019847"><ele>493.0</ele><time>2026-04-03T13:10:39.937Z</time></trkpt><trkpt lat="44.62778550219323" lon="9.984210088656326"><ele>493.00000000000006</ele><time>2026-04-03T13:10:40.937Z</time></trkpt><trkpt lat="44.62788208598784" lon="9.984238822417725"><ele>493.0</ele><time>2026-04-03T13:10:41.937Z</time></trkpt><trkpt lat="44.627986977465" lon="9.984270735944742"><ele>494.4</ele><time>2026-04-03T13:10:42.937Z</time></trkpt><trkpt lat="44.628090561294094" lon="9.984300302048588"><ele>495.79999999999995</ele><time>2026-04-03T13:10:43.937Z</time></trkpt><trkpt lat="44.62818830889826" lon="9.984325927128868"><ele>497.2</ele><time>2026-04-03T13:10:44.937Z</time></trkpt><trkpt lat="44.6282811683863" lon="9.98433995292347"><ele>498.6</ele><time>2026-04-03T13:10:45.937Z</time></trkpt><trkpt lat="44.628368939355354" lon="9.984358101808162"><ele>500.0</ele><time>2026-04-03T13:10:46.937Z</time></trkpt><trkpt lat="44.628456323539055" lon="9.984381019704372"><ele>499.99999999999994</ele><time>2026-04-03T13:10:47.937Z</time></trkpt><trkpt lat="44.62854032951031" lon="9.984412547453246"><ele>500.0</ele><time>2026-04-03T13:10:48.937Z</time></trkpt><trkpt lat="44.62861553882536" lon="9.984458819955798"><ele>500.0</ele><time>2026-04-03T13:10:49.937Z</time></trkpt><trkpt lat="44.628688035071974" lon="9.984497448764978"><ele>500.0</ele><time>2026-04-03T13:10:50.937Z</time></trkpt><trkpt lat="44.62875771636002" lon="9.984508762245774"><ele>499.99999999999994</ele><time>2026-04-03T13:10:51.937Z</time></trkpt><trkpt lat="44.6288238311746" lon="9.984491083720467"><ele>500.0</ele><time>2026-04-03T13:10:52.937Z</time></trkpt><trkpt lat="44.62889185922878" lon="9.984390699502418"><ele>496.6</ele><time>2026-04-03T13:10:53.937Z</time></trkpt><trkpt lat="44.6289527050792" lon="9.984279954934195"><ele>493.2</ele><time>2026-04-03T13:10:54.937Z</time></trkpt><trkpt lat="44.62900335325196" lon="9.98414733859209"><ele>489.79999999999995</ele><time>2026-04-03T13:10:55.937Z</time></trkpt><trkpt lat="44.62905107802919" lon="9.983989428939104"><ele>486.4</ele><time>2026-04-03T13:10:56.937Z</time></trkpt><trkpt lat="44.629086412663796" lon="9.983840382571785"><ele>483.0</ele><time>2026-04-03T13:10:57.937Z</time></trkpt><trkpt lat="44.62911258107294" lon="9.983704391275618"><ele>482.2</ele><time>2026-04-03T13:10:58.937Z</time></trkpt><trkpt lat="44.62913573002734" lon="9.98357867870037"><ele>481.4</ele><time>2026-04-03T13:10:59.937Z</time></trkpt><trkpt lat="44.62916914311128" lon="9.983458861361743"><ele>480.59999999999997</ele><time>2026-04-03T13:11:00.937Z</time></trkpt><trkpt lat="44.62921795425139" lon="9.983353330210289"><ele>479.79999999999995</ele><time>2026-04-03T13:11:01.937Z</time></trkpt><trkpt lat="44.62929691096048" lon="9.983260936459745"><ele>479.0</ele><time>2026-04-03T13:11:02.937Z</time></trkpt><trkpt lat="44.62939801047314" lon="9.983190107070392"><ele>477.6</ele><time>2026-04-03T13:11:03.937Z</time></trkpt><trkpt lat="44.6295060771014" lon="9.98313955703414"><ele>476.2</ele><time>2026-04-03T13:11:04.937Z</time></trkpt><trkpt lat="44.62961175796301" lon="9.983090737920294"><ele>474.80000000000007</ele><time>2026-04-03T13:11:05.937Z</time></trkpt><trkpt lat="44.62970379850792" lon="9.983039112106235"><ele>473.40000000000003</ele><time>2026-04-03T13:11:06.937Z</time></trkpt><trkpt lat="44.62978349858337" lon="9.982977637701206"><ele>472.0</ele><time>2026-04-03T13:11:07.937Z</time></trkpt><trkpt lat="44.62985494833639" lon="9.982915101226663"><ele>472.0</ele><time>2026-04-03T13:11:08.937Z</time></trkpt><trkpt lat="44.629923499701235" lon="9.982855892708043"><ele>472.00000000000006</ele><time>2026-04-03T13:11:09.937Z</time></trkpt><trkpt lat="44.62998919356793" lon="9.982785722765152"><ele>472.00000000000006</ele><time>2026-04-03T13:11:10.937Z</time></trkpt><trkpt lat="44.630061543734584" lon="9.982703717661334"><ele>472.0</ele><time>2026-04-03T13:11:11.937Z</time></trkpt><trkpt lat="44.63013631832312" lon="9.982616021037872"><ele>472.0</ele><time>2026-04-03T13:11:12.937Z</time></trkpt><trkpt lat="44.630214233432035" lon="9.982519843444818"><ele>472.40000000000003</ele><time>2026-04-03T13:11:13.937Z</time></trkpt><trkpt lat="44.63029755149233" lon="9.982420066916067"><ele>472.80000000000007</ele><time>2026-04-03T13:11:14.937Z</time></trkpt><trkpt lat="44.6303808563351" lon="9.982331718236301"><ele>473.2</ele><time>2026-04-03T13:11:15.937Z</time></trkpt><trkpt lat="44.63047039109879" lon="9.982255805602529"><ele>473.6</ele><time>2026-04-03T13:11:16.937Z</time></trkpt><trkpt lat="44.6305553536995" lon="9.982199145751464"><ele>474.0</ele><time>2026-04-03T13:11:17.937Z</time></trkpt><trkpt lat="44.63062760636602" lon="9.982158455168715"><ele>474.0</ele><time>2026-04-03T13:11:18.937Z</time></trkpt><trkpt lat="44.63066776919092" lon="9.982059049651463"><ele>474.0</ele><time>2026-04-03T13:11:21.937Z</time></trkpt><trkpt lat="44.63072290648348" lon="9.982006952066724"><ele>474.0</ele><time>2026-04-03T13:16:21.936Z</time></trkpt><trkpt lat="44.63079562424923" lon="9.982015520419777"><ele>474.0</ele><time>2026-04-03T13:16:24.936Z</time></trkpt><trkpt lat="44.630892438238945" lon="9.98202479397893"><ele>474.0</ele><time>2026-04-03T13:16:27.936Z</time></trkpt><trkpt lat="44.63102115629038" lon="9.982012722710394"><ele>474.0</ele><time>2026-04-03T13:16:29.936Z</time></trkpt><trkpt lat="44.63109900316098" lon="9.982012129729318"><ele>473.4</ele><time>2026-04-03T13:16:30.936Z</time></trkpt><trkpt lat="44.63117800892193" lon="9.982014030063834"><ele>472.79999999999995</ele><time>2026-04-03T13:16:31.936Z</time></trkpt><trkpt lat="44.631262347232806" lon="9.982019139791733"><ele>472.20000000000005</ele><time>2026-04-03T13:16:32.936Z</time></trkpt><trkpt lat="44.63135608166631" lon="9.982025485847851"><ele>471.6</ele><time>2026-04-03T13:16:33.936Z</time></trkpt><trkpt lat="44.63145595917402" lon="9.982039242313526"><ele>471.0</ele><time>2026-04-03T13:16:34.936Z</time></trkpt><trkpt lat="44.631562637598876" lon="9.982054266323015"><ele>471.0</ele><time>2026-04-03T13:16:35.936Z</time></trkpt><trkpt lat="44.631672231888274" lon="9.982066080943811"><ele>471.0</ele><time>2026-04-03T13:16:36.936Z</time></trkpt><trkpt lat="44.631783907424676" lon="9.98207545007657"><ele>471.0</ele><time>2026-04-03T13:16:37.936Z</time></trkpt><trkpt lat="44.6318840988186" lon="9.982079793451271"><ele>471.0</ele><time>2026-04-03T13:16:38.936Z</time></trkpt><trkpt lat="44.631974896227895" lon="9.982083457535703"><ele>471.0</ele><time>2026-04-03T13:16:39.936Z</time></trkpt><trkpt lat="44.632057825250776" lon="9.982079472967676"><ele>470.6</ele><time>2026-04-03T13:16:40.936Z</time></trkpt><trkpt lat="44.632146682764215" lon="9.982066051077226"><ele>470.20000000000005</ele><time>2026-04-03T13:16:41.936Z</time></trkpt><trkpt lat="44.63223710277257" lon="9.982030270237157"><ele>469.79999999999995</ele><time>2026-04-03T13:16:42.936Z</time></trkpt><trkpt lat="44.63232969281211" lon="9.98198153413341"><ele>469.4</ele><time>2026-04-03T13:16:43.936Z</time></trkpt><trkpt lat="44.63241765409004" lon="9.981918845135567"><ele>469.0</ele><time>2026-04-03T13:16:44.936Z</time></trkpt><trkpt lat="44.63250005997863" lon="9.981851834752044"><ele>469.0</ele><time>2026-04-03T13:16:45.936Z</time></trkpt><trkpt lat="44.632583743299136" lon="9.98178642991202"><ele>469.0</ele><time>2026-04-03T13:16:46.936Z</time></trkpt><trkpt lat="44.63266884616697" lon="9.981722361388258"><ele>469.0</ele><time>2026-04-03T13:16:47.936Z</time></trkpt><trkpt lat="44.63275675748514" lon="9.981654227629285"><ele>469.0</ele><time>2026-04-03T13:16:48.936Z</time></trkpt><trkpt lat="44.632845678723555" lon="9.981572985121652"><ele>469.0</ele><time>2026-04-03T13:16:49.937Z</time></trkpt><trkpt lat="44.63293882844134" lon="9.981476449542418"><ele>469.25</ele><time>2026-04-03T13:16:50.937Z</time></trkpt><trkpt lat="44.63303478816746" lon="9.981375209719033"><ele>469.5</ele><time>2026-04-03T13:16:51.937Z</time></trkpt><trkpt lat="44.63313156786166" lon="9.981273053367548"><ele>469.75</ele><time>2026-04-03T13:16:52.937Z</time></trkpt><trkpt lat="44.6332353589885" lon="9.981163902158547"><ele>470.0</ele><time>2026-04-03T13:16:53.937Z</time></trkpt><trkpt lat="44.63333606473398" lon="9.9810462702534"><ele>470.0</ele><time>2026-04-03T13:16:54.937Z</time></trkpt><trkpt lat="44.63342883373506" lon="9.980919860947871"><ele>470.0</ele><time>2026-04-03T13:16:55.937Z</time></trkpt><trkpt lat="44.63351862586827" lon="9.980797285838412"><ele>470.0</ele><time>2026-04-03T13:16:56.937Z</time></trkpt><trkpt lat="44.633603395156705" lon="9.980670134043388"><ele>470.0</ele><time>2026-04-03T13:16:57.937Z</time></trkpt><trkpt lat="44.63368679582273" lon="9.980543979895286"><ele>469.25</ele><time>2026-04-03T13:16:58.937Z</time></trkpt><trkpt lat="44.633771540065716" lon="9.98042213878968"><ele>468.5</ele><time>2026-04-03T13:16:59.937Z</time></trkpt><trkpt lat="44.63385859365018" lon="9.98030348570154"><ele>467.75</ele><time>2026-04-03T13:17:00.937Z</time></trkpt><trkpt lat="44.633944720376434" lon="9.980187422771493"><ele>467.0</ele><time>2026-04-03T13:17:01.937Z</time></trkpt><trkpt lat="44.63402402774101" lon="9.980066993341348"><ele>468.0</ele><time>2026-04-03T13:17:02.937Z</time></trkpt><trkpt lat="44.634095577847255" lon="9.979947591963446"><ele>469.00000000000006</ele><time>2026-04-03T13:17:03.937Z</time></trkpt><trkpt lat="44.63415856621991" lon="9.979844426389288"><ele>470.00000000000006</ele><time>2026-04-03T13:17:04.937Z</time></trkpt><trkpt lat="44.63421967119291" lon="9.979749529704801"><ele>471.0</ele><time>2026-04-03T13:17:05.937Z</time></trkpt><trkpt lat="44.634278234200835" lon="9.979664787276704"><ele>472.0</ele><time>2026-04-03T13:17:06.937Z</time></trkpt><trkpt lat="44.63434016329077" lon="9.97960300086036"><ele>472.0</ele><time>2026-04-03T13:17:07.937Z</time></trkpt><trkpt lat="44.634420248113" lon="9.97958191911439"><ele>472.00000000000006</ele><time>2026-04-03T13:17:08.937Z</time></trkpt><trkpt lat="44.634510843563746" lon="9.979613705903446"><ele>472.00000000000006</ele><time>2026-04-03T13:17:09.937Z</time></trkpt><trkpt lat="44.6346044376128" lon="9.979686199384114"><ele>472.0</ele><time>2026-04-03T13:17:10.937Z</time></trkpt><trkpt lat="44.6346954872978" lon="9.979777384502372"><ele>472.0</ele><time>2026-04-03T13:17:11.937Z</time></trkpt><trkpt lat="44.63479223336387" lon="9.979862603784333"><ele>472.25</ele><time>2026-04-03T13:17:12.937Z</time></trkpt><trkpt lat="44.63488962695557" lon="9.979950619843962"><ele>472.5</ele><time>2026-04-03T13:17:13.937Z</time></trkpt><trkpt lat="44.634983827573286" lon="9.980043955659337"><ele>472.75</ele><time>2026-04-03T13:17:14.937Z</time></trkpt><trkpt lat="44.63507637660597" lon="9.980138906746506"><ele>473.0</ele><time>2026-04-03T13:17:15.937Z</time></trkpt><trkpt lat="44.635166077672174" lon="9.980233230481364"><ele>472.4</ele><time>2026-04-03T13:17:16.937Z</time></trkpt><trkpt lat="44.635254915400004" lon="9.980319139978597"><ele>471.79999999999995</ele><time>2026-04-03T13:17:17.937Z</time></trkpt><trkpt lat="44.63534485351817" lon="9.980391909788992"><ele>471.2</ele><time>2026-04-03T13:17:18.937Z</time></trkpt><trkpt lat="44.635441036286295" lon="9.980446998930592"><ele>470.6</ele><time>2026-04-03T13:17:19.937Z</time></trkpt><trkpt lat="44.63553663557887" lon="9.98047939648875"><ele>470.0</ele><time>2026-04-03T13:17:20.937Z</time></trkpt><trkpt lat="44.63563345461874" lon="9.980494162784739"><ele>471.2</ele><time>2026-04-03T13:17:21.937Z</time></trkpt><trkpt lat="44.63572848415295" lon="9.980499705172631"><ele>472.4</ele><time>2026-04-03T13:17:22.937Z</time></trkpt><trkpt lat="44.63583469380459" lon="9.98049143562498"><ele>473.6</ele><time>2026-04-03T13:17:23.937Z</time></trkpt><trkpt lat="44.63594548432409" lon="9.980471823246026"><ele>474.8</ele><time>2026-04-03T13:17:24.937Z</time></trkpt><trkpt lat="44.63605634706308" lon="9.980455098556092"><ele>476.0</ele><time>2026-04-03T13:17:25.937Z</time></trkpt><trkpt lat="44.63616777135007" lon="9.980444705752799"><ele>478.20000000000005</ele><time>2026-04-03T13:17:26.937Z</time></trkpt><trkpt lat="44.63627378731201" lon="9.980447242403597"><ele>480.40000000000003</ele><time>2026-04-03T13:17:27.937Z</time></trkpt><trkpt lat="44.6363854063173" lon="9.980458192614078"><ele>482.6</ele><time>2026-04-03T13:17:28.937Z</time></trkpt><trkpt lat="44.636486919997935" lon="9.980487904660505"><ele>484.8</ele><time>2026-04-03T13:17:29.937Z</time></trkpt><trkpt lat="44.63660386454734" lon="9.980514532164419"><ele>487.0</ele><time>2026-04-03T13:17:30.937Z</time></trkpt><trkpt lat="44.63671611295172" lon="9.980548832637485"><ele>487.0</ele><time>2026-04-03T13:17:31.937Z</time></trkpt><trkpt lat="44.63682402254874" lon="9.980594240461336"><ele>487.00000000000006</ele><time>2026-04-03T13:17:32.937Z</time></trkpt><trkpt lat="44.6369274069929" lon="9.980637823914984"><ele>487.00000000000006</ele><time>2026-04-03T13:17:33.937Z</time></trkpt><trkpt lat="44.637038484701236" lon="9.980680107867409"><ele>487.0</ele><time>2026-04-03T13:17:34.937Z</time></trkpt><trkpt lat="44.637146307336984" lon="9.98071302086672"><ele>487.0</ele><time>2026-04-03T13:17:35.937Z</time></trkpt><trkpt lat="44.63725138446016" lon="9.980717803510153"><ele>488.1666666666667</ele><time>2026-04-03T13:17:36.937Z</time></trkpt><trkpt lat="44.63735049625755" lon="9.980697100613018"><ele>489.33333333333337</ele><time>2026-04-03T13:17:37.937Z</time></trkpt><trkpt lat="44.63743608048079" lon="9.980668981496967"><ele>490.5</ele><time>2026-04-03T13:17:38.937Z</time></trkpt><trkpt lat="44.63751142001362" lon="9.980643840461907"><ele>491.66666666666663</ele><time>2026-04-03T13:17:39.937Z</time></trkpt><trkpt lat="44.63757625834278" lon="9.980630944319428"><ele>492.8333333333333</ele><time>2026-04-03T13:17:40.937Z</time></trkpt><trkpt lat="44.6376618768801" lon="9.980640280638177"><ele>494.0</ele><time>2026-04-03T13:17:42.937Z</time></trkpt><trkpt lat="44.637731397517754" lon="9.980563206423358"><ele>493.99999999999994</ele><time>2026-04-03T13:17:45.937Z</time></trkpt><trkpt lat="44.63777954029749" lon="9.980441192450975"><ele>494.0</ele><time>2026-04-03T13:17:47.937Z</time></trkpt><trkpt lat="44.637811547547564" lon="9.980355236750263"><ele>494.0</ele><time>2026-04-03T13:17:48.937Z</time></trkpt><trkpt lat="44.637841229853684" lon="9.980256568179083"><ele>494.0</ele><time>2026-04-03T13:17:49.937Z</time></trkpt><trkpt lat="44.63787220447982" lon="9.980170145739182"><ele>493.99999999999994</ele><time>2026-04-03T13:17:50.937Z</time></trkpt><trkpt lat="44.637905612776706" lon="9.980077699444692"><ele>494.0</ele><time>2026-04-03T13:17:51.937Z</time></trkpt><trkpt lat="44.637936187847934" lon="9.97998383701629"><ele>495.8571428571429</ele><time>2026-04-03T13:17:52.937Z</time></trkpt><trkpt lat="44.637965127527366" lon="9.979890105168792"><ele>497.71428571428567</ele><time>2026-04-03T13:17:53.937Z</time></trkpt><trkpt lat="44.63799149664141" lon="9.979799234379465"><ele>499.57142857142856</ele><time>2026-04-03T13:17:54.937Z</time></trkpt><trkpt lat="44.63802255072221" lon="9.979710776152427"><ele>501.42857142857144</ele><time>2026-04-03T13:17:55.937Z</time></trkpt><trkpt lat="44.63805556621586" lon="9.979621261129084"><ele>503.28571428571433</ele><time>2026-04-03T13:17:56.937Z</time></trkpt><trkpt lat="44.6380863367649" lon="9.979534316149927"><ele>505.1428571428571</ele><time>2026-04-03T13:17:57.937Z</time></trkpt><trkpt lat="44.6381149611059" lon="9.979449489029859"><ele>507.0</ele><time>2026-04-03T13:17:58.937Z</time></trkpt><trkpt lat="44.63820552357676" lon="9.979327258327451"><ele>507.0</ele><time>2026-04-03T13:18:00.937Z</time></trkpt><trkpt lat="44.63826409742679" lon="9.979282939996597"><ele>507.0</ele><time>2026-04-03T13:18:01.999Z</time></trkpt><trkpt lat="44.63832555397008" lon="9.979263318436661"><ele>507.0</ele><time>2026-04-03T13:18:02.999Z</time></trkpt><trkpt lat="44.63840781431503" lon="9.979251224525902"><ele>507.0</ele><time>2026-04-03T13:18:04Z</time></trkpt><trkpt lat="44.638488589121756" lon="9.979227849108536"><ele>507.0</ele><time>2026-04-03T13:18:05Z</time></trkpt><trkpt lat="44.63856738379394" lon="9.979185434519444"><ele>507.0</ele><time>2026-04-03T13:18:06Z</time></trkpt><trkpt lat="44.63864149370224" lon="9.979130911213787"><ele>507.8333333333333</ele><time>2026-04-03T13:18:07Z</time></trkpt><trkpt lat="44.63870576062166" lon="9.979064383259582"><ele>508.66666666666663</ele><time>2026-04-03T13:18:08Z</time></trkpt><trkpt lat="44.63876134423021" lon="9.978972383415243"><ele>509.5</ele><time>2026-04-03T13:18:09Z</time></trkpt><trkpt lat="44.638798118763255" lon="9.978862704380177"><ele>510.3333333333333</ele><time>2026-04-03T13:18:10Z</time></trkpt><trkpt lat="44.63881522284278" lon="9.97874307583082"><ele>511.16666666666663</ele><time>2026-04-03T13:18:11Z</time></trkpt><trkpt lat="44.63882685076996" lon="9.978621617203254"><ele>512.0</ele><time>2026-04-03T13:18:12Z</time></trkpt><trkpt lat="44.63883645264419" lon="9.978492828496051"><ele>511.99999999999994</ele><time>2026-04-03T13:18:13Z</time></trkpt><trkpt lat="44.638851128340036" lon="9.978362588090043"><ele>512.0</ele><time>2026-04-03T13:18:14Z</time></trkpt><trkpt lat="44.63887700254769" lon="9.978243928341122"><ele>512.0</ele><time>2026-04-03T13:18:15Z</time></trkpt><trkpt lat="44.63891592567171" lon="9.97813676777789"><ele>512.0</ele><time>2026-04-03T13:18:16Z</time></trkpt><trkpt lat="44.63897471442314" lon="9.978058187012696"><ele>511.99999999999994</ele><time>2026-04-03T13:18:17Z</time></trkpt><trkpt lat="44.639041449949225" lon="9.978002486381788"><ele>512.0</ele><time>2026-04-03T13:18:18Z</time></trkpt><trkpt lat="44.63911589011923" lon="9.977964630743628"><ele>511.3333333333333</ele><time>2026-04-03T13:18:19Z</time></trkpt><trkpt lat="44.63919034419159" lon="9.977935183414324"><ele>510.66666666666663</ele><time>2026-04-03T13:18:20Z</time></trkpt><trkpt lat="44.639257375363584" lon="9.977889556599582"><ele>510.0</ele><time>2026-04-03T13:18:21Z</time></trkpt><trkpt lat="44.63931818319641" lon="9.977818054208727"><ele>509.33333333333337</ele><time>2026-04-03T13:18:22Z</time></trkpt><trkpt lat="44.63936627961064" lon="9.977727347852037"><ele>508.6666666666667</ele><time>2026-04-03T13:18:23Z</time></trkpt><trkpt lat="44.639417415096545" lon="9.977622203704428"><ele>508.0</ele><time>2026-04-03T13:18:24Z</time></trkpt><trkpt lat="44.63946143563621" lon="9.977512422377734"><ele>507.4</ele><time>2026-04-03T13:18:25Z</time></trkpt><trkpt lat="44.639495846135425" lon="9.977394143311981"><ele>506.79999999999995</ele><time>2026-04-03T13:18:26Z</time></trkpt><trkpt lat="44.63951156849011" lon="9.977257104281563"><ele>506.2</ele><time>2026-04-03T13:18:27Z</time></trkpt><trkpt lat="44.63951427514192" lon="9.9771185354489"><ele>505.6</ele><time>2026-04-03T13:18:28Z</time></trkpt><trkpt lat="44.63950640234823" lon="9.976967294607851"><ele>505.0</ele><time>2026-04-03T13:18:29Z</time></trkpt><trkpt lat="44.639496418824955" lon="9.976817333691741"><ele>503.0</ele><time>2026-04-03T13:18:30Z</time></trkpt><trkpt lat="44.6394895314636" lon="9.976658945478578"><ele>501.0</ele><time>2026-04-03T13:18:31.001Z</time></trkpt><trkpt lat="44.63948922551498" lon="9.976505681804827"><ele>499.0</ele><time>2026-04-03T13:18:32.001Z</time></trkpt><trkpt lat="44.639491822031324" lon="9.976358347471754"><ele>497.0</ele><time>2026-04-03T13:18:33.001Z</time></trkpt><trkpt lat="44.63950027373614" lon="9.976222099857335"><ele>495.0</ele><time>2026-04-03T13:18:34.001Z</time></trkpt><trkpt lat="44.639521855125366" lon="9.976082687512049"><ele>495.0</ele><time>2026-04-03T13:18:35.001Z</time></trkpt><trkpt lat="44.6395546282202" lon="9.975941495940742"><ele>495.0</ele><time>2026-04-03T13:18:36.001Z</time></trkpt><trkpt lat="44.63958707662264" lon="9.975797710769491"><ele>495.0</ele><time>2026-04-03T13:18:37.001Z</time></trkpt><trkpt lat="44.63959343195803" lon="9.975666952852476"><ele>495.0</ele><time>2026-04-03T13:18:38.001Z</time></trkpt><trkpt lat="44.63957633483307" lon="9.975513039859901"><ele>495.0</ele><time>2026-04-03T13:18:39.001Z</time></trkpt><trkpt lat="44.639550494559884" lon="9.97536975930535"><ele>494.6</ele><time>2026-04-03T13:18:40.001Z</time></trkpt><trkpt lat="44.639543092242455" lon="9.975217437560291"><ele>494.2</ele><time>2026-04-03T13:18:41.001Z</time></trkpt><trkpt lat="44.6395184469564" lon="9.975079905323465"><ele>493.79999999999995</ele><time>2026-04-03T13:18:42.001Z</time></trkpt><trkpt lat="44.63949579623843" lon="9.97495100964179"><ele>493.4</ele><time>2026-04-03T13:18:43.001Z</time></trkpt><trkpt lat="44.63946189451331" lon="9.974833652176528"><ele>493.0</ele><time>2026-04-03T13:18:44.001Z</time></trkpt><trkpt lat="44.63941282712697" lon="9.974728792504889"><ele>493.00000000000006</ele><time>2026-04-03T13:18:45.001Z</time></trkpt><trkpt lat="44.6393577001276" lon="9.974631837541391"><ele>493.0</ele><time>2026-04-03T13:18:46.001Z</time></trkpt><trkpt lat="44.63929207238324" lon="9.974527694587707"><ele>493.0</ele><time>2026-04-03T13:18:47.001Z</time></trkpt><trkpt lat="44.63923814861181" lon="9.9744218801939"><ele>493.0</ele><time>2026-04-03T13:18:48.001Z</time></trkpt><trkpt lat="44.63920060813075" lon="9.974317981137768"><ele>493.00000000000006</ele><time>2026-04-03T13:18:49.001Z</time></trkpt><trkpt lat="44.63917281250434" lon="9.974218706003603"><ele>493.0</ele><time>2026-04-03T13:18:50.001Z</time></trkpt><trkpt lat="44.63914725040842" lon="9.974124035551032"><ele>492.1666666666667</ele><time>2026-04-03T13:18:51.001Z</time></trkpt><trkpt lat="44.63912694725787" lon="9.974038535493657"><ele>491.33333333333337</ele><time>2026-04-03T13:18:52.001Z</time></trkpt><trkpt lat="44.63910143997034" lon="9.97395554104332"><ele>490.5</ele><time>2026-04-03T13:18:53.001Z</time></trkpt><trkpt lat="44.63907422892467" lon="9.973874389160132"><ele>489.66666666666663</ele><time>2026-04-03T13:18:54.001Z</time></trkpt><trkpt lat="44.63902610234743" lon="9.973716839350907"><ele>488.8333333333333</ele><time>2026-04-03T13:18:56.001Z</time></trkpt><trkpt lat="44.638998464098975" lon="9.97359369952575"><ele>488.0</ele><time>2026-04-03T13:18:58.001Z</time></trkpt><trkpt lat="44.63897851197789" lon="9.973498948205066"><ele>487.99999999999994</ele><time>2026-04-03T13:19:01.001Z</time></trkpt><trkpt lat="44.63892655689785" lon="9.973552084599605"><ele>488.0</ele><time>2026-04-03T13:33:18.001Z</time></trkpt><trkpt lat="44.638989883099974" lon="9.97362566227863"><ele>488.0</ele><time>2026-04-03T13:33:34.001Z</time></trkpt><trkpt lat="44.63902902115221" lon="9.973727114536345"><ele>488.0</ele><time>2026-04-03T13:33:36.001Z</time></trkpt><trkpt lat="44.63907015877007" lon="9.97383928601444"><ele>487.99999999999994</ele><time>2026-04-03T13:33:38.001Z</time></trkpt><trkpt lat="44.63909891336919" lon="9.973963562665041"><ele>488.0</ele><time>2026-04-03T13:33:40.001Z</time></trkpt><trkpt lat="44.63914472656484" lon="9.974139354260354"><ele>488.8333333333333</ele><time>2026-04-03T13:33:42.001Z</time></trkpt><trkpt lat="44.63917568415569" lon="9.974239288479671"><ele>489.66666666666663</ele><time>2026-04-03T13:33:43.001Z</time></trkpt><trkpt lat="44.63920931539148" lon="9.974344115441804"><ele>490.5</ele><time>2026-04-03T13:33:44.001Z</time></trkpt><trkpt lat="44.63925030569477" lon="9.97444109042165"><ele>491.33333333333337</ele><time>2026-04-03T13:33:45.001Z</time></trkpt><trkpt lat="44.63930128006775" lon="9.974535407226353"><ele>492.1666666666667</ele><time>2026-04-03T13:33:46.001Z</time></trkpt><trkpt lat="44.63935281947523" lon="9.974629185955061"><ele>493.0</ele><time>2026-04-03T13:33:47.001Z</time></trkpt><trkpt lat="44.639409706828296" lon="9.974726422988311"><ele>493.0</ele><time>2026-04-03T13:33:48.001Z</time></trkpt><trkpt lat="44.639458139635295" lon="9.974836001006057"><ele>492.99999999999994</ele><time>2026-04-03T13:33:49.001Z</time></trkpt><trkpt lat="44.639497580512256" lon="9.974965571565358"><ele>492.99999999999994</ele><time>2026-04-03T13:33:50.001Z</time></trkpt><trkpt lat="44.63952076176786" lon="9.97510941489415"><ele>493.0</ele><time>2026-04-03T13:33:51.001Z</time></trkpt><trkpt lat="44.63953913010719" lon="9.975259478126311"><ele>493.0</ele><time>2026-04-03T13:33:52.001Z</time></trkpt><trkpt lat="44.63956099188096" lon="9.975413413418439"><ele>493.4</ele><time>2026-04-03T13:33:53.001Z</time></trkpt><trkpt lat="44.63958011498771" lon="9.975559067143442"><ele>493.79999999999995</ele><time>2026-04-03T13:33:54.001Z</time></trkpt><trkpt lat="44.63958716515539" lon="9.975702912698353"><ele>494.2</ele><time>2026-04-03T13:33:55.001Z</time></trkpt><trkpt lat="44.63958447736108" lon="9.975846529992655"><ele>494.6</ele><time>2026-04-03T13:33:56.001Z</time></trkpt><trkpt lat="44.63956428332148" lon="9.975991015428285"><ele>495.0</ele><time>2026-04-03T13:33:57.001Z</time></trkpt><trkpt lat="44.63953145689508" lon="9.976133169671284"><ele>495.0</ele><time>2026-04-03T13:33:58.001Z</time></trkpt><trkpt lat="44.63950353231774" lon="9.9762747999781"><ele>495.0</ele><time>2026-04-03T13:33:59.001Z</time></trkpt><trkpt lat="44.63949395640889" lon="9.97642124431814"><ele>495.0</ele><time>2026-04-03T13:34:00.001Z</time></trkpt><trkpt lat="44.639494787967195" lon="9.976567219257646"><ele>495.0</ele><time>2026-04-03T13:34:01.001Z</time></trkpt><trkpt lat="44.63950573923307" lon="9.976720893524842"><ele>495.0</ele><time>2026-04-03T13:34:02.001Z</time></trkpt><trkpt lat="44.63951177796628" lon="9.976872121221556"><ele>497.0</ele><time>2026-04-03T13:34:03.001Z</time></trkpt><trkpt lat="44.63952454703914" lon="9.977018520838707"><ele>499.0</ele><time>2026-04-03T13:34:04.001Z</time></trkpt><trkpt lat="44.63953103805081" lon="9.977163457619625"><ele>501.0</ele><time>2026-04-03T13:34:05.001Z</time></trkpt><trkpt lat="44.63952973294519" lon="9.977312523415428"><ele>503.0</ele><time>2026-04-03T13:34:06.001Z</time></trkpt><trkpt lat="44.63950820927572" lon="9.977456175683189"><ele>505.0</ele><time>2026-04-03T13:34:07.001Z</time></trkpt><trkpt lat="44.63946442838656" lon="9.977589512895959"><ele>505.6</ele><time>2026-04-03T13:34:08.001Z</time></trkpt><trkpt lat="44.639403515298824" lon="9.977707570208619"><ele>506.2</ele><time>2026-04-03T13:34:09.001Z</time></trkpt><trkpt lat="44.6393324736182" lon="9.97781521226244"><ele>506.79999999999995</ele><time>2026-04-03T13:34:10.001Z</time></trkpt><trkpt lat="44.63925886937818" lon="9.9778982218612"><ele>507.4</ele><time>2026-04-03T13:34:11.001Z</time></trkpt><trkpt lat="44.63917533708638" lon="9.977952483098619"><ele>508.0</ele><time>2026-04-03T13:34:12.001Z</time></trkpt><trkpt lat="44.63909819674696" lon="9.97799802792536"><ele>508.00000000000006</ele><time>2026-04-03T13:34:13.001Z</time></trkpt><trkpt lat="44.63903254172462" lon="9.978039098512895"><ele>508.0</ele><time>2026-04-03T13:34:14.001Z</time></trkpt><trkpt lat="44.638975706757805" lon="9.978093896539884"><ele>508.0</ele><time>2026-04-03T13:34:15.001Z</time></trkpt><trkpt lat="44.638924304756536" lon="9.978168261042962"><ele>508.0</ele><time>2026-04-03T13:34:16.001Z</time></trkpt><trkpt lat="44.63888596858397" lon="9.978272078013354"><ele>508.00000000000006</ele><time>2026-04-03T13:34:17.001Z</time></trkpt><trkpt lat="44.638865472623635" lon="9.978401544212197"><ele>508.0</ele><time>2026-04-03T13:34:18.001Z</time></trkpt><trkpt lat="44.63885610965942" lon="9.978537977577906"><ele>508.79999999999995</ele><time>2026-04-03T13:34:19.001Z</time></trkpt><trkpt lat="44.638843072832536" lon="9.978681090120237"><ele>509.59999999999997</ele><time>2026-04-03T13:34:20.001Z</time></trkpt><trkpt lat="44.6388284915909" lon="9.97880917131549"><ele>510.40000000000003</ele><time>2026-04-03T13:34:21.001Z</time></trkpt><trkpt lat="44.6388068963938" lon="9.978926051624834"><ele>511.20000000000005</ele><time>2026-04-03T13:34:22.001Z</time></trkpt><trkpt lat="44.6387682813146" lon="9.979034171785162"><ele>512.0</ele><time>2026-04-03T13:34:23.001Z</time></trkpt><trkpt lat="44.63869718065177" lon="9.97912367938753"><ele>511.0</ele><time>2026-04-03T13:34:24.001Z</time></trkpt><trkpt lat="44.63860867895393" lon="9.979187076065026"><ele>510.00000000000006</ele><time>2026-04-03T13:34:25.001Z</time></trkpt><trkpt lat="44.638510587528245" lon="9.979222400759134"><ele>509.00000000000006</ele><time>2026-04-03T13:34:26.001Z</time></trkpt><trkpt lat="44.63840942938746" lon="9.979241551847636"><ele>508.0</ele><time>2026-04-03T13:34:27.001Z</time></trkpt><trkpt lat="44.63831984432701" lon="9.979248181617686"><ele>507.0</ele><time>2026-04-03T13:34:28.001Z</time></trkpt><trkpt lat="44.638245180237185" lon="9.979257310076356"><ele>507.0</ele><time>2026-04-03T13:34:29.001Z</time></trkpt><trkpt lat="44.638183034336386" lon="9.979279122616393"><ele>507.00000000000006</ele><time>2026-04-03T13:34:30.001Z</time></trkpt><trkpt lat="44.63809328670333" lon="9.979445607155084"><ele>507.00000000000006</ele><time>2026-04-03T13:34:32.001Z</time></trkpt><trkpt lat="44.63804514928736" lon="9.97959577702552"><ele>507.0</ele><time>2026-04-03T13:34:33.001Z</time></trkpt><trkpt lat="44.638002775062304" lon="9.979745523185127"><ele>507.0</ele><time>2026-04-03T13:34:34.001Z</time></trkpt><trkpt lat="44.6379543102244" lon="9.979891068837977"><ele>507.8</ele><time>2026-04-03T13:34:35.001Z</time></trkpt><trkpt lat="44.63790880762573" lon="9.980042697621826"><ele>508.6</ele><time>2026-04-03T13:34:36.001Z</time></trkpt><trkpt lat="44.63786473191026" lon="9.980175405144006"><ele>509.40000000000003</ele><time>2026-04-03T13:34:37.001Z</time></trkpt><trkpt lat="44.63782185061797" lon="9.980297293933358"><ele>510.20000000000005</ele><time>2026-04-03T13:34:38.001Z</time></trkpt><trkpt lat="44.63778332428938" lon="9.980400706903803"><ele>511.0</ele><time>2026-04-03T13:34:39.001Z</time></trkpt><trkpt lat="44.637738619157524" lon="9.980527077569132"><ele>509.83333333333337</ele><time>2026-04-03T13:34:41.001Z</time></trkpt><trkpt lat="44.637726649285725" lon="9.98063211246797"><ele>508.6666666666667</ele><time>2026-04-03T13:34:43.001Z</time></trkpt><trkpt lat="44.63776574632764" lon="9.980780016829893"><ele>507.5</ele><time>2026-04-03T13:34:45.001Z</time></trkpt><trkpt lat="44.637803465094485" lon="9.980874581343208"><ele>506.33333333333337</ele><time>2026-04-03T13:34:46.001Z</time></trkpt><trkpt lat="44.63785729187809" lon="9.98097392570405"><ele>505.1666666666667</ele><time>2026-04-03T13:34:47.001Z</time></trkpt><trkpt lat="44.63790766520939" lon="9.981083586319787"><ele>504.0</ele><time>2026-04-03T13:34:48.001Z</time></trkpt><trkpt lat="44.6379685863404" lon="9.981202417085578"><ele>504.0</ele><time>2026-04-03T13:34:49.001Z</time></trkpt><trkpt lat="44.63803174703499" lon="9.981331808019474"><ele>504.0</ele><time>2026-04-03T13:34:49.999Z</time></trkpt><trkpt lat="44.63811542654467" lon="9.98145688152194"><ele>504.0</ele><time>2026-04-03T13:34:50.999Z</time></trkpt><trkpt lat="44.638216577001465" lon="9.981565955344264"><ele>504.0</ele><time>2026-04-03T13:34:51.999Z</time></trkpt><trkpt lat="44.63831826883701" lon="9.981675165077935"><ele>503.0</ele><time>2026-04-03T13:34:52.999Z</time></trkpt><trkpt lat="44.63841252360822" lon="9.981782380244464"><ele>502.0</ele><time>2026-04-03T13:34:53.999Z</time></trkpt><trkpt lat="44.63850195338607" lon="9.981884152655706"><ele>501.0</ele><time>2026-04-03T13:34:54.999Z</time></trkpt><trkpt lat="44.638574566161765" lon="9.981997774250473"><ele>500.0</ele><time>2026-04-03T13:34:55.999Z</time></trkpt><trkpt lat="44.63862511205098" lon="9.982127669656297"><ele>500.0</ele><time>2026-04-03T13:34:56.999Z</time></trkpt><trkpt lat="44.63863079962711" lon="9.982283845367398"><ele>500.0</ele><time>2026-04-03T13:34:57.999Z</time></trkpt><trkpt lat="44.63861917901585" lon="9.982440798298326"><ele>500.0</ele><time>2026-04-03T13:34:58.999Z</time></trkpt><trkpt lat="44.63862050576953" lon="9.982606585225229"><ele>500.0</ele><time>2026-04-03T13:34:59.999Z</time></trkpt><trkpt lat="44.63863606377783" lon="9.98276051984217"><ele>507.0</ele><time>2026-04-03T13:35:00.999Z</time></trkpt><trkpt lat="44.63867080271458" lon="9.982914855740164"><ele>514.0</ele><time>2026-04-03T13:35:01.999Z</time></trkpt><trkpt lat="44.63870753476824" lon="9.9830767164726"><ele>521.0</ele><time>2026-04-03T13:35:02.999Z</time></trkpt><trkpt lat="44.6387035066076" lon="9.98324307830527"><ele>528.0</ele><time>2026-04-03T13:35:03.999Z</time></trkpt><trkpt lat="44.63864509204341" lon="9.983390656636688"><ele>524.0</ele><time>2026-04-03T13:35:04.999Z</time></trkpt><trkpt lat="44.63857836485187" lon="9.98352078040973"><ele>520.0</ele><time>2026-04-03T13:35:05.999Z</time></trkpt><trkpt lat="44.63852880760655" lon="9.983655890589718"><ele>516.0</ele><time>2026-04-03T13:35:06.999Z</time></trkpt><trkpt lat="44.63850171549328" lon="9.983811796411755"><ele>512.0</ele><time>2026-04-03T13:35:08Z</time></trkpt><trkpt lat="44.63847981558034" lon="9.983979398312483"><ele>512.0</ele><time>2026-04-03T13:35:09Z</time></trkpt><trkpt lat="44.638453994874766" lon="9.984141675997918"><ele>512.0</ele><time>2026-04-03T13:35:10Z</time></trkpt><trkpt lat="44.63843875726812" lon="9.984274722299052"><ele>512.0</ele><time>2026-04-03T13:35:11Z</time></trkpt><trkpt lat="44.63844194456176" lon="9.984395260111349"><ele>512.0</ele><time>2026-04-03T13:35:12Z</time></trkpt><trkpt lat="44.638467418421435" lon="9.984494612280757"><ele>512.0</ele><time>2026-04-03T13:35:13Z</time></trkpt><trkpt lat="44.63853642456513" lon="9.984562702817938"><ele>514.2</ele><time>2026-04-03T13:35:14Z</time></trkpt><trkpt lat="44.63861314790546" lon="9.984575226159702"><ele>516.4000000000001</ele><time>2026-04-03T13:35:15Z</time></trkpt><trkpt lat="44.63869555572091" lon="9.984530755288088"><ele>518.5999999999999</ele><time>2026-04-03T13:35:16Z</time></trkpt><trkpt lat="44.638751465157306" lon="9.984427570282037"><ele>520.8</ele><time>2026-04-03T13:35:17Z</time></trkpt><trkpt lat="44.63879156601119" lon="9.984288906051553"><ele>523.0</ele><time>2026-04-03T13:35:18Z</time></trkpt><trkpt lat="44.63882216714091" lon="9.984144857295533"><ele>524.6666666666667</ele><time>2026-04-03T13:35:19Z</time></trkpt><trkpt lat="44.638854701595896" lon="9.984000425703732"><ele>526.3333333333334</ele><time>2026-04-03T13:35:20Z</time></trkpt><trkpt lat="44.63888413600583" lon="9.983876811670175"><ele>528.0</ele><time>2026-04-03T13:35:21Z</time></trkpt><trkpt lat="44.63893221591344" lon="9.983795162020451"><ele>529.6666666666666</ele><time>2026-04-03T13:35:22Z</time></trkpt><trkpt lat="44.63900584196683" lon="9.983762723996115"><ele>531.3333333333333</ele><time>2026-04-03T13:35:23Z</time></trkpt><trkpt lat="44.63907815644997" lon="9.98378938486128"><ele>533.0</ele><time>2026-04-03T13:35:24Z</time></trkpt><trkpt lat="44.639137341919714" lon="9.983867146789935"><ele>533.0</ele><time>2026-04-03T13:35:25Z</time></trkpt><trkpt lat="44.63917097438167" lon="9.983979937281754"><ele>533.0</ele><time>2026-04-03T13:35:26Z</time></trkpt><trkpt lat="44.63918565640492" lon="9.984105487472933"><ele>533.0</ele><time>2026-04-03T13:35:27Z</time></trkpt><trkpt lat="44.63918978685464" lon="9.984253186157682"><ele>533.0</ele><time>2026-04-03T13:35:28Z</time></trkpt><trkpt lat="44.63919369167324" lon="9.984421184111188"><ele>533.0</ele><time>2026-04-03T13:35:29Z</time></trkpt><trkpt lat="44.63920959580242" lon="9.984589410756978"><ele>533.0</ele><time>2026-04-03T13:35:30Z</time></trkpt><trkpt lat="44.639231582350874" lon="9.984754091449451"><ele>533.0</ele><time>2026-04-03T13:35:31Z</time></trkpt><trkpt lat="44.63926842444631" lon="9.98491024447187"><ele>533.0</ele><time>2026-04-03T13:35:32Z</time></trkpt><trkpt lat="44.63931773723833" lon="9.98506067355608"><ele>533.0</ele><time>2026-04-03T13:35:33Z</time></trkpt><trkpt lat="44.63938212358244" lon="9.985198990283234"><ele>532.75</ele><time>2026-04-03T13:35:34Z</time></trkpt><trkpt lat="44.63944754668603" lon="9.985327454065205"><ele>532.5</ele><time>2026-04-03T13:35:35Z</time></trkpt><trkpt lat="44.6395260378274" lon="9.98543303454501"><ele>532.25</ele><time>2026-04-03T13:35:36Z</time></trkpt><trkpt lat="44.6396312532134" lon="9.985503443881287"><ele>532.0</ele><time>2026-04-03T13:35:37Z</time></trkpt><trkpt lat="44.63975086412251" lon="9.985569760138329"><ele>532.0</ele><time>2026-04-03T13:35:38Z</time></trkpt><trkpt lat="44.6398767586456" lon="9.985657194266842"><ele>532.0</ele><time>2026-04-03T13:35:39Z</time></trkpt><trkpt lat="44.63999738624162" lon="9.985746313081348"><ele>532.0</ele><time>2026-04-03T13:35:40Z</time></trkpt><trkpt lat="44.640109009396426" lon="9.985825863086067"><ele>532.0</ele><time>2026-04-03T13:35:41Z</time></trkpt><trkpt lat="44.64021108511856" lon="9.985874361583184"><ele>532.2</ele><time>2026-04-03T13:35:42Z</time></trkpt><trkpt lat="44.64029723810063" lon="9.985887737768229"><ele>532.4000000000001</ele><time>2026-04-03T13:35:43Z</time></trkpt><trkpt lat="44.64039274434752" lon="9.985861842911609"><ele>532.5999999999999</ele><time>2026-04-03T13:35:44Z</time></trkpt><trkpt lat="44.64049988037472" lon="9.98579740834782"><ele>532.8</ele><time>2026-04-03T13:35:45Z</time></trkpt><trkpt lat="44.640630035973" lon="9.985718774459876"><ele>533.0</ele><time>2026-04-03T13:35:46Z</time></trkpt><trkpt lat="44.64077001828067" lon="9.985647965788571"><ele>533.0</ele><time>2026-04-03T13:35:47Z</time></trkpt><trkpt lat="44.64090347011264" lon="9.98558316445177"><ele>533.0</ele><time>2026-04-03T13:35:48Z</time></trkpt><trkpt lat="44.64103156642002" lon="9.985521874257575"><ele>533.0</ele><time>2026-04-03T13:35:49Z</time></trkpt><trkpt lat="44.64115620387521" lon="9.98546557051707"><ele>533.0</ele><time>2026-04-03T13:35:50Z</time></trkpt><trkpt lat="44.641279325543074" lon="9.98543855888962"><ele>533.75</ele><time>2026-04-03T13:35:51Z</time></trkpt><trkpt lat="44.6414069351908" lon="9.985455155579277"><ele>534.5</ele><time>2026-04-03T13:35:52Z</time></trkpt><trkpt lat="44.64153987151651" lon="9.985505207075217"><ele>535.25</ele><time>2026-04-03T13:35:53Z</time></trkpt><trkpt lat="44.64166727136645" lon="9.985571336803021"><ele>536.0</ele><time>2026-04-03T13:35:54Z</time></trkpt><trkpt lat="44.64178370150384" lon="9.985623858988063"><ele>536.0</ele><time>2026-04-03T13:35:55Z</time></trkpt><trkpt lat="44.641884769624234" lon="9.985658864878944"><ele>536.0</ele><time>2026-04-03T13:35:56Z</time></trkpt><trkpt lat="44.64198656099483" lon="9.985658558858011"><ele>536.0</ele><time>2026-04-03T13:35:57Z</time></trkpt><trkpt lat="44.6420867761098" lon="9.985623967419379"><ele>536.0</ele><time>2026-04-03T13:35:58Z</time></trkpt><trkpt lat="44.64218192335755" lon="9.985544473654073"><ele>536.0</ele><time>2026-04-03T13:35:59Z</time></trkpt><trkpt lat="44.64228556714943" lon="9.985457922495174"><ele>536.25</ele><time>2026-04-03T13:36:00Z</time></trkpt><trkpt lat="44.64240155758124" lon="9.985400548267815"><ele>536.5</ele><time>2026-04-03T13:36:01Z</time></trkpt><trkpt lat="44.64252072407709" lon="9.985379648847394"><ele>536.75</ele><time>2026-04-03T13:36:02Z</time></trkpt><trkpt lat="44.64266317521098" lon="9.98540444233102"><ele>537.0</ele><time>2026-04-03T13:36:03Z</time></trkpt><trkpt lat="44.642806407968166" lon="9.985469149953072"><ele>537.6666666666666</ele><time>2026-04-03T13:36:04Z</time></trkpt><trkpt lat="44.64294658143208" lon="9.9855537638646"><ele>538.3333333333333</ele><time>2026-04-03T13:36:05Z</time></trkpt><trkpt lat="44.64309174457359" lon="9.985631786064177"><ele>539.0</ele><time>2026-04-03T13:36:06Z</time></trkpt><trkpt lat="44.64323737076392" lon="9.985717048917936"><ele>539.0</ele><time>2026-04-03T13:36:07Z</time></trkpt><trkpt lat="44.643373452452636" lon="9.985804523748163"><ele>539.0</ele><time>2026-04-03T13:36:08Z</time></trkpt><trkpt lat="44.64350572564474" lon="9.985898574423782"><ele>539.0</ele><time>2026-04-03T13:36:09Z</time></trkpt><trkpt lat="44.643639085655046" lon="9.985999261762702"><ele>539.0</ele><time>2026-04-03T13:36:10Z</time></trkpt><trkpt lat="44.64377211590117" lon="9.986112047345177"><ele>536.6666666666666</ele><time>2026-04-03T13:36:11Z</time></trkpt><trkpt lat="44.64390269500838" lon="9.986226711170985"><ele>534.3333333333334</ele><time>2026-04-03T13:36:12Z</time></trkpt><trkpt lat="44.644032126746396" lon="9.986345728217668"><ele>532.0</ele><time>2026-04-03T13:36:13Z</time></trkpt><trkpt lat="44.644156653147874" lon="9.986462829358505"><ele>532.0</ele><time>2026-04-03T13:36:14Z</time></trkpt><trkpt lat="44.64428842685468" lon="9.986562287418488"><ele>532.0</ele><time>2026-04-03T13:36:15Z</time></trkpt><trkpt lat="44.64441847406437" lon="9.986660611682362"><ele>532.0</ele><time>2026-04-03T13:36:16Z</time></trkpt><trkpt lat="44.64455510463539" lon="9.98675618339288"><ele>530.3333333333334</ele><time>2026-04-03T13:36:17Z</time></trkpt><trkpt lat="44.6446897366798" lon="9.986841344429415"><ele>528.6666666666666</ele><time>2026-04-03T13:36:18Z</time></trkpt><trkpt lat="44.64482971557585" lon="9.986921008558234"><ele>527.0</ele><time>2026-04-03T13:36:19Z</time></trkpt><trkpt lat="44.64496772126103" lon="9.987012091923791"><ele>527.0</ele><time>2026-04-03T13:36:20Z</time></trkpt><trkpt lat="44.645101827996164" lon="9.987109464558772"><ele>527.0</ele><time>2026-04-03T13:36:21Z</time></trkpt><trkpt lat="44.645236246944805" lon="9.987216097392235"><ele>527.0</ele><time>2026-04-03T13:36:22Z</time></trkpt><trkpt lat="44.645374379652864" lon="9.987331118394783"><ele>526.3333333333333</ele><time>2026-04-03T13:36:23Z</time></trkpt><trkpt lat="44.64551435632539" lon="9.987451222699008"><ele>525.6666666666666</ele><time>2026-04-03T13:36:24Z</time></trkpt><trkpt lat="44.64565605498144" lon="9.987566432003824"><ele>525.0</ele><time>2026-04-03T13:36:25Z</time></trkpt><trkpt lat="44.645808515674304" lon="9.987674504652514"><ele>524.3333333333334</ele><time>2026-04-03T13:36:26Z</time></trkpt><trkpt lat="44.64596967759121" lon="9.987766939799986"><ele>523.6666666666667</ele><time>2026-04-03T13:36:27Z</time></trkpt><trkpt lat="44.64613882272272" lon="9.98783724680588"><ele>523.0</ele><time>2026-04-03T13:36:28Z</time></trkpt><trkpt lat="44.64631262852133" lon="9.987885989321128"><ele>522.6666666666667</ele><time>2026-04-03T13:36:29Z</time></trkpt><trkpt lat="44.64648427812404" lon="9.987917632320116"><ele>522.3333333333334</ele><time>2026-04-03T13:36:30Z</time></trkpt><trkpt lat="44.64665908322334" lon="9.987948304166773"><ele>522.0</ele><time>2026-04-03T13:36:31Z</time></trkpt><trkpt lat="44.64683398242235" lon="9.987970913745096"><ele>525.0</ele><time>2026-04-03T13:36:32Z</time></trkpt><trkpt lat="44.64700492396726" lon="9.987999457395576"><ele>528.0</ele><time>2026-04-03T13:36:33Z</time></trkpt><trkpt lat="44.64716575810356" lon="9.988031670005384"><ele>531.0</ele><time>2026-04-03T13:36:34Z</time></trkpt><trkpt lat="44.64730271966216" lon="9.988073514159524"><ele>531.0</ele><time>2026-04-03T13:36:35Z</time></trkpt><trkpt lat="44.64741727056261" lon="9.9881511527607"><ele>531.0</ele><time>2026-04-03T13:36:36Z</time></trkpt><trkpt lat="44.64751878264571" lon="9.988269533954599"><ele>531.0</ele><time>2026-04-03T13:36:37Z</time></trkpt><trkpt lat="44.64759845651655" lon="9.988425614580164"><ele>531.0</ele><time>2026-04-03T13:36:38Z</time></trkpt><trkpt lat="44.64766912641434" lon="9.988597688969548"><ele>529.75</ele><time>2026-04-03T13:36:39Z</time></trkpt><trkpt lat="44.6477489606036" lon="9.98876525825499"><ele>528.5</ele><time>2026-04-03T13:36:40Z</time></trkpt><trkpt lat="44.64783298557139" lon="9.988919216713779"><ele>527.25</ele><time>2026-04-03T13:36:41Z</time></trkpt><trkpt lat="44.64792771046706" lon="9.989053619074383"><ele>526.0</ele><time>2026-04-03T13:36:42Z</time></trkpt><trkpt lat="44.648034069844776" lon="9.989151145328535"><ele>527.0</ele><time>2026-04-03T13:36:43Z</time></trkpt><trkpt lat="44.648167152981664" lon="9.9892267897825"><ele>528.0</ele><time>2026-04-03T13:36:44Z</time></trkpt><trkpt lat="44.64830858657795" lon="9.9892928530387"><ele>529.0</ele><time>2026-04-03T13:36:45Z</time></trkpt><trkpt lat="44.648454273815375" lon="9.989357970232822"><ele>530.0</ele><time>2026-04-03T13:36:46Z</time></trkpt><trkpt lat="44.64859113994187" lon="9.989433199009309"><ele>532.0</ele><time>2026-04-03T13:36:47Z</time></trkpt><trkpt lat="44.64871426542557" lon="9.989520531778343"><ele>534.0</ele><time>2026-04-03T13:36:48Z</time></trkpt><trkpt lat="44.64883080903394" lon="9.989638167458597"><ele>536.0</ele><time>2026-04-03T13:36:49Z</time></trkpt><trkpt lat="44.64894215927313" lon="9.989787257862382"><ele>538.0</ele><time>2026-04-03T13:36:50Z</time></trkpt><trkpt lat="44.64903982820891" lon="9.989960748215966"><ele>538.6666666666667</ele><time>2026-04-03T13:36:51Z</time></trkpt><trkpt lat="44.64913293289573" lon="9.99014321569442"><ele>539.3333333333334</ele><time>2026-04-03T13:36:52Z</time></trkpt><trkpt lat="44.64922004035194" lon="9.99032418133062"><ele>540.0</ele><time>2026-04-03T13:36:53Z</time></trkpt><trkpt lat="44.649291914227675" lon="9.990500544761266"><ele>540.0</ele><time>2026-04-03T13:36:54Z</time></trkpt><trkpt lat="44.649343656780104" lon="9.99068858800019"><ele>540.0</ele><time>2026-04-03T13:36:55Z</time></trkpt><trkpt lat="44.64937733654038" lon="9.990895268326618"><ele>540.0</ele><time>2026-04-03T13:36:56Z</time></trkpt><trkpt lat="44.64939259679407" lon="9.991103016164043"><ele>540.0</ele><time>2026-04-03T13:36:57Z</time></trkpt><trkpt lat="44.649423519689975" lon="9.99130852405038"><ele>541.0</ele><time>2026-04-03T13:36:58Z</time></trkpt><trkpt lat="44.649472801664295" lon="9.991509018884988"><ele>542.0</ele><time>2026-04-03T13:36:59Z</time></trkpt><trkpt lat="44.64954107141167" lon="9.991700732832063"><ele>543.0</ele><time>2026-04-03T13:37:00Z</time></trkpt><trkpt lat="44.64961356720501" lon="9.991869629917174"><ele>544.0</ele><time>2026-04-03T13:37:01Z</time></trkpt><trkpt lat="44.649685381692066" lon="9.992015836037831"><ele>541.5</ele><time>2026-04-03T13:37:02Z</time></trkpt><trkpt lat="44.649760365750225" lon="9.992140599859518"><ele>539.0</ele><time>2026-04-03T13:37:03Z</time></trkpt><trkpt lat="44.64984601733301" lon="9.992224170913184"><ele>536.5</ele><time>2026-04-03T13:37:04Z</time></trkpt><trkpt lat="44.64996015022685" lon="9.992263381562285"><ele>534.0</ele><time>2026-04-03T13:37:05Z</time></trkpt><trkpt lat="44.65009523041644" lon="9.992264267415933"><ele>534.0</ele><time>2026-04-03T13:37:06Z</time></trkpt><trkpt lat="44.65023707899376" lon="9.992262862947129"><ele>534.0</ele><time>2026-04-03T13:37:07Z</time></trkpt><trkpt lat="44.65037730169809" lon="9.992282882427078"><ele>534.0</ele><time>2026-04-03T13:37:08Z</time></trkpt><trkpt lat="44.65050083220332" lon="9.992346568728152"><ele>534.0</ele><time>2026-04-03T13:37:09Z</time></trkpt><trkpt lat="44.650627330795295" lon="9.992442127640182"><ele>532.3333333333334</ele><time>2026-04-03T13:37:10Z</time></trkpt><trkpt lat="44.65074339051459" lon="9.992572200343554"><ele>530.6666666666667</ele><time>2026-04-03T13:37:11Z</time></trkpt><trkpt lat="44.65085807385663" lon="9.992719260906744"><ele>529.0</ele><time>2026-04-03T13:37:12Z</time></trkpt><trkpt lat="44.6509837849741" lon="9.992860161167716"><ele>529.0</ele><time>2026-04-03T13:37:13Z</time></trkpt><trkpt lat="44.651114171840725" lon="9.99298965211443"><ele>529.0</ele><time>2026-04-03T13:37:14Z</time></trkpt><trkpt lat="44.651245571630085" lon="9.993098965490764"><ele>529.0</ele><time>2026-04-03T13:37:15Z</time></trkpt><trkpt lat="44.65138360161528" lon="9.993196409649823"><ele>530.3333333333334</ele><time>2026-04-03T13:37:16Z</time></trkpt><trkpt lat="44.651532864066425" lon="9.99327531382091"><ele>531.6666666666666</ele><time>2026-04-03T13:37:17Z</time></trkpt><trkpt lat="44.6516883254382" lon="9.993344753877283"><ele>533.0</ele><time>2026-04-03T13:37:18Z</time></trkpt><trkpt lat="44.65184308008481" lon="9.99341732132688"><ele>538.6666666666666</ele><time>2026-04-03T13:37:19Z</time></trkpt><trkpt lat="44.65199948164297" lon="9.993504238025418"><ele>544.3333333333334</ele><time>2026-04-03T13:37:20Z</time></trkpt><trkpt lat="44.65214011743404" lon="9.993618851286142"><ele>550.0</ele><time>2026-04-03T13:37:21Z</time></trkpt><trkpt lat="44.65226157072827" lon="9.993758136557307"><ele>550.0</ele><time>2026-04-03T13:37:22Z</time></trkpt><trkpt lat="44.65237713775276" lon="9.993887422018433"><ele>550.0</ele><time>2026-04-03T13:37:23Z</time></trkpt><trkpt lat="44.652505060693606" lon="9.993983737712954"><ele>550.0</ele><time>2026-04-03T13:37:24Z</time></trkpt><trkpt lat="44.65263345399274" lon="9.994061131911064"><ele>550.0</ele><time>2026-04-03T13:37:25Z</time></trkpt><trkpt lat="44.652757473310665" lon="9.99413864777296"><ele>550.5</ele><time>2026-04-03T13:37:26Z</time></trkpt><trkpt lat="44.65288005375659" lon="9.994213863663875"><ele>551.0</ele><time>2026-04-03T13:37:27Z</time></trkpt><trkpt lat="44.65299754556089" lon="9.994284504265313"><ele>551.5</ele><time>2026-04-03T13:37:28Z</time></trkpt><trkpt lat="44.65310834013598" lon="9.994326808809133"><ele>552.0</ele><time>2026-04-03T13:37:29Z</time></trkpt><trkpt lat="44.65322324325352" lon="9.994332728229546"><ele>552.0</ele><time>2026-04-03T13:37:30Z</time></trkpt><trkpt lat="44.653347032048956" lon="9.994318245042043"><ele>552.0</ele><time>2026-04-03T13:37:31Z</time></trkpt><trkpt lat="44.65347371237747" lon="9.994314261401048"><ele>552.0</ele><time>2026-04-03T13:37:32Z</time></trkpt><trkpt lat="44.65359191468063" lon="9.994351138008533"><ele>552.0</ele><time>2026-04-03T13:37:33Z</time></trkpt><trkpt lat="44.65371098514398" lon="9.994416701618302"><ele>555.5</ele><time>2026-04-03T13:37:34Z</time></trkpt><trkpt lat="44.65382497646042" lon="9.994469340058107"><ele>559.0</ele><time>2026-04-03T13:37:35Z</time></trkpt><trkpt lat="44.65395500968374" lon="9.994490893249427"><ele>562.5</ele><time>2026-04-03T13:37:36Z</time></trkpt><trkpt lat="44.654092438904975" lon="9.994492594530024"><ele>566.0</ele><time>2026-04-03T13:37:37Z</time></trkpt><trkpt lat="44.65425621493569" lon="9.994489801231149"><ele>566.0</ele><time>2026-04-03T13:37:38Z</time></trkpt><trkpt lat="44.654402456298065" lon="9.994533355196387"><ele>566.0</ele><time>2026-04-03T13:37:39Z</time></trkpt><trkpt lat="44.654551643284265" lon="9.994608880312725"><ele>566.0</ele><time>2026-04-03T13:37:40Z</time></trkpt><trkpt lat="44.654688888873785" lon="9.994699385711579"><ele>571.0</ele><time>2026-04-03T13:37:41Z</time></trkpt><trkpt lat="44.65482188406907" lon="9.994792279926449"><ele>576.0</ele><time>2026-04-03T13:37:42Z</time></trkpt><trkpt lat="44.65495908883274" lon="9.994884746873566"><ele>581.0</ele><time>2026-04-03T13:37:43Z</time></trkpt><trkpt lat="44.655098609073214" lon="9.994969418354497"><ele>582.6</ele><time>2026-04-03T13:37:44Z</time></trkpt><trkpt lat="44.65521907644106" lon="9.9950468258845"><ele>584.2</ele><time>2026-04-03T13:37:45Z</time></trkpt><trkpt lat="44.655324310750764" lon="9.99510114535204"><ele>585.8</ele><time>2026-04-03T13:37:46Z</time></trkpt><trkpt lat="44.65541875909368" lon="9.995112953698992"><ele>587.4</ele><time>2026-04-03T13:37:47Z</time></trkpt><trkpt lat="44.65548987988007" lon="9.995096401761016"><ele>589.0</ele><time>2026-04-03T13:37:48Z</time></trkpt><trkpt lat="44.65555381924997" lon="9.995035771934207"><ele>584.6</ele><time>2026-04-03T13:37:49.001Z</time></trkpt><trkpt lat="44.65560492191345" lon="9.99491255839573"><ele>580.2</ele><time>2026-04-03T13:37:50.001Z</time></trkpt><trkpt lat="44.65562425882648" lon="9.994764440801324"><ele>575.8000000000001</ele><time>2026-04-03T13:37:51.001Z</time></trkpt><trkpt lat="44.65563833994263" lon="9.994617461594286"><ele>571.4</ele><time>2026-04-03T13:37:52.001Z</time></trkpt><trkpt lat="44.655647279899654" lon="9.994451511514649"><ele>567.0</ele><time>2026-04-03T13:37:53.001Z</time></trkpt><trkpt lat="44.65565902750021" lon="9.994269171184598"><ele>568.0</ele><time>2026-04-03T13:37:54.001Z</time></trkpt><trkpt lat="44.65567168634171" lon="9.99408657733019"><ele>569.0</ele><time>2026-04-03T13:37:55.001Z</time></trkpt><trkpt lat="44.65569689729808" lon="9.993892771577242"><ele>570.0</ele><time>2026-04-03T13:37:56.001Z</time></trkpt><trkpt lat="44.65573538477763" lon="9.993716229404953"><ele>571.0</ele><time>2026-04-03T13:37:57.001Z</time></trkpt><trkpt lat="44.65580240082489" lon="9.993552979543805"><ele>571.0</ele><time>2026-04-03T13:37:58.001Z</time></trkpt><trkpt lat="44.65587918305352" lon="9.993404366480211"><ele>571.0</ele><time>2026-04-03T13:37:59.001Z</time></trkpt><trkpt lat="44.65596254086285" lon="9.993276713742873"><ele>571.0</ele><time>2026-04-03T13:38:00.001Z</time></trkpt><trkpt lat="44.65605566175929" lon="9.993154215990945"><ele>571.0</ele><time>2026-04-03T13:38:01.001Z</time></trkpt><trkpt lat="44.65612735453806" lon="9.993018189744804"><ele>567.25</ele><time>2026-04-03T13:38:02.001Z</time></trkpt><trkpt lat="44.65618782754068" lon="9.992872029087668"><ele>563.5</ele><time>2026-04-03T13:38:03.001Z</time></trkpt><trkpt lat="44.65623310768036" lon="9.992729307844254"><ele>559.75</ele><time>2026-04-03T13:38:04.001Z</time></trkpt><trkpt lat="44.65626980883606" lon="9.992575368516695"><ele>556.0</ele><time>2026-04-03T13:38:05.001Z</time></trkpt><trkpt lat="44.65628340648822" lon="9.992422060377814"><ele>556.0</ele><time>2026-04-03T13:38:06.001Z</time></trkpt><trkpt lat="44.65628223674462" lon="9.992259616115785"><ele>556.0</ele><time>2026-04-03T13:38:07.001Z</time></trkpt><trkpt lat="44.65628116863751" lon="9.992101049680366"><ele>556.0</ele><time>2026-04-03T13:38:08.001Z</time></trkpt><trkpt lat="44.65628992673797" lon="9.991954140010723"><ele>556.0</ele><time>2026-04-03T13:38:09.001Z</time></trkpt><trkpt lat="44.656316494988026" lon="9.991822020254125"><ele>556.0</ele><time>2026-04-03T13:38:10.001Z</time></trkpt><trkpt lat="44.65637547691613" lon="9.991712629937561"><ele>557.8</ele><time>2026-04-03T13:38:11.001Z</time></trkpt><trkpt lat="44.65645449453402" lon="9.991635260453526"><ele>559.6</ele><time>2026-04-03T13:38:12.001Z</time></trkpt><trkpt lat="44.656542900201096" lon="9.991594502577195"><ele>561.4</ele><time>2026-04-03T13:38:13.001Z</time></trkpt><trkpt lat="44.65664844439255" lon="9.991591242241316"><ele>563.2</ele><time>2026-04-03T13:38:14.001Z</time></trkpt><trkpt lat="44.65675320689653" lon="9.991588302309072"><ele>565.0</ele><time>2026-04-03T13:38:15.001Z</time></trkpt><trkpt lat="44.65684849771947" lon="9.991597068641854"><ele>565.0</ele><time>2026-04-03T13:38:16.001Z</time></trkpt><trkpt lat="44.65693806103008" lon="9.99163612911821"><ele>565.0</ele><time>2026-04-03T13:38:17.001Z</time></trkpt><trkpt lat="44.65702764182764" lon="9.991698801619926"><ele>565.0</ele><time>2026-04-03T13:38:18.001Z</time></trkpt><trkpt lat="44.657114269834594" lon="9.991750943825984"><ele>565.0</ele><time>2026-04-03T13:38:19.001Z</time></trkpt><trkpt lat="44.657192686395945" lon="9.99177202313907"><ele>565.0</ele><time>2026-04-03T13:38:20.001Z</time></trkpt><trkpt lat="44.65726085471765" lon="9.991741106731915"><ele>565.0</ele><time>2026-04-03T13:38:21.001Z</time></trkpt><trkpt lat="44.65730986045651" lon="9.991672611025876"><ele>561.4</ele><time>2026-04-03T13:38:22.001Z</time></trkpt><trkpt lat="44.6573487152741" lon="9.991564501372599"><ele>557.8</ele><time>2026-04-03T13:38:23.001Z</time></trkpt><trkpt lat="44.657384811393534" lon="9.99143404141011"><ele>554.2</ele><time>2026-04-03T13:38:24.001Z</time></trkpt><trkpt lat="44.65740574930557" lon="9.991282147004382"><ele>550.6</ele><time>2026-04-03T13:38:25.001Z</time></trkpt><trkpt lat="44.65740071805473" lon="9.991097767582929"><ele>547.0</ele><time>2026-04-03T13:38:26.001Z</time></trkpt><trkpt lat="44.65741559443012" lon="9.990909138133395"><ele>548.5</ele><time>2026-04-03T13:38:27.001Z</time></trkpt><trkpt lat="44.65744336818118" lon="9.990729362546247"><ele>550.0</ele><time>2026-04-03T13:38:28.001Z</time></trkpt><trkpt lat="44.65748513068789" lon="9.99054298829641"><ele>551.5</ele><time>2026-04-03T13:38:29.001Z</time></trkpt><trkpt lat="44.65752969613798" lon="9.99034373116132"><ele>553.0</ele><time>2026-04-03T13:38:30.001Z</time></trkpt><trkpt lat="44.657559120482325" lon="9.990138464920726"><ele>553.0</ele><time>2026-04-03T13:38:31.001Z</time></trkpt><trkpt lat="44.65758273899499" lon="9.98993276832305"><ele>553.0</ele><time>2026-04-03T13:38:32.001Z</time></trkpt><trkpt lat="44.657600525972725" lon="9.989729494271616"><ele>553.0</ele><time>2026-04-03T13:38:33.001Z</time></trkpt><trkpt lat="44.65762278538188" lon="9.989536626239273"><ele>553.0</ele><time>2026-04-03T13:38:34.001Z</time></trkpt><trkpt lat="44.6576566131866" lon="9.98934510940134"><ele>553.25</ele><time>2026-04-03T13:38:35.001Z</time></trkpt><trkpt lat="44.65769574982748" lon="9.989160733621906"><ele>553.5</ele><time>2026-04-03T13:38:36.001Z</time></trkpt><trkpt lat="44.65773234702446" lon="9.988966282796003"><ele>553.75</ele><time>2026-04-03T13:38:37.001Z</time></trkpt><trkpt lat="44.65776186926607" lon="9.988769875865371"><ele>554.0</ele><time>2026-04-03T13:38:38.001Z</time></trkpt><trkpt lat="44.6577811410342" lon="9.988566326530009"><ele>546.75</ele><time>2026-04-03T13:38:39.001Z</time></trkpt><trkpt lat="44.65779746784283" lon="9.988354907470113"><ele>539.5</ele><time>2026-04-03T13:38:40.001Z</time></trkpt><trkpt lat="44.6578231113923" lon="9.98816119107199"><ele>532.25</ele><time>2026-04-03T13:38:41.001Z</time></trkpt><trkpt lat="44.65785360216869" lon="9.9880007921005"><ele>525.0</ele><time>2026-04-03T13:38:42.001Z</time></trkpt><trkpt lat="44.657881248544406" lon="9.987865140102024"><ele>525.0</ele><time>2026-04-03T13:38:43.001Z</time></trkpt><trkpt lat="44.657912495426196" lon="9.98776430317059"><ele>525.0</ele><time>2026-04-03T13:38:44.001Z</time></trkpt><trkpt lat="44.657955512940894" lon="9.987681062264251"><ele>525.0</ele><time>2026-04-03T13:38:45.001Z</time></trkpt><trkpt lat="44.658024267677966" lon="9.987635509205255"><ele>525.0</ele><time>2026-04-03T13:38:46.001Z</time></trkpt><trkpt lat="44.658121731064966" lon="9.987636701414315"><ele>525.0</ele><time>2026-04-03T13:38:47.001Z</time></trkpt><trkpt lat="44.65819735349277" lon="9.987696161685086"><ele>525.0</ele><time>2026-04-03T13:38:48.001Z</time></trkpt><trkpt lat="44.65825127793343" lon="9.987831827575313"><ele>525.0</ele><time>2026-04-03T13:38:49.001Z</time></trkpt><trkpt lat="44.65824371785514" lon="9.987982045168573"><ele>525.0</ele><time>2026-04-03T13:38:50.001Z</time></trkpt><trkpt lat="44.65821202758519" lon="9.988126184422587"><ele>525.0</ele><time>2026-04-03T13:38:51.001Z</time></trkpt><trkpt lat="44.658180259792154" lon="9.988269594358599"><ele>525.0</ele><time>2026-04-03T13:38:52.001Z</time></trkpt><trkpt lat="44.658147130052306" lon="9.98840838838126"><ele>525.0</ele><time>2026-04-03T13:38:53.001Z</time></trkpt><trkpt lat="44.65812663148258" lon="9.988543090223041"><ele>524.4</ele><time>2026-04-03T13:38:54.001Z</time></trkpt><trkpt lat="44.65811889049209" lon="9.988675133588536"><ele>523.8</ele><time>2026-04-03T13:38:55.001Z</time></trkpt><trkpt lat="44.65813288511927" lon="9.9888132987527"><ele>523.2</ele><time>2026-04-03T13:38:56.001Z</time></trkpt><trkpt lat="44.65815238277589" lon="9.988956925451072"><ele>522.6</ele><time>2026-04-03T13:38:57.001Z</time></trkpt><trkpt lat="44.65820972794082" lon="9.989108694631184"><ele>522.0</ele><time>2026-04-03T13:38:58.001Z</time></trkpt><trkpt lat="44.65828188228151" lon="9.989238067441251"><ele>521.2</ele><time>2026-04-03T13:38:59.001Z</time></trkpt><trkpt lat="44.65836091162293" lon="9.989362545916451"><ele>520.4000000000001</ele><time>2026-04-03T13:39:00.001Z</time></trkpt><trkpt lat="44.65838892763103" lon="9.98950254436539"><ele>519.5999999999999</ele><time>2026-04-03T13:39:01.001Z</time></trkpt><trkpt lat="44.65838001826597" lon="9.989645234936775"><ele>518.8</ele><time>2026-04-03T13:39:02.001Z</time></trkpt><trkpt lat="44.65835131591766" lon="9.989788786254588"><ele>518.0</ele><time>2026-04-03T13:39:03.001Z</time></trkpt><trkpt lat="44.65830878318756" lon="9.989947284616907"><ele>516.5</ele><time>2026-04-03T13:39:04.001Z</time></trkpt><trkpt lat="44.65828895542761" lon="9.990100421484588"><ele>515.0</ele><time>2026-04-03T13:39:05.001Z</time></trkpt><trkpt lat="44.65828402786219" lon="9.990283003761272"><ele>513.5</ele><time>2026-04-03T13:39:06.001Z</time></trkpt><trkpt lat="44.658284089159515" lon="9.990471677880464"><ele>512.0</ele><time>2026-04-03T13:39:07.001Z</time></trkpt><trkpt lat="44.65828957581769" lon="9.99067703764717"><ele>511.0</ele><time>2026-04-03T13:39:08.001Z</time></trkpt><trkpt lat="44.658289788944046" lon="9.99088205177008"><ele>510.0</ele><time>2026-04-03T13:39:09.001Z</time></trkpt><trkpt lat="44.65829591541006" lon="9.991080457076785"><ele>509.0</ele><time>2026-04-03T13:39:10.001Z</time></trkpt><trkpt lat="44.65830317265124" lon="9.991268368766992"><ele>508.0</ele><time>2026-04-03T13:39:11.001Z</time></trkpt><trkpt lat="44.65831559809782" lon="9.99144944964234"><ele>508.0</ele><time>2026-04-03T13:39:12.001Z</time></trkpt><trkpt lat="44.65833838766217" lon="9.99162809674431"><ele>508.0</ele><time>2026-04-03T13:39:13.001Z</time></trkpt><trkpt lat="44.65837542758011" lon="9.991797455415279"><ele>508.0</ele><time>2026-04-03T13:39:14.001Z</time></trkpt><trkpt lat="44.65840890374148" lon="9.991946523159246"><ele>508.0</ele><time>2026-04-03T13:39:15.001Z</time></trkpt><trkpt lat="44.65841477881753" lon="9.992078396396861"><ele>506.79999999999995</ele><time>2026-04-03T13:39:16.001Z</time></trkpt><trkpt lat="44.65838665594426" lon="9.99219379359041"><ele>505.59999999999997</ele><time>2026-04-03T13:39:17.001Z</time></trkpt><trkpt lat="44.658318452452264" lon="9.992320007283556"><ele>504.40000000000003</ele><time>2026-04-03T13:39:18.001Z</time></trkpt><trkpt lat="44.658264920630984" lon="9.992461311649476"><ele>503.20000000000005</ele><time>2026-04-03T13:39:19.001Z</time></trkpt><trkpt lat="44.65821901252975" lon="9.992606712349467"><ele>502.0</ele><time>2026-04-03T13:39:20.001Z</time></trkpt><trkpt lat="44.65818569305974" lon="9.992764651305531"><ele>501.0</ele><time>2026-04-03T13:39:21.001Z</time></trkpt><trkpt lat="44.658176610124166" lon="9.992906400865968"><ele>500.0</ele><time>2026-04-03T13:39:22.001Z</time></trkpt><trkpt lat="44.65820057523153" lon="9.993063468349348"><ele>499.0</ele><time>2026-04-03T13:39:23.001Z</time></trkpt><trkpt lat="44.658237432695955" lon="9.993233890900541"><ele>498.0</ele><time>2026-04-03T13:39:24.001Z</time></trkpt><trkpt lat="44.6582796253665" lon="9.993406772382233"><ele>496.0</ele><time>2026-04-03T13:39:25.001Z</time></trkpt><trkpt lat="44.6583632605457" lon="9.993556052320647"><ele>494.0</ele><time>2026-04-03T13:39:26.001Z</time></trkpt><trkpt lat="44.65846274190699" lon="9.993686142400778"><ele>492.0</ele><time>2026-04-03T13:39:27.001Z</time></trkpt><trkpt lat="44.658538783957326" lon="9.993825521727622"><ele>490.0</ele><time>2026-04-03T13:39:28.001Z</time></trkpt><trkpt lat="44.65855909530664" lon="9.994000828241898"><ele>490.0</ele><time>2026-04-03T13:39:29.001Z</time></trkpt><trkpt lat="44.65854835821838" lon="9.994168567830659"><ele>490.0</ele><time>2026-04-03T13:39:30.001Z</time></trkpt><trkpt lat="44.65853188494689" lon="9.994334686793707"><ele>490.0</ele><time>2026-04-03T13:39:31.001Z</time></trkpt><trkpt lat="44.658504376280355" lon="9.99446912659748"><ele>490.0</ele><time>2026-04-03T13:39:32.001Z</time></trkpt><trkpt lat="44.65846326881935" lon="9.994559410434382"><ele>490.0</ele><time>2026-04-03T13:39:33.001Z</time></trkpt><trkpt lat="44.65838924403673" lon="9.99461451309992"><ele>488.33333333333337</ele><time>2026-04-03T13:39:34.001Z</time></trkpt><trkpt lat="44.65830101868543" lon="9.994635952815887"><ele>486.6666666666667</ele><time>2026-04-03T13:39:35.001Z</time></trkpt><trkpt lat="44.65819639841271" lon="9.994635525147388"><ele>485.0</ele><time>2026-04-03T13:39:36.001Z</time></trkpt><trkpt lat="44.658103534383166" lon="9.994641985695946"><ele>483.33333333333337</ele><time>2026-04-03T13:39:37.001Z</time></trkpt><trkpt lat="44.658035873696726" lon="9.994674315137463"><ele>481.6666666666667</ele><time>2026-04-03T13:39:38.001Z</time></trkpt><trkpt lat="44.65797444493908" lon="9.994739393587551"><ele>480.0</ele><time>2026-04-03T13:39:39.001Z</time></trkpt><trkpt lat="44.6579309075344" lon="9.994860568943263"><ele>478.5</ele><time>2026-04-03T13:39:40.001Z</time></trkpt><trkpt lat="44.657918191427136" lon="9.99501366517031"><ele>477.0</ele><time>2026-04-03T13:39:41.001Z</time></trkpt><trkpt lat="44.657964464883136" lon="9.99514107308173"><ele>475.5</ele><time>2026-04-03T13:39:42.001Z</time></trkpt><trkpt lat="44.65802132842326" lon="9.995299023620632"><ele>474.0</ele><time>2026-04-03T13:39:43.001Z</time></trkpt><trkpt lat="44.658074044897525" lon="9.995460487676832"><ele>474.0</ele><time>2026-04-03T13:39:44.001Z</time></trkpt><trkpt lat="44.65811927128202" lon="9.995620756757722"><ele>474.0</ele><time>2026-04-03T13:39:45.001Z</time></trkpt><trkpt lat="44.6581522362214" lon="9.995792497762965"><ele>474.0</ele><time>2026-04-03T13:39:46.001Z</time></trkpt><trkpt lat="44.65815650615154" lon="9.995984475941386"><ele>474.0</ele><time>2026-04-03T13:39:47.001Z</time></trkpt><trkpt lat="44.65816552181001" lon="9.996187360424987"><ele>473.5</ele><time>2026-04-03T13:39:48.001Z</time></trkpt><trkpt lat="44.658188947616864" lon="9.99638251556184"><ele>473.0</ele><time>2026-04-03T13:39:49.001Z</time></trkpt><trkpt lat="44.65822142772933" lon="9.996576792144518"><ele>472.5</ele><time>2026-04-03T13:39:50.001Z</time></trkpt><trkpt lat="44.65826437503607" lon="9.996777912169398"><ele>472.0</ele><time>2026-04-03T13:39:51.001Z</time></trkpt><trkpt lat="44.65831493583921" lon="9.996978439432423"><ele>472.0</ele><time>2026-04-03T13:39:52.001Z</time></trkpt><trkpt lat="44.65837726954475" lon="9.99716248229755"><ele>472.0</ele><time>2026-04-03T13:39:53.001Z</time></trkpt><trkpt lat="44.65844309058311" lon="9.997341998433347"><ele>472.0</ele><time>2026-04-03T13:39:54.001Z</time></trkpt><trkpt lat="44.65850212397119" lon="9.997510810176617"><ele>472.0</ele><time>2026-04-03T13:39:55.001Z</time></trkpt><trkpt lat="44.65855864009866" lon="9.997676262695176"><ele>467.5</ele><time>2026-04-03T13:39:56.001Z</time></trkpt><trkpt lat="44.658619867019645" lon="9.997825414094565"><ele>463.0</ele><time>2026-04-03T13:39:57.001Z</time></trkpt><trkpt lat="44.65870275003222" lon="9.997961635010585"><ele>458.5</ele><time>2026-04-03T13:39:58.001Z</time></trkpt><trkpt lat="44.65880833699122" lon="9.99807067696458"><ele>454.0</ele><time>2026-04-03T13:39:59.001Z</time></trkpt><trkpt lat="44.6589390135494" lon="9.998167946766019"><ele>454.0</ele><time>2026-04-03T13:40:00.001Z</time></trkpt><trkpt lat="44.659068393124905" lon="9.998249260217847"><ele>454.0</ele><time>2026-04-03T13:40:01.001Z</time></trkpt><trkpt lat="44.65918912019429" lon="9.998321665446795"><ele>454.0</ele><time>2026-04-03T13:40:02.001Z</time></trkpt><trkpt lat="44.65929648602315" lon="9.998401281494484"><ele>454.0</ele><time>2026-04-03T13:40:03.001Z</time></trkpt><trkpt lat="44.65940683595675" lon="9.998489150190112"><ele>449.75</ele><time>2026-04-03T13:40:04.001Z</time></trkpt><trkpt lat="44.659506597752284" lon="9.998610936692883"><ele>445.5</ele><time>2026-04-03T13:40:05.001Z</time></trkpt><trkpt lat="44.65959770282413" lon="9.998757958265442"><ele>441.25</ele><time>2026-04-03T13:40:06.001Z</time></trkpt><trkpt lat="44.659680372479286" lon="9.998909224307143"><ele>437.0</ele><time>2026-04-03T13:40:07.001Z</time></trkpt><trkpt lat="44.6597389379" lon="9.999057956173479"><ele>437.25</ele><time>2026-04-03T13:40:08.001Z</time></trkpt><trkpt lat="44.659771115790136" lon="9.99921442354191"><ele>437.5</ele><time>2026-04-03T13:40:09.001Z</time></trkpt><trkpt lat="44.65980183111472" lon="9.999377546864205"><ele>437.75</ele><time>2026-04-03T13:40:10.001Z</time></trkpt><trkpt lat="44.65983749967856" lon="9.999552359035647"><ele>438.0</ele><time>2026-04-03T13:40:11.001Z</time></trkpt><trkpt lat="44.659870119337775" lon="9.999737365035438"><ele>438.0</ele><time>2026-04-03T13:40:12.001Z</time></trkpt><trkpt lat="44.65990897983081" lon="9.999916873383194"><ele>438.0</ele><time>2026-04-03T13:40:13.001Z</time></trkpt><trkpt lat="44.65994578866067" lon="10.000099985728031"><ele>438.0</ele><time>2026-04-03T13:40:14.001Z</time></trkpt><trkpt lat="44.65998459478893" lon="10.000274590392854"><ele>438.0</ele><time>2026-04-03T13:40:15.001Z</time></trkpt><trkpt lat="44.660011898499576" lon="10.000425003859279"><ele>438.0</ele><time>2026-04-03T13:40:16.001Z</time></trkpt><trkpt lat="44.66002050388925" lon="10.000556734390342"><ele>437.99999999999994</ele><time>2026-04-03T13:40:17.001Z</time></trkpt><trkpt lat="44.659991873786865" lon="10.000675358224141"><ele>437.99999999999994</ele><time>2026-04-03T13:40:18.001Z</time></trkpt><trkpt lat="44.65992745164802" lon="10.000779413280751"><ele>438.0</ele><time>2026-04-03T13:40:19.001Z</time></trkpt><trkpt lat="44.65983880069143" lon="10.000896346831476"><ele>438.0</ele><time>2026-04-03T13:40:20.001Z</time></trkpt><trkpt lat="44.65976011590194" lon="10.001009908861816"><ele>437.2</ele><time>2026-04-03T13:40:21.001Z</time></trkpt><trkpt lat="44.65969566650524" lon="10.001127955504836"><ele>436.4</ele><time>2026-04-03T13:40:22.001Z</time></trkpt><trkpt lat="44.65965127931997" lon="10.001247126833153"><ele>435.59999999999997</ele><time>2026-04-03T13:40:23.001Z</time></trkpt><trkpt lat="44.65964172490864" lon="10.001384176035705"><ele>434.79999999999995</ele><time>2026-04-03T13:40:24.001Z</time></trkpt><trkpt lat="44.659664759251356" lon="10.001509194768584"><ele>434.0</ele><time>2026-04-03T13:40:25.001Z</time></trkpt><trkpt lat="44.65971403570428" lon="10.001637575278739"><ele>432.75</ele><time>2026-04-03T13:40:26.001Z</time></trkpt><trkpt lat="44.65979706537467" lon="10.001778703612635"><ele>431.5</ele><time>2026-04-03T13:40:27.001Z</time></trkpt><trkpt lat="44.659919769233795" lon="10.0019250714043"><ele>430.25</ele><time>2026-04-03T13:40:28.001Z</time></trkpt><trkpt lat="44.660028145646386" lon="10.002075112097524"><ele>429.0</ele><time>2026-04-03T13:40:29.001Z</time></trkpt><trkpt lat="44.66013274023593" lon="10.002225391142911"><ele>429.0</ele><time>2026-04-03T13:40:30.001Z</time></trkpt><trkpt lat="44.660241008287066" lon="10.002374490029895"><ele>429.0</ele><time>2026-04-03T13:40:31.001Z</time></trkpt><trkpt lat="44.66033776578047" lon="10.002531031784807"><ele>429.0</ele><time>2026-04-03T13:40:32.001Z</time></trkpt><trkpt lat="44.66043977405027" lon="10.002686590353157"><ele>424.5</ele><time>2026-04-03T13:40:33.001Z</time></trkpt><trkpt lat="44.6605382341669" lon="10.002833435507585"><ele>420.0</ele><time>2026-04-03T13:40:34.001Z</time></trkpt><trkpt lat="44.660626128690154" lon="10.002970369717309"><ele>415.5</ele><time>2026-04-03T13:40:35.001Z</time></trkpt><trkpt lat="44.660709899646726" lon="10.00310711258622"><ele>411.0</ele><time>2026-04-03T13:40:36.001Z</time></trkpt><trkpt lat="44.66078185028127" lon="10.003252150251503"><ele>412.25</ele><time>2026-04-03T13:40:37.001Z</time></trkpt><trkpt lat="44.66082860298059" lon="10.003422554064267"><ele>413.5</ele><time>2026-04-03T13:40:38.001Z</time></trkpt><trkpt lat="44.660842251543926" lon="10.003620920923252"><ele>414.75</ele><time>2026-04-03T13:40:39.001Z</time></trkpt><trkpt lat="44.660851738797575" lon="10.003823669967023"><ele>416.0</ele><time>2026-04-03T13:40:40.001Z</time></trkpt><trkpt lat="44.660868947662706" lon="10.004014176855055"><ele>416.25</ele><time>2026-04-03T13:40:41.001Z</time></trkpt><trkpt lat="44.66089623644499" lon="10.004187955690144"><ele>416.5</ele><time>2026-04-03T13:40:42.001Z</time></trkpt><trkpt lat="44.66093533732997" lon="10.004345801194349"><ele>416.75</ele><time>2026-04-03T13:40:43.001Z</time></trkpt><trkpt lat="44.66099294778759" lon="10.004488178677429"><ele>417.0</ele><time>2026-04-03T13:40:44.001Z</time></trkpt><trkpt lat="44.66110887112156" lon="10.004635162249137"><ele>412.66666666666663</ele><time>2026-04-03T13:40:45.001Z</time></trkpt><trkpt lat="44.66123759932225" lon="10.004777019467834"><ele>408.3333333333333</ele><time>2026-04-03T13:40:46.001Z</time></trkpt><trkpt lat="44.661378980364795" lon="10.004910150865607"><ele>404.0</ele><time>2026-04-03T13:40:47.001Z</time></trkpt><trkpt lat="44.66151011002267" lon="10.005047682311123"><ele>404.0</ele><time>2026-04-03T13:40:48.001Z</time></trkpt><trkpt lat="44.66163084878038" lon="10.005179623621267"><ele>404.0</ele><time>2026-04-03T13:40:49.001Z</time></trkpt><trkpt lat="44.661741151855196" lon="10.005306428389895"><ele>404.0</ele><time>2026-04-03T13:40:50.001Z</time></trkpt><trkpt lat="44.66184250820658" lon="10.005421447108906"><ele>404.0</ele><time>2026-04-03T13:40:51.001Z</time></trkpt><trkpt lat="44.661929369984485" lon="10.005516851907494"><ele>403.3333333333333</ele><time>2026-04-03T13:40:52.001Z</time></trkpt><trkpt lat="44.66200955654695" lon="10.005580810689175"><ele>402.66666666666663</ele><time>2026-04-03T13:40:53.001Z</time></trkpt><trkpt lat="44.66208959806022" lon="10.005615109342429"><ele>402.0</ele><time>2026-04-03T13:40:54.001Z</time></trkpt><trkpt lat="44.662173826356344" lon="10.005605655803462"><ele>401.33333333333337</ele><time>2026-04-03T13:40:55.001Z</time></trkpt><trkpt lat="44.66224899389494" lon="10.005576515722275"><ele>400.6666666666667</ele><time>2026-04-03T13:40:56.001Z</time></trkpt><trkpt lat="44.66230184980226" lon="10.005491991828864"><ele>400.0</ele><time>2026-04-03T13:40:57.001Z</time></trkpt><trkpt lat="44.662353531846065" lon="10.0053765949537"><ele>400.0</ele><time>2026-04-03T13:40:58.001Z</time></trkpt><trkpt lat="44.66240650333452" lon="10.00523840298614"><ele>400.0</ele><time>2026-04-03T13:40:59.001Z</time></trkpt><trkpt lat="44.662470777092594" lon="10.00512033156562"><ele>400.0</ele><time>2026-04-03T13:41:00.001Z</time></trkpt><trkpt lat="44.66255905612041" lon="10.005053380504553"><ele>400.0</ele><time>2026-04-03T13:41:01.001Z</time></trkpt><trkpt lat="44.66265867259363" lon="10.005022351629735"><ele>400.0</ele><time>2026-04-03T13:41:02.001Z</time></trkpt><trkpt lat="44.662762402244475" lon="10.005012955712713"><ele>397.6</ele><time>2026-04-03T13:41:03.001Z</time></trkpt><trkpt lat="44.66286922015732" lon="10.005035181661608"><ele>395.2</ele><time>2026-04-03T13:41:04.001Z</time></trkpt><trkpt lat="44.66297629668141" lon="10.005102574342434"><ele>392.79999999999995</ele><time>2026-04-03T13:41:05.001Z</time></trkpt><trkpt lat="44.66307594988511" lon="10.005170840240925"><ele>390.4</ele><time>2026-04-03T13:41:06.001Z</time></trkpt><trkpt lat="44.6631665076893" lon="10.005251721393009"><ele>388.0</ele><time>2026-04-03T13:41:07.001Z</time></trkpt><trkpt lat="44.66324475924921" lon="10.005337150187438"><ele>388.00000000000006</ele><time>2026-04-03T13:41:08.001Z</time></trkpt><trkpt lat="44.663309892535196" lon="10.005427687106916"><ele>388.0</ele><time>2026-04-03T13:41:09.001Z</time></trkpt><trkpt lat="44.66337821318799" lon="10.005492630974958"><ele>388.0</ele><time>2026-04-03T13:41:10.001Z</time></trkpt><trkpt lat="44.663457163067186" lon="10.005525467363817"><ele>388.0</ele><time>2026-04-03T13:41:11.001Z</time></trkpt><trkpt lat="44.6635331162824" lon="10.005490269079292"><ele>388.00000000000006</ele><time>2026-04-03T13:41:12.001Z</time></trkpt><trkpt lat="44.663585683555254" lon="10.005392444413456"><ele>388.0</ele><time>2026-04-03T13:41:13.001Z</time></trkpt><trkpt lat="44.66359799427755" lon="10.005274192852925"><ele>388.0</ele><time>2026-04-03T13:41:14.001Z</time></trkpt><trkpt lat="44.66355821093195" lon="10.005147579451057"><ele>388.0</ele><time>2026-04-03T13:41:15.001Z</time></trkpt><trkpt lat="44.66349035299721" lon="10.005013477168715"><ele>388.0</ele><time>2026-04-03T13:41:16.001Z</time></trkpt><trkpt lat="44.663425170696456" lon="10.004878547163397"><ele>388.0</ele><time>2026-04-03T13:41:17.002Z</time></trkpt><trkpt lat="44.663354721724104" lon="10.00474121748654"><ele>385.5</ele><time>2026-04-03T13:41:18.002Z</time></trkpt><trkpt lat="44.66327665984366" lon="10.004601348888263"><ele>383.0</ele><time>2026-04-03T13:41:19.002Z</time></trkpt><trkpt lat="44.66319445264805" lon="10.00446675841092"><ele>380.5</ele><time>2026-04-03T13:41:20.002Z</time></trkpt><trkpt lat="44.663099722202155" lon="10.004341352632325"><ele>378.0</ele><time>2026-04-03T13:41:21.002Z</time></trkpt><trkpt lat="44.6629964395083" lon="10.004226319806605"><ele>377.75</ele><time>2026-04-03T13:41:22.002Z</time></trkpt><trkpt lat="44.662876420094044" lon="10.004132956070103"><ele>377.5</ele><time>2026-04-03T13:41:23.002Z</time></trkpt><trkpt lat="44.66275854605653" lon="10.004056172384747"><ele>377.25</ele><time>2026-04-03T13:41:24.002Z</time></trkpt><trkpt lat="44.66265505208504" lon="10.003998127440436"><ele>377.0</ele><time>2026-04-03T13:41:25.002Z</time></trkpt><trkpt lat="44.66256488904079" lon="10.00396306989948"><ele>377.0</ele><time>2026-04-03T13:41:26.002Z</time></trkpt><trkpt lat="44.66249135172625" lon="10.003928371552789"><ele>377.0</ele><time>2026-04-03T13:41:27.002Z</time></trkpt><trkpt lat="44.66243188227407" lon="10.003871611983724"><ele>377.0</ele><time>2026-04-03T13:41:28.002Z</time></trkpt><trkpt lat="44.6624053323275" lon="10.003791199222935"><ele>377.0</ele><time>2026-04-03T13:41:29.002Z</time></trkpt><trkpt lat="44.662442476638155" lon="10.003674260804498"><ele>377.0</ele><time>2026-04-03T13:41:30.002Z</time></trkpt><trkpt lat="44.66250088174279" lon="10.003606709887503"><ele>377.0</ele><time>2026-04-03T13:41:31.002Z</time></trkpt><trkpt lat="44.662584921081965" lon="10.003609855949641"><ele>377.0</ele><time>2026-04-03T13:41:32.002Z</time></trkpt><trkpt lat="44.662690324414896" lon="10.003675887428232"><ele>377.0</ele><time>2026-04-03T13:41:33.002Z</time></trkpt><trkpt lat="44.66279673315221" lon="10.003758579079722"><ele>377.0</ele><time>2026-04-03T13:41:34.002Z</time></trkpt><trkpt lat="44.66291535856691" lon="10.00380228868018"><ele>377.0</ele><time>2026-04-03T13:41:35.002Z</time></trkpt><trkpt lat="44.6630444190551" lon="10.003802251607055"><ele>375.0</ele><time>2026-04-03T13:41:36.002Z</time></trkpt><trkpt lat="44.66318504919163" lon="10.00375331682273"><ele>373.0</ele><time>2026-04-03T13:41:37.002Z</time></trkpt><trkpt lat="44.663332022966244" lon="10.00367259045639"><ele>371.0</ele><time>2026-04-03T13:41:38.002Z</time></trkpt><trkpt lat="44.66346296099532" lon="10.003604274889263"><ele>369.0</ele><time>2026-04-03T13:41:39.002Z</time></trkpt><trkpt lat="44.66359004277225" lon="10.003557833592376"><ele>367.25</ele><time>2026-04-03T13:41:40.002Z</time></trkpt><trkpt lat="44.66372683306801" lon="10.003528344064541"><ele>365.5</ele><time>2026-04-03T13:41:41.002Z</time></trkpt><trkpt lat="44.66386573828143" lon="10.003519658688193"><ele>363.75</ele><time>2026-04-03T13:41:42.002Z</time></trkpt><trkpt lat="44.66401015744006" lon="10.003532486246284"><ele>362.0</ele><time>2026-04-03T13:41:43.002Z</time></trkpt><trkpt lat="44.66415327732685" lon="10.003557054682974"><ele>362.0</ele><time>2026-04-03T13:41:44.002Z</time></trkpt><trkpt lat="44.664287220796524" lon="10.003605077488926"><ele>362.0</ele><time>2026-04-03T13:41:45.002Z</time></trkpt><trkpt lat="44.66441183526589" lon="10.003642518693729"><ele>362.0</ele><time>2026-04-03T13:41:46.002Z</time></trkpt><trkpt lat="44.664526192264695" lon="10.003680430500605"><ele>362.0</ele><time>2026-04-03T13:41:47.002Z</time></trkpt><trkpt lat="44.66464095912072" lon="10.003764263732622"><ele>361.0</ele><time>2026-04-03T13:41:48.002Z</time></trkpt><trkpt lat="44.66474143628806" lon="10.003888194093697"><ele>360.0</ele><time>2026-04-03T13:41:49.002Z</time></trkpt><trkpt lat="44.664847262948676" lon="10.004035353328009"><ele>359.0</ele><time>2026-04-03T13:41:50.002Z</time></trkpt><trkpt lat="44.66495297672762" lon="10.004182029156517"><ele>358.0</ele><time>2026-04-03T13:41:51.002Z</time></trkpt><trkpt lat="44.66506265328169" lon="10.004316921216148"><ele>358.0</ele><time>2026-04-03T13:41:52.002Z</time></trkpt><trkpt lat="44.66518127159823" lon="10.004427669049896"><ele>358.0</ele><time>2026-04-03T13:41:53.002Z</time></trkpt><trkpt lat="44.66528850497044" lon="10.004531310979619"><ele>358.0</ele><time>2026-04-03T13:41:54.002Z</time></trkpt><trkpt lat="44.665381310854436" lon="10.00463234063262"><ele>358.0</ele><time>2026-04-03T13:41:55.002Z</time></trkpt><trkpt lat="44.66545018137179" lon="10.004744670170066"><ele>356.5</ele><time>2026-04-03T13:41:56.002Z</time></trkpt><trkpt lat="44.66549167649983" lon="10.004875855322547"><ele>355.0</ele><time>2026-04-03T13:41:57.002Z</time></trkpt><trkpt lat="44.66547705850606" lon="10.005019521768556"><ele>353.5</ele><time>2026-04-03T13:41:58.002Z</time></trkpt><trkpt lat="44.66541501306057" lon="10.005173035629966"><ele>352.0</ele><time>2026-04-03T13:41:59.002Z</time></trkpt><trkpt lat="44.66535770211887" lon="10.005330459540447"><ele>352.0</ele><time>2026-04-03T13:42:00.002Z</time></trkpt><trkpt lat="44.6652992775064" lon="10.005508083272248"><ele>352.0</ele><time>2026-04-03T13:42:01.002Z</time></trkpt><trkpt lat="44.66524285832947" lon="10.005684186634202"><ele>352.0</ele><time>2026-04-03T13:42:02.002Z</time></trkpt><trkpt lat="44.66520591499747" lon="10.005858297473326"><ele>352.0</ele><time>2026-04-03T13:42:03.002Z</time></trkpt><trkpt lat="44.6651973022922" lon="10.006026285881472"><ele>350.25</ele><time>2026-04-03T13:42:04.002Z</time></trkpt><trkpt lat="44.66521713891637" lon="10.006194328600941"><ele>348.5</ele><time>2026-04-03T13:42:05.002Z</time></trkpt><trkpt lat="44.66526115616836" lon="10.006364578008945"><ele>346.75</ele><time>2026-04-03T13:42:06.002Z</time></trkpt><trkpt lat="44.665331774236776" lon="10.006533272529305"><ele>345.0</ele><time>2026-04-03T13:42:07.002Z</time></trkpt><trkpt lat="44.665407121078346" lon="10.00668228706206"><ele>343.6666666666667</ele><time>2026-04-03T13:42:08.002Z</time></trkpt><trkpt lat="44.66553213406001" lon="10.00680764372217"><ele>342.33333333333337</ele><time>2026-04-03T13:42:09.002Z</time></trkpt><trkpt lat="44.66567285783392" lon="10.006908743675158"><ele>341.0</ele><time>2026-04-03T13:42:10.002Z</time></trkpt><trkpt lat="44.66582480316744" lon="10.006991835222989"><ele>341.0</ele><time>2026-04-03T13:42:11.002Z</time></trkpt><trkpt lat="44.66596428382747" lon="10.007077603319914"><ele>341.0</ele><time>2026-04-03T13:42:12.002Z</time></trkpt><trkpt lat="44.66610486107979" lon="10.007169857043298"><ele>341.0</ele><time>2026-04-03T13:42:13.002Z</time></trkpt><trkpt lat="44.666245136572165" lon="10.00727487786184"><ele>341.33333333333337</ele><time>2026-04-03T13:42:14.002Z</time></trkpt><trkpt lat="44.666387203875416" lon="10.007386323551374"><ele>341.6666666666667</ele><time>2026-04-03T13:42:15.002Z</time></trkpt><trkpt lat="44.666524335318385" lon="10.007492388945634"><ele>342.0</ele><time>2026-04-03T13:42:16.002Z</time></trkpt><trkpt lat="44.666653894764295" lon="10.007576089621281"><ele>342.0</ele><time>2026-04-03T13:42:17.002Z</time></trkpt><trkpt lat="44.666784160632126" lon="10.007651590259053"><ele>342.0</ele><time>2026-04-03T13:42:18.002Z</time></trkpt><trkpt lat="44.66691320730946" lon="10.007718989986513"><ele>342.0</ele><time>2026-04-03T13:42:19.002Z</time></trkpt><trkpt lat="44.66704391446222" lon="10.007810097317202"><ele>342.0</ele><time>2026-04-03T13:42:20.002Z</time></trkpt><trkpt lat="44.66716204692213" lon="10.007889567017866"><ele>342.5</ele><time>2026-04-03T13:42:21.002Z</time></trkpt><trkpt lat="44.66728813516683" lon="10.007944561527426"><ele>343.0</ele><time>2026-04-03T13:42:22.002Z</time></trkpt><trkpt lat="44.66741454602465" lon="10.007985187939639"><ele>343.5</ele><time>2026-04-03T13:42:23.002Z</time></trkpt><trkpt lat="44.667545089522264" lon="10.008018046408278"><ele>344.0</ele><time>2026-04-03T13:42:24.002Z</time></trkpt><trkpt lat="44.667686345328356" lon="10.008047626466736"><ele>342.0</ele><time>2026-04-03T13:42:25.002Z</time></trkpt><trkpt lat="44.667830757558676" lon="10.008071027484867"><ele>340.0</ele><time>2026-04-03T13:42:26.002Z</time></trkpt><trkpt lat="44.66799005677025" lon="10.008087806979496"><ele>338.0</ele><time>2026-04-03T13:42:27.002Z</time></trkpt><trkpt lat="44.668151359211606" lon="10.008109783850188"><ele>338.0</ele><time>2026-04-03T13:42:28.002Z</time></trkpt><trkpt lat="44.66830992260636" lon="10.00813518742534"><ele>338.0</ele><time>2026-04-03T13:42:29.002Z</time></trkpt><trkpt lat="44.66847062395153" lon="10.008158044987585"><ele>338.0</ele><time>2026-04-03T13:42:30.002Z</time></trkpt><trkpt lat="44.66862966212772" lon="10.008168658691698"><ele>336.0</ele><time>2026-04-03T13:42:31.002Z</time></trkpt><trkpt lat="44.66878614703198" lon="10.008177898166768"><ele>334.0</ele><time>2026-04-03T13:42:32.002Z</time></trkpt><trkpt lat="44.66893464398895" lon="10.008184028825566"><ele>332.0</ele><time>2026-04-03T13:42:33.002Z</time></trkpt><trkpt lat="44.6690803698896" lon="10.008193989662185"><ele>332.0</ele><time>2026-04-03T13:42:34.002Z</time></trkpt><trkpt lat="44.66922599809551" lon="10.008202544714397"><ele>332.0</ele><time>2026-04-03T13:42:35.002Z</time></trkpt><trkpt lat="44.66936626737897" lon="10.008213035018745"><ele>332.0</ele><time>2026-04-03T13:42:36.002Z</time></trkpt><trkpt lat="44.669489554909646" lon="10.00822081350429"><ele>332.0</ele><time>2026-04-03T13:42:37.002Z</time></trkpt><trkpt lat="44.66960545073232" lon="10.008200552003803"><ele>330.25</ele><time>2026-04-03T13:42:38.002Z</time></trkpt><trkpt lat="44.66971617761854" lon="10.008120975953073"><ele>328.5</ele><time>2026-04-03T13:42:39.002Z</time></trkpt><trkpt lat="44.669819436241276" lon="10.007994828941273"><ele>326.75</ele><time>2026-04-03T13:42:40.002Z</time></trkpt><trkpt lat="44.66990179953131" lon="10.007835091070225"><ele>325.0</ele><time>2026-04-03T13:42:41.002Z</time></trkpt><trkpt lat="44.66997891735162" lon="10.007687892952804"><ele>325.0</ele><time>2026-04-03T13:42:42.002Z</time></trkpt><trkpt lat="44.67005201639579" lon="10.007561506897765"><ele>325.0</ele><time>2026-04-03T13:42:43.002Z</time></trkpt><trkpt lat="44.67012629509583" lon="10.00746030775741"><ele>325.0</ele><time>2026-04-03T13:42:44.002Z</time></trkpt><trkpt lat="44.67021534039374" lon="10.00740000061291"><ele>325.0</ele><time>2026-04-03T13:42:45.002Z</time></trkpt><trkpt lat="44.670311264196485" lon="10.00740423099547"><ele>325.0</ele><time>2026-04-03T13:42:46.002Z</time></trkpt><trkpt lat="44.67040175759166" lon="10.007493890588496"><ele>323.0</ele><time>2026-04-03T13:42:47.002Z</time></trkpt><trkpt lat="44.670462283826865" lon="10.00762260286441"><ele>321.0</ele><time>2026-04-03T13:42:48.002Z</time></trkpt><trkpt lat="44.67049073369817" lon="10.007771977199974"><ele>319.0</ele><time>2026-04-03T13:42:49.002Z</time></trkpt><trkpt lat="44.670484204892816" lon="10.007953905018967"><ele>317.0</ele><time>2026-04-03T13:42:50.002Z</time></trkpt><trkpt lat="44.670467152600985" lon="10.008122294881327"><ele>317.0</ele><time>2026-04-03T13:42:51.002Z</time></trkpt><trkpt lat="44.67044040566934" lon="10.00827994348624"><ele>317.0</ele><time>2026-04-03T13:42:52.002Z</time></trkpt><trkpt lat="44.67038593246062" lon="10.008437773732044"><ele>317.0</ele><time>2026-04-03T13:42:53.002Z</time></trkpt><trkpt lat="44.67029966459476" lon="10.008593571978718"><ele>317.0</ele><time>2026-04-03T13:42:54.002Z</time></trkpt><trkpt lat="44.67019772147716" lon="10.008743257197407"><ele>317.5</ele><time>2026-04-03T13:42:55.002Z</time></trkpt><trkpt lat="44.670092165558955" lon="10.008878521601432"><ele>318.0</ele><time>2026-04-03T13:42:56.002Z</time></trkpt><trkpt lat="44.66999605118296" lon="10.009014399285965"><ele>318.5</ele><time>2026-04-03T13:42:57.002Z</time></trkpt><trkpt lat="44.66992049815696" lon="10.00915301650716"><ele>319.0</ele><time>2026-04-03T13:42:58.002Z</time></trkpt><trkpt lat="44.669855202667044" lon="10.00929418701236"><ele>317.0</ele><time>2026-04-03T13:42:59.002Z</time></trkpt><trkpt lat="44.66980985287521" lon="10.009445775043833"><ele>315.0</ele><time>2026-04-03T13:43:00.002Z</time></trkpt><trkpt lat="44.66978411912588" lon="10.009588036903338"><ele>313.0</ele><time>2026-04-03T13:43:01.002Z</time></trkpt><trkpt lat="44.669800128971914" lon="10.009719886272768"><ele>311.0</ele><time>2026-04-03T13:43:02.002Z</time></trkpt><trkpt lat="44.66984288263563" lon="10.009836826741093"><ele>309.0</ele><time>2026-04-03T13:43:03.002Z</time></trkpt><trkpt lat="44.66993228381818" lon="10.009930094860405"><ele>309.0</ele><time>2026-04-03T13:43:04.002Z</time></trkpt><trkpt lat="44.6700674917427" lon="10.009963241749174"><ele>309.0</ele><time>2026-04-03T13:43:05.002Z</time></trkpt><trkpt lat="44.67019330675941" lon="10.009985990976439"><ele>309.0</ele><time>2026-04-03T13:43:06.002Z</time></trkpt><trkpt lat="44.67032915476217" lon="10.010007623977407"><ele>309.0</ele><time>2026-04-03T13:43:07.002Z</time></trkpt><trkpt lat="44.67046649521556" lon="10.0100321831555"><ele>306.4</ele><time>2026-04-03T13:43:08.002Z</time></trkpt><trkpt lat="44.67058931133031" lon="10.010066514271278"><ele>303.79999999999995</ele><time>2026-04-03T13:43:09.002Z</time></trkpt><trkpt lat="44.67069355394157" lon="10.010126916591824"><ele>301.20000000000005</ele><time>2026-04-03T13:43:10.002Z</time></trkpt><trkpt lat="44.670774836135685" lon="10.010221463193862"><ele>298.6</ele><time>2026-04-03T13:43:11.002Z</time></trkpt><trkpt lat="44.670812068410825" lon="10.01033412524831"><ele>296.0</ele><time>2026-04-03T13:43:12.002Z</time></trkpt><trkpt lat="44.67082183445551" lon="10.010466720529195"><ele>296.0</ele><time>2026-04-03T13:43:13.002Z</time></trkpt><trkpt lat="44.67081699187674" lon="10.010612648069719"><ele>296.0</ele><time>2026-04-03T13:43:14.002Z</time></trkpt><trkpt lat="44.670800470113605" lon="10.01076627293638"><ele>296.0</ele><time>2026-04-03T13:43:15.002Z</time></trkpt><trkpt lat="44.670811190957" lon="10.01089213990945"><ele>296.0</ele><time>2026-04-03T13:43:16.002Z</time></trkpt><trkpt lat="44.67084860112099" lon="10.010985915356141"><ele>296.0</ele><time>2026-04-03T13:43:17.002Z</time></trkpt><trkpt lat="44.67090831704833" lon="10.011057555772116"><ele>295.5</ele><time>2026-04-03T13:43:18.002Z</time></trkpt><trkpt lat="44.671008287671036" lon="10.011100000612263"><ele>295.0</ele><time>2026-04-03T13:43:19.002Z</time></trkpt><trkpt lat="44.671138586114694" lon="10.011093817580072"><ele>294.5</ele><time>2026-04-03T13:43:20.002Z</time></trkpt><trkpt lat="44.67127310594787" lon="10.01108672248093"><ele>294.0</ele><time>2026-04-03T13:43:21.002Z</time></trkpt><trkpt lat="44.67141156617338" lon="10.01108693912006"><ele>292.0</ele><time>2026-04-03T13:43:22.002Z</time></trkpt><trkpt lat="44.67154238783584" lon="10.01108545689673"><ele>290.0</ele><time>2026-04-03T13:43:23.002Z</time></trkpt><trkpt lat="44.67166450225535" lon="10.0110871555708"><ele>288.0</ele><time>2026-04-03T13:43:24.002Z</time></trkpt><trkpt lat="44.671784468162144" lon="10.011092983677583"><ele>286.0</ele><time>2026-04-03T13:43:25.002Z</time></trkpt><trkpt lat="44.67189909853127" lon="10.011116093401823"><ele>284.5</ele><time>2026-04-03T13:43:26.002Z</time></trkpt><trkpt lat="44.67202007045307" lon="10.011158503051192"><ele>283.0</ele><time>2026-04-03T13:43:27.002Z</time></trkpt><trkpt lat="44.6721534118077" lon="10.01124849774842"><ele>281.5</ele><time>2026-04-03T13:43:28.002Z</time></trkpt><trkpt lat="44.672291127387986" lon="10.011362098493077"><ele>280.0</ele><time>2026-04-03T13:43:29.002Z</time></trkpt><trkpt lat="44.67243003659301" lon="10.011495882779197"><ele>280.0</ele><time>2026-04-03T13:43:30.002Z</time></trkpt><trkpt lat="44.67257081228422" lon="10.011630447156197"><ele>280.0</ele><time>2026-04-03T13:43:31.002Z</time></trkpt><trkpt lat="44.672702440663414" lon="10.011756705200018"><ele>280.0</ele><time>2026-04-03T13:43:32.002Z</time></trkpt><trkpt lat="44.67281366875761" lon="10.01189530101336"><ele>277.0</ele><time>2026-04-03T13:43:33.002Z</time></trkpt><trkpt lat="44.67291651492639" lon="10.012032320059093"><ele>274.0</ele><time>2026-04-03T13:43:34.002Z</time></trkpt><trkpt lat="44.67300314281876" lon="10.012167153572989"><ele>271.0</ele><time>2026-04-03T13:43:35.002Z</time></trkpt><trkpt lat="44.67310108638074" lon="10.012286641893326"><ele>268.0</ele><time>2026-04-03T13:43:36.002Z</time></trkpt><trkpt lat="44.6732170137124" lon="10.012388876416994"><ele>268.0</ele><time>2026-04-03T13:43:37.002Z</time></trkpt><trkpt lat="44.673345249728655" lon="10.012481087313141"><ele>268.0</ele><time>2026-04-03T13:43:38.002Z</time></trkpt><trkpt lat="44.67347309059302" lon="10.012567236969408"><ele>268.0</ele><time>2026-04-03T13:43:39.002Z</time></trkpt><trkpt lat="44.67359648386315" lon="10.012641280882944"><ele>268.0</ele><time>2026-04-03T13:43:40.002Z</time></trkpt><trkpt lat="44.67372392607534" lon="10.012719472819647"><ele>265.25</ele><time>2026-04-03T13:43:41.002Z</time></trkpt><trkpt lat="44.67384855956009" lon="10.012808288592305"><ele>262.5</ele><time>2026-04-03T13:43:42.002Z</time></trkpt><trkpt lat="44.6739756774894" lon="10.01290499157263"><ele>259.75</ele><time>2026-04-03T13:43:43.002Z</time></trkpt><trkpt lat="44.67409463141692" lon="10.013027519842755"><ele>257.0</ele><time>2026-04-03T13:43:44.002Z</time></trkpt><trkpt lat="44.674207912920004" lon="10.013174072735119"><ele>257.0</ele><time>2026-04-03T13:43:45.002Z</time></trkpt><trkpt lat="44.67431443871804" lon="10.013316872865841"><ele>257.0</ele><time>2026-04-03T13:43:46.002Z</time></trkpt><trkpt lat="44.67442604958144" lon="10.013441366512273"><ele>257.0</ele><time>2026-04-03T13:43:47.002Z</time></trkpt><trkpt lat="44.67453636392183" lon="10.013548595644961"><ele>257.0</ele><time>2026-04-03T13:43:48.002Z</time></trkpt><trkpt lat="44.674658670221675" lon="10.013629524737956"><ele>254.25</ele><time>2026-04-03T13:43:49.002Z</time></trkpt><trkpt lat="44.67478920315118" lon="10.013683979640938"><ele>251.5</ele><time>2026-04-03T13:43:50.002Z</time></trkpt><trkpt lat="44.67493225310535" lon="10.01371971437061"><ele>248.75</ele><time>2026-04-03T13:43:51.002Z</time></trkpt><trkpt lat="44.67508693974907" lon="10.013757528876239"><ele>246.0</ele><time>2026-04-03T13:43:52.002Z</time></trkpt><trkpt lat="44.67523782330794" lon="10.013810673756632"><ele>244.25</ele><time>2026-04-03T13:43:53.002Z</time></trkpt><trkpt lat="44.67538032628663" lon="10.013875655781062"><ele>242.5</ele><time>2026-04-03T13:43:54.002Z</time></trkpt><trkpt lat="44.675514198211445" lon="10.013957100176528"><ele>240.75</ele><time>2026-04-03T13:43:55.002Z</time></trkpt><trkpt lat="44.67564618002939" lon="10.014038916507596"><ele>239.0</ele><time>2026-04-03T13:43:56.002Z</time></trkpt><trkpt lat="44.67578081472828" lon="10.014128115986585"><ele>238.66666666666669</ele><time>2026-04-03T13:43:57.002Z</time></trkpt><trkpt lat="44.67591910209406" lon="10.014233676953932"><ele>238.33333333333331</ele><time>2026-04-03T13:43:58.002Z</time></trkpt><trkpt lat="44.676044927634344" lon="10.014348509236685"><ele>238.0</ele><time>2026-04-03T13:43:59.002Z</time></trkpt><trkpt lat="44.67616542126042" lon="10.0144696962238"><ele>234.0</ele><time>2026-04-03T13:44:00.002Z</time></trkpt><trkpt lat="44.67629343038419" lon="10.014587973024677"><ele>230.0</ele><time>2026-04-03T13:44:01.002Z</time></trkpt><trkpt lat="44.67642207669986" lon="10.014704461646625"><ele>226.0</ele><time>2026-04-03T13:44:02.002Z</time></trkpt><trkpt lat="44.67655453381386" lon="10.014812384975682"><ele>226.0</ele><time>2026-04-03T13:44:03.002Z</time></trkpt><trkpt lat="44.67669656109809" lon="10.014896476009035"><ele>226.0</ele><time>2026-04-03T13:44:04.002Z</time></trkpt><trkpt lat="44.67684931457608" lon="10.01495153586896"><ele>226.0</ele><time>2026-04-03T13:44:05.002Z</time></trkpt><trkpt lat="44.67701811779669" lon="10.014982584051474"><ele>222.33333333333331</ele><time>2026-04-03T13:44:06.002Z</time></trkpt><trkpt lat="44.67718230658889" lon="10.015008172509729"><ele>218.66666666666669</ele><time>2026-04-03T13:44:07.002Z</time></trkpt><trkpt lat="44.67734847935182" lon="10.01503260908191"><ele>215.0</ele><time>2026-04-03T13:44:08.002Z</time></trkpt><trkpt lat="44.677518684505316" lon="10.015059255704355"><ele>215.0</ele><time>2026-04-03T13:44:09.002Z</time></trkpt><trkpt lat="44.677692967774334" lon="10.015081431652158"><ele>215.0</ele><time>2026-04-03T13:44:10.002Z</time></trkpt><trkpt lat="44.677865142572145" lon="10.015105440529956"><ele>215.0</ele><time>2026-04-03T13:44:11.002Z</time></trkpt><trkpt lat="44.67803426902619" lon="10.015135291267901"><ele>213.25</ele><time>2026-04-03T13:44:12.002Z</time></trkpt><trkpt lat="44.67819547695594" lon="10.015165750014203"><ele>211.5</ele><time>2026-04-03T13:44:13.002Z</time></trkpt><trkpt lat="44.67834155826163" lon="10.015190699575676"><ele>209.75</ele><time>2026-04-03T13:44:14.002Z</time></trkpt><trkpt lat="44.67846777269813" lon="10.015221737166172"><ele>208.0</ele><time>2026-04-03T13:44:15.002Z</time></trkpt><trkpt lat="44.6785818045687" lon="10.015271002336359"><ele>207.2</ele><time>2026-04-03T13:44:16.002Z</time></trkpt><trkpt lat="44.67867313669688" lon="10.015358726636592"><ele>206.4</ele><time>2026-04-03T13:44:17.002Z</time></trkpt><trkpt lat="44.678757920207524" lon="10.015461201934537"><ele>205.6</ele><time>2026-04-03T13:44:18.002Z</time></trkpt><trkpt lat="44.67883726642877" lon="10.015567308326625"><ele>204.79999999999998</ele><time>2026-04-03T13:44:19.002Z</time></trkpt><trkpt lat="44.67891917676167" lon="10.015660660571692"><ele>204.0</ele><time>2026-04-03T13:44:20.002Z</time></trkpt><trkpt lat="44.679010081286094" lon="10.015719511139896"><ele>204.0</ele><time>2026-04-03T13:44:21.002Z</time></trkpt><trkpt lat="44.67909513912457" lon="10.015754116736174"><ele>204.0</ele><time>2026-04-03T13:44:22.002Z</time></trkpt><trkpt lat="44.67916451391863" lon="10.015782472771317"><ele>204.0</ele><time>2026-04-03T13:44:23.002Z</time></trkpt><trkpt lat="44.679221521582676" lon="10.015828393561524"><ele>204.0</ele><time>2026-04-03T13:44:24.002Z</time></trkpt><trkpt lat="44.679245318286505" lon="10.015911049370295"><ele>204.0</ele><time>2026-04-03T13:44:25.002Z</time></trkpt><trkpt lat="44.67923189963772" lon="10.01600885931324"><ele>204.0</ele><time>2026-04-03T13:44:26.002Z</time></trkpt><trkpt lat="44.67918997919723" lon="10.016113658012213"><ele>204.0</ele><time>2026-04-03T13:44:27.002Z</time></trkpt><trkpt lat="44.6791325101503" lon="10.01619982249475"><ele>203.66666666666666</ele><time>2026-04-03T13:44:28.002Z</time></trkpt><trkpt lat="44.67907498311717" lon="10.016266326060087"><ele>203.33333333333331</ele><time>2026-04-03T13:44:29.002Z</time></trkpt><trkpt lat="44.67901699910387" lon="10.016325754923352"><ele>203.0</ele><time>2026-04-03T13:44:30.002Z</time></trkpt><trkpt lat="44.678959080534185" lon="10.01639317821609"><ele>202.66666666666666</ele><time>2026-04-03T13:44:31.002Z</time></trkpt><trkpt lat="44.678896398069064" lon="10.016464322561331"><ele>202.33333333333331</ele><time>2026-04-03T13:44:32.002Z</time></trkpt><trkpt lat="44.67883081960762" lon="10.01653990942057"><ele>202.0</ele><time>2026-04-03T13:44:33.002Z</time></trkpt><trkpt lat="44.67877059708069" lon="10.016614408871964"><ele>200.71428571428572</ele><time>2026-04-03T13:44:34.002Z</time></trkpt><trkpt lat="44.67871452389152" lon="10.01669140996017"><ele>199.42857142857142</ele><time>2026-04-03T13:44:35.002Z</time></trkpt><trkpt lat="44.67866385856464" lon="10.01676344894719"><ele>198.14285714285717</ele><time>2026-04-03T13:44:36.002Z</time></trkpt><trkpt lat="44.67862185093925" lon="10.016836392228823"><ele>196.85714285714286</ele><time>2026-04-03T13:44:37.002Z</time></trkpt><trkpt lat="44.67860691402369" lon="10.016924630093698"><ele>195.57142857142858</ele><time>2026-04-03T13:44:38.002Z</time></trkpt><trkpt lat="44.67861059074525" lon="10.017013070847973"><ele>194.2857142857143</ele><time>2026-04-03T13:44:39.002Z</time></trkpt><trkpt lat="44.6786449648279" lon="10.01710039211588"><ele>193.0</ele><time>2026-04-03T13:44:40.002Z</time></trkpt><trkpt lat="44.67871108783383" lon="10.01713676494531"><ele>192.99999999999997</ele><time>2026-04-03T13:44:41.002Z</time></trkpt><trkpt lat="44.67878266525104" lon="10.017132963879492"><ele>193.0</ele><time>2026-04-03T13:44:42.002Z</time></trkpt><trkpt lat="44.67887246798935" lon="10.017095064693844"><ele>193.0</ele><time>2026-04-03T13:44:43.002Z</time></trkpt><trkpt lat="44.6789558513165" lon="10.017014093843615"><ele>193.0</ele><time>2026-04-03T13:44:44.002Z</time></trkpt><trkpt lat="44.679020747039736" lon="10.016925964397474"><ele>192.99999999999997</ele><time>2026-04-03T13:44:45.002Z</time></trkpt><trkpt lat="44.67908352827523" lon="10.0168405489492"><ele>193.0</ele><time>2026-04-03T13:44:46.003Z</time></trkpt><trkpt lat="44.67914036746021" lon="10.016757836644326"><ele>192.99999999999997</ele><time>2026-04-03T13:44:47.003Z</time></trkpt><trkpt lat="44.67920833133184" lon="10.016687032690673"><ele>193.0</ele><time>2026-04-03T13:44:48.003Z</time></trkpt><trkpt lat="44.67928392910772" lon="10.016634230570729"><ele>193.0</ele><time>2026-04-03T13:44:49.003Z</time></trkpt><trkpt lat="44.67935747020909" lon="10.016588829063085"><ele>193.0</ele><time>2026-04-03T13:44:50.003Z</time></trkpt><trkpt lat="44.679425267631494" lon="10.016548842375535"><ele>192.99999999999997</ele><time>2026-04-03T13:44:51.003Z</time></trkpt><trkpt lat="44.6795126165665" lon="10.016518310887431"><ele>193.0</ele><time>2026-04-03T13:44:52.003Z</time></trkpt><trkpt lat="44.67959614693332" lon="10.016485665769556"><ele>191.49999999999997</ele><time>2026-04-03T13:44:53.003Z</time></trkpt><trkpt lat="44.679680958783806" lon="10.016456420005268"><ele>190.0</ele><time>2026-04-03T13:44:54.003Z</time></trkpt><trkpt lat="44.67976633204263" lon="10.01643693458119"><ele>188.5</ele><time>2026-04-03T13:44:55.003Z</time></trkpt><trkpt lat="44.67985661659947" lon="10.016423607131227"><ele>187.0</ele><time>2026-04-03T13:44:56.003Z</time></trkpt><trkpt lat="44.67994451055196" lon="10.016413574991779"><ele>185.5</ele><time>2026-04-03T13:44:57.003Z</time></trkpt><trkpt lat="44.68003551889173" lon="10.01641046290934"><ele>184.0</ele><time>2026-04-03T13:44:58.003Z</time></trkpt><trkpt lat="44.68012599002198" lon="10.016407125453258"><ele>184.0</ele><time>2026-04-03T13:44:59.003Z</time></trkpt><trkpt lat="44.68023240320403" lon="10.016395910084453"><ele>184.0</ele><time>2026-04-03T13:45:00.003Z</time></trkpt><trkpt lat="44.68034308026199" lon="10.016394052561553"><ele>184.0</ele><time>2026-04-03T13:45:01.003Z</time></trkpt><trkpt lat="44.680467163554255" lon="10.0163853184022"><ele>184.0</ele><time>2026-04-03T13:45:02.003Z</time></trkpt><trkpt lat="44.68059940299157" lon="10.016384203746401"><ele>183.0</ele><time>2026-04-03T13:45:03.003Z</time></trkpt><trkpt lat="44.68073387354097" lon="10.016379982455472"><ele>182.0</ele><time>2026-04-03T13:45:04.003Z</time></trkpt><trkpt lat="44.68087945062866" lon="10.016382225389146"><ele>181.0</ele><time>2026-04-03T13:45:05.003Z</time></trkpt><trkpt lat="44.68103084383933" lon="10.01638705740587"><ele>180.0</ele><time>2026-04-03T13:45:06.003Z</time></trkpt><trkpt lat="44.68118308637206" lon="10.016398325061024"><ele>179.66666666666666</ele><time>2026-04-03T13:45:07.003Z</time></trkpt><trkpt lat="44.68134356549454" lon="10.016438001320402"><ele>179.33333333333331</ele><time>2026-04-03T13:45:08.003Z</time></trkpt><trkpt lat="44.68150326349679" lon="10.016470664004824"><ele>179.0</ele><time>2026-04-03T13:45:09.003Z</time></trkpt><trkpt lat="44.68167053400623" lon="10.016485716166882"><ele>179.0</ele><time>2026-04-03T13:45:10.003Z</time></trkpt><trkpt lat="44.68184338191228" lon="10.016486140881014"><ele>179.0</ele><time>2026-04-03T13:45:11.003Z</time></trkpt><trkpt lat="44.68201824322199" lon="10.016481917130282"><ele>179.0</ele><time>2026-04-03T13:45:12.003Z</time></trkpt><trkpt lat="44.68219715350646" lon="10.01646932576085"><ele>178.33333333333331</ele><time>2026-04-03T13:45:13.003Z</time></trkpt><trkpt lat="44.682383651047225" lon="10.016465957431173"><ele>177.66666666666666</ele><time>2026-04-03T13:45:14.003Z</time></trkpt><trkpt lat="44.682577171420014" lon="10.016458490496584"><ele>177.0</ele><time>2026-04-03T13:45:15.003Z</time></trkpt><trkpt lat="44.68277262247897" lon="10.016452193300532"><ele>177.0</ele><time>2026-04-03T13:45:16.003Z</time></trkpt><trkpt lat="44.68297023572197" lon="10.016445483733683"><ele>177.0</ele><time>2026-04-03T13:45:17.003Z</time></trkpt><trkpt lat="44.683167532176725" lon="10.016436905072583"><ele>177.0</ele><time>2026-04-03T13:45:18.003Z</time></trkpt><trkpt lat="44.683369506515454" lon="10.016426938506154"><ele>177.0</ele><time>2026-04-03T13:45:19.003Z</time></trkpt><trkpt lat="44.68357420692081" lon="10.016418274462863"><ele>177.0</ele><time>2026-04-03T13:45:20.003Z</time></trkpt><trkpt lat="44.68377746292703" lon="10.016411451412335"><ele>177.0</ele><time>2026-04-03T13:45:21.003Z</time></trkpt><trkpt lat="44.683979383163305" lon="10.01641044343733"><ele>178.33333333333334</ele><time>2026-04-03T13:45:22.003Z</time></trkpt><trkpt lat="44.68417853577247" lon="10.016411801674671"><ele>179.66666666666669</ele><time>2026-04-03T13:45:23.003Z</time></trkpt><trkpt lat="44.6843748206192" lon="10.016407669552748"><ele>181.0</ele><time>2026-04-03T13:45:24.003Z</time></trkpt><trkpt lat="44.68456894743244" lon="10.016404527152675"><ele>181.0</ele><time>2026-04-03T13:45:25.003Z</time></trkpt><trkpt lat="44.68475548610038" lon="10.016397311459862"><ele>181.0</ele><time>2026-04-03T13:45:26.003Z</time></trkpt><trkpt lat="44.68493037744522" lon="10.016393478603234"><ele>181.0</ele><time>2026-04-03T13:45:27.003Z</time></trkpt><trkpt lat="44.6850961647863" lon="10.016391756500344"><ele>181.0</ele><time>2026-04-03T13:45:28.003Z</time></trkpt><trkpt lat="44.68524323392946" lon="10.0163865883475"><ele>181.0</ele><time>2026-04-03T13:45:29.003Z</time></trkpt><trkpt lat="44.685368562212574" lon="10.016381857806936"><ele>181.0</ele><time>2026-04-03T13:45:30.003Z</time></trkpt><trkpt lat="44.68546553248729" lon="10.016372207964793"><ele>181.0</ele><time>2026-04-03T13:45:31.003Z</time></trkpt><trkpt lat="44.68554913761042" lon="10.016369694788324"><ele>181.5</ele><time>2026-04-03T13:45:32.003Z</time></trkpt><trkpt lat="44.68561864470743" lon="10.016373847484804"><ele>182.0</ele><time>2026-04-03T13:45:33.003Z</time></trkpt><trkpt lat="44.6857061650616" lon="10.016468380961204"><ele>182.5</ele><time>2026-04-03T13:45:35.003Z</time></trkpt><trkpt lat="44.685731859149776" lon="10.016563372209328"><ele>183.0</ele><time>2026-04-03T13:45:36.003Z</time></trkpt><trkpt lat="44.68575373340024" lon="10.016681666879018"><ele>183.5</ele><time>2026-04-03T13:45:37.003Z</time></trkpt><trkpt lat="44.68576675341955" lon="10.016812376295405"><ele>184.0</ele><time>2026-04-03T13:45:38.003Z</time></trkpt><trkpt lat="44.68575251532962" lon="10.016950841805476"><ele>184.5</ele><time>2026-04-03T13:45:39.003Z</time></trkpt><trkpt lat="44.685699133767926" lon="10.017084138509714"><ele>185.0</ele><time>2026-04-03T13:45:40.003Z</time></trkpt><trkpt lat="44.685633473671245" lon="10.017222249171095"><ele>185.5</ele><time>2026-04-03T13:45:41.003Z</time></trkpt><trkpt lat="44.685583671489944" lon="10.017372748449969"><ele>186.0</ele><time>2026-04-03T13:45:42.003Z</time></trkpt><trkpt lat="44.68553651107079" lon="10.017532657426132"><ele>186.25</ele><time>2026-04-03T13:45:43.003Z</time></trkpt><trkpt lat="44.68549081077661" lon="10.01770546608376"><ele>186.5</ele><time>2026-04-03T13:45:44.003Z</time></trkpt><trkpt lat="44.685452403506325" lon="10.017895822493836"><ele>186.75</ele><time>2026-04-03T13:45:45.003Z</time></trkpt><trkpt lat="44.68542282479299" lon="10.018106248906633"><ele>187.0</ele><time>2026-04-03T13:45:46.003Z</time></trkpt><trkpt lat="44.685398267007216" lon="10.01833577799596"><ele>186.33333333333334</ele><time>2026-04-03T13:45:47.003Z</time></trkpt><trkpt lat="44.68537898895321" lon="10.01856613950796"><ele>185.66666666666666</ele><time>2026-04-03T13:45:48.003Z</time></trkpt><trkpt lat="44.685360019745225" lon="10.018795812121686"><ele>185.0</ele><time>2026-04-03T13:45:49.003Z</time></trkpt><trkpt lat="44.685338083979275" lon="10.019034369112266"><ele>183.33333333333331</ele><time>2026-04-03T13:45:50.003Z</time></trkpt><trkpt lat="44.685314318884764" lon="10.019280870428453"><ele>181.66666666666666</ele><time>2026-04-03T13:45:51.003Z</time></trkpt><trkpt lat="44.68529170029906" lon="10.01952966535787"><ele>180.0</ele><time>2026-04-03T13:45:52.003Z</time></trkpt><trkpt lat="44.68527060610202" lon="10.019777289324942"><ele>179.33333333333334</ele><time>2026-04-03T13:45:53.003Z</time></trkpt><trkpt lat="44.68526008645431" lon="10.020033489167705"><ele>178.66666666666669</ele><time>2026-04-03T13:45:54.003Z</time></trkpt><trkpt lat="44.6852600562253" lon="10.020291503455255"><ele>178.0</ele><time>2026-04-03T13:45:55.003Z</time></trkpt><trkpt lat="44.685272275478376" lon="10.020553459068926"><ele>178.0</ele><time>2026-04-03T13:45:56.003Z</time></trkpt><trkpt lat="44.685292199208426" lon="10.020815813300555"><ele>178.0</ele><time>2026-04-03T13:45:57.003Z</time></trkpt><trkpt lat="44.68530559645368" lon="10.02106808641224"><ele>178.0</ele><time>2026-04-03T13:45:58.003Z</time></trkpt><trkpt lat="44.685314277142325" lon="10.021325873935195"><ele>178.0</ele><time>2026-04-03T13:45:59.003Z</time></trkpt><trkpt lat="44.68532300900519" lon="10.021586146628076"><ele>178.0</ele><time>2026-04-03T13:46:00.003Z</time></trkpt><trkpt lat="44.68533322512842" lon="10.021848949090248"><ele>178.0</ele><time>2026-04-03T13:46:01.003Z</time></trkpt><trkpt lat="44.68533873936835" lon="10.022110188307135"><ele>178.33333333333334</ele><time>2026-04-03T13:46:02.003Z</time></trkpt><trkpt lat="44.68534816581278" lon="10.022367479268652"><ele>178.66666666666666</ele><time>2026-04-03T13:46:03.003Z</time></trkpt><trkpt lat="44.68536063293967" lon="10.02262331714109"><ele>179.0</ele><time>2026-04-03T13:46:04.003Z</time></trkpt><trkpt lat="44.68536593595804" lon="10.022876010400365"><ele>180.0</ele><time>2026-04-03T13:46:05.003Z</time></trkpt><trkpt lat="44.68537482993054" lon="10.023124188761741"><ele>181.0</ele><time>2026-04-03T13:46:06.003Z</time></trkpt><trkpt lat="44.68538717828788" lon="10.023382056259056"><ele>182.0</ele><time>2026-04-03T13:46:07.003Z</time></trkpt><trkpt lat="44.6853987492448" lon="10.023631390485209"><ele>182.33333333333331</ele><time>2026-04-03T13:46:08.003Z</time></trkpt><trkpt lat="44.68540585793426" lon="10.023877509015147"><ele>182.66666666666666</ele><time>2026-04-03T13:46:09.003Z</time></trkpt><trkpt lat="44.68541433431148" lon="10.024125175283253"><ele>183.0</ele><time>2026-04-03T13:46:10.003Z</time></trkpt><trkpt lat="44.685429066303094" lon="10.024371225954056"><ele>182.33333333333334</ele><time>2026-04-03T13:46:11.003Z</time></trkpt><trkpt lat="44.68546189304348" lon="10.02461682504711"><ele>181.66666666666669</ele><time>2026-04-03T13:46:12.003Z</time></trkpt><trkpt lat="44.685513993388184" lon="10.024861563331825"><ele>181.0</ele><time>2026-04-03T13:46:13.003Z</time></trkpt><trkpt lat="44.68558143869415" lon="10.025099979238158"><ele>180.66666666666669</ele><time>2026-04-03T13:46:14.003Z</time></trkpt><trkpt lat="44.68565715225557" lon="10.025329413857444"><ele>180.33333333333334</ele><time>2026-04-03T13:46:15.003Z</time></trkpt><trkpt lat="44.685748192469845" lon="10.025546164777243"><ele>180.0</ele><time>2026-04-03T13:46:16.003Z</time></trkpt><trkpt lat="44.68583829892171" lon="10.025758570934252"><ele>180.0</ele><time>2026-04-03T13:46:17.003Z</time></trkpt><trkpt lat="44.68594410830962" lon="10.02595367717398"><ele>180.0</ele><time>2026-04-03T13:46:18.003Z</time></trkpt><trkpt lat="44.68604335162784" lon="10.026151320971087"><ele>180.0</ele><time>2026-04-03T13:46:19.003Z</time></trkpt><trkpt lat="44.686140938843394" lon="10.026350502456665"><ele>180.66666666666666</ele><time>2026-04-03T13:46:20.003Z</time></trkpt><trkpt lat="44.68622819538443" lon="10.02655701642103"><ele>181.33333333333331</ele><time>2026-04-03T13:46:21.003Z</time></trkpt><trkpt lat="44.686309840424656" lon="10.026767983742992"><ele>182.0</ele><time>2026-04-03T13:46:22.003Z</time></trkpt><trkpt lat="44.68638818705357" lon="10.026975728066429"><ele>182.0</ele><time>2026-04-03T13:46:23.003Z</time></trkpt><trkpt lat="44.68646176450487" lon="10.02717617933259"><ele>182.0</ele><time>2026-04-03T13:46:24.003Z</time></trkpt><trkpt lat="44.68653566248234" lon="10.027377664374672"><ele>182.0</ele><time>2026-04-03T13:46:25.003Z</time></trkpt><trkpt lat="44.686600303687" lon="10.02757925364367"><ele>182.0</ele><time>2026-04-03T13:46:26.003Z</time></trkpt><trkpt lat="44.686663453406524" lon="10.027778102203962"><ele>182.0</ele><time>2026-04-03T13:46:27.003Z</time></trkpt><trkpt lat="44.68674014026733" lon="10.027974544202563"><ele>182.0</ele><time>2026-04-03T13:46:28.003Z</time></trkpt><trkpt lat="44.686791836118275" lon="10.028181965295627"><ele>181.33333333333331</ele><time>2026-04-03T13:46:29.003Z</time></trkpt><trkpt lat="44.686834887526345" lon="10.028393473775935"><ele>180.66666666666666</ele><time>2026-04-03T13:46:30.003Z</time></trkpt><trkpt lat="44.68687732551925" lon="10.028615195509543"><ele>180.0</ele><time>2026-04-03T13:46:31.003Z</time></trkpt><trkpt lat="44.68691815338153" lon="10.028869383536495"><ele>180.33333333333334</ele><time>2026-04-03T13:46:32.003Z</time></trkpt><trkpt lat="44.68695293777192" lon="10.029141402325546"><ele>180.66666666666669</ele><time>2026-04-03T13:46:33.003Z</time></trkpt><trkpt lat="44.68697140387476" lon="10.029448907569257"><ele>181.0</ele><time>2026-04-03T13:46:34.003Z</time></trkpt><trkpt lat="44.68698106590546" lon="10.02977085617778"><ele>180.0</ele><time>2026-04-03T13:46:35.003Z</time></trkpt><trkpt lat="44.6869845808344" lon="10.030090367421552"><ele>179.0</ele><time>2026-04-03T13:46:36.003Z</time></trkpt><trkpt lat="44.686988271994366" lon="10.030393667362064"><ele>178.0</ele><time>2026-04-03T13:46:37.003Z</time></trkpt><trkpt lat="44.686993756799595" lon="10.030706354284675"><ele>178.0</ele><time>2026-04-03T13:46:38.003Z</time></trkpt><trkpt lat="44.6870139366819" lon="10.03104116871201"><ele>178.0</ele><time>2026-04-03T13:46:39.003Z</time></trkpt><trkpt lat="44.6870330029476" lon="10.03140257572762"><ele>177.5</ele><time>2026-04-03T13:46:40.003Z</time></trkpt><trkpt lat="44.6870403799638" lon="10.031782448429448"><ele>177.0</ele><time>2026-04-03T13:46:41.003Z</time></trkpt><trkpt lat="44.68703956789535" lon="10.032181276985089"><ele>176.0</ele><time>2026-04-03T13:46:42.003Z</time></trkpt><trkpt lat="44.68703865935926" lon="10.032571331026231"><ele>175.0</ele><time>2026-04-03T13:46:43.003Z</time></trkpt><trkpt lat="44.68704061544399" lon="10.032954252201316"><ele>173.5</ele><time>2026-04-03T13:46:44.003Z</time></trkpt><trkpt lat="44.68705047891606" lon="10.033330858049569"><ele>172.0</ele><time>2026-04-03T13:46:45.003Z</time></trkpt><trkpt lat="44.68705926577464" lon="10.033702986566182"><ele>172.0</ele><time>2026-04-03T13:46:46.003Z</time></trkpt><trkpt lat="44.687065894628695" lon="10.034063648372474"><ele>172.0</ele><time>2026-04-03T13:46:47.003Z</time></trkpt><trkpt lat="44.68706981795888" lon="10.034419664138067"><ele>172.0</ele><time>2026-04-03T13:46:48.003Z</time></trkpt><trkpt lat="44.68707462131966" lon="10.03477250266476"><ele>172.0</ele><time>2026-04-03T13:46:49.003Z</time></trkpt><trkpt lat="44.68707416386777" lon="10.035125246594854"><ele>172.5</ele><time>2026-04-03T13:46:50.003Z</time></trkpt><trkpt lat="44.68707499103291" lon="10.035474896958618"><ele>173.0</ele><time>2026-04-03T13:46:51.003Z</time></trkpt><trkpt lat="44.68707816547667" lon="10.035820662126188"><ele>171.5</ele><time>2026-04-03T13:46:52.003Z</time></trkpt><trkpt lat="44.68708573142692" lon="10.036166548162903"><ele>170.0</ele><time>2026-04-03T13:46:53.003Z</time></trkpt><trkpt lat="44.687095261310645" lon="10.036507656309174"><ele>169.5</ele><time>2026-04-03T13:46:54.003Z</time></trkpt><trkpt lat="44.68710322060657" lon="10.036843069639787"><ele>169.0</ele><time>2026-04-03T13:46:55.003Z</time></trkpt><trkpt lat="44.68711947947441" lon="10.037172446877888"><ele>169.5</ele><time>2026-04-03T13:46:56.003Z</time></trkpt><trkpt lat="44.68713671867416" lon="10.0375012814413"><ele>170.0</ele><time>2026-04-03T13:46:57.003Z</time></trkpt><trkpt lat="44.68715688520104" lon="10.037829391842374"><ele>170.0</ele><time>2026-04-03T13:46:58.003Z</time></trkpt><trkpt lat="44.687176970274265" lon="10.038155128552392"><ele>170.0</ele><time>2026-04-03T13:46:59.003Z</time></trkpt><trkpt lat="44.68719681448465" lon="10.038474608219015"><ele>169.66666666666666</ele><time>2026-04-03T13:47:00.003Z</time></trkpt><trkpt lat="44.68721850416617" lon="10.038786162207403"><ele>169.33333333333334</ele><time>2026-04-03T13:47:01.003Z</time></trkpt><trkpt lat="44.687243839669485" lon="10.039080020036995"><ele>169.0</ele><time>2026-04-03T13:47:02.003Z</time></trkpt><trkpt lat="44.68726615182639" lon="10.039352567861897"><ele>169.0</ele><time>2026-04-03T13:47:03.003Z</time></trkpt><trkpt lat="44.68728473181654" lon="10.03959681830718"><ele>169.0</ele><time>2026-04-03T13:47:04.003Z</time></trkpt><trkpt lat="44.68730060098046" lon="10.039826415617922"><ele>169.0</ele><time>2026-04-03T13:47:05.003Z</time></trkpt><trkpt lat="44.6873173514001" lon="10.040046731138984"><ele>169.33333333333334</ele><time>2026-04-03T13:47:06.003Z</time></trkpt><trkpt lat="44.68733145892381" lon="10.040268633542254"><ele>169.66666666666666</ele><time>2026-04-03T13:47:07.003Z</time></trkpt><trkpt lat="44.68732487732768" lon="10.040489975211907"><ele>170.0</ele><time>2026-04-03T13:47:08.003Z</time></trkpt><trkpt lat="44.68729472417213" lon="10.040717060765683"><ele>174.0</ele><time>2026-04-03T13:47:09.003Z</time></trkpt><trkpt lat="44.68723336242379" lon="10.040933402009376"><ele>178.0</ele><time>2026-04-03T13:47:10.003Z</time></trkpt><trkpt lat="44.68714165775883" lon="10.041141706171356"><ele>182.0</ele><time>2026-04-03T13:47:11.003Z</time></trkpt><trkpt lat="44.687028786204934" lon="10.041338618986572"><ele>180.66666666666666</ele><time>2026-04-03T13:47:12.003Z</time></trkpt><trkpt lat="44.686894661101846" lon="10.041513961855003"><ele>179.33333333333334</ele><time>2026-04-03T13:47:13.003Z</time></trkpt><trkpt lat="44.686753827645944" lon="10.041696983470025"><ele>178.0</ele><time>2026-04-03T13:47:14.003Z</time></trkpt><trkpt lat="44.6866125441569" lon="10.041895062380712"><ele>178.0</ele><time>2026-04-03T13:47:15.003Z</time></trkpt><trkpt lat="44.686477482579626" lon="10.042089545554193"><ele>178.0</ele><time>2026-04-03T13:47:16.003Z</time></trkpt><trkpt lat="44.686341828368796" lon="10.042279053324611"><ele>178.0</ele><time>2026-04-03T13:47:17.003Z</time></trkpt><trkpt lat="44.686216324409" lon="10.042469823444566"><ele>180.66666666666669</ele><time>2026-04-03T13:47:18.003Z</time></trkpt><trkpt lat="44.686103855438766" lon="10.042671652607902"><ele>183.33333333333334</ele><time>2026-04-03T13:47:19.003Z</time></trkpt><trkpt lat="44.68600910075892" lon="10.042890016053041"><ele>186.0</ele><time>2026-04-03T13:47:20.003Z</time></trkpt><trkpt lat="44.6859376017489" lon="10.04312687743269"><ele>182.0</ele><time>2026-04-03T13:47:21.003Z</time></trkpt><trkpt lat="44.68588332968817" lon="10.043369721190619"><ele>178.0</ele><time>2026-04-03T13:47:22.003Z</time></trkpt><trkpt lat="44.68584793309433" lon="10.043625602340427"><ele>174.0</ele><time>2026-04-03T13:47:23.003Z</time></trkpt><trkpt lat="44.68582469150966" lon="10.043891412973048"><ele>175.33333333333334</ele><time>2026-04-03T13:47:24.003Z</time></trkpt><trkpt lat="44.68581478859652" lon="10.04416476109968"><ele>176.66666666666669</ele><time>2026-04-03T13:47:25.003Z</time></trkpt><trkpt lat="44.68580920263934" lon="10.044446186188807"><ele>178.0</ele><time>2026-04-03T13:47:26.003Z</time></trkpt><trkpt lat="44.68579105555902" lon="10.04472266242214"><ele>178.0</ele><time>2026-04-03T13:47:27.003Z</time></trkpt><trkpt lat="44.68577219790011" lon="10.044986623078072"><ele>178.0</ele><time>2026-04-03T13:47:28.003Z</time></trkpt><trkpt lat="44.68576122752353" lon="10.045239498980514"><ele>178.0</ele><time>2026-04-03T13:47:29.003Z</time></trkpt><trkpt lat="44.68574554043014" lon="10.045493022120176"><ele>178.0</ele><time>2026-04-03T13:47:30.003Z</time></trkpt><trkpt lat="44.685712855693474" lon="10.04573914720751"><ele>178.0</ele><time>2026-04-03T13:47:31.003Z</time></trkpt><trkpt lat="44.68567282636427" lon="10.04598097432934"><ele>178.0</ele><time>2026-04-03T13:47:32.003Z</time></trkpt><trkpt lat="44.68563396655348" lon="10.046224062505756"><ele>178.0</ele><time>2026-04-03T13:47:33.003Z</time></trkpt><trkpt lat="44.685592867752696" lon="10.046470393351557"><ele>178.0</ele><time>2026-04-03T13:47:34.003Z</time></trkpt><trkpt lat="44.68555219768077" lon="10.046714326576128"><ele>178.0</ele><time>2026-04-03T13:47:35.003Z</time></trkpt><trkpt lat="44.68550996075794" lon="10.046950970034947"><ele>178.0</ele><time>2026-04-03T13:47:36.003Z</time></trkpt><trkpt lat="44.685473593594764" lon="10.047178388596752"><ele>178.0</ele><time>2026-04-03T13:47:37.003Z</time></trkpt><trkpt lat="44.685440384344005" lon="10.047393379596068"><ele>178.0</ele><time>2026-04-03T13:47:38.003Z</time></trkpt><trkpt lat="44.685415058675645" lon="10.047598007461103"><ele>178.0</ele><time>2026-04-03T13:47:39.003Z</time></trkpt><trkpt lat="44.685406267105186" lon="10.047793401206132"><ele>178.0</ele><time>2026-04-03T13:47:40.003Z</time></trkpt><trkpt lat="44.68540834071648" lon="10.047981161348693"><ele>178.0</ele><time>2026-04-03T13:47:41.003Z</time></trkpt><trkpt lat="44.68541859138453" lon="10.048160016058535"><ele>178.0</ele><time>2026-04-03T13:47:42.003Z</time></trkpt><trkpt lat="44.68543434545124" lon="10.04832650814287"><ele>177.25</ele><time>2026-04-03T13:47:43.003Z</time></trkpt><trkpt lat="44.685468450686905" lon="10.048490719959622"><ele>176.5</ele><time>2026-04-03T13:47:44.003Z</time></trkpt><trkpt lat="44.68550229451314" lon="10.048651358583049"><ele>175.75</ele><time>2026-04-03T13:47:45.003Z</time></trkpt><trkpt lat="44.68554212132607" lon="10.048805690336112"><ele>175.0</ele><time>2026-04-03T13:47:46.003Z</time></trkpt><trkpt lat="44.68558036683532" lon="10.048960017840102"><ele>175.0</ele><time>2026-04-03T13:47:47.003Z</time></trkpt><trkpt lat="44.685622528944776" lon="10.049110015322908"><ele>175.0</ele><time>2026-04-03T13:47:48.003Z</time></trkpt><trkpt lat="44.685669248037414" lon="10.049264514736352"><ele>175.0</ele><time>2026-04-03T13:47:49.003Z</time></trkpt><trkpt lat="44.68571401585806" lon="10.049419043210005"><ele>175.0</ele><time>2026-04-03T13:47:50.003Z</time></trkpt><trkpt lat="44.685757555300135" lon="10.049574889812986"><ele>174.75</ele><time>2026-04-03T13:47:51.003Z</time></trkpt><trkpt lat="44.68579161626484" lon="10.049737932170121"><ele>174.5</ele><time>2026-04-03T13:47:52.003Z</time></trkpt><trkpt lat="44.685791379404286" lon="10.049910699630262"><ele>174.25</ele><time>2026-04-03T13:47:53.003Z</time></trkpt><trkpt lat="44.68576827161722" lon="10.050088933994584"><ele>174.0</ele><time>2026-04-03T13:47:54.003Z</time></trkpt><trkpt lat="44.68574674695578" lon="10.050279733476051"><ele>173.33333333333334</ele><time>2026-04-03T13:47:55.003Z</time></trkpt><trkpt lat="44.68572514624332" lon="10.05048700840953"><ele>172.66666666666669</ele><time>2026-04-03T13:47:56.003Z</time></trkpt><trkpt lat="44.68569167540696" lon="10.050708316382092"><ele>172.0</ele><time>2026-04-03T13:47:57.003Z</time></trkpt><trkpt lat="44.68566123581328" lon="10.050940246000696"><ele>171.0</ele><time>2026-04-03T13:47:58.003Z</time></trkpt><trkpt lat="44.68563255600641" lon="10.05118332666061"><ele>170.0</ele><time>2026-04-03T13:47:59.003Z</time></trkpt><trkpt lat="44.68560532642509" lon="10.051438751277967"><ele>169.0</ele><time>2026-04-03T13:48:00.003Z</time></trkpt><trkpt lat="44.68557580524881" lon="10.051700864299997"><ele>169.0</ele><time>2026-04-03T13:48:01.003Z</time></trkpt><trkpt lat="44.68554199942672" lon="10.051966766253537"><ele>169.0</ele><time>2026-04-03T13:48:02.003Z</time></trkpt><trkpt lat="44.6855076205704" lon="10.052241940805454"><ele>169.0</ele><time>2026-04-03T13:48:03.003Z</time></trkpt><trkpt lat="44.68547401916094" lon="10.052531375934995"><ele>168.66666666666669</ele><time>2026-04-03T13:48:04.003Z</time></trkpt><trkpt lat="44.68543818946227" lon="10.052832734172748"><ele>168.33333333333334</ele><time>2026-04-03T13:48:05.003Z</time></trkpt><trkpt lat="44.68540615575023" lon="10.053136139796967"><ele>168.0</ele><time>2026-04-03T13:48:06.003Z</time></trkpt><trkpt lat="44.68538025768651" lon="10.053432822702817"><ele>166.66666666666666</ele><time>2026-04-03T13:48:07.003Z</time></trkpt><trkpt lat="44.68535205853503" lon="10.05372296527248"><ele>165.33333333333331</ele><time>2026-04-03T13:48:08.003Z</time></trkpt><trkpt lat="44.68532634057122" lon="10.054000726371099"><ele>164.0</ele><time>2026-04-03T13:48:09.003Z</time></trkpt><trkpt lat="44.685309561921876" lon="10.054267817556196"><ele>164.0</ele><time>2026-04-03T13:48:10.003Z</time></trkpt><trkpt lat="44.68530123386254" lon="10.054521260444536"><ele>164.0</ele><time>2026-04-03T13:48:11.003Z</time></trkpt><trkpt lat="44.68529241486966" lon="10.054757932118989"><ele>164.0</ele><time>2026-04-03T13:48:12.003Z</time></trkpt><trkpt lat="44.68529881534512" lon="10.054993055200145"><ele>163.0</ele><time>2026-04-03T13:48:13.003Z</time></trkpt><trkpt lat="44.68532528576555" lon="10.055234657959675"><ele>162.0</ele><time>2026-04-03T13:48:14.004Z</time></trkpt><trkpt lat="44.685378471726146" lon="10.055469464511713"><ele>161.0</ele><time>2026-04-03T13:48:15.004Z</time></trkpt><trkpt lat="44.685459555082225" lon="10.05569195250814"><ele>161.0</ele><time>2026-04-03T13:48:16.004Z</time></trkpt><trkpt lat="44.68555682264875" lon="10.05591018257483"><ele>161.0</ele><time>2026-04-03T13:48:17.004Z</time></trkpt><trkpt lat="44.6856749471781" lon="10.056118700435432"><ele>161.0</ele><time>2026-04-03T13:48:18.004Z</time></trkpt><trkpt lat="44.68581590091808" lon="10.056319075329181"><ele>161.0</ele><time>2026-04-03T13:48:19.004Z</time></trkpt><trkpt lat="44.685969591000905" lon="10.05651330492439"><ele>161.0</ele><time>2026-04-03T13:48:20.004Z</time></trkpt><trkpt lat="44.68613427803678" lon="10.05670040165275"><ele>161.0</ele><time>2026-04-03T13:48:21.004Z</time></trkpt><trkpt lat="44.68630852941296" lon="10.056884152315728"><ele>160.0</ele><time>2026-04-03T13:48:22.004Z</time></trkpt><trkpt lat="44.68648794890628" lon="10.057065288274307"><ele>159.0</ele><time>2026-04-03T13:48:23.004Z</time></trkpt><trkpt lat="44.6866702701555" lon="10.05723988417002"><ele>158.0</ele><time>2026-04-03T13:48:24.004Z</time></trkpt><trkpt lat="44.68686136113795" lon="10.057411691607978"><ele>157.5</ele><time>2026-04-03T13:48:25.004Z</time></trkpt><trkpt lat="44.687048864554086" lon="10.05758672258909"><ele>157.0</ele><time>2026-04-03T13:48:26.004Z</time></trkpt><trkpt lat="44.68723436511796" lon="10.057767034370295"><ele>157.0</ele><time>2026-04-03T13:48:27.004Z</time></trkpt><trkpt lat="44.687418880564714" lon="10.057957487788816"><ele>157.0</ele><time>2026-04-03T13:48:28.004Z</time></trkpt><trkpt lat="44.68760104996523" lon="10.05816884568956"><ele>156.0</ele><time>2026-04-03T13:48:29.004Z</time></trkpt><trkpt lat="44.68777977800896" lon="10.058391956703082"><ele>155.0</ele><time>2026-04-03T13:48:30.004Z</time></trkpt><trkpt lat="44.68795637011124" lon="10.058622342235724"><ele>155.0</ele><time>2026-04-03T13:48:31.004Z</time></trkpt><trkpt lat="44.688137474305805" lon="10.058851634172067"><ele>155.0</ele><time>2026-04-03T13:48:32.004Z</time></trkpt><trkpt lat="44.688315089401755" lon="10.059079355996138"><ele>155.0</ele><time>2026-04-03T13:48:33.004Z</time></trkpt><trkpt lat="44.68848946705431" lon="10.059309065613498"><ele>155.0</ele><time>2026-04-03T13:48:34.004Z</time></trkpt><trkpt lat="44.68865729695612" lon="10.059544679249314"><ele>158.5</ele><time>2026-04-03T13:48:35.004Z</time></trkpt><trkpt lat="44.688814884632556" lon="10.059783752417205"><ele>162.0</ele><time>2026-04-03T13:48:36.004Z</time></trkpt><trkpt lat="44.68896979713248" lon="10.060018577192974"><ele>162.0</ele><time>2026-04-03T13:48:37.004Z</time></trkpt><trkpt lat="44.689118098439764" lon="10.060250148613864"><ele>162.0</ele><time>2026-04-03T13:48:38.004Z</time></trkpt><trkpt lat="44.68924713082729" lon="10.060494585110124"><ele>162.0</ele><time>2026-04-03T13:48:39.004Z</time></trkpt><trkpt lat="44.68936078877735" lon="10.060750493990499"><ele>164.0</ele><time>2026-04-03T13:48:40.004Z</time></trkpt><trkpt lat="44.68946463404149" lon="10.061024414460864"><ele>166.0</ele><time>2026-04-03T13:48:41.004Z</time></trkpt><trkpt lat="44.68955921477674" lon="10.061310779107435"><ele>168.0</ele><time>2026-04-03T13:48:42.004Z</time></trkpt><trkpt lat="44.68962905644733" lon="10.06161423417716"><ele>165.0</ele><time>2026-04-03T13:48:43.004Z</time></trkpt><trkpt lat="44.68968864653787" lon="10.061925289718308"><ele>162.0</ele><time>2026-04-03T13:48:44.004Z</time></trkpt><trkpt lat="44.689748436606706" lon="10.062239470991235"><ele>160.5</ele><time>2026-04-03T13:48:45.004Z</time></trkpt><trkpt lat="44.68980813134919" lon="10.062547933010283"><ele>159.0</ele><time>2026-04-03T13:48:46.004Z</time></trkpt><trkpt lat="44.68987030988162" lon="10.062850412052152"><ele>159.0</ele><time>2026-04-03T13:48:47.004Z</time></trkpt><trkpt lat="44.68992934462766" lon="10.063143859023238"><ele>159.0</ele><time>2026-04-03T13:48:48.004Z</time></trkpt><trkpt lat="44.68998610372159" lon="10.063427588929484"><ele>159.0</ele><time>2026-04-03T13:48:49.004Z</time></trkpt><trkpt lat="44.69004045003571" lon="10.06370123210412"><ele>158.0</ele><time>2026-04-03T13:48:50.004Z</time></trkpt><trkpt lat="44.69009075628312" lon="10.063958575654695"><ele>157.0</ele><time>2026-04-03T13:48:51.004Z</time></trkpt><trkpt lat="44.69013922265002" lon="10.064206423038922"><ele>156.0</ele><time>2026-04-03T13:48:52.004Z</time></trkpt><trkpt lat="44.690179593947335" lon="10.064452868087349"><ele>155.66666666666666</ele><time>2026-04-03T13:48:53.004Z</time></trkpt><trkpt lat="44.69022369229648" lon="10.064698838253905"><ele>155.33333333333331</ele><time>2026-04-03T13:48:54.004Z</time></trkpt><trkpt lat="44.69027052470568" lon="10.064942970690415"><ele>155.0</ele><time>2026-04-03T13:48:55.004Z</time></trkpt><trkpt lat="44.69030547618823" lon="10.06519158273899"><ele>156.0</ele><time>2026-04-03T13:48:56.004Z</time></trkpt><trkpt lat="44.69033966924203" lon="10.065440778710917"><ele>157.0</ele><time>2026-04-03T13:48:57.004Z</time></trkpt><trkpt lat="44.690373146080795" lon="10.065694994262259"><ele>158.0</ele><time>2026-04-03T13:48:58.004Z</time></trkpt><trkpt lat="44.690412310651155" lon="10.065981559933624"><ele>158.0</ele><time>2026-04-03T13:48:59.004Z</time></trkpt><trkpt lat="44.69045172903458" lon="10.066286120287762"><ele>158.0</ele><time>2026-04-03T13:49:00.004Z</time></trkpt><trkpt lat="44.690487552215544" lon="10.066612509073114"><ele>156.5</ele><time>2026-04-03T13:49:01.004Z</time></trkpt><trkpt lat="44.690529736056035" lon="10.066952935348242"><ele>155.0</ele><time>2026-04-03T13:49:02.004Z</time></trkpt><trkpt lat="44.69056820758211" lon="10.067300967540517"><ele>154.5</ele><time>2026-04-03T13:49:03.004Z</time></trkpt><trkpt lat="44.69059739448689" lon="10.067641860571374"><ele>154.0</ele><time>2026-04-03T13:49:04.004Z</time></trkpt><trkpt lat="44.69063175472762" lon="10.067969230606971"><ele>152.5</ele><time>2026-04-03T13:49:05.004Z</time></trkpt><trkpt lat="44.69066927145275" lon="10.068288624864554"><ele>151.0</ele><time>2026-04-03T13:49:06.004Z</time></trkpt><trkpt lat="44.690710603629874" lon="10.068602519219015"><ele>151.0</ele><time>2026-04-03T13:49:07.004Z</time></trkpt><trkpt lat="44.69074522628506" lon="10.068919585264986"><ele>151.0</ele><time>2026-04-03T13:49:08.004Z</time></trkpt><trkpt lat="44.6907964475308" lon="10.069241039691395"><ele>150.0</ele><time>2026-04-03T13:49:09.004Z</time></trkpt><trkpt lat="44.690868237682984" lon="10.069565884615217"><ele>149.0</ele><time>2026-04-03T13:49:10.004Z</time></trkpt><trkpt lat="44.69095757801499" lon="10.0698949084629"><ele>148.0</ele><time>2026-04-03T13:49:11.004Z</time></trkpt><trkpt lat="44.691061499904706" lon="10.070221964563897"><ele>147.0</ele><time>2026-04-03T13:49:12.004Z</time></trkpt><trkpt lat="44.69116464811847" lon="10.07055283310084"><ele>151.0</ele><time>2026-04-03T13:49:13.004Z</time></trkpt><trkpt lat="44.69126027886564" lon="10.070886796286732"><ele>155.0</ele><time>2026-04-03T13:49:14.004Z</time></trkpt><trkpt lat="44.691350476742684" lon="10.071222453465161"><ele>155.0</ele><time>2026-04-03T13:49:15.004Z</time></trkpt><trkpt lat="44.69144283603916" lon="10.071550234960883"><ele>155.0</ele><time>2026-04-03T13:49:16.004Z</time></trkpt><trkpt lat="44.69153327317734" lon="10.071865042129426"><ele>153.66666666666666</ele><time>2026-04-03T13:49:17.004Z</time></trkpt><trkpt lat="44.69161621038465" lon="10.072162905950258"><ele>152.33333333333334</ele><time>2026-04-03T13:49:18.004Z</time></trkpt><trkpt lat="44.69167929419815" lon="10.072461497382726"><ele>151.0</ele><time>2026-04-03T13:49:19.004Z</time></trkpt><trkpt lat="44.691729137575976" lon="10.072762943538942"><ele>148.0</ele><time>2026-04-03T13:49:20.004Z</time></trkpt><trkpt lat="44.69176238171758" lon="10.073075242285148"><ele>145.0</ele><time>2026-04-03T13:49:21.004Z</time></trkpt><trkpt lat="44.69178126030773" lon="10.073397848119436"><ele>145.0</ele><time>2026-04-03T13:49:22.004Z</time></trkpt><trkpt lat="44.691781918709424" lon="10.073727177919666"><ele>145.0</ele><time>2026-04-03T13:49:23.004Z</time></trkpt><trkpt lat="44.69177922244619" lon="10.074064975256954"><ele>145.0</ele><time>2026-04-03T13:49:24.004Z</time></trkpt><trkpt lat="44.69177445495126" lon="10.07440963268778"><ele>145.0</ele><time>2026-04-03T13:49:25.004Z</time></trkpt><trkpt lat="44.69177526381792" lon="10.074755768133475"><ele>146.5</ele><time>2026-04-03T13:49:26.004Z</time></trkpt><trkpt lat="44.69177718488842" lon="10.07510756777775"><ele>148.0</ele><time>2026-04-03T13:49:27.004Z</time></trkpt><trkpt lat="44.69177738770257" lon="10.075464360981039"><ele>146.5</ele><time>2026-04-03T13:49:28.004Z</time></trkpt><trkpt lat="44.69177656850275" lon="10.075816994500231"><ele>145.0</ele><time>2026-04-03T13:49:29.004Z</time></trkpt><trkpt lat="44.69177503781149" lon="10.076167335417853"><ele>145.0</ele><time>2026-04-03T13:49:30.004Z</time></trkpt><trkpt lat="44.69177564054854" lon="10.076527456324575"><ele>145.0</ele><time>2026-04-03T13:49:31.004Z</time></trkpt><trkpt lat="44.69177581740172" lon="10.076892784689223"><ele>144.5</ele><time>2026-04-03T13:49:32.004Z</time></trkpt><trkpt lat="44.691773893441464" lon="10.077255463248413"><ele>144.0</ele><time>2026-04-03T13:49:33.004Z</time></trkpt><trkpt lat="44.69177354829402" lon="10.077618276127959"><ele>143.0</ele><time>2026-04-03T13:49:34.004Z</time></trkpt><trkpt lat="44.69177900499678" lon="10.07797671874287"><ele>142.0</ele><time>2026-04-03T13:49:35.004Z</time></trkpt><trkpt lat="44.691778790275855" lon="10.07833163248869"><ele>142.0</ele><time>2026-04-03T13:49:36.004Z</time></trkpt><trkpt lat="44.69177979143498" lon="10.078665784583869"><ele>142.0</ele><time>2026-04-03T13:49:37.004Z</time></trkpt><trkpt lat="44.69177756008663" lon="10.078978817080436"><ele>142.0</ele><time>2026-04-03T13:49:38.004Z</time></trkpt><trkpt lat="44.69177355346435" lon="10.079271089776261"><ele>142.0</ele><time>2026-04-03T13:49:39.004Z</time></trkpt><trkpt lat="44.691765016595156" lon="10.079560087515047"><ele>142.0</ele><time>2026-04-03T13:49:40.004Z</time></trkpt><trkpt lat="44.69173847399522" lon="10.079846672659135"><ele>142.66666666666669</ele><time>2026-04-03T13:49:41.004Z</time></trkpt><trkpt lat="44.691697970539" lon="10.080130010271173"><ele>143.33333333333334</ele><time>2026-04-03T13:49:42.004Z</time></trkpt><trkpt lat="44.69164478595718" lon="10.08041211289221"><ele>144.0</ele><time>2026-04-03T13:49:43.004Z</time></trkpt><trkpt lat="44.69158623346454" lon="10.080689666710708"><ele>146.66666666666666</ele><time>2026-04-03T13:49:44.004Z</time></trkpt><trkpt lat="44.69152333069541" lon="10.080965929423163"><ele>149.33333333333331</ele><time>2026-04-03T13:49:45.004Z</time></trkpt><trkpt lat="44.69146424097447" lon="10.081241275223144"><ele>152.0</ele><time>2026-04-03T13:49:46.004Z</time></trkpt><trkpt lat="44.69139904362918" lon="10.081504917613318"><ele>154.66666666666666</ele><time>2026-04-03T13:49:47.004Z</time></trkpt><trkpt lat="44.69134206883866" lon="10.081770895202938"><ele>157.33333333333334</ele><time>2026-04-03T13:49:48.004Z</time></trkpt><trkpt lat="44.69129013145384" lon="10.082032778195792"><ele>160.0</ele><time>2026-04-03T13:49:49.004Z</time></trkpt><trkpt lat="44.69124025334795" lon="10.082286306623462"><ele>160.0</ele><time>2026-04-03T13:49:50.004Z</time></trkpt><trkpt lat="44.69119141139652" lon="10.082523105999705"><ele>160.0</ele><time>2026-04-03T13:49:51.004Z</time></trkpt><trkpt lat="44.69115557149072" lon="10.08273955953545"><ele>160.0</ele><time>2026-04-03T13:49:52.004Z</time></trkpt><trkpt lat="44.691128540378" lon="10.082952352214157"><ele>160.0</ele><time>2026-04-03T13:49:53.004Z</time></trkpt><trkpt lat="44.69113561457447" lon="10.083166109974323"><ele>160.0</ele><time>2026-04-03T13:49:54.004Z</time></trkpt><trkpt lat="44.6912001664017" lon="10.083371202663425"><ele>160.0</ele><time>2026-04-03T13:49:55.004Z</time></trkpt><trkpt lat="44.69129786534447" lon="10.083567646929641"><ele>157.33333333333334</ele><time>2026-04-03T13:49:56.004Z</time></trkpt><trkpt lat="44.69141438883398" lon="10.083745413650192"><ele>154.66666666666666</ele><time>2026-04-03T13:49:57.004Z</time></trkpt><trkpt lat="44.69155212258083" lon="10.083905435109806"><ele>152.0</ele><time>2026-04-03T13:49:58.004Z</time></trkpt><trkpt lat="44.69169979089672" lon="10.084051756789236"><ele>152.33333333333331</ele><time>2026-04-03T13:49:59.004Z</time></trkpt><trkpt lat="44.69184447584019" lon="10.084192020501057"><ele>152.66666666666666</ele><time>2026-04-03T13:50:00.004Z</time></trkpt><trkpt lat="44.69199792666503" lon="10.084315031541314"><ele>153.0</ele><time>2026-04-03T13:50:01.004Z</time></trkpt><trkpt lat="44.692158512419496" lon="10.084424015681694"><ele>153.0</ele><time>2026-04-03T13:50:02.004Z</time></trkpt><trkpt lat="44.69231774151575" lon="10.084511226536492"><ele>153.0</ele><time>2026-04-03T13:50:03.004Z</time></trkpt><trkpt lat="44.69247237926269" lon="10.084583810744364"><ele>153.0</ele><time>2026-04-03T13:50:04.004Z</time></trkpt><trkpt lat="44.692626631429356" lon="10.08464053936448"><ele>154.0</ele><time>2026-04-03T13:50:05.004Z</time></trkpt><trkpt lat="44.692789547090634" lon="10.084691737501341"><ele>155.0</ele><time>2026-04-03T13:50:06.004Z</time></trkpt><trkpt lat="44.69294804256792" lon="10.0847541787124"><ele>156.0</ele><time>2026-04-03T13:50:07.004Z</time></trkpt><trkpt lat="44.69310188081196" lon="10.08481803334058"><ele>156.0</ele><time>2026-04-03T13:50:08.004Z</time></trkpt><trkpt lat="44.69325363389249" lon="10.08488175818973"><ele>156.0</ele><time>2026-04-03T13:50:09.004Z</time></trkpt><trkpt lat="44.69339588815564" lon="10.084939755374876"><ele>156.0</ele><time>2026-04-03T13:50:10.004Z</time></trkpt><trkpt lat="44.69353534829763" lon="10.084992368755465"><ele>155.25</ele><time>2026-04-03T13:50:11.004Z</time></trkpt><trkpt lat="44.69366383769741" lon="10.085044149798431"><ele>154.5</ele><time>2026-04-03T13:50:12.004Z</time></trkpt><trkpt lat="44.6937808678144" lon="10.085090320888389"><ele>153.75</ele><time>2026-04-03T13:50:13.004Z</time></trkpt><trkpt lat="44.69389070477759" lon="10.085137035195283"><ele>153.0</ele><time>2026-04-03T13:50:14.004Z</time></trkpt><trkpt lat="44.69399979689408" lon="10.08517956775541"><ele>153.0</ele><time>2026-04-03T13:50:15.004Z</time></trkpt><trkpt lat="44.69411148247511" lon="10.08521696249073"><ele>153.0</ele><time>2026-04-03T13:50:16.004Z</time></trkpt><trkpt lat="44.6942276996789" lon="10.085260771790214"><ele>153.0</ele><time>2026-04-03T13:50:17.004Z</time></trkpt><trkpt lat="44.69434705812253" lon="10.085306271492039"><ele>153.0</ele><time>2026-04-03T13:50:18.004Z</time></trkpt><trkpt lat="44.69446112235507" lon="10.085351516162861"><ele>154.0</ele><time>2026-04-03T13:50:19.004Z</time></trkpt><trkpt lat="44.69457604002631" lon="10.085396096635943"><ele>155.0</ele><time>2026-04-03T13:50:20.004Z</time></trkpt><trkpt lat="44.69468410702911" lon="10.08544961780736"><ele>156.0</ele><time>2026-04-03T13:50:21.004Z</time></trkpt><trkpt lat="44.69479042027577" lon="10.085514015437301"><ele>157.0</ele><time>2026-04-03T13:50:22.004Z</time></trkpt><trkpt lat="44.69490383922931" lon="10.08559416480659"><ele>157.0</ele><time>2026-04-03T13:50:23.004Z</time></trkpt><trkpt lat="44.695007262706376" lon="10.085694305419208"><ele>157.0</ele><time>2026-04-03T13:50:24.004Z</time></trkpt><trkpt lat="44.695105261695765" lon="10.085801964145496"><ele>157.0</ele><time>2026-04-03T13:50:25.004Z</time></trkpt><trkpt lat="44.695211201680635" lon="10.085901699024406"><ele>157.0</ele><time>2026-04-03T13:50:26.004Z</time></trkpt><trkpt lat="44.69534469081488" lon="10.085994157209692"><ele>157.33333333333334</ele><time>2026-04-03T13:50:27.004Z</time></trkpt><trkpt lat="44.69547613610822" lon="10.086102368577478"><ele>157.66666666666666</ele><time>2026-04-03T13:50:28.004Z</time></trkpt><trkpt lat="44.69561495885195" lon="10.086219756638995"><ele>158.0</ele><time>2026-04-03T13:50:29.004Z</time></trkpt><trkpt lat="44.695744003605114" lon="10.086347516911747"><ele>158.0</ele><time>2026-04-03T13:50:30.004Z</time></trkpt><trkpt lat="44.69587381447857" lon="10.08647216458815"><ele>158.0</ele><time>2026-04-03T13:50:31.004Z</time></trkpt><trkpt lat="44.69600529444126" lon="10.086601004367674"><ele>158.0</ele><time>2026-04-03T13:50:32.004Z</time></trkpt><trkpt lat="44.69613007100552" lon="10.086730251886193"><ele>157.33333333333331</ele><time>2026-04-03T13:50:33.004Z</time></trkpt><trkpt lat="44.69626436113453" lon="10.08685643539781"><ele>156.66666666666666</ele><time>2026-04-03T13:50:34.004Z</time></trkpt><trkpt lat="44.69640493173931" lon="10.086981971242631"><ele>156.0</ele><time>2026-04-03T13:50:35.004Z</time></trkpt><trkpt lat="44.696534491680815" lon="10.087116532776502"><ele>156.0</ele><time>2026-04-03T13:50:36.004Z</time></trkpt><trkpt lat="44.69665753937884" lon="10.08725095041635"><ele>156.0</ele><time>2026-04-03T13:50:37.004Z</time></trkpt><trkpt lat="44.69678415663993" lon="10.087379594129914"><ele>156.0</ele><time>2026-04-03T13:50:38.004Z</time></trkpt><trkpt lat="44.69691221677001" lon="10.08751113563846"><ele>156.66666666666666</ele><time>2026-04-03T13:50:39.004Z</time></trkpt><trkpt lat="44.69703762505936" lon="10.087648002767414"><ele>157.33333333333331</ele><time>2026-04-03T13:50:40.004Z</time></trkpt><trkpt lat="44.697165747954685" lon="10.087784705794808"><ele>158.0</ele><time>2026-04-03T13:50:41.004Z</time></trkpt><trkpt lat="44.69729577037003" lon="10.08791951922585"><ele>158.0</ele><time>2026-04-03T13:50:42.004Z</time></trkpt><trkpt lat="44.6974322206538" lon="10.08804924680848"><ele>158.0</ele><time>2026-04-03T13:50:43.004Z</time></trkpt><trkpt lat="44.69755201803199" lon="10.088167903946518"><ele>158.0</ele><time>2026-04-03T13:50:44.004Z</time></trkpt><trkpt lat="44.697666542376844" lon="10.088283881771249"><ele>157.8</ele><time>2026-04-03T13:50:45.004Z</time></trkpt><trkpt lat="44.69775901373383" lon="10.088402752685468"><ele>157.60000000000002</ele><time>2026-04-03T13:50:46.004Z</time></trkpt><trkpt lat="44.697843863699745" lon="10.088510416712284"><ele>157.39999999999998</ele><time>2026-04-03T13:50:47.004Z</time></trkpt><trkpt lat="44.69792406927488" lon="10.088605418869012"><ele>157.2</ele><time>2026-04-03T13:50:48.004Z</time></trkpt><trkpt lat="44.6980037625213" lon="10.088691739707667"><ele>157.0</ele><time>2026-04-03T13:50:49.004Z</time></trkpt><trkpt lat="44.69806364109578" lon="10.08877622255033"><ele>157.0</ele><time>2026-04-03T13:50:50.004Z</time></trkpt><trkpt lat="44.698123724260235" lon="10.088846304040484"><ele>157.0</ele><time>2026-04-03T13:50:51.004Z</time></trkpt><trkpt lat="44.69815110331093" lon="10.088971058152575"><ele>157.0</ele><time>2026-04-03T13:50:53.004Z</time></trkpt><trkpt lat="44.69820653590225" lon="10.089039731137696"><ele>157.0</ele><time>2026-04-03T13:50:55.004Z</time></trkpt><trkpt lat="44.69817699150581" lon="10.089189059364067"><ele>157.0</ele><time>2026-04-03T13:50:57.004Z</time></trkpt><trkpt lat="44.69813745501512" lon="10.08927584276795"><ele>157.0</ele><time>2026-04-03T13:50:58.004Z</time></trkpt><trkpt lat="44.698093741312306" lon="10.089368462733956"><ele>155.4</ele><time>2026-04-03T13:50:59.004Z</time></trkpt><trkpt lat="44.698028362014846" lon="10.089465723629354"><ele>153.79999999999998</ele><time>2026-04-03T13:51:00.004Z</time></trkpt><trkpt lat="44.6979723430212" lon="10.08956421505915"><ele>152.2</ele><time>2026-04-03T13:51:01.004Z</time></trkpt><trkpt lat="44.6979095167331" lon="10.089663559555815"><ele>150.6</ele><time>2026-04-03T13:51:02.004Z</time></trkpt><trkpt lat="44.69784842988543" lon="10.089770577996843"><ele>149.0</ele><time>2026-04-03T13:51:03.004Z</time></trkpt><trkpt lat="44.697785548682894" lon="10.089882885334463"><ele>147.75</ele><time>2026-04-03T13:51:04.004Z</time></trkpt><trkpt lat="44.697720995232125" lon="10.090000816079069"><ele>146.5</ele><time>2026-04-03T13:51:05.004Z</time></trkpt><trkpt lat="44.697655285523894" lon="10.090124160659673"><ele>145.25</ele><time>2026-04-03T13:51:06.004Z</time></trkpt><trkpt lat="44.697584957985605" lon="10.090256363042354"><ele>144.0</ele><time>2026-04-03T13:51:07.004Z</time></trkpt><trkpt lat="44.69751131295383" lon="10.090384385287514"><ele>144.0</ele><time>2026-04-03T13:51:08.004Z</time></trkpt><trkpt lat="44.6974396597302" lon="10.090514048042403"><ele>144.0</ele><time>2026-04-03T13:51:09.004Z</time></trkpt><trkpt lat="44.69736706194058" lon="10.090648568749199"><ele>144.0</ele><time>2026-04-03T13:51:10.004Z</time></trkpt><trkpt lat="44.69729176839196" lon="10.090782931063671"><ele>144.0</ele><time>2026-04-03T13:51:11.004Z</time></trkpt><trkpt lat="44.69722033207186" lon="10.090922318470032"><ele>143.75</ele><time>2026-04-03T13:51:12.004Z</time></trkpt><trkpt lat="44.6971453482973" lon="10.091063923931918"><ele>143.5</ele><time>2026-04-03T13:51:13.004Z</time></trkpt><trkpt lat="44.69706872202824" lon="10.091206421477066"><ele>143.25</ele><time>2026-04-03T13:51:14.004Z</time></trkpt><trkpt lat="44.69698819413634" lon="10.091343357209448"><ele>143.0</ele><time>2026-04-03T13:51:15.004Z</time></trkpt><trkpt lat="44.696911164417855" lon="10.091481229461804"><ele>141.75</ele><time>2026-04-03T13:51:16.004Z</time></trkpt><trkpt lat="44.696832567677646" lon="10.091618450344434"><ele>140.5</ele><time>2026-04-03T13:51:17.004Z</time></trkpt><trkpt lat="44.696751953673015" lon="10.091754468374704"><ele>139.25</ele><time>2026-04-03T13:51:18.004Z</time></trkpt><trkpt lat="44.696669568015814" lon="10.091885436946477"><ele>138.0</ele><time>2026-04-03T13:51:19.004Z</time></trkpt><trkpt lat="44.696588717230306" lon="10.09202297745261"><ele>138.0</ele><time>2026-04-03T13:51:20.004Z</time></trkpt><trkpt lat="44.69650904072019" lon="10.092168178698579"><ele>138.0</ele><time>2026-04-03T13:51:21.004Z</time></trkpt><trkpt lat="44.69642732421207" lon="10.092313501265386"><ele>138.0</ele><time>2026-04-03T13:51:22.004Z</time></trkpt><trkpt lat="44.696341537127715" lon="10.092461700243112"><ele>138.0</ele><time>2026-04-03T13:51:23.004Z</time></trkpt><trkpt lat="44.69625170343572" lon="10.092617661075504"><ele>137.0</ele><time>2026-04-03T13:51:24.004Z</time></trkpt><trkpt lat="44.69616070223409" lon="10.092777860007187"><ele>136.0</ele><time>2026-04-03T13:51:25.004Z</time></trkpt><trkpt lat="44.69606938387645" lon="10.092936015763451"><ele>135.0</ele><time>2026-04-03T13:51:26.004Z</time></trkpt><trkpt lat="44.6959734666118" lon="10.09311318028757"><ele>134.0</ele><time>2026-04-03T13:51:27.004Z</time></trkpt><trkpt lat="44.695870592001626" lon="10.093310599956377"><ele>133.33333333333331</ele><time>2026-04-03T13:51:28.004Z</time></trkpt><trkpt lat="44.69575708032154" lon="10.093515088250252"><ele>132.66666666666666</ele><time>2026-04-03T13:51:29.004Z</time></trkpt><trkpt lat="44.69563873668704" lon="10.093714396826917"><ele>132.0</ele><time>2026-04-03T13:51:30.004Z</time></trkpt><trkpt lat="44.69552752142007" lon="10.093901101379254"><ele>132.0</ele><time>2026-04-03T13:51:31.004Z</time></trkpt><trkpt lat="44.695422978188255" lon="10.094089751969179"><ele>132.0</ele><time>2026-04-03T13:51:32.004Z</time></trkpt><trkpt lat="44.69532044142849" lon="10.094273624077578"><ele>132.0</ele><time>2026-04-03T13:51:33.004Z</time></trkpt><trkpt lat="44.695222960723925" lon="10.094455945316717"><ele>132.33333333333334</ele><time>2026-04-03T13:51:34.004Z</time></trkpt><trkpt lat="44.69512504684079" lon="10.094639738557067"><ele>132.66666666666669</ele><time>2026-04-03T13:51:35.004Z</time></trkpt><trkpt lat="44.695026093901916" lon="10.094818687254493"><ele>133.0</ele><time>2026-04-03T13:51:36.004Z</time></trkpt><trkpt lat="44.69493067165851" lon="10.094997596609687"><ele>133.0</ele><time>2026-04-03T13:51:37.004Z</time></trkpt><trkpt lat="44.69483473499211" lon="10.095175099622432"><ele>133.0</ele><time>2026-04-03T13:51:38.004Z</time></trkpt><trkpt lat="44.69474111955244" lon="10.095349948829195"><ele>133.0</ele><time>2026-04-03T13:51:39.004Z</time></trkpt><trkpt lat="44.69464688243267" lon="10.095525281328253"><ele>133.0</ele><time>2026-04-03T13:51:40.004Z</time></trkpt><trkpt lat="44.69455063584398" lon="10.095700920441473"><ele>133.0</ele><time>2026-04-03T13:51:41.004Z</time></trkpt><trkpt lat="44.69445385178229" lon="10.095877205142271"><ele>133.0</ele><time>2026-04-03T13:51:42.004Z</time></trkpt><trkpt lat="44.694358915518094" lon="10.09605015932771"><ele>133.25</ele><time>2026-04-03T13:51:43.005Z</time></trkpt><trkpt lat="44.69426631883532" lon="10.096216164708594"><ele>133.5</ele><time>2026-04-03T13:51:44.005Z</time></trkpt><trkpt lat="44.6941815444171" lon="10.09637022754775"><ele>133.75</ele><time>2026-04-03T13:51:45.005Z</time></trkpt><trkpt lat="44.69410499104363" lon="10.096507927525716"><ele>134.0</ele><time>2026-04-03T13:51:46.005Z</time></trkpt><trkpt lat="44.69404377702427" lon="10.096620210476669"><ele>134.6</ele><time>2026-04-03T13:51:47.005Z</time></trkpt><trkpt lat="44.69398418161649" lon="10.096727976303828"><ele>135.2</ele><time>2026-04-03T13:51:48.005Z</time></trkpt><trkpt lat="44.69392802573592" lon="10.096830318915643"><ele>135.79999999999998</ele><time>2026-04-03T13:51:49.005Z</time></trkpt><trkpt lat="44.69386324378092" lon="10.096929592186395"><ele>136.4</ele><time>2026-04-03T13:51:50.005Z</time></trkpt><trkpt lat="44.69380426221244" lon="10.097035183402204"><ele>137.0</ele><time>2026-04-03T13:51:51.005Z</time></trkpt><trkpt lat="44.693753196203545" lon="10.097130143034493"><ele>137.0</ele><time>2026-04-03T13:51:52.005Z</time></trkpt><trkpt lat="44.69369886247048" lon="10.09724142336753"><ele>137.0</ele><time>2026-04-03T13:51:54.005Z</time></trkpt><trkpt lat="44.69365100168024" lon="10.097325562447415"><ele>137.0</ele><time>2026-04-03T13:51:57.005Z</time></trkpt><trkpt lat="44.693614081370626" lon="10.097405937146736"><ele>137.0</ele><time>2026-04-03T13:52:00.005Z</time></trkpt><trkpt lat="44.693566775596004" lon="10.09748880071349"><ele>137.0</ele><time>2026-04-03T13:52:02.005Z</time></trkpt><trkpt lat="44.69352322419421" lon="10.097560322414928"><ele>137.0</ele><time>2026-04-03T13:52:04.005Z</time></trkpt><trkpt lat="44.69347549225825" lon="10.097647737911043"><ele>137.33333333333331</ele><time>2026-04-03T13:52:06.005Z</time></trkpt><trkpt lat="44.693426060749715" lon="10.097730308504794"><ele>137.66666666666666</ele><time>2026-04-03T13:52:08.005Z</time></trkpt><trkpt lat="44.69337343913688" lon="10.097814243026509"><ele>138.0</ele><time>2026-04-03T13:52:10.005Z</time></trkpt><trkpt lat="44.69330850362556" lon="10.097921430188249"><ele>138.33333333333334</ele><time>2026-04-03T13:52:12.005Z</time></trkpt><trkpt lat="44.693264691746556" lon="10.097998238282479"><ele>138.66666666666669</ele><time>2026-04-03T13:52:13.005Z</time></trkpt><trkpt lat="44.693221972136016" lon="10.098075729504501"><ele>139.0</ele><time>2026-04-03T13:52:14.005Z</time></trkpt><trkpt lat="44.693178661052656" lon="10.098150668688872"><ele>139.0</ele><time>2026-04-03T13:52:15.005Z</time></trkpt><trkpt lat="44.69313227363739" lon="10.098223576992215"><ele>139.0</ele><time>2026-04-03T13:52:16.005Z</time></trkpt><trkpt lat="44.69308477476451" lon="10.098314772386537"><ele>139.0</ele><time>2026-04-03T13:52:17.005Z</time></trkpt><trkpt lat="44.693039656526636" lon="10.098405824945619"><ele>139.0</ele><time>2026-04-03T13:52:18.005Z</time></trkpt><trkpt lat="44.692991591462004" lon="10.098501944334735"><ele>139.0</ele><time>2026-04-03T13:52:19.005Z</time></trkpt><trkpt lat="44.69293679697315" lon="10.098611491879645"><ele>139.0</ele><time>2026-04-03T13:52:20.005Z</time></trkpt><trkpt lat="44.69287323605516" lon="10.09873258319648"><ele>138.75</ele><time>2026-04-03T13:52:21.005Z</time></trkpt><trkpt lat="44.6927999029104" lon="10.098850184288164"><ele>138.5</ele><time>2026-04-03T13:52:22.005Z</time></trkpt><trkpt lat="44.692721870979476" lon="10.098959317891206"><ele>138.25</ele><time>2026-04-03T13:52:23.005Z</time></trkpt><trkpt lat="44.69262995936314" lon="10.099055035652764"><ele>138.0</ele><time>2026-04-03T13:52:24.005Z</time></trkpt><trkpt lat="44.69252369790723" lon="10.099139803979197"><ele>139.0</ele><time>2026-04-03T13:52:25.005Z</time></trkpt><trkpt lat="44.69240156501553" lon="10.099211856389706"><ele>140.0</ele><time>2026-04-03T13:52:26.005Z</time></trkpt><trkpt lat="44.69227737585133" lon="10.099269759838196"><ele>141.0</ele><time>2026-04-03T13:52:27.005Z</time></trkpt><trkpt lat="44.69216155556092" lon="10.099317830915844"><ele>142.0</ele><time>2026-04-03T13:52:28.005Z</time></trkpt><trkpt lat="44.69205769087325" lon="10.09935958068346"><ele>142.0</ele><time>2026-04-03T13:52:29.005Z</time></trkpt><trkpt lat="44.691956149545994" lon="10.099406272756742"><ele>142.0</ele><time>2026-04-03T13:52:30.005Z</time></trkpt><trkpt lat="44.69186559324697" lon="10.099450917823257"><ele>142.0</ele><time>2026-04-03T13:52:31.005Z</time></trkpt><trkpt lat="44.69179308718373" lon="10.099491017913534"><ele>142.0</ele><time>2026-04-03T13:52:32.005Z</time></trkpt><trkpt lat="44.69173324108653" lon="10.099520459021575"><ele>142.0</ele><time>2026-04-03T13:52:33.005Z</time></trkpt><trkpt lat="44.69161594632107" lon="10.099509086391164"><ele>142.83333333333334</ele><time>2026-04-03T13:52:35.005Z</time></trkpt><trkpt lat="44.691553998040355" lon="10.099469508177865"><ele>143.66666666666669</ele><time>2026-04-03T13:52:36.005Z</time></trkpt><trkpt lat="44.69149638333053" lon="10.099410754277208"><ele>144.5</ele><time>2026-04-03T13:52:37.005Z</time></trkpt><trkpt lat="44.691436663879635" lon="10.099347014341241"><ele>145.33333333333334</ele><time>2026-04-03T13:52:38.005Z</time></trkpt><trkpt lat="44.69137699515381" lon="10.099282787713697"><ele>146.16666666666666</ele><time>2026-04-03T13:52:39.005Z</time></trkpt><trkpt lat="44.69130527089451" lon="10.09922273540769"><ele>147.0</ele><time>2026-04-03T13:52:40.005Z</time></trkpt><trkpt lat="44.691229360040445" lon="10.099155522347752"><ele>147.0</ele><time>2026-04-03T13:52:41.005Z</time></trkpt><trkpt lat="44.69115482093808" lon="10.099087409238667"><ele>147.0</ele><time>2026-04-03T13:52:42.005Z</time></trkpt><trkpt lat="44.691082208525906" lon="10.099019495496155"><ele>147.0</ele><time>2026-04-03T13:52:43.005Z</time></trkpt><trkpt lat="44.691005515190035" lon="10.098951715488925"><ele>147.0</ele><time>2026-04-03T13:52:44.005Z</time></trkpt><trkpt lat="44.69092553779845" lon="10.098886698143506"><ele>147.0</ele><time>2026-04-03T13:52:45.005Z</time></trkpt><trkpt lat="44.69085309710468" lon="10.098816921201735"><ele>147.0</ele><time>2026-04-03T13:52:46.005Z</time></trkpt><trkpt lat="44.69079570914861" lon="10.098740698095895"><ele>148.5</ele><time>2026-04-03T13:52:47.005Z</time></trkpt><trkpt lat="44.69068820538921" lon="10.098651124298003"><ele>150.0</ele><time>2026-04-03T13:52:49.005Z</time></trkpt><trkpt lat="44.690631637670585" lon="10.098599641113916"><ele>151.5</ele><time>2026-04-03T13:52:50.005Z</time></trkpt><trkpt lat="44.6905779018555" lon="10.098546468259334"><ele>153.0</ele><time>2026-04-03T13:52:51.005Z</time></trkpt><trkpt lat="44.69052131862382" lon="10.098487707515385"><ele>154.5</ele><time>2026-04-03T13:52:52.005Z</time></trkpt><trkpt lat="44.69045304051068" lon="10.098440569956326"><ele>156.0</ele><time>2026-04-03T13:52:53.005Z</time></trkpt><trkpt lat="44.69037931635057" lon="10.098395373936478"><ele>156.0</ele><time>2026-04-03T13:52:54.005Z</time></trkpt><trkpt lat="44.6903139184681" lon="10.098355593071227"><ele>156.0</ele><time>2026-04-03T13:52:55.005Z</time></trkpt><trkpt lat="44.690227507280966" lon="10.098302360548093"><ele>156.0</ele><time>2026-04-03T13:52:57.005Z</time></trkpt><trkpt lat="44.69016679452574" lon="10.098246671203999"><ele>156.0</ele><time>2026-04-03T13:52:59.005Z</time></trkpt><trkpt lat="44.690089211056694" lon="10.09808424062319"><ele>156.0</ele><time>2026-04-03T13:53:01.005Z</time></trkpt><trkpt lat="44.69004126780178" lon="10.097990872192067"><ele>155.83333333333334</ele><time>2026-04-03T13:53:02.005Z</time></trkpt><trkpt lat="44.68998176348255" lon="10.09791078660606"><ele>155.66666666666666</ele><time>2026-04-03T13:53:03.005Z</time></trkpt><trkpt lat="44.68991756294978" lon="10.09783572008732"><ele>155.5</ele><time>2026-04-03T13:53:04.005Z</time></trkpt><trkpt lat="44.68984970847331" lon="10.097769137374817"><ele>155.33333333333331</ele><time>2026-04-03T13:53:05.005Z</time></trkpt><trkpt lat="44.68978258476468" lon="10.097713139915747"><ele>155.16666666666666</ele><time>2026-04-03T13:53:06.005Z</time></trkpt><trkpt lat="44.68972402718153" lon="10.097665806623386"><ele>155.0</ele><time>2026-04-03T13:53:07.005Z</time></trkpt><trkpt lat="44.689667404443426" lon="10.097626144168839"><ele>155.0</ele><time>2026-04-03T13:53:08.005Z</time></trkpt><trkpt lat="44.68960691501419" lon="10.097593622866576"><ele>155.0</ele><time>2026-04-03T13:53:09.005Z</time></trkpt><trkpt lat="44.689539491965064" lon="10.09756363544616"><ele>155.0</ele><time>2026-04-03T13:53:10.005Z</time></trkpt><trkpt lat="44.68946400283432" lon="10.097532738013715"><ele>155.0</ele><time>2026-04-03T13:53:11.005Z</time></trkpt><trkpt lat="44.6893798165587" lon="10.097506726563129"><ele>155.0</ele><time>2026-04-03T13:53:12.005Z</time></trkpt><trkpt lat="44.68929421984462" lon="10.097480677907383"><ele>155.0</ele><time>2026-04-03T13:53:13.005Z</time></trkpt><trkpt lat="44.68920171630146" lon="10.097451250537057"><ele>154.0</ele><time>2026-04-03T13:53:14.005Z</time></trkpt><trkpt lat="44.68909952781721" lon="10.097422657174992"><ele>153.0</ele><time>2026-04-03T13:53:15.005Z</time></trkpt><trkpt lat="44.6889832226194" lon="10.097396570388044"><ele>152.0</ele><time>2026-04-03T13:53:16.005Z</time></trkpt><trkpt lat="44.68885827159936" lon="10.097370474423741"><ele>151.0</ele><time>2026-04-03T13:53:17.005Z</time></trkpt><trkpt lat="44.68871793612348" lon="10.09733806020606"><ele>147.66666666666669</ele><time>2026-04-03T13:53:18.005Z</time></trkpt><trkpt lat="44.68855654206834" lon="10.097297422373156"><ele>144.33333333333334</ele><time>2026-04-03T13:53:19.005Z</time></trkpt><trkpt lat="44.688373780813656" lon="10.097249006099409"><ele>141.0</ele><time>2026-04-03T13:53:20.005Z</time></trkpt><trkpt lat="44.6881746821495" lon="10.097201473159437"><ele>141.0</ele><time>2026-04-03T13:53:21.005Z</time></trkpt><trkpt lat="44.687966476349274" lon="10.097157506607125"><ele>141.0</ele><time>2026-04-03T13:53:22.005Z</time></trkpt><trkpt lat="44.68775423255598" lon="10.097119944062745"><ele>141.0</ele><time>2026-04-03T13:53:23.005Z</time></trkpt><trkpt lat="44.68754220028192" lon="10.097075227689599"><ele>141.33333333333334</ele><time>2026-04-03T13:53:24.005Z</time></trkpt><trkpt lat="44.687335746593305" lon="10.09702825437068"><ele>141.66666666666669</ele><time>2026-04-03T13:53:25.005Z</time></trkpt><trkpt lat="44.68714587152898" lon="10.096978558053076"><ele>142.0</ele><time>2026-04-03T13:53:26.005Z</time></trkpt><trkpt lat="44.68696457836621" lon="10.096940725721435"><ele>143.0</ele><time>2026-04-03T13:53:27.005Z</time></trkpt><trkpt lat="44.68680303308031" lon="10.096901138726102"><ele>144.0</ele><time>2026-04-03T13:53:28.005Z</time></trkpt><trkpt lat="44.68664828764146" lon="10.096861588395445"><ele>145.0</ele><time>2026-04-03T13:53:29.005Z</time></trkpt><trkpt lat="44.686487726456264" lon="10.09682492414116"><ele>145.0</ele><time>2026-04-03T13:53:30.005Z</time></trkpt><trkpt lat="44.686323874119736" lon="10.096791781838316"><ele>145.0</ele><time>2026-04-03T13:53:31.005Z</time></trkpt><trkpt lat="44.68615688882199" lon="10.096752728954149"><ele>145.0</ele><time>2026-04-03T13:53:32.005Z</time></trkpt><trkpt lat="44.68598964892273" lon="10.096716208150308"><ele>146.0</ele><time>2026-04-03T13:53:33.005Z</time></trkpt><trkpt lat="44.68582954555004" lon="10.09667823054986"><ele>147.0</ele><time>2026-04-03T13:53:34.005Z</time></trkpt><trkpt lat="44.685675775952475" lon="10.09664140563577"><ele>148.0</ele><time>2026-04-03T13:53:35.005Z</time></trkpt><trkpt lat="44.68552738713641" lon="10.096604791664747"><ele>147.0</ele><time>2026-04-03T13:53:36.005Z</time></trkpt><trkpt lat="44.685370775820964" lon="10.096573667947025"><ele>146.0</ele><time>2026-04-03T13:53:37.005Z</time></trkpt><trkpt lat="44.68520524379962" lon="10.096542552393446"><ele>145.0</ele><time>2026-04-03T13:53:38.005Z</time></trkpt><trkpt lat="44.6850360720243" lon="10.09650893265029"><ele>145.0</ele><time>2026-04-03T13:53:39.005Z</time></trkpt><trkpt lat="44.68484971903529" lon="10.096475166362822"><ele>145.0</ele><time>2026-04-03T13:53:40.005Z</time></trkpt><trkpt lat="44.68463905212819" lon="10.096440130747428"><ele>145.0</ele><time>2026-04-03T13:53:41.005Z</time></trkpt><trkpt lat="44.68442813799971" lon="10.09639500546241"><ele>145.33333333333334</ele><time>2026-04-03T13:53:42.005Z</time></trkpt><trkpt lat="44.68422617852209" lon="10.096343919151083"><ele>145.66666666666666</ele><time>2026-04-03T13:53:43.005Z</time></trkpt><trkpt lat="44.68402914940098" lon="10.096290749479486"><ele>146.0</ele><time>2026-04-03T13:53:44.005Z</time></trkpt><trkpt lat="44.68383472509192" lon="10.096247274105115"><ele>146.0</ele><time>2026-04-03T13:53:45.005Z</time></trkpt><trkpt lat="44.68365030373964" lon="10.096202933335645"><ele>146.0</ele><time>2026-04-03T13:53:46.005Z</time></trkpt><trkpt lat="44.68346711830177" lon="10.09616463849601"><ele>146.0</ele><time>2026-04-03T13:53:47.005Z</time></trkpt><trkpt lat="44.68328716479249" lon="10.096132805104661"><ele>146.0</ele><time>2026-04-03T13:53:48.005Z</time></trkpt><trkpt lat="44.68310558085239" lon="10.096101852486528"><ele>146.0</ele><time>2026-04-03T13:53:49.005Z</time></trkpt><trkpt lat="44.68292466400933" lon="10.096074104890869"><ele>146.0</ele><time>2026-04-03T13:53:50.005Z</time></trkpt><trkpt lat="44.682752357360485" lon="10.096036107252965"><ele>147.0</ele><time>2026-04-03T13:53:51.005Z</time></trkpt><trkpt lat="44.68258370467706" lon="10.095992107176365"><ele>148.0</ele><time>2026-04-03T13:53:52.005Z</time></trkpt><trkpt lat="44.682412511505554" lon="10.095950151893037"><ele>149.0</ele><time>2026-04-03T13:53:53.005Z</time></trkpt><trkpt lat="44.682241738806376" lon="10.09590814051563"><ele>149.0</ele><time>2026-04-03T13:53:54.005Z</time></trkpt><trkpt lat="44.68207291134527" lon="10.095862730496293"><ele>149.0</ele><time>2026-04-03T13:53:55.005Z</time></trkpt><trkpt lat="44.68190177212329" lon="10.095814817232753"><ele>149.0</ele><time>2026-04-03T13:53:56.005Z</time></trkpt><trkpt lat="44.68172881447301" lon="10.095768765949423"><ele>148.0</ele><time>2026-04-03T13:53:57.005Z</time></trkpt><trkpt lat="44.681555842024544" lon="10.095714584147302"><ele>147.0</ele><time>2026-04-03T13:53:58.005Z</time></trkpt><trkpt lat="44.68138206330049" lon="10.095652687883426"><ele>146.0</ele><time>2026-04-03T13:53:59.005Z</time></trkpt><trkpt lat="44.68121103290114" lon="10.095573082173626"><ele>145.66666666666666</ele><time>2026-04-03T13:54:00.005Z</time></trkpt><trkpt lat="44.681038056271845" lon="10.095484580507742"><ele>145.33333333333334</ele><time>2026-04-03T13:54:01.005Z</time></trkpt><trkpt lat="44.68085590218586" lon="10.095391893570234"><ele>145.0</ele><time>2026-04-03T13:54:02.005Z</time></trkpt><trkpt lat="44.680676682023694" lon="10.095296595070726"><ele>145.0</ele><time>2026-04-03T13:54:03.005Z</time></trkpt><trkpt lat="44.680505613220056" lon="10.095202173484118"><ele>145.0</ele><time>2026-04-03T13:54:04.005Z</time></trkpt><trkpt lat="44.68035439519933" lon="10.09511350074424"><ele>145.0</ele><time>2026-04-03T13:54:05.005Z</time></trkpt><trkpt lat="44.680215628660605" lon="10.095032879695161"><ele>145.5</ele><time>2026-04-03T13:54:06.005Z</time></trkpt><trkpt lat="44.68009266657296" lon="10.094962333295706"><ele>146.0</ele><time>2026-04-03T13:54:07.005Z</time></trkpt><trkpt lat="44.6799828158427" lon="10.094896856733317"><ele>146.5</ele><time>2026-04-03T13:54:08.005Z</time></trkpt><trkpt lat="44.67988311665249" lon="10.094833616509213"><ele>147.0</ele><time>2026-04-03T13:54:09.005Z</time></trkpt><trkpt lat="44.67978596664752" lon="10.094770715513476"><ele>147.16666666666666</ele><time>2026-04-03T13:54:10.005Z</time></trkpt><trkpt lat="44.67970126687401" lon="10.094705112578847"><ele>147.33333333333334</ele><time>2026-04-03T13:54:11.005Z</time></trkpt><trkpt lat="44.67962671918896" lon="10.094643802066697"><ele>147.5</ele><time>2026-04-03T13:54:12.005Z</time></trkpt><trkpt lat="44.67955939519456" lon="10.094587335469095"><ele>147.66666666666669</ele><time>2026-04-03T13:54:13.005Z</time></trkpt><trkpt lat="44.67949465940668" lon="10.094537898379734"><ele>147.83333333333334</ele><time>2026-04-03T13:54:14.005Z</time></trkpt><trkpt lat="44.67943657312818" lon="10.094479806724863"><ele>148.0</ele><time>2026-04-03T13:54:15.005Z</time></trkpt><trkpt lat="44.67938667305581" lon="10.094408444710051"><ele>148.0</ele><time>2026-04-03T13:54:16.005Z</time></trkpt><trkpt lat="44.679347376167705" lon="10.094322047140674"><ele>148.0</ele><time>2026-04-03T13:54:17.005Z</time></trkpt><trkpt lat="44.67931020663485" lon="10.094229209813186"><ele>148.0</ele><time>2026-04-03T13:54:18.005Z</time></trkpt><trkpt lat="44.67924245641386" lon="10.094174955016776"><ele>148.0</ele><time>2026-04-03T13:54:19.005Z</time></trkpt><trkpt lat="44.67915999545613" lon="10.0941820360347"><ele>148.0</ele><time>2026-04-03T13:54:20.005Z</time></trkpt><trkpt lat="44.67908621193563" lon="10.094252739448667"><ele>148.0</ele><time>2026-04-03T13:54:21.005Z</time></trkpt><trkpt lat="44.67902797809288" lon="10.094352301388554"><ele>148.0</ele><time>2026-04-03T13:54:22.005Z</time></trkpt><trkpt lat="44.678958267882635" lon="10.09447634574"><ele>148.0</ele><time>2026-04-03T13:54:23.005Z</time></trkpt><trkpt lat="44.67885402018411" lon="10.094565501067372"><ele>148.0</ele><time>2026-04-03T13:54:24.005Z</time></trkpt><trkpt lat="44.678732728083425" lon="10.094621121597637"><ele>148.0</ele><time>2026-04-03T13:54:25.005Z</time></trkpt><trkpt lat="44.678610789954426" lon="10.094680033686142"><ele>148.0</ele><time>2026-04-03T13:54:26.005Z</time></trkpt><trkpt lat="44.67848388097135" lon="10.09475222252776"><ele>148.0</ele><time>2026-04-03T13:54:27.005Z</time></trkpt><trkpt lat="44.678349911423695" lon="10.094834362467658"><ele>148.0</ele><time>2026-04-03T13:54:28.005Z</time></trkpt><trkpt lat="44.67821051891671" lon="10.094915905928724"><ele>148.0</ele><time>2026-04-03T13:54:29.005Z</time></trkpt><trkpt lat="44.67807230809093" lon="10.094991076185883"><ele>148.5</ele><time>2026-04-03T13:54:30.005Z</time></trkpt><trkpt lat="44.67794074862071" lon="10.095063875527188"><ele>149.0</ele><time>2026-04-03T13:54:31.005Z</time></trkpt><trkpt lat="44.67781402955289" lon="10.095134045075941"><ele>149.5</ele><time>2026-04-03T13:54:32.005Z</time></trkpt><trkpt lat="44.677693692597195" lon="10.095199107206739"><ele>150.0</ele><time>2026-04-03T13:54:33.005Z</time></trkpt><trkpt lat="44.6775781106217" lon="10.095262247220695"><ele>150.75</ele><time>2026-04-03T13:54:34.005Z</time></trkpt><trkpt lat="44.67746685697531" lon="10.09532467793435"><ele>151.5</ele><time>2026-04-03T13:54:35.005Z</time></trkpt><trkpt lat="44.677360614791496" lon="10.095382656589303"><ele>152.25</ele><time>2026-04-03T13:54:36.005Z</time></trkpt><trkpt lat="44.67725482048078" lon="10.095436104658608"><ele>153.0</ele><time>2026-04-03T13:54:37.005Z</time></trkpt><trkpt lat="44.67713704238879" lon="10.09550767907814"><ele>153.0</ele><time>2026-04-03T13:54:38.005Z</time></trkpt><trkpt lat="44.67701186980689" lon="10.095579674435523"><ele>153.0</ele><time>2026-04-03T13:54:39.005Z</time></trkpt><trkpt lat="44.67688034109932" lon="10.095644211664023"><ele>153.0</ele><time>2026-04-03T13:54:40.005Z</time></trkpt><trkpt lat="44.67675239949734" lon="10.09570992717835"><ele>153.0</ele><time>2026-04-03T13:54:41.005Z</time></trkpt><trkpt lat="44.676615379064096" lon="10.095774674122122"><ele>153.25</ele><time>2026-04-03T13:54:42.005Z</time></trkpt><trkpt lat="44.676477896933605" lon="10.09584195193018"><ele>153.5</ele><time>2026-04-03T13:54:43.005Z</time></trkpt><trkpt lat="44.67633910344955" lon="10.09591707214445"><ele>153.75</ele><time>2026-04-03T13:54:44.005Z</time></trkpt><trkpt lat="44.67620593368403" lon="10.095988843669575"><ele>154.0</ele><time>2026-04-03T13:54:45.005Z</time></trkpt><trkpt lat="44.67607367776155" lon="10.096058466753615"><ele>154.75</ele><time>2026-04-03T13:54:46.005Z</time></trkpt><trkpt lat="44.67594499962413" lon="10.096130682328889"><ele>155.5</ele><time>2026-04-03T13:54:47.005Z</time></trkpt><trkpt lat="44.67581293704435" lon="10.09619515421741"><ele>156.25</ele><time>2026-04-03T13:54:48.005Z</time></trkpt><trkpt lat="44.67568273521996" lon="10.096260691341872"><ele>157.0</ele><time>2026-04-03T13:54:49.005Z</time></trkpt><trkpt lat="44.67555532941968" lon="10.096318834774367"><ele>157.0</ele><time>2026-04-03T13:54:50.005Z</time></trkpt><trkpt lat="44.675425193033504" lon="10.096377587920513"><ele>157.0</ele><time>2026-04-03T13:54:51.005Z</time></trkpt><trkpt lat="44.675296590318126" lon="10.09644494844769"><ele>157.0</ele><time>2026-04-03T13:54:52.005Z</time></trkpt><trkpt lat="44.67517304426878" lon="10.096513368049365"><ele>157.0</ele><time>2026-04-03T13:54:53.005Z</time></trkpt><trkpt lat="44.675043197213924" lon="10.096579187452106"><ele>156.75</ele><time>2026-04-03T13:54:54.005Z</time></trkpt><trkpt lat="44.674915072237795" lon="10.096641060512193"><ele>156.5</ele><time>2026-04-03T13:54:55.005Z</time></trkpt><trkpt lat="44.674788887847065" lon="10.09670658074746"><ele>156.25</ele><time>2026-04-03T13:54:56.005Z</time></trkpt><trkpt lat="44.67466454857628" lon="10.096774192636"><ele>156.0</ele><time>2026-04-03T13:54:57.005Z</time></trkpt><trkpt lat="44.674540860307694" lon="10.096834764998658"><ele>157.0</ele><time>2026-04-03T13:54:58.005Z</time></trkpt><trkpt lat="44.67441394367919" lon="10.096898802826187"><ele>158.0</ele><time>2026-04-03T13:54:59.005Z</time></trkpt><trkpt lat="44.67429403616986" lon="10.09696207099958"><ele>159.0</ele><time>2026-04-03T13:55:00.005Z</time></trkpt><trkpt lat="44.67418649434333" lon="10.097017785088976"><ele>160.0</ele><time>2026-04-03T13:55:01.005Z</time></trkpt><trkpt lat="44.6740757879559" lon="10.097075002126287"><ele>160.0</ele><time>2026-04-03T13:55:02.005Z</time></trkpt><trkpt lat="44.67396806309317" lon="10.09713250734298"><ele>160.0</ele><time>2026-04-03T13:55:02.989Z</time></trkpt><trkpt lat="44.673858821731706" lon="10.097187840523091"><ele>160.0</ele><time>2026-04-03T13:55:03.989Z</time></trkpt><trkpt lat="44.67374445103513" lon="10.097246771553335"><ele>160.0</ele><time>2026-04-03T13:55:04.989Z</time></trkpt><trkpt lat="44.67362708698358" lon="10.09730627963717"><ele>160.0</ele><time>2026-04-03T13:55:05.989Z</time></trkpt><trkpt lat="44.67351049535397" lon="10.097365474740835"><ele>160.0</ele><time>2026-04-03T13:55:06.989Z</time></trkpt><trkpt lat="44.67340031273829" lon="10.097424840773595"><ele>160.0</ele><time>2026-04-03T13:55:07.989Z</time></trkpt><trkpt lat="44.673288961643244" lon="10.097482404647943"><ele>160.0</ele><time>2026-04-03T13:55:08.989Z</time></trkpt><trkpt lat="44.67317500184784" lon="10.097542033337872"><ele>160.0</ele><time>2026-04-03T13:55:09.989Z</time></trkpt><trkpt lat="44.673058277989924" lon="10.0976034301433"><ele>160.0</ele><time>2026-04-03T13:55:10.989Z</time></trkpt><trkpt lat="44.67293620988011" lon="10.097662060917868"><ele>160.0</ele><time>2026-04-03T13:55:11.989Z</time></trkpt><trkpt lat="44.67281643869767" lon="10.097716909611139"><ele>160.0</ele><time>2026-04-03T13:55:12.989Z</time></trkpt><trkpt lat="44.67270130897481" lon="10.09777281280923"><ele>161.4</ele><time>2026-04-03T13:55:13.989Z</time></trkpt><trkpt lat="44.67259260269036" lon="10.097826206990389"><ele>162.8</ele><time>2026-04-03T13:55:14.989Z</time></trkpt><trkpt lat="44.6724928934216" lon="10.097861047521874"><ele>164.2</ele><time>2026-04-03T13:55:15.989Z</time></trkpt><trkpt lat="44.672387239392364" lon="10.097864170542097"><ele>165.6</ele><time>2026-04-03T13:55:16.989Z</time></trkpt><trkpt lat="44.67229325940806" lon="10.097787869069933"><ele>167.0</ele><time>2026-04-03T13:55:17.989Z</time></trkpt><trkpt lat="44.67223062655213" lon="10.097667505613218"><ele>167.0</ele><time>2026-04-03T13:55:18.989Z</time></trkpt><trkpt lat="44.67220743264307" lon="10.097495696461364"><ele>167.0</ele><time>2026-04-03T13:55:19.989Z</time></trkpt><trkpt lat="44.67220706692157" lon="10.097303514854461"><ele>167.0</ele><time>2026-04-03T13:55:20.989Z</time></trkpt><trkpt lat="44.672196273164786" lon="10.097113516263503"><ele>167.0</ele><time>2026-04-03T13:55:21.989Z</time></trkpt><trkpt lat="44.67217970876464" lon="10.096929703664923"><ele>167.75</ele><time>2026-04-03T13:55:22.989Z</time></trkpt><trkpt lat="44.67215196697095" lon="10.096760808439"><ele>168.5</ele><time>2026-04-03T13:55:23.989Z</time></trkpt><trkpt lat="44.67208331863551" lon="10.096596386021025"><ele>169.25</ele><time>2026-04-03T13:55:24.989Z</time></trkpt><trkpt lat="44.67198605604146" lon="10.096450855981976"><ele>170.0</ele><time>2026-04-03T13:55:25.989Z</time></trkpt><trkpt lat="44.6718605409987" lon="10.09632734799356"><ele>172.0</ele><time>2026-04-03T13:55:26.989Z</time></trkpt><trkpt lat="44.671727225812816" lon="10.09621627435271"><ele>174.0</ele><time>2026-04-03T13:55:27.989Z</time></trkpt><trkpt lat="44.67159521122533" lon="10.096097666249838"><ele>176.0</ele><time>2026-04-03T13:55:28.989Z</time></trkpt><trkpt lat="44.67149437154555" lon="10.09599938927785"><ele>178.0</ele><time>2026-04-03T13:55:29.989Z</time></trkpt><trkpt lat="44.671389617859674" lon="10.09592814049696"><ele>178.0</ele><time>2026-04-03T13:55:30.989Z</time></trkpt><trkpt lat="44.67127798696574" lon="10.095892360331414"><ele>178.0</ele><time>2026-04-03T13:55:31.989Z</time></trkpt><trkpt lat="44.67115571728952" lon="10.09593268711191"><ele>178.0</ele><time>2026-04-03T13:55:32.989Z</time></trkpt><trkpt lat="44.6710605551405" lon="10.096036932277645"><ele>178.0</ele><time>2026-04-03T13:55:33.989Z</time></trkpt><trkpt lat="44.67098131959236" lon="10.096193973110926"><ele>179.66666666666669</ele><time>2026-04-03T13:55:34.989Z</time></trkpt><trkpt lat="44.67090472563947" lon="10.096375578832475"><ele>181.33333333333334</ele><time>2026-04-03T13:55:35.989Z</time></trkpt><trkpt lat="44.67080873574392" lon="10.096576489124407"><ele>183.0</ele><time>2026-04-03T13:55:36.989Z</time></trkpt><trkpt lat="44.6707210604144" lon="10.096767117756135"><ele>183.33333333333334</ele><time>2026-04-03T13:55:37.989Z</time></trkpt><trkpt lat="44.670629875918635" lon="10.096965420296263"><ele>183.66666666666669</ele><time>2026-04-03T13:55:38.989Z</time></trkpt><trkpt lat="44.670530891038965" lon="10.097162130118688"><ele>184.0</ele><time>2026-04-03T13:55:39.989Z</time></trkpt><trkpt lat="44.670419029916694" lon="10.097357518809483"><ele>182.33333333333334</ele><time>2026-04-03T13:55:40.989Z</time></trkpt><trkpt lat="44.67029290117744" lon="10.097537826285592"><ele>180.66666666666666</ele><time>2026-04-03T13:55:41.989Z</time></trkpt><trkpt lat="44.67015623150767" lon="10.097707689915218"><ele>179.0</ele><time>2026-04-03T13:55:42.989Z</time></trkpt><trkpt lat="44.6700300738037" lon="10.097889480564815"><ele>182.66666666666666</ele><time>2026-04-03T13:55:43.989Z</time></trkpt><trkpt lat="44.669927958516276" lon="10.098087316276482"><ele>186.33333333333334</ele><time>2026-04-03T13:55:44.989Z</time></trkpt><trkpt lat="44.669839468301106" lon="10.09829314216036"><ele>190.0</ele><time>2026-04-03T13:55:45.989Z</time></trkpt><trkpt lat="44.669747611841835" lon="10.098480646770872"><ele>190.0</ele><time>2026-04-03T13:55:46.989Z</time></trkpt><trkpt lat="44.669642927458234" lon="10.098627731888518"><ele>190.0</ele><time>2026-04-03T13:55:47.989Z</time></trkpt><trkpt lat="44.6695377544532" lon="10.098710150714233"><ele>190.0</ele><time>2026-04-03T13:55:48.989Z</time></trkpt><trkpt lat="44.66943191749719" lon="10.098724069964808"><ele>190.0</ele><time>2026-04-03T13:55:49.987Z</time></trkpt><trkpt lat="44.669336942608766" lon="10.09866308616392"><ele>192.25</ele><time>2026-04-03T13:55:50.986Z</time></trkpt><trkpt lat="44.6692572226866" lon="10.098566326195712"><ele>194.5</ele><time>2026-04-03T13:55:51.986Z</time></trkpt><trkpt lat="44.66921791590268" lon="10.09841237625991"><ele>196.75</ele><time>2026-04-03T13:55:52.987Z</time></trkpt><trkpt lat="44.66922354895074" lon="10.098228265686778"><ele>199.0</ele><time>2026-04-03T13:55:53.986Z</time></trkpt><trkpt lat="44.66926054864033" lon="10.098042837755093"><ele>200.66666666666666</ele><time>2026-04-03T13:55:54.986Z</time></trkpt><trkpt lat="44.66929777004794" lon="10.097846453992528"><ele>202.33333333333331</ele><time>2026-04-03T13:55:55.986Z</time></trkpt><trkpt lat="44.66935697656161" lon="10.097634341994953"><ele>204.0</ele><time>2026-04-03T13:55:56.986Z</time></trkpt><trkpt lat="44.66940468198216" lon="10.097382568644987"><ele>201.66666666666669</ele><time>2026-04-03T13:55:57.986Z</time></trkpt><trkpt lat="44.66944667927032" lon="10.09713557763328"><ele>199.33333333333334</ele><time>2026-04-03T13:55:58.986Z</time></trkpt><trkpt lat="44.6694836290636" lon="10.096918475781775"><ele>197.0</ele><time>2026-04-03T13:55:59.986Z</time></trkpt><trkpt lat="44.669515036102474" lon="10.096728993332572"><ele>197.0</ele><time>2026-04-03T13:56:00.986Z</time></trkpt><trkpt lat="44.66952930043136" lon="10.096567138799772"><ele>197.0</ele><time>2026-04-03T13:56:01.986Z</time></trkpt><trkpt lat="44.66953103135634" lon="10.096427686866955"><ele>197.0</ele><time>2026-04-03T13:56:02.986Z</time></trkpt><trkpt lat="44.669487309258905" lon="10.096283675551588"><ele>197.0</ele><time>2026-04-03T13:56:03.986Z</time></trkpt><trkpt lat="44.66939881115208" lon="10.096141300200289"><ele>201.33333333333334</ele><time>2026-04-03T13:56:04.986Z</time></trkpt><trkpt lat="44.669300289441985" lon="10.095984607157938"><ele>205.66666666666669</ele><time>2026-04-03T13:56:05.986Z</time></trkpt><trkpt lat="44.66918548554177" lon="10.09581205306221"><ele>210.0</ele><time>2026-04-03T13:56:06.986Z</time></trkpt><trkpt lat="44.669066109793654" lon="10.09565277838136"><ele>210.0</ele><time>2026-04-03T13:56:07.986Z</time></trkpt><trkpt lat="44.66893826571183" lon="10.095518668070296"><ele>210.0</ele><time>2026-04-03T13:56:08.986Z</time></trkpt><trkpt lat="44.6687912842034" lon="10.09540837677783"><ele>210.0</ele><time>2026-04-03T13:56:09.986Z</time></trkpt><trkpt lat="44.66862435282204" lon="10.095319335478681"><ele>213.0</ele><time>2026-04-03T13:56:10.986Z</time></trkpt><trkpt lat="44.66843835397244" lon="10.095241752424782"><ele>216.0</ele><time>2026-04-03T13:56:11.986Z</time></trkpt><trkpt lat="44.668244858309684" lon="10.095162841874266"><ele>219.0</ele><time>2026-04-03T13:56:12.986Z</time></trkpt><trkpt lat="44.668049713976046" lon="10.095074225303682"><ele>219.0</ele><time>2026-04-03T13:56:13.986Z</time></trkpt><trkpt lat="44.66784701013205" lon="10.094962535979946"><ele>219.0</ele><time>2026-04-03T13:56:14.986Z</time></trkpt><trkpt lat="44.66764605163197" lon="10.094823327484615"><ele>219.0</ele><time>2026-04-03T13:56:15.986Z</time></trkpt><trkpt lat="44.667457155051395" lon="10.09466172558566"><ele>222.0</ele><time>2026-04-03T13:56:16.986Z</time></trkpt><trkpt lat="44.66726628925633" lon="10.094490093251517"><ele>225.0</ele><time>2026-04-03T13:56:17.986Z</time></trkpt><trkpt lat="44.667073749901135" lon="10.094320334115539"><ele>228.0</ele><time>2026-04-03T13:56:18.986Z</time></trkpt><trkpt lat="44.6668853939037" lon="10.094158596490647"><ele>231.0</ele><time>2026-04-03T13:56:19.986Z</time></trkpt><trkpt lat="44.66670150757639" lon="10.094008705459558"><ele>234.0</ele><time>2026-04-03T13:56:20.986Z</time></trkpt><trkpt lat="44.666535313434736" lon="10.093865436300975"><ele>234.0</ele><time>2026-04-03T13:56:21.986Z</time></trkpt><trkpt lat="44.66639444909314" lon="10.093726077928938"><ele>234.0</ele><time>2026-04-03T13:56:22.986Z</time></trkpt><trkpt lat="44.66626493796429" lon="10.093588920487342"><ele>234.0</ele><time>2026-04-03T13:56:23.986Z</time></trkpt><trkpt lat="44.666155355462436" lon="10.093430213252748"><ele>235.75</ele><time>2026-04-03T13:56:24.986Z</time></trkpt><trkpt lat="44.66606623507098" lon="10.09328131108514"><ele>237.5</ele><time>2026-04-03T13:56:25.986Z</time></trkpt><trkpt lat="44.6659685948226" lon="10.093155900208858"><ele>239.25</ele><time>2026-04-03T13:56:26.986Z</time></trkpt><trkpt lat="44.665863865332675" lon="10.093060400757627"><ele>241.0</ele><time>2026-04-03T13:56:27.986Z</time></trkpt><trkpt lat="44.66574071741292" lon="10.093035025191655"><ele>241.0</ele><time>2026-04-03T13:56:28.986Z</time></trkpt><trkpt lat="44.665594042028275" lon="10.093072484431476"><ele>241.0</ele><time>2026-04-03T13:56:29.986Z</time></trkpt><trkpt lat="44.6654448977581" lon="10.093129961986046"><ele>241.0</ele><time>2026-04-03T13:56:30.986Z</time></trkpt><trkpt lat="44.665286506368055" lon="10.093166648061953"><ele>244.66666666666666</ele><time>2026-04-03T13:56:31.986Z</time></trkpt><trkpt lat="44.66511370530307" lon="10.093194359057598"><ele>248.33333333333331</ele><time>2026-04-03T13:56:32.986Z</time></trkpt><trkpt lat="44.66494608789927" lon="10.093203020043484"><ele>252.0</ele><time>2026-04-03T13:56:33.986Z</time></trkpt><trkpt lat="44.664789241221435" lon="10.093188145250094"><ele>252.0</ele><time>2026-04-03T13:56:34.986Z</time></trkpt><trkpt lat="44.66463076540682" lon="10.09316177388202"><ele>252.0</ele><time>2026-04-03T13:56:35.986Z</time></trkpt><trkpt lat="44.66447396443968" lon="10.093134172196812"><ele>252.0</ele><time>2026-04-03T13:56:36.986Z</time></trkpt><trkpt lat="44.66431577088948" lon="10.09311410088823"><ele>254.66666666666669</ele><time>2026-04-03T13:56:37.986Z</time></trkpt><trkpt lat="44.66416139093453" lon="10.093090697693567"><ele>257.33333333333337</ele><time>2026-04-03T13:56:38.986Z</time></trkpt><trkpt lat="44.66401017462963" lon="10.093065932729765"><ele>260.0</ele><time>2026-04-03T13:56:39.986Z</time></trkpt><trkpt lat="44.663868472291185" lon="10.093045035431876"><ele>260.0</ele><time>2026-04-03T13:56:40.986Z</time></trkpt><trkpt lat="44.663742366338894" lon="10.09302463155094"><ele>260.0</ele><time>2026-04-03T13:56:41.986Z</time></trkpt><trkpt lat="44.66363103053238" lon="10.093005714110133"><ele>260.0</ele><time>2026-04-03T13:56:42.986Z</time></trkpt><trkpt lat="44.66352452979061" lon="10.092986789716253"><ele>260.0</ele><time>2026-04-03T13:56:43.986Z</time></trkpt><trkpt lat="44.66342727225263" lon="10.092948826883648"><ele>260.0</ele><time>2026-04-03T13:56:44.986Z</time></trkpt><trkpt lat="44.66333028421925" lon="10.092905935614219"><ele>261.75</ele><time>2026-04-03T13:56:45.986Z</time></trkpt><trkpt lat="44.66322912400289" lon="10.092847009141344"><ele>263.5</ele><time>2026-04-03T13:56:46.986Z</time></trkpt><trkpt lat="44.66313560603931" lon="10.092742646097193"><ele>265.25</ele><time>2026-04-03T13:56:47.986Z</time></trkpt><trkpt lat="44.66305431441176" lon="10.092607551091291"><ele>267.0</ele><time>2026-04-03T13:56:48.986Z</time></trkpt><trkpt lat="44.66299690234763" lon="10.092444083229996"><ele>267.5</ele><time>2026-04-03T13:56:49.986Z</time></trkpt><trkpt lat="44.662945713962145" lon="10.092280992240962"><ele>268.0</ele><time>2026-04-03T13:56:50.986Z</time></trkpt><trkpt lat="44.66290073401503" lon="10.092118859193034"><ele>268.5</ele><time>2026-04-03T13:56:51.986Z</time></trkpt><trkpt lat="44.66285058965984" lon="10.091955693930037"><ele>269.0</ele><time>2026-04-03T13:56:52.986Z</time></trkpt><trkpt lat="44.662800984096485" lon="10.091795968207174"><ele>272.5</ele><time>2026-04-03T13:56:53.986Z</time></trkpt><trkpt lat="44.66275035870689" lon="10.091634687049718"><ele>276.0</ele><time>2026-04-03T13:56:54.986Z</time></trkpt><trkpt lat="44.66269779261431" lon="10.091471692479843"><ele>279.5</ele><time>2026-04-03T13:56:55.986Z</time></trkpt><trkpt lat="44.66265251792465" lon="10.091312682974376"><ele>283.0</ele><time>2026-04-03T13:56:56.986Z</time></trkpt><trkpt lat="44.66261693678898" lon="10.09116207430534"><ele>283.0</ele><time>2026-04-03T13:56:57.986Z</time></trkpt><trkpt lat="44.66261550319508" lon="10.09099829340079"><ele>283.0</ele><time>2026-04-03T13:56:58.986Z</time></trkpt><trkpt lat="44.66265350069573" lon="10.090827807656447"><ele>283.0</ele><time>2026-04-03T13:56:59.986Z</time></trkpt><trkpt lat="44.662729928062404" lon="10.090666928520628"><ele>283.0</ele><time>2026-04-03T13:57:00.986Z</time></trkpt><trkpt lat="44.6628359310919" lon="10.090529267275386"><ele>284.0</ele><time>2026-04-03T13:57:01.986Z</time></trkpt><trkpt lat="44.66295787524744" lon="10.09037586849097"><ele>285.0</ele><time>2026-04-03T13:57:02.986Z</time></trkpt><trkpt lat="44.66305089459912" lon="10.090214181664647"><ele>286.0</ele><time>2026-04-03T13:57:03.986Z</time></trkpt><trkpt lat="44.66312535736578" lon="10.090071713282237"><ele>287.0</ele><time>2026-04-03T13:57:04.986Z</time></trkpt><trkpt lat="44.663185463383094" lon="10.08994823141411"><ele>289.4</ele><time>2026-04-03T13:57:05.986Z</time></trkpt><trkpt lat="44.66323093564209" lon="10.089826812151195"><ele>291.79999999999995</ele><time>2026-04-03T13:57:06.986Z</time></trkpt><trkpt lat="44.66324156571738" lon="10.089702658019332"><ele>294.2</ele><time>2026-04-03T13:57:07.986Z</time></trkpt><trkpt lat="44.663211263545044" lon="10.089584643415531"><ele>296.59999999999997</ele><time>2026-04-03T13:57:08.986Z</time></trkpt><trkpt lat="44.663147218393874" lon="10.089467750417823"><ele>299.0</ele><time>2026-04-03T13:57:09.986Z</time></trkpt><trkpt lat="44.663037609794024" lon="10.089387391604044"><ele>299.0</ele><time>2026-04-03T13:57:10.986Z</time></trkpt><trkpt lat="44.66289640165153" lon="10.08936934807119"><ele>299.0</ele><time>2026-04-03T13:57:11.986Z</time></trkpt><trkpt lat="44.66274354813777" lon="10.089355940279484"><ele>299.0</ele><time>2026-04-03T13:57:12.986Z</time></trkpt><trkpt lat="44.66258210578237" lon="10.089347159101623"><ele>300.33333333333337</ele><time>2026-04-03T13:57:13.986Z</time></trkpt><trkpt lat="44.66242540078535" lon="10.089329744757453"><ele>301.6666666666667</ele><time>2026-04-03T13:57:14.986Z</time></trkpt><trkpt lat="44.662272517280854" lon="10.089324233121244"><ele>303.0</ele><time>2026-04-03T13:57:15.986Z</time></trkpt><trkpt lat="44.662130381278075" lon="10.089349819444138"><ele>303.0</ele><time>2026-04-03T13:57:16.986Z</time></trkpt><trkpt lat="44.66200120423548" lon="10.089420319803953"><ele>303.0</ele><time>2026-04-03T13:57:17.986Z</time></trkpt><trkpt lat="44.66188136657192" lon="10.089517196565392"><ele>303.0</ele><time>2026-04-03T13:57:18.986Z</time></trkpt><trkpt lat="44.66174709078112" lon="10.08964429600665"><ele>303.0</ele><time>2026-04-03T13:57:19.986Z</time></trkpt><trkpt lat="44.661598284035044" lon="10.089787233120147"><ele>303.3333333333333</ele><time>2026-04-03T13:57:20.986Z</time></trkpt><trkpt lat="44.661450594564045" lon="10.089914823124502"><ele>303.66666666666663</ele><time>2026-04-03T13:57:21.986Z</time></trkpt><trkpt lat="44.66132571195729" lon="10.090025145974485"><ele>304.0</ele><time>2026-04-03T13:57:22.986Z</time></trkpt><trkpt lat="44.66122476213781" lon="10.090138560771054"><ele>304.0</ele><time>2026-04-03T13:57:23.986Z</time></trkpt><trkpt lat="44.66114310194458" lon="10.090286498640538"><ele>304.0</ele><time>2026-04-03T13:57:24.986Z</time></trkpt><trkpt lat="44.66110363147821" lon="10.090477916651672"><ele>304.0</ele><time>2026-04-03T13:57:25.986Z</time></trkpt><trkpt lat="44.6610848767192" lon="10.090713980504098"><ele>304.0</ele><time>2026-04-03T13:57:26.986Z</time></trkpt><trkpt lat="44.661078152407484" lon="10.090959609990499"><ele>310.66666666666663</ele><time>2026-04-03T13:57:27.986Z</time></trkpt><trkpt lat="44.66107240521141" lon="10.091217649319915"><ele>317.3333333333333</ele><time>2026-04-03T13:57:28.986Z</time></trkpt><trkpt lat="44.66106351054832" lon="10.091461026550848"><ele>324.0</ele><time>2026-04-03T13:57:29.986Z</time></trkpt><trkpt lat="44.66106696134137" lon="10.091669206416748"><ele>324.0</ele><time>2026-04-03T13:57:30.986Z</time></trkpt><trkpt lat="44.66106529046533" lon="10.091845985001434"><ele>324.0</ele><time>2026-04-03T13:57:31.986Z</time></trkpt><trkpt lat="44.66107342109253" lon="10.091993453823317"><ele>324.0</ele><time>2026-04-03T13:57:32.986Z</time></trkpt><trkpt lat="44.661080025140436" lon="10.092117444959309"><ele>324.0</ele><time>2026-04-03T13:57:33.986Z</time></trkpt><trkpt lat="44.66105627983966" lon="10.092223436990187"><ele>324.0</ele><time>2026-04-03T13:57:34.986Z</time></trkpt><trkpt lat="44.66097580625064" lon="10.092277080114835"><ele>324.0</ele><time>2026-04-03T13:57:35.986Z</time></trkpt><trkpt lat="44.66087703385528" lon="10.092251269612804"><ele>324.0</ele><time>2026-04-03T13:57:36.986Z</time></trkpt><trkpt lat="44.66080538896809" lon="10.092155030210694"><ele>324.0</ele><time>2026-04-03T13:57:37.986Z</time></trkpt><trkpt lat="44.660788785567085" lon="10.091990509449555"><ele>324.0</ele><time>2026-04-03T13:57:38.986Z</time></trkpt><trkpt lat="44.6607931400363" lon="10.091801690154908"><ele>324.0</ele><time>2026-04-03T13:57:39.986Z</time></trkpt><trkpt lat="44.66077715082861" lon="10.09161195262107"><ele>324.0</ele><time>2026-04-03T13:57:40.986Z</time></trkpt><trkpt lat="44.660743002331564" lon="10.091405236735461"><ele>324.0</ele><time>2026-04-03T13:57:41.986Z</time></trkpt><trkpt lat="44.66067580965609" lon="10.091161296767087"><ele>324.0</ele><time>2026-04-03T13:57:42.986Z</time></trkpt><trkpt lat="44.6606059790321" lon="10.090908320487395"><ele>324.0</ele><time>2026-04-03T13:57:43.986Z</time></trkpt><trkpt lat="44.6605204890739" lon="10.090655089127491"><ele>324.0</ele><time>2026-04-03T13:57:44.986Z</time></trkpt><trkpt lat="44.66041373349375" lon="10.090401040150779"><ele>322.6666666666667</ele><time>2026-04-03T13:57:45.986Z</time></trkpt><trkpt lat="44.66029282259741" lon="10.090150421592403"><ele>321.33333333333337</ele><time>2026-04-03T13:57:46.986Z</time></trkpt><trkpt lat="44.66016948479362" lon="10.089904158619767"><ele>320.0</ele><time>2026-04-03T13:57:47.986Z</time></trkpt><trkpt lat="44.660048709664764" lon="10.08965124274352"><ele>326.6666666666667</ele><time>2026-04-03T13:57:48.986Z</time></trkpt><trkpt lat="44.65993850786562" lon="10.089404175545733"><ele>333.3333333333333</ele><time>2026-04-03T13:57:49.986Z</time></trkpt><trkpt lat="44.65984662122927" lon="10.0891760160601"><ele>340.0</ele><time>2026-04-03T13:57:50.986Z</time></trkpt><trkpt lat="44.65976524897495" lon="10.088957292844325"><ele>342.0</ele><time>2026-04-03T13:57:51.986Z</time></trkpt><trkpt lat="44.6597020873484" lon="10.088740591429437"><ele>344.0</ele><time>2026-04-03T13:57:52.986Z</time></trkpt><trkpt lat="44.659643022701076" lon="10.088539537332611"><ele>346.0</ele><time>2026-04-03T13:57:53.986Z</time></trkpt><trkpt lat="44.65959951848444" lon="10.088358395532453"><ele>347.25</ele><time>2026-04-03T13:57:54.986Z</time></trkpt><trkpt lat="44.659585885965456" lon="10.088179877835671"><ele>348.5</ele><time>2026-04-03T13:57:55.985Z</time></trkpt><trkpt lat="44.6596179544008" lon="10.087998571229386"><ele>349.75</ele><time>2026-04-03T13:57:56.985Z</time></trkpt><trkpt lat="44.659688514844255" lon="10.087816603557895"><ele>351.0</ele><time>2026-04-03T13:57:57.985Z</time></trkpt><trkpt lat="44.659778160399824" lon="10.087634570485607"><ele>351.0</ele><time>2026-04-03T13:57:58.985Z</time></trkpt><trkpt lat="44.65986305789405" lon="10.087451109792799"><ele>351.0</ele><time>2026-04-03T13:57:59.985Z</time></trkpt><trkpt lat="44.659932301511766" lon="10.087299488601408"><ele>351.0</ele><time>2026-04-03T13:58:00.985Z</time></trkpt><trkpt lat="44.65999930771982" lon="10.087175949740953"><ele>351.0</ele><time>2026-04-03T13:58:01.985Z</time></trkpt><trkpt lat="44.66005365439674" lon="10.087071928306"><ele>351.1666666666667</ele><time>2026-04-03T13:58:02.985Z</time></trkpt><trkpt lat="44.66008277907621" lon="10.086978178985774"><ele>351.3333333333333</ele><time>2026-04-03T13:58:03.985Z</time></trkpt><trkpt lat="44.66007458748397" lon="10.086878621025345"><ele>351.5</ele><time>2026-04-03T13:58:04.985Z</time></trkpt><trkpt lat="44.660025097372355" lon="10.08682016186053"><ele>351.66666666666663</ele><time>2026-04-03T13:58:05.985Z</time></trkpt><trkpt lat="44.659943006116386" lon="10.086795382483391"><ele>351.8333333333333</ele><time>2026-04-03T13:58:06.985Z</time></trkpt><trkpt lat="44.659850660168416" lon="10.0868455612102"><ele>352.0</ele><time>2026-04-03T13:58:07.985Z</time></trkpt><trkpt lat="44.659757698121915" lon="10.086953801796804"><ele>352.0</ele><time>2026-04-03T13:58:08.985Z</time></trkpt><trkpt lat="44.659668678485765" lon="10.087077620041674"><ele>352.0</ele><time>2026-04-03T13:58:09.985Z</time></trkpt><trkpt lat="44.65957138677073" lon="10.087193626003463"><ele>352.0</ele><time>2026-04-03T13:58:10.985Z</time></trkpt><trkpt lat="44.65945995180659" lon="10.087303365251666"><ele>352.0</ele><time>2026-04-03T13:58:11.985Z</time></trkpt><trkpt lat="44.65934694697772" lon="10.087422594314788"><ele>358.0</ele><time>2026-04-03T13:58:12.985Z</time></trkpt><trkpt lat="44.65922691316301" lon="10.087546916347508"><ele>364.0</ele><time>2026-04-03T13:58:13.985Z</time></trkpt><trkpt lat="44.6591084846265" lon="10.087683585170891"><ele>370.0</ele><time>2026-04-03T13:58:14.985Z</time></trkpt><trkpt lat="44.658977077503394" lon="10.087825147766273"><ele>370.0</ele><time>2026-04-03T13:58:15.985Z</time></trkpt><trkpt lat="44.658861291114384" lon="10.087985229923692"><ele>370.0</ele><time>2026-04-03T13:58:16.985Z</time></trkpt><trkpt lat="44.65875970745871" lon="10.088167468220536"><ele>370.0</ele><time>2026-04-03T13:58:17.985Z</time></trkpt><trkpt lat="44.658679696945896" lon="10.088365066990587"><ele>368.5</ele><time>2026-04-03T13:58:18.985Z</time></trkpt><trkpt lat="44.65862152740048" lon="10.08856700114141"><ele>367.0</ele><time>2026-04-03T13:58:19.985Z</time></trkpt><trkpt lat="44.65858298473018" lon="10.0887625458997"><ele>365.5</ele><time>2026-04-03T13:58:20.985Z</time></trkpt><trkpt lat="44.65855957156715" lon="10.088953171162066"><ele>364.0</ele><time>2026-04-03T13:58:21.985Z</time></trkpt><trkpt lat="44.65855419772906" lon="10.089146798984665"><ele>363.75</ele><time>2026-04-03T13:58:22.985Z</time></trkpt><trkpt lat="44.65858681611053" lon="10.089341964581466"><ele>363.5</ele><time>2026-04-03T13:58:23.985Z</time></trkpt><trkpt lat="44.65862303172264" lon="10.089514245916694"><ele>363.25</ele><time>2026-04-03T13:58:24.985Z</time></trkpt><trkpt lat="44.65866880949851" lon="10.08965125931089"><ele>363.0</ele><time>2026-04-03T13:58:25.985Z</time></trkpt><trkpt lat="44.65870062825007" lon="10.08976492079952"><ele>363.0</ele><time>2026-04-03T13:58:26.985Z</time></trkpt><trkpt lat="44.658677785581425" lon="10.08985378662323"><ele>363.0</ele><time>2026-04-03T13:58:27.985Z</time></trkpt><trkpt lat="44.65858721630309" lon="10.08990076064292"><ele>363.0</ele><time>2026-04-03T13:58:28.985Z</time></trkpt><trkpt lat="44.658495214911724" lon="10.089878520911405"><ele>363.0</ele><time>2026-04-03T13:58:29.985Z</time></trkpt><trkpt lat="44.658437531642875" lon="10.089778430867662"><ele>363.0</ele><time>2026-04-03T13:58:30.985Z</time></trkpt><trkpt lat="44.65840652175222" lon="10.089643657259684"><ele>363.0</ele><time>2026-04-03T13:58:31.985Z</time></trkpt><trkpt lat="44.6583800099064" lon="10.089471483986962"><ele>368.75</ele><time>2026-04-03T13:58:32.985Z</time></trkpt><trkpt lat="44.65833830552223" lon="10.089283134557789"><ele>374.5</ele><time>2026-04-03T13:58:33.985Z</time></trkpt><trkpt lat="44.65828914335745" lon="10.08908126397682"><ele>380.25</ele><time>2026-04-03T13:58:34.985Z</time></trkpt><trkpt lat="44.65823861855" lon="10.088880717444539"><ele>386.0</ele><time>2026-04-03T13:58:35.985Z</time></trkpt><trkpt lat="44.658183113158344" lon="10.08867641549996"><ele>386.3333333333333</ele><time>2026-04-03T13:58:36.985Z</time></trkpt><trkpt lat="44.65814163217555" lon="10.088470551013245"><ele>386.66666666666663</ele><time>2026-04-03T13:58:37.985Z</time></trkpt><trkpt lat="44.658133698123315" lon="10.088257406325555"><ele>387.0</ele><time>2026-04-03T13:58:38.985Z</time></trkpt><trkpt lat="44.65813523954458" lon="10.08804301643642"><ele>386.25</ele><time>2026-04-03T13:58:39.985Z</time></trkpt><trkpt lat="44.658144151868065" lon="10.087829727073519"><ele>385.5</ele><time>2026-04-03T13:58:40.985Z</time></trkpt><trkpt lat="44.65815615093898" lon="10.087640882349275"><ele>384.75</ele><time>2026-04-03T13:58:41.985Z</time></trkpt><trkpt lat="44.65817169433662" lon="10.087490320529962"><ele>384.0</ele><time>2026-04-03T13:58:42.985Z</time></trkpt><trkpt lat="44.65817235309114" lon="10.087369274619702"><ele>384.0</ele><time>2026-04-03T13:58:43.985Z</time></trkpt><trkpt lat="44.658064475327635" lon="10.08727687503019"><ele>384.0</ele><time>2026-04-03T13:58:45.985Z</time></trkpt><trkpt lat="44.65799930807852" lon="10.087327823479697"><ele>384.0</ele><time>2026-04-03T13:58:46.985Z</time></trkpt><trkpt lat="44.65796079431711" lon="10.087427562447969"><ele>384.0</ele><time>2026-04-03T13:58:47.985Z</time></trkpt><trkpt lat="44.65793528961148" lon="10.087567416207461"><ele>384.0</ele><time>2026-04-03T13:58:48.985Z</time></trkpt><trkpt lat="44.65788897168662" lon="10.087731061495294"><ele>385.75</ele><time>2026-04-03T13:58:49.985Z</time></trkpt><trkpt lat="44.65784202250228" lon="10.087886531330259"><ele>387.5</ele><time>2026-04-03T13:58:50.985Z</time></trkpt><trkpt lat="44.65779061591118" lon="10.08804418261003"><ele>389.25</ele><time>2026-04-03T13:58:51.985Z</time></trkpt><trkpt lat="44.657762302569125" lon="10.088211444787461"><ele>391.0</ele><time>2026-04-03T13:58:52.985Z</time></trkpt><trkpt lat="44.657746460576746" lon="10.0883752087902"><ele>394.33333333333337</ele><time>2026-04-03T13:58:53.985Z</time></trkpt><trkpt lat="44.65772581185296" lon="10.088497125055367"><ele>397.6666666666667</ele><time>2026-04-03T13:58:54.985Z</time></trkpt><trkpt lat="44.65768344382734" lon="10.08858549294942"><ele>401.0</ele><time>2026-04-03T13:58:55.985Z</time></trkpt><trkpt lat="44.65760411491017" lon="10.088607391746821"><ele>404.33333333333337</ele><time>2026-04-03T13:58:56.985Z</time></trkpt><trkpt lat="44.657526538448636" lon="10.088551956626782"><ele>407.6666666666667</ele><time>2026-04-03T13:58:57.985Z</time></trkpt><trkpt lat="44.65749943946945" lon="10.088428740827244"><ele>411.0</ele><time>2026-04-03T13:58:58.985Z</time></trkpt><trkpt lat="44.65751621608106" lon="10.088296227765165"><ele>411.20000000000005</ele><time>2026-04-03T13:58:59.985Z</time></trkpt><trkpt lat="44.657565514087544" lon="10.088151775248575"><ele>411.40000000000003</ele><time>2026-04-03T13:59:00.985Z</time></trkpt><trkpt lat="44.65761864498911" lon="10.08800031555119"><ele>411.6</ele><time>2026-04-03T13:59:01.985Z</time></trkpt><trkpt lat="44.65766033354652" lon="10.087847503196558"><ele>411.8</ele><time>2026-04-03T13:59:02.985Z</time></trkpt><trkpt lat="44.657679414358306" lon="10.087716941802341"><ele>412.0</ele><time>2026-04-03T13:59:03.985Z</time></trkpt><trkpt lat="44.657673460874086" lon="10.087601230572623"><ele>412.0</ele><time>2026-04-03T13:59:04.985Z</time></trkpt><trkpt lat="44.65763077954154" lon="10.087493357607416"><ele>412.0</ele><time>2026-04-03T13:59:05.985Z</time></trkpt><trkpt lat="44.65754282686064" lon="10.08740664826719"><ele>412.0</ele><time>2026-04-03T13:59:06.985Z</time></trkpt><trkpt lat="44.657422548976534" lon="10.087362507313488"><ele>412.0</ele><time>2026-04-03T13:59:07.985Z</time></trkpt><trkpt lat="44.65729455678163" lon="10.087343241172167"><ele>412.0</ele><time>2026-04-03T13:59:08.985Z</time></trkpt><trkpt lat="44.65715642754807" lon="10.087319513273831"><ele>409.75</ele><time>2026-04-03T13:59:09.985Z</time></trkpt><trkpt lat="44.657040347016725" lon="10.087283354438203"><ele>407.5</ele><time>2026-04-03T13:59:10.985Z</time></trkpt><trkpt lat="44.65695498421355" lon="10.087202440806207"><ele>405.25</ele><time>2026-04-03T13:59:11.985Z</time></trkpt><trkpt lat="44.656894617315494" lon="10.087067674013808"><ele>403.0</ele><time>2026-04-03T13:59:12.985Z</time></trkpt><trkpt lat="44.65686010366166" lon="10.086883259630273"><ele>407.0</ele><time>2026-04-03T13:59:13.985Z</time></trkpt><trkpt lat="44.656833114424046" lon="10.086686719664334"><ele>411.0</ele><time>2026-04-03T13:59:14.985Z</time></trkpt><trkpt lat="44.656798147909875" lon="10.086495897528176"><ele>415.0</ele><time>2026-04-03T13:59:15.985Z</time></trkpt><trkpt lat="44.65675789577711" lon="10.086301004828378"><ele>419.0</ele><time>2026-04-03T13:59:16.985Z</time></trkpt><trkpt lat="44.65671976609591" lon="10.08614692694217"><ele>419.0</ele><time>2026-04-03T13:59:17.985Z</time></trkpt><trkpt lat="44.656666400633505" lon="10.086028139781984"><ele>419.0</ele><time>2026-04-03T13:59:18.985Z</time></trkpt><trkpt lat="44.65657471356416" lon="10.08596066173917"><ele>419.0</ele><time>2026-04-03T13:59:19.985Z</time></trkpt><trkpt lat="44.65645648440041" lon="10.085923989881596"><ele>419.0</ele><time>2026-04-03T13:59:20.985Z</time></trkpt><trkpt lat="44.65632067903477" lon="10.085919455638585"><ele>419.0</ele><time>2026-04-03T13:59:21.985Z</time></trkpt><trkpt lat="44.65616824933758" lon="10.085912252849404"><ele>419.0</ele><time>2026-04-03T13:59:22.985Z</time></trkpt><trkpt lat="44.65602574807895" lon="10.085890260819482"><ele>419.0</ele><time>2026-04-03T13:59:23.985Z</time></trkpt><trkpt lat="44.65591020360289" lon="10.085852255068124"><ele>419.0</ele><time>2026-04-03T13:59:24.985Z</time></trkpt><trkpt lat="44.65582466048118" lon="10.085781398479503"><ele>422.2</ele><time>2026-04-03T13:59:25.985Z</time></trkpt><trkpt lat="44.65576937499589" lon="10.085686037628388"><ele>425.4</ele><time>2026-04-03T13:59:26.985Z</time></trkpt><trkpt lat="44.655732294588944" lon="10.085557857932699"><ele>428.6</ele><time>2026-04-03T13:59:27.985Z</time></trkpt><trkpt lat="44.655713671931785" lon="10.085400988436877"><ele>431.8</ele><time>2026-04-03T13:59:28.985Z</time></trkpt><trkpt lat="44.65569979367229" lon="10.085217457698967"><ele>435.0</ele><time>2026-04-03T13:59:29.985Z</time></trkpt><trkpt lat="44.65569534404773" lon="10.085027928602807"><ele>434.25</ele><time>2026-04-03T13:59:30.985Z</time></trkpt><trkpt lat="44.655689798035155" lon="10.084817538871203"><ele>433.5</ele><time>2026-04-03T13:59:31.985Z</time></trkpt><trkpt lat="44.65570256323984" lon="10.084598629914563"><ele>432.75</ele><time>2026-04-03T13:59:32.985Z</time></trkpt><trkpt lat="44.65570413977876" lon="10.08440281274734"><ele>432.0</ele><time>2026-04-03T13:59:33.985Z</time></trkpt><trkpt lat="44.655700042069796" lon="10.08426649976842"><ele>432.0</ele><time>2026-04-03T13:59:34.985Z</time></trkpt><trkpt lat="44.655670654703336" lon="10.08415067293278"><ele>432.00000000000006</ele><time>2026-04-03T13:59:35.985Z</time></trkpt><trkpt lat="44.655592137148055" lon="10.084069389116436"><ele>432.00000000000006</ele><time>2026-04-03T13:59:36.985Z</time></trkpt><trkpt lat="44.65548064481491" lon="10.0840097796964"><ele>432.0</ele><time>2026-04-03T13:59:37.985Z</time></trkpt><trkpt lat="44.65534874866603" lon="10.08401818887164"><ele>432.0</ele><time>2026-04-03T13:59:38.985Z</time></trkpt><trkpt lat="44.655217269169135" lon="10.084056544341072"><ele>431.75</ele><time>2026-04-03T13:59:39.985Z</time></trkpt><trkpt lat="44.6550706597275" lon="10.084067269887603"><ele>431.5</ele><time>2026-04-03T13:59:40.985Z</time></trkpt><trkpt lat="44.654925889676726" lon="10.084057820656735"><ele>431.25</ele><time>2026-04-03T13:59:41.985Z</time></trkpt><trkpt lat="44.65479975503015" lon="10.083984017390009"><ele>431.0</ele><time>2026-04-03T13:59:42.985Z</time></trkpt><trkpt lat="44.65469035141351" lon="10.083871135594713"><ele>431.0</ele><time>2026-04-03T13:59:43.985Z</time></trkpt><trkpt lat="44.65460290629142" lon="10.083735845891727"><ele>431.0</ele><time>2026-04-03T13:59:44.985Z</time></trkpt><trkpt lat="44.65451033440323" lon="10.083607817790043"><ele>431.0</ele><time>2026-04-03T13:59:45.985Z</time></trkpt><trkpt lat="44.65440776263643" lon="10.08349668109323"><ele>431.0</ele><time>2026-04-03T13:59:46.985Z</time></trkpt><trkpt lat="44.65427379963603" lon="10.083429219265078"><ele>432.0</ele><time>2026-04-03T13:59:47.985Z</time></trkpt><trkpt lat="44.654125105765836" lon="10.083370126438682"><ele>433.0</ele><time>2026-04-03T13:59:48.985Z</time></trkpt><trkpt lat="44.65395393362456" lon="10.083311874476346"><ele>434.0</ele><time>2026-04-03T13:59:49.985Z</time></trkpt><trkpt lat="44.65378131853383" lon="10.083209234958906"><ele>434.0</ele><time>2026-04-03T13:59:50.985Z</time></trkpt><trkpt lat="44.65362277212422" lon="10.083090554055238"><ele>434.0</ele><time>2026-04-03T13:59:51.985Z</time></trkpt><trkpt lat="44.65348447508949" lon="10.082975536256166"><ele>434.0</ele><time>2026-04-03T13:59:52.985Z</time></trkpt><trkpt lat="44.65335691477272" lon="10.082887048139362"><ele>438.0</ele><time>2026-04-03T13:59:53.985Z</time></trkpt><trkpt lat="44.65322083330641" lon="10.08283087706461"><ele>442.0</ele><time>2026-04-03T13:59:54.985Z</time></trkpt><trkpt lat="44.65306918488917" lon="10.082822019640407"><ele>446.0</ele><time>2026-04-03T13:59:55.985Z</time></trkpt><trkpt lat="44.652915271086925" lon="10.08286459204261"><ele>448.75</ele><time>2026-04-03T13:59:56.985Z</time></trkpt><trkpt lat="44.65276579865232" lon="10.08289555873702"><ele>451.5</ele><time>2026-04-03T13:59:57.985Z</time></trkpt><trkpt lat="44.65263184237698" lon="10.082859624524966"><ele>454.25</ele><time>2026-04-03T13:59:58.985Z</time></trkpt><trkpt lat="44.652515384385765" lon="10.08280619302151"><ele>457.0</ele><time>2026-04-03T13:59:59.985Z</time></trkpt><trkpt lat="44.65241890640782" lon="10.082735955323388"><ele>457.0</ele><time>2026-04-03T14:00:00.985Z</time></trkpt><trkpt lat="44.6523510571252" lon="10.082638702788271"><ele>457.0</ele><time>2026-04-03T14:00:01.984Z</time></trkpt><trkpt lat="44.652307511324004" lon="10.082484263725217"><ele>457.0</ele><time>2026-04-03T14:00:02.983Z</time></trkpt><trkpt lat="44.65226125618864" lon="10.082310079963513"><ele>457.0</ele><time>2026-04-03T14:00:03.983Z</time></trkpt><trkpt lat="44.652220494994836" lon="10.082143506253038"><ele>458.6666666666667</ele><time>2026-04-03T14:00:04.984Z</time></trkpt><trkpt lat="44.652123421507234" lon="10.08199454096966"><ele>460.33333333333337</ele><time>2026-04-03T14:00:05.984Z</time></trkpt><trkpt lat="44.65200185392542" lon="10.081862790367698"><ele>462.0</ele><time>2026-04-03T14:00:06.984Z</time></trkpt><trkpt lat="44.651859604165146" lon="10.081762565014312"><ele>462.0</ele><time>2026-04-03T14:00:07.984Z</time></trkpt><trkpt lat="44.651708765295986" lon="10.081700433203208"><ele>462.0</ele><time>2026-04-03T14:00:08.983Z</time></trkpt><trkpt lat="44.651539919119756" lon="10.081660415982748"><ele>462.0</ele><time>2026-04-03T14:00:09.983Z</time></trkpt><trkpt lat="44.65134692623749" lon="10.081632114942309"><ele>462.0</ele><time>2026-04-03T14:00:10.984Z</time></trkpt><trkpt lat="44.651133110534225" lon="10.081620187174616"><ele>462.0</ele><time>2026-04-03T14:00:11.984Z</time></trkpt><trkpt lat="44.65092662063858" lon="10.08160484712977"><ele>462.0</ele><time>2026-04-03T14:00:12.984Z</time></trkpt><trkpt lat="44.6507524715384" lon="10.081577776504826"><ele>461.0</ele><time>2026-04-03T14:00:13.984Z</time></trkpt><trkpt lat="44.65059698220889" lon="10.081539463826752"><ele>460.0</ele><time>2026-04-03T14:00:14.984Z</time></trkpt><trkpt lat="44.65044710977954" lon="10.081462801637334"><ele>459.0</ele><time>2026-04-03T14:00:15.984Z</time></trkpt><trkpt lat="44.65029646109921" lon="10.08133373440565"><ele>463.66666666666663</ele><time>2026-04-03T14:00:16.984Z</time></trkpt><trkpt lat="44.65015405067473" lon="10.08119167231398"><ele>468.3333333333333</ele><time>2026-04-03T14:00:17.984Z</time></trkpt><trkpt lat="44.65001410815323" lon="10.081073845832691"><ele>473.0</ele><time>2026-04-03T14:00:18.984Z</time></trkpt><trkpt lat="44.6498588727612" lon="10.081003711023133"><ele>473.0</ele><time>2026-04-03T14:00:19.984Z</time></trkpt><trkpt lat="44.6496844424037" lon="10.08096973346653"><ele>473.0</ele><time>2026-04-03T14:00:20.984Z</time></trkpt><trkpt lat="44.64950521942336" lon="10.080934411936012"><ele>473.0</ele><time>2026-04-03T14:00:21.984Z</time></trkpt><trkpt lat="44.649345313981215" lon="10.080867805564921"><ele>475.75</ele><time>2026-04-03T14:00:22.984Z</time></trkpt><trkpt lat="44.64920924851145" lon="10.080805036392917"><ele>478.5</ele><time>2026-04-03T14:00:23.984Z</time></trkpt><trkpt lat="44.649087621543" lon="10.08077562599752"><ele>481.25</ele><time>2026-04-03T14:00:24.984Z</time></trkpt><trkpt lat="44.648967168261564" lon="10.080826208096385"><ele>484.0</ele><time>2026-04-03T14:00:25.984Z</time></trkpt><trkpt lat="44.64883635824733" lon="10.080943331809147"><ele>484.0</ele><time>2026-04-03T14:00:26.984Z</time></trkpt><trkpt lat="44.64871601206992" lon="10.081096853574849"><ele>484.0</ele><time>2026-04-03T14:00:27.984Z</time></trkpt><trkpt lat="44.648595151771" lon="10.081269978962398"><ele>484.0</ele><time>2026-04-03T14:00:28.984Z</time></trkpt><trkpt lat="44.64846041951924" lon="10.0814418998596"><ele>487.33333333333337</ele><time>2026-04-03T14:00:29.984Z</time></trkpt><trkpt lat="44.64833327512969" lon="10.081611974126872"><ele>490.66666666666663</ele><time>2026-04-03T14:00:30.984Z</time></trkpt><trkpt lat="44.6482062734061" lon="10.081767417720163"><ele>494.0</ele><time>2026-04-03T14:00:31.984Z</time></trkpt><trkpt lat="44.648105347264554" lon="10.081902541261709"><ele>494.0</ele><time>2026-04-03T14:00:32.984Z</time></trkpt><trkpt lat="44.6480162848902" lon="10.082019007311054"><ele>494.0</ele><time>2026-04-03T14:00:33.984Z</time></trkpt><trkpt lat="44.64793858180628" lon="10.08211913552438"><ele>494.0</ele><time>2026-04-03T14:00:34.984Z</time></trkpt><trkpt lat="44.64786048909575" lon="10.082182910864198"><ele>494.0</ele><time>2026-04-03T14:00:35.984Z</time></trkpt><trkpt lat="44.647769066062445" lon="10.082193062144983"><ele>494.0</ele><time>2026-04-03T14:00:36.984Z</time></trkpt><trkpt lat="44.64766851589227" lon="10.082160068631062"><ele>492.0</ele><time>2026-04-03T14:00:37.984Z</time></trkpt><trkpt lat="44.64757085817211" lon="10.082060296775973"><ele>490.0</ele><time>2026-04-03T14:00:38.984Z</time></trkpt><trkpt lat="44.64748180900657" lon="10.081917226778536"><ele>488.0</ele><time>2026-04-03T14:00:39.984Z</time></trkpt><trkpt lat="44.6474022312252" lon="10.081744541556859"><ele>486.0</ele><time>2026-04-03T14:00:40.984Z</time></trkpt><trkpt lat="44.64732936137486" lon="10.081564207885496"><ele>486.0</ele><time>2026-04-03T14:00:41.984Z</time></trkpt><trkpt lat="44.64726980193661" lon="10.081380857430304"><ele>486.0</ele><time>2026-04-03T14:00:42.984Z</time></trkpt><trkpt lat="44.64719691529052" lon="10.081229755350286"><ele>486.0</ele><time>2026-04-03T14:00:43.984Z</time></trkpt><trkpt lat="44.64708704912925" lon="10.081065013588518"><ele>486.0</ele><time>2026-04-03T14:00:44.984Z</time></trkpt><trkpt lat="44.64698744226103" lon="10.080909598373676"><ele>488.66666666666663</ele><time>2026-04-03T14:00:45.984Z</time></trkpt><trkpt lat="44.64688508129832" lon="10.08076367624682"><ele>491.3333333333333</ele><time>2026-04-03T14:00:46.984Z</time></trkpt><trkpt lat="44.646760664709745" lon="10.080636798976537"><ele>494.0</ele><time>2026-04-03T14:00:47.984Z</time></trkpt><trkpt lat="44.646621459380256" lon="10.08052305813949"><ele>494.0</ele><time>2026-04-03T14:00:48.984Z</time></trkpt><trkpt lat="44.64646675279452" lon="10.080416515971336"><ele>494.0</ele><time>2026-04-03T14:00:49.984Z</time></trkpt><trkpt lat="44.64626795572843" lon="10.080283696491575"><ele>494.0</ele><time>2026-04-03T14:00:50.984Z</time></trkpt><trkpt lat="44.64606871412474" lon="10.08014969150597"><ele>495.66666666666663</ele><time>2026-04-03T14:00:51.984Z</time></trkpt><trkpt lat="44.645871313750646" lon="10.080012279760684"><ele>497.33333333333337</ele><time>2026-04-03T14:00:52.984Z</time></trkpt><trkpt lat="44.64566293047473" lon="10.079878031989118"><ele>499.0</ele><time>2026-04-03T14:00:53.984Z</time></trkpt><trkpt lat="44.64543706598476" lon="10.079759922544053"><ele>505.6666666666667</ele><time>2026-04-03T14:00:54.984Z</time></trkpt><trkpt lat="44.645210775128646" lon="10.07965922615418"><ele>512.3333333333334</ele><time>2026-04-03T14:00:55.984Z</time></trkpt><trkpt lat="44.64501117322971" lon="10.079572892653777"><ele>519.0</ele><time>2026-04-03T14:00:56.984Z</time></trkpt><trkpt lat="44.64483853747085" lon="10.07949134907897"><ele>519.0</ele><time>2026-04-03T14:00:57.984Z</time></trkpt><trkpt lat="44.644690249310706" lon="10.07941744711947"><ele>519.0</ele><time>2026-04-03T14:00:58.984Z</time></trkpt><trkpt lat="44.644560201060884" lon="10.07933674865096"><ele>519.0</ele><time>2026-04-03T14:00:59.984Z</time></trkpt><trkpt lat="44.644443703882146" lon="10.079229544301498"><ele>519.0</ele><time>2026-04-03T14:01:00.984Z</time></trkpt><trkpt lat="44.64435022116072" lon="10.07907878623328"><ele>526.6666666666666</ele><time>2026-04-03T14:01:01.984Z</time></trkpt><trkpt lat="44.64429875922867" lon="10.078891019549381"><ele>534.3333333333333</ele><time>2026-04-03T14:01:02.984Z</time></trkpt><trkpt lat="44.64428086338235" lon="10.07867993127012"><ele>542.0</ele><time>2026-04-03T14:01:03.984Z</time></trkpt><trkpt lat="44.64429752786926" lon="10.078457850452756"><ele>541.25</ele><time>2026-04-03T14:01:04.984Z</time></trkpt><trkpt lat="44.644306059235674" lon="10.078247453467116"><ele>540.5</ele><time>2026-04-03T14:01:05.984Z</time></trkpt><trkpt lat="44.644306104868186" lon="10.078058538134007"><ele>539.75</ele><time>2026-04-03T14:01:06.984Z</time></trkpt><trkpt lat="44.64430107757084" lon="10.077889744268314"><ele>539.0</ele><time>2026-04-03T14:01:07.984Z</time></trkpt><trkpt lat="44.64427367170646" lon="10.077741809914619"><ele>539.0</ele><time>2026-04-03T14:01:08.984Z</time></trkpt><trkpt lat="44.64421136993725" lon="10.07760690348678"><ele>539.0</ele><time>2026-04-03T14:01:09.984Z</time></trkpt><trkpt lat="44.644094020729646" lon="10.077508932712595"><ele>539.0</ele><time>2026-04-03T14:01:10.984Z</time></trkpt><trkpt lat="44.64395408293041" lon="10.07744457341994"><ele>539.0</ele><time>2026-04-03T14:01:11.984Z</time></trkpt><trkpt lat="44.643806352873305" lon="10.077391955397127"><ele>538.5</ele><time>2026-04-03T14:01:12.984Z</time></trkpt><trkpt lat="44.64367388068366" lon="10.077329191929193"><ele>538.0</ele><time>2026-04-03T14:01:13.984Z</time></trkpt><trkpt lat="44.64355723058464" lon="10.077279722808427"><ele>537.5</ele><time>2026-04-03T14:01:14.984Z</time></trkpt><trkpt lat="44.643445991009564" lon="10.077259820660112"><ele>537.0</ele><time>2026-04-03T14:01:15.984Z</time></trkpt><trkpt lat="44.64335370732184" lon="10.077316376435704"><ele>537.0</ele><time>2026-04-03T14:01:16.984Z</time></trkpt><trkpt lat="44.643274337082694" lon="10.077424011479831"><ele>537.0</ele><time>2026-04-03T14:01:17.984Z</time></trkpt><trkpt lat="44.64320580750382" lon="10.077585418361197"><ele>537.0</ele><time>2026-04-03T14:01:18.984Z</time></trkpt><trkpt lat="44.64313128225494" lon="10.077757210166453"><ele>537.0</ele><time>2026-04-03T14:01:19.984Z</time></trkpt><trkpt lat="44.643050634896554" lon="10.077918135473872"><ele>539.5</ele><time>2026-04-03T14:01:20.984Z</time></trkpt><trkpt lat="44.642967467988136" lon="10.078064170438862"><ele>542.0</ele><time>2026-04-03T14:01:21.984Z</time></trkpt><trkpt lat="44.64286250901289" lon="10.078192264524217"><ele>544.5</ele><time>2026-04-03T14:01:22.984Z</time></trkpt><trkpt lat="44.64274024557959" lon="10.078299166816892"><ele>547.0</ele><time>2026-04-03T14:01:23.984Z</time></trkpt><trkpt lat="44.642604413070806" lon="10.078369540141264"><ele>550.25</ele><time>2026-04-03T14:01:24.984Z</time></trkpt><trkpt lat="44.64246703782281" lon="10.078402857655616"><ele>553.5</ele><time>2026-04-03T14:01:25.984Z</time></trkpt><trkpt lat="44.642320174143215" lon="10.078396069322338"><ele>556.75</ele><time>2026-04-03T14:01:26.984Z</time></trkpt><trkpt lat="44.64217603381873" lon="10.078343832055948"><ele>560.0</ele><time>2026-04-03T14:01:27.984Z</time></trkpt><trkpt lat="44.64203835210203" lon="10.078280382421301"><ele>559.0</ele><time>2026-04-03T14:01:28.984Z</time></trkpt><trkpt lat="44.641894046642186" lon="10.078211698162882"><ele>558.0</ele><time>2026-04-03T14:01:29.984Z</time></trkpt><trkpt lat="44.64175722256419" lon="10.078149779586818"><ele>557.0</ele><time>2026-04-03T14:01:30.984Z</time></trkpt><trkpt lat="44.64163965542018" lon="10.078100304628633"><ele>556.0</ele><time>2026-04-03T14:01:31.984Z</time></trkpt><trkpt lat="44.64153392362159" lon="10.078092906040977"><ele>556.0</ele><time>2026-04-03T14:01:32.984Z</time></trkpt><trkpt lat="44.641420818098" lon="10.078160666701615"><ele>556.0</ele><time>2026-04-03T14:01:33.984Z</time></trkpt><trkpt lat="44.64130333752876" lon="10.078279722238308"><ele>556.0</ele><time>2026-04-03T14:01:34.984Z</time></trkpt><trkpt lat="44.64116802671285" lon="10.078423831445905"><ele>556.0</ele><time>2026-04-03T14:01:35.984Z</time></trkpt><trkpt lat="44.64101160842526" lon="10.078574975870078"><ele>560.0</ele><time>2026-04-03T14:01:36.984Z</time></trkpt><trkpt lat="44.640845775583834" lon="10.078722797460944"><ele>564.0</ele><time>2026-04-03T14:01:37.984Z</time></trkpt><trkpt lat="44.640694568834476" lon="10.0788594937838"><ele>568.0</ele><time>2026-04-03T14:01:38.984Z</time></trkpt><trkpt lat="44.640558707845415" lon="10.078982737658764"><ele>568.0</ele><time>2026-04-03T14:01:39.984Z</time></trkpt><trkpt lat="44.64043335907708" lon="10.079098675350577"><ele>568.0</ele><time>2026-04-03T14:01:40.984Z</time></trkpt><trkpt lat="44.64031210823729" lon="10.079195009181197"><ele>568.0</ele><time>2026-04-03T14:01:41.984Z</time></trkpt><trkpt lat="44.64016821905297" lon="10.079247482055862"><ele>568.0</ele><time>2026-04-03T14:01:42.984Z</time></trkpt><trkpt lat="44.64000512886113" lon="10.07925575720161"><ele>571.3333333333334</ele><time>2026-04-03T14:01:43.984Z</time></trkpt><trkpt lat="44.63982770601359" lon="10.079243356992531"><ele>574.6666666666666</ele><time>2026-04-03T14:01:44.984Z</time></trkpt><trkpt lat="44.63964329736434" lon="10.079223174836613"><ele>578.0</ele><time>2026-04-03T14:01:45.984Z</time></trkpt><trkpt lat="44.639446348541384" lon="10.079204892098481"><ele>579.0</ele><time>2026-04-03T14:01:46.984Z</time></trkpt><trkpt lat="44.63925495203767" lon="10.079193228335312"><ele>580.0</ele><time>2026-04-03T14:01:47.984Z</time></trkpt><trkpt lat="44.63907169419138" lon="10.07918872654205"><ele>581.0</ele><time>2026-04-03T14:01:48.984Z</time></trkpt><trkpt lat="44.638895162821946" lon="10.079197359166702"><ele>581.0</ele><time>2026-04-03T14:01:49.984Z</time></trkpt><trkpt lat="44.638714080099504" lon="10.079226874145345"><ele>581.0</ele><time>2026-04-03T14:01:50.984Z</time></trkpt><trkpt lat="44.638523972977836" lon="10.07926103549426"><ele>581.0</ele><time>2026-04-03T14:01:51.984Z</time></trkpt><trkpt lat="44.638334280429355" lon="10.079310441701844"><ele>580.6666666666666</ele><time>2026-04-03T14:01:52.984Z</time></trkpt><trkpt lat="44.63813687018617" lon="10.079357198297414"><ele>580.3333333333334</ele><time>2026-04-03T14:01:53.984Z</time></trkpt><trkpt lat="44.637927128143325" lon="10.079402776473238"><ele>580.0</ele><time>2026-04-03T14:01:54.984Z</time></trkpt><trkpt lat="44.637706539976804" lon="10.079455905409784"><ele>580.6666666666667</ele><time>2026-04-03T14:01:55.984Z</time></trkpt><trkpt lat="44.637491081167376" lon="10.079510492894219"><ele>581.3333333333334</ele><time>2026-04-03T14:01:56.984Z</time></trkpt><trkpt lat="44.6372997441092" lon="10.079552971611603"><ele>582.0</ele><time>2026-04-03T14:01:57.984Z</time></trkpt><trkpt lat="44.63711714648573" lon="10.079582531075458"><ele>581.3333333333334</ele><time>2026-04-03T14:01:58.984Z</time></trkpt><trkpt lat="44.63693555463928" lon="10.079594159652473"><ele>580.6666666666667</ele><time>2026-04-03T14:01:59.984Z</time></trkpt><trkpt lat="44.63674453603002" lon="10.079568385375676"><ele>580.0</ele><time>2026-04-03T14:02:00.984Z</time></trkpt><trkpt lat="44.63654771288194" lon="10.079508163141252"><ele>580.0</ele><time>2026-04-03T14:02:01.984Z</time></trkpt><trkpt lat="44.63635577846082" lon="10.079449979893422"><ele>580.0</ele><time>2026-04-03T14:02:02.984Z</time></trkpt><trkpt lat="44.63615909647573" lon="10.079400983776688"><ele>580.0</ele><time>2026-04-03T14:02:03.984Z</time></trkpt><trkpt lat="44.63596591075366" lon="10.079340731919643"><ele>582.0</ele><time>2026-04-03T14:02:04.984Z</time></trkpt><trkpt lat="44.63578040375786" lon="10.079259016125597"><ele>584.0</ele><time>2026-04-03T14:02:05.984Z</time></trkpt><trkpt lat="44.63560676797832" lon="10.079158569577407"><ele>586.0</ele><time>2026-04-03T14:02:06.984Z</time></trkpt><trkpt lat="44.63545291878661" lon="10.079043476075128"><ele>585.25</ele><time>2026-04-03T14:02:07.983Z</time></trkpt><trkpt lat="44.63532351516338" lon="10.078917646233185"><ele>584.5</ele><time>2026-04-03T14:02:08.983Z</time></trkpt><trkpt lat="44.63520062285338" lon="10.07881906482936"><ele>583.75</ele><time>2026-04-03T14:02:09.983Z</time></trkpt><trkpt lat="44.63507551738152" lon="10.078754345848504"><ele>583.0</ele><time>2026-04-03T14:02:10.982Z</time></trkpt><trkpt lat="44.63493800637246" lon="10.078714103709192"><ele>583.0</ele><time>2026-04-03T14:02:11.982Z</time></trkpt><trkpt lat="44.63479270453963" lon="10.078691461083562"><ele>583.0</ele><time>2026-04-03T14:02:12.982Z</time></trkpt><trkpt lat="44.63464005437204" lon="10.078712180048727"><ele>583.0</ele><time>2026-04-03T14:02:13.983Z</time></trkpt><trkpt lat="44.63447288707069" lon="10.078756876460103"><ele>584.0</ele><time>2026-04-03T14:02:14.983Z</time></trkpt><trkpt lat="44.63431346317644" lon="10.078793605618742"><ele>585.0</ele><time>2026-04-03T14:02:15.983Z</time></trkpt><trkpt lat="44.63415749684797" lon="10.078816178433089"><ele>586.0</ele><time>2026-04-03T14:02:16.982Z</time></trkpt><trkpt lat="44.63399905873962" lon="10.078835625228118"><ele>586.0</ele><time>2026-04-03T14:02:17.982Z</time></trkpt><trkpt lat="44.633836604493645" lon="10.078854983457681"><ele>586.0</ele><time>2026-04-03T14:02:18.982Z</time></trkpt><trkpt lat="44.63367479785472" lon="10.078874249121482"><ele>586.0</ele><time>2026-04-03T14:02:19.983Z</time></trkpt><trkpt lat="44.633509465481126" lon="10.078897710261149"><ele>586.6666666666667</ele><time>2026-04-03T14:02:20.982Z</time></trkpt><trkpt lat="44.63334453762055" lon="10.078924977708583"><ele>587.3333333333334</ele><time>2026-04-03T14:02:21.982Z</time></trkpt><trkpt lat="44.63317685868333" lon="10.078954046604778"><ele>588.0</ele><time>2026-04-03T14:02:22.982Z</time></trkpt><trkpt lat="44.63300944942818" lon="10.078978502132173"><ele>588.0</ele><time>2026-04-03T14:02:23.982Z</time></trkpt><trkpt lat="44.632842795030136" lon="10.078999436044482"><ele>588.0</ele><time>2026-04-03T14:02:24.982Z</time></trkpt><trkpt lat="44.63267974762027" lon="10.079024476983813"><ele>588.0</ele><time>2026-04-03T14:02:25.982Z</time></trkpt><trkpt lat="44.632516539261324" lon="10.07904333614067"><ele>589.3333333333334</ele><time>2026-04-03T14:02:26.982Z</time></trkpt><trkpt lat="44.63235643265707" lon="10.079063051114414"><ele>590.6666666666667</ele><time>2026-04-03T14:02:27.982Z</time></trkpt><trkpt lat="44.63220108972718" lon="10.079085256223674"><ele>592.0</ele><time>2026-04-03T14:02:28.982Z</time></trkpt><trkpt lat="44.632051868140906" lon="10.079108735753852"><ele>592.75</ele><time>2026-04-03T14:02:29.982Z</time></trkpt><trkpt lat="44.631914127099066" lon="10.079127006754613"><ele>593.5</ele><time>2026-04-03T14:02:30.982Z</time></trkpt><trkpt lat="44.631785905690954" lon="10.079135530029593"><ele>594.25</ele><time>2026-04-03T14:02:31.982Z</time></trkpt><trkpt lat="44.63165533668521" lon="10.079105879633623"><ele>595.0</ele><time>2026-04-03T14:02:32.982Z</time></trkpt><trkpt lat="44.63152238122726" lon="10.07901086724563"><ele>597.0</ele><time>2026-04-03T14:02:33.982Z</time></trkpt><trkpt lat="44.6314039437703" lon="10.07886187301075"><ele>599.0</ele><time>2026-04-03T14:02:34.982Z</time></trkpt><trkpt lat="44.631292117251874" lon="10.078686339812641"><ele>601.0</ele><time>2026-04-03T14:02:35.982Z</time></trkpt><trkpt lat="44.6311853362217" lon="10.07851455385031"><ele>602.0</ele><time>2026-04-03T14:02:36.982Z</time></trkpt><trkpt lat="44.6310827254279" lon="10.078373884627426"><ele>603.0</ele><time>2026-04-03T14:02:37.982Z</time></trkpt><trkpt lat="44.63097965301462" lon="10.078271435465393"><ele>604.0</ele><time>2026-04-03T14:02:38.982Z</time></trkpt><trkpt lat="44.630860646413105" lon="10.078199532816365"><ele>605.0</ele><time>2026-04-03T14:02:39.982Z</time></trkpt><trkpt lat="44.63072705935828" lon="10.078184576118273"><ele>605.0</ele><time>2026-04-03T14:02:40.982Z</time></trkpt><trkpt lat="44.630592198649246" lon="10.078229794399665"><ele>605.0</ele><time>2026-04-03T14:02:41.982Z</time></trkpt><trkpt lat="44.630460576247344" lon="10.07832277820347"><ele>605.0</ele><time>2026-04-03T14:02:42.982Z</time></trkpt><trkpt lat="44.63033739934564" lon="10.078461621208998"><ele>605.0</ele><time>2026-04-03T14:02:43.982Z</time></trkpt><trkpt lat="44.63023044598451" lon="10.078614768835187"><ele>604.75</ele><time>2026-04-03T14:02:44.982Z</time></trkpt><trkpt lat="44.6301499112909" lon="10.078771785464182"><ele>604.5</ele><time>2026-04-03T14:02:45.982Z</time></trkpt><trkpt lat="44.630075250717596" lon="10.078912253407069"><ele>604.25</ele><time>2026-04-03T14:02:46.982Z</time></trkpt><trkpt lat="44.629985047573015" lon="10.07902594899767"><ele>604.0</ele><time>2026-04-03T14:02:47.982Z</time></trkpt><trkpt lat="44.62986149454869" lon="10.079106164220567"><ele>604.0</ele><time>2026-04-03T14:02:48.982Z</time></trkpt><trkpt lat="44.629713916657565" lon="10.0791371367836"><ele>604.0</ele><time>2026-04-03T14:02:49.982Z</time></trkpt><trkpt lat="44.62955333304356" lon="10.079126057951596"><ele>604.0</ele><time>2026-04-03T14:02:50.982Z</time></trkpt><trkpt lat="44.62939479166951" lon="10.079107606979129"><ele>606.25</ele><time>2026-04-03T14:02:51.982Z</time></trkpt><trkpt lat="44.62924317286921" lon="10.07908210613364"><ele>608.5</ele><time>2026-04-03T14:02:52.982Z</time></trkpt><trkpt lat="44.62910972198943" lon="10.079080005050253"><ele>610.75</ele><time>2026-04-03T14:02:53.982Z</time></trkpt><trkpt lat="44.6289922604816" lon="10.079100671241637"><ele>613.0</ele><time>2026-04-03T14:02:54.982Z</time></trkpt><trkpt lat="44.62888429162233" lon="10.079162515010466"><ele>613.0</ele><time>2026-04-03T14:02:55.982Z</time></trkpt><trkpt lat="44.62879539902677" lon="10.07928213409037"><ele>613.0</ele><time>2026-04-03T14:02:56.982Z</time></trkpt><trkpt lat="44.62874269362705" lon="10.079441258907481"><ele>613.0</ele><time>2026-04-03T14:02:57.982Z</time></trkpt><trkpt lat="44.628724754265136" lon="10.079629219085483"><ele>613.0</ele><time>2026-04-03T14:02:58.982Z</time></trkpt><trkpt lat="44.62872170710816" lon="10.079800952574448"><ele>614.1999999999999</ele><time>2026-04-03T14:02:59.982Z</time></trkpt><trkpt lat="44.62869425836094" lon="10.079953302581607"><ele>615.4</ele><time>2026-04-03T14:03:00.982Z</time></trkpt><trkpt lat="44.628627203009025" lon="10.080062782747673"><ele>616.5999999999999</ele><time>2026-04-03T14:03:01.982Z</time></trkpt><trkpt lat="44.62853231825313" lon="10.080118620553248"><ele>617.8</ele><time>2026-04-03T14:03:02.982Z</time></trkpt><trkpt lat="44.62842315746746" lon="10.08011868698786"><ele>619.0</ele><time>2026-04-03T14:03:03.982Z</time></trkpt><trkpt lat="44.62831884210165" lon="10.080044181860748"><ele>621.25</ele><time>2026-04-03T14:03:04.982Z</time></trkpt><trkpt lat="44.62823485580207" lon="10.079902188714977"><ele>623.5</ele><time>2026-04-03T14:03:05.982Z</time></trkpt><trkpt lat="44.628162352172325" lon="10.079747987203548"><ele>625.75</ele><time>2026-04-03T14:03:06.982Z</time></trkpt><trkpt lat="44.62806664095973" lon="10.079632419521786"><ele>628.0</ele><time>2026-04-03T14:03:07.982Z</time></trkpt><trkpt lat="44.62793745352147" lon="10.07957471016178"><ele>629.6666666666667</ele><time>2026-04-03T14:03:08.982Z</time></trkpt><trkpt lat="44.62777820167308" lon="10.07955611107391"><ele>631.3333333333334</ele><time>2026-04-03T14:03:09.982Z</time></trkpt><trkpt lat="44.627612216612775" lon="10.079553116156218"><ele>633.0</ele><time>2026-04-03T14:03:10.982Z</time></trkpt><trkpt lat="44.62745195572614" lon="10.079543748309064"><ele>633.0</ele><time>2026-04-03T14:03:11.982Z</time></trkpt><trkpt lat="44.62730344848451" lon="10.07949974352974"><ele>633.0</ele><time>2026-04-03T14:03:12.982Z</time></trkpt><trkpt lat="44.62716932243844" lon="10.07940105724626"><ele>633.0</ele><time>2026-04-03T14:03:13.982Z</time></trkpt><trkpt lat="44.62704138944537" lon="10.079260639677237"><ele>634.0</ele><time>2026-04-03T14:03:14.982Z</time></trkpt><trkpt lat="44.62691067390423" lon="10.07910881534539"><ele>635.0</ele><time>2026-04-03T14:03:15.982Z</time></trkpt><trkpt lat="44.626772505985684" lon="10.078958236940302"><ele>636.0</ele><time>2026-04-03T14:03:16.982Z</time></trkpt><trkpt lat="44.62662225005939" lon="10.078817657299693"><ele>636.0</ele><time>2026-04-03T14:03:17.982Z</time></trkpt><trkpt lat="44.626488430588886" lon="10.078682507328859"><ele>636.0</ele><time>2026-04-03T14:03:18.982Z</time></trkpt><trkpt lat="44.62636406460625" lon="10.0785649381726"><ele>636.0</ele><time>2026-04-03T14:03:19.982Z</time></trkpt><trkpt lat="44.62624495996434" lon="10.078473354570257"><ele>635.25</ele><time>2026-04-03T14:03:20.982Z</time></trkpt><trkpt lat="44.62611813480083" lon="10.078413167962161"><ele>634.5</ele><time>2026-04-03T14:03:21.982Z</time></trkpt><trkpt lat="44.625984428979066" lon="10.078376800852595"><ele>633.75</ele><time>2026-04-03T14:03:22.982Z</time></trkpt><trkpt lat="44.62584565122121" lon="10.078380468105578"><ele>633.0</ele><time>2026-04-03T14:03:23.982Z</time></trkpt><trkpt lat="44.62569670865634" lon="10.078435880866433"><ele>633.0</ele><time>2026-04-03T14:03:24.982Z</time></trkpt><trkpt lat="44.625552262817195" lon="10.078527533473688"><ele>633.0</ele><time>2026-04-03T14:03:25.982Z</time></trkpt><trkpt lat="44.625405261386355" lon="10.078641442712927"><ele>633.0</ele><time>2026-04-03T14:03:26.983Z</time></trkpt><trkpt lat="44.62524819856992" lon="10.078759225271268"><ele>636.3333333333334</ele><time>2026-04-03T14:03:27.983Z</time></trkpt><trkpt lat="44.62508261120577" lon="10.078862850772888"><ele>639.6666666666667</ele><time>2026-04-03T14:03:28.983Z</time></trkpt><trkpt lat="44.62492774231577" lon="10.078964346736164"><ele>643.0</ele><time>2026-04-03T14:03:29.983Z</time></trkpt><trkpt lat="44.62479582571778" lon="10.079050984872886"><ele>644.25</ele><time>2026-04-03T14:03:30.983Z</time></trkpt><trkpt lat="44.62468601123079" lon="10.079108862066422"><ele>645.5</ele><time>2026-04-03T14:03:31.983Z</time></trkpt><trkpt lat="44.624581980728045" lon="10.079123205169777"><ele>646.75</ele><time>2026-04-03T14:03:32.983Z</time></trkpt><trkpt lat="44.62446363243097" lon="10.079067882942594"><ele>648.0</ele><time>2026-04-03T14:03:33.983Z</time></trkpt><trkpt lat="44.62435070095738" lon="10.078954100890426"><ele>648.0</ele><time>2026-04-03T14:03:34.983Z</time></trkpt><trkpt lat="44.624242827115914" lon="10.078845087278086"><ele>648.0</ele><time>2026-04-03T14:03:35.983Z</time></trkpt><trkpt lat="44.62415999311702" lon="10.078722263573617"><ele>648.0</ele><time>2026-04-03T14:03:36.983Z</time></trkpt><trkpt lat="44.62411031446681" lon="10.078564272913015"><ele>648.0</ele><time>2026-04-03T14:03:37.983Z</time></trkpt><trkpt lat="44.62410058663128" lon="10.07837591459871"><ele>648.5</ele><time>2026-04-03T14:03:38.983Z</time></trkpt><trkpt lat="44.624100697375646" lon="10.078187727294624"><ele>649.0</ele><time>2026-04-03T14:03:39.983Z</time></trkpt><trkpt lat="44.62406857338795" lon="10.078015264491016"><ele>649.5</ele><time>2026-04-03T14:03:40.983Z</time></trkpt><trkpt lat="44.62399315076004" lon="10.077876078539196"><ele>650.0</ele><time>2026-04-03T14:03:41.983Z</time></trkpt><trkpt lat="44.623882005023184" lon="10.077742992191476"><ele>650.0</ele><time>2026-04-03T14:03:42.983Z</time></trkpt><trkpt lat="44.62377126570378" lon="10.07762114272282"><ele>650.0</ele><time>2026-04-03T14:03:43.983Z</time></trkpt><trkpt lat="44.62370095608547" lon="10.077494727736864"><ele>650.0</ele><time>2026-04-03T14:03:44.983Z</time></trkpt><trkpt lat="44.623672245854536" lon="10.077333377254213"><ele>650.0</ele><time>2026-04-03T14:03:45.983Z</time></trkpt><trkpt lat="44.62368123286266" lon="10.077148436620284"><ele>649.5</ele><time>2026-04-03T14:03:46.983Z</time></trkpt><trkpt lat="44.623691407439566" lon="10.076953477407317"><ele>649.0</ele><time>2026-04-03T14:03:47.983Z</time></trkpt><trkpt lat="44.62368933709348" lon="10.07676186260323"><ele>648.5</ele><time>2026-04-03T14:03:48.983Z</time></trkpt><trkpt lat="44.62365379504849" lon="10.076597031770364"><ele>648.0</ele><time>2026-04-03T14:03:49.983Z</time></trkpt><trkpt lat="44.62358244320988" lon="10.076464951978442"><ele>649.25</ele><time>2026-04-03T14:03:50.983Z</time></trkpt><trkpt lat="44.62348861193832" lon="10.076351548202823"><ele>650.5</ele><time>2026-04-03T14:03:51.983Z</time></trkpt><trkpt lat="44.62337461350654" lon="10.076250113047047"><ele>651.75</ele><time>2026-04-03T14:03:52.983Z</time></trkpt><trkpt lat="44.623244796996985" lon="10.076160408943391"><ele>653.0</ele><time>2026-04-03T14:03:53.983Z</time></trkpt><trkpt lat="44.623104962373716" lon="10.076084208291771"><ele>653.0</ele><time>2026-04-03T14:03:54.983Z</time></trkpt><trkpt lat="44.62295825951038" lon="10.076038918445633"><ele>653.0</ele><time>2026-04-03T14:03:55.983Z</time></trkpt><trkpt lat="44.62282015368632" lon="10.076027170904675"><ele>653.0</ele><time>2026-04-03T14:03:56.983Z</time></trkpt><trkpt lat="44.622690032963035" lon="10.076046655555679"><ele>653.0</ele><time>2026-04-03T14:03:57.983Z</time></trkpt><trkpt lat="44.6225670420224" lon="10.07610961433169"><ele>654.0</ele><time>2026-04-03T14:03:58.983Z</time></trkpt><trkpt lat="44.62246536063009" lon="10.076217087884888"><ele>655.0</ele><time>2026-04-03T14:03:59.983Z</time></trkpt><trkpt lat="44.622383129293034" lon="10.076343111273209"><ele>656.0</ele><time>2026-04-03T14:04:00.983Z</time></trkpt><trkpt lat="44.62230814527975" lon="10.076454838616629"><ele>657.0</ele><time>2026-04-03T14:04:01.983Z</time></trkpt><trkpt lat="44.62222030283029" lon="10.076510743415708"><ele>657.0</ele><time>2026-04-03T14:04:02.983Z</time></trkpt><trkpt lat="44.622127109379576" lon="10.076505455937257"><ele>657.0</ele><time>2026-04-03T14:04:03.983Z</time></trkpt><trkpt lat="44.62203220008447" lon="10.076433025108697"><ele>657.0</ele><time>2026-04-03T14:04:04.983Z</time></trkpt><trkpt lat="44.62195456533345" lon="10.076316175545733"><ele>657.0</ele><time>2026-04-03T14:04:05.983Z</time></trkpt><trkpt lat="44.621857510006144" lon="10.07618045382292"><ele>657.0</ele><time>2026-04-03T14:04:06.983Z</time></trkpt><trkpt lat="44.621746755297856" lon="10.076025929807026"><ele>657.0</ele><time>2026-04-03T14:04:07.983Z</time></trkpt><trkpt lat="44.6216228522237" lon="10.075858200373002"><ele>657.0</ele><time>2026-04-03T14:04:08.983Z</time></trkpt><trkpt lat="44.621500699874304" lon="10.075691673688029"><ele>657.0</ele><time>2026-04-03T14:04:09.983Z</time></trkpt><trkpt lat="44.62137045284513" lon="10.075511074446492"><ele>657.0</ele><time>2026-04-03T14:04:10.983Z</time></trkpt><trkpt lat="44.62123621566496" lon="10.075330572960098"><ele>657.0</ele><time>2026-04-03T14:04:11.983Z</time></trkpt><trkpt lat="44.62111501752783" lon="10.075160238716297"><ele>659.0</ele><time>2026-04-03T14:04:12.983Z</time></trkpt><trkpt lat="44.62101326092799" lon="10.074977259422678"><ele>661.0</ele><time>2026-04-03T14:04:13.981Z</time></trkpt><trkpt lat="44.62093172120617" lon="10.07477990330166"><ele>663.0</ele><time>2026-04-03T14:04:14.982Z</time></trkpt><trkpt lat="44.62085306087371" lon="10.074593677457116"><ele>663.0</ele><time>2026-04-03T14:04:15.982Z</time></trkpt><trkpt lat="44.62075808330074" lon="10.07443228099734"><ele>663.0</ele><time>2026-04-03T14:04:16.981Z</time></trkpt><trkpt lat="44.62063681578915" lon="10.07431432141417"><ele>663.0</ele><time>2026-04-03T14:04:17.982Z</time></trkpt><trkpt lat="44.62050337788745" lon="10.07423283629473"><ele>663.0</ele><time>2026-04-03T14:04:18.982Z</time></trkpt><trkpt lat="44.6203494586555" lon="10.074166299667498"><ele>666.5</ele><time>2026-04-03T14:04:19.981Z</time></trkpt><trkpt lat="44.62020272442483" lon="10.074084189299526"><ele>670.0</ele><time>2026-04-03T14:04:20.982Z</time></trkpt><trkpt lat="44.620079584764845" lon="10.073994293224303"><ele>673.5</ele><time>2026-04-03T14:04:21.982Z</time></trkpt><trkpt lat="44.619968913707325" lon="10.07386833830244"><ele>677.0</ele><time>2026-04-03T14:04:22.981Z</time></trkpt><trkpt lat="44.61988341602151" lon="10.073703573479794"><ele>677.0</ele><time>2026-04-03T14:04:23.981Z</time></trkpt><trkpt lat="44.61984049131321" lon="10.07350924657187"><ele>677.0</ele><time>2026-04-03T14:04:24.981Z</time></trkpt><trkpt lat="44.619829619766094" lon="10.073290844236501"><ele>677.0</ele><time>2026-04-03T14:04:25.981Z</time></trkpt><trkpt lat="44.61985063757772" lon="10.073063500801357"><ele>676.75</ele><time>2026-04-03T14:04:26.982Z</time></trkpt><trkpt lat="44.619873484113114" lon="10.072848280613215"><ele>676.5</ele><time>2026-04-03T14:04:27.982Z</time></trkpt><trkpt lat="44.61988301555574" lon="10.072669874205952"><ele>676.25</ele><time>2026-04-03T14:04:28.982Z</time></trkpt><trkpt lat="44.61987641451999" lon="10.072526829799969"><ele>676.0</ele><time>2026-04-03T14:04:29.982Z</time></trkpt><trkpt lat="44.61983228144524" lon="10.072417695954128"><ele>677.4</ele><time>2026-04-03T14:04:30.982Z</time></trkpt><trkpt lat="44.619757208754315" lon="10.072356890311337"><ele>678.8</ele><time>2026-04-03T14:04:31.982Z</time></trkpt><trkpt lat="44.61965861308803" lon="10.072344571477672"><ele>680.1999999999999</ele><time>2026-04-03T14:04:32.982Z</time></trkpt><trkpt lat="44.61953301545996" lon="10.072343958141367"><ele>681.5999999999999</ele><time>2026-04-03T14:04:33.982Z</time></trkpt><trkpt lat="44.61939611423275" lon="10.07232957129106"><ele>683.0</ele><time>2026-04-03T14:04:34.982Z</time></trkpt><trkpt lat="44.61924697557469" lon="10.07231365825343"><ele>683.0</ele><time>2026-04-03T14:04:35.982Z</time></trkpt><trkpt lat="44.61909505153375" lon="10.072302308018761"><ele>683.0</ele><time>2026-04-03T14:04:36.982Z</time></trkpt><trkpt lat="44.61893215803487" lon="10.072287056032172"><ele>683.0</ele><time>2026-04-03T14:04:37.982Z</time></trkpt><trkpt lat="44.61877159127991" lon="10.07226970569571"><ele>687.25</ele><time>2026-04-03T14:04:38.982Z</time></trkpt><trkpt lat="44.618624712530625" lon="10.072247230836869"><ele>691.5</ele><time>2026-04-03T14:04:39.982Z</time></trkpt><trkpt lat="44.61849101728576" lon="10.072216045564913"><ele>695.75</ele><time>2026-04-03T14:04:40.982Z</time></trkpt><trkpt lat="44.61836153069881" lon="10.07215954732319"><ele>700.0</ele><time>2026-04-03T14:04:41.982Z</time></trkpt><trkpt lat="44.61824523538195" lon="10.072069918965944"><ele>700.0</ele><time>2026-04-03T14:04:42.982Z</time></trkpt><trkpt lat="44.61816815698397" lon="10.071941256234823"><ele>700.0</ele><time>2026-04-03T14:04:43.982Z</time></trkpt><trkpt lat="44.61812798558239" lon="10.07179935880456"><ele>700.0</ele><time>2026-04-03T14:04:44.982Z</time></trkpt><trkpt lat="44.61813868436728" lon="10.071632041088007"><ele>700.0</ele><time>2026-04-03T14:04:45.982Z</time></trkpt><trkpt lat="44.61819429283519" lon="10.071466528203484"><ele>701.0</ele><time>2026-04-03T14:04:46.982Z</time></trkpt><trkpt lat="44.618246503449086" lon="10.071286267908611"><ele>702.0</ele><time>2026-04-03T14:04:47.982Z</time></trkpt><trkpt lat="44.618274731480966" lon="10.071079470431327"><ele>703.0</ele><time>2026-04-03T14:04:48.982Z</time></trkpt><trkpt lat="44.61828154488949" lon="10.070877048924407"><ele>704.0</ele><time>2026-04-03T14:04:49.982Z</time></trkpt><trkpt lat="44.61826295801671" lon="10.070668336705916"><ele>705.3333333333333</ele><time>2026-04-03T14:04:50.982Z</time></trkpt><trkpt lat="44.61822752613381" lon="10.070452966610627"><ele>706.6666666666666</ele><time>2026-04-03T14:04:51.982Z</time></trkpt><trkpt lat="44.6182236062158" lon="10.070235007992954"><ele>708.0</ele><time>2026-04-03T14:04:52.982Z</time></trkpt><trkpt lat="44.61825484407444" lon="10.070015704335129"><ele>709.25</ele><time>2026-04-03T14:04:53.982Z</time></trkpt><trkpt lat="44.618302551450576" lon="10.069802534792206"><ele>710.5</ele><time>2026-04-03T14:04:54.982Z</time></trkpt><trkpt lat="44.61834801420842" lon="10.06960897590422"><ele>711.75</ele><time>2026-04-03T14:04:55.982Z</time></trkpt><trkpt lat="44.61837775912485" lon="10.06943597361696"><ele>713.0</ele><time>2026-04-03T14:04:56.982Z</time></trkpt><trkpt lat="44.61838657408978" lon="10.069274277533832"><ele>713.0</ele><time>2026-04-03T14:04:57.982Z</time></trkpt><trkpt lat="44.618368861092755" lon="10.069118184225676"><ele>713.0</ele><time>2026-04-03T14:04:58.982Z</time></trkpt><trkpt lat="44.61830767537065" lon="10.068962239538239"><ele>713.0</ele><time>2026-04-03T14:04:59.982Z</time></trkpt><trkpt lat="44.61820155961456" lon="10.06879317986331"><ele>713.0</ele><time>2026-04-03T14:05:00.982Z</time></trkpt><trkpt lat="44.618090297526" lon="10.068621882421073"><ele>712.6666666666666</ele><time>2026-04-03T14:05:01.982Z</time></trkpt><trkpt lat="44.61797843544617" lon="10.068427539149502"><ele>712.3333333333334</ele><time>2026-04-03T14:05:02.982Z</time></trkpt><trkpt lat="44.617867053798165" lon="10.06822881458834"><ele>712.0</ele><time>2026-04-03T14:05:03.982Z</time></trkpt><trkpt lat="44.61776773707226" lon="10.068031664698083"><ele>714.5</ele><time>2026-04-03T14:05:04.982Z</time></trkpt><trkpt lat="44.617693809330376" lon="10.067843096518008"><ele>717.0</ele><time>2026-04-03T14:05:05.982Z</time></trkpt><trkpt lat="44.617666235888095" lon="10.067651606404196"><ele>719.5</ele><time>2026-04-03T14:05:06.982Z</time></trkpt><trkpt lat="44.6176477978606" lon="10.0674731451545"><ele>722.0</ele><time>2026-04-03T14:05:07.982Z</time></trkpt><trkpt lat="44.617601417843524" lon="10.067321162948861"><ele>722.0</ele><time>2026-04-03T14:05:08.982Z</time></trkpt><trkpt lat="44.617519012481026" lon="10.067182171254935"><ele>722.0</ele><time>2026-04-03T14:05:09.982Z</time></trkpt><trkpt lat="44.617391299549126" lon="10.067076365513987"><ele>722.0</ele><time>2026-04-03T14:05:10.982Z</time></trkpt><trkpt lat="44.61724875328877" lon="10.066974681292537"><ele>722.0</ele><time>2026-04-03T14:05:11.982Z</time></trkpt><trkpt lat="44.61711312480837" lon="10.066845665877743"><ele>722.0</ele><time>2026-04-03T14:05:12.982Z</time></trkpt><trkpt lat="44.617005264241584" lon="10.066679199549542"><ele>722.0</ele><time>2026-04-03T14:05:13.982Z</time></trkpt><trkpt lat="44.616920133432295" lon="10.06650406685303"><ele>722.0</ele><time>2026-04-03T14:05:14.982Z</time></trkpt><trkpt lat="44.61682047037226" lon="10.066377639665593"><ele>722.0</ele><time>2026-04-03T14:05:15.982Z</time></trkpt><trkpt lat="44.61668768441427" lon="10.06630615758762"><ele>724.0</ele><time>2026-04-03T14:05:16.982Z</time></trkpt><trkpt lat="44.61652672701341" lon="10.066269554350677"><ele>726.0</ele><time>2026-04-03T14:05:17.982Z</time></trkpt><trkpt lat="44.61635234724064" lon="10.066233337430768"><ele>728.0</ele><time>2026-04-03T14:05:18.982Z</time></trkpt><trkpt lat="44.61616757848104" lon="10.066178418234239"><ele>732.0</ele><time>2026-04-03T14:05:19.982Z</time></trkpt><trkpt lat="44.61598317347908" lon="10.06611733169492"><ele>736.0</ele><time>2026-04-03T14:05:20.982Z</time></trkpt><trkpt lat="44.61581595140849" lon="10.066065822770494"><ele>740.0</ele><time>2026-04-03T14:05:21.982Z</time></trkpt><trkpt lat="44.61567318631793" lon="10.066022399882236"><ele>740.0</ele><time>2026-04-03T14:05:22.982Z</time></trkpt><trkpt lat="44.61555121010431" lon="10.065991822980884"><ele>740.0</ele><time>2026-04-03T14:05:23.982Z</time></trkpt><trkpt lat="44.61544581469059" lon="10.065996684986624"><ele>740.0</ele><time>2026-04-03T14:05:24.982Z</time></trkpt><trkpt lat="44.615342153753794" lon="10.06606950695453"><ele>740.0</ele><time>2026-04-03T14:05:25.982Z</time></trkpt><trkpt lat="44.6152432747923" lon="10.066204306809793"><ele>739.6666666666666</ele><time>2026-04-03T14:05:26.982Z</time></trkpt><trkpt lat="44.615138726809015" lon="10.066380018298117"><ele>739.3333333333334</ele><time>2026-04-03T14:05:27.982Z</time></trkpt><trkpt lat="44.61502239872269" lon="10.066565463027468"><ele>739.0</ele><time>2026-04-03T14:05:28.982Z</time></trkpt><trkpt lat="44.614891703570166" lon="10.066752179034586"><ele>741.5</ele><time>2026-04-03T14:05:29.982Z</time></trkpt><trkpt lat="44.614766421934014" lon="10.066927552844097"><ele>744.0</ele><time>2026-04-03T14:05:30.982Z</time></trkpt><trkpt lat="44.61466277237653" lon="10.067072900477495"><ele>746.5</ele><time>2026-04-03T14:05:31.982Z</time></trkpt><trkpt lat="44.614590487989624" lon="10.067198240496502"><ele>749.0</ele><time>2026-04-03T14:05:32.982Z</time></trkpt><trkpt lat="44.614551557735176" lon="10.067329512931307"><ele>751.5</ele><time>2026-04-03T14:05:33.982Z</time></trkpt><trkpt lat="44.61454555388677" lon="10.067488719697074"><ele>754.0</ele><time>2026-04-03T14:05:34.982Z</time></trkpt><trkpt lat="44.614573596963155" lon="10.067669614078449"><ele>756.5</ele><time>2026-04-03T14:05:35.982Z</time></trkpt><trkpt lat="44.61461417420663" lon="10.067846371926647"><ele>759.0</ele><time>2026-04-03T14:05:36.982Z</time></trkpt><trkpt lat="44.61462952905863" lon="10.068020139649454"><ele>759.0</ele><time>2026-04-03T14:05:37.982Z</time></trkpt><trkpt lat="44.61460187204832" lon="10.068195729113263"><ele>759.0</ele><time>2026-04-03T14:05:38.982Z</time></trkpt><trkpt lat="44.6145306792773" lon="10.06834370027139"><ele>759.0</ele><time>2026-04-03T14:05:39.982Z</time></trkpt><trkpt lat="44.61442309472871" lon="10.068457967542688"><ele>759.0</ele><time>2026-04-03T14:05:40.982Z</time></trkpt><trkpt lat="44.61429526286599" lon="10.068575586736696"><ele>759.0</ele><time>2026-04-03T14:05:41.982Z</time></trkpt><trkpt lat="44.614161736750866" lon="10.068720997822403"><ele>759.0</ele><time>2026-04-03T14:05:42.982Z</time></trkpt><trkpt lat="44.61402703221909" lon="10.068892241483193"><ele>759.0</ele><time>2026-04-03T14:05:43.982Z</time></trkpt><trkpt lat="44.613887236393516" lon="10.069063482259635"><ele>763.3333333333333</ele><time>2026-04-03T14:05:44.982Z</time></trkpt><trkpt lat="44.61374980808495" lon="10.069232929358767"><ele>767.6666666666666</ele><time>2026-04-03T14:05:45.982Z</time></trkpt><trkpt lat="44.61361223024515" lon="10.069392707623328"><ele>772.0</ele><time>2026-04-03T14:05:46.982Z</time></trkpt><trkpt lat="44.613478547338104" lon="10.069552457253488"><ele>772.0</ele><time>2026-04-03T14:05:47.982Z</time></trkpt><trkpt lat="44.6133449079113" lon="10.069708692207605"><ele>772.0</ele><time>2026-04-03T14:05:48.982Z</time></trkpt><trkpt lat="44.613206534724576" lon="10.069851367636742"><ele>772.0</ele><time>2026-04-03T14:05:49.982Z</time></trkpt><trkpt lat="44.613067339921606" lon="10.069985850501773"><ele>775.3333333333333</ele><time>2026-04-03T14:05:50.982Z</time></trkpt><trkpt lat="44.61291628015933" lon="10.070091421747042"><ele>778.6666666666667</ele><time>2026-04-03T14:05:51.982Z</time></trkpt><trkpt lat="44.61275153425723" lon="10.070170102708829"><ele>782.0</ele><time>2026-04-03T14:05:52.982Z</time></trkpt><trkpt lat="44.612582923249306" lon="10.07020323006101"><ele>782.3333333333334</ele><time>2026-04-03T14:05:53.982Z</time></trkpt><trkpt lat="44.612408175093684" lon="10.070203385438594"><ele>782.6666666666667</ele><time>2026-04-03T14:05:54.982Z</time></trkpt><trkpt lat="44.61224056990985" lon="10.070163549700272"><ele>783.0</ele><time>2026-04-03T14:05:55.982Z</time></trkpt><trkpt lat="44.61206810240689" lon="10.070114462228396"><ele>785.0</ele><time>2026-04-03T14:05:56.982Z</time></trkpt><trkpt lat="44.61189434851913" lon="10.070054453971945"><ele>787.0</ele><time>2026-04-03T14:05:57.982Z</time></trkpt><trkpt lat="44.61173118589007" lon="10.070005457757192"><ele>789.0</ele><time>2026-04-03T14:05:58.982Z</time></trkpt><trkpt lat="44.61158696126204" lon="10.069966239320859"><ele>789.0</ele><time>2026-04-03T14:05:59.982Z</time></trkpt><trkpt lat="44.611466766577045" lon="10.069939129435996"><ele>789.0</ele><time>2026-04-03T14:06:00.982Z</time></trkpt><trkpt lat="44.611367007225994" lon="10.06993718458152"><ele>789.0</ele><time>2026-04-03T14:06:01.982Z</time></trkpt><trkpt lat="44.61127708866318" lon="10.069982739276085"><ele>789.0</ele><time>2026-04-03T14:06:02.982Z</time></trkpt><trkpt lat="44.61119731298229" lon="10.070082603741165"><ele>789.0</ele><time>2026-04-03T14:06:03.982Z</time></trkpt><trkpt lat="44.61114067818257" lon="10.070233813554198"><ele>788.25</ele><time>2026-04-03T14:06:04.982Z</time></trkpt><trkpt lat="44.61111045889117" lon="10.070418908071577"><ele>787.5</ele><time>2026-04-03T14:06:05.982Z</time></trkpt><trkpt lat="44.61109079807861" lon="10.070601968930335"><ele>786.75</ele><time>2026-04-03T14:06:06.982Z</time></trkpt><trkpt lat="44.61106897998721" lon="10.070773493877718"><ele>786.0</ele><time>2026-04-03T14:06:07.982Z</time></trkpt><trkpt lat="44.61103673486775" lon="10.070945856259574"><ele>786.0</ele><time>2026-04-03T14:06:08.982Z</time></trkpt><trkpt lat="44.61100038176363" lon="10.071121102656322"><ele>786.0</ele><time>2026-04-03T14:06:09.982Z</time></trkpt><trkpt lat="44.61095783142814" lon="10.071292850779088"><ele>786.0</ele><time>2026-04-03T14:06:10.982Z</time></trkpt><trkpt lat="44.610908720573846" lon="10.071437855537134"><ele>786.0</ele><time>2026-04-03T14:06:11.982Z</time></trkpt><trkpt lat="44.61084948383363" lon="10.071569396837782"><ele>787.25</ele><time>2026-04-03T14:06:12.982Z</time></trkpt><trkpt lat="44.61076095557941" lon="10.071665510360157"><ele>788.5</ele><time>2026-04-03T14:06:13.982Z</time></trkpt><trkpt lat="44.610655711360685" lon="10.07174346208004"><ele>789.75</ele><time>2026-04-03T14:06:14.982Z</time></trkpt><trkpt lat="44.61054181053852" lon="10.071797552279142"><ele>791.0</ele><time>2026-04-03T14:06:15.982Z</time></trkpt><trkpt lat="44.610419090893515" lon="10.07182705384348"><ele>789.6666666666667</ele><time>2026-04-03T14:06:16.982Z</time></trkpt><trkpt lat="44.61027804144398" lon="10.071826775257144"><ele>788.3333333333333</ele><time>2026-04-03T14:06:17.982Z</time></trkpt><trkpt lat="44.61011278626598" lon="10.071775013732042"><ele>787.0</ele><time>2026-04-03T14:06:18.982Z</time></trkpt><trkpt lat="44.60993284408553" lon="10.071717468581365"><ele>787.0</ele><time>2026-04-03T14:06:19.981Z</time></trkpt><trkpt lat="44.60973691924731" lon="10.071657900717891"><ele>787.0</ele><time>2026-04-03T14:06:20.981Z</time></trkpt><trkpt lat="44.60953792968938" lon="10.071597504816227"><ele>787.0</ele><time>2026-04-03T14:06:21.981Z</time></trkpt><trkpt lat="44.609328475175275" lon="10.071535525539591"><ele>782.3333333333333</ele><time>2026-04-03T14:06:22.98Z</time></trkpt><trkpt lat="44.609117285651195" lon="10.0714720297236"><ele>777.6666666666667</ele><time>2026-04-03T14:06:23.981Z</time></trkpt><trkpt lat="44.60891694954396" lon="10.071411124079315"><ele>773.0</ele><time>2026-04-03T14:06:24.981Z</time></trkpt><trkpt lat="44.608735344172985" lon="10.071354048609784"><ele>773.0</ele><time>2026-04-03T14:06:25.98Z</time></trkpt><trkpt lat="44.608567506102105" lon="10.071302007028262"><ele>773.0</ele><time>2026-04-03T14:06:26.981Z</time></trkpt><trkpt lat="44.608420807932816" lon="10.071262727632746"><ele>773.0</ele><time>2026-04-03T14:06:27.981Z</time></trkpt><trkpt lat="44.60828617489226" lon="10.071256567013116"><ele>773.0</ele><time>2026-04-03T14:06:28.981Z</time></trkpt><trkpt lat="44.60816565097447" lon="10.071283847456643"><ele>773.0</ele><time>2026-04-03T14:06:29.981Z</time></trkpt><trkpt lat="44.608046914715594" lon="10.071357487047392"><ele>773.0</ele><time>2026-04-03T14:06:30.981Z</time></trkpt><trkpt lat="44.607931027439435" lon="10.071467306850037"><ele>773.0</ele><time>2026-04-03T14:06:31.98Z</time></trkpt><trkpt lat="44.60782480695891" lon="10.071619298631807"><ele>774.5</ele><time>2026-04-03T14:06:32.981Z</time></trkpt><trkpt lat="44.60771772383882" lon="10.071794261189508"><ele>776.0</ele><time>2026-04-03T14:06:33.981Z</time></trkpt><trkpt lat="44.607605891978686" lon="10.07192124095342"><ele>777.5</ele><time>2026-04-03T14:06:34.981Z</time></trkpt><trkpt lat="44.60747994509266" lon="10.071968527969121"><ele>779.0</ele><time>2026-04-03T14:06:35.981Z</time></trkpt><trkpt lat="44.60735198725624" lon="10.07197980720994"><ele>779.0</ele><time>2026-04-03T14:06:36.981Z</time></trkpt><trkpt lat="44.60720962683152" lon="10.071962230816151"><ele>779.0</ele><time>2026-04-03T14:06:37.981Z</time></trkpt><trkpt lat="44.607058059413724" lon="10.071956379259161"><ele>779.0</ele><time>2026-04-03T14:06:38.981Z</time></trkpt><trkpt lat="44.606901602627076" lon="10.071961233452745"><ele>776.25</ele><time>2026-04-03T14:06:39.981Z</time></trkpt><trkpt lat="44.60675098678256" lon="10.071956560847658"><ele>773.5</ele><time>2026-04-03T14:06:40.981Z</time></trkpt><trkpt lat="44.606605087046454" lon="10.071945047107816"><ele>770.75</ele><time>2026-04-03T14:06:41.981Z</time></trkpt><trkpt lat="44.60645953164507" lon="10.071904479766278"><ele>768.0</ele><time>2026-04-03T14:06:42.981Z</time></trkpt><trkpt lat="44.606325016658026" lon="10.071841112919376"><ele>768.0</ele><time>2026-04-03T14:06:43.981Z</time></trkpt><trkpt lat="44.60620368916969" lon="10.071787243948"><ele>768.0</ele><time>2026-04-03T14:06:44.981Z</time></trkpt><trkpt lat="44.60607956455976" lon="10.07179084410537"><ele>768.0</ele><time>2026-04-03T14:06:45.981Z</time></trkpt><trkpt lat="44.60593992361487" lon="10.071858970831533"><ele>768.0</ele><time>2026-04-03T14:06:46.981Z</time></trkpt><trkpt lat="44.6057900804145" lon="10.071958202724028"><ele>768.3333333333333</ele><time>2026-04-03T14:06:47.981Z</time></trkpt><trkpt lat="44.605628268484494" lon="10.072053220010249"><ele>768.6666666666666</ele><time>2026-04-03T14:06:48.981Z</time></trkpt><trkpt lat="44.60545496835225" lon="10.072126622349984"><ele>769.0</ele><time>2026-04-03T14:06:49.981Z</time></trkpt><trkpt lat="44.60527943402564" lon="10.07218298308099"><ele>768.0</ele><time>2026-04-03T14:06:50.981Z</time></trkpt><trkpt lat="44.6051028938869" lon="10.072233541027371"><ele>767.0</ele><time>2026-04-03T14:06:51.981Z</time></trkpt><trkpt lat="44.60493076385371" lon="10.07229126669185"><ele>766.0</ele><time>2026-04-03T14:06:52.981Z</time></trkpt><trkpt lat="44.604767814197764" lon="10.07234884496933"><ele>766.0</ele><time>2026-04-03T14:06:53.981Z</time></trkpt><trkpt lat="44.60461862992418" lon="10.072398564016096"><ele>766.0</ele><time>2026-04-03T14:06:54.981Z</time></trkpt><trkpt lat="44.60447684937129" lon="10.072426704326654"><ele>766.0</ele><time>2026-04-03T14:06:55.981Z</time></trkpt><trkpt lat="44.60432563737887" lon="10.072406097465153"><ele>766.0</ele><time>2026-04-03T14:06:56.981Z</time></trkpt><trkpt lat="44.60416791700323" lon="10.072352495957999"><ele>767.3333333333334</ele><time>2026-04-03T14:06:57.981Z</time></trkpt><trkpt lat="44.60401206812861" lon="10.072279296391226"><ele>768.6666666666667</ele><time>2026-04-03T14:06:58.981Z</time></trkpt><trkpt lat="44.60385573299059" lon="10.072226315143634"><ele>770.0</ele><time>2026-04-03T14:06:59.981Z</time></trkpt><trkpt lat="44.603692322086424" lon="10.072201952661336"><ele>771.25</ele><time>2026-04-03T14:07:00.981Z</time></trkpt><trkpt lat="44.603532673387264" lon="10.072211926996516"><ele>772.5</ele><time>2026-04-03T14:07:01.981Z</time></trkpt><trkpt lat="44.603395659663896" lon="10.072231264603266"><ele>773.75</ele><time>2026-04-03T14:07:02.981Z</time></trkpt><trkpt lat="44.60328031114726" lon="10.072220645740519"><ele>775.0</ele><time>2026-04-03T14:07:03.981Z</time></trkpt><trkpt lat="44.60318453618344" lon="10.07214783765064"><ele>775.0</ele><time>2026-04-03T14:07:04.981Z</time></trkpt><trkpt lat="44.60309684466538" lon="10.072023250655837"><ele>775.0</ele><time>2026-04-03T14:07:05.981Z</time></trkpt><trkpt lat="44.6030319069001" lon="10.071860255019065"><ele>775.0</ele><time>2026-04-03T14:07:06.981Z</time></trkpt><trkpt lat="44.60297274228625" lon="10.071638663161668"><ele>775.0</ele><time>2026-04-03T14:07:07.981Z</time></trkpt><trkpt lat="44.60290834584826" lon="10.071406858348556"><ele>775.25</ele><time>2026-04-03T14:07:08.981Z</time></trkpt><trkpt lat="44.60282865565207" lon="10.071200465774645"><ele>775.5</ele><time>2026-04-03T14:07:09.981Z</time></trkpt><trkpt lat="44.60276225922485" lon="10.071026438814007"><ele>775.75</ele><time>2026-04-03T14:07:10.981Z</time></trkpt><trkpt lat="44.60270398335805" lon="10.07087758807461"><ele>776.0</ele><time>2026-04-03T14:07:11.981Z</time></trkpt><trkpt lat="44.60262701113374" lon="10.070766561519319"><ele>776.0</ele><time>2026-04-03T14:07:12.981Z</time></trkpt><trkpt lat="44.60252724999444" lon="10.07070157215442"><ele>776.0</ele><time>2026-04-03T14:07:13.981Z</time></trkpt><trkpt lat="44.602413867695404" lon="10.070719233860364"><ele>776.0</ele><time>2026-04-03T14:07:14.981Z</time></trkpt><trkpt lat="44.602287945677936" lon="10.070807719218685"><ele>776.0</ele><time>2026-04-03T14:07:15.981Z</time></trkpt><trkpt lat="44.60215895699699" lon="10.070931122691185"><ele>779.6666666666667</ele><time>2026-04-03T14:07:16.981Z</time></trkpt><trkpt lat="44.602018987705556" lon="10.071065399382158"><ele>783.3333333333333</ele><time>2026-04-03T14:07:17.981Z</time></trkpt><trkpt lat="44.60187192609338" lon="10.07119096341101"><ele>787.0</ele><time>2026-04-03T14:07:18.981Z</time></trkpt><trkpt lat="44.60172254156173" lon="10.071318081499175"><ele>787.3333333333333</ele><time>2026-04-03T14:07:19.981Z</time></trkpt><trkpt lat="44.60157576311425" lon="10.071442540602858"><ele>787.6666666666667</ele><time>2026-04-03T14:07:20.981Z</time></trkpt><trkpt lat="44.60144047755752" lon="10.071559458512725"><ele>788.0</ele><time>2026-04-03T14:07:21.981Z</time></trkpt><trkpt lat="44.601311571835666" lon="10.0716692351565"><ele>788.5</ele><time>2026-04-03T14:07:22.981Z</time></trkpt><trkpt lat="44.6011919602936" lon="10.071755131879856"><ele>789.0</ele><time>2026-04-03T14:07:23.981Z</time></trkpt><trkpt lat="44.60108545476499" lon="10.071846940112058"><ele>789.5</ele><time>2026-04-03T14:07:24.981Z</time></trkpt><trkpt lat="44.6009891414845" lon="10.07192537381922"><ele>790.0</ele><time>2026-04-03T14:07:25.981Z</time></trkpt><trkpt lat="44.60089686589179" lon="10.071963019489445"><ele>791.0</ele><time>2026-04-03T14:07:26.981Z</time></trkpt><trkpt lat="44.60079493813665" lon="10.071937853279197"><ele>792.0</ele><time>2026-04-03T14:07:27.981Z</time></trkpt><trkpt lat="44.60070090354798" lon="10.071852982152741"><ele>793.0</ele><time>2026-04-03T14:07:28.981Z</time></trkpt><trkpt lat="44.60063352869471" lon="10.071717833291448"><ele>794.0</ele><time>2026-04-03T14:07:29.981Z</time></trkpt><trkpt lat="44.600601007103386" lon="10.071542048844572"><ele>794.0</ele><time>2026-04-03T14:07:30.981Z</time></trkpt><trkpt lat="44.60057998274698" lon="10.071356162520772"><ele>794.0</ele><time>2026-04-03T14:07:31.981Z</time></trkpt><trkpt lat="44.60053324165098" lon="10.071169486919148"><ele>794.0</ele><time>2026-04-03T14:07:32.981Z</time></trkpt><trkpt lat="44.60046383672732" lon="10.070992059668399"><ele>794.0</ele><time>2026-04-03T14:07:33.981Z</time></trkpt><trkpt lat="44.60037220516354" lon="10.070847129695808"><ele>796.3333333333334</ele><time>2026-04-03T14:07:34.981Z</time></trkpt><trkpt lat="44.60025493495791" lon="10.070726028541866"><ele>798.6666666666667</ele><time>2026-04-03T14:07:35.981Z</time></trkpt><trkpt lat="44.600115322077215" lon="10.070622662498263"><ele>801.0</ele><time>2026-04-03T14:07:36.981Z</time></trkpt><trkpt lat="44.599968293542" lon="10.070526150733217"><ele>801.0</ele><time>2026-04-03T14:07:37.981Z</time></trkpt><trkpt lat="44.599826410872275" lon="10.070415794559366"><ele>801.0</ele><time>2026-04-03T14:07:38.981Z</time></trkpt><trkpt lat="44.599699042761266" lon="10.07031413022426"><ele>801.0</ele><time>2026-04-03T14:07:39.981Z</time></trkpt><trkpt lat="44.59958848376887" lon="10.070235829919495"><ele>801.0</ele><time>2026-04-03T14:07:40.981Z</time></trkpt><trkpt lat="44.5994686238453" lon="10.07020310253262"><ele>804.0</ele><time>2026-04-03T14:07:41.981Z</time></trkpt><trkpt lat="44.59933264323125" lon="10.070225375507372"><ele>807.0</ele><time>2026-04-03T14:07:42.981Z</time></trkpt><trkpt lat="44.59919240391104" lon="10.070300707858392"><ele>810.0</ele><time>2026-04-03T14:07:43.981Z</time></trkpt><trkpt lat="44.59906245312568" lon="10.070385458303786"><ele>813.0</ele><time>2026-04-03T14:07:44.981Z</time></trkpt><trkpt lat="44.59892848931178" lon="10.070404233673072"><ele>813.0</ele><time>2026-04-03T14:07:45.981Z</time></trkpt><trkpt lat="44.598790736886635" lon="10.07037080530848"><ele>813.0</ele><time>2026-04-03T14:07:46.981Z</time></trkpt><trkpt lat="44.59865962174172" lon="10.070280706274694"><ele>813.0</ele><time>2026-04-03T14:07:47.981Z</time></trkpt><trkpt lat="44.5985297306584" lon="10.070166025788337"><ele>813.0</ele><time>2026-04-03T14:07:48.981Z</time></trkpt><trkpt lat="44.59839267264951" lon="10.070073913436898"><ele>817.6666666666667</ele><time>2026-04-03T14:07:49.981Z</time></trkpt><trkpt lat="44.59824277610242" lon="10.070028061640146"><ele>822.3333333333334</ele><time>2026-04-03T14:07:50.981Z</time></trkpt><trkpt lat="44.598077179012904" lon="10.070014703567399"><ele>827.0</ele><time>2026-04-03T14:07:51.981Z</time></trkpt><trkpt lat="44.597903840941505" lon="10.070009018310188"><ele>831.6666666666667</ele><time>2026-04-03T14:07:52.981Z</time></trkpt><trkpt lat="44.597730465170635" lon="10.070013825689323"><ele>836.3333333333333</ele><time>2026-04-03T14:07:53.981Z</time></trkpt><trkpt lat="44.597551247775534" lon="10.070020939395533"><ele>841.0</ele><time>2026-04-03T14:07:54.981Z</time></trkpt><trkpt lat="44.59737182371765" lon="10.070029796315504"><ele>841.0</ele><time>2026-04-03T14:07:55.982Z</time></trkpt><trkpt lat="44.59719796992149" lon="10.070023910899485"><ele>841.0</ele><time>2026-04-03T14:07:56.982Z</time></trkpt><trkpt lat="44.59704239957435" lon="10.07001159772804"><ele>841.0</ele><time>2026-04-03T14:07:57.982Z</time></trkpt><trkpt lat="44.59690479682513" lon="10.069997679882341"><ele>841.5</ele><time>2026-04-03T14:07:58.982Z</time></trkpt><trkpt lat="44.59678643118206" lon="10.069963111196024"><ele>842.0</ele><time>2026-04-03T14:07:59.982Z</time></trkpt><trkpt lat="44.5966708876611" lon="10.069897297638185"><ele>842.5</ele><time>2026-04-03T14:08:00.982Z</time></trkpt><trkpt lat="44.596580777580876" lon="10.06981032427061"><ele>843.0</ele><time>2026-04-03T14:08:01.982Z</time></trkpt><trkpt lat="44.59651160582395" lon="10.069666959051826"><ele>847.25</ele><time>2026-04-03T14:08:02.982Z</time></trkpt><trkpt lat="44.59645623751598" lon="10.069512487844394"><ele>851.5</ele><time>2026-04-03T14:08:03.982Z</time></trkpt><trkpt lat="44.59642733970599" lon="10.06929672602804"><ele>855.75</ele><time>2026-04-03T14:08:04.982Z</time></trkpt><trkpt lat="44.59639364073673" lon="10.069074758622573"><ele>860.0</ele><time>2026-04-03T14:08:05.982Z</time></trkpt><trkpt lat="44.59635273441759" lon="10.068840568440834"><ele>862.6666666666667</ele><time>2026-04-03T14:08:06.982Z</time></trkpt><trkpt lat="44.596286165498995" lon="10.068604754421996"><ele>865.3333333333333</ele><time>2026-04-03T14:08:07.982Z</time></trkpt><trkpt lat="44.59619754555002" lon="10.068377505795858"><ele>868.0</ele><time>2026-04-03T14:08:08.982Z</time></trkpt><trkpt lat="44.59609723820969" lon="10.06817738456467"><ele>861.6666666666666</ele><time>2026-04-03T14:08:09.982Z</time></trkpt><trkpt lat="44.59600109097941" lon="10.067991257523625"><ele>855.3333333333333</ele><time>2026-04-03T14:08:10.982Z</time></trkpt><trkpt lat="44.5959243630333" lon="10.067788877136165"><ele>849.0</ele><time>2026-04-03T14:08:11.982Z</time></trkpt><trkpt lat="44.59587173678669" lon="10.067553926937"><ele>853.0</ele><time>2026-04-03T14:08:12.982Z</time></trkpt><trkpt lat="44.595827419426946" lon="10.067303277307065"><ele>857.0</ele><time>2026-04-03T14:08:13.982Z</time></trkpt><trkpt lat="44.5957892278164" lon="10.067040011537765"><ele>861.0</ele><time>2026-04-03T14:08:14.982Z</time></trkpt><trkpt lat="44.595755602404715" lon="10.066766945249258"><ele>863.3333333333333</ele><time>2026-04-03T14:08:15.982Z</time></trkpt><trkpt lat="44.59573678696662" lon="10.06649018282026"><ele>865.6666666666666</ele><time>2026-04-03T14:08:16.982Z</time></trkpt><trkpt lat="44.59573225658952" lon="10.066202217288602"><ele>868.0</ele><time>2026-04-03T14:08:17.982Z</time></trkpt><trkpt lat="44.59574356852013" lon="10.06593073069373"><ele>871.3333333333333</ele><time>2026-04-03T14:08:18.982Z</time></trkpt><trkpt lat="44.595760999813635" lon="10.065665269364615"><ele>874.6666666666667</ele><time>2026-04-03T14:08:19.982Z</time></trkpt><trkpt lat="44.59576911197916" lon="10.065402574591635"><ele>878.0</ele><time>2026-04-03T14:08:20.982Z</time></trkpt><trkpt lat="44.595743018231246" lon="10.065142107041396"><ele>879.6666666666667</ele><time>2026-04-03T14:08:21.982Z</time></trkpt><trkpt lat="44.59570740082392" lon="10.064899756995125"><ele>881.3333333333333</ele><time>2026-04-03T14:08:22.982Z</time></trkpt><trkpt lat="44.59568392092024" lon="10.064665011077269"><ele>883.0</ele><time>2026-04-03T14:08:23.982Z</time></trkpt><trkpt lat="44.59567610703488" lon="10.064453464084146"><ele>883.0</ele><time>2026-04-03T14:08:24.982Z</time></trkpt><trkpt lat="44.59568463199142" lon="10.064230748925517"><ele>883.0</ele><time>2026-04-03T14:08:25.98Z</time></trkpt><trkpt lat="44.59570539397208" lon="10.06400626213228"><ele>883.0</ele><time>2026-04-03T14:08:26.98Z</time></trkpt><trkpt lat="44.59572686963669" lon="10.063783245543762"><ele>883.75</ele><time>2026-04-03T14:08:27.98Z</time></trkpt><trkpt lat="44.59577781620703" lon="10.06358142959081"><ele>884.5</ele><time>2026-04-03T14:08:28.98Z</time></trkpt><trkpt lat="44.59582749283987" lon="10.06338695543186"><ele>885.25</ele><time>2026-04-03T14:08:29.98Z</time></trkpt><trkpt lat="44.595844325770166" lon="10.063187327652363"><ele>886.0</ele><time>2026-04-03T14:08:30.98Z</time></trkpt><trkpt lat="44.5958235445694" lon="10.062979286467117"><ele>889.6666666666666</ele><time>2026-04-03T14:08:31.98Z</time></trkpt><trkpt lat="44.5957670257357" lon="10.062767994071688"><ele>893.3333333333333</ele><time>2026-04-03T14:08:32.979Z</time></trkpt><trkpt lat="44.59567435006978" lon="10.06257704415229"><ele>897.0</ele><time>2026-04-03T14:08:33.979Z</time></trkpt><trkpt lat="44.59554423373652" lon="10.062411216188679"><ele>895.0</ele><time>2026-04-03T14:08:34.98Z</time></trkpt><trkpt lat="44.59540011937188" lon="10.062248700803924"><ele>893.0</ele><time>2026-04-03T14:08:35.98Z</time></trkpt><trkpt lat="44.59526468713083" lon="10.062072533012774"><ele>891.0</ele><time>2026-04-03T14:08:36.98Z</time></trkpt><trkpt lat="44.59513994223128" lon="10.061896473805142"><ele>891.0</ele><time>2026-04-03T14:08:37.98Z</time></trkpt><trkpt lat="44.59503268961814" lon="10.061737056207212"><ele>891.0</ele><time>2026-04-03T14:08:38.98Z</time></trkpt><trkpt lat="44.59493178599971" lon="10.06156635131433"><ele>891.0</ele><time>2026-04-03T14:08:39.98Z</time></trkpt><trkpt lat="44.59483219933874" lon="10.06136271089873"><ele>891.0</ele><time>2026-04-03T14:08:40.98Z</time></trkpt><trkpt lat="44.59474485725185" lon="10.061161549634257"><ele>891.0</ele><time>2026-04-03T14:08:41.98Z</time></trkpt><trkpt lat="44.59467411536757" lon="10.060961902125314"><ele>891.0</ele><time>2026-04-03T14:08:42.98Z</time></trkpt><trkpt lat="44.59462178324926" lon="10.060738793051085"><ele>889.0</ele><time>2026-04-03T14:08:43.98Z</time></trkpt><trkpt lat="44.59458698324421" lon="10.060492945226459"><ele>887.0</ele><time>2026-04-03T14:08:44.98Z</time></trkpt><trkpt lat="44.59455291651019" lon="10.060233506734205"><ele>885.0</ele><time>2026-04-03T14:08:45.98Z</time></trkpt><trkpt lat="44.594507607153325" lon="10.059970012429769"><ele>882.3333333333333</ele><time>2026-04-03T14:08:46.98Z</time></trkpt><trkpt lat="44.59445890472174" lon="10.0597156732491"><ele>879.6666666666666</ele><time>2026-04-03T14:08:47.98Z</time></trkpt><trkpt lat="44.59442003066348" lon="10.05947660068025"><ele>877.0</ele><time>2026-04-03T14:08:48.98Z</time></trkpt><trkpt lat="44.59438265774492" lon="10.059248829381916"><ele>877.25</ele><time>2026-04-03T14:08:49.98Z</time></trkpt><trkpt lat="44.594345637337085" lon="10.059050510191673"><ele>877.5</ele><time>2026-04-03T14:08:50.98Z</time></trkpt><trkpt lat="44.5942873304579" lon="10.058870501225133"><ele>877.75</ele><time>2026-04-03T14:08:51.98Z</time></trkpt><trkpt lat="44.59418995159156" lon="10.05871979602413"><ele>878.0</ele><time>2026-04-03T14:08:52.98Z</time></trkpt><trkpt lat="44.59406163666011" lon="10.058587889540076"><ele>878.0</ele><time>2026-04-03T14:08:53.98Z</time></trkpt><trkpt lat="44.59392120649128" lon="10.058475110493053"><ele>878.0</ele><time>2026-04-03T14:08:54.98Z</time></trkpt><trkpt lat="44.59376762976671" lon="10.058364148478313"><ele>878.0</ele><time>2026-04-03T14:08:55.98Z</time></trkpt><trkpt lat="44.59364223206887" lon="10.058228943766897"><ele>879.0</ele><time>2026-04-03T14:08:56.98Z</time></trkpt><trkpt lat="44.59353036186508" lon="10.0580441813471"><ele>880.0</ele><time>2026-04-03T14:08:57.98Z</time></trkpt><trkpt lat="44.593435992238824" lon="10.05783200147319"><ele>881.0</ele><time>2026-04-03T14:08:58.98Z</time></trkpt><trkpt lat="44.59335274846368" lon="10.057597802467713"><ele>884.0</ele><time>2026-04-03T14:08:59.98Z</time></trkpt><trkpt lat="44.59327651204186" lon="10.05735046984943"><ele>887.0</ele><time>2026-04-03T14:09:00.98Z</time></trkpt><trkpt lat="44.59321654962803" lon="10.057088621036861"><ele>890.0</ele><time>2026-04-03T14:09:01.98Z</time></trkpt><trkpt lat="44.59316946355448" lon="10.056819681865614"><ele>891.3333333333334</ele><time>2026-04-03T14:09:02.98Z</time></trkpt><trkpt lat="44.593125315971385" lon="10.05656619161675"><ele>892.6666666666667</ele><time>2026-04-03T14:09:03.98Z</time></trkpt><trkpt lat="44.593076859324015" lon="10.056341034162122"><ele>894.0</ele><time>2026-04-03T14:09:04.98Z</time></trkpt><trkpt lat="44.593014758086746" lon="10.056135305846412"><ele>894.0</ele><time>2026-04-03T14:09:05.98Z</time></trkpt><trkpt lat="44.592927110322314" lon="10.055948502661572"><ele>894.0</ele><time>2026-04-03T14:09:06.98Z</time></trkpt><trkpt lat="44.5927879910084" lon="10.05577697748945"><ele>894.0</ele><time>2026-04-03T14:09:07.98Z</time></trkpt><trkpt lat="44.59265175690879" lon="10.055615297346435"><ele>897.75</ele><time>2026-04-03T14:09:08.98Z</time></trkpt><trkpt lat="44.59252095690325" lon="10.055457712086241"><ele>901.5</ele><time>2026-04-03T14:09:09.98Z</time></trkpt><trkpt lat="44.59241203837287" lon="10.055332262011385"><ele>905.25</ele><time>2026-04-03T14:09:10.98Z</time></trkpt><trkpt lat="44.59230115270448" lon="10.055242729903727"><ele>909.0</ele><time>2026-04-03T14:09:11.98Z</time></trkpt><trkpt lat="44.59216880838169" lon="10.055215890078431"><ele>909.0</ele><time>2026-04-03T14:09:12.98Z</time></trkpt><trkpt lat="44.59202177773924" lon="10.055258627815173"><ele>909.0</ele><time>2026-04-03T14:09:13.98Z</time></trkpt><trkpt lat="44.59186481127344" lon="10.055333522850228"><ele>909.0</ele><time>2026-04-03T14:09:14.98Z</time></trkpt><trkpt lat="44.59170273650884" lon="10.055390136318744"><ele>910.0</ele><time>2026-04-03T14:09:15.98Z</time></trkpt><trkpt lat="44.591555653081414" lon="10.055421453572404"><ele>911.0</ele><time>2026-04-03T14:09:16.98Z</time></trkpt><trkpt lat="44.59142570740755" lon="10.05541525416582"><ele>912.0</ele><time>2026-04-03T14:09:17.98Z</time></trkpt><trkpt lat="44.59129815520222" lon="10.055343843878195"><ele>913.0</ele><time>2026-04-03T14:09:18.98Z</time></trkpt><trkpt lat="44.591184169901595" lon="10.055213349562884"><ele>914.3333333333333</ele><time>2026-04-03T14:09:19.98Z</time></trkpt><trkpt lat="44.5911048911076" lon="10.055017928135028"><ele>915.6666666666667</ele><time>2026-04-03T14:09:20.98Z</time></trkpt><trkpt lat="44.59105471177036" lon="10.054792830307749"><ele>917.0</ele><time>2026-04-03T14:09:21.98Z</time></trkpt><trkpt lat="44.59100310329156" lon="10.054588020441331"><ele>917.0</ele><time>2026-04-03T14:09:22.98Z</time></trkpt><trkpt lat="44.59093531518403" lon="10.054427623568621"><ele>917.0</ele><time>2026-04-03T14:09:23.98Z</time></trkpt><trkpt lat="44.590829677436005" lon="10.054336142780036"><ele>917.0</ele><time>2026-04-03T14:09:24.98Z</time></trkpt><trkpt lat="44.590686941092414" lon="10.054294632188421"><ele>917.0</ele><time>2026-04-03T14:09:25.98Z</time></trkpt><trkpt lat="44.59053058801615" lon="10.054287304371881"><ele>917.0</ele><time>2026-04-03T14:09:26.98Z</time></trkpt><trkpt lat="44.590387994232444" lon="10.054256626114425"><ele>917.0</ele><time>2026-04-03T14:09:27.98Z</time></trkpt><trkpt lat="44.59025647462709" lon="10.054160511451203"><ele>917.0</ele><time>2026-04-03T14:09:28.98Z</time></trkpt><trkpt lat="44.59013945146785" lon="10.053996208822303"><ele>919.0</ele><time>2026-04-03T14:09:29.98Z</time></trkpt><trkpt lat="44.5900197684187" lon="10.053825297723147"><ele>921.0</ele><time>2026-04-03T14:09:30.98Z</time></trkpt><trkpt lat="44.58988090063511" lon="10.053676270752893"><ele>923.0</ele><time>2026-04-03T14:09:31.98Z</time></trkpt><trkpt lat="44.58973365596339" lon="10.053564441506206"><ele>923.0</ele><time>2026-04-03T14:09:32.98Z</time></trkpt><trkpt lat="44.58962416601318" lon="10.05343593147959"><ele>923.0</ele><time>2026-04-03T14:09:33.98Z</time></trkpt><trkpt lat="44.58953499415379" lon="10.053280190457281"><ele>923.0</ele><time>2026-04-03T14:09:34.98Z</time></trkpt><trkpt lat="44.5895022083451" lon="10.053068963396463"><ele>923.0</ele><time>2026-04-03T14:09:35.98Z</time></trkpt><trkpt lat="44.58950660290482" lon="10.052825474248756"><ele>925.0</ele><time>2026-04-03T14:09:36.98Z</time></trkpt><trkpt lat="44.58952876594966" lon="10.05255988125767"><ele>927.0</ele><time>2026-04-03T14:09:37.98Z</time></trkpt><trkpt lat="44.58954166543607" lon="10.052276310095628"><ele>929.0</ele><time>2026-04-03T14:09:38.98Z</time></trkpt><trkpt lat="44.58955533752899" lon="10.05197191585168"><ele>930.3333333333334</ele><time>2026-04-03T14:09:39.98Z</time></trkpt><trkpt lat="44.58957514882492" lon="10.051667521343337"><ele>931.6666666666667</ele><time>2026-04-03T14:09:40.98Z</time></trkpt><trkpt lat="44.58957776386787" lon="10.051384028159935"><ele>933.0</ele><time>2026-04-03T14:09:41.98Z</time></trkpt><trkpt lat="44.58956551893811" lon="10.05113036287971"><ele>933.6666666666667</ele><time>2026-04-03T14:09:42.98Z</time></trkpt><trkpt lat="44.58953332060924" lon="10.050892972745348"><ele>934.3333333333334</ele><time>2026-04-03T14:09:43.98Z</time></trkpt><trkpt lat="44.58948707668989" lon="10.050673806972918"><ele>935.0</ele><time>2026-04-03T14:09:44.98Z</time></trkpt><trkpt lat="44.58942449059581" lon="10.050458021752728"><ele>932.6666666666667</ele><time>2026-04-03T14:09:45.98Z</time></trkpt><trkpt lat="44.589337715062904" lon="10.050240700980975"><ele>930.3333333333333</ele><time>2026-04-03T14:09:46.98Z</time></trkpt><trkpt lat="44.58922887961297" lon="10.050039458129964"><ele>928.0</ele><time>2026-04-03T14:09:47.98Z</time></trkpt><trkpt lat="44.58909407670337" lon="10.049851362961803"><ele>928.0</ele><time>2026-04-03T14:09:48.98Z</time></trkpt><trkpt lat="44.588961111712564" lon="10.049670676959611"><ele>928.0</ele><time>2026-04-03T14:09:49.98Z</time></trkpt><trkpt lat="44.58881173375272" lon="10.049507807871864"><ele>928.0</ele><time>2026-04-03T14:09:50.98Z</time></trkpt><trkpt lat="44.5886648533189" lon="10.049363863559355"><ele>923.0</ele><time>2026-04-03T14:09:51.98Z</time></trkpt><trkpt lat="44.588518336895966" lon="10.049244154219876"><ele>918.0</ele><time>2026-04-03T14:09:52.98Z</time></trkpt><trkpt lat="44.588367027101846" lon="10.049161119233343"><ele>913.0</ele><time>2026-04-03T14:09:53.98Z</time></trkpt><trkpt lat="44.58820173581578" lon="10.04911537727004"><ele>913.0</ele><time>2026-04-03T14:09:54.98Z</time></trkpt><trkpt lat="44.588029357624606" lon="10.049090731481495"><ele>913.0</ele><time>2026-04-03T14:09:55.98Z</time></trkpt><trkpt lat="44.58785879775101" lon="10.04908788067703"><ele>913.0</ele><time>2026-04-03T14:09:56.98Z</time></trkpt><trkpt lat="44.58771634509584" lon="10.049087355584582"><ele>908.4</ele><time>2026-04-03T14:09:57.98Z</time></trkpt><trkpt lat="44.58760570672955" lon="10.049061860489461"><ele>903.8</ele><time>2026-04-03T14:09:58.98Z</time></trkpt><trkpt lat="44.587525819306215" lon="10.04898675258142"><ele>899.2</ele><time>2026-04-03T14:09:59.98Z</time></trkpt><trkpt lat="44.58748642922067" lon="10.048870198172418"><ele>894.6</ele><time>2026-04-03T14:10:00.98Z</time></trkpt><trkpt lat="44.58750056590591" lon="10.048703241710161"><ele>890.0</ele><time>2026-04-03T14:10:01.98Z</time></trkpt><trkpt lat="44.587560404171306" lon="10.048536713347136"><ele>890.0</ele><time>2026-04-03T14:10:02.98Z</time></trkpt><trkpt lat="44.58764934872975" lon="10.048364323248807"><ele>890.0</ele><time>2026-04-03T14:10:03.98Z</time></trkpt><trkpt lat="44.587726808556205" lon="10.04818850812497"><ele>890.0</ele><time>2026-04-03T14:10:04.98Z</time></trkpt><trkpt lat="44.58778959410164" lon="10.048017743479683"><ele>890.0</ele><time>2026-04-03T14:10:05.98Z</time></trkpt><trkpt lat="44.58782499744903" lon="10.047867635304778"><ele>891.5</ele><time>2026-04-03T14:10:06.98Z</time></trkpt><trkpt lat="44.587816462220914" lon="10.047729230374669"><ele>893.0</ele><time>2026-04-03T14:10:07.98Z</time></trkpt><trkpt lat="44.5877601894557" lon="10.047595790670433"><ele>894.5</ele><time>2026-04-03T14:10:08.98Z</time></trkpt><trkpt lat="44.58764551128507" lon="10.047489284132991"><ele>896.0</ele><time>2026-04-03T14:10:09.98Z</time></trkpt><trkpt lat="44.58751583980618" lon="10.047430623989396"><ele>901.0</ele><time>2026-04-03T14:10:10.98Z</time></trkpt><trkpt lat="44.58737023553138" lon="10.047408037012376"><ele>906.0</ele><time>2026-04-03T14:10:11.98Z</time></trkpt><trkpt lat="44.58721732346954" lon="10.047387359758853"><ele>911.0</ele><time>2026-04-03T14:10:12.98Z</time></trkpt><trkpt lat="44.587049251088835" lon="10.047382373753532"><ele>904.6666666666667</ele><time>2026-04-03T14:10:13.98Z</time></trkpt><trkpt lat="44.586874914793654" lon="10.047364314631826"><ele>898.3333333333333</ele><time>2026-04-03T14:10:14.98Z</time></trkpt><trkpt lat="44.58670598848897" lon="10.047346979748493"><ele>892.0</ele><time>2026-04-03T14:10:15.98Z</time></trkpt><trkpt lat="44.58655313581239" lon="10.047334223046155"><ele>892.0</ele><time>2026-04-03T14:10:16.98Z</time></trkpt><trkpt lat="44.58642398404764" lon="10.047317356719956"><ele>892.0</ele><time>2026-04-03T14:10:17.98Z</time></trkpt><trkpt lat="44.58632121938385" lon="10.047281352051469"><ele>892.0</ele><time>2026-04-03T14:10:18.98Z</time></trkpt><trkpt lat="44.586246175193786" lon="10.047202329777816"><ele>892.0</ele><time>2026-04-03T14:10:19.98Z</time></trkpt><trkpt lat="44.586205558465025" lon="10.04707965739924"><ele>892.0</ele><time>2026-04-03T14:10:20.98Z</time></trkpt><trkpt lat="44.5862063235538" lon="10.046915563976766"><ele>892.0</ele><time>2026-04-03T14:10:21.98Z</time></trkpt><trkpt lat="44.58622160626357" lon="10.046742564315755"><ele>892.0</ele><time>2026-04-03T14:10:22.98Z</time></trkpt><trkpt lat="44.586255313144015" lon="10.046561606240422"><ele>892.0</ele><time>2026-04-03T14:10:23.98Z</time></trkpt><trkpt lat="44.58630015361277" lon="10.046361826878899"><ele>892.0</ele><time>2026-04-03T14:10:24.98Z</time></trkpt><trkpt lat="44.58634968090247" lon="10.046156271078958"><ele>890.0</ele><time>2026-04-03T14:10:25.98Z</time></trkpt><trkpt lat="44.586408658209805" lon="10.04595047960567"><ele>888.0</ele><time>2026-04-03T14:10:26.98Z</time></trkpt><trkpt lat="44.58648702237076" lon="10.045741721425816"><ele>886.0</ele><time>2026-04-03T14:10:27.98Z</time></trkpt><trkpt lat="44.58658983968374" lon="10.045542054862175"><ele>880.6666666666666</ele><time>2026-04-03T14:10:28.98Z</time></trkpt><trkpt lat="44.58669400800567" lon="10.045357891730392"><ele>875.3333333333333</ele><time>2026-04-03T14:10:29.98Z</time></trkpt><trkpt lat="44.5867711591506" lon="10.04515561241929"><ele>870.0</ele><time>2026-04-03T14:10:30.98Z</time></trkpt><trkpt lat="44.58680217355346" lon="10.044929698627183"><ele>865.3333333333333</ele><time>2026-04-03T14:10:31.98Z</time></trkpt><trkpt lat="44.5868211239612" lon="10.044673623858774"><ele>860.6666666666666</ele><time>2026-04-03T14:10:32.98Z</time></trkpt><trkpt lat="44.586847596769445" lon="10.044405929335955"><ele>856.0</ele><time>2026-04-03T14:10:33.98Z</time></trkpt><trkpt lat="44.586902774135396" lon="10.044160434743388"><ele>854.3333333333333</ele><time>2026-04-03T14:10:34.979Z</time></trkpt><trkpt lat="44.58692440524466" lon="10.043933205905946"><ele>852.6666666666667</ele><time>2026-04-03T14:10:35.979Z</time></trkpt><trkpt lat="44.586931243977155" lon="10.043714740821143"><ele>851.0</ele><time>2026-04-03T14:10:36.979Z</time></trkpt><trkpt lat="44.58696886294383" lon="10.043512338142369"><ele>852.0</ele><time>2026-04-03T14:10:37.979Z</time></trkpt><trkpt lat="44.58697276627105" lon="10.0432921642984"><ele>853.0</ele><time>2026-04-03T14:10:38.979Z</time></trkpt><trkpt lat="44.58701405309955" lon="10.043088376335183"><ele>854.0</ele><time>2026-04-03T14:10:39.979Z</time></trkpt><trkpt lat="44.58705066498984" lon="10.042889452249986"><ele>854.0</ele><time>2026-04-03T14:10:40.979Z</time></trkpt><trkpt lat="44.58705043222741" lon="10.042699791908767"><ele>854.0</ele><time>2026-04-03T14:10:41.979Z</time></trkpt><trkpt lat="44.587004522591016" lon="10.042494789910382"><ele>854.0</ele><time>2026-04-03T14:10:42.979Z</time></trkpt><trkpt lat="44.58691444754688" lon="10.042290566452317"><ele>856.6666666666667</ele><time>2026-04-03T14:10:43.98Z</time></trkpt><trkpt lat="44.58680662810829" lon="10.042078583788115"><ele>859.3333333333333</ele><time>2026-04-03T14:10:44.979Z</time></trkpt><trkpt lat="44.58672931254019" lon="10.041857046484742"><ele>862.0</ele><time>2026-04-03T14:10:45.979Z</time></trkpt><trkpt lat="44.586671933924464" lon="10.04164452103575"><ele>860.6666666666666</ele><time>2026-04-03T14:10:46.979Z</time></trkpt><trkpt lat="44.58663420366698" lon="10.041440594237818"><ele>859.3333333333333</ele><time>2026-04-03T14:10:47.979Z</time></trkpt><trkpt lat="44.58662617123552" lon="10.04123479681956"><ele>858.0</ele><time>2026-04-03T14:10:48.979Z</time></trkpt><trkpt lat="44.586647439618865" lon="10.041009447133908"><ele>853.0</ele><time>2026-04-03T14:10:49.979Z</time></trkpt><trkpt lat="44.5866894304702" lon="10.040778904537692"><ele>848.0</ele><time>2026-04-03T14:10:50.979Z</time></trkpt><trkpt lat="44.58672305240605" lon="10.040561456771101"><ele>843.0</ele><time>2026-04-03T14:10:51.979Z</time></trkpt><trkpt lat="44.58674454626458" lon="10.040371031854349"><ele>843.0</ele><time>2026-04-03T14:10:52.979Z</time></trkpt><trkpt lat="44.5867691966876" lon="10.040206144049336"><ele>843.0</ele><time>2026-04-03T14:10:53.979Z</time></trkpt><trkpt lat="44.58682661828209" lon="10.04003513222219"><ele>843.0</ele><time>2026-04-03T14:10:54.979Z</time></trkpt><trkpt lat="44.586925887372956" lon="10.039874987350418"><ele>843.0</ele><time>2026-04-03T14:10:55.979Z</time></trkpt><trkpt lat="44.58705329310605" lon="10.0397241829414"><ele>846.6666666666667</ele><time>2026-04-03T14:10:56.979Z</time></trkpt><trkpt lat="44.58718414928504" lon="10.039558058541521"><ele>850.3333333333334</ele><time>2026-04-03T14:10:57.979Z</time></trkpt><trkpt lat="44.58730468373097" lon="10.03938792521104"><ele>854.0</ele><time>2026-04-03T14:10:58.979Z</time></trkpt><trkpt lat="44.58740851628089" lon="10.039230266243585"><ele>850.0</ele><time>2026-04-03T14:10:59.979Z</time></trkpt><trkpt lat="44.58748777227386" lon="10.039070997847846"><ele>846.0</ele><time>2026-04-03T14:11:00.979Z</time></trkpt><trkpt lat="44.58754127980931" lon="10.038874886020231"><ele>842.0</ele><time>2026-04-03T14:11:01.979Z</time></trkpt><trkpt lat="44.58757072532935" lon="10.038667359051185"><ele>838.0</ele><time>2026-04-03T14:11:02.979Z</time></trkpt><trkpt lat="44.58758145213101" lon="10.038435173472372"><ele>835.0</ele><time>2026-04-03T14:11:03.979Z</time></trkpt><trkpt lat="44.58761328323422" lon="10.038213516733451"><ele>832.0</ele><time>2026-04-03T14:11:04.979Z</time></trkpt><trkpt lat="44.58765330679173" lon="10.037996434007605"><ele>829.0</ele><time>2026-04-03T14:11:05.979Z</time></trkpt><trkpt lat="44.58769108310163" lon="10.037773154956144"><ele>829.0</ele><time>2026-04-03T14:11:06.979Z</time></trkpt><trkpt lat="44.58772944722418" lon="10.037555208654995"><ele>829.0</ele><time>2026-04-03T14:11:07.979Z</time></trkpt><trkpt lat="44.58776519984137" lon="10.037347857597268"><ele>829.0</ele><time>2026-04-03T14:11:08.979Z</time></trkpt><trkpt lat="44.58779328570828" lon="10.037151202877846"><ele>828.25</ele><time>2026-04-03T14:11:09.979Z</time></trkpt><trkpt lat="44.58781616454322" lon="10.036963578108779"><ele>827.5</ele><time>2026-04-03T14:11:10.979Z</time></trkpt><trkpt lat="44.587825972867115" lon="10.036779535911071"><ele>826.75</ele><time>2026-04-03T14:11:11.979Z</time></trkpt><trkpt lat="44.58780825271244" lon="10.036602094845392"><ele>826.0</ele><time>2026-04-03T14:11:12.979Z</time></trkpt><trkpt lat="44.58774325845519" lon="10.036429005915904"><ele>825.25</ele><time>2026-04-03T14:11:13.979Z</time></trkpt><trkpt lat="44.587670030130276" lon="10.036262193088476"><ele>824.5</ele><time>2026-04-03T14:11:14.979Z</time></trkpt><trkpt lat="44.58759902575821" lon="10.036103898365548"><ele>823.75</ele><time>2026-04-03T14:11:15.979Z</time></trkpt><trkpt lat="44.587555429494834" lon="10.035939638305486"><ele>823.0</ele><time>2026-04-03T14:11:16.979Z</time></trkpt><trkpt lat="44.5875483078069" lon="10.035765351226999"><ele>821.75</ele><time>2026-04-03T14:11:17.979Z</time></trkpt><trkpt lat="44.58758149987796" lon="10.035589281277963"><ele>820.5</ele><time>2026-04-03T14:11:18.979Z</time></trkpt><trkpt lat="44.58761967492516" lon="10.03542043563891"><ele>819.25</ele><time>2026-04-03T14:11:19.979Z</time></trkpt><trkpt lat="44.5876394258571" lon="10.035268310266192"><ele>818.0</ele><time>2026-04-03T14:11:20.979Z</time></trkpt><trkpt lat="44.58764526290952" lon="10.035138267638233"><ele>818.0</ele><time>2026-04-03T14:11:21.979Z</time></trkpt><trkpt lat="44.58759021628581" lon="10.035010737838505"><ele>818.0</ele><time>2026-04-03T14:11:22.979Z</time></trkpt><trkpt lat="44.587510009339105" lon="10.034905123080419"><ele>818.0</ele><time>2026-04-03T14:11:23.979Z</time></trkpt><trkpt lat="44.5874067567748" lon="10.034833055160865"><ele>818.0</ele><time>2026-04-03T14:11:24.979Z</time></trkpt><trkpt lat="44.58729572496074" lon="10.034797519684345"><ele>818.0</ele><time>2026-04-03T14:11:25.979Z</time></trkpt><trkpt lat="44.587196167227454" lon="10.034766541629203"><ele>816.5</ele><time>2026-04-03T14:11:26.979Z</time></trkpt><trkpt lat="44.587091869469965" lon="10.034738855684411"><ele>815.0</ele><time>2026-04-03T14:11:27.979Z</time></trkpt><trkpt lat="44.58697553502298" lon="10.034704971528615"><ele>813.5</ele><time>2026-04-03T14:11:28.979Z</time></trkpt><trkpt lat="44.58685720002154" lon="10.034660074395427"><ele>812.0</ele><time>2026-04-03T14:11:29.979Z</time></trkpt><trkpt lat="44.586746534506595" lon="10.034616845556627"><ele>810.0</ele><time>2026-04-03T14:11:30.979Z</time></trkpt><trkpt lat="44.58662762833874" lon="10.034585358430066"><ele>808.0</ele><time>2026-04-03T14:11:31.979Z</time></trkpt><trkpt lat="44.58650404644638" lon="10.034551450384031"><ele>806.0</ele><time>2026-04-03T14:11:32.979Z</time></trkpt><trkpt lat="44.58636969371302" lon="10.034516919254814"><ele>804.0</ele><time>2026-04-03T14:11:33.979Z</time></trkpt><trkpt lat="44.58623967591228" lon="10.034473167139982"><ele>803.25</ele><time>2026-04-03T14:11:34.979Z</time></trkpt><trkpt lat="44.5861069024437" lon="10.034431882248454"><ele>802.5</ele><time>2026-04-03T14:11:35.979Z</time></trkpt><trkpt lat="44.58597612642315" lon="10.034387253370463"><ele>801.75</ele><time>2026-04-03T14:11:36.979Z</time></trkpt><trkpt lat="44.585846964319984" lon="10.034341326089589"><ele>801.0</ele><time>2026-04-03T14:11:37.979Z</time></trkpt><trkpt lat="44.585715094503655" lon="10.034306148863617"><ele>801.0</ele><time>2026-04-03T14:11:38.979Z</time></trkpt><trkpt lat="44.58558458842506" lon="10.034264394972267"><ele>801.0</ele><time>2026-04-03T14:11:39.979Z</time></trkpt><trkpt lat="44.58546286122898" lon="10.034212697529389"><ele>801.0</ele><time>2026-04-03T14:11:40.979Z</time></trkpt><trkpt lat="44.58534228446744" lon="10.034140733277791"><ele>801.0</ele><time>2026-04-03T14:11:41.979Z</time></trkpt><trkpt lat="44.585226292846905" lon="10.034046250133253"><ele>800.0</ele><time>2026-04-03T14:11:42.979Z</time></trkpt><trkpt lat="44.58511918172684" lon="10.033919274308303"><ele>799.0</ele><time>2026-04-03T14:11:43.979Z</time></trkpt><trkpt lat="44.58502125399553" lon="10.033777420698947"><ele>798.0</ele><time>2026-04-03T14:11:44.979Z</time></trkpt><trkpt lat="44.58492981669509" lon="10.033635939787885"><ele>797.0</ele><time>2026-04-03T14:11:45.979Z</time></trkpt><trkpt lat="44.58483583694175" lon="10.033508272532504"><ele>797.0</ele><time>2026-04-03T14:11:46.979Z</time></trkpt><trkpt lat="44.58473980632272" lon="10.033373470950027"><ele>797.0</ele><time>2026-04-03T14:11:47.979Z</time></trkpt><trkpt lat="44.58464140101226" lon="10.033233733451096"><ele>797.0</ele><time>2026-04-03T14:11:48.979Z</time></trkpt><trkpt lat="44.58454129139905" lon="10.033096758187352"><ele>797.0</ele><time>2026-04-03T14:11:49.979Z</time></trkpt><trkpt lat="44.58443891179946" lon="10.03295834458197"><ele>795.25</ele><time>2026-04-03T14:11:50.979Z</time></trkpt><trkpt lat="44.584325621583396" lon="10.032826999031695"><ele>793.5</ele><time>2026-04-03T14:11:51.979Z</time></trkpt><trkpt lat="44.584208546909714" lon="10.032703903248148"><ele>791.75</ele><time>2026-04-03T14:11:52.979Z</time></trkpt><trkpt lat="44.584090039570896" lon="10.0325830278456"><ele>790.0</ele><time>2026-04-03T14:11:53.979Z</time></trkpt><trkpt lat="44.58396904093375" lon="10.032468746137607"><ele>786.25</ele><time>2026-04-03T14:11:54.979Z</time></trkpt><trkpt lat="44.58384414426038" lon="10.032369701271945"><ele>782.5</ele><time>2026-04-03T14:11:55.979Z</time></trkpt><trkpt lat="44.58371307549874" lon="10.032293354762913"><ele>778.75</ele><time>2026-04-03T14:11:56.979Z</time></trkpt><trkpt lat="44.58356976215611" lon="10.032241145317"><ele>775.0</ele><time>2026-04-03T14:11:57.979Z</time></trkpt><trkpt lat="44.583424922992506" lon="10.032200688978893"><ele>775.0</ele><time>2026-04-03T14:11:58.979Z</time></trkpt><trkpt lat="44.58327368554256" lon="10.032166378339433"><ele>775.0</ele><time>2026-04-03T14:11:59.979Z</time></trkpt><trkpt lat="44.58311670131583" lon="10.032108699172127"><ele>775.0</ele><time>2026-04-03T14:12:00.979Z</time></trkpt><trkpt lat="44.582967287702104" lon="10.032025268543414"><ele>774.3333333333333</ele><time>2026-04-03T14:12:01.979Z</time></trkpt><trkpt lat="44.58282262917124" lon="10.031922998727715"><ele>773.6666666666667</ele><time>2026-04-03T14:12:02.979Z</time></trkpt><trkpt lat="44.582683224191044" lon="10.03180666098337"><ele>773.0</ele><time>2026-04-03T14:12:03.979Z</time></trkpt><trkpt lat="44.5825533005124" lon="10.03166238703701"><ele>770.3333333333334</ele><time>2026-04-03T14:12:04.979Z</time></trkpt><trkpt lat="44.58243047069871" lon="10.031499368382338"><ele>767.6666666666667</ele><time>2026-04-03T14:12:05.979Z</time></trkpt><trkpt lat="44.582298672610314" lon="10.031330667812087"><ele>765.0</ele><time>2026-04-03T14:12:06.979Z</time></trkpt><trkpt lat="44.582162986288004" lon="10.03116558140102"><ele>765.0</ele><time>2026-04-03T14:12:07.979Z</time></trkpt><trkpt lat="44.58202806841083" lon="10.031006263043228"><ele>765.0</ele><time>2026-04-03T14:12:08.979Z</time></trkpt><trkpt lat="44.58190356524555" lon="10.03085255110005"><ele>765.0</ele><time>2026-04-03T14:12:09.979Z</time></trkpt><trkpt lat="44.58178441651337" lon="10.030713060952772"><ele>766.3333333333333</ele><time>2026-04-03T14:12:10.979Z</time></trkpt><trkpt lat="44.581657973699734" lon="10.030591995415431"><ele>767.6666666666666</ele><time>2026-04-03T14:12:11.979Z</time></trkpt><trkpt lat="44.58151554723315" lon="10.030507084598314"><ele>769.0</ele><time>2026-04-03T14:12:12.979Z</time></trkpt><trkpt lat="44.5813478242655" lon="10.030447060507687"><ele>770.3333333333333</ele><time>2026-04-03T14:12:13.979Z</time></trkpt><trkpt lat="44.58117609937108" lon="10.030413862355452"><ele>771.6666666666667</ele><time>2026-04-03T14:12:14.98Z</time></trkpt><trkpt lat="44.58101138935112" lon="10.030389865843874"><ele>773.0</ele><time>2026-04-03T14:12:15.98Z</time></trkpt><trkpt lat="44.58083838394371" lon="10.030350034243467"><ele>773.0</ele><time>2026-04-03T14:12:16.98Z</time></trkpt><trkpt lat="44.58066619800743" lon="10.030288747992934"><ele>773.0</ele><time>2026-04-03T14:12:17.98Z</time></trkpt><trkpt lat="44.580493257070934" lon="10.030225978081447"><ele>773.0</ele><time>2026-04-03T14:12:18.98Z</time></trkpt><trkpt lat="44.580328960805694" lon="10.030181347906094"><ele>772.0</ele><time>2026-04-03T14:12:19.98Z</time></trkpt><trkpt lat="44.580163586139534" lon="10.030166349524425"><ele>771.0</ele><time>2026-04-03T14:12:20.98Z</time></trkpt><trkpt lat="44.57999482360508" lon="10.030177617187753"><ele>770.0</ele><time>2026-04-03T14:12:21.98Z</time></trkpt><trkpt lat="44.57982672858982" lon="10.030219948849401"><ele>770.0</ele><time>2026-04-03T14:12:22.98Z</time></trkpt><trkpt lat="44.579662127651545" lon="10.030274397493487"><ele>770.0</ele><time>2026-04-03T14:12:23.98Z</time></trkpt><trkpt lat="44.579503196522985" lon="10.030343106778185"><ele>770.0</ele><time>2026-04-03T14:12:24.98Z</time></trkpt><trkpt lat="44.57935742084547" lon="10.030431102948157"><ele>770.0</ele><time>2026-04-03T14:12:25.98Z</time></trkpt><trkpt lat="44.57922069365382" lon="10.0305271866252"><ele>770.0</ele><time>2026-04-03T14:12:26.98Z</time></trkpt><trkpt lat="44.57909372930609" lon="10.030612490866385"><ele>770.0</ele><time>2026-04-03T14:12:27.98Z</time></trkpt><trkpt lat="44.57897688043077" lon="10.030661082241336"><ele>770.0</ele><time>2026-04-03T14:12:28.98Z</time></trkpt><trkpt lat="44.57886467578917" lon="10.030656303934267"><ele>770.0</ele><time>2026-04-03T14:12:29.98Z</time></trkpt><trkpt lat="44.57873741126679" lon="10.030614236553406"><ele>770.0</ele><time>2026-04-03T14:12:30.98Z</time></trkpt><trkpt lat="44.57861127114676" lon="10.03053300240243"><ele>770.0</ele><time>2026-04-03T14:12:31.98Z</time></trkpt><trkpt lat="44.578480113000325" lon="10.030418798394964"><ele>770.0</ele><time>2026-04-03T14:12:32.98Z</time></trkpt><trkpt lat="44.57835889533745" lon="10.030293692246934"><ele>768.5</ele><time>2026-04-03T14:12:33.98Z</time></trkpt><trkpt lat="44.57824952398642" lon="10.030145321107003"><ele>767.0</ele><time>2026-04-03T14:12:34.98Z</time></trkpt><trkpt lat="44.57816384899913" lon="10.029976844831806"><ele>765.5</ele><time>2026-04-03T14:12:35.98Z</time></trkpt><trkpt lat="44.57810541543738" lon="10.029789417329587"><ele>764.0</ele><time>2026-04-03T14:12:36.98Z</time></trkpt><trkpt lat="44.57807709502278" lon="10.029591248681028"><ele>764.0</ele><time>2026-04-03T14:12:37.979Z</time></trkpt><trkpt lat="44.578066687957936" lon="10.029388490999096"><ele>764.0</ele><time>2026-04-03T14:12:38.979Z</time></trkpt><trkpt lat="44.57805274317568" lon="10.029191167638674"><ele>764.0</ele><time>2026-04-03T14:12:39.979Z</time></trkpt><trkpt lat="44.57800601357913" lon="10.029003355028854"><ele>764.0</ele><time>2026-04-03T14:12:40.979Z</time></trkpt><trkpt lat="44.57791232808272" lon="10.028835568930079"><ele>759.6666666666666</ele><time>2026-04-03T14:12:41.978Z</time></trkpt><trkpt lat="44.577785580246605" lon="10.02869651193098"><ele>755.3333333333334</ele><time>2026-04-03T14:12:42.978Z</time></trkpt><trkpt lat="44.57765239765302" lon="10.028577395049501"><ele>751.0</ele><time>2026-04-03T14:12:43.979Z</time></trkpt><trkpt lat="44.57753915441748" lon="10.028443997156693"><ele>748.6666666666667</ele><time>2026-04-03T14:12:44.978Z</time></trkpt><trkpt lat="44.57746186507073" lon="10.028273415197084"><ele>746.3333333333334</ele><time>2026-04-03T14:12:45.978Z</time></trkpt><trkpt lat="44.57740245264799" lon="10.028068629898298"><ele>744.0</ele><time>2026-04-03T14:12:46.979Z</time></trkpt><trkpt lat="44.57735840800823" lon="10.027843659639691"><ele>744.0</ele><time>2026-04-03T14:12:47.978Z</time></trkpt><trkpt lat="44.57731287606993" lon="10.027605770887709"><ele>744.0</ele><time>2026-04-03T14:12:48.978Z</time></trkpt><trkpt lat="44.57723324512985" lon="10.027380602042422"><ele>744.0</ele><time>2026-04-03T14:12:49.979Z</time></trkpt><trkpt lat="44.57712316896216" lon="10.027148168476364"><ele>742.6666666666666</ele><time>2026-04-03T14:12:50.978Z</time></trkpt><trkpt lat="44.57703456061704" lon="10.026911219055021"><ele>741.3333333333333</ele><time>2026-04-03T14:12:51.978Z</time></trkpt><trkpt lat="44.57697272164179" lon="10.026681376313777"><ele>740.0</ele><time>2026-04-03T14:12:52.978Z</time></trkpt><trkpt lat="44.5769239385509" lon="10.026467261232561"><ele>740.0</ele><time>2026-04-03T14:12:53.978Z</time></trkpt><trkpt lat="44.57686180563668" lon="10.02627482411925"><ele>740.0</ele><time>2026-04-03T14:12:54.978Z</time></trkpt><trkpt lat="44.576758759587655" lon="10.026110943188918"><ele>740.0</ele><time>2026-04-03T14:12:55.978Z</time></trkpt><trkpt lat="44.57662175154772" lon="10.025969051792524"><ele>740.0</ele><time>2026-04-03T14:12:56.978Z</time></trkpt><trkpt lat="44.57646695058582" lon="10.025832357325458"><ele>740.0</ele><time>2026-04-03T14:12:57.978Z</time></trkpt><trkpt lat="44.57630689907292" lon="10.025678105639477"><ele>740.0</ele><time>2026-04-03T14:12:58.978Z</time></trkpt><trkpt lat="44.576141785695164" lon="10.02550861157321"><ele>738.0</ele><time>2026-04-03T14:12:59.978Z</time></trkpt><trkpt lat="44.57597688746816" lon="10.02534475809183"><ele>736.0</ele><time>2026-04-03T14:13:00.978Z</time></trkpt><trkpt lat="44.57582410881401" lon="10.025178602119514"><ele>734.0</ele><time>2026-04-03T14:13:01.978Z</time></trkpt><trkpt lat="44.57568105730618" lon="10.025019485031441"><ele>733.0</ele><time>2026-04-03T14:13:02.978Z</time></trkpt><trkpt lat="44.57553869199688" lon="10.024876641196315"><ele>732.0</ele><time>2026-04-03T14:13:03.978Z</time></trkpt><trkpt lat="44.57537637099974" lon="10.024763378627581"><ele>731.0</ele><time>2026-04-03T14:13:04.978Z</time></trkpt><trkpt lat="44.57518891785185" lon="10.024680251501387"><ele>731.0</ele><time>2026-04-03T14:13:05.978Z</time></trkpt><trkpt lat="44.57499188013555" lon="10.02461985271376"><ele>731.0</ele><time>2026-04-03T14:13:06.978Z</time></trkpt><trkpt lat="44.57479141693196" lon="10.02455439361489"><ele>731.0</ele><time>2026-04-03T14:13:07.978Z</time></trkpt><trkpt lat="44.57459212098351" lon="10.024477408332855"><ele>733.0</ele><time>2026-04-03T14:13:08.979Z</time></trkpt><trkpt lat="44.574390514255" lon="10.024397360797861"><ele>735.0</ele><time>2026-04-03T14:13:09.979Z</time></trkpt><trkpt lat="44.57419375009694" lon="10.024319825807265"><ele>737.0</ele><time>2026-04-03T14:13:10.979Z</time></trkpt><trkpt lat="44.57400065313783" lon="10.024244214598323"><ele>737.0</ele><time>2026-04-03T14:13:11.979Z</time></trkpt><trkpt lat="44.57382174282757" lon="10.024170639175388"><ele>737.0</ele><time>2026-04-03T14:13:12.979Z</time></trkpt><trkpt lat="44.57365829882059" lon="10.024101349550515"><ele>737.0</ele><time>2026-04-03T14:13:13.979Z</time></trkpt><trkpt lat="44.57350347566917" lon="10.024020403341362"><ele>737.0</ele><time>2026-04-03T14:13:14.979Z</time></trkpt><trkpt lat="44.57336223712835" lon="10.023910336557064"><ele>737.0</ele><time>2026-04-03T14:13:15.979Z</time></trkpt><trkpt lat="44.57324513635022" lon="10.02374140619227"><ele>737.0</ele><time>2026-04-03T14:13:16.979Z</time></trkpt><trkpt lat="44.573146155100936" lon="10.023536033465824"><ele>735.6666666666666</ele><time>2026-04-03T14:13:17.979Z</time></trkpt><trkpt lat="44.5730633395783" lon="10.023296934480838"><ele>734.3333333333334</ele><time>2026-04-03T14:13:18.979Z</time></trkpt><trkpt lat="44.57296821558499" lon="10.023060851121086"><ele>733.0</ele><time>2026-04-03T14:13:19.979Z</time></trkpt><trkpt lat="44.572870553788135" lon="10.022844863566492"><ele>735.6666666666667</ele><time>2026-04-03T14:13:20.979Z</time></trkpt><trkpt lat="44.57276913181429" lon="10.022649683135693"><ele>738.3333333333334</ele><time>2026-04-03T14:13:21.979Z</time></trkpt><trkpt lat="44.572670136357964" lon="10.022470711965996"><ele>741.0</ele><time>2026-04-03T14:13:22.979Z</time></trkpt><trkpt lat="44.57255220940495" lon="10.022313036121705"><ele>742.0</ele><time>2026-04-03T14:13:23.979Z</time></trkpt><trkpt lat="44.572404961253824" lon="10.022184814024627"><ele>743.0</ele><time>2026-04-03T14:13:24.979Z</time></trkpt><trkpt lat="44.57224029789094" lon="10.022090512887937"><ele>744.0</ele><time>2026-04-03T14:13:25.979Z</time></trkpt><trkpt lat="44.572064565043604" lon="10.022013621823136"><ele>743.0</ele><time>2026-04-03T14:13:26.979Z</time></trkpt><trkpt lat="44.57187917918663" lon="10.021927829163868"><ele>742.0</ele><time>2026-04-03T14:13:27.979Z</time></trkpt><trkpt lat="44.5716967824621" lon="10.021844490269352"><ele>741.0</ele><time>2026-04-03T14:13:28.979Z</time></trkpt><trkpt lat="44.57152801245397" lon="10.021764186899677"><ele>741.0</ele><time>2026-04-03T14:13:29.979Z</time></trkpt><trkpt lat="44.571366884765204" lon="10.021684974058308"><ele>741.0</ele><time>2026-04-03T14:13:30.979Z</time></trkpt><trkpt lat="44.571222090878756" lon="10.021596287783481"><ele>741.0</ele><time>2026-04-03T14:13:31.979Z</time></trkpt><trkpt lat="44.57108773476594" lon="10.021477771192687"><ele>737.0</ele><time>2026-04-03T14:13:32.979Z</time></trkpt><trkpt lat="44.57095766075197" lon="10.021319627373776"><ele>733.0</ele><time>2026-04-03T14:13:33.979Z</time></trkpt><trkpt lat="44.57082405831192" lon="10.021141161862376"><ele>729.0</ele><time>2026-04-03T14:13:34.979Z</time></trkpt><trkpt lat="44.57070484331063" lon="10.02094752513538"><ele>726.5</ele><time>2026-04-03T14:13:35.979Z</time></trkpt><trkpt lat="44.57058960357788" lon="10.020783866248081"><ele>724.0</ele><time>2026-04-03T14:13:36.979Z</time></trkpt><trkpt lat="44.57048643115744" lon="10.020645527345453"><ele>721.5</ele><time>2026-04-03T14:13:37.979Z</time></trkpt><trkpt lat="44.57039179372349" lon="10.020532317767378"><ele>719.0</ele><time>2026-04-03T14:13:38.979Z</time></trkpt><trkpt lat="44.57028111440391" lon="10.020464401940805"><ele>718.6666666666666</ele><time>2026-04-03T14:13:39.979Z</time></trkpt><trkpt lat="44.57014965003342" lon="10.02044721000649"><ele>718.3333333333334</ele><time>2026-04-03T14:13:40.979Z</time></trkpt><trkpt lat="44.56999556542213" lon="10.020471530342299"><ele>718.0</ele><time>2026-04-03T14:13:41.979Z</time></trkpt><trkpt lat="44.569825137532604" lon="10.020499814094915"><ele>718.0</ele><time>2026-04-03T14:13:42.979Z</time></trkpt><trkpt lat="44.56965520183116" lon="10.020521074489373"><ele>718.0</ele><time>2026-04-03T14:13:43.979Z</time></trkpt><trkpt lat="44.569500846788486" lon="10.020516364725225"><ele>718.0</ele><time>2026-04-03T14:13:44.979Z</time></trkpt><trkpt lat="44.56935163738126" lon="10.020484327123343"><ele>715.6666666666667</ele><time>2026-04-03T14:13:45.979Z</time></trkpt><trkpt lat="44.56920393094298" lon="10.02041498575587"><ele>713.3333333333334</ele><time>2026-04-03T14:13:46.979Z</time></trkpt><trkpt lat="44.569061919715814" lon="10.020286735706549"><ele>711.0</ele><time>2026-04-03T14:13:47.979Z</time></trkpt><trkpt lat="44.568910838319" lon="10.020127442982153"><ele>709.3333333333334</ele><time>2026-04-03T14:13:48.979Z</time></trkpt><trkpt lat="44.56874319433605" lon="10.019966484866334"><ele>707.6666666666667</ele><time>2026-04-03T14:13:49.979Z</time></trkpt><trkpt lat="44.56855197174783" lon="10.0197992044559"><ele>706.0</ele><time>2026-04-03T14:13:50.979Z</time></trkpt><trkpt lat="44.56834753199471" lon="10.019610692765939"><ele>706.0</ele><time>2026-04-03T14:13:51.979Z</time></trkpt><trkpt lat="44.56812670936515" lon="10.019415957699367"><ele>706.0</ele><time>2026-04-03T14:13:52.979Z</time></trkpt><trkpt lat="44.567892791492014" lon="10.019214474359503"><ele>709.5</ele><time>2026-04-03T14:13:53.979Z</time></trkpt><trkpt lat="44.56765231794889" lon="10.019009422828676"><ele>713.0</ele><time>2026-04-03T14:13:54.979Z</time></trkpt><trkpt lat="44.56740917345798" lon="10.018804307901938"><ele>713.0</ele><time>2026-04-03T14:13:55.979Z</time></trkpt><trkpt lat="44.56719324361351" lon="10.018611085397005"><ele>713.0</ele><time>2026-04-03T14:13:56.979Z</time></trkpt><trkpt lat="44.566995644375154" lon="10.018436001776013"><ele>711.6666666666666</ele><time>2026-04-03T14:13:57.979Z</time></trkpt><trkpt lat="44.56681193523038" lon="10.018272542109004"><ele>710.3333333333334</ele><time>2026-04-03T14:13:58.979Z</time></trkpt><trkpt lat="44.566637854047386" lon="10.018117243906632"><ele>709.0</ele><time>2026-04-03T14:13:59.979Z</time></trkpt><trkpt lat="44.56647747455227" lon="10.01796781343162"><ele>709.0</ele><time>2026-04-03T14:14:00.979Z</time></trkpt><trkpt lat="44.5663200771882" lon="10.017854094504129"><ele>709.0</ele><time>2026-04-03T14:14:01.979Z</time></trkpt><trkpt lat="44.56615226361003" lon="10.017765196015336"><ele>709.0</ele><time>2026-04-03T14:14:02.979Z</time></trkpt><trkpt lat="44.56597596732476" lon="10.017709938986627"><ele>709.3333333333334</ele><time>2026-04-03T14:14:03.979Z</time></trkpt><trkpt lat="44.5657843447109" lon="10.017680162567183"><ele>709.6666666666666</ele><time>2026-04-03T14:14:04.979Z</time></trkpt><trkpt lat="44.565595461525284" lon="10.01765592553738"><ele>710.0</ele><time>2026-04-03T14:14:05.979Z</time></trkpt><trkpt lat="44.56541544652452" lon="10.017621019648718"><ele>709.0</ele><time>2026-04-03T14:14:06.979Z</time></trkpt><trkpt lat="44.56525003433865" lon="10.017552567085582"><ele>708.0</ele><time>2026-04-03T14:14:07.979Z</time></trkpt><trkpt lat="44.56508762674014" lon="10.017471471266592"><ele>707.0</ele><time>2026-04-03T14:14:08.979Z</time></trkpt><trkpt lat="44.564954613999355" lon="10.017352461584736"><ele>707.0</ele><time>2026-04-03T14:14:09.979Z</time></trkpt><trkpt lat="44.56483927393076" lon="10.017221783738053"><ele>707.0</ele><time>2026-04-03T14:14:10.979Z</time></trkpt><trkpt lat="44.56473066701476" lon="10.017126182118044"><ele>707.0</ele><time>2026-04-03T14:14:11.979Z</time></trkpt><trkpt lat="44.564604667207426" lon="10.017072149671634"><ele>707.0</ele><time>2026-04-03T14:14:12.979Z</time></trkpt><trkpt lat="44.56445748219066" lon="10.01706171516"><ele>708.25</ele><time>2026-04-03T14:14:13.979Z</time></trkpt><trkpt lat="44.56431351068438" lon="10.017072324266321"><ele>709.5</ele><time>2026-04-03T14:14:14.979Z</time></trkpt><trkpt lat="44.564174181855876" lon="10.017087549297461"><ele>710.75</ele><time>2026-04-03T14:14:15.979Z</time></trkpt><trkpt lat="44.564030978987844" lon="10.017034680197009"><ele>712.0</ele><time>2026-04-03T14:14:16.979Z</time></trkpt><trkpt lat="44.56389520698211" lon="10.016933845897839"><ele>712.0</ele><time>2026-04-03T14:14:17.979Z</time></trkpt><trkpt lat="44.56376409803301" lon="10.016791596208236"><ele>712.0</ele><time>2026-04-03T14:14:18.979Z</time></trkpt><trkpt lat="44.56363441487975" lon="10.016661685002664"><ele>712.0</ele><time>2026-04-03T14:14:19.979Z</time></trkpt><trkpt lat="44.56350639829984" lon="10.016531347484595"><ele>713.3333333333334</ele><time>2026-04-03T14:14:20.979Z</time></trkpt><trkpt lat="44.56338927714207" lon="10.016388359743708"><ele>714.6666666666666</ele><time>2026-04-03T14:14:21.979Z</time></trkpt><trkpt lat="44.56328990649921" lon="10.016220171525838"><ele>716.0</ele><time>2026-04-03T14:14:22.979Z</time></trkpt><trkpt lat="44.56321506056482" lon="10.016011363060594"><ele>715.3333333333333</ele><time>2026-04-03T14:14:23.979Z</time></trkpt><trkpt lat="44.563161481541854" lon="10.0157832831251"><ele>714.6666666666666</ele><time>2026-04-03T14:14:24.979Z</time></trkpt><trkpt lat="44.56311701227188" lon="10.01555344734404"><ele>714.0</ele><time>2026-04-03T14:14:25.979Z</time></trkpt><trkpt lat="44.56306457516426" lon="10.015330131576185"><ele>714.0</ele><time>2026-04-03T14:14:26.979Z</time></trkpt><trkpt lat="44.56301778236117" lon="10.015126873776385"><ele>714.0</ele><time>2026-04-03T14:14:27.979Z</time></trkpt><trkpt lat="44.56297608303336" lon="10.014968892471341"><ele>714.0</ele><time>2026-04-03T14:14:28.979Z</time></trkpt><trkpt lat="44.56292355845995" lon="10.014855676060526"><ele>714.0</ele><time>2026-04-03T14:14:29.979Z</time></trkpt><trkpt lat="44.56283884545757" lon="10.014787347738396"><ele>715.5</ele><time>2026-04-03T14:14:30.979Z</time></trkpt><trkpt lat="44.562732027955036" lon="10.01478104835193"><ele>717.0</ele><time>2026-04-03T14:14:31.979Z</time></trkpt><trkpt lat="44.562608747287484" lon="10.014830065302299"><ele>718.5</ele><time>2026-04-03T14:14:32.979Z</time></trkpt><trkpt lat="44.56246639055893" lon="10.014897684910007"><ele>720.0</ele><time>2026-04-03T14:14:33.979Z</time></trkpt><trkpt lat="44.562314168205276" lon="10.014961099850877"><ele>722.0</ele><time>2026-04-03T14:14:34.979Z</time></trkpt><trkpt lat="44.56217321401913" lon="10.014995444338902"><ele>724.0</ele><time>2026-04-03T14:14:35.979Z</time></trkpt><trkpt lat="44.56205719235159" lon="10.014994302728114"><ele>726.0</ele><time>2026-04-03T14:14:36.979Z</time></trkpt><trkpt lat="44.56194865993293" lon="10.014940217516186"><ele>728.0</ele><time>2026-04-03T14:14:37.979Z</time></trkpt><trkpt lat="44.56184039435097" lon="10.01485503410906"><ele>728.0</ele><time>2026-04-03T14:14:38.979Z</time></trkpt><trkpt lat="44.561733521511165" lon="10.014767282215045"><ele>728.0</ele><time>2026-04-03T14:14:39.979Z</time></trkpt><trkpt lat="44.56162786404248" lon="10.014686631506907"><ele>728.0</ele><time>2026-04-03T14:14:40.979Z</time></trkpt><trkpt lat="44.561515670075636" lon="10.014610565426448"><ele>728.0</ele><time>2026-04-03T14:14:41.979Z</time></trkpt><trkpt lat="44.561404651867356" lon="10.014531262969108"><ele>728.0</ele><time>2026-04-03T14:14:42.979Z</time></trkpt><trkpt lat="44.56129522860461" lon="10.014455668052475"><ele>728.0</ele><time>2026-04-03T14:14:43.978Z</time></trkpt><trkpt lat="44.56118184604385" lon="10.014375297714148"><ele>728.0</ele><time>2026-04-03T14:14:44.978Z</time></trkpt><trkpt lat="44.561068627119674" lon="10.014309468051506"><ele>728.0</ele><time>2026-04-03T14:14:45.978Z</time></trkpt><trkpt lat="44.56095626638715" lon="10.01426252321233"><ele>730.75</ele><time>2026-04-03T14:14:46.978Z</time></trkpt><trkpt lat="44.560833437659305" lon="10.014237499672994"><ele>733.5</ele><time>2026-04-03T14:14:47.978Z</time></trkpt><trkpt lat="44.5607066194991" lon="10.01422189659233"><ele>736.25</ele><time>2026-04-03T14:14:48.978Z</time></trkpt><trkpt lat="44.56057851564929" lon="10.014207509976483"><ele>739.0</ele><time>2026-04-03T14:14:49.978Z</time></trkpt><trkpt lat="44.560452688344675" lon="10.014187304995886"><ele>741.75</ele><time>2026-04-03T14:14:50.978Z</time></trkpt><trkpt lat="44.56033308659341" lon="10.014152478925244"><ele>744.5</ele><time>2026-04-03T14:14:51.978Z</time></trkpt><trkpt lat="44.56022189353088" lon="10.014094061376806"><ele>747.25</ele><time>2026-04-03T14:14:52.978Z</time></trkpt><trkpt lat="44.56011149196102" lon="10.013995143425513"><ele>750.0</ele><time>2026-04-03T14:14:53.978Z</time></trkpt><trkpt lat="44.56002287884394" lon="10.013851462080984"><ele>750.0</ele><time>2026-04-03T14:14:54.978Z</time></trkpt><trkpt lat="44.55996592168405" lon="10.01366365860621"><ele>750.0</ele><time>2026-04-03T14:14:55.978Z</time></trkpt><trkpt lat="44.55992051886741" lon="10.013466888677558"><ele>750.0</ele><time>2026-04-03T14:14:56.978Z</time></trkpt><trkpt lat="44.55987129328019" lon="10.013263649734021"><ele>750.0</ele><time>2026-04-03T14:14:57.978Z</time></trkpt><trkpt lat="44.559823615449154" lon="10.013059052588183"><ele>750.0</ele><time>2026-04-03T14:14:58.978Z</time></trkpt><trkpt lat="44.55977608224367" lon="10.012848764406764"><ele>750.0</ele><time>2026-04-03T14:14:59.978Z</time></trkpt><trkpt lat="44.5597214152146" lon="10.012626886576161"><ele>750.0</ele><time>2026-04-03T14:15:00.978Z</time></trkpt><trkpt lat="44.55966598958274" lon="10.012402455167134"><ele>751.0</ele><time>2026-04-03T14:15:01.978Z</time></trkpt><trkpt lat="44.5596279061067" lon="10.012163400205612"><ele>752.0</ele><time>2026-04-03T14:15:02.978Z</time></trkpt><trkpt lat="44.559613235562615" lon="10.01191832241126"><ele>753.0</ele><time>2026-04-03T14:15:03.978Z</time></trkpt><trkpt lat="44.559613200679" lon="10.011689271277257"><ele>751.75</ele><time>2026-04-03T14:15:04.978Z</time></trkpt><trkpt lat="44.55960727949007" lon="10.011475913098655"><ele>750.5</ele><time>2026-04-03T14:15:05.978Z</time></trkpt><trkpt lat="44.55957693571212" lon="10.011277373763878"><ele>749.25</ele><time>2026-04-03T14:15:06.978Z</time></trkpt><trkpt lat="44.55953005970678" lon="10.011080089095032"><ele>748.0</ele><time>2026-04-03T14:15:07.978Z</time></trkpt><trkpt lat="44.55945586756264" lon="10.010903068087055"><ele>751.75</ele><time>2026-04-03T14:15:08.978Z</time></trkpt><trkpt lat="44.559371042174135" lon="10.010754361676534"><ele>755.5</ele><time>2026-04-03T14:15:09.978Z</time></trkpt><trkpt lat="44.55927407172969" lon="10.010646891862972"><ele>759.25</ele><time>2026-04-03T14:15:10.978Z</time></trkpt><trkpt lat="44.559128054607264" lon="10.010564287619285"><ele>763.0</ele><time>2026-04-03T14:15:11.978Z</time></trkpt><trkpt lat="44.558954529742174" lon="10.010473165459178"><ele>763.0</ele><time>2026-04-03T14:15:12.978Z</time></trkpt><trkpt lat="44.55878834443003" lon="10.010361973305711"><ele>763.0</ele><time>2026-04-03T14:15:13.978Z</time></trkpt><trkpt lat="44.558630029054065" lon="10.010220727752682"><ele>763.0</ele><time>2026-04-03T14:15:14.978Z</time></trkpt><trkpt lat="44.55848687034365" lon="10.010077566356092"><ele>769.0</ele><time>2026-04-03T14:15:15.978Z</time></trkpt><trkpt lat="44.558365159520946" lon="10.00994320243939"><ele>775.0</ele><time>2026-04-03T14:15:16.978Z</time></trkpt><trkpt lat="44.55826213586962" lon="10.009793872431224"><ele>781.0</ele><time>2026-04-03T14:15:17.978Z</time></trkpt><trkpt lat="44.55817778770662" lon="10.009600946046179"><ele>781.0</ele><time>2026-04-03T14:15:18.978Z</time></trkpt><trkpt lat="44.55812185960457" lon="10.009364569634625"><ele>781.0</ele><time>2026-04-03T14:15:19.978Z</time></trkpt><trkpt lat="44.55807221749353" lon="10.00912521354478"><ele>781.0</ele><time>2026-04-03T14:15:20.978Z</time></trkpt><trkpt lat="44.55800293550071" lon="10.008915880746224"><ele>778.6666666666666</ele><time>2026-04-03T14:15:21.978Z</time></trkpt><trkpt lat="44.55790862944656" lon="10.008733532684724"><ele>776.3333333333333</ele><time>2026-04-03T14:15:22.978Z</time></trkpt><trkpt lat="44.55779344989207" lon="10.008586603201522"><ele>774.0</ele><time>2026-04-03T14:15:23.978Z</time></trkpt><trkpt lat="44.557683482241245" lon="10.008433775969348"><ele>777.3333333333333</ele><time>2026-04-03T14:15:24.978Z</time></trkpt><trkpt lat="44.55759608717511" lon="10.00824738782044"><ele>780.6666666666666</ele><time>2026-04-03T14:15:25.978Z</time></trkpt><trkpt lat="44.55755971313154" lon="10.00803436333017"><ele>784.0</ele><time>2026-04-03T14:15:26.978Z</time></trkpt><trkpt lat="44.557538458154426" lon="10.007838091819972"><ele>784.0</ele><time>2026-04-03T14:15:27.978Z</time></trkpt><trkpt lat="44.557499629232524" lon="10.007708743776947"><ele>784.0</ele><time>2026-04-03T14:15:28.978Z</time></trkpt><trkpt lat="44.55742327849953" lon="10.007631134115057"><ele>784.0</ele><time>2026-04-03T14:15:29.978Z</time></trkpt><trkpt lat="44.557283690744875" lon="10.007606112922579"><ele>784.0</ele><time>2026-04-03T14:15:30.978Z</time></trkpt><trkpt lat="44.55714479017835" lon="10.00761565988553"><ele>787.5</ele><time>2026-04-03T14:15:31.978Z</time></trkpt><trkpt lat="44.55700884881755" lon="10.00765993385585"><ele>791.0</ele><time>2026-04-03T14:15:32.978Z</time></trkpt><trkpt lat="44.55687157753524" lon="10.007720274199405"><ele>794.5</ele><time>2026-04-03T14:15:33.978Z</time></trkpt><trkpt lat="44.556751676699186" lon="10.00774448468121"><ele>798.0</ele><time>2026-04-03T14:15:34.978Z</time></trkpt><trkpt lat="44.55665238983122" lon="10.007723267647604"><ele>798.0</ele><time>2026-04-03T14:15:35.978Z</time></trkpt><trkpt lat="44.55657477324326" lon="10.007640106488367"><ele>798.0</ele><time>2026-04-03T14:15:36.978Z</time></trkpt><trkpt lat="44.55652114125781" lon="10.007499571414634"><ele>798.0</ele><time>2026-04-03T14:15:37.978Z</time></trkpt><trkpt lat="44.55651607861537" lon="10.007335810636476"><ele>798.0</ele><time>2026-04-03T14:15:38.978Z</time></trkpt><trkpt lat="44.55650577718969" lon="10.007178392562832"><ele>798.0</ele><time>2026-04-03T14:15:39.978Z</time></trkpt><trkpt lat="44.55645920764258" lon="10.007036324534067"><ele>799.6666666666667</ele><time>2026-04-03T14:15:40.978Z</time></trkpt><trkpt lat="44.55635756025644" lon="10.006912987826924"><ele>801.3333333333334</ele><time>2026-04-03T14:15:41.978Z</time></trkpt><trkpt lat="44.55621644908829" lon="10.006780078293325"><ele>803.0</ele><time>2026-04-03T14:15:42.978Z</time></trkpt><trkpt lat="44.556064237912686" lon="10.0066334506873"><ele>803.0</ele><time>2026-04-03T14:15:43.978Z</time></trkpt><trkpt lat="44.55592654265542" lon="10.006495234159544"><ele>803.0</ele><time>2026-04-03T14:15:44.978Z</time></trkpt><trkpt lat="44.55581827100288" lon="10.00637582728922"><ele>803.0</ele><time>2026-04-03T14:15:45.978Z</time></trkpt><trkpt lat="44.55571934506184" lon="10.006251147468195"><ele>803.0</ele><time>2026-04-03T14:15:46.978Z</time></trkpt><trkpt lat="44.55563442172806" lon="10.006081841735961"><ele>803.0</ele><time>2026-04-03T14:15:47.978Z</time></trkpt><trkpt lat="44.555570757319614" lon="10.005878746176116"><ele>803.0</ele><time>2026-04-03T14:15:48.978Z</time></trkpt><trkpt lat="44.55552178112248" lon="10.005670056670988"><ele>803.0</ele><time>2026-04-03T14:15:49.978Z</time></trkpt><trkpt lat="44.55548541343067" lon="10.005468835970058"><ele>803.0</ele><time>2026-04-03T14:15:50.978Z</time></trkpt><trkpt lat="44.55548375153374" lon="10.005268313116312"><ele>803.0</ele><time>2026-04-03T14:15:51.978Z</time></trkpt><trkpt lat="44.5555203297026" lon="10.005063704655758"><ele>803.0</ele><time>2026-04-03T14:15:52.978Z</time></trkpt><trkpt lat="44.55557295554164" lon="10.004868980231373"><ele>803.0</ele><time>2026-04-03T14:15:53.978Z</time></trkpt><trkpt lat="44.55563123715156" lon="10.004701819035752"><ele>803.25</ele><time>2026-04-03T14:15:54.978Z</time></trkpt><trkpt lat="44.55566349054998" lon="10.004529598565245"><ele>803.5</ele><time>2026-04-03T14:15:55.978Z</time></trkpt><trkpt lat="44.55566165637473" lon="10.004355844756354"><ele>803.75</ele><time>2026-04-03T14:15:56.978Z</time></trkpt><trkpt lat="44.555628137071615" lon="10.00419116389572"><ele>804.0</ele><time>2026-04-03T14:15:57.978Z</time></trkpt><trkpt lat="44.55555577044802" lon="10.00405587669199"><ele>804.0</ele><time>2026-04-03T14:15:58.978Z</time></trkpt><trkpt lat="44.555463664952384" lon="10.003973609493068"><ele>804.0</ele><time>2026-04-03T14:15:59.978Z</time></trkpt><trkpt lat="44.55534781787307" lon="10.00394116645309"><ele>804.0</ele><time>2026-04-03T14:16:00.978Z</time></trkpt><trkpt lat="44.555225376986606" lon="10.003932261283945"><ele>804.0</ele><time>2026-04-03T14:16:01.978Z</time></trkpt><trkpt lat="44.555094112762966" lon="10.003910611529651"><ele>807.6666666666667</ele><time>2026-04-03T14:16:02.979Z</time></trkpt><trkpt lat="44.55494792173549" lon="10.003860970833301"><ele>811.3333333333334</ele><time>2026-04-03T14:16:03.979Z</time></trkpt><trkpt lat="44.554805430850834" lon="10.003773110186879"><ele>815.0</ele><time>2026-04-03T14:16:04.979Z</time></trkpt><trkpt lat="44.554670151047006" lon="10.003656029148605"><ele>818.3333333333334</ele><time>2026-04-03T14:16:05.979Z</time></trkpt><trkpt lat="44.55453784479474" lon="10.003517945297215"><ele>821.6666666666667</ele><time>2026-04-03T14:16:06.979Z</time></trkpt><trkpt lat="44.55441043674569" lon="10.003382581191612"><ele>825.0</ele><time>2026-04-03T14:16:07.979Z</time></trkpt><trkpt lat="44.55429283645437" lon="10.003269210475196"><ele>825.0</ele><time>2026-04-03T14:16:08.979Z</time></trkpt><trkpt lat="44.554190201239734" lon="10.00315686907819"><ele>825.0</ele><time>2026-04-03T14:16:09.979Z</time></trkpt><trkpt lat="44.55410593881728" lon="10.002996830320608"><ele>825.0</ele><time>2026-04-03T14:16:10.979Z</time></trkpt><trkpt lat="44.55404328217303" lon="10.002797782039933"><ele>825.0</ele><time>2026-04-03T14:16:11.979Z</time></trkpt><trkpt lat="44.554003150702336" lon="10.002570175435894"><ele>823.3333333333333</ele><time>2026-04-03T14:16:12.979Z</time></trkpt><trkpt lat="44.55395317108726" lon="10.002344854456275"><ele>821.6666666666666</ele><time>2026-04-03T14:16:13.979Z</time></trkpt><trkpt lat="44.55389996609157" lon="10.002114152178875"><ele>820.0</ele><time>2026-04-03T14:16:14.979Z</time></trkpt><trkpt lat="44.55385231493556" lon="10.001904029243963"><ele>820.0</ele><time>2026-04-03T14:16:15.979Z</time></trkpt><trkpt lat="44.55380819386577" lon="10.001721398559809"><ele>820.0</ele><time>2026-04-03T14:16:16.979Z</time></trkpt><trkpt lat="44.55375121875397" lon="10.001559162993544"><ele>820.0</ele><time>2026-04-03T14:16:17.979Z</time></trkpt><trkpt lat="44.5536757141521" lon="10.001433774965784"><ele>820.0</ele><time>2026-04-03T14:16:18.979Z</time></trkpt><trkpt lat="44.55357792398933" lon="10.001339555608572"><ele>821.25</ele><time>2026-04-03T14:16:19.979Z</time></trkpt><trkpt lat="44.553475761105695" lon="10.001273753243161"><ele>822.5</ele><time>2026-04-03T14:16:20.979Z</time></trkpt><trkpt lat="44.55335218566601" lon="10.0012711913041"><ele>823.75</ele><time>2026-04-03T14:16:21.979Z</time></trkpt><trkpt lat="44.553238905628895" lon="10.001323237333363"><ele>825.0</ele><time>2026-04-03T14:16:22.979Z</time></trkpt><trkpt lat="44.55313273388332" lon="10.001428131801708"><ele>825.0</ele><time>2026-04-03T14:16:23.979Z</time></trkpt><trkpt lat="44.55302655337389" lon="10.001556085428767"><ele>825.0</ele><time>2026-04-03T14:16:24.979Z</time></trkpt><trkpt lat="44.55292612486213" lon="10.001714086265608"><ele>825.0</ele><time>2026-04-03T14:16:25.979Z</time></trkpt><trkpt lat="44.55282487868325" lon="10.001877816800402"><ele>825.0</ele><time>2026-04-03T14:16:26.979Z</time></trkpt><trkpt lat="44.55271749106802" lon="10.002027433832414"><ele>829.0</ele><time>2026-04-03T14:16:27.979Z</time></trkpt><trkpt lat="44.552594834185854" lon="10.00213493782173"><ele>833.0</ele><time>2026-04-03T14:16:28.979Z</time></trkpt><trkpt lat="44.55244375410538" lon="10.002175109253756"><ele>837.0</ele><time>2026-04-03T14:16:29.979Z</time></trkpt><trkpt lat="44.55229438066039" lon="10.002184009224695"><ele>841.0</ele><time>2026-04-03T14:16:30.979Z</time></trkpt><trkpt lat="44.55214367870574" lon="10.002201980553131"><ele>841.5</ele><time>2026-04-03T14:16:31.979Z</time></trkpt><trkpt lat="44.55199001261325" lon="10.002219119561849"><ele>842.0</ele><time>2026-04-03T14:16:32.979Z</time></trkpt><trkpt lat="44.55184010275467" lon="10.002207965003183"><ele>842.5</ele><time>2026-04-03T14:16:33.979Z</time></trkpt><trkpt lat="44.55170446031176" lon="10.00215608692189"><ele>843.0</ele><time>2026-04-03T14:16:34.979Z</time></trkpt><trkpt lat="44.551569189653165" lon="10.002089749466531"><ele>843.0</ele><time>2026-04-03T14:16:35.979Z</time></trkpt><trkpt lat="44.551438682527774" lon="10.002032053886124"><ele>843.0</ele><time>2026-04-03T14:16:36.979Z</time></trkpt><trkpt lat="44.551324043027364" lon="10.002004847608928"><ele>843.0</ele><time>2026-04-03T14:16:37.979Z</time></trkpt><trkpt lat="44.551220569806596" lon="10.002022454670799"><ele>843.0</ele><time>2026-04-03T14:16:38.979Z</time></trkpt><trkpt lat="44.55112254371155" lon="10.002099236891153"><ele>843.0</ele><time>2026-04-03T14:16:39.979Z</time></trkpt><trkpt lat="44.551041099994016" lon="10.002237751681786"><ele>843.0</ele><time>2026-04-03T14:16:40.979Z</time></trkpt><trkpt lat="44.55096693321255" lon="10.002392495322894"><ele>843.0</ele><time>2026-04-03T14:16:41.979Z</time></trkpt><trkpt lat="44.550889015830045" lon="10.002543333082244"><ele>843.0</ele><time>2026-04-03T14:16:42.979Z</time></trkpt><trkpt lat="44.55079024075123" lon="10.002707279459678"><ele>846.6666666666667</ele><time>2026-04-03T14:16:43.979Z</time></trkpt><trkpt lat="44.550683556028375" lon="10.002869113544097"><ele>850.3333333333334</ele><time>2026-04-03T14:16:44.979Z</time></trkpt><trkpt lat="44.550589292465716" lon="10.003037683585584"><ele>854.0</ele><time>2026-04-03T14:16:45.979Z</time></trkpt><trkpt lat="44.550489586161646" lon="10.003207558180474"><ele>856.0</ele><time>2026-04-03T14:16:46.979Z</time></trkpt><trkpt lat="44.5503965815073" lon="10.003358421790752"><ele>858.0</ele><time>2026-04-03T14:16:47.979Z</time></trkpt><trkpt lat="44.55030279389689" lon="10.003487817768892"><ele>860.0</ele><time>2026-04-03T14:16:48.979Z</time></trkpt><trkpt lat="44.550184350494966" lon="10.003588250481155"><ele>862.0</ele><time>2026-04-03T14:16:49.978Z</time></trkpt><trkpt lat="44.55005303904675" lon="10.003654010640654"><ele>862.0</ele><time>2026-04-03T14:16:50.978Z</time></trkpt><trkpt lat="44.549913539903166" lon="10.00366868894372"><ele>862.0</ele><time>2026-04-03T14:16:51.978Z</time></trkpt><trkpt lat="44.54976590041593" lon="10.003640683893751"><ele>862.0</ele><time>2026-04-03T14:16:52.978Z</time></trkpt><trkpt lat="44.54963338449742" lon="10.003577717230437"><ele>862.0</ele><time>2026-04-03T14:16:53.977Z</time></trkpt><trkpt lat="44.54950217648233" lon="10.003552210449476"><ele>862.25</ele><time>2026-04-03T14:16:54.977Z</time></trkpt><trkpt lat="44.549364558129945" lon="10.003574065689502"><ele>862.5</ele><time>2026-04-03T14:16:55.978Z</time></trkpt><trkpt lat="44.54922723584061" lon="10.00365342609552"><ele>862.75</ele><time>2026-04-03T14:16:56.978Z</time></trkpt><trkpt lat="44.54909370671925" lon="10.003750904542269"><ele>863.0</ele><time>2026-04-03T14:16:57.978Z</time></trkpt><trkpt lat="44.54895774356982" lon="10.003855546221208"><ele>863.0</ele><time>2026-04-03T14:16:58.977Z</time></trkpt><trkpt lat="44.548815591980606" lon="10.003954558414826"><ele>863.0</ele><time>2026-04-03T14:16:59.978Z</time></trkpt><trkpt lat="44.54867691401581" lon="10.004043371355227"><ele>863.0</ele><time>2026-04-03T14:17:00.978Z</time></trkpt><trkpt lat="44.54854436549808" lon="10.004103475096437"><ele>864.25</ele><time>2026-04-03T14:17:01.977Z</time></trkpt><trkpt lat="44.54842219718649" lon="10.004097503661958"><ele>865.5</ele><time>2026-04-03T14:17:02.977Z</time></trkpt><trkpt lat="44.54829970486673" lon="10.004013927720026"><ele>866.75</ele><time>2026-04-03T14:17:03.977Z</time></trkpt><trkpt lat="44.548174759485505" lon="10.003914749326622"><ele>868.0</ele><time>2026-04-03T14:17:04.977Z</time></trkpt><trkpt lat="44.54804409989221" lon="10.003844802382277"><ele>868.0</ele><time>2026-04-03T14:17:05.977Z</time></trkpt><trkpt lat="44.54790273851707" lon="10.003817048962503"><ele>868.0</ele><time>2026-04-03T14:17:06.977Z</time></trkpt><trkpt lat="44.54774810327586" lon="10.003838033450954"><ele>868.0</ele><time>2026-04-03T14:17:07.977Z</time></trkpt><trkpt lat="44.54759334693569" lon="10.003899311929802"><ele>869.6666666666666</ele><time>2026-04-03T14:17:08.977Z</time></trkpt><trkpt lat="44.547425351061804" lon="10.003942542327287"><ele>871.3333333333333</ele><time>2026-04-03T14:17:09.977Z</time></trkpt><trkpt lat="44.547253774763576" lon="10.003940586939722"><ele>873.0</ele><time>2026-04-03T14:17:10.977Z</time></trkpt><trkpt lat="44.54707196835143" lon="10.00389830840457"><ele>874.3333333333333</ele><time>2026-04-03T14:17:11.977Z</time></trkpt><trkpt lat="44.546893820532205" lon="10.00384219395987"><ele>875.6666666666666</ele><time>2026-04-03T14:17:12.977Z</time></trkpt><trkpt lat="44.5467414390785" lon="10.003801549610122"><ele>877.0</ele><time>2026-04-03T14:17:13.977Z</time></trkpt><trkpt lat="44.54659845704393" lon="10.003778407246108"><ele>877.0</ele><time>2026-04-03T14:17:14.977Z</time></trkpt><trkpt lat="44.54645250861794" lon="10.003779022827034"><ele>877.0</ele><time>2026-04-03T14:17:15.977Z</time></trkpt><trkpt lat="44.5463043964574" lon="10.003813690111677"><ele>877.0</ele><time>2026-04-03T14:17:16.977Z</time></trkpt><trkpt lat="44.54615847069774" lon="10.003862077308783"><ele>877.0</ele><time>2026-04-03T14:17:17.977Z</time></trkpt><trkpt lat="44.54601722174055" lon="10.003951244021769"><ele>879.6666666666666</ele><time>2026-04-03T14:17:18.977Z</time></trkpt><trkpt lat="44.545884525236296" lon="10.004071766641793"><ele>882.3333333333333</ele><time>2026-04-03T14:17:19.977Z</time></trkpt><trkpt lat="44.545752208482135" lon="10.004208210774387"><ele>885.0</ele><time>2026-04-03T14:17:20.977Z</time></trkpt><trkpt lat="44.54562134724441" lon="10.00435459877286"><ele>888.6666666666667</ele><time>2026-04-03T14:17:21.977Z</time></trkpt><trkpt lat="44.54549605473217" lon="10.004473572405743"><ele>892.3333333333334</ele><time>2026-04-03T14:17:22.977Z</time></trkpt><trkpt lat="44.545354247761495" lon="10.004540703495715"><ele>896.0</ele><time>2026-04-03T14:17:23.977Z</time></trkpt><trkpt lat="44.54520306776262" lon="10.004524483393931"><ele>896.6666666666667</ele><time>2026-04-03T14:17:24.977Z</time></trkpt><trkpt lat="44.54505319353548" lon="10.004475815727499"><ele>897.3333333333333</ele><time>2026-04-03T14:17:25.977Z</time></trkpt><trkpt lat="44.54490555893929" lon="10.004386245761856"><ele>898.0</ele><time>2026-04-03T14:17:26.977Z</time></trkpt><trkpt lat="44.54474161387814" lon="10.00430899697943"><ele>898.0</ele><time>2026-04-03T14:17:27.977Z</time></trkpt><trkpt lat="44.54457132457728" lon="10.004229039103892"><ele>898.0</ele><time>2026-04-03T14:17:28.977Z</time></trkpt><trkpt lat="44.54440556318714" lon="10.004169762520315"><ele>898.0</ele><time>2026-04-03T14:17:29.977Z</time></trkpt><trkpt lat="44.54426052335572" lon="10.004121654203031"><ele>897.0</ele><time>2026-04-03T14:17:30.977Z</time></trkpt><trkpt lat="44.54410934558634" lon="10.00410391687933"><ele>896.0</ele><time>2026-04-03T14:17:31.977Z</time></trkpt><trkpt lat="44.54394276702627" lon="10.004132453123297"><ele>895.0</ele><time>2026-04-03T14:17:32.977Z</time></trkpt><trkpt lat="44.54376792041746" lon="10.004175169433546"><ele>900.6666666666666</ele><time>2026-04-03T14:17:33.977Z</time></trkpt><trkpt lat="44.543582594067495" lon="10.004205468135037"><ele>906.3333333333333</ele><time>2026-04-03T14:17:34.977Z</time></trkpt><trkpt lat="44.54339515068122" lon="10.004201212030098"><ele>912.0</ele><time>2026-04-03T14:17:35.977Z</time></trkpt><trkpt lat="44.54321215854201" lon="10.004176778742794"><ele>909.3333333333333</ele><time>2026-04-03T14:17:36.977Z</time></trkpt><trkpt lat="44.543044320989466" lon="10.004134039289712"><ele>906.6666666666666</ele><time>2026-04-03T14:17:37.977Z</time></trkpt><trkpt lat="44.54289347875777" lon="10.004055942727454"><ele>904.0</ele><time>2026-04-03T14:17:38.977Z</time></trkpt><trkpt lat="44.54275670198513" lon="10.003941073136765"><ele>909.3333333333333</ele><time>2026-04-03T14:17:39.977Z</time></trkpt><trkpt lat="44.54264146821803" lon="10.00377215216418"><ele>914.6666666666667</ele><time>2026-04-03T14:17:40.977Z</time></trkpt><trkpt lat="44.54253888290949" lon="10.003588378610456"><ele>920.0</ele><time>2026-04-03T14:17:41.977Z</time></trkpt><trkpt lat="44.54246087008492" lon="10.003383614222471"><ele>919.0</ele><time>2026-04-03T14:17:42.977Z</time></trkpt><trkpt lat="44.542414714526515" lon="10.003163778522984"><ele>918.0</ele><time>2026-04-03T14:17:43.977Z</time></trkpt><trkpt lat="44.54237729816911" lon="10.00295289786821"><ele>917.0</ele><time>2026-04-03T14:17:44.977Z</time></trkpt><trkpt lat="44.54232932053273" lon="10.00278496368904"><ele>916.0</ele><time>2026-04-03T14:17:45.977Z</time></trkpt><trkpt lat="44.542247469424204" lon="10.00267559032221"><ele>916.0</ele><time>2026-04-03T14:17:46.977Z</time></trkpt><trkpt lat="44.54212751165765" lon="10.002606167360831"><ele>916.0</ele><time>2026-04-03T14:17:47.977Z</time></trkpt><trkpt lat="44.54197312060988" lon="10.002582174860203"><ele>916.0</ele><time>2026-04-03T14:17:48.977Z</time></trkpt><trkpt lat="44.541804036029475" lon="10.002564037535667"><ele>917.3333333333333</ele><time>2026-04-03T14:17:49.977Z</time></trkpt><trkpt lat="44.54163118401084" lon="10.002530203770021"><ele>918.6666666666667</ele><time>2026-04-03T14:17:50.977Z</time></trkpt><trkpt lat="44.54145953366237" lon="10.002489330932661"><ele>920.0</ele><time>2026-04-03T14:17:51.977Z</time></trkpt><trkpt lat="44.54131595908607" lon="10.002445719349266"><ele>923.6</ele><time>2026-04-03T14:17:52.977Z</time></trkpt><trkpt lat="44.54118533447552" lon="10.002419596954708"><ele>927.2</ele><time>2026-04-03T14:17:53.977Z</time></trkpt><trkpt lat="44.541090927674524" lon="10.002417260686558"><ele>930.8</ele><time>2026-04-03T14:17:54.977Z</time></trkpt><trkpt lat="44.541018014188275" lon="10.00246173216426"><ele>934.4</ele><time>2026-04-03T14:17:55.977Z</time></trkpt><trkpt lat="44.5409690931176" lon="10.002562325436331"><ele>938.0</ele><time>2026-04-03T14:17:56.977Z</time></trkpt><trkpt lat="44.5409725766214" lon="10.002692486392345"><ele>938.25</ele><time>2026-04-03T14:17:57.977Z</time></trkpt><trkpt lat="44.54103186570197" lon="10.002826887902525"><ele>938.5</ele><time>2026-04-03T14:17:58.977Z</time></trkpt><trkpt lat="44.54112919716161" lon="10.002919112329723"><ele>938.75</ele><time>2026-04-03T14:17:59.977Z</time></trkpt><trkpt lat="44.54124693335059" lon="10.002988376444776"><ele>939.0</ele><time>2026-04-03T14:18:00.977Z</time></trkpt><trkpt lat="44.54137283225067" lon="10.003080300319654"><ele>937.0</ele><time>2026-04-03T14:18:01.977Z</time></trkpt><trkpt lat="44.5414994074669" lon="10.003201464524214"><ele>935.0</ele><time>2026-04-03T14:18:02.977Z</time></trkpt><trkpt lat="44.541620196882434" lon="10.00333782963241"><ele>933.0</ele><time>2026-04-03T14:18:03.977Z</time></trkpt><trkpt lat="44.541742389343" lon="10.00348432780736"><ele>933.0</ele><time>2026-04-03T14:18:04.977Z</time></trkpt><trkpt lat="44.5418616666513" lon="10.003630236725085"><ele>933.0</ele><time>2026-04-03T14:18:05.977Z</time></trkpt><trkpt lat="44.541970107538326" lon="10.003753000455442"><ele>933.0</ele><time>2026-04-03T14:18:06.977Z</time></trkpt><trkpt lat="44.54205932954545" lon="10.003868758554768"><ele>933.0</ele><time>2026-04-03T14:18:07.977Z</time></trkpt><trkpt lat="44.54211833660638" lon="10.004000368746803"><ele>934.25</ele><time>2026-04-03T14:18:08.977Z</time></trkpt><trkpt lat="44.54213893773277" lon="10.004159631162183"><ele>935.5</ele><time>2026-04-03T14:18:09.977Z</time></trkpt><trkpt lat="44.54211764500041" lon="10.004317778824609"><ele>936.75</ele><time>2026-04-03T14:18:10.977Z</time></trkpt><trkpt lat="44.542052594713525" lon="10.004457521860044"><ele>938.0</ele><time>2026-04-03T14:18:11.977Z</time></trkpt><trkpt lat="44.54195751229671" lon="10.00454863638357"><ele>938.0</ele><time>2026-04-03T14:18:12.977Z</time></trkpt><trkpt lat="44.54183917245762" lon="10.00458949120143"><ele>938.0</ele><time>2026-04-03T14:18:13.977Z</time></trkpt><trkpt lat="44.54170690524445" lon="10.004583903094407"><ele>938.0</ele><time>2026-04-03T14:18:14.977Z</time></trkpt><trkpt lat="44.54157234631051" lon="10.004549565413665"><ele>938.0</ele><time>2026-04-03T14:18:15.977Z</time></trkpt><trkpt lat="44.54143636367471" lon="10.004487374468482"><ele>938.0</ele><time>2026-04-03T14:18:16.977Z</time></trkpt><trkpt lat="44.54130267269124" lon="10.004454125823264"><ele>938.0</ele><time>2026-04-03T14:18:17.977Z</time></trkpt><trkpt lat="44.54115635951656" lon="10.004495386270147"><ele>938.0</ele><time>2026-04-03T14:18:18.977Z</time></trkpt><trkpt lat="44.54100933261168" lon="10.004578258490216"><ele>938.0</ele><time>2026-04-03T14:18:19.977Z</time></trkpt><trkpt lat="44.5408710824261" lon="10.004670809609905"><ele>941.25</ele><time>2026-04-03T14:18:20.977Z</time></trkpt><trkpt lat="44.540749148442146" lon="10.004747466071906"><ele>944.5</ele><time>2026-04-03T14:18:21.977Z</time></trkpt><trkpt lat="44.540631086356214" lon="10.004809219620576"><ele>947.75</ele><time>2026-04-03T14:18:22.977Z</time></trkpt><trkpt lat="44.54048371572632" lon="10.004845412842238"><ele>951.0</ele><time>2026-04-03T14:18:23.977Z</time></trkpt><trkpt lat="44.54032743539102" lon="10.004828745736827"><ele>955.3333333333333</ele><time>2026-04-03T14:18:24.977Z</time></trkpt><trkpt lat="44.54015814156543" lon="10.004748423808163"><ele>959.6666666666666</ele><time>2026-04-03T14:18:25.977Z</time></trkpt><trkpt lat="44.53997554317631" lon="10.004641201104594"><ele>964.0</ele><time>2026-04-03T14:18:26.977Z</time></trkpt><trkpt lat="44.53979216617162" lon="10.004553124095041"><ele>964.0</ele><time>2026-04-03T14:18:27.977Z</time></trkpt><trkpt lat="44.5395981611186" lon="10.004499499074964"><ele>964.0</ele><time>2026-04-03T14:18:28.977Z</time></trkpt><trkpt lat="44.53939537883537" lon="10.004469883410405"><ele>964.0</ele><time>2026-04-03T14:18:29.977Z</time></trkpt><trkpt lat="44.53920553865602" lon="10.004429904936101"><ele>964.75</ele><time>2026-04-03T14:18:30.977Z</time></trkpt><trkpt lat="44.53904602116256" lon="10.004396242956425"><ele>965.5</ele><time>2026-04-03T14:18:31.977Z</time></trkpt><trkpt lat="44.53890775676157" lon="10.004343926637791"><ele>966.25</ele><time>2026-04-03T14:18:32.978Z</time></trkpt><trkpt lat="44.53878208181136" lon="10.004276262669153"><ele>967.0</ele><time>2026-04-03T14:18:33.978Z</time></trkpt><trkpt lat="44.53867378174961" lon="10.004176003416665"><ele>965.0</ele><time>2026-04-03T14:18:34.978Z</time></trkpt><trkpt lat="44.53856548387476" lon="10.004047144511887"><ele>963.0</ele><time>2026-04-03T14:18:35.978Z</time></trkpt><trkpt lat="44.53849477666371" lon="10.003856987599805"><ele>961.0</ele><time>2026-04-03T14:18:36.978Z</time></trkpt><trkpt lat="44.53843138791583" lon="10.003655432546003"><ele>961.0</ele><time>2026-04-03T14:18:37.978Z</time></trkpt><trkpt lat="44.53838147352186" lon="10.003452276349233"><ele>961.0</ele><time>2026-04-03T14:18:38.978Z</time></trkpt><trkpt lat="44.53835861334651" lon="10.00323242845562"><ele>961.0</ele><time>2026-04-03T14:18:39.978Z</time></trkpt><trkpt lat="44.53836662940818" lon="10.003003594236292"><ele>959.3333333333333</ele><time>2026-04-03T14:18:40.978Z</time></trkpt><trkpt lat="44.53840623713846" lon="10.0027680176033"><ele>957.6666666666667</ele><time>2026-04-03T14:18:41.978Z</time></trkpt><trkpt lat="44.53847179633654" lon="10.002534546039024"><ele>956.0</ele><time>2026-04-03T14:18:42.978Z</time></trkpt><trkpt lat="44.538542426717655" lon="10.002294486637503"><ele>956.0</ele><time>2026-04-03T14:18:43.978Z</time></trkpt><trkpt lat="44.53860444955407" lon="10.002077338211077"><ele>956.0</ele><time>2026-04-03T14:18:44.978Z</time></trkpt><trkpt lat="44.53863720767963" lon="10.001889985103523"><ele>956.0</ele><time>2026-04-03T14:18:45.978Z</time></trkpt><trkpt lat="44.53864177160523" lon="10.001702008433988"><ele>956.0</ele><time>2026-04-03T14:18:46.978Z</time></trkpt><trkpt lat="44.53860423566384" lon="10.001509793594767"><ele>956.0</ele><time>2026-04-03T14:18:47.978Z</time></trkpt><trkpt lat="44.538534503737786" lon="10.001309705555357"><ele>956.0</ele><time>2026-04-03T14:18:48.978Z</time></trkpt><trkpt lat="44.53845310197758" lon="10.001097428699877"><ele>956.0</ele><time>2026-04-03T14:18:49.978Z</time></trkpt><trkpt lat="44.53837179980902" lon="10.000861558990422"><ele>955.0</ele><time>2026-04-03T14:18:50.978Z</time></trkpt><trkpt lat="44.53829431087384" lon="10.000614173971488"><ele>954.0</ele><time>2026-04-03T14:18:51.978Z</time></trkpt><trkpt lat="44.538218829318694" lon="10.000359057330408"><ele>953.0</ele><time>2026-04-03T14:18:52.978Z</time></trkpt><trkpt lat="44.5381378194997" lon="10.000093613538526"><ele>953.0</ele><time>2026-04-03T14:18:53.978Z</time></trkpt><trkpt lat="44.5380521212356" lon="9.999835010112623"><ele>953.0</ele><time>2026-04-03T14:18:54.978Z</time></trkpt><trkpt lat="44.53798879581023" lon="9.999611209945677"><ele>953.0</ele><time>2026-04-03T14:18:55.977Z</time></trkpt><trkpt lat="44.5379134502224" lon="9.99937993215196"><ele>951.6666666666667</ele><time>2026-04-03T14:18:56.977Z</time></trkpt><trkpt lat="44.537843116962264" lon="9.999164186154506"><ele>950.3333333333333</ele><time>2026-04-03T14:18:57.977Z</time></trkpt><trkpt lat="44.53777886552463" lon="9.998960195160594"><ele>949.0</ele><time>2026-04-03T14:18:58.977Z</time></trkpt><trkpt lat="44.537708437774924" lon="9.998774521348738"><ele>949.0</ele><time>2026-04-03T14:18:59.977Z</time></trkpt><trkpt lat="44.53760928598855" lon="9.998613299961962"><ele>949.0</ele><time>2026-04-03T14:19:00.977Z</time></trkpt><trkpt lat="44.53747807115417" lon="9.998474726872768"><ele>949.0</ele><time>2026-04-03T14:19:01.977Z</time></trkpt><trkpt lat="44.537325431840316" lon="9.998361632981698"><ele>948.6666666666666</ele><time>2026-04-03T14:19:02.977Z</time></trkpt><trkpt lat="44.537164218174595" lon="9.998250171660343"><ele>948.3333333333333</ele><time>2026-04-03T14:19:03.977Z</time></trkpt><trkpt lat="44.53701293768956" lon="9.998134459358518"><ele>948.0</ele><time>2026-04-03T14:19:04.976Z</time></trkpt><trkpt lat="44.53687352170075" lon="9.998030051509504"><ele>948.0</ele><time>2026-04-03T14:19:05.977Z</time></trkpt><trkpt lat="44.5367271634519" lon="9.99796968346296"><ele>948.0</ele><time>2026-04-03T14:19:06.977Z</time></trkpt><trkpt lat="44.53657192013221" lon="9.99795939181388"><ele>948.0</ele><time>2026-04-03T14:19:07.977Z</time></trkpt><trkpt lat="44.53641617926042" lon="9.997985914462568"><ele>948.0</ele><time>2026-04-03T14:19:08.977Z</time></trkpt><trkpt lat="44.53627084067798" lon="9.998045210251435"><ele>948.0</ele><time>2026-04-03T14:19:09.977Z</time></trkpt><trkpt lat="44.536139866319566" lon="9.998153020858185"><ele>948.0</ele><time>2026-04-03T14:19:10.977Z</time></trkpt><trkpt lat="44.53602545726286" lon="9.998312735742159"><ele>946.6666666666667</ele><time>2026-04-03T14:19:11.977Z</time></trkpt><trkpt lat="44.53591697213357" lon="9.99849979408807"><ele>945.3333333333334</ele><time>2026-04-03T14:19:12.977Z</time></trkpt><trkpt lat="44.5358082826057" lon="9.998665684251131"><ele>944.0</ele><time>2026-04-03T14:19:13.977Z</time></trkpt><trkpt lat="44.53570698169586" lon="9.998800937167132"><ele>944.0</ele><time>2026-04-03T14:19:14.977Z</time></trkpt><trkpt lat="44.5356018471836" lon="9.998891593954422"><ele>944.0</ele><time>2026-04-03T14:19:15.977Z</time></trkpt><trkpt lat="44.53547879352354" lon="9.998929284886156"><ele>944.0</ele><time>2026-04-03T14:19:16.977Z</time></trkpt><trkpt lat="44.53535133067424" lon="9.998881025274567"><ele>944.0</ele><time>2026-04-03T14:19:17.977Z</time></trkpt><trkpt lat="44.535224265635414" lon="9.998773358746288"><ele>945.0</ele><time>2026-04-03T14:19:18.977Z</time></trkpt><trkpt lat="44.5351073651816" lon="9.99863012075408"><ele>946.0</ele><time>2026-04-03T14:19:19.977Z</time></trkpt><trkpt lat="44.53502841408378" lon="9.998356963349055"><ele>947.0</ele><time>2026-04-03T14:19:20.977Z</time></trkpt><trkpt lat="44.53492998283914" lon="9.998154155221316"><ele>947.0</ele><time>2026-04-03T14:19:21.977Z</time></trkpt><trkpt lat="44.53481860504209" lon="9.998016861078712"><ele>947.0</ele><time>2026-04-03T14:19:22.977Z</time></trkpt><trkpt lat="44.53468940295258" lon="9.997992530262676"><ele>947.0</ele><time>2026-04-03T14:19:23.977Z</time></trkpt><trkpt lat="44.53435597393005" lon="9.99810536889518"><ele>944.6666666666667</ele><time>2026-04-03T14:19:24.977Z</time></trkpt><trkpt lat="44.53412792938108" lon="9.998116625040009"><ele>942.3333333333333</ele><time>2026-04-03T14:19:25.977Z</time></trkpt><trkpt lat="44.5339121901406" lon="9.998129910989057"><ele>940.0</ele><time>2026-04-03T14:19:26.977Z</time></trkpt><trkpt lat="44.53375317860672" lon="9.99813021442803"><ele>940.0</ele><time>2026-04-03T14:19:27.977Z</time></trkpt><trkpt lat="44.533572176629946" lon="9.99811266205391"><ele>940.0</ele><time>2026-04-03T14:19:28.977Z</time></trkpt><trkpt lat="44.53338312310535" lon="9.998095610291251"><ele>940.0</ele><time>2026-04-03T14:19:29.977Z</time></trkpt><trkpt lat="44.533192433783434" lon="9.998086985789993"><ele>940.0</ele><time>2026-04-03T14:19:30.977Z</time></trkpt><trkpt lat="44.533013821151386" lon="9.998066618895054"><ele>940.0</ele><time>2026-04-03T14:19:31.977Z</time></trkpt><trkpt lat="44.53284146390453" lon="9.998066716102997"><ele>940.0</ele><time>2026-04-03T14:19:32.977Z</time></trkpt><trkpt lat="44.532683537036604" lon="9.998101727708576"><ele>940.25</ele><time>2026-04-03T14:19:33.977Z</time></trkpt><trkpt lat="44.532544517828825" lon="9.998192841670576"><ele>940.5</ele><time>2026-04-03T14:19:34.977Z</time></trkpt><trkpt lat="44.532422623041406" lon="9.998304062600956"><ele>940.75</ele><time>2026-04-03T14:19:35.977Z</time></trkpt><trkpt lat="44.53229769242926" lon="9.998383051606885"><ele>941.0</ele><time>2026-04-03T14:19:36.977Z</time></trkpt><trkpt lat="44.53217050444032" lon="9.998369715685769"><ele>938.3333333333334</ele><time>2026-04-03T14:19:37.977Z</time></trkpt><trkpt lat="44.532040274488615" lon="9.998282768445003"><ele>935.6666666666667</ele><time>2026-04-03T14:19:38.977Z</time></trkpt><trkpt lat="44.531911716694076" lon="9.998162885089776"><ele>933.0</ele><time>2026-04-03T14:19:39.977Z</time></trkpt><trkpt lat="44.531795110450744" lon="9.998022586313725"><ele>933.0</ele><time>2026-04-03T14:19:40.977Z</time></trkpt><trkpt lat="44.53169821514365" lon="9.997862683878514"><ele>933.0</ele><time>2026-04-03T14:19:41.977Z</time></trkpt><trkpt lat="44.531634415035" lon="9.997669033670629"><ele>933.0</ele><time>2026-04-03T14:19:42.977Z</time></trkpt><trkpt lat="44.53161137991471" lon="9.997450262962555"><ele>935.0</ele><time>2026-04-03T14:19:43.977Z</time></trkpt><trkpt lat="44.53160456217426" lon="9.99723077569937"><ele>937.0</ele><time>2026-04-03T14:19:44.977Z</time></trkpt><trkpt lat="44.53157123013572" lon="9.997036677473956"><ele>939.0</ele><time>2026-04-03T14:19:45.977Z</time></trkpt><trkpt lat="44.5315073268326" lon="9.996898361212684"><ele>941.0</ele><time>2026-04-03T14:19:46.977Z</time></trkpt><trkpt lat="44.53139971664571" lon="9.996821310121264"><ele>941.0</ele><time>2026-04-03T14:19:47.977Z</time></trkpt><trkpt lat="44.53126540157067" lon="9.996801623689898"><ele>941.0</ele><time>2026-04-03T14:19:48.977Z</time></trkpt><trkpt lat="44.53112563342474" lon="9.996834472235056"><ele>941.0</ele><time>2026-04-03T14:19:49.977Z</time></trkpt><trkpt lat="44.53099144688328" lon="9.99687259462735"><ele>941.0</ele><time>2026-04-03T14:19:50.977Z</time></trkpt><trkpt lat="44.530849391608854" lon="9.996857049548193"><ele>941.6666666666667</ele><time>2026-04-03T14:19:51.977Z</time></trkpt><trkpt lat="44.53070427987277" lon="9.996777690417682"><ele>942.3333333333333</ele><time>2026-04-03T14:19:52.977Z</time></trkpt><trkpt lat="44.5305641893179" lon="9.996657395114172"><ele>943.0</ele><time>2026-04-03T14:19:53.977Z</time></trkpt><trkpt lat="44.53041746898822" lon="9.996509379843854"><ele>939.0</ele><time>2026-04-03T14:19:54.977Z</time></trkpt><trkpt lat="44.53026018834261" lon="9.996364543036195"><ele>935.0</ele><time>2026-04-03T14:19:55.977Z</time></trkpt><trkpt lat="44.53009343424877" lon="9.996226049536734"><ele>931.0</ele><time>2026-04-03T14:19:56.977Z</time></trkpt><trkpt lat="44.529923611956434" lon="9.996086389658531"><ele>931.0</ele><time>2026-04-03T14:19:57.977Z</time></trkpt><trkpt lat="44.5297670826779" lon="9.995948129133122"><ele>931.0</ele><time>2026-04-03T14:19:58.977Z</time></trkpt><trkpt lat="44.52961939915241" lon="9.995834056342373"><ele>931.0</ele><time>2026-04-03T14:19:59.977Z</time></trkpt><trkpt lat="44.52948959346249" lon="9.995735577980257"><ele>932.5</ele><time>2026-04-03T14:20:00.977Z</time></trkpt><trkpt lat="44.52935346145578" lon="9.995683970775914"><ele>934.0</ele><time>2026-04-03T14:20:01.977Z</time></trkpt><trkpt lat="44.52921629309293" lon="9.995710248024343"><ele>935.5</ele><time>2026-04-03T14:20:02.977Z</time></trkpt><trkpt lat="44.529090559001915" lon="9.9958094112024"><ele>937.0</ele><time>2026-04-03T14:20:03.977Z</time></trkpt><trkpt lat="44.52898042876083" lon="9.995928675283114"><ele>934.5</ele><time>2026-04-03T14:20:04.977Z</time></trkpt><trkpt lat="44.52885047586467" lon="9.996005997524524"><ele>932.0</ele><time>2026-04-03T14:20:05.977Z</time></trkpt><trkpt lat="44.52872079457272" lon="9.996008392219482"><ele>929.5</ele><time>2026-04-03T14:20:06.977Z</time></trkpt><trkpt lat="44.52858507891659" lon="9.99591576769741"><ele>927.0</ele><time>2026-04-03T14:20:07.977Z</time></trkpt><trkpt lat="44.528474821238326" lon="9.995774788350257"><ele>927.0</ele><time>2026-04-03T14:20:08.977Z</time></trkpt><trkpt lat="44.52836717779895" lon="9.99560660638515"><ele>927.0</ele><time>2026-04-03T14:20:09.977Z</time></trkpt><trkpt lat="44.528258337031644" lon="9.995450650096618"><ele>927.0</ele><time>2026-04-03T14:20:10.977Z</time></trkpt><trkpt lat="44.52811633702286" lon="9.99532666034883"><ele>927.0</ele><time>2026-04-03T14:20:11.977Z</time></trkpt><trkpt lat="44.52795557377482" lon="9.9952405246804"><ele>927.0</ele><time>2026-04-03T14:20:12.977Z</time></trkpt><trkpt lat="44.52778733610397" lon="9.99518950885447"><ele>927.0</ele><time>2026-04-03T14:20:13.977Z</time></trkpt><trkpt lat="44.52761517198791" lon="9.995175101719575"><ele>928.0</ele><time>2026-04-03T14:20:14.977Z</time></trkpt><trkpt lat="44.52746185707172" lon="9.995132837215403"><ele>929.0</ele><time>2026-04-03T14:20:15.977Z</time></trkpt><trkpt lat="44.52732023002573" lon="9.995044810938428"><ele>930.0</ele><time>2026-04-03T14:20:16.977Z</time></trkpt><trkpt lat="44.52719169839355" lon="9.9949074288588"><ele>930.0</ele><time>2026-04-03T14:20:17.977Z</time></trkpt><trkpt lat="44.52708868098141" lon="9.99473763224675"><ele>930.0</ele><time>2026-04-03T14:20:18.977Z</time></trkpt><trkpt lat="44.52700569494918" lon="9.994551910273897"><ele>930.0</ele><time>2026-04-03T14:20:19.977Z</time></trkpt><trkpt lat="44.52690804271796" lon="9.994396148601927"><ele>927.0</ele><time>2026-04-03T14:20:20.977Z</time></trkpt><trkpt lat="44.52679019407287" lon="9.994301400943195"><ele>924.0</ele><time>2026-04-03T14:20:21.977Z</time></trkpt><trkpt lat="44.52665500175179" lon="9.994268940608592"><ele>921.0</ele><time>2026-04-03T14:20:22.977Z</time></trkpt><trkpt lat="44.52650834218208" lon="9.994296880533138"><ele>918.0</ele><time>2026-04-03T14:20:23.977Z</time></trkpt><trkpt lat="44.52636525065756" lon="9.994396887896368"><ele>918.0</ele><time>2026-04-03T14:20:24.977Z</time></trkpt><trkpt lat="44.526230328607525" lon="9.994530614405166"><ele>918.0</ele><time>2026-04-03T14:20:25.977Z</time></trkpt><trkpt lat="44.52608644163899" lon="9.994659869676942"><ele>918.0</ele><time>2026-04-03T14:20:26.977Z</time></trkpt><trkpt lat="44.525927184445585" lon="9.994773449944605"><ele>918.6666666666667</ele><time>2026-04-03T14:20:27.977Z</time></trkpt><trkpt lat="44.525764679016014" lon="9.994834481414685"><ele>919.3333333333334</ele><time>2026-04-03T14:20:28.977Z</time></trkpt><trkpt lat="44.525588952954706" lon="9.994864760298674"><ele>920.0</ele><time>2026-04-03T14:20:29.977Z</time></trkpt><trkpt lat="44.525402660995375" lon="9.994865072946576"><ele>921.3333333333334</ele><time>2026-04-03T14:20:30.977Z</time></trkpt><trkpt lat="44.52521647389245" lon="9.994859141569838"><ele>922.6666666666667</ele><time>2026-04-03T14:20:31.977Z</time></trkpt><trkpt lat="44.52504555746341" lon="9.994870222786435"><ele>924.0</ele><time>2026-04-03T14:20:32.977Z</time></trkpt><trkpt lat="44.524898518826035" lon="9.994892688921786"><ele>924.0</ele><time>2026-04-03T14:20:33.977Z</time></trkpt><trkpt lat="44.52477111563457" lon="9.994944406035408"><ele>924.0</ele><time>2026-04-03T14:20:34.977Z</time></trkpt><trkpt lat="44.5246585827165" lon="9.995060981225512"><ele>924.0</ele><time>2026-04-03T14:20:35.977Z</time></trkpt><trkpt lat="44.5245729563739" lon="9.99522213258854"><ele>924.0</ele><time>2026-04-03T14:20:36.978Z</time></trkpt><trkpt lat="44.52450974881441" lon="9.995400929137203"><ele>922.25</ele><time>2026-04-03T14:20:37.978Z</time></trkpt><trkpt lat="44.524440511722155" lon="9.995566530847784"><ele>920.5</ele><time>2026-04-03T14:20:38.978Z</time></trkpt><trkpt lat="44.52433559149441" lon="9.995672709947046"><ele>918.75</ele><time>2026-04-03T14:20:39.978Z</time></trkpt><trkpt lat="44.524192296048874" lon="9.995720432954332"><ele>917.0</ele><time>2026-04-03T14:20:40.978Z</time></trkpt><trkpt lat="44.52403404580265" lon="9.99572110130576"><ele>917.0</ele><time>2026-04-03T14:20:41.978Z</time></trkpt><trkpt lat="44.52386527101962" lon="9.995708696839326"><ele>917.0</ele><time>2026-04-03T14:20:42.978Z</time></trkpt><trkpt lat="44.52368912208262" lon="9.995709505671709"><ele>917.0</ele><time>2026-04-03T14:20:43.978Z</time></trkpt><trkpt lat="44.523502652406364" lon="9.995727670367069"><ele>917.6666666666667</ele><time>2026-04-03T14:20:44.978Z</time></trkpt><trkpt lat="44.523306806315176" lon="9.995723052453124"><ele>918.3333333333333</ele><time>2026-04-03T14:20:45.978Z</time></trkpt><trkpt lat="44.52310386592621" lon="9.995731616272012"><ele>919.0</ele><time>2026-04-03T14:20:46.978Z</time></trkpt><trkpt lat="44.52291018316259" lon="9.99573770060291"><ele>917.3333333333333</ele><time>2026-04-03T14:20:47.978Z</time></trkpt><trkpt lat="44.52273216818576" lon="9.995743456270821"><ele>915.6666666666667</ele><time>2026-04-03T14:20:48.978Z</time></trkpt><trkpt lat="44.52256122350634" lon="9.995751781081013"><ele>914.0</ele><time>2026-04-03T14:20:49.978Z</time></trkpt><trkpt lat="44.52240598762435" lon="9.995731297294602"><ele>914.0</ele><time>2026-04-03T14:20:50.978Z</time></trkpt><trkpt lat="44.52226256052979" lon="9.995657456432463"><ele>914.0</ele><time>2026-04-03T14:20:51.978Z</time></trkpt><trkpt lat="44.5221371309314" lon="9.995515816899752"><ele>914.0</ele><time>2026-04-03T14:20:52.978Z</time></trkpt><trkpt lat="44.52202883058793" lon="9.995328430340269"><ele>910.6666666666667</ele><time>2026-04-03T14:20:53.978Z</time></trkpt><trkpt lat="44.521927155981516" lon="9.995128424264005"><ele>907.3333333333333</ele><time>2026-04-03T14:20:54.978Z</time></trkpt><trkpt lat="44.52179933293212" lon="9.994959952950929"><ele>904.0</ele><time>2026-04-03T14:20:55.978Z</time></trkpt><trkpt lat="44.52164565987031" lon="9.9948222323498"><ele>904.0</ele><time>2026-04-03T14:20:56.978Z</time></trkpt><trkpt lat="44.52148713768509" lon="9.994684453864153"><ele>904.0</ele><time>2026-04-03T14:20:57.978Z</time></trkpt><trkpt lat="44.521327804724486" lon="9.994539339467494"><ele>904.0</ele><time>2026-04-03T14:20:58.978Z</time></trkpt><trkpt lat="44.52117362164142" lon="9.994396629442043"><ele>901.0</ele><time>2026-04-03T14:20:59.978Z</time></trkpt><trkpt lat="44.521026239623396" lon="9.994261016366684"><ele>898.0</ele><time>2026-04-03T14:21:00.978Z</time></trkpt><trkpt lat="44.52087745297221" lon="9.994136918733124"><ele>895.0</ele><time>2026-04-03T14:21:01.976Z</time></trkpt><trkpt lat="44.52072934646516" lon="9.994073948950282"><ele>895.0</ele><time>2026-04-03T14:21:02.976Z</time></trkpt><trkpt lat="44.52056240869268" lon="9.994051743931813"><ele>895.0</ele><time>2026-04-03T14:21:03.976Z</time></trkpt><trkpt lat="44.52038336466733" lon="9.994065862823973"><ele>895.0</ele><time>2026-04-03T14:21:04.977Z</time></trkpt><trkpt lat="44.52019476091951" lon="9.994081563233337"><ele>893.3333333333333</ele><time>2026-04-03T14:21:05.977Z</time></trkpt><trkpt lat="44.52000691130301" lon="9.994076181707868"><ele>891.6666666666667</ele><time>2026-04-03T14:21:06.977Z</time></trkpt><trkpt lat="44.51981123038695" lon="9.994061344190348"><ele>890.0</ele><time>2026-04-03T14:21:07.977Z</time></trkpt><trkpt lat="44.519614612090365" lon="9.994031263280583"><ele>889.6666666666667</ele><time>2026-04-03T14:21:08.977Z</time></trkpt><trkpt lat="44.519429480403346" lon="9.993975953624405"><ele>889.3333333333333</ele><time>2026-04-03T14:21:09.977Z</time></trkpt><trkpt lat="44.519249888840996" lon="9.99392612428997"><ele>889.0</ele><time>2026-04-03T14:21:10.976Z</time></trkpt><trkpt lat="44.51907424466053" lon="9.993899183457494"><ele>889.0</ele><time>2026-04-03T14:21:11.976Z</time></trkpt><trkpt lat="44.51889855137498" lon="9.99389337864622"><ele>889.0</ele><time>2026-04-03T14:21:12.976Z</time></trkpt><trkpt lat="44.51873094343587" lon="9.993895955785389"><ele>889.0</ele><time>2026-04-03T14:21:13.976Z</time></trkpt><trkpt lat="44.51857673543887" lon="9.993937569463627"><ele>888.3333333333333</ele><time>2026-04-03T14:21:14.977Z</time></trkpt><trkpt lat="44.518431243401665" lon="9.994040888188849"><ele>887.6666666666667</ele><time>2026-04-03T14:21:15.977Z</time></trkpt><trkpt lat="44.518291821647864" lon="9.994193476336434"><ele>887.0</ele><time>2026-04-03T14:21:16.977Z</time></trkpt><trkpt lat="44.5181553322763" lon="9.994370356654608"><ele>887.6666666666667</ele><time>2026-04-03T14:21:17.977Z</time></trkpt><trkpt lat="44.5180081775914" lon="9.994550935847354"><ele>888.3333333333333</ele><time>2026-04-03T14:21:18.977Z</time></trkpt><trkpt lat="44.51785217879764" lon="9.994725410292407"><ele>889.0</ele><time>2026-04-03T14:21:19.977Z</time></trkpt><trkpt lat="44.51770185106821" lon="9.994887802560818"><ele>885.0</ele><time>2026-04-03T14:21:20.977Z</time></trkpt><trkpt lat="44.517564036447006" lon="9.995044553288158"><ele>881.0</ele><time>2026-04-03T14:21:21.977Z</time></trkpt><trkpt lat="44.517438068282786" lon="9.995209164438814"><ele>877.0</ele><time>2026-04-03T14:21:22.977Z</time></trkpt><trkpt lat="44.51733129357568" lon="9.995397603253902"><ele>877.0</ele><time>2026-04-03T14:21:23.977Z</time></trkpt><trkpt lat="44.51724362558991" lon="9.99560214576187"><ele>877.0</ele><time>2026-04-03T14:21:24.977Z</time></trkpt><trkpt lat="44.51716793435489" lon="9.995800350373518"><ele>877.0</ele><time>2026-04-03T14:21:25.977Z</time></trkpt><trkpt lat="44.51710045002777" lon="9.995975684295678"><ele>876.75</ele><time>2026-04-03T14:21:26.977Z</time></trkpt><trkpt lat="44.51702998033467" lon="9.996101889576792"><ele>876.5</ele><time>2026-04-03T14:21:27.977Z</time></trkpt><trkpt lat="44.51692868144488" lon="9.996176233037984"><ele>876.25</ele><time>2026-04-03T14:21:28.977Z</time></trkpt><trkpt lat="44.51679103560482" lon="9.99618076371037"><ele>876.0</ele><time>2026-04-03T14:21:29.977Z</time></trkpt><trkpt lat="44.516634978729904" lon="9.996145832698192"><ele>876.0</ele><time>2026-04-03T14:21:30.977Z</time></trkpt><trkpt lat="44.51648103536937" lon="9.996116191908234"><ele>876.0</ele><time>2026-04-03T14:21:31.977Z</time></trkpt><trkpt lat="44.51629934783796" lon="9.996143193862746"><ele>876.0</ele><time>2026-04-03T14:21:32.977Z</time></trkpt><trkpt lat="44.51610428485708" lon="9.996119404284935"><ele>874.6666666666667</ele><time>2026-04-03T14:21:33.977Z</time></trkpt><trkpt lat="44.515894581369416" lon="9.996090632538122"><ele>873.3333333333334</ele><time>2026-04-03T14:21:34.977Z</time></trkpt><trkpt lat="44.515683385071235" lon="9.996073931010361"><ele>872.0</ele><time>2026-04-03T14:21:35.977Z</time></trkpt><trkpt lat="44.51547421418081" lon="9.996045219217999"><ele>870.0</ele><time>2026-04-03T14:21:36.977Z</time></trkpt><trkpt lat="44.515264918000796" lon="9.99602172987583"><ele>868.0</ele><time>2026-04-03T14:21:37.977Z</time></trkpt><trkpt lat="44.51505555118374" lon="9.995992087365355"><ele>866.0</ele><time>2026-04-03T14:21:38.977Z</time></trkpt><trkpt lat="44.514854740506635" lon="9.99595946925599"><ele>866.0</ele><time>2026-04-03T14:21:39.977Z</time></trkpt><trkpt lat="44.514661467473445" lon="9.995925265097563"><ele>866.0</ele><time>2026-04-03T14:21:40.977Z</time></trkpt><trkpt lat="44.51447472142602" lon="9.99589692977787"><ele>866.0</ele><time>2026-04-03T14:21:41.977Z</time></trkpt><trkpt lat="44.514294189387904" lon="9.995871991094914"><ele>866.25</ele><time>2026-04-03T14:21:42.977Z</time></trkpt><trkpt lat="44.514136791073454" lon="9.995849225326127"><ele>866.5</ele><time>2026-04-03T14:21:43.977Z</time></trkpt><trkpt lat="44.51399217759411" lon="9.995854777862641"><ele>866.75</ele><time>2026-04-03T14:21:44.977Z</time></trkpt><trkpt lat="44.513854259267944" lon="9.995895079236712"><ele>867.0</ele><time>2026-04-03T14:21:45.977Z</time></trkpt><trkpt lat="44.51373105335982" lon="9.995945882464882"><ele>867.0</ele><time>2026-04-03T14:21:46.977Z</time></trkpt><trkpt lat="44.51361667583259" lon="9.995996948553394"><ele>867.0</ele><time>2026-04-03T14:21:47.977Z</time></trkpt><trkpt lat="44.51349680396655" lon="9.99604852167738"><ele>867.0</ele><time>2026-04-03T14:21:48.977Z</time></trkpt><trkpt lat="44.513374170906694" lon="9.996091457211637"><ele>867.0</ele><time>2026-04-03T14:21:49.977Z</time></trkpt><trkpt lat="44.513245776483586" lon="9.996142017779379"><ele>867.0</ele><time>2026-04-03T14:21:50.977Z</time></trkpt><trkpt lat="44.513125876124796" lon="9.996200284712407"><ele>867.0</ele><time>2026-04-03T14:21:51.977Z</time></trkpt><trkpt lat="44.51301509344784" lon="9.996255177656938"><ele>867.0</ele><time>2026-04-03T14:21:52.977Z</time></trkpt><trkpt lat="44.5129025992782" lon="9.996325714908291"><ele>867.0</ele><time>2026-04-03T14:21:53.977Z</time></trkpt><trkpt lat="44.5128249701211" lon="9.996480815494134"><ele>868.6666666666667</ele><time>2026-04-03T14:21:54.977Z</time></trkpt><trkpt lat="44.512745078253914" lon="9.996667101480382"><ele>870.3333333333334</ele><time>2026-04-03T14:21:55.977Z</time></trkpt><trkpt lat="44.51265607192616" lon="9.996926429079599"><ele>872.0</ele><time>2026-04-03T14:21:56.977Z</time></trkpt><trkpt lat="44.512572027925394" lon="9.997204744474464"><ele>872.0</ele><time>2026-04-03T14:21:57.977Z</time></trkpt><trkpt lat="44.51245394540893" lon="9.997442909377765"><ele>872.0</ele><time>2026-04-03T14:21:58.977Z</time></trkpt><trkpt lat="44.512362660732286" lon="9.99764720161801"><ele>872.0</ele><time>2026-04-03T14:21:59.977Z</time></trkpt><trkpt lat="44.51226653426659" lon="9.997811854599684"><ele>868.3333333333334</ele><time>2026-04-03T14:22:00.977Z</time></trkpt><trkpt lat="44.51214467399259" lon="9.99793468468978"><ele>864.6666666666667</ele><time>2026-04-03T14:22:01.977Z</time></trkpt><trkpt lat="44.511992683840525" lon="9.998019896995775"><ele>861.0</ele><time>2026-04-03T14:22:02.977Z</time></trkpt><trkpt lat="44.511838815435894" lon="9.998086760040716"><ele>861.0</ele><time>2026-04-03T14:22:03.977Z</time></trkpt><trkpt lat="44.51168741616589" lon="9.998106076977894"><ele>861.0</ele><time>2026-04-03T14:22:04.977Z</time></trkpt><trkpt lat="44.51153163245612" lon="9.998121375023619"><ele>861.0</ele><time>2026-04-03T14:22:05.977Z</time></trkpt><trkpt lat="44.51139892285929" lon="9.998064434797143"><ele>861.0</ele><time>2026-04-03T14:22:06.977Z</time></trkpt><trkpt lat="44.51128508820359" lon="9.99794838137306"><ele>860.5</ele><time>2026-04-03T14:22:07.977Z</time></trkpt><trkpt lat="44.51117303088312" lon="9.997805471945869"><ele>860.0</ele><time>2026-04-03T14:22:08.977Z</time></trkpt><trkpt lat="44.51106382442786" lon="9.99765414823689"><ele>859.5</ele><time>2026-04-03T14:22:09.977Z</time></trkpt><trkpt lat="44.510970244145874" lon="9.997506058694523"><ele>859.0</ele><time>2026-04-03T14:22:10.977Z</time></trkpt><trkpt lat="44.51090309907239" lon="9.997327981063576"><ele>859.0</ele><time>2026-04-03T14:22:11.977Z</time></trkpt><trkpt lat="44.510860149759736" lon="9.997126498180105"><ele>859.0</ele><time>2026-04-03T14:22:12.977Z</time></trkpt><trkpt lat="44.51081773421354" lon="9.996916120685832"><ele>859.0</ele><time>2026-04-03T14:22:13.977Z</time></trkpt><trkpt lat="44.5107475700762" lon="9.99670570984713"><ele>862.6666666666666</ele><time>2026-04-03T14:22:14.977Z</time></trkpt><trkpt lat="44.51064993168603" lon="9.996506622699455"><ele>866.3333333333333</ele><time>2026-04-03T14:22:15.977Z</time></trkpt><trkpt lat="44.51052834656842" lon="9.996321068990321"><ele>870.0</ele><time>2026-04-03T14:22:16.977Z</time></trkpt><trkpt lat="44.51041549011017" lon="9.996147730437746"><ele>865.25</ele><time>2026-04-03T14:22:17.977Z</time></trkpt><trkpt lat="44.5103009035003" lon="9.995996186166591"><ele>860.5</ele><time>2026-04-03T14:22:18.977Z</time></trkpt><trkpt lat="44.51017031497129" lon="9.995896977174732"><ele>855.75</ele><time>2026-04-03T14:22:19.977Z</time></trkpt><trkpt lat="44.510043762125875" lon="9.995822238024028"><ele>851.0</ele><time>2026-04-03T14:22:20.977Z</time></trkpt><trkpt lat="44.50994821653335" lon="9.995727283304584"><ele>851.0</ele><time>2026-04-03T14:22:21.977Z</time></trkpt><trkpt lat="44.50988537542692" lon="9.995590694306284"><ele>851.0</ele><time>2026-04-03T14:22:22.977Z</time></trkpt><trkpt lat="44.509847950755585" lon="9.99541295702446"><ele>851.0</ele><time>2026-04-03T14:22:23.977Z</time></trkpt><trkpt lat="44.50980773210483" lon="9.995231970978287"><ele>851.0</ele><time>2026-04-03T14:22:24.977Z</time></trkpt><trkpt lat="44.50976406901528" lon="9.995066349583619"><ele>853.0</ele><time>2026-04-03T14:22:25.977Z</time></trkpt><trkpt lat="44.5097117215202" lon="9.994922253282947"><ele>855.0</ele><time>2026-04-03T14:22:26.977Z</time></trkpt><trkpt lat="44.50962608205173" lon="9.99481272049758"><ele>857.0</ele><time>2026-04-03T14:22:27.977Z</time></trkpt><trkpt lat="44.509521551608586" lon="9.994732503354872"><ele>859.0</ele><time>2026-04-03T14:22:28.977Z</time></trkpt><trkpt lat="44.50939952481572" lon="9.99469838504203"><ele>854.0</ele><time>2026-04-03T14:22:29.977Z</time></trkpt><trkpt lat="44.50927297334931" lon="9.994697773293852"><ele>849.0</ele><time>2026-04-03T14:22:30.977Z</time></trkpt><trkpt lat="44.509139354449324" lon="9.994696173571782"><ele>844.0</ele><time>2026-04-03T14:22:31.977Z</time></trkpt><trkpt lat="44.50901087665884" lon="9.994672351077524"><ele>839.0</ele><time>2026-04-03T14:22:32.977Z</time></trkpt><trkpt lat="44.508891761451096" lon="9.994629346683956"><ele>839.0</ele><time>2026-04-03T14:22:33.977Z</time></trkpt><trkpt lat="44.50877794315989" lon="9.99456282463461"><ele>839.0</ele><time>2026-04-03T14:22:34.977Z</time></trkpt><trkpt lat="44.50868747475989" lon="9.994450477030108"><ele>839.0</ele><time>2026-04-03T14:22:35.977Z</time></trkpt><trkpt lat="44.508615644288405" lon="9.994315431756883"><ele>839.0</ele><time>2026-04-03T14:22:36.977Z</time></trkpt><trkpt lat="44.50855731019757" lon="9.994166907285663"><ele>837.75</ele><time>2026-04-03T14:22:37.977Z</time></trkpt><trkpt lat="44.508500199395954" lon="9.994018250196504"><ele>836.5</ele><time>2026-04-03T14:22:38.977Z</time></trkpt><trkpt lat="44.508447403034104" lon="9.993871030143444"><ele>835.25</ele><time>2026-04-03T14:22:39.977Z</time></trkpt><trkpt lat="44.50840100914831" lon="9.993720225857682"><ele>834.0</ele><time>2026-04-03T14:22:40.977Z</time></trkpt><trkpt lat="44.508356243893054" lon="9.993563862828049"><ele>834.0</ele><time>2026-04-03T14:22:41.977Z</time></trkpt><trkpt lat="44.508317160022116" lon="9.993414522121107"><ele>834.0</ele><time>2026-04-03T14:22:42.977Z</time></trkpt><trkpt lat="44.508274216711044" lon="9.99325885308023"><ele>834.0</ele><time>2026-04-03T14:22:43.977Z</time></trkpt><trkpt lat="44.50822684010461" lon="9.993100682672544"><ele>834.0</ele><time>2026-04-03T14:22:44.977Z</time></trkpt><trkpt lat="44.50817906346494" lon="9.992945916833749"><ele>836.25</ele><time>2026-04-03T14:22:45.977Z</time></trkpt><trkpt lat="44.508115720459145" lon="9.992800731413189"><ele>838.5</ele><time>2026-04-03T14:22:46.977Z</time></trkpt><trkpt lat="44.508035592604834" lon="9.992671722100456"><ele>840.75</ele><time>2026-04-03T14:22:47.977Z</time></trkpt><trkpt lat="44.507943544429416" lon="9.9925503266775"><ele>843.0</ele><time>2026-04-03T14:22:48.977Z</time></trkpt><trkpt lat="44.50783811990926" lon="9.992434998253922"><ele>843.0</ele><time>2026-04-03T14:22:49.977Z</time></trkpt><trkpt lat="44.5077071828946" lon="9.992327486367437"><ele>843.0</ele><time>2026-04-03T14:22:50.977Z</time></trkpt><trkpt lat="44.507585536197126" lon="9.992217590389894"><ele>843.0</ele><time>2026-04-03T14:22:51.977Z</time></trkpt><trkpt lat="44.50746856859261" lon="9.992100980618767"><ele>843.0</ele><time>2026-04-03T14:22:52.977Z</time></trkpt><trkpt lat="44.507350809415485" lon="9.991999300542076"><ele>843.0</ele><time>2026-04-03T14:22:53.977Z</time></trkpt><trkpt lat="44.507241476596846" lon="9.991885478271103"><ele>843.0</ele><time>2026-04-03T14:22:54.977Z</time></trkpt><trkpt lat="44.5071374075382" lon="9.991754912427387"><ele>843.0</ele><time>2026-04-03T14:22:55.977Z</time></trkpt><trkpt lat="44.50703847299781" lon="9.991610200416059"><ele>843.0</ele><time>2026-04-03T14:22:56.977Z</time></trkpt><trkpt lat="44.50694374248104" lon="9.991464177534706"><ele>843.0</ele><time>2026-04-03T14:22:57.977Z</time></trkpt><trkpt lat="44.506843251906886" lon="9.991323210515107"><ele>843.0</ele><time>2026-04-03T14:22:58.977Z</time></trkpt><trkpt lat="44.50674719512032" lon="9.991191758732018"><ele>843.0</ele><time>2026-04-03T14:22:59.977Z</time></trkpt><trkpt lat="44.506640175118065" lon="9.991070321065397"><ele>843.0</ele><time>2026-04-03T14:23:00.977Z</time></trkpt><trkpt lat="44.50653748363936" lon="9.990946501195944"><ele>842.5</ele><time>2026-04-03T14:23:01.977Z</time></trkpt><trkpt lat="44.50644553397342" lon="9.990805424541138"><ele>842.0</ele><time>2026-04-03T14:23:02.977Z</time></trkpt><trkpt lat="44.50638148678355" lon="9.990654697588207"><ele>841.5</ele><time>2026-04-03T14:23:03.977Z</time></trkpt><trkpt lat="44.50633132845702" lon="9.990505038648584"><ele>841.0</ele><time>2026-04-03T14:23:04.977Z</time></trkpt><trkpt lat="44.50627264496551" lon="9.99035741221086"><ele>842.25</ele><time>2026-04-03T14:23:05.977Z</time></trkpt><trkpt lat="44.50621129629656" lon="9.990216284726937"><ele>843.5</ele><time>2026-04-03T14:23:06.977Z</time></trkpt><trkpt lat="44.50614629367656" lon="9.990078439248938"><ele>844.75</ele><time>2026-04-03T14:23:07.976Z</time></trkpt><trkpt lat="44.50606128665456" lon="9.989951825991561"><ele>846.0</ele><time>2026-04-03T14:23:08.976Z</time></trkpt><trkpt lat="44.50595009634104" lon="9.989845802790267"><ele>846.0</ele><time>2026-04-03T14:23:09.976Z</time></trkpt><trkpt lat="44.50584019880236" lon="9.989732590344325"><ele>846.0</ele><time>2026-04-03T14:23:10.976Z</time></trkpt><trkpt lat="44.50572450205946" lon="9.989615947225632"><ele>846.0</ele><time>2026-04-03T14:23:11.976Z</time></trkpt><trkpt lat="44.505612381277366" lon="9.989504909043566"><ele>846.0</ele><time>2026-04-03T14:23:12.976Z</time></trkpt><trkpt lat="44.50550017794652" lon="9.989398106926446"><ele>846.75</ele><time>2026-04-03T14:23:13.976Z</time></trkpt><trkpt lat="44.50539423250478" lon="9.989289908227777"><ele>847.5</ele><time>2026-04-03T14:23:14.976Z</time></trkpt><trkpt lat="44.505290822195704" lon="9.989182876620163"><ele>848.25</ele><time>2026-04-03T14:23:15.976Z</time></trkpt><trkpt lat="44.50518836255493" lon="9.989092243786866"><ele>849.0</ele><time>2026-04-03T14:23:16.976Z</time></trkpt><trkpt lat="44.505078773500465" lon="9.989026011696692"><ele>849.0</ele><time>2026-04-03T14:23:17.976Z</time></trkpt><trkpt lat="44.504951140215134" lon="9.988989532465908"><ele>849.0</ele><time>2026-04-03T14:23:18.976Z</time></trkpt><trkpt lat="44.504816270267256" lon="9.988979351704579"><ele>849.0</ele><time>2026-04-03T14:23:19.976Z</time></trkpt><trkpt lat="44.50467692056482" lon="9.988990317928748"><ele>849.0</ele><time>2026-04-03T14:23:20.976Z</time></trkpt><trkpt lat="44.5045427906669" lon="9.988985321823304"><ele>850.0</ele><time>2026-04-03T14:23:21.976Z</time></trkpt><trkpt lat="44.50441693045051" lon="9.988974570908898"><ele>851.0</ele><time>2026-04-03T14:23:22.976Z</time></trkpt><trkpt lat="44.50429095425522" lon="9.988952835571872"><ele>852.0</ele><time>2026-04-03T14:23:23.976Z</time></trkpt><trkpt lat="44.504173696307056" lon="9.98890538176845"><ele>853.0</ele><time>2026-04-03T14:23:24.976Z</time></trkpt><trkpt lat="44.5040578468814" lon="9.988837000515955"><ele>853.0</ele><time>2026-04-03T14:23:25.976Z</time></trkpt><trkpt lat="44.50395160989754" lon="9.988754543043227"><ele>853.0</ele><time>2026-04-03T14:23:26.976Z</time></trkpt><trkpt lat="44.50384954663711" lon="9.988662417518748"><ele>853.0</ele><time>2026-04-03T14:23:27.976Z</time></trkpt><trkpt lat="44.50375050108536" lon="9.988566799573885"><ele>853.0</ele><time>2026-04-03T14:23:28.976Z</time></trkpt><trkpt lat="44.503655651212696" lon="9.988462649234549"><ele>853.25</ele><time>2026-04-03T14:23:29.976Z</time></trkpt><trkpt lat="44.503567085852175" lon="9.988348777246578"><ele>853.5</ele><time>2026-04-03T14:23:30.976Z</time></trkpt><trkpt lat="44.50348074044338" lon="9.988229731823777"><ele>853.75</ele><time>2026-04-03T14:23:31.976Z</time></trkpt><trkpt lat="44.50341172118268" lon="9.98809106033028"><ele>854.0</ele><time>2026-04-03T14:23:32.976Z</time></trkpt><trkpt lat="44.50334647830569" lon="9.987947634251542"><ele>854.0</ele><time>2026-04-03T14:23:33.976Z</time></trkpt><trkpt lat="44.50328014338006" lon="9.987798628124406"><ele>854.0</ele><time>2026-04-03T14:23:34.976Z</time></trkpt><trkpt lat="44.50320988576624" lon="9.987655967089152"><ele>854.0</ele><time>2026-04-03T14:23:35.976Z</time></trkpt><trkpt lat="44.503144480354145" lon="9.987533352316678"><ele>854.0</ele><time>2026-04-03T14:23:36.976Z</time></trkpt><trkpt lat="44.5030631706779" lon="9.98743525556581"><ele>853.75</ele><time>2026-04-03T14:23:37.976Z</time></trkpt><trkpt lat="44.50295544525276" lon="9.987398280546886"><ele>853.5</ele><time>2026-04-03T14:23:38.976Z</time></trkpt><trkpt lat="44.50283743569737" lon="9.98741444124058"><ele>853.25</ele><time>2026-04-03T14:23:39.976Z</time></trkpt><trkpt lat="44.502706506081445" lon="9.98746880140301"><ele>853.0</ele><time>2026-04-03T14:23:40.976Z</time></trkpt><trkpt lat="44.502568812027384" lon="9.987503798068134"><ele>853.0</ele><time>2026-04-03T14:23:41.976Z</time></trkpt><trkpt lat="44.50243966727357" lon="9.987532402626355"><ele>853.0</ele><time>2026-04-03T14:23:42.976Z</time></trkpt><trkpt lat="44.502323197406355" lon="9.987538248313218"><ele>853.0</ele><time>2026-04-03T14:23:43.976Z</time></trkpt><trkpt lat="44.502219124500705" lon="9.987491855118812"><ele>853.0</ele><time>2026-04-03T14:23:44.976Z</time></trkpt><trkpt lat="44.502133043100145" lon="9.98739951097852"><ele>853.0</ele><time>2026-04-03T14:23:45.976Z</time></trkpt><trkpt lat="44.502086643744235" lon="9.98725703479401"><ele>853.0</ele><time>2026-04-03T14:23:46.976Z</time></trkpt><trkpt lat="44.50209792006201" lon="9.987093690033188"><ele>853.0</ele><time>2026-04-03T14:23:47.976Z</time></trkpt><trkpt lat="44.50214027565784" lon="9.98693060572477"><ele>853.0</ele><time>2026-04-03T14:23:48.976Z</time></trkpt><trkpt lat="44.502205672774075" lon="9.986773925231573"><ele>851.5</ele><time>2026-04-03T14:23:49.976Z</time></trkpt><trkpt lat="44.50226468027092" lon="9.986619132903085"><ele>850.0</ele><time>2026-04-03T14:23:50.976Z</time></trkpt><trkpt lat="44.50228988196134" lon="9.986463785916287"><ele>848.5</ele><time>2026-04-03T14:23:51.976Z</time></trkpt><trkpt lat="44.502268376116675" lon="9.986314015892818"><ele>847.0</ele><time>2026-04-03T14:23:52.976Z</time></trkpt><trkpt lat="44.50220836463904" lon="9.986148951248213"><ele>847.0</ele><time>2026-04-03T14:23:53.976Z</time></trkpt><trkpt lat="44.50211282126933" lon="9.985975480585745"><ele>847.0</ele><time>2026-04-03T14:23:54.976Z</time></trkpt><trkpt lat="44.502011364705766" lon="9.985809710500781"><ele>847.0</ele><time>2026-04-03T14:23:55.976Z</time></trkpt><trkpt lat="44.50190080856862" lon="9.985661175222816"><ele>850.25</ele><time>2026-04-03T14:23:56.976Z</time></trkpt><trkpt lat="44.50177184494575" lon="9.985535539107133"><ele>853.5</ele><time>2026-04-03T14:23:57.976Z</time></trkpt><trkpt lat="44.501646495348126" lon="9.985432156990258"><ele>856.75</ele><time>2026-04-03T14:23:58.976Z</time></trkpt><trkpt lat="44.501551124779674" lon="9.985316046943597"><ele>860.0</ele><time>2026-04-03T14:23:59.976Z</time></trkpt><trkpt lat="44.50149248846681" lon="9.985173878258683"><ele>860.0</ele><time>2026-04-03T14:24:00.976Z</time></trkpt><trkpt lat="44.501455712520645" lon="9.98501918925094"><ele>860.0</ele><time>2026-04-03T14:24:01.976Z</time></trkpt><trkpt lat="44.501468136600465" lon="9.984851616647495"><ele>860.0</ele><time>2026-04-03T14:24:02.976Z</time></trkpt><trkpt lat="44.501524599995086" lon="9.984681604636645"><ele>860.0</ele><time>2026-04-03T14:24:03.976Z</time></trkpt><trkpt lat="44.501623405453955" lon="9.984531165151058"><ele>859.5</ele><time>2026-04-03T14:24:04.976Z</time></trkpt><trkpt lat="44.50171846409909" lon="9.984377724010804"><ele>859.0</ele><time>2026-04-03T14:24:05.976Z</time></trkpt><trkpt lat="44.501797107305556" lon="9.984207425337775"><ele>858.5</ele><time>2026-04-03T14:24:06.976Z</time></trkpt><trkpt lat="44.501852016665346" lon="9.984011629244243"><ele>858.0</ele><time>2026-04-03T14:24:07.976Z</time></trkpt><trkpt lat="44.50188670667484" lon="9.983807937326086"><ele>859.75</ele><time>2026-04-03T14:24:08.976Z</time></trkpt><trkpt lat="44.50190778293888" lon="9.983613962708493"><ele>861.5</ele><time>2026-04-03T14:24:09.976Z</time></trkpt><trkpt lat="44.50190915211787" lon="9.983427135022364"><ele>863.25</ele><time>2026-04-03T14:24:10.976Z</time></trkpt><trkpt lat="44.50189076018091" lon="9.983237728384834"><ele>865.0</ele><time>2026-04-03T14:24:11.976Z</time></trkpt><trkpt lat="44.50184541323512" lon="9.983036954655681"><ele>865.0</ele><time>2026-04-03T14:24:12.976Z</time></trkpt><trkpt lat="44.50179795608854" lon="9.982826538049677"><ele>865.0</ele><time>2026-04-03T14:24:13.976Z</time></trkpt><trkpt lat="44.501750819536895" lon="9.982642406982428"><ele>865.0</ele><time>2026-04-03T14:24:14.976Z</time></trkpt><trkpt lat="44.50168396501056" lon="9.982501886738444"><ele>865.0</ele><time>2026-04-03T14:24:15.976Z</time></trkpt><trkpt lat="44.501577819201536" lon="9.982406647246536"><ele>863.0</ele><time>2026-04-03T14:24:16.976Z</time></trkpt><trkpt lat="44.50145053391608" lon="9.982351582486217"><ele>861.0</ele><time>2026-04-03T14:24:17.976Z</time></trkpt><trkpt lat="44.50131806362181" lon="9.98230476708446"><ele>859.0</ele><time>2026-04-03T14:24:18.976Z</time></trkpt><trkpt lat="44.50119531784375" lon="9.982237899468553"><ele>857.0</ele><time>2026-04-03T14:24:19.976Z</time></trkpt><trkpt lat="44.50107538955489" lon="9.982170350380377"><ele>861.75</ele><time>2026-04-03T14:24:20.976Z</time></trkpt><trkpt lat="44.50097226524812" lon="9.982083959284617"><ele>866.5</ele><time>2026-04-03T14:24:21.976Z</time></trkpt><trkpt lat="44.50087147270693" lon="9.981978977134272"><ele>871.25</ele><time>2026-04-03T14:24:22.976Z</time></trkpt><trkpt lat="44.50076549884553" lon="9.981853315650282"><ele>876.0</ele><time>2026-04-03T14:24:23.976Z</time></trkpt><trkpt lat="44.500658751129954" lon="9.981712706076822"><ele>878.5</ele><time>2026-04-03T14:24:24.976Z</time></trkpt><trkpt lat="44.50054915909079" lon="9.981571448296078"><ele>881.0</ele><time>2026-04-03T14:24:25.976Z</time></trkpt><trkpt lat="44.50044015551072" lon="9.981428989796482"><ele>883.5</ele><time>2026-04-03T14:24:26.976Z</time></trkpt><trkpt lat="44.500343053588445" lon="9.981273887877501"><ele>886.0</ele><time>2026-04-03T14:24:27.976Z</time></trkpt><trkpt lat="44.500254451789125" lon="9.98111486719665"><ele>886.0</ele><time>2026-04-03T14:24:28.976Z</time></trkpt><trkpt lat="44.500179364560985" lon="9.980950212775726"><ele>886.0</ele><time>2026-04-03T14:24:29.976Z</time></trkpt><trkpt lat="44.50013198713928" lon="9.980773215851132"><ele>886.0</ele><time>2026-04-03T14:24:30.976Z</time></trkpt><trkpt lat="44.50011608150144" lon="9.980587390414186"><ele>886.0</ele><time>2026-04-03T14:24:31.976Z</time></trkpt><trkpt lat="44.5001161061917" lon="9.980393861615456"><ele>881.75</ele><time>2026-04-03T14:24:32.976Z</time></trkpt><trkpt lat="44.50012966119081" lon="9.980200930994071"><ele>877.5</ele><time>2026-04-03T14:24:33.976Z</time></trkpt><trkpt lat="44.50014770577016" lon="9.980013613000294"><ele>873.25</ele><time>2026-04-03T14:24:34.976Z</time></trkpt><trkpt lat="44.50014708612266" lon="9.979834038012127"><ele>869.0</ele><time>2026-04-03T14:24:35.976Z</time></trkpt><trkpt lat="44.50010589287273" lon="9.97965124010747"><ele>868.5</ele><time>2026-04-03T14:24:36.976Z</time></trkpt><trkpt lat="44.50004334337442" lon="9.979464529779708"><ele>868.0</ele><time>2026-04-03T14:24:37.976Z</time></trkpt><trkpt lat="44.49998332876404" lon="9.97928282860644"><ele>867.5</ele><time>2026-04-03T14:24:38.976Z</time></trkpt><trkpt lat="44.499919009156805" lon="9.979086015478662"><ele>867.0</ele><time>2026-04-03T14:24:39.976Z</time></trkpt><trkpt lat="44.49986342213461" lon="9.978897357194798"><ele>866.0</ele><time>2026-04-03T14:24:40.976Z</time></trkpt><trkpt lat="44.49982373394768" lon="9.97869618731753"><ele>865.0</ele><time>2026-04-03T14:24:41.976Z</time></trkpt><trkpt lat="44.49980883421291" lon="9.978481202269187"><ele>864.0</ele><time>2026-04-03T14:24:42.976Z</time></trkpt><trkpt lat="44.4998210235184" lon="9.97826738631454"><ele>863.6666666666667</ele><time>2026-04-03T14:24:43.976Z</time></trkpt><trkpt lat="44.49983781781581" lon="9.978052223211348"><ele>863.3333333333334</ele><time>2026-04-03T14:24:44.976Z</time></trkpt><trkpt lat="44.49984307920852" lon="9.97784321633635"><ele>863.0</ele><time>2026-04-03T14:24:45.976Z</time></trkpt><trkpt lat="44.49983754388908" lon="9.977635126998733"><ele>862.0</ele><time>2026-04-03T14:24:46.976Z</time></trkpt><trkpt lat="44.49981113771399" lon="9.97741951786695"><ele>861.0</ele><time>2026-04-03T14:24:47.976Z</time></trkpt><trkpt lat="44.499759857182866" lon="9.977208997739082"><ele>860.0</ele><time>2026-04-03T14:24:48.976Z</time></trkpt><trkpt lat="44.49969740025486" lon="9.977003061551661"><ele>860.0</ele><time>2026-04-03T14:24:49.976Z</time></trkpt><trkpt lat="44.49962692402933" lon="9.976796242384191"><ele>860.0</ele><time>2026-04-03T14:24:50.976Z</time></trkpt><trkpt lat="44.49955847760703" lon="9.976579380794961"><ele>860.0</ele><time>2026-04-03T14:24:51.976Z</time></trkpt><trkpt lat="44.49950229816459" lon="9.976369498268445"><ele>865.5</ele><time>2026-04-03T14:24:52.976Z</time></trkpt><trkpt lat="44.49945778415733" lon="9.976167627947195"><ele>871.0</ele><time>2026-04-03T14:24:53.976Z</time></trkpt><trkpt lat="44.49943574045545" lon="9.975957464037194"><ele>876.5</ele><time>2026-04-03T14:24:54.976Z</time></trkpt><trkpt lat="44.49942591605826" lon="9.975757297816278"><ele>882.0</ele><time>2026-04-03T14:24:55.976Z</time></trkpt><trkpt lat="44.49940548845435" lon="9.975600328228305"><ele>882.0</ele><time>2026-04-03T14:24:56.976Z</time></trkpt><trkpt lat="44.49937291879007" lon="9.975478243564694"><ele>882.0</ele><time>2026-04-03T14:24:57.976Z</time></trkpt><trkpt lat="44.499310145588645" lon="9.975386021861627"><ele>882.0</ele><time>2026-04-03T14:24:58.976Z</time></trkpt><trkpt lat="44.49920909639389" lon="9.975332251825025"><ele>882.0</ele><time>2026-04-03T14:24:59.976Z</time></trkpt><trkpt lat="44.499080195256006" lon="9.975318730376303"><ele>882.0</ele><time>2026-04-03T14:25:00.976Z</time></trkpt><trkpt lat="44.498946602939775" lon="9.975316054802573"><ele>882.0</ele><time>2026-04-03T14:25:01.976Z</time></trkpt><trkpt lat="44.49879214047383" lon="9.97529071747486"><ele>882.0</ele><time>2026-04-03T14:25:02.976Z</time></trkpt><trkpt lat="44.49863710874521" lon="9.97523331383976"><ele>882.0</ele><time>2026-04-03T14:25:03.976Z</time></trkpt><trkpt lat="44.498473608946" lon="9.975166386348036"><ele>878.3333333333333</ele><time>2026-04-03T14:25:04.976Z</time></trkpt><trkpt lat="44.49831054475422" lon="9.975091818320141"><ele>874.6666666666666</ele><time>2026-04-03T14:25:05.976Z</time></trkpt><trkpt lat="44.49815344647919" lon="9.975009140174336"><ele>871.0</ele><time>2026-04-03T14:25:06.976Z</time></trkpt><trkpt lat="44.498003694342415" lon="9.974923714712215"><ele>880.3333333333333</ele><time>2026-04-03T14:25:07.976Z</time></trkpt><trkpt lat="44.49786795633479" lon="9.974797637943944"><ele>889.6666666666667</ele><time>2026-04-03T14:25:08.976Z</time></trkpt><trkpt lat="44.49775217624866" lon="9.97463665852109"><ele>899.0</ele><time>2026-04-03T14:25:09.976Z</time></trkpt><trkpt lat="44.49765202577526" lon="9.97446947825975"><ele>899.0</ele><time>2026-04-03T14:25:10.976Z</time></trkpt><trkpt lat="44.497564972136246" lon="9.974318756803886"><ele>899.0</ele><time>2026-04-03T14:25:11.976Z</time></trkpt><trkpt lat="44.497473316610574" lon="9.974192859018613"><ele>899.0</ele><time>2026-04-03T14:25:12.976Z</time></trkpt><trkpt lat="44.49736375685425" lon="9.974103090424977"><ele>899.0</ele><time>2026-04-03T14:25:13.975Z</time></trkpt><trkpt lat="44.497239959434" lon="9.974059611331462"><ele>894.6666666666667</ele><time>2026-04-03T14:25:14.976Z</time></trkpt><trkpt lat="44.4971044299029" lon="9.974054920900358"><ele>890.3333333333333</ele><time>2026-04-03T14:25:15.976Z</time></trkpt><trkpt lat="44.49694599452122" lon="9.974037638267438"><ele>886.0</ele><time>2026-04-03T14:25:16.975Z</time></trkpt><trkpt lat="44.49678145539779" lon="9.973962355417354"><ele>886.0</ele><time>2026-04-03T14:25:17.975Z</time></trkpt><trkpt lat="44.49662311099127" lon="9.973851424161063"><ele>886.0</ele><time>2026-04-03T14:25:18.975Z</time></trkpt><trkpt lat="44.49646905956613" lon="9.9737614467962"><ele>886.0</ele><time>2026-04-03T14:25:19.975Z</time></trkpt><trkpt lat="44.49630782783217" lon="9.973708189200138"><ele>890.6666666666666</ele><time>2026-04-03T14:25:20.976Z</time></trkpt><trkpt lat="44.49614220367827" lon="9.973673141784747"><ele>895.3333333333333</ele><time>2026-04-03T14:25:21.976Z</time></trkpt><trkpt lat="44.49596760990669" lon="9.97363575000698"><ele>900.0</ele><time>2026-04-03T14:25:22.976Z</time></trkpt><trkpt lat="44.49579476340099" lon="9.973582055790667"><ele>900.0</ele><time>2026-04-03T14:25:23.975Z</time></trkpt><trkpt lat="44.495631676989376" lon="9.973511232159414"><ele>900.0</ele><time>2026-04-03T14:25:24.975Z</time></trkpt><trkpt lat="44.49546182241204" lon="9.97344101949882"><ele>900.0</ele><time>2026-04-03T14:25:25.976Z</time></trkpt><trkpt lat="44.49530671371359" lon="9.9733516775285"><ele>895.0</ele><time>2026-04-03T14:25:26.975Z</time></trkpt><trkpt lat="44.49515181348063" lon="9.973250132337274"><ele>890.0</ele><time>2026-04-03T14:25:27.975Z</time></trkpt><trkpt lat="44.4949911056688" lon="9.973156256293674"><ele>885.0</ele><time>2026-04-03T14:25:28.975Z</time></trkpt><trkpt lat="44.494838577912084" lon="9.973046279953975"><ele>885.0</ele><time>2026-04-03T14:25:29.975Z</time></trkpt><trkpt lat="44.494679066201286" lon="9.972942369216646"><ele>885.0</ele><time>2026-04-03T14:25:30.975Z</time></trkpt><trkpt lat="44.494534328602256" lon="9.972845197899465"><ele>885.0</ele><time>2026-04-03T14:25:31.975Z</time></trkpt><trkpt lat="44.49439811247862" lon="9.972757859504332"><ele>884.0</ele><time>2026-04-03T14:25:32.975Z</time></trkpt><trkpt lat="44.4942858721194" lon="9.972664466373661"><ele>883.0</ele><time>2026-04-03T14:25:33.975Z</time></trkpt><trkpt lat="44.49418866949988" lon="9.972565439017783"><ele>882.0</ele><time>2026-04-03T14:25:34.975Z</time></trkpt><trkpt lat="44.49410518566381" lon="9.972455042880682"><ele>881.0</ele><time>2026-04-03T14:25:35.975Z</time></trkpt><trkpt lat="44.49404597348993" lon="9.972307625115246"><ele>881.0</ele><time>2026-04-03T14:25:36.975Z</time></trkpt><trkpt lat="44.49401135975186" lon="9.972133846690577"><ele>881.0</ele><time>2026-04-03T14:25:37.975Z</time></trkpt><trkpt lat="44.4939964465342" lon="9.971964532139895"><ele>881.0</ele><time>2026-04-03T14:25:38.975Z</time></trkpt><trkpt lat="44.49401197878311" lon="9.971808163268964"><ele>881.0</ele><time>2026-04-03T14:25:39.975Z</time></trkpt><trkpt lat="44.49406116705599" lon="9.971685321508211"><ele>879.0</ele><time>2026-04-03T14:25:40.975Z</time></trkpt><trkpt lat="44.49415667096856" lon="9.971570450897786"><ele>877.0</ele><time>2026-04-03T14:25:41.975Z</time></trkpt><trkpt lat="44.49420576079829" lon="9.971428651578245"><ele>875.0</ele><time>2026-04-03T14:25:42.975Z</time></trkpt><trkpt lat="44.494213387190854" lon="9.971280525447217"><ele>873.0</ele><time>2026-04-03T14:25:43.975Z</time></trkpt><trkpt lat="44.49418313133485" lon="9.971124756927033"><ele>873.0</ele><time>2026-04-03T14:25:44.975Z</time></trkpt><trkpt lat="44.49409901033777" lon="9.97097689357849"><ele>873.0</ele><time>2026-04-03T14:25:45.975Z</time></trkpt><trkpt lat="44.49397337900371" lon="9.970866128523813"><ele>873.0</ele><time>2026-04-03T14:25:46.975Z</time></trkpt><trkpt lat="44.493822447188585" lon="9.970771120184233"><ele>873.0</ele><time>2026-04-03T14:25:47.975Z</time></trkpt><trkpt lat="44.493695957835875" lon="9.970671188293107"><ele>877.75</ele><time>2026-04-03T14:25:48.975Z</time></trkpt><trkpt lat="44.4935827370587" lon="9.970567680817169"><ele>882.5</ele><time>2026-04-03T14:25:49.975Z</time></trkpt><trkpt lat="44.49348307225918" lon="9.970439426744603"><ele>887.25</ele><time>2026-04-03T14:25:50.975Z</time></trkpt><trkpt lat="44.49340427738906" lon="9.97028764870079"><ele>892.0</ele><time>2026-04-03T14:25:51.975Z</time></trkpt><trkpt lat="44.493347824356576" lon="9.970121485492003"><ele>886.25</ele><time>2026-04-03T14:25:52.975Z</time></trkpt><trkpt lat="44.49330186067406" lon="9.969947096926045"><ele>880.5</ele><time>2026-04-03T14:25:53.975Z</time></trkpt><trkpt lat="44.49325675248758" lon="9.969790185119727"><ele>874.75</ele><time>2026-04-03T14:25:54.975Z</time></trkpt><trkpt lat="44.49321429425101" lon="9.969629293455258"><ele>869.0</ele><time>2026-04-03T14:25:55.975Z</time></trkpt><trkpt lat="44.4931687593373" lon="9.96946844709525"><ele>869.0</ele><time>2026-04-03T14:25:56.975Z</time></trkpt><trkpt lat="44.49312402052524" lon="9.969303844731652"><ele>869.0</ele><time>2026-04-03T14:25:57.975Z</time></trkpt><trkpt lat="44.49307972114742" lon="9.969138111625627"><ele>869.0</ele><time>2026-04-03T14:25:58.975Z</time></trkpt><trkpt lat="44.49303078499981" lon="9.968975358450528"><ele>869.0</ele><time>2026-04-03T14:25:59.975Z</time></trkpt><trkpt lat="44.492982215163444" lon="9.968813315499128"><ele>869.25</ele><time>2026-04-03T14:26:00.975Z</time></trkpt><trkpt lat="44.4929266760088" lon="9.968654360168115"><ele>869.5</ele><time>2026-04-03T14:26:01.975Z</time></trkpt><trkpt lat="44.49287858236367" lon="9.96849281208054"><ele>869.75</ele><time>2026-04-03T14:26:02.975Z</time></trkpt><trkpt lat="44.4928311975457" lon="9.968329144825299"><ele>870.0</ele><time>2026-04-03T14:26:03.975Z</time></trkpt><trkpt lat="44.49278472266902" lon="9.968166543678867"><ele>870.0</ele><time>2026-04-03T14:26:04.975Z</time></trkpt><trkpt lat="44.49274290767702" lon="9.967997634547103"><ele>870.0</ele><time>2026-04-03T14:26:05.975Z</time></trkpt><trkpt lat="44.49269607750874" lon="9.967829374572622"><ele>870.0</ele><time>2026-04-03T14:26:06.975Z</time></trkpt><trkpt lat="44.49266081057224" lon="9.967643985377466"><ele>870.0</ele><time>2026-04-03T14:26:07.975Z</time></trkpt><trkpt lat="44.492647884309356" lon="9.96744680711314"><ele>869.5</ele><time>2026-04-03T14:26:08.975Z</time></trkpt><trkpt lat="44.492650322240074" lon="9.967247639855817"><ele>869.0</ele><time>2026-04-03T14:26:09.975Z</time></trkpt><trkpt lat="44.49264752351956" lon="9.967068414793356"><ele>868.5</ele><time>2026-04-03T14:26:10.975Z</time></trkpt><trkpt lat="44.49261919930257" lon="9.966893004456306"><ele>868.0</ele><time>2026-04-03T14:26:11.975Z</time></trkpt><trkpt lat="44.49255293855097" lon="9.96674116737836"><ele>867.25</ele><time>2026-04-03T14:26:12.975Z</time></trkpt><trkpt lat="44.492448567756334" lon="9.966632564805591"><ele>866.5</ele><time>2026-04-03T14:26:13.975Z</time></trkpt><trkpt lat="44.49231177452718" lon="9.96653932126584"><ele>865.75</ele><time>2026-04-03T14:26:14.975Z</time></trkpt><trkpt lat="44.492165302309296" lon="9.966464849810704"><ele>865.0</ele><time>2026-04-03T14:26:15.975Z</time></trkpt><trkpt lat="44.49201210680032" lon="9.96638446796599"><ele>867.3333333333333</ele><time>2026-04-03T14:26:16.975Z</time></trkpt><trkpt lat="44.491852635931934" lon="9.966300553121467"><ele>869.6666666666667</ele><time>2026-04-03T14:26:17.975Z</time></trkpt><trkpt lat="44.49169584640558" lon="9.966211986565556"><ele>872.0</ele><time>2026-04-03T14:26:18.975Z</time></trkpt><trkpt lat="44.49153608352796" lon="9.966117756809712"><ele>872.0</ele><time>2026-04-03T14:26:19.975Z</time></trkpt><trkpt lat="44.491374240688444" lon="9.966027673519115"><ele>872.0</ele><time>2026-04-03T14:26:20.975Z</time></trkpt><trkpt lat="44.491208778348486" lon="9.965951673856749"><ele>872.0</ele><time>2026-04-03T14:26:21.975Z</time></trkpt><trkpt lat="44.49104204909474" lon="9.965900723087934"><ele>874.6666666666667</ele><time>2026-04-03T14:26:22.975Z</time></trkpt><trkpt lat="44.49087209537489" lon="9.965881365623707"><ele>877.3333333333333</ele><time>2026-04-03T14:26:23.975Z</time></trkpt><trkpt lat="44.490702000489996" lon="9.965888557367617"><ele>880.0</ele><time>2026-04-03T14:26:24.975Z</time></trkpt><trkpt lat="44.49053443379444" lon="9.965904011594311"><ele>879.0</ele><time>2026-04-03T14:26:25.975Z</time></trkpt><trkpt lat="44.490379800919484" lon="9.965921963618893"><ele>878.0</ele><time>2026-04-03T14:26:26.975Z</time></trkpt><trkpt lat="44.4902344673111" lon="9.965960396058989"><ele>877.0</ele><time>2026-04-03T14:26:27.975Z</time></trkpt><trkpt lat="44.49009757021305" lon="9.96604561698054"><ele>877.0</ele><time>2026-04-03T14:26:28.975Z</time></trkpt><trkpt lat="44.48997528457045" lon="9.966170193060583"><ele>877.0</ele><time>2026-04-03T14:26:29.975Z</time></trkpt><trkpt lat="44.48986145208343" lon="9.966319803947453"><ele>877.0</ele><time>2026-04-03T14:26:30.975Z</time></trkpt><trkpt lat="44.48974166353918" lon="9.966472448476676"><ele>877.0</ele><time>2026-04-03T14:26:31.975Z</time></trkpt><trkpt lat="44.48962889618353" lon="9.96660827654255"><ele>877.0</ele><time>2026-04-03T14:26:32.975Z</time></trkpt><trkpt lat="44.489527651417085" lon="9.966713829949482"><ele>877.0</ele><time>2026-04-03T14:26:33.975Z</time></trkpt><trkpt lat="44.489428127050445" lon="9.966776869971168"><ele>877.0</ele><time>2026-04-03T14:26:34.975Z</time></trkpt><trkpt lat="44.48932726988847" lon="9.96678321470317"><ele>877.0</ele><time>2026-04-03T14:26:35.975Z</time></trkpt><trkpt lat="44.48922556679148" lon="9.966712465690474"><ele>877.0</ele><time>2026-04-03T14:26:36.975Z</time></trkpt><trkpt lat="44.489132500779995" lon="9.966587747131562"><ele>877.0</ele><time>2026-04-03T14:26:37.975Z</time></trkpt><trkpt lat="44.489038179257385" lon="9.96643427532673"><ele>877.0</ele><time>2026-04-03T14:26:38.975Z</time></trkpt><trkpt lat="44.48895049438883" lon="9.966279955168794"><ele>877.0</ele><time>2026-04-03T14:26:39.975Z</time></trkpt><trkpt lat="44.48885829144968" lon="9.966152108689718"><ele>877.0</ele><time>2026-04-03T14:26:40.975Z</time></trkpt><trkpt lat="44.48874824736162" lon="9.966063439661923"><ele>877.0</ele><time>2026-04-03T14:26:41.975Z</time></trkpt><trkpt lat="44.48862287562626" lon="9.96604964254389"><ele>877.0</ele><time>2026-04-03T14:26:42.975Z</time></trkpt><trkpt lat="44.488499509504095" lon="9.966090074526614"><ele>877.0</ele><time>2026-04-03T14:26:43.975Z</time></trkpt><trkpt lat="44.48837103102862" lon="9.966175399671075"><ele>877.0</ele><time>2026-04-03T14:26:44.975Z</time></trkpt><trkpt lat="44.48822693928257" lon="9.966220654112913"><ele>877.0</ele><time>2026-04-03T14:26:45.975Z</time></trkpt><trkpt lat="44.4880784345576" lon="9.966232150272248"><ele>877.0</ele><time>2026-04-03T14:26:46.975Z</time></trkpt><trkpt lat="44.48795230686718" lon="9.96619727788306"><ele>877.0</ele><time>2026-04-03T14:26:47.975Z</time></trkpt><trkpt lat="44.48784698818013" lon="9.966100673390919"><ele>877.0</ele><time>2026-04-03T14:26:48.975Z</time></trkpt><trkpt lat="44.487768367471546" lon="9.965956731942676"><ele>877.0</ele><time>2026-04-03T14:26:49.975Z</time></trkpt><trkpt lat="44.48769687226371" lon="9.96579025480479"><ele>877.0</ele><time>2026-04-03T14:26:50.975Z</time></trkpt><trkpt lat="44.48761718080834" lon="9.965620754459364"><ele>874.6666666666666</ele><time>2026-04-03T14:26:51.975Z</time></trkpt><trkpt lat="44.48753066103935" lon="9.96545047644417"><ele>872.3333333333333</ele><time>2026-04-03T14:26:52.975Z</time></trkpt><trkpt lat="44.48744152469111" lon="9.965278825012168"><ele>870.0</ele><time>2026-04-03T14:26:53.975Z</time></trkpt><trkpt lat="44.48735974937803" lon="9.96510394031864"><ele>869.0</ele><time>2026-04-03T14:26:54.975Z</time></trkpt><trkpt lat="44.48728849592512" lon="9.964948719847886"><ele>868.0</ele><time>2026-04-03T14:26:55.975Z</time></trkpt><trkpt lat="44.48719717942608" lon="9.964814299581642"><ele>867.0</ele><time>2026-04-03T14:26:56.975Z</time></trkpt><trkpt lat="44.48707770772075" lon="9.964710044864658"><ele>866.0</ele><time>2026-04-03T14:26:57.975Z</time></trkpt><trkpt lat="44.48694042820225" lon="9.964637287333158"><ele>870.0</ele><time>2026-04-03T14:26:58.975Z</time></trkpt><trkpt lat="44.4867973407322" lon="9.964617565738942"><ele>874.0</ele><time>2026-04-03T14:26:59.975Z</time></trkpt><trkpt lat="44.48665102415525" lon="9.964642007027194"><ele>878.0</ele><time>2026-04-03T14:27:00.975Z</time></trkpt><trkpt lat="44.48649855821775" lon="9.96470835580837"><ele>878.0</ele><time>2026-04-03T14:27:01.975Z</time></trkpt><trkpt lat="44.486347280930886" lon="9.964789061364971"><ele>878.0</ele><time>2026-04-03T14:27:02.975Z</time></trkpt><trkpt lat="44.486214159647275" lon="9.964863879975729"><ele>878.0</ele><time>2026-04-03T14:27:03.975Z</time></trkpt><trkpt lat="44.48608937447996" lon="9.964927116488322"><ele>878.0</ele><time>2026-04-03T14:27:04.975Z</time></trkpt><trkpt lat="44.485969631057166" lon="9.964957086726633"><ele>881.25</ele><time>2026-04-03T14:27:05.975Z</time></trkpt><trkpt lat="44.48587033283964" lon="9.964949495752633"><ele>884.5</ele><time>2026-04-03T14:27:06.975Z</time></trkpt><trkpt lat="44.48577707656914" lon="9.964871547978069"><ele>887.75</ele><time>2026-04-03T14:27:07.975Z</time></trkpt><trkpt lat="44.485694585846524" lon="9.964754394932072"><ele>891.0</ele><time>2026-04-03T14:27:08.975Z</time></trkpt><trkpt lat="44.48563101824328" lon="9.96459620680494"><ele>891.0</ele><time>2026-04-03T14:27:09.975Z</time></trkpt><trkpt lat="44.4856195984642" lon="9.964383862727049"><ele>891.0</ele><time>2026-04-03T14:27:10.975Z</time></trkpt><trkpt lat="44.48563143299703" lon="9.964160753731345"><ele>891.0</ele><time>2026-04-03T14:27:11.975Z</time></trkpt><trkpt lat="44.48567551370411" lon="9.963956598449354"><ele>890.3333333333333</ele><time>2026-04-03T14:27:12.975Z</time></trkpt><trkpt lat="44.48574583905996" lon="9.963761789581325"><ele>889.6666666666666</ele><time>2026-04-03T14:27:13.975Z</time></trkpt><trkpt lat="44.485837984944474" lon="9.96357838967108"><ele>889.0</ele><time>2026-04-03T14:27:14.975Z</time></trkpt><trkpt lat="44.48592893099086" lon="9.963395154499299"><ele>889.6666666666666</ele><time>2026-04-03T14:27:15.975Z</time></trkpt><trkpt lat="44.48602054348313" lon="9.963201808886113"><ele>890.3333333333333</ele><time>2026-04-03T14:27:16.975Z</time></trkpt><trkpt lat="44.48608235357619" lon="9.963014351270823"><ele>891.0</ele><time>2026-04-03T14:27:17.975Z</time></trkpt><trkpt lat="44.486120994182556" lon="9.962826132110107"><ele>891.0</ele><time>2026-04-03T14:27:18.975Z</time></trkpt><trkpt lat="44.486113457841356" lon="9.962622648616458"><ele>891.0</ele><time>2026-04-03T14:27:19.975Z</time></trkpt><trkpt lat="44.48607336843711" lon="9.962397440737268"><ele>891.0</ele><time>2026-04-03T14:27:20.975Z</time></trkpt><trkpt lat="44.48601919859254" lon="9.962175587747435"><ele>891.3333333333333</ele><time>2026-04-03T14:27:21.975Z</time></trkpt><trkpt lat="44.48597029963608" lon="9.961959636296715"><ele>891.6666666666666</ele><time>2026-04-03T14:27:22.975Z</time></trkpt><trkpt lat="44.48592845048098" lon="9.961741261004553"><ele>892.0</ele><time>2026-04-03T14:27:23.975Z</time></trkpt><trkpt lat="44.485895802684134" lon="9.961527416606932"><ele>892.0</ele><time>2026-04-03T14:27:24.975Z</time></trkpt><trkpt lat="44.48585515955432" lon="9.961308340812362"><ele>892.0</ele><time>2026-04-03T14:27:25.975Z</time></trkpt><trkpt lat="44.48581468902314" lon="9.961078323618565"><ele>892.0</ele><time>2026-04-03T14:27:26.975Z</time></trkpt><trkpt lat="44.485771217777604" lon="9.960841148884063"><ele>892.3333333333333</ele><time>2026-04-03T14:27:27.975Z</time></trkpt><trkpt lat="44.48573138989818" lon="9.960608826269068"><ele>892.6666666666667</ele><time>2026-04-03T14:27:28.975Z</time></trkpt><trkpt lat="44.48568891073271" lon="9.960363547426567"><ele>893.0</ele><time>2026-04-03T14:27:29.975Z</time></trkpt><trkpt lat="44.48565704395415" lon="9.960115019306336"><ele>892.3333333333334</ele><time>2026-04-03T14:27:30.975Z</time></trkpt><trkpt lat="44.48564141120416" lon="9.959874892411667"><ele>891.6666666666667</ele><time>2026-04-03T14:27:31.975Z</time></trkpt><trkpt lat="44.48564244356894" lon="9.95965205817165"><ele>891.0</ele><time>2026-04-03T14:27:32.975Z</time></trkpt><trkpt lat="44.48565147197492" lon="9.959460506577221"><ele>891.0</ele><time>2026-04-03T14:27:33.975Z</time></trkpt><trkpt lat="44.48564697483253" lon="9.9592859393195"><ele>890.9999999999999</ele><time>2026-04-03T14:27:34.975Z</time></trkpt><trkpt lat="44.48562962224288" lon="9.959138322075566"><ele>890.9999999999999</ele><time>2026-04-03T14:27:35.975Z</time></trkpt><trkpt lat="44.48558018718131" lon="9.959014182544577"><ele>891.0</ele><time>2026-04-03T14:27:36.975Z</time></trkpt><trkpt lat="44.485490777072386" lon="9.958915792594679"><ele>891.0</ele><time>2026-04-03T14:27:37.975Z</time></trkpt><trkpt lat="44.48536147063079" lon="9.95884787875176"><ele>896.25</ele><time>2026-04-03T14:27:38.975Z</time></trkpt><trkpt lat="44.4852274416098" lon="9.958805477564544"><ele>901.5</ele><time>2026-04-03T14:27:39.975Z</time></trkpt><trkpt lat="44.48508583729999" lon="9.958797170270744"><ele>906.75</ele><time>2026-04-03T14:27:40.975Z</time></trkpt><trkpt lat="44.484930613567755" lon="9.958786184185872"><ele>912.0</ele><time>2026-04-03T14:27:41.975Z</time></trkpt><trkpt lat="44.48478239638616" lon="9.958758756339304"><ele>912.0</ele><time>2026-04-03T14:27:42.975Z</time></trkpt><trkpt lat="44.48465136712192" lon="9.95872347354103"><ele>912.0</ele><time>2026-04-03T14:27:43.975Z</time></trkpt><trkpt lat="44.4845481235618" lon="9.9586703160184"><ele>912.0</ele><time>2026-04-03T14:27:44.975Z</time></trkpt><trkpt lat="44.48445873848526" lon="9.958581994966531"><ele>912.0</ele><time>2026-04-03T14:27:45.975Z</time></trkpt><trkpt lat="44.484401229213375" lon="9.958451583355776"><ele>915.25</ele><time>2026-04-03T14:27:46.975Z</time></trkpt><trkpt lat="44.48439113189039" lon="9.958289728575162"><ele>918.5</ele><time>2026-04-03T14:27:47.975Z</time></trkpt><trkpt lat="44.484408177859606" lon="9.958118096340375"><ele>921.75</ele><time>2026-04-03T14:27:48.975Z</time></trkpt><trkpt lat="44.48443857429188" lon="9.957938759956876"><ele>925.0</ele><time>2026-04-03T14:27:49.975Z</time></trkpt><trkpt lat="44.48446878712208" lon="9.957755663303935"><ele>925.0</ele><time>2026-04-03T14:27:50.975Z</time></trkpt><trkpt lat="44.484489450212514" lon="9.95756829178658"><ele>925.0</ele><time>2026-04-03T14:27:51.975Z</time></trkpt><trkpt lat="44.48450559668074" lon="9.957373186957573"><ele>925.0</ele><time>2026-04-03T14:27:52.975Z</time></trkpt><trkpt lat="44.48451891577363" lon="9.957163476649926"><ele>925.0</ele><time>2026-04-03T14:27:53.975Z</time></trkpt><trkpt lat="44.48453423079387" lon="9.956961476140687"><ele>924.6666666666666</ele><time>2026-04-03T14:27:54.975Z</time></trkpt><trkpt lat="44.48455477489819" lon="9.956742704389933"><ele>924.3333333333333</ele><time>2026-04-03T14:27:55.975Z</time></trkpt><trkpt lat="44.48458077654379" lon="9.956527712978986"><ele>924.0</ele><time>2026-04-03T14:27:56.975Z</time></trkpt><trkpt lat="44.48461135874727" lon="9.956300195210385"><ele>920.6666666666667</ele><time>2026-04-03T14:27:57.975Z</time></trkpt><trkpt lat="44.48464975445466" lon="9.956064661179234"><ele>917.3333333333334</ele><time>2026-04-03T14:27:58.975Z</time></trkpt><trkpt lat="44.48470077860966" lon="9.955827861190889"><ele>914.0</ele><time>2026-04-03T14:27:59.975Z</time></trkpt><trkpt lat="44.484759269523174" lon="9.955581304852709"><ele>914.0</ele><time>2026-04-03T14:28:00.975Z</time></trkpt><trkpt lat="44.48481409083333" lon="9.955331598852677"><ele>914.0</ele><time>2026-04-03T14:28:01.975Z</time></trkpt><trkpt lat="44.484871100736186" lon="9.955090729703137"><ele>914.0</ele><time>2026-04-03T14:28:02.975Z</time></trkpt><trkpt lat="44.48492523327187" lon="9.954834745097932"><ele>918.6666666666667</ele><time>2026-04-03T14:28:03.975Z</time></trkpt><trkpt lat="44.48497347112102" lon="9.95458181090885"><ele>923.3333333333333</ele><time>2026-04-03T14:28:04.975Z</time></trkpt><trkpt lat="44.4850104701535" lon="9.954349306433262"><ele>928.0</ele><time>2026-04-03T14:28:05.975Z</time></trkpt><trkpt lat="44.48504103254279" lon="9.954126264335594"><ele>930.3333333333333</ele><time>2026-04-03T14:28:06.975Z</time></trkpt><trkpt lat="44.485059368568926" lon="9.953909706087078"><ele>932.6666666666667</ele><time>2026-04-03T14:28:07.975Z</time></trkpt><trkpt lat="44.485053418401" lon="9.953689629120086"><ele>935.0</ele><time>2026-04-03T14:28:08.975Z</time></trkpt><trkpt lat="44.48503219386816" lon="9.953471229588649"><ele>935.3333333333334</ele><time>2026-04-03T14:28:09.975Z</time></trkpt><trkpt lat="44.48499261099416" lon="9.953248569377358"><ele>935.6666666666667</ele><time>2026-04-03T14:28:10.975Z</time></trkpt><trkpt lat="44.48492918502001" lon="9.953028770855306"><ele>936.0</ele><time>2026-04-03T14:28:11.975Z</time></trkpt><trkpt lat="44.484852524544976" lon="9.952812132010537"><ele>936.0</ele><time>2026-04-03T14:28:12.975Z</time></trkpt><trkpt lat="44.48476862891576" lon="9.952588328433079"><ele>936.0</ele><time>2026-04-03T14:28:13.975Z</time></trkpt><trkpt lat="44.484669290724156" lon="9.952371413833177"><ele>936.0</ele><time>2026-04-03T14:28:14.975Z</time></trkpt><trkpt lat="44.484557870091564" lon="9.952164477818418"><ele>943.0</ele><time>2026-04-03T14:28:15.975Z</time></trkpt><trkpt lat="44.484450546543094" lon="9.951966569328603"><ele>950.0</ele><time>2026-04-03T14:28:16.975Z</time></trkpt><trkpt lat="44.48436248569603" lon="9.951742637905172"><ele>957.0</ele><time>2026-04-03T14:28:17.975Z</time></trkpt><trkpt lat="44.484297278819035" lon="9.951506022361214"><ele>957.0</ele><time>2026-04-03T14:28:18.975Z</time></trkpt><trkpt lat="44.48424388794207" lon="9.951267846913716"><ele>957.0</ele><time>2026-04-03T14:28:19.975Z</time></trkpt><trkpt lat="44.484186420362214" lon="9.951039118537704"><ele>957.0</ele><time>2026-04-03T14:28:20.975Z</time></trkpt><trkpt lat="44.48414727044835" lon="9.950822685544782"><ele>955.25</ele><time>2026-04-03T14:28:21.975Z</time></trkpt><trkpt lat="44.484096330330196" lon="9.950633630358332"><ele>953.5</ele><time>2026-04-03T14:28:22.975Z</time></trkpt><trkpt lat="44.48402584181828" lon="9.950457113685786"><ele>951.75</ele><time>2026-04-03T14:28:23.975Z</time></trkpt><trkpt lat="44.483939528026596" lon="9.950296137702047"><ele>950.0</ele><time>2026-04-03T14:28:24.975Z</time></trkpt><trkpt lat="44.48382836771948" lon="9.950184323159236"><ele>951.6666666666667</ele><time>2026-04-03T14:28:25.975Z</time></trkpt><trkpt lat="44.483696322249" lon="9.950078155315389"><ele>953.3333333333333</ele><time>2026-04-03T14:28:26.975Z</time></trkpt><trkpt lat="44.48354868122024" lon="9.95000157931348"><ele>955.0</ele><time>2026-04-03T14:28:27.975Z</time></trkpt><trkpt lat="44.48339849415172" lon="9.949964316277809"><ele>955.0</ele><time>2026-04-03T14:28:28.975Z</time></trkpt><trkpt lat="44.48324424310253" lon="9.94997008902933"><ele>955.0</ele><time>2026-04-03T14:28:29.975Z</time></trkpt><trkpt lat="44.48309463120407" lon="9.949992881462999"><ele>955.0</ele><time>2026-04-03T14:28:30.975Z</time></trkpt><trkpt lat="44.48295724564913" lon="9.949998948067277"><ele>955.0</ele><time>2026-04-03T14:28:31.975Z</time></trkpt><trkpt lat="44.48283268969553" lon="9.949969177279176"><ele>959.25</ele><time>2026-04-03T14:28:32.975Z</time></trkpt><trkpt lat="44.48271480879549" lon="9.949902243886525"><ele>963.5</ele><time>2026-04-03T14:28:33.975Z</time></trkpt><trkpt lat="44.482602826392075" lon="9.949788360003936"><ele>967.75</ele><time>2026-04-03T14:28:34.975Z</time></trkpt><trkpt lat="44.48248111668852" lon="9.949651332607976"><ele>972.0</ele><time>2026-04-03T14:28:35.975Z</time></trkpt><trkpt lat="44.48235316326579" lon="9.94953277054081"><ele>972.0</ele><time>2026-04-03T14:28:36.975Z</time></trkpt><trkpt lat="44.48222198543655" lon="9.94940355116287"><ele>972.0</ele><time>2026-04-03T14:28:37.975Z</time></trkpt><trkpt lat="44.482097321335395" lon="9.94928699746988"><ele>972.0</ele><time>2026-04-03T14:28:38.975Z</time></trkpt><trkpt lat="44.48199683373921" lon="9.949171178842988"><ele>972.0</ele><time>2026-04-03T14:28:39.975Z</time></trkpt><trkpt lat="44.48191030398626" lon="9.949029209035126"><ele>972.4000000000001</ele><time>2026-04-03T14:28:40.975Z</time></trkpt><trkpt lat="44.48184596325585" lon="9.948857927207516"><ele>972.8000000000001</ele><time>2026-04-03T14:28:41.975Z</time></trkpt><trkpt lat="44.48180279513342" lon="9.948697269919583"><ele>973.2</ele><time>2026-04-03T14:28:42.975Z</time></trkpt><trkpt lat="44.481762332941074" lon="9.948575318913786"><ele>973.6</ele><time>2026-04-03T14:28:43.975Z</time></trkpt><trkpt lat="44.48171025632721" lon="9.948493370998966"><ele>974.0</ele><time>2026-04-03T14:28:44.975Z</time></trkpt><trkpt lat="44.48164954408184" lon="9.948442022965029"><ele>974.0</ele><time>2026-04-03T14:28:45.975Z</time></trkpt><trkpt lat="44.48156682857723" lon="9.948440022301114"><ele>974.0</ele><time>2026-04-03T14:28:46.975Z</time></trkpt><trkpt lat="44.4814724405125" lon="9.948505650529347"><ele>974.0</ele><time>2026-04-03T14:28:47.975Z</time></trkpt><trkpt lat="44.48138060976063" lon="9.948619792908001"><ele>974.0</ele><time>2026-04-03T14:28:48.975Z</time></trkpt><trkpt lat="44.481286515852666" lon="9.94876298928322"><ele>972.6666666666667</ele><time>2026-04-03T14:28:49.975Z</time></trkpt><trkpt lat="44.481187275591736" lon="9.94890806181022"><ele>971.3333333333333</ele><time>2026-04-03T14:28:50.975Z</time></trkpt><trkpt lat="44.48107495786732" lon="9.949067592817386"><ele>970.0</ele><time>2026-04-03T14:28:51.975Z</time></trkpt><trkpt lat="44.48095669406187" lon="9.949236593860673"><ele>975.0</ele><time>2026-04-03T14:28:52.975Z</time></trkpt><trkpt lat="44.480839189133484" lon="9.949404818618808"><ele>980.0</ele><time>2026-04-03T14:28:53.975Z</time></trkpt><trkpt lat="44.48073510968396" lon="9.949570311544463"><ele>985.0</ele><time>2026-04-03T14:28:54.975Z</time></trkpt><trkpt lat="44.480634531379536" lon="9.949694575517455"><ele>985.0</ele><time>2026-04-03T14:28:55.975Z</time></trkpt><trkpt lat="44.48052484262056" lon="9.949787608324524"><ele>985.0</ele><time>2026-04-03T14:28:56.975Z</time></trkpt><trkpt lat="44.4803867985231" lon="9.949825457233857"><ele>985.0</ele><time>2026-04-03T14:28:57.975Z</time></trkpt><trkpt lat="44.48024573877028" lon="9.94983256351499"><ele>985.0</ele><time>2026-04-03T14:28:58.975Z</time></trkpt><trkpt lat="44.48011364421161" lon="9.949829602385169"><ele>984.75</ele><time>2026-04-03T14:28:59.975Z</time></trkpt><trkpt lat="44.47998820889368" lon="9.949836506084978"><ele>984.5</ele><time>2026-04-03T14:29:00.975Z</time></trkpt><trkpt lat="44.47986286412558" lon="9.949853517269263"><ele>984.25</ele><time>2026-04-03T14:29:01.975Z</time></trkpt><trkpt lat="44.47973911915168" lon="9.949888574562442"><ele>984.0</ele><time>2026-04-03T14:29:02.975Z</time></trkpt><trkpt lat="44.47962440031174" lon="9.949904908937839"><ele>984.0</ele><time>2026-04-03T14:29:03.975Z</time></trkpt><trkpt lat="44.47951467367833" lon="9.949918868732302"><ele>984.0000000000001</ele><time>2026-04-03T14:29:04.975Z</time></trkpt><trkpt lat="44.47940168792956" lon="9.949933682089418"><ele>984.0000000000001</ele><time>2026-04-03T14:29:05.975Z</time></trkpt><trkpt lat="44.479290277907964" lon="9.949942846090792"><ele>984.0</ele><time>2026-04-03T14:29:06.975Z</time></trkpt><trkpt lat="44.47918038436465" lon="9.949954088947367"><ele>984.0</ele><time>2026-04-03T14:29:07.975Z</time></trkpt><trkpt lat="44.47906735263934" lon="9.94997590004589"><ele>984.0</ele><time>2026-04-03T14:29:08.975Z</time></trkpt><trkpt lat="44.478953842631554" lon="9.950008938119147"><ele>984.0</ele><time>2026-04-03T14:29:09.975Z</time></trkpt><trkpt lat="44.47883503680913" lon="9.95003561116753"><ele>984.0</ele><time>2026-04-03T14:29:10.975Z</time></trkpt><trkpt lat="44.478724391864716" lon="9.950060909882707"><ele>984.0</ele><time>2026-04-03T14:29:11.975Z</time></trkpt><trkpt lat="44.47859855636708" lon="9.950069239885984"><ele>988.75</ele><time>2026-04-03T14:29:12.975Z</time></trkpt><trkpt lat="44.47847114346579" lon="9.950089570406055"><ele>993.5</ele><time>2026-04-03T14:29:13.975Z</time></trkpt><trkpt lat="44.47835478621605" lon="9.950109218430224"><ele>998.25</ele><time>2026-04-03T14:29:14.975Z</time></trkpt><trkpt lat="44.47823691966102" lon="9.950108197101715"><ele>1003.0</ele><time>2026-04-03T14:29:15.975Z</time></trkpt><trkpt lat="44.47811254808931" lon="9.950070164445027"><ele>1002.25</ele><time>2026-04-03T14:29:16.975Z</time></trkpt><trkpt lat="44.477992509629125" lon="9.950003257783829"><ele>1001.5</ele><time>2026-04-03T14:29:17.975Z</time></trkpt><trkpt lat="44.477891041149334" lon="9.949909705595857"><ele>1000.75</ele><time>2026-04-03T14:29:18.975Z</time></trkpt><trkpt lat="44.47780348610932" lon="9.94978798944422"><ele>1000.0</ele><time>2026-04-03T14:29:19.975Z</time></trkpt><trkpt lat="44.477749132340556" lon="9.949636437644456"><ele>1000.0</ele><time>2026-04-03T14:29:20.975Z</time></trkpt><trkpt lat="44.477739398172474" lon="9.949449154675758"><ele>1000.0</ele><time>2026-04-03T14:29:21.975Z</time></trkpt><trkpt lat="44.47776216788707" lon="9.949270995798114"><ele>1000.0</ele><time>2026-04-03T14:29:22.975Z</time></trkpt><trkpt lat="44.47777501090697" lon="9.949090703620906"><ele>1000.0</ele><time>2026-04-03T14:29:23.975Z</time></trkpt><trkpt lat="44.47775405478438" lon="9.9488927918883"><ele>998.75</ele><time>2026-04-03T14:29:24.975Z</time></trkpt><trkpt lat="44.477719683704336" lon="9.948701974264978"><ele>997.5</ele><time>2026-04-03T14:29:25.975Z</time></trkpt><trkpt lat="44.47766335663348" lon="9.948529599734192"><ele>996.25</ele><time>2026-04-03T14:29:26.974Z</time></trkpt><trkpt lat="44.4775926289679" lon="9.94838406839791"><ele>995.0</ele><time>2026-04-03T14:29:27.974Z</time></trkpt><trkpt lat="44.47749365614354" lon="9.948273615203254"><ele>992.3333333333334</ele><time>2026-04-03T14:29:28.974Z</time></trkpt><trkpt lat="44.47736228193744" lon="9.948190406663851"><ele>989.6666666666667</ele><time>2026-04-03T14:29:29.974Z</time></trkpt><trkpt lat="44.47721098967752" lon="9.948131308998338"><ele>987.0</ele><time>2026-04-03T14:29:30.974Z</time></trkpt><trkpt lat="44.47706692761979" lon="9.948054403334908"><ele>989.0</ele><time>2026-04-03T14:29:31.974Z</time></trkpt><trkpt lat="44.47693410964249" lon="9.947930637817135"><ele>991.0</ele><time>2026-04-03T14:29:32.974Z</time></trkpt><trkpt lat="44.47679998802557" lon="9.94775656914862"><ele>993.0</ele><time>2026-04-03T14:29:33.974Z</time></trkpt><trkpt lat="44.47670077840298" lon="9.94754351994984"><ele>993.0</ele><time>2026-04-03T14:29:34.974Z</time></trkpt><trkpt lat="44.47661607546714" lon="9.94733875664597"><ele>993.0</ele><time>2026-04-03T14:29:35.974Z</time></trkpt><trkpt lat="44.47651931172429" lon="9.94715199319998"><ele>993.0</ele><time>2026-04-03T14:29:36.974Z</time></trkpt><trkpt lat="44.47637918006308" lon="9.947007224161013"><ele>998.6666666666667</ele><time>2026-04-03T14:29:37.975Z</time></trkpt><trkpt lat="44.47621277461534" lon="9.94690336341769"><ele>1004.3333333333334</ele><time>2026-04-03T14:29:38.975Z</time></trkpt><trkpt lat="44.47603500108389" lon="9.946824655558515"><ele>1010.0</ele><time>2026-04-03T14:29:39.975Z</time></trkpt><trkpt lat="44.475883980484454" lon="9.946756995276907"><ele>1008.0</ele><time>2026-04-03T14:29:40.975Z</time></trkpt><trkpt lat="44.475723702650306" lon="9.946678341166733"><ele>1006.0</ele><time>2026-04-03T14:29:41.975Z</time></trkpt><trkpt lat="44.475548644253855" lon="9.946610137109081"><ele>1004.0</ele><time>2026-04-03T14:29:42.975Z</time></trkpt><trkpt lat="44.4753588685213" lon="9.946552233653321"><ele>1004.0</ele><time>2026-04-03T14:29:43.975Z</time></trkpt><trkpt lat="44.4751752066936" lon="9.946499878831833"><ele>1004.0</ele><time>2026-04-03T14:29:44.975Z</time></trkpt><trkpt lat="44.47499957276516" lon="9.94645024993709"><ele>1004.0</ele><time>2026-04-03T14:29:45.975Z</time></trkpt><trkpt lat="44.474833206009485" lon="9.946395877508346"><ele>1004.0</ele><time>2026-04-03T14:29:46.975Z</time></trkpt><trkpt lat="44.47468698423438" lon="9.946329298461592"><ele>1004.0</ele><time>2026-04-03T14:29:47.975Z</time></trkpt><trkpt lat="44.47456323160608" lon="9.946256242547605"><ele>1004.0</ele><time>2026-04-03T14:29:48.975Z</time></trkpt><trkpt lat="44.47446340709677" lon="9.946150215650382"><ele>1004.0</ele><time>2026-04-03T14:29:49.975Z</time></trkpt><trkpt lat="44.47438722396318" lon="9.945987195821049"><ele>1005.6666666666667</ele><time>2026-04-03T14:29:50.975Z</time></trkpt><trkpt lat="44.474348819382435" lon="9.945791533959271"><ele>1007.3333333333333</ele><time>2026-04-03T14:29:51.975Z</time></trkpt><trkpt lat="44.474304331226094" lon="9.945599278693237"><ele>1009.0</ele><time>2026-04-03T14:29:52.975Z</time></trkpt><trkpt lat="44.47424192511147" lon="9.945367092525881"><ele>1009.0</ele><time>2026-04-03T14:29:53.975Z</time></trkpt><trkpt lat="44.47419201388869" lon="9.94513457758425"><ele>1009.0</ele><time>2026-04-03T14:29:54.975Z</time></trkpt><trkpt lat="44.474146204294975" lon="9.944915911954425"><ele>1009.0</ele><time>2026-04-03T14:29:55.975Z</time></trkpt><trkpt lat="44.47410328986553" lon="9.944714896827065"><ele>1008.0</ele><time>2026-04-03T14:29:56.975Z</time></trkpt><trkpt lat="44.474032957364955" lon="9.944485408085349"><ele>1007.0</ele><time>2026-04-03T14:29:57.975Z</time></trkpt><trkpt lat="44.47394740872525" lon="9.944247118603531"><ele>1006.0</ele><time>2026-04-03T14:29:58.975Z</time></trkpt><trkpt lat="44.47385190831063" lon="9.944008146658835"><ele>1010.0</ele><time>2026-04-03T14:29:59.975Z</time></trkpt><trkpt lat="44.473761582975996" lon="9.943787924904935"><ele>1014.0</ele><time>2026-04-03T14:30:00.975Z</time></trkpt><trkpt lat="44.47367119736392" lon="9.943586298909318"><ele>1018.0</ele><time>2026-04-03T14:30:01.975Z</time></trkpt><trkpt lat="44.473602164321264" lon="9.943395406646163"><ele>1018.5</ele><time>2026-04-03T14:30:02.975Z</time></trkpt><trkpt lat="44.47355887855527" lon="9.943208790635696"><ele>1019.0</ele><time>2026-04-03T14:30:03.975Z</time></trkpt><trkpt lat="44.473550454993514" lon="9.943021030938406"><ele>1019.5</ele><time>2026-04-03T14:30:04.975Z</time></trkpt><trkpt lat="44.47354656229355" lon="9.942812735938976"><ele>1020.0</ele><time>2026-04-03T14:30:05.975Z</time></trkpt><trkpt lat="44.47356281628442" lon="9.94260657123506"><ele>1024.75</ele><time>2026-04-03T14:30:06.975Z</time></trkpt><trkpt lat="44.47362225767901" lon="9.942440646281977"><ele>1029.5</ele><time>2026-04-03T14:30:07.975Z</time></trkpt><trkpt lat="44.473707103443424" lon="9.942289526600428"><ele>1034.25</ele><time>2026-04-03T14:30:08.975Z</time></trkpt><trkpt lat="44.473815814685565" lon="9.942151613614685"><ele>1039.0</ele><time>2026-04-03T14:30:09.975Z</time></trkpt><trkpt lat="44.47393960977445" lon="9.942038421479321"><ele>1032.0</ele><time>2026-04-03T14:30:10.975Z</time></trkpt><trkpt lat="44.47406316217804" lon="9.941924517479855"><ele>1025.0</ele><time>2026-04-03T14:30:11.975Z</time></trkpt><trkpt lat="44.474177090701716" lon="9.94182150884374"><ele>1018.0</ele><time>2026-04-03T14:30:12.975Z</time></trkpt><trkpt lat="44.47426865834427" lon="9.941724901632837"><ele>1011.0</ele><time>2026-04-03T14:30:13.975Z</time></trkpt><trkpt lat="44.474321097347506" lon="9.941633989368441"><ele>1011.0</ele><time>2026-04-03T14:30:14.975Z</time></trkpt><trkpt lat="44.4743238138969" lon="9.941533579329827"><ele>1010.9999999999999</ele><time>2026-04-03T14:30:15.975Z</time></trkpt><trkpt lat="44.47427755798851" lon="9.941435897520854"><ele>1010.9999999999999</ele><time>2026-04-03T14:30:16.975Z</time></trkpt><trkpt lat="44.474192134547486" lon="9.941371490146352"><ele>1011.0</ele><time>2026-04-03T14:30:17.975Z</time></trkpt><trkpt lat="44.4740808400813" lon="9.941312714056311"><ele>1011.0</ele><time>2026-04-03T14:30:18.975Z</time></trkpt><trkpt lat="44.47395880914249" lon="9.941211218901234"><ele>1011.0</ele><time>2026-04-03T14:30:19.975Z</time></trkpt><trkpt lat="44.473838290861956" lon="9.941080384508533"><ele>1011.0</ele><time>2026-04-03T14:30:20.975Z</time></trkpt><trkpt lat="44.47373779669933" lon="9.94088693442319"><ele>1011.0</ele><time>2026-04-03T14:30:21.975Z</time></trkpt><trkpt lat="44.473653614339646" lon="9.94067971911018"><ele>1017.3333333333333</ele><time>2026-04-03T14:30:22.975Z</time></trkpt><trkpt lat="44.47355661783747" lon="9.940498411394898"><ele>1023.6666666666666</ele><time>2026-04-03T14:30:23.975Z</time></trkpt><trkpt lat="44.47344109611376" lon="9.940355154361104"><ele>1030.0</ele><time>2026-04-03T14:30:24.975Z</time></trkpt><trkpt lat="44.473308881468284" lon="9.940262225960685"><ele>1030.0</ele><time>2026-04-03T14:30:25.975Z</time></trkpt><trkpt lat="44.473165040654266" lon="9.940228409159452"><ele>1030.0</ele><time>2026-04-03T14:30:26.975Z</time></trkpt><trkpt lat="44.47302628596363" lon="9.940226175765238"><ele>1030.0</ele><time>2026-04-03T14:30:27.975Z</time></trkpt><trkpt lat="44.47287733184846" lon="9.940222257265551"><ele>1030.0</ele><time>2026-04-03T14:30:28.975Z</time></trkpt><trkpt lat="44.472724810359416" lon="9.940191246506611"><ele>1028.0</ele><time>2026-04-03T14:30:29.975Z</time></trkpt><trkpt lat="44.47258572105937" lon="9.940146906533315"><ele>1026.0</ele><time>2026-04-03T14:30:30.975Z</time></trkpt><trkpt lat="44.472465992901654" lon="9.940094998895521"><ele>1024.0</ele><time>2026-04-03T14:30:31.975Z</time></trkpt><trkpt lat="44.47236807524129" lon="9.94000898009413"><ele>1022.0</ele><time>2026-04-03T14:30:32.975Z</time></trkpt><trkpt lat="44.47229665351001" lon="9.939874923247686"><ele>1022.0</ele><time>2026-04-03T14:30:33.975Z</time></trkpt><trkpt lat="44.47224760399305" lon="9.939706229605106"><ele>1022.0</ele><time>2026-04-03T14:30:34.975Z</time></trkpt><trkpt lat="44.47220553729112" lon="9.939516694910076"><ele>1022.0</ele><time>2026-04-03T14:30:35.975Z</time></trkpt><trkpt lat="44.4721808410588" lon="9.9393362766661"><ele>1022.0</ele><time>2026-04-03T14:30:36.975Z</time></trkpt><trkpt lat="44.472181611421966" lon="9.939174358471117"><ele>1021.0</ele><time>2026-04-03T14:30:37.975Z</time></trkpt><trkpt lat="44.47222133543305" lon="9.939025900681745"><ele>1020.0</ele><time>2026-04-03T14:30:38.975Z</time></trkpt><trkpt lat="44.472304767206516" lon="9.938919566307856"><ele>1019.0</ele><time>2026-04-03T14:30:39.975Z</time></trkpt><trkpt lat="44.47240587264827" lon="9.938831091879125"><ele>1018.0</ele><time>2026-04-03T14:30:40.975Z</time></trkpt><trkpt lat="44.47250338856383" lon="9.938719429178102"><ele>1018.0</ele><time>2026-04-03T14:30:41.975Z</time></trkpt><trkpt lat="44.472565817824595" lon="9.938573837535795"><ele>1018.0</ele><time>2026-04-03T14:30:42.975Z</time></trkpt><trkpt lat="44.47260019534187" lon="9.93840796185467"><ele>1018.0</ele><time>2026-04-03T14:30:43.975Z</time></trkpt><trkpt lat="44.47261478004257" lon="9.938224779686568"><ele>1018.0</ele><time>2026-04-03T14:30:44.975Z</time></trkpt><trkpt lat="44.472635368016896" lon="9.938023320573683"><ele>1019.6666666666666</ele><time>2026-04-03T14:30:45.975Z</time></trkpt><trkpt lat="44.4726575972595" lon="9.937814583697405"><ele>1021.3333333333333</ele><time>2026-04-03T14:30:46.975Z</time></trkpt><trkpt lat="44.47268175724181" lon="9.937606210288433"><ele>1023.0</ele><time>2026-04-03T14:30:47.975Z</time></trkpt><trkpt lat="44.47269533875912" lon="9.93739270623222"><ele>1024.0</ele><time>2026-04-03T14:30:48.975Z</time></trkpt><trkpt lat="44.47271989253769" lon="9.937192184576338"><ele>1025.0</ele><time>2026-04-03T14:30:49.975Z</time></trkpt><trkpt lat="44.47276332804421" lon="9.936993996577703"><ele>1026.0</ele><time>2026-04-03T14:30:50.975Z</time></trkpt><trkpt lat="44.47281544432307" lon="9.936815268731971"><ele>1027.0</ele><time>2026-04-03T14:30:51.975Z</time></trkpt><trkpt lat="44.472852766375325" lon="9.936643642068168"><ele>1027.5</ele><time>2026-04-03T14:30:52.975Z</time></trkpt><trkpt lat="44.47286832672185" lon="9.93646784876393"><ele>1028.0</ele><time>2026-04-03T14:30:53.975Z</time></trkpt><trkpt lat="44.4728398063344" lon="9.936289070189694"><ele>1028.5</ele><time>2026-04-03T14:30:54.975Z</time></trkpt><trkpt lat="44.472778798430326" lon="9.936127150049058"><ele>1029.0</ele><time>2026-04-03T14:30:55.975Z</time></trkpt><trkpt lat="44.47269087279612" lon="9.935992428009943"><ele>1026.3333333333333</ele><time>2026-04-03T14:30:56.975Z</time></trkpt><trkpt lat="44.472578738348375" lon="9.935860494622585"><ele>1023.6666666666666</ele><time>2026-04-03T14:30:57.975Z</time></trkpt><trkpt lat="44.47245524001845" lon="9.935731946181752"><ele>1021.0</ele><time>2026-04-03T14:30:58.975Z</time></trkpt><trkpt lat="44.4723209922806" lon="9.93559363980944"><ele>1021.0</ele><time>2026-04-03T14:30:59.975Z</time></trkpt><trkpt lat="44.47220357453724" lon="9.935446412544161"><ele>1021.0</ele><time>2026-04-03T14:31:00.975Z</time></trkpt><trkpt lat="44.47209377811859" lon="9.935312940228982"><ele>1021.0</ele><time>2026-04-03T14:31:01.975Z</time></trkpt><trkpt lat="44.47197990943121" lon="9.935214423528059"><ele>1021.0</ele><time>2026-04-03T14:31:02.975Z</time></trkpt><trkpt lat="44.47185894296575" lon="9.93516313843051"><ele>1020.5999999999999</ele><time>2026-04-03T14:31:03.975Z</time></trkpt><trkpt lat="44.471739371542874" lon="9.935169484900873"><ele>1020.1999999999999</ele><time>2026-04-03T14:31:04.975Z</time></trkpt><trkpt lat="44.47163273063345" lon="9.935183431194961"><ele>1019.8000000000001</ele><time>2026-04-03T14:31:05.975Z</time></trkpt><trkpt lat="44.471544183818146" lon="9.935163964701587"><ele>1019.4000000000001</ele><time>2026-04-03T14:31:06.975Z</time></trkpt><trkpt lat="44.471478040905474" lon="9.935076416011988"><ele>1019.0</ele><time>2026-04-03T14:31:07.975Z</time></trkpt><trkpt lat="44.47146413459751" lon="9.934930567983507"><ele>1019.0</ele><time>2026-04-03T14:31:08.975Z</time></trkpt><trkpt lat="44.47147107904562" lon="9.934769889300098"><ele>1019.0</ele><time>2026-04-03T14:31:09.975Z</time></trkpt><trkpt lat="44.47149771211086" lon="9.934600090314861"><ele>1019.0</ele><time>2026-04-03T14:31:10.975Z</time></trkpt><trkpt lat="44.471542491045376" lon="9.93442954742175"><ele>1019.0</ele><time>2026-04-03T14:31:11.975Z</time></trkpt><trkpt lat="44.47158708655313" lon="9.934246727628485"><ele>1021.0</ele><time>2026-04-03T14:31:12.975Z</time></trkpt><trkpt lat="44.471654717511825" lon="9.93405891367554"><ele>1023.0</ele><time>2026-04-03T14:31:13.975Z</time></trkpt><trkpt lat="44.47173172002628" lon="9.933882116532565"><ele>1025.0</ele><time>2026-04-03T14:31:14.975Z</time></trkpt><trkpt lat="44.471820548626674" lon="9.933700006074215"><ele>1025.0</ele><time>2026-04-03T14:31:15.975Z</time></trkpt><trkpt lat="44.47191014619207" lon="9.933503244329476"><ele>1025.0</ele><time>2026-04-03T14:31:16.975Z</time></trkpt><trkpt lat="44.47199942506405" lon="9.933304567651282"><ele>1025.0</ele><time>2026-04-03T14:31:17.975Z</time></trkpt><trkpt lat="44.47208117684252" lon="9.933091842092134"><ele>1022.0</ele><time>2026-04-03T14:31:18.975Z</time></trkpt><trkpt lat="44.47216046452511" lon="9.932873174261406"><ele>1019.0</ele><time>2026-04-03T14:31:19.975Z</time></trkpt><trkpt lat="44.47222612329292" lon="9.932644297867567"><ele>1016.0</ele><time>2026-04-03T14:31:20.975Z</time></trkpt><trkpt lat="44.472283008825386" lon="9.932410142767313"><ele>1016.0</ele><time>2026-04-03T14:31:21.975Z</time></trkpt><trkpt lat="44.472334249371784" lon="9.932172619488865"><ele>1016.0</ele><time>2026-04-03T14:31:22.975Z</time></trkpt><trkpt lat="44.47238379004252" lon="9.93194593181805"><ele>1016.0</ele><time>2026-04-03T14:31:23.975Z</time></trkpt><trkpt lat="44.4724341413386" lon="9.931733243568592"><ele>1018.5</ele><time>2026-04-03T14:31:24.975Z</time></trkpt><trkpt lat="44.47248107755158" lon="9.93153519002718"><ele>1021.0</ele><time>2026-04-03T14:31:25.975Z</time></trkpt><trkpt lat="44.472512856298486" lon="9.93134133426471"><ele>1023.5</ele><time>2026-04-03T14:31:26.975Z</time></trkpt><trkpt lat="44.47252701531027" lon="9.931155013912454"><ele>1026.0</ele><time>2026-04-03T14:31:27.975Z</time></trkpt><trkpt lat="44.472521303531366" lon="9.930973423292334"><ele>1027.75</ele><time>2026-04-03T14:31:28.975Z</time></trkpt><trkpt lat="44.47249338162743" lon="9.930792291410032"><ele>1029.5</ele><time>2026-04-03T14:31:29.975Z</time></trkpt><trkpt lat="44.472455327811936" lon="9.93061683517916"><ele>1031.25</ele><time>2026-04-03T14:31:30.975Z</time></trkpt><trkpt lat="44.472405670632945" lon="9.93045467684842"><ele>1033.0</ele><time>2026-04-03T14:31:31.973Z</time></trkpt><trkpt lat="44.472353306760844" lon="9.930306833377191"><ele>1033.0</ele><time>2026-04-03T14:31:32.973Z</time></trkpt><trkpt lat="44.47229746715575" lon="9.930166528014112"><ele>1033.0</ele><time>2026-04-03T14:31:33.973Z</time></trkpt><trkpt lat="44.47224436976951" lon="9.93003915249348"><ele>1033.0</ele><time>2026-04-03T14:31:34.973Z</time></trkpt><trkpt lat="44.47220489318916" lon="9.929923901926081"><ele>1033.0</ele><time>2026-04-03T14:31:35.974Z</time></trkpt><trkpt lat="44.472169689828156" lon="9.929815587133394"><ele>1033.0</ele><time>2026-04-03T14:31:36.974Z</time></trkpt><trkpt lat="44.47213410238291" lon="9.92970662073319"><ele>1037.0</ele><time>2026-04-03T14:31:37.973Z</time></trkpt><trkpt lat="44.4720960729914" lon="9.929610915050555"><ele>1041.0</ele><time>2026-04-03T14:31:38.973Z</time></trkpt><trkpt lat="44.472043136170655" lon="9.929481480731882"><ele>1045.0</ele><time>2026-04-03T14:31:40.973Z</time></trkpt><trkpt lat="44.47201832826122" lon="9.929379654638286"><ele>1049.0</ele><time>2026-04-03T14:31:42.973Z</time></trkpt><trkpt lat="44.47199869839757" lon="9.92929481281453"><ele>1053.0</ele><time>2026-04-03T14:31:45.973Z</time></trkpt><trkpt lat="44.47186892564431" lon="9.92933535947812"><ele>1053.0</ele><time>2026-04-03T14:39:54.974Z</time></trkpt><trkpt lat="44.47180881061136" lon="9.929268111033652"><ele>1053.0</ele><time>2026-04-03T14:39:57.973Z</time></trkpt><trkpt lat="44.471745885206126" lon="9.929110202122079"><ele>1053.0</ele><time>2026-04-03T14:39:59.973Z</time></trkpt><trkpt lat="44.471716243410086" lon="9.929006863224862"><ele>1053.0</ele><time>2026-04-03T14:40:00.973Z</time></trkpt><trkpt lat="44.471680926447675" lon="9.928893088402077"><ele>1053.0</ele><time>2026-04-03T14:40:01.973Z</time></trkpt><trkpt lat="44.471633266005334" lon="9.92876759086634"><ele>1050.25</ele><time>2026-04-03T14:40:02.973Z</time></trkpt><trkpt lat="44.47158584261913" lon="9.928633406325922"><ele>1047.5</ele><time>2026-04-03T14:40:03.973Z</time></trkpt><trkpt lat="44.471531115181214" lon="9.92848489833318"><ele>1044.75</ele><time>2026-04-03T14:40:04.973Z</time></trkpt><trkpt lat="44.471486478528426" lon="9.928336921759392"><ele>1042.0</ele><time>2026-04-03T14:40:05.973Z</time></trkpt><trkpt lat="44.47143931453774" lon="9.928186211065585"><ele>1042.5</ele><time>2026-04-03T14:40:06.973Z</time></trkpt><trkpt lat="44.47139107569897" lon="9.928044463171682"><ele>1043.0</ele><time>2026-04-03T14:40:07.973Z</time></trkpt><trkpt lat="44.471359087993626" lon="9.9278888143873"><ele>1043.5</ele><time>2026-04-03T14:40:08.973Z</time></trkpt><trkpt lat="44.47134603779607" lon="9.927723723722258"><ele>1044.0</ele><time>2026-04-03T14:40:09.973Z</time></trkpt><trkpt lat="44.4713508130956" lon="9.927549936081023"><ele>1044.0</ele><time>2026-04-03T14:40:10.973Z</time></trkpt><trkpt lat="44.47136471656547" lon="9.927373724314634"><ele>1044.0</ele><time>2026-04-03T14:40:11.973Z</time></trkpt><trkpt lat="44.47138143081368" lon="9.927190782443438"><ele>1044.0</ele><time>2026-04-03T14:40:12.973Z</time></trkpt><trkpt lat="44.47138190176554" lon="9.926996963129943"><ele>1044.0</ele><time>2026-04-03T14:40:13.973Z</time></trkpt><trkpt lat="44.47137450680465" lon="9.926787291764002"><ele>1046.3333333333333</ele><time>2026-04-03T14:40:14.973Z</time></trkpt><trkpt lat="44.47134276020938" lon="9.926570565116473"><ele>1048.6666666666665</ele><time>2026-04-03T14:40:15.973Z</time></trkpt><trkpt lat="44.47132934975515" lon="9.926337379961959"><ele>1051.0</ele><time>2026-04-03T14:40:16.973Z</time></trkpt><trkpt lat="44.471345178817224" lon="9.926103744879741"><ele>1050.3333333333333</ele><time>2026-04-03T14:40:17.973Z</time></trkpt><trkpt lat="44.47137570245288" lon="9.925884155560102"><ele>1049.6666666666667</ele><time>2026-04-03T14:40:18.973Z</time></trkpt><trkpt lat="44.471427101045755" lon="9.925665340467082"><ele>1049.0</ele><time>2026-04-03T14:40:19.973Z</time></trkpt><trkpt lat="44.47151256430195" lon="9.925442787795946"><ele>1049.0</ele><time>2026-04-03T14:40:20.973Z</time></trkpt><trkpt lat="44.47160195376536" lon="9.925212682502167"><ele>1049.0</ele><time>2026-04-03T14:40:21.973Z</time></trkpt><trkpt lat="44.471678517578376" lon="9.92498608200039"><ele>1049.0</ele><time>2026-04-03T14:40:22.973Z</time></trkpt><trkpt lat="44.47174372210659" lon="9.924772915770983"><ele>1046.0</ele><time>2026-04-03T14:40:23.973Z</time></trkpt><trkpt lat="44.471802659678495" lon="9.92456978780164"><ele>1043.0</ele><time>2026-04-03T14:40:24.973Z</time></trkpt><trkpt lat="44.471841056513405" lon="9.924377170255298"><ele>1040.0</ele><time>2026-04-03T14:40:25.973Z</time></trkpt><trkpt lat="44.471837084956675" lon="9.924182416894435"><ele>1037.0</ele><time>2026-04-03T14:40:26.973Z</time></trkpt><trkpt lat="44.471804948504435" lon="9.923995844212374"><ele>1036.0</ele><time>2026-04-03T14:40:27.973Z</time></trkpt><trkpt lat="44.47174091712949" lon="9.923807194039755"><ele>1035.0</ele><time>2026-04-03T14:40:28.973Z</time></trkpt><trkpt lat="44.47165060113648" lon="9.92360112876465"><ele>1034.0</ele><time>2026-04-03T14:40:29.973Z</time></trkpt><trkpt lat="44.47156789742444" lon="9.92339195902423"><ele>1034.0</ele><time>2026-04-03T14:40:30.973Z</time></trkpt><trkpt lat="44.47148747937368" lon="9.92320760591332"><ele>1034.0</ele><time>2026-04-03T14:40:31.973Z</time></trkpt><trkpt lat="44.47141160554429" lon="9.923040208245071"><ele>1034.0</ele><time>2026-04-03T14:40:32.973Z</time></trkpt><trkpt lat="44.47134612042838" lon="9.922886959824949"><ele>1034.0</ele><time>2026-04-03T14:40:33.973Z</time></trkpt><trkpt lat="44.47130232657935" lon="9.92271638278576"><ele>1037.75</ele><time>2026-04-03T14:40:34.973Z</time></trkpt><trkpt lat="44.471282625535395" lon="9.922524414917657"><ele>1041.5</ele><time>2026-04-03T14:40:35.973Z</time></trkpt><trkpt lat="44.47128424521308" lon="9.922319797845285"><ele>1045.25</ele><time>2026-04-03T14:40:36.973Z</time></trkpt><trkpt lat="44.471298176836676" lon="9.922129777855762"><ele>1049.0</ele><time>2026-04-03T14:40:37.973Z</time></trkpt><trkpt lat="44.471294004610506" lon="9.921970125029077"><ele>1042.0</ele><time>2026-04-03T14:40:38.974Z</time></trkpt><trkpt lat="44.47124240632978" lon="9.921829513685822"><ele>1035.0</ele><time>2026-04-03T14:40:39.974Z</time></trkpt><trkpt lat="44.4711490888307" lon="9.921694472979679"><ele>1028.0</ele><time>2026-04-03T14:40:40.974Z</time></trkpt><trkpt lat="44.47103934215201" lon="9.921550760198985"><ele>1021.0</ele><time>2026-04-03T14:40:41.974Z</time></trkpt><trkpt lat="44.4709295488988" lon="9.921398457279132"><ele>1021.0</ele><time>2026-04-03T14:40:42.974Z</time></trkpt><trkpt lat="44.47081955521407" lon="9.921235067966705"><ele>1021.0</ele><time>2026-04-03T14:40:43.974Z</time></trkpt><trkpt lat="44.47070720768849" lon="9.92106805613451"><ele>1021.0</ele><time>2026-04-03T14:40:44.974Z</time></trkpt><trkpt lat="44.4706005390974" lon="9.920905151727437"><ele>1024.0</ele><time>2026-04-03T14:40:45.974Z</time></trkpt><trkpt lat="44.47049885309186" lon="9.920764664788585"><ele>1027.0</ele><time>2026-04-03T14:40:46.974Z</time></trkpt><trkpt lat="44.470401259055734" lon="9.92065222833022"><ele>1030.0</ele><time>2026-04-03T14:40:47.974Z</time></trkpt><trkpt lat="44.47029814369967" lon="9.920564362990062"><ele>1033.0</ele><time>2026-04-03T14:40:48.974Z</time></trkpt><trkpt lat="44.47018855792377" lon="9.92050815402126"><ele>1033.0</ele><time>2026-04-03T14:40:49.974Z</time></trkpt><trkpt lat="44.47007676292832" lon="9.92053085972572"><ele>1033.0</ele><time>2026-04-03T14:40:50.974Z</time></trkpt><trkpt lat="44.46999112163794" lon="9.92064742550808"><ele>1033.0</ele><time>2026-04-03T14:40:51.974Z</time></trkpt><trkpt lat="44.46992740230012" lon="9.920797331775413"><ele>1033.0</ele><time>2026-04-03T14:40:52.974Z</time></trkpt><trkpt lat="44.4698610038291" lon="9.920969490310194"><ele>1027.6666666666665</ele><time>2026-04-03T14:40:53.974Z</time></trkpt><trkpt lat="44.46979877001309" lon="9.921187214748027"><ele>1022.3333333333333</ele><time>2026-04-03T14:40:54.974Z</time></trkpt><trkpt lat="44.46972849064902" lon="9.921415169347261"><ele>1017.0</ele><time>2026-04-03T14:40:55.974Z</time></trkpt><trkpt lat="44.46965576795139" lon="9.921664147450294"><ele>1017.6666666666667</ele><time>2026-04-03T14:40:56.974Z</time></trkpt><trkpt lat="44.46956880388631" lon="9.921896609047673"><ele>1018.3333333333334</ele><time>2026-04-03T14:40:57.974Z</time></trkpt><trkpt lat="44.46949431927865" lon="9.922102368976018"><ele>1019.0</ele><time>2026-04-03T14:40:58.974Z</time></trkpt><trkpt lat="44.469446588593016" lon="9.922278545940861"><ele>1019.0</ele><time>2026-04-03T14:40:59.974Z</time></trkpt><trkpt lat="44.46940399029052" lon="9.922429635941086"><ele>1019.0000000000001</ele><time>2026-04-03T14:41:00.974Z</time></trkpt><trkpt lat="44.46933706107736" lon="9.922542441204738"><ele>1019.0000000000001</ele><time>2026-04-03T14:41:01.974Z</time></trkpt><trkpt lat="44.469241796376586" lon="9.922587817929976"><ele>1019.0</ele><time>2026-04-03T14:41:02.974Z</time></trkpt><trkpt lat="44.46913070931379" lon="9.9225572974517"><ele>1019.0</ele><time>2026-04-03T14:41:03.974Z</time></trkpt><trkpt lat="44.46901971686359" lon="9.92247109246943"><ele>1019.0</ele><time>2026-04-03T14:41:04.974Z</time></trkpt><trkpt lat="44.46891489484847" lon="9.922323998530423"><ele>1019.0</ele><time>2026-04-03T14:41:05.974Z</time></trkpt><trkpt lat="44.46881867805514" lon="9.92212921543575"><ele>1019.0</ele><time>2026-04-03T14:41:06.974Z</time></trkpt><trkpt lat="44.46871993766686" lon="9.921906572022317"><ele>1017.6666666666667</ele><time>2026-04-03T14:41:07.974Z</time></trkpt><trkpt lat="44.46859799709639" lon="9.921675256501308"><ele>1016.3333333333333</ele><time>2026-04-03T14:41:08.974Z</time></trkpt><trkpt lat="44.468472666700784" lon="9.921444452402184"><ele>1015.0</ele><time>2026-04-03T14:41:09.974Z</time></trkpt><trkpt lat="44.46835317794941" lon="9.921245921436544"><ele>1015.0</ele><time>2026-04-03T14:41:10.974Z</time></trkpt><trkpt lat="44.46825940221718" lon="9.92110955307395"><ele>1015.0</ele><time>2026-04-03T14:41:11.974Z</time></trkpt><trkpt lat="44.4681875348082" lon="9.92101317281334"><ele>1015.0</ele><time>2026-04-03T14:41:12.974Z</time></trkpt><trkpt lat="44.468102772352744" lon="9.920927342287394"><ele>1015.0</ele><time>2026-04-03T14:41:14.974Z</time></trkpt><trkpt lat="44.468005420964666" lon="9.92081705368796"><ele>1014.0</ele><time>2026-04-03T14:41:16.974Z</time></trkpt><trkpt lat="44.46792329929141" lon="9.92073082442068"><ele>1013.0</ele><time>2026-04-03T14:41:17.974Z</time></trkpt><trkpt lat="44.46782092100231" lon="9.92062500024743"><ele>1012.0</ele><time>2026-04-03T14:41:18.974Z</time></trkpt><trkpt lat="44.46769699128324" lon="9.92050333139245"><ele>1011.0</ele><time>2026-04-03T14:41:19.974Z</time></trkpt><trkpt lat="44.467561143888105" lon="9.9204171396852"><ele>1011.0</ele><time>2026-04-03T14:41:20.974Z</time></trkpt><trkpt lat="44.46740817145988" lon="9.920383148139887"><ele>1011.0</ele><time>2026-04-03T14:41:21.974Z</time></trkpt><trkpt lat="44.4672451824812" lon="9.920378103770917"><ele>1011.0</ele><time>2026-04-03T14:41:22.974Z</time></trkpt><trkpt lat="44.467062711588945" lon="9.920356329989737"><ele>1008.3333333333333</ele><time>2026-04-03T14:41:23.974Z</time></trkpt><trkpt lat="44.46687309728379" lon="9.920314657796247"><ele>1005.6666666666666</ele><time>2026-04-03T14:41:24.974Z</time></trkpt><trkpt lat="44.46667339395556" lon="9.920289744445887"><ele>1003.0</ele><time>2026-04-03T14:41:25.974Z</time></trkpt><trkpt lat="44.46648720133781" lon="9.920274314735225"><ele>1003.0</ele><time>2026-04-03T14:41:26.974Z</time></trkpt><trkpt lat="44.466312695262125" lon="9.920267855890733"><ele>1003.0</ele><time>2026-04-03T14:41:27.974Z</time></trkpt><trkpt lat="44.46613734243418" lon="9.92029556482003"><ele>1003.0</ele><time>2026-04-03T14:41:28.974Z</time></trkpt><trkpt lat="44.465962061127215" lon="9.920369564156736"><ele>1003.3333333333333</ele><time>2026-04-03T14:41:29.974Z</time></trkpt><trkpt lat="44.46579292654559" lon="9.92044718944017"><ele>1003.6666666666667</ele><time>2026-04-03T14:41:30.974Z</time></trkpt><trkpt lat="44.465607245028934" lon="9.920535159369123"><ele>1004.0</ele><time>2026-04-03T14:41:31.974Z</time></trkpt><trkpt lat="44.465448576420336" lon="9.920602538050638"><ele>1003.25</ele><time>2026-04-03T14:41:32.974Z</time></trkpt><trkpt lat="44.465300338872105" lon="9.92066162133197"><ele>1002.5</ele><time>2026-04-03T14:41:33.974Z</time></trkpt><trkpt lat="44.46516257915451" lon="9.920690614210395"><ele>1001.75</ele><time>2026-04-03T14:41:34.974Z</time></trkpt><trkpt lat="44.465032110699255" lon="9.920669338190411"><ele>1001.0</ele><time>2026-04-03T14:41:35.974Z</time></trkpt><trkpt lat="44.46489584640551" lon="9.920578104495021"><ele>1001.0</ele><time>2026-04-03T14:41:36.974Z</time></trkpt><trkpt lat="44.46475754927134" lon="9.920456465048423"><ele>1001.0</ele><time>2026-04-03T14:41:37.974Z</time></trkpt><trkpt lat="44.46460124384354" lon="9.920314912745672"><ele>1001.0</ele><time>2026-04-03T14:41:38.974Z</time></trkpt><trkpt lat="44.4644368934144" lon="9.920190651165372"><ele>1003.6666666666667</ele><time>2026-04-03T14:41:39.974Z</time></trkpt><trkpt lat="44.464269735410426" lon="9.920067671727953"><ele>1006.3333333333333</ele><time>2026-04-03T14:41:40.974Z</time></trkpt><trkpt lat="44.46408820512213" lon="9.919975493090025"><ele>1009.0</ele><time>2026-04-03T14:41:41.974Z</time></trkpt><trkpt lat="44.463914182481155" lon="9.919883790036861"><ele>1005.3333333333333</ele><time>2026-04-03T14:41:42.974Z</time></trkpt><trkpt lat="44.46375546780137" lon="9.91978894672015"><ele>1001.6666666666667</ele><time>2026-04-03T14:41:43.974Z</time></trkpt><trkpt lat="44.46363188471501" lon="9.919668327164265"><ele>998.0</ele><time>2026-04-03T14:41:44.974Z</time></trkpt><trkpt lat="44.46353148524875" lon="9.919518230634184"><ele>998.0</ele><time>2026-04-03T14:41:45.974Z</time></trkpt><trkpt lat="44.463451235461754" lon="9.9193525034238"><ele>998.0</ele><time>2026-04-03T14:41:46.974Z</time></trkpt><trkpt lat="44.46336143363374" lon="9.919227800885645"><ele>998.0</ele><time>2026-04-03T14:41:47.974Z</time></trkpt><trkpt lat="44.463244510894675" lon="9.91915867702325"><ele>998.0</ele><time>2026-04-03T14:41:48.974Z</time></trkpt><trkpt lat="44.463129349743724" lon="9.919166749981029"><ele>998.0</ele><time>2026-04-03T14:41:49.974Z</time></trkpt><trkpt lat="44.463022949148744" lon="9.919246323628306"><ele>998.0</ele><time>2026-04-03T14:41:50.974Z</time></trkpt><trkpt lat="44.46291893146018" lon="9.91937586873673"><ele>998.0</ele><time>2026-04-03T14:41:51.974Z</time></trkpt><trkpt lat="44.46281590128078" lon="9.919555695745462"><ele>998.0</ele><time>2026-04-03T14:41:52.974Z</time></trkpt><trkpt lat="44.46270278444687" lon="9.919747759507803"><ele>999.3333333333334</ele><time>2026-04-03T14:41:53.974Z</time></trkpt><trkpt lat="44.46259898143441" lon="9.919939504312614"><ele>1000.6666666666667</ele><time>2026-04-03T14:41:54.974Z</time></trkpt><trkpt lat="44.46251498353083" lon="9.920140813270285"><ele>1002.0</ele><time>2026-04-03T14:41:55.974Z</time></trkpt><trkpt lat="44.46246250488731" lon="9.920377019589154"><ele>1002.0</ele><time>2026-04-03T14:41:56.974Z</time></trkpt><trkpt lat="44.46243256518101" lon="9.920626584402884"><ele>1002.0</ele><time>2026-04-03T14:41:57.974Z</time></trkpt><trkpt lat="44.46240517527516" lon="9.920872158778735"><ele>1002.0</ele><time>2026-04-03T14:41:58.974Z</time></trkpt><trkpt lat="44.46238104633342" lon="9.9210974000626"><ele>999.0</ele><time>2026-04-03T14:41:59.974Z</time></trkpt><trkpt lat="44.4623607135833" lon="9.921288587487343"><ele>996.0</ele><time>2026-04-03T14:42:00.974Z</time></trkpt><trkpt lat="44.46232849611699" lon="9.921444909739364"><ele>993.0</ele><time>2026-04-03T14:42:01.972Z</time></trkpt><trkpt lat="44.462264602926815" lon="9.921556121009393"><ele>990.0</ele><time>2026-04-03T14:42:02.973Z</time></trkpt><trkpt lat="44.46216374228224" lon="9.921610953547658"><ele>988.5</ele><time>2026-04-03T14:42:03.973Z</time></trkpt><trkpt lat="44.46205365201456" lon="9.921614067661096"><ele>987.0</ele><time>2026-04-03T14:42:04.972Z</time></trkpt><trkpt lat="44.461943533778786" lon="9.921561554922958"><ele>985.5</ele><time>2026-04-03T14:42:05.973Z</time></trkpt><trkpt lat="44.46182988026957" lon="9.921468850239027"><ele>984.0</ele><time>2026-04-03T14:42:06.973Z</time></trkpt><trkpt lat="44.46170007360106" lon="9.921359234786056"><ele>984.0</ele><time>2026-04-03T14:42:07.972Z</time></trkpt><trkpt lat="44.46157035834838" lon="9.92123656809762"><ele>984.0</ele><time>2026-04-03T14:42:08.972Z</time></trkpt><trkpt lat="44.461450655361276" lon="9.921098542967867"><ele>984.0</ele><time>2026-04-03T14:42:09.972Z</time></trkpt><trkpt lat="44.46133505357991" lon="9.920960499756552"><ele>986.25</ele><time>2026-04-03T14:42:10.972Z</time></trkpt><trkpt lat="44.46121776013124" lon="9.920841327705404"><ele>988.5</ele><time>2026-04-03T14:42:11.972Z</time></trkpt><trkpt lat="44.46108558085963" lon="9.920754199987535"><ele>990.75</ele><time>2026-04-03T14:42:12.972Z</time></trkpt><trkpt lat="44.460937452058545" lon="9.920690509836964"><ele>993.0</ele><time>2026-04-03T14:42:13.972Z</time></trkpt><trkpt lat="44.46077342786102" lon="9.92065350851534"><ele>993.0</ele><time>2026-04-03T14:42:14.972Z</time></trkpt><trkpt lat="44.460622610247405" lon="9.92062321378061"><ele>993.0</ele><time>2026-04-03T14:42:15.972Z</time></trkpt><trkpt lat="44.46048292530536" lon="9.920599317493767"><ele>993.0</ele><time>2026-04-03T14:42:16.972Z</time></trkpt><trkpt lat="44.4603469023023" lon="9.92061540503093"><ele>993.0</ele><time>2026-04-03T14:42:17.972Z</time></trkpt><trkpt lat="44.460230731311896" lon="9.920688323011598"><ele>994.5</ele><time>2026-04-03T14:42:18.972Z</time></trkpt><trkpt lat="44.46012157352031" lon="9.920803308389523"><ele>996.0</ele><time>2026-04-03T14:42:19.972Z</time></trkpt><trkpt lat="44.45999903978301" lon="9.920915629886407"><ele>997.5</ele><time>2026-04-03T14:42:20.972Z</time></trkpt><trkpt lat="44.4598494684864" lon="9.920992893364645"><ele>999.0</ele><time>2026-04-03T14:42:21.972Z</time></trkpt><trkpt lat="44.45970938120619" lon="9.921057545116463"><ele>992.5</ele><time>2026-04-03T14:42:22.972Z</time></trkpt><trkpt lat="44.45958222067717" lon="9.921105816993139"><ele>986.0</ele><time>2026-04-03T14:42:23.972Z</time></trkpt><trkpt lat="44.45946470605914" lon="9.921103081328344"><ele>979.5</ele><time>2026-04-03T14:42:24.972Z</time></trkpt><trkpt lat="44.459357019599004" lon="9.921040360344268"><ele>973.0</ele><time>2026-04-03T14:42:25.972Z</time></trkpt><trkpt lat="44.45926872940786" lon="9.920937102914342"><ele>977.0</ele><time>2026-04-03T14:42:26.972Z</time></trkpt><trkpt lat="44.45919735150833" lon="9.920788642694385"><ele>981.0</ele><time>2026-04-03T14:42:27.972Z</time></trkpt><trkpt lat="44.4591207648267" lon="9.920608006108914"><ele>985.0</ele><time>2026-04-03T14:42:28.972Z</time></trkpt><trkpt lat="44.45902975490972" lon="9.9204292465446"><ele>989.0</ele><time>2026-04-03T14:42:29.972Z</time></trkpt><trkpt lat="44.4589250441153" lon="9.920240279522309"><ele>989.0</ele><time>2026-04-03T14:42:30.972Z</time></trkpt><trkpt lat="44.4588205637945" lon="9.920070774500708"><ele>989.0</ele><time>2026-04-03T14:42:31.972Z</time></trkpt><trkpt lat="44.45872897565224" lon="9.919922994001446"><ele>989.0</ele><time>2026-04-03T14:42:32.972Z</time></trkpt><trkpt lat="44.45864871319902" lon="9.919796806425998"><ele>989.0</ele><time>2026-04-03T14:42:33.972Z</time></trkpt><trkpt lat="44.45856154279328" lon="9.919712028034963"><ele>987.75</ele><time>2026-04-03T14:42:34.972Z</time></trkpt><trkpt lat="44.45846021582033" lon="9.919693105953385"><ele>986.5</ele><time>2026-04-03T14:42:35.972Z</time></trkpt><trkpt lat="44.458357020392356" lon="9.919731991651481"><ele>985.25</ele><time>2026-04-03T14:42:36.972Z</time></trkpt><trkpt lat="44.45824465893705" lon="9.919799316395585"><ele>984.0</ele><time>2026-04-03T14:42:37.972Z</time></trkpt><trkpt lat="44.458123683451795" lon="9.919869180046605"><ele>984.0</ele><time>2026-04-03T14:42:38.972Z</time></trkpt><trkpt lat="44.45799252729531" lon="9.919897271290772"><ele>984.0</ele><time>2026-04-03T14:42:39.972Z</time></trkpt><trkpt lat="44.457864349240154" lon="9.919855331438983"><ele>984.0</ele><time>2026-04-03T14:42:40.972Z</time></trkpt><trkpt lat="44.4577697408376" lon="9.91973501979714"><ele>984.0</ele><time>2026-04-03T14:42:41.972Z</time></trkpt><trkpt lat="44.45769425878497" lon="9.91959177008526"><ele>981.5</ele><time>2026-04-03T14:42:42.972Z</time></trkpt><trkpt lat="44.45760983624588" lon="9.919451179879875"><ele>979.0</ele><time>2026-04-03T14:42:43.972Z</time></trkpt><trkpt lat="44.45749636568066" lon="9.919332830108633"><ele>976.5</ele><time>2026-04-03T14:42:44.972Z</time></trkpt><trkpt lat="44.45736307038146" lon="9.919253671682064"><ele>974.0</ele><time>2026-04-03T14:42:45.972Z</time></trkpt><trkpt lat="44.45721597261246" lon="9.91920475262667"><ele>977.6666666666667</ele><time>2026-04-03T14:42:46.972Z</time></trkpt><trkpt lat="44.45705927829012" lon="9.919167019258328"><ele>981.3333333333333</ele><time>2026-04-03T14:42:47.972Z</time></trkpt><trkpt lat="44.4568976657088" lon="9.919104388101854"><ele>985.0</ele><time>2026-04-03T14:42:48.972Z</time></trkpt><trkpt lat="44.456733846927655" lon="9.919038800034237"><ele>985.0</ele><time>2026-04-03T14:42:49.972Z</time></trkpt><trkpt lat="44.45656252964097" lon="9.919011700934016"><ele>985.0</ele><time>2026-04-03T14:42:50.972Z</time></trkpt><trkpt lat="44.45638835935193" lon="9.91901153448397"><ele>985.0</ele><time>2026-04-03T14:42:51.972Z</time></trkpt><trkpt lat="44.45622305435908" lon="9.919025212058392"><ele>984.5</ele><time>2026-04-03T14:42:52.972Z</time></trkpt><trkpt lat="44.456070465069764" lon="9.919076719487029"><ele>984.0</ele><time>2026-04-03T14:42:53.972Z</time></trkpt><trkpt lat="44.45592913184042" lon="9.919158689231569"><ele>983.5</ele><time>2026-04-03T14:42:54.972Z</time></trkpt><trkpt lat="44.455805740260665" lon="9.919234381600328"><ele>983.0</ele><time>2026-04-03T14:42:55.972Z</time></trkpt><trkpt lat="44.45569525655076" lon="9.919279090049157"><ele>983.0</ele><time>2026-04-03T14:42:56.972Z</time></trkpt><trkpt lat="44.45559440777946" lon="9.919254623439556"><ele>983.0</ele><time>2026-04-03T14:42:57.972Z</time></trkpt><trkpt lat="44.45551712732875" lon="9.91915925895558"><ele>983.0</ele><time>2026-04-03T14:42:58.972Z</time></trkpt><trkpt lat="44.455442950036236" lon="9.919025622809016"><ele>983.0</ele><time>2026-04-03T14:42:59.972Z</time></trkpt><trkpt lat="44.4553599487652" lon="9.91887960048132"><ele>986.3333333333334</ele><time>2026-04-03T14:43:00.972Z</time></trkpt><trkpt lat="44.4552754905704" lon="9.918719685607371"><ele>989.6666666666667</ele><time>2026-04-03T14:43:01.972Z</time></trkpt><trkpt lat="44.45518364104558" lon="9.918554568826124"><ele>993.0</ele><time>2026-04-03T14:43:02.972Z</time></trkpt><trkpt lat="44.455064230099566" lon="9.918390694517523"><ele>993.0</ele><time>2026-04-03T14:43:03.972Z</time></trkpt><trkpt lat="44.454917816509365" lon="9.91824508028264"><ele>993.0</ele><time>2026-04-03T14:43:04.972Z</time></trkpt><trkpt lat="44.454750278510026" lon="9.918123311873726"><ele>993.0</ele><time>2026-04-03T14:43:05.972Z</time></trkpt><trkpt lat="44.45456391468217" lon="9.918028642527977"><ele>985.6666666666667</ele><time>2026-04-03T14:43:06.972Z</time></trkpt><trkpt lat="44.45439343620141" lon="9.917944210143459"><ele>978.3333333333334</ele><time>2026-04-03T14:43:07.972Z</time></trkpt><trkpt lat="44.454232035426635" lon="9.917871047359128"><ele>971.0</ele><time>2026-04-03T14:43:08.972Z</time></trkpt><trkpt lat="44.45406475473981" lon="9.917825755823165"><ele>971.0</ele><time>2026-04-03T14:43:09.972Z</time></trkpt><trkpt lat="44.453889661236154" lon="9.91781342169818"><ele>971.0</ele><time>2026-04-03T14:43:10.972Z</time></trkpt><trkpt lat="44.453714599124915" lon="9.917822101042047"><ele>971.0</ele><time>2026-04-03T14:43:11.972Z</time></trkpt><trkpt lat="44.45354747254509" lon="9.917867601328483"><ele>973.0</ele><time>2026-04-03T14:43:12.972Z</time></trkpt><trkpt lat="44.4534008956347" lon="9.917929478266098"><ele>975.0</ele><time>2026-04-03T14:43:13.972Z</time></trkpt><trkpt lat="44.45326925452396" lon="9.918031168933885"><ele>977.0</ele><time>2026-04-03T14:43:14.972Z</time></trkpt><trkpt lat="44.45315243568774" lon="9.918179051155203"><ele>977.0</ele><time>2026-04-03T14:43:15.972Z</time></trkpt><trkpt lat="44.45304244648026" lon="9.918354099706177"><ele>977.0</ele><time>2026-04-03T14:43:16.972Z</time></trkpt><trkpt lat="44.45292164138153" lon="9.91851831985152"><ele>977.0</ele><time>2026-04-03T14:43:17.972Z</time></trkpt><trkpt lat="44.45278117825451" lon="9.918656713893471"><ele>975.6666666666667</ele><time>2026-04-03T14:43:18.972Z</time></trkpt><trkpt lat="44.45262873482459" lon="9.918776261725656"><ele>974.3333333333333</ele><time>2026-04-03T14:43:19.972Z</time></trkpt><trkpt lat="44.45247729753251" lon="9.918875076844103"><ele>973.0</ele><time>2026-04-03T14:43:20.972Z</time></trkpt><trkpt lat="44.45231042535275" lon="9.918917630193608"><ele>973.0</ele><time>2026-04-03T14:43:21.972Z</time></trkpt><trkpt lat="44.45213743857789" lon="9.918916907375001"><ele>973.0</ele><time>2026-04-03T14:43:22.972Z</time></trkpt><trkpt lat="44.451963951249745" lon="9.91893467536035"><ele>973.0</ele><time>2026-04-03T14:43:23.972Z</time></trkpt><trkpt lat="44.45179644566245" lon="9.919002747793764"><ele>972.6666666666666</ele><time>2026-04-03T14:43:24.972Z</time></trkpt><trkpt lat="44.45163945480174" lon="9.91909930670038"><ele>972.3333333333333</ele><time>2026-04-03T14:43:25.972Z</time></trkpt><trkpt lat="44.45149888693061" lon="9.919208704261536"><ele>972.0</ele><time>2026-04-03T14:43:26.972Z</time></trkpt><trkpt lat="44.45138442074514" lon="9.919337170021043"><ele>971.25</ele><time>2026-04-03T14:43:27.972Z</time></trkpt><trkpt lat="44.4512863557943" lon="9.919471023168931"><ele>970.5</ele><time>2026-04-03T14:43:28.972Z</time></trkpt><trkpt lat="44.45119409248955" lon="9.919599344886166"><ele>969.75</ele><time>2026-04-03T14:43:29.972Z</time></trkpt><trkpt lat="44.45111225049006" lon="9.919720526606705"><ele>969.0</ele><time>2026-04-03T14:43:30.972Z</time></trkpt><trkpt lat="44.45103780411019" lon="9.919824172333609"><ele>969.0</ele><time>2026-04-03T14:43:31.972Z</time></trkpt><trkpt lat="44.45096612611017" lon="9.91989479939302"><ele>969.0</ele><time>2026-04-03T14:43:32.972Z</time></trkpt><trkpt lat="44.450891471545454" lon="9.91990575286388"><ele>969.0</ele><time>2026-04-03T14:43:33.972Z</time></trkpt><trkpt lat="44.45083212466551" lon="9.919830218321959"><ele>969.0</ele><time>2026-04-03T14:43:34.972Z</time></trkpt><trkpt lat="44.4508059234792" lon="9.91971504771289"><ele>969.0</ele><time>2026-04-03T14:43:35.972Z</time></trkpt><trkpt lat="44.45083842797499" lon="9.919582426853166"><ele>969.0</ele><time>2026-04-03T14:43:36.972Z</time></trkpt><trkpt lat="44.45092817198457" lon="9.919478387529695"><ele>969.0</ele><time>2026-04-03T14:43:37.972Z</time></trkpt><trkpt lat="44.451031809826716" lon="9.919381406474828"><ele>969.0</ele><time>2026-04-03T14:43:38.972Z</time></trkpt><trkpt lat="44.451144654518664" lon="9.919262037271597"><ele>969.0</ele><time>2026-04-03T14:43:39.972Z</time></trkpt><trkpt lat="44.451267163418116" lon="9.91912375008894"><ele>969.0</ele><time>2026-04-03T14:43:40.972Z</time></trkpt><trkpt lat="44.45140026609702" lon="9.91897289732645"><ele>970.0</ele><time>2026-04-03T14:43:41.972Z</time></trkpt><trkpt lat="44.45153476795327" lon="9.918801165919424"><ele>971.0</ele><time>2026-04-03T14:43:42.972Z</time></trkpt><trkpt lat="44.45166315088962" lon="9.918629723782274"><ele>972.0</ele><time>2026-04-03T14:43:43.972Z</time></trkpt><trkpt lat="44.45178023948609" lon="9.918461295071536"><ele>966.3333333333333</ele><time>2026-04-03T14:43:44.972Z</time></trkpt><trkpt lat="44.4518791932846" lon="9.918288216500793"><ele>960.6666666666666</ele><time>2026-04-03T14:43:45.972Z</time></trkpt><trkpt lat="44.45195926594583" lon="9.918098813040514"><ele>955.0</ele><time>2026-04-03T14:43:46.972Z</time></trkpt><trkpt lat="44.45201854029295" lon="9.917883185483781"><ele>955.0</ele><time>2026-04-03T14:43:47.972Z</time></trkpt><trkpt lat="44.45205780391879" lon="9.917653924173031"><ele>955.0</ele><time>2026-04-03T14:43:48.972Z</time></trkpt><trkpt lat="44.45208576760576" lon="9.917433604412052"><ele>955.0</ele><time>2026-04-03T14:43:49.972Z</time></trkpt><trkpt lat="44.452138778168184" lon="9.917229452715565"><ele>953.3333333333333</ele><time>2026-04-03T14:43:50.972Z</time></trkpt><trkpt lat="44.45222503141456" lon="9.917053725518135"><ele>951.6666666666667</ele><time>2026-04-03T14:43:51.972Z</time></trkpt><trkpt lat="44.45233232685429" lon="9.91689042758651"><ele>950.0</ele><time>2026-04-03T14:43:52.972Z</time></trkpt><trkpt lat="44.45243572772761" lon="9.91672765106127"><ele>950.0</ele><time>2026-04-03T14:43:53.972Z</time></trkpt><trkpt lat="44.45254436652982" lon="9.916547081022923"><ele>950.0</ele><time>2026-04-03T14:43:54.972Z</time></trkpt><trkpt lat="44.452662852142716" lon="9.916332786389422"><ele>950.0</ele><time>2026-04-03T14:43:55.972Z</time></trkpt><trkpt lat="44.45279169268811" lon="9.91611228015681"><ele>952.0</ele><time>2026-04-03T14:43:56.972Z</time></trkpt><trkpt lat="44.45292384637035" lon="9.915892029072829"><ele>954.0</ele><time>2026-04-03T14:43:57.972Z</time></trkpt><trkpt lat="44.45304695984781" lon="9.915680038074338"><ele>956.0</ele><time>2026-04-03T14:43:58.972Z</time></trkpt><trkpt lat="44.453162363455824" lon="9.915485629055405"><ele>956.0</ele><time>2026-04-03T14:43:59.972Z</time></trkpt><trkpt lat="44.453271669632365" lon="9.915310910976793"><ele>956.0</ele><time>2026-04-03T14:44:00.972Z</time></trkpt><trkpt lat="44.45336954815611" lon="9.91514560207195"><ele>956.0</ele><time>2026-04-03T14:44:01.972Z</time></trkpt><trkpt lat="44.45345557859657" lon="9.914985223893323"><ele>952.25</ele><time>2026-04-03T14:44:02.972Z</time></trkpt><trkpt lat="44.453527800529166" lon="9.914823066102985"><ele>948.5</ele><time>2026-04-03T14:44:03.972Z</time></trkpt><trkpt lat="44.45357296632659" lon="9.91463233987757"><ele>944.75</ele><time>2026-04-03T14:44:04.972Z</time></trkpt><trkpt lat="44.45360397038061" lon="9.914418583522465"><ele>941.0</ele><time>2026-04-03T14:44:05.972Z</time></trkpt><trkpt lat="44.453617066198994" lon="9.91418776682861"><ele>937.6666666666667</ele><time>2026-04-03T14:44:06.972Z</time></trkpt><trkpt lat="44.4536056094685" lon="9.91393483713249"><ele>934.3333333333333</ele><time>2026-04-03T14:44:07.971Z</time></trkpt><trkpt lat="44.453603221115955" lon="9.913674880050975"><ele>931.0</ele><time>2026-04-03T14:44:08.971Z</time></trkpt><trkpt lat="44.453613211871016" lon="9.913412189522408"><ele>929.0</ele><time>2026-04-03T14:44:09.971Z</time></trkpt><trkpt lat="44.45362051075606" lon="9.91315867450419"><ele>927.0</ele><time>2026-04-03T14:44:10.971Z</time></trkpt><trkpt lat="44.45361839029869" lon="9.912929019025789"><ele>925.0</ele><time>2026-04-03T14:44:11.971Z</time></trkpt><trkpt lat="44.45359361084378" lon="9.912716088769955"><ele>924.3333333333333</ele><time>2026-04-03T14:44:12.971Z</time></trkpt><trkpt lat="44.453534722398594" lon="9.912504120507876"><ele>923.6666666666667</ele><time>2026-04-03T14:44:13.971Z</time></trkpt><trkpt lat="44.453450058160115" lon="9.912278420589539"><ele>923.0</ele><time>2026-04-03T14:44:14.971Z</time></trkpt><trkpt lat="44.45336413979283" lon="9.912035464373457"><ele>923.0</ele><time>2026-04-03T14:44:15.971Z</time></trkpt><trkpt lat="44.453282810242015" lon="9.91178075554348"><ele>923.0</ele><time>2026-04-03T14:44:16.971Z</time></trkpt><trkpt lat="44.45319290860892" lon="9.91152514606139"><ele>923.0</ele><time>2026-04-03T14:44:17.971Z</time></trkpt><trkpt lat="44.45309314196834" lon="9.911279153506605"><ele>924.6666666666667</ele><time>2026-04-03T14:44:18.971Z</time></trkpt><trkpt lat="44.45297822065875" lon="9.911047196112238"><ele>926.3333333333333</ele><time>2026-04-03T14:44:19.971Z</time></trkpt><trkpt lat="44.452862949692786" lon="9.910825143167102"><ele>928.0</ele><time>2026-04-03T14:44:20.97Z</time></trkpt><trkpt lat="44.452750007292266" lon="9.910615291010805"><ele>920.6666666666666</ele><time>2026-04-03T14:44:21.97Z</time></trkpt><trkpt lat="44.452641562697664" lon="9.910424722541576"><ele>913.3333333333333</ele><time>2026-04-03T14:44:22.971Z</time></trkpt><trkpt lat="44.45253324999656" lon="9.910264481325374"><ele>906.0</ele><time>2026-04-03T14:44:23.971Z</time></trkpt><trkpt lat="44.452424294072394" lon="9.910112721725966"><ele>907.25</ele><time>2026-04-03T14:44:24.971Z</time></trkpt><trkpt lat="44.452346397699586" lon="9.909966672380593"><ele>908.5</ele><time>2026-04-03T14:44:25.971Z</time></trkpt><trkpt lat="44.45230563360998" lon="9.909800357980044"><ele>909.75</ele><time>2026-04-03T14:44:26.971Z</time></trkpt><trkpt lat="44.45232449462339" lon="9.909624178649695"><ele>911.0</ele><time>2026-04-03T14:44:27.971Z</time></trkpt><trkpt lat="44.45238714109988" lon="9.90946275535048"><ele>911.0</ele><time>2026-04-03T14:44:28.971Z</time></trkpt><trkpt lat="44.45246375284015" lon="9.909317207298916"><ele>911.0</ele><time>2026-04-03T14:44:29.971Z</time></trkpt><trkpt lat="44.45251654388351" lon="9.909179161565902"><ele>911.0</ele><time>2026-04-03T14:44:30.971Z</time></trkpt><trkpt lat="44.45251550484369" lon="9.909024987800581"><ele>911.0</ele><time>2026-04-03T14:44:31.971Z</time></trkpt><trkpt lat="44.45246403142619" lon="9.908860568486148"><ele>910.0</ele><time>2026-04-03T14:44:32.971Z</time></trkpt><trkpt lat="44.45237991491265" lon="9.908697778274794"><ele>909.0</ele><time>2026-04-03T14:44:33.971Z</time></trkpt><trkpt lat="44.45228188890226" lon="9.908546867260837"><ele>908.0</ele><time>2026-04-03T14:44:34.971Z</time></trkpt><trkpt lat="44.45217921819393" lon="9.908393318407072"><ele>907.0</ele><time>2026-04-03T14:44:35.971Z</time></trkpt><trkpt lat="44.452078718905504" lon="9.908222574069912"><ele>903.0</ele><time>2026-04-03T14:44:36.971Z</time></trkpt><trkpt lat="44.45197580512993" lon="9.908067346820186"><ele>899.0</ele><time>2026-04-03T14:44:37.971Z</time></trkpt><trkpt lat="44.4518834221212" lon="9.907937687511867"><ele>895.0</ele><time>2026-04-03T14:44:38.971Z</time></trkpt><trkpt lat="44.45177137614614" lon="9.907860609920384"><ele>891.0</ele><time>2026-04-03T14:44:39.971Z</time></trkpt><trkpt lat="44.451650400400645" lon="9.907863068515997"><ele>891.0</ele><time>2026-04-03T14:44:40.971Z</time></trkpt><trkpt lat="44.45150194358661" lon="9.907914446179003"><ele>891.0</ele><time>2026-04-03T14:44:41.971Z</time></trkpt><trkpt lat="44.451350154287205" lon="9.908015997530601"><ele>891.0</ele><time>2026-04-03T14:44:42.971Z</time></trkpt><trkpt lat="44.45120076459455" lon="9.908124292234723"><ele>889.3333333333333</ele><time>2026-04-03T14:44:43.971Z</time></trkpt><trkpt lat="44.451035867870445" lon="9.90823306549738"><ele>887.6666666666666</ele><time>2026-04-03T14:44:44.971Z</time></trkpt><trkpt lat="44.450874792333146" lon="9.908333081214396"><ele>886.0</ele><time>2026-04-03T14:44:45.971Z</time></trkpt><trkpt lat="44.45071981716071" lon="9.9084404662789"><ele>882.75</ele><time>2026-04-03T14:44:46.971Z</time></trkpt><trkpt lat="44.45058170748768" lon="9.908549713372793"><ele>879.5</ele><time>2026-04-03T14:44:47.971Z</time></trkpt><trkpt lat="44.450469168077966" lon="9.90868037558037"><ele>876.25</ele><time>2026-04-03T14:44:48.971Z</time></trkpt><trkpt lat="44.45038851155153" lon="9.908843308107587"><ele>873.0</ele><time>2026-04-03T14:44:49.971Z</time></trkpt><trkpt lat="44.4502927824898" lon="9.908989292736251"><ele>871.5</ele><time>2026-04-03T14:44:50.971Z</time></trkpt><trkpt lat="44.450178629581885" lon="9.909077301356792"><ele>870.0</ele><time>2026-04-03T14:44:51.971Z</time></trkpt><trkpt lat="44.45004248410557" lon="9.909084964730594"><ele>868.5</ele><time>2026-04-03T14:44:52.971Z</time></trkpt><trkpt lat="44.44990642879789" lon="9.909052218442337"><ele>867.0</ele><time>2026-04-03T14:44:53.971Z</time></trkpt><trkpt lat="44.44975219776736" lon="9.909006778566406"><ele>864.0</ele><time>2026-04-03T14:44:54.971Z</time></trkpt><trkpt lat="44.44959141312127" lon="9.908960956204544"><ele>861.0</ele><time>2026-04-03T14:44:55.971Z</time></trkpt><trkpt lat="44.4494451523322" lon="9.908936109082827"><ele>858.0</ele><time>2026-04-03T14:44:56.971Z</time></trkpt><trkpt lat="44.44932344054369" lon="9.908909517210978"><ele>855.0</ele><time>2026-04-03T14:44:57.971Z</time></trkpt><trkpt lat="44.44922292154925" lon="9.908856098419303"><ele>855.0</ele><time>2026-04-03T14:44:58.971Z</time></trkpt><trkpt lat="44.44916032491623" lon="9.9087636684611"><ele>855.0</ele><time>2026-04-03T14:44:59.971Z</time></trkpt><trkpt lat="44.44914911744901" lon="9.908598601533381"><ele>855.0</ele><time>2026-04-03T14:45:00.971Z</time></trkpt><trkpt lat="44.44916275466929" lon="9.908416274163994"><ele>855.0</ele><time>2026-04-03T14:45:01.971Z</time></trkpt><trkpt lat="44.44922552309101" lon="9.908265528808688"><ele>857.0</ele><time>2026-04-03T14:45:02.971Z</time></trkpt><trkpt lat="44.449328015502495" lon="9.908173638494363"><ele>859.0</ele><time>2026-04-03T14:45:03.971Z</time></trkpt><trkpt lat="44.44943907479477" lon="9.908111207126534"><ele>861.0</ele><time>2026-04-03T14:45:04.971Z</time></trkpt><trkpt lat="44.449535234499805" lon="9.908024611657073"><ele>863.0</ele><time>2026-04-03T14:45:05.971Z</time></trkpt><trkpt lat="44.449614940130175" lon="9.907885235489635"><ele>862.0</ele><time>2026-04-03T14:45:06.971Z</time></trkpt><trkpt lat="44.44966748999078" lon="9.907703890173538"><ele>861.0</ele><time>2026-04-03T14:45:07.971Z</time></trkpt><trkpt lat="44.44967304543787" lon="9.907527663056422"><ele>860.0</ele><time>2026-04-03T14:45:08.971Z</time></trkpt><trkpt lat="44.449645883033035" lon="9.907380503617908"><ele>859.0</ele><time>2026-04-03T14:45:09.971Z</time></trkpt><trkpt lat="44.449617029876805" lon="9.907253945164385"><ele>859.0</ele><time>2026-04-03T14:45:10.971Z</time></trkpt><trkpt lat="44.44955132962446" lon="9.907159214273523"><ele>859.0000000000001</ele><time>2026-04-03T14:45:11.971Z</time></trkpt><trkpt lat="44.4494556871041" lon="9.907110036668898"><ele>859.0000000000001</ele><time>2026-04-03T14:45:12.971Z</time></trkpt><trkpt lat="44.44934683238438" lon="9.907130525706396"><ele>859.0</ele><time>2026-04-03T14:45:13.971Z</time></trkpt><trkpt lat="44.44925016453306" lon="9.907229513839292"><ele>859.0</ele><time>2026-04-03T14:45:14.971Z</time></trkpt><trkpt lat="44.449166136963306" lon="9.907350526633321"><ele>859.0</ele><time>2026-04-03T14:45:15.971Z</time></trkpt><trkpt lat="44.449087896103514" lon="9.907461839119124"><ele>859.0000000000001</ele><time>2026-04-03T14:45:16.971Z</time></trkpt><trkpt lat="44.44901088302765" lon="9.907531884760997"><ele>859.0000000000001</ele><time>2026-04-03T14:45:17.971Z</time></trkpt><trkpt lat="44.44894289581484" lon="9.907544558489192"><ele>859.0</ele><time>2026-04-03T14:45:18.971Z</time></trkpt><trkpt lat="44.44889319149821" lon="9.907387314081577"><ele>859.0</ele><time>2026-04-03T14:45:20.971Z</time></trkpt><trkpt lat="44.448934233769705" lon="9.907279446062857"><ele>859.0</ele><time>2026-04-03T14:45:21.971Z</time></trkpt><trkpt lat="44.44901064382524" lon="9.907173548482573"><ele>859.0</ele><time>2026-04-03T14:45:22.971Z</time></trkpt><trkpt lat="44.44910637942246" lon="9.907037369685352"><ele>859.0</ele><time>2026-04-03T14:45:23.971Z</time></trkpt><trkpt lat="44.449205933665425" lon="9.906902166265867"><ele>859.0</ele><time>2026-04-03T14:45:24.971Z</time></trkpt><trkpt lat="44.449315183807435" lon="9.906810273634346"><ele>859.0</ele><time>2026-04-03T14:45:25.971Z</time></trkpt><trkpt lat="44.44942617781404" lon="9.906745960985484"><ele>859.0000000000001</ele><time>2026-04-03T14:45:26.971Z</time></trkpt><trkpt lat="44.44953788514051" lon="9.906676048369073"><ele>859.0000000000001</ele><time>2026-04-03T14:45:27.971Z</time></trkpt><trkpt lat="44.44963001856516" lon="9.906612660692899"><ele>859.0</ele><time>2026-04-03T14:45:28.971Z</time></trkpt><trkpt lat="44.449688953540516" lon="9.906543804090182"><ele>859.0</ele><time>2026-04-03T14:45:29.971Z</time></trkpt><trkpt lat="44.44966616371474" lon="9.906371850453116"><ele>856.6</ele><time>2026-04-03T14:45:31.971Z</time></trkpt><trkpt lat="44.449588073684176" lon="9.906316945258625"><ele>854.2</ele><time>2026-04-03T14:45:32.971Z</time></trkpt><trkpt lat="44.449491311415144" lon="9.906335138115352"><ele>851.8000000000001</ele><time>2026-04-03T14:45:33.971Z</time></trkpt><trkpt lat="44.44939058417626" lon="9.90639037852958"><ele>849.4000000000001</ele><time>2026-04-03T14:45:34.971Z</time></trkpt><trkpt lat="44.449277271268066" lon="9.906462526242928"><ele>847.0</ele><time>2026-04-03T14:45:35.971Z</time></trkpt><trkpt lat="44.44914601765389" lon="9.906538749859521"><ele>847.0</ele><time>2026-04-03T14:45:36.971Z</time></trkpt><trkpt lat="44.449016263791705" lon="9.9066219764185"><ele>847.0</ele><time>2026-04-03T14:45:37.971Z</time></trkpt><trkpt lat="44.448885872721604" lon="9.90670390045761"><ele>847.0</ele><time>2026-04-03T14:45:38.971Z</time></trkpt><trkpt lat="44.44875529819886" lon="9.906794148793013"><ele>847.0</ele><time>2026-04-03T14:45:39.971Z</time></trkpt><trkpt lat="44.44863456228332" lon="9.906918656638355"><ele>845.25</ele><time>2026-04-03T14:45:40.971Z</time></trkpt><trkpt lat="44.44852710433585" lon="9.90704221690294"><ele>843.5</ele><time>2026-04-03T14:45:41.971Z</time></trkpt><trkpt lat="44.44842438094402" lon="9.907166093262713"><ele>841.75</ele><time>2026-04-03T14:45:42.971Z</time></trkpt><trkpt lat="44.448340566569584" lon="9.907281331742634"><ele>840.0</ele><time>2026-04-03T14:45:43.971Z</time></trkpt><trkpt lat="44.44828045627565" lon="9.907400859729162"><ele>840.0</ele><time>2026-04-03T14:45:44.971Z</time></trkpt><trkpt lat="44.44824059711956" lon="9.907550496838914"><ele>840.0</ele><time>2026-04-03T14:45:45.971Z</time></trkpt><trkpt lat="44.448195196603926" lon="9.907722282972436"><ele>840.0</ele><time>2026-04-03T14:45:46.971Z</time></trkpt><trkpt lat="44.448136342743474" lon="9.907893199875978"><ele>840.0</ele><time>2026-04-03T14:45:47.971Z</time></trkpt><trkpt lat="44.44806378897911" lon="9.908040232308283"><ele>840.0</ele><time>2026-04-03T14:45:48.971Z</time></trkpt><trkpt lat="44.44796420791527" lon="9.908143280670549"><ele>840.0</ele><time>2026-04-03T14:45:49.971Z</time></trkpt><trkpt lat="44.44785310925119" lon="9.908230856272885"><ele>840.0</ele><time>2026-04-03T14:45:50.971Z</time></trkpt><trkpt lat="44.447739715959045" lon="9.908308028428063"><ele>840.0</ele><time>2026-04-03T14:45:51.971Z</time></trkpt><trkpt lat="44.44763088518786" lon="9.908413166684436"><ele>835.25</ele><time>2026-04-03T14:45:52.971Z</time></trkpt><trkpt lat="44.44752468437767" lon="9.908510977556668"><ele>830.5</ele><time>2026-04-03T14:45:53.971Z</time></trkpt><trkpt lat="44.44740721710869" lon="9.908600507720006"><ele>825.75</ele><time>2026-04-03T14:45:54.971Z</time></trkpt><trkpt lat="44.44729498219314" lon="9.90867844577241"><ele>821.0</ele><time>2026-04-03T14:45:55.971Z</time></trkpt><trkpt lat="44.44718454453978" lon="9.90874038141615"><ele>819.0</ele><time>2026-04-03T14:45:56.971Z</time></trkpt><trkpt lat="44.44707763265143" lon="9.908781339558246"><ele>817.0</ele><time>2026-04-03T14:45:57.971Z</time></trkpt><trkpt lat="44.44696128172064" lon="9.908786988482849"><ele>815.0</ele><time>2026-04-03T14:45:58.971Z</time></trkpt><trkpt lat="44.44683497332136" lon="9.908749679472484"><ele>813.0</ele><time>2026-04-03T14:45:59.971Z</time></trkpt><trkpt lat="44.44670914873311" lon="9.908689111935397"><ele>813.0</ele><time>2026-04-03T14:46:00.971Z</time></trkpt><trkpt lat="44.44658476517285" lon="9.908643929519785"><ele>813.0</ele><time>2026-04-03T14:46:01.971Z</time></trkpt><trkpt lat="44.4464554461253" lon="9.90862618421087"><ele>813.0</ele><time>2026-04-03T14:46:02.971Z</time></trkpt><trkpt lat="44.446322499971366" lon="9.90866228847891"><ele>813.0</ele><time>2026-04-03T14:46:03.971Z</time></trkpt><trkpt lat="44.44620027843964" lon="9.908755260177033"><ele>811.0</ele><time>2026-04-03T14:46:04.971Z</time></trkpt><trkpt lat="44.44609096214752" lon="9.908830766787855"><ele>809.0</ele><time>2026-04-03T14:46:05.971Z</time></trkpt><trkpt lat="44.44596307601214" lon="9.908858258735716"><ele>807.0</ele><time>2026-04-03T14:46:06.971Z</time></trkpt><trkpt lat="44.44583072394481" lon="9.90885238572092"><ele>805.0</ele><time>2026-04-03T14:46:07.971Z</time></trkpt><trkpt lat="44.44570657472541" lon="9.908832072946915"><ele>805.0</ele><time>2026-04-03T14:46:08.971Z</time></trkpt><trkpt lat="44.44560993382216" lon="9.908799677492052"><ele>805.0</ele><time>2026-04-03T14:46:09.971Z</time></trkpt><trkpt lat="44.44553235319465" lon="9.90871472699742"><ele>805.0</ele><time>2026-04-03T14:46:10.971Z</time></trkpt><trkpt lat="44.445490359579445" lon="9.90857088119035"><ele>805.0</ele><time>2026-04-03T14:46:11.971Z</time></trkpt><trkpt lat="44.44548318085265" lon="9.908399191398955"><ele>805.0</ele><time>2026-04-03T14:46:12.971Z</time></trkpt><trkpt lat="44.44549112050616" lon="9.908202807231431"><ele>807.0</ele><time>2026-04-03T14:46:13.97Z</time></trkpt><trkpt lat="44.44549315602667" lon="9.907977652709658"><ele>809.0</ele><time>2026-04-03T14:46:14.97Z</time></trkpt><trkpt lat="44.44549450701726" lon="9.907731322651827"><ele>811.0</ele><time>2026-04-03T14:46:15.97Z</time></trkpt><trkpt lat="44.44549361861649" lon="9.90749712102021"><ele>811.0</ele><time>2026-04-03T14:46:16.97Z</time></trkpt><trkpt lat="44.44549903300824" lon="9.907278550553054"><ele>811.0</ele><time>2026-04-03T14:46:17.969Z</time></trkpt><trkpt lat="44.44550081406382" lon="9.907080808235941"><ele>811.0</ele><time>2026-04-03T14:46:18.969Z</time></trkpt><trkpt lat="44.44550914296322" lon="9.906910141510371"><ele>811.0</ele><time>2026-04-03T14:46:19.97Z</time></trkpt><trkpt lat="44.44555356593216" lon="9.906783054104896"><ele>807.25</ele><time>2026-04-03T14:46:20.969Z</time></trkpt><trkpt lat="44.44564062226644" lon="9.90669820406912"><ele>803.5</ele><time>2026-04-03T14:46:21.969Z</time></trkpt><trkpt lat="44.445758659384595" lon="9.906674264136665"><ele>799.75</ele><time>2026-04-03T14:46:22.969Z</time></trkpt><trkpt lat="44.445898809351995" lon="9.906695712394276"><ele>796.0</ele><time>2026-04-03T14:46:23.97Z</time></trkpt><trkpt lat="44.44604771587384" lon="9.906714758763705"><ele>796.0</ele><time>2026-04-03T14:46:24.97Z</time></trkpt><trkpt lat="44.44620598896741" lon="9.906725424742895"><ele>796.0</ele><time>2026-04-03T14:46:25.97Z</time></trkpt><trkpt lat="44.44634769621472" lon="9.906737579272951"><ele>796.0</ele><time>2026-04-03T14:46:26.969Z</time></trkpt><trkpt lat="44.44647243591635" lon="9.906745271395346"><ele>796.0</ele><time>2026-04-03T14:46:27.969Z</time></trkpt><trkpt lat="44.44658435244377" lon="9.906748020940283"><ele>796.1999999999999</ele><time>2026-04-03T14:46:28.969Z</time></trkpt><trkpt lat="44.44667795891378" lon="9.906739786504547"><ele>796.4</ele><time>2026-04-03T14:46:29.969Z</time></trkpt><trkpt lat="44.44675010913565" lon="9.906682910727067"><ele>796.6</ele><time>2026-04-03T14:46:30.969Z</time></trkpt><trkpt lat="44.44678018077613" lon="9.906568780199214"><ele>796.8</ele><time>2026-04-03T14:46:31.969Z</time></trkpt><trkpt lat="44.44675177483551" lon="9.906443130498447"><ele>797.0</ele><time>2026-04-03T14:46:32.969Z</time></trkpt><trkpt lat="44.44667302610035" lon="9.906358507592428"><ele>797.0</ele><time>2026-04-03T14:46:33.969Z</time></trkpt><trkpt lat="44.446565107959366" lon="9.90632489254243"><ele>797.0</ele><time>2026-04-03T14:46:34.969Z</time></trkpt><trkpt lat="44.44644010275013" lon="9.906311127179908"><ele>797.0</ele><time>2026-04-03T14:46:35.969Z</time></trkpt><trkpt lat="44.4462903682722" lon="9.906277559571627"><ele>797.0</ele><time>2026-04-03T14:46:36.969Z</time></trkpt><trkpt lat="44.44612728949382" lon="9.906232018025118"><ele>796.6666666666667</ele><time>2026-04-03T14:46:37.969Z</time></trkpt><trkpt lat="44.44595509115591" lon="9.906175463077266"><ele>796.3333333333333</ele><time>2026-04-03T14:46:38.969Z</time></trkpt><trkpt lat="44.44577726296371" lon="9.906110589926152"><ele>796.0</ele><time>2026-04-03T14:46:39.969Z</time></trkpt><trkpt lat="44.44559938366085" lon="9.906053649698588"><ele>792.0</ele><time>2026-04-03T14:46:40.969Z</time></trkpt><trkpt lat="44.445424920502234" lon="9.905998160259836"><ele>788.0</ele><time>2026-04-03T14:46:41.969Z</time></trkpt><trkpt lat="44.44527576426849" lon="9.905943425934346"><ele>784.0</ele><time>2026-04-03T14:46:42.969Z</time></trkpt><trkpt lat="44.44514455733895" lon="9.90587906736609"><ele>782.0</ele><time>2026-04-03T14:46:43.969Z</time></trkpt><trkpt lat="44.44502981209598" lon="9.905803467455065"><ele>780.0</ele><time>2026-04-03T14:46:44.969Z</time></trkpt><trkpt lat="44.44493893982098" lon="9.905716323196877"><ele>778.0</ele><time>2026-04-03T14:46:45.969Z</time></trkpt><trkpt lat="44.44485622095668" lon="9.905655282604863"><ele>776.0</ele><time>2026-04-03T14:46:46.969Z</time></trkpt><trkpt lat="44.44478189366053" lon="9.905628443792732"><ele>774.0</ele><time>2026-04-03T14:46:47.969Z</time></trkpt><trkpt lat="44.444708592389055" lon="9.905642022506495"><ele>774.0</ele><time>2026-04-03T14:46:48.969Z</time></trkpt><trkpt lat="44.4446351781906" lon="9.905687951376958"><ele>774.0</ele><time>2026-04-03T14:46:49.969Z</time></trkpt><trkpt lat="44.44456327681718" lon="9.905778250637107"><ele>774.0</ele><time>2026-04-03T14:46:50.969Z</time></trkpt><trkpt lat="44.44451223079393" lon="9.905874620235611"><ele>774.0</ele><time>2026-04-03T14:46:51.969Z</time></trkpt><trkpt lat="44.4444684012436" lon="9.905978472367233"><ele>774.0</ele><time>2026-04-03T14:46:52.969Z</time></trkpt><trkpt lat="44.444435429209804" lon="9.906095831081139"><ele>774.0</ele><time>2026-04-03T14:46:53.969Z</time></trkpt><trkpt lat="44.444404149124594" lon="9.906213576600784"><ele>770.4000000000001</ele><time>2026-04-03T14:46:54.969Z</time></trkpt><trkpt lat="44.44439582592625" lon="9.906321035793319"><ele>766.8</ele><time>2026-04-03T14:46:55.969Z</time></trkpt><trkpt lat="44.44441132933404" lon="9.906475123225128"><ele>763.2</ele><time>2026-04-03T14:46:57.97Z</time></trkpt><trkpt lat="44.444458630589075" lon="9.906625640301252"><ele>759.5999999999999</ele><time>2026-04-03T14:46:59.97Z</time></trkpt><trkpt lat="44.444494129737315" lon="9.906788038823159"><ele>756.0</ele><time>2026-04-03T14:47:01.97Z</time></trkpt><trkpt lat="44.44450445113507" lon="9.906906184464942"><ele>756.0</ele><time>2026-04-03T14:47:02.97Z</time></trkpt><trkpt lat="44.44450347177953" lon="9.907065082260711"><ele>756.0</ele><time>2026-04-03T14:47:03.97Z</time></trkpt><trkpt lat="44.444490110311925" lon="9.907219181119869"><ele>756.0</ele><time>2026-04-03T14:47:04.97Z</time></trkpt><trkpt lat="44.44445792979184" lon="9.907348029547551"><ele>756.0</ele><time>2026-04-03T14:47:05.97Z</time></trkpt><trkpt lat="44.44440888047792" lon="9.907470658471926"><ele>756.0</ele><time>2026-04-03T14:47:06.97Z</time></trkpt><trkpt lat="44.44434513470101" lon="9.907583776169185"><ele>757.8</ele><time>2026-04-03T14:47:07.97Z</time></trkpt><trkpt lat="44.444279493118486" lon="9.907694826184363"><ele>759.5999999999999</ele><time>2026-04-03T14:47:08.97Z</time></trkpt><trkpt lat="44.44420368756221" lon="9.907811768910571"><ele>761.4</ele><time>2026-04-03T14:47:09.97Z</time></trkpt><trkpt lat="44.44413386964043" lon="9.907924401851902"><ele>763.2</ele><time>2026-04-03T14:47:10.97Z</time></trkpt><trkpt lat="44.444067122702144" lon="9.908027677853134"><ele>765.0</ele><time>2026-04-03T14:47:11.97Z</time></trkpt><trkpt lat="44.44400921933667" lon="9.90813982979234"><ele>765.0</ele><time>2026-04-03T14:47:12.97Z</time></trkpt><trkpt lat="44.443970906224465" lon="9.908269185014989"><ele>765.0</ele><time>2026-04-03T14:47:13.97Z</time></trkpt><trkpt lat="44.44394006007365" lon="9.908405416237217"><ele>765.0</ele><time>2026-04-03T14:47:14.97Z</time></trkpt><trkpt lat="44.4439189582187" lon="9.908546358003614"><ele>765.0</ele><time>2026-04-03T14:47:15.97Z</time></trkpt><trkpt lat="44.4439001887796" lon="9.908681028360304"><ele>765.0</ele><time>2026-04-03T14:47:16.97Z</time></trkpt><trkpt lat="44.44387812456572" lon="9.90881270017547"><ele>764.4</ele><time>2026-04-03T14:47:17.97Z</time></trkpt><trkpt lat="44.44384497428939" lon="9.90893783800028"><ele>763.8</ele><time>2026-04-03T14:47:18.97Z</time></trkpt><trkpt lat="44.44379876128842" lon="9.909058425883643"><ele>763.2</ele><time>2026-04-03T14:47:19.97Z</time></trkpt><trkpt lat="44.44374448536784" lon="9.909171125085125"><ele>762.6</ele><time>2026-04-03T14:47:20.97Z</time></trkpt><trkpt lat="44.44369322404196" lon="9.909284974153874"><ele>762.0</ele><time>2026-04-03T14:47:21.97Z</time></trkpt><trkpt lat="44.44363723983201" lon="9.909399288707984"><ele>760.0</ele><time>2026-04-03T14:47:22.97Z</time></trkpt><trkpt lat="44.44357228120657" lon="9.909501992849503"><ele>758.0</ele><time>2026-04-03T14:47:23.97Z</time></trkpt><trkpt lat="44.44350174553074" lon="9.909598667254505"><ele>756.0</ele><time>2026-04-03T14:47:24.97Z</time></trkpt><trkpt lat="44.4434210058135" lon="9.909675307475963"><ele>754.0</ele><time>2026-04-03T14:47:25.97Z</time></trkpt><trkpt lat="44.443332913062115" lon="9.909733543548846"><ele>752.0</ele><time>2026-04-03T14:47:26.97Z</time></trkpt><trkpt lat="44.44324257802895" lon="9.909775257498527"><ele>752.0</ele><time>2026-04-03T14:47:27.97Z</time></trkpt><trkpt lat="44.44314849220691" lon="9.909807137752514"><ele>752.0</ele><time>2026-04-03T14:47:28.97Z</time></trkpt><trkpt lat="44.44304799603503" lon="9.909841216220196"><ele>752.0</ele><time>2026-04-03T14:47:29.97Z</time></trkpt><trkpt lat="44.442944283780875" lon="9.909878936894891"><ele>752.0</ele><time>2026-04-03T14:47:30.97Z</time></trkpt><trkpt lat="44.44283757195001" lon="9.909908723510133"><ele>752.0</ele><time>2026-04-03T14:47:31.97Z</time></trkpt><trkpt lat="44.44272567221557" lon="9.909921874584196"><ele>749.4000000000001</ele><time>2026-04-03T14:47:32.97Z</time></trkpt><trkpt lat="44.44261433762056" lon="9.90991042510702"><ele>746.8000000000001</ele><time>2026-04-03T14:47:33.97Z</time></trkpt><trkpt lat="44.44250676228412" lon="9.9098799357233"><ele>744.2</ele><time>2026-04-03T14:47:34.97Z</time></trkpt><trkpt lat="44.44240780551048" lon="9.909826245698937"><ele>741.6</ele><time>2026-04-03T14:47:35.97Z</time></trkpt><trkpt lat="44.44231597448897" lon="9.909746906524575"><ele>739.0</ele><time>2026-04-03T14:47:36.97Z</time></trkpt><trkpt lat="44.44223539821512" lon="9.909639569414528"><ele>739.0</ele><time>2026-04-03T14:47:37.97Z</time></trkpt><trkpt lat="44.44216876088305" lon="9.909527783895744"><ele>739.0</ele><time>2026-04-03T14:47:38.97Z</time></trkpt><trkpt lat="44.44211076803866" lon="9.90944021428552"><ele>739.0</ele><time>2026-04-03T14:47:39.97Z</time></trkpt><trkpt lat="44.442045424883695" lon="9.909374195881503"><ele>739.0</ele><time>2026-04-03T14:47:40.97Z</time></trkpt><trkpt lat="44.44196866363753" lon="9.909342131209485"><ele>739.0</ele><time>2026-04-03T14:47:41.97Z</time></trkpt><trkpt lat="44.441889689940396" lon="9.909349769556874"><ele>739.0</ele><time>2026-04-03T14:47:42.97Z</time></trkpt><trkpt lat="44.44181001214448" lon="9.909400484889616"><ele>738.0</ele><time>2026-04-03T14:47:43.97Z</time></trkpt><trkpt lat="44.44172911203542" lon="9.909478254676902"><ele>737.0</ele><time>2026-04-03T14:47:44.97Z</time></trkpt><trkpt lat="44.44165040018519" lon="9.909564210153194"><ele>736.0</ele><time>2026-04-03T14:47:45.97Z</time></trkpt><trkpt lat="44.441566466174635" lon="9.90965496752834"><ele>735.0</ele><time>2026-04-03T14:47:46.97Z</time></trkpt><trkpt lat="44.44148440169549" lon="9.909746726995548"><ele>734.0</ele><time>2026-04-03T14:47:47.97Z</time></trkpt><trkpt lat="44.44140239741412" lon="9.909840643054876"><ele>734.0</ele><time>2026-04-03T14:47:48.97Z</time></trkpt><trkpt lat="44.441317440164596" lon="9.909933771799942"><ele>734.0</ele><time>2026-04-03T14:47:49.97Z</time></trkpt><trkpt lat="44.44122573703321" lon="9.910028855999682"><ele>734.0</ele><time>2026-04-03T14:47:50.97Z</time></trkpt><trkpt lat="44.441126673720525" lon="9.910117740668445"><ele>734.0</ele><time>2026-04-03T14:47:51.97Z</time></trkpt><trkpt lat="44.441014323710164" lon="9.910185591329409"><ele>732.75</ele><time>2026-04-03T14:47:52.97Z</time></trkpt><trkpt lat="44.440894624775865" lon="9.910241555556"><ele>731.5</ele><time>2026-04-03T14:47:53.97Z</time></trkpt><trkpt lat="44.440769437978346" lon="9.910289776586994"><ele>730.25</ele><time>2026-04-03T14:47:54.97Z</time></trkpt><trkpt lat="44.4406432688186" lon="9.910339508592628"><ele>729.0</ele><time>2026-04-03T14:47:55.97Z</time></trkpt><trkpt lat="44.440516777334246" lon="9.91038030465162"><ele>725.75</ele><time>2026-04-03T14:47:56.97Z</time></trkpt><trkpt lat="44.44038942765724" lon="9.910408479121795"><ele>722.5</ele><time>2026-04-03T14:47:57.97Z</time></trkpt><trkpt lat="44.440260444522856" lon="9.910423855185753"><ele>719.25</ele><time>2026-04-03T14:47:58.97Z</time></trkpt><trkpt lat="44.44012953735685" lon="9.910431748270732"><ele>716.0</ele><time>2026-04-03T14:47:59.97Z</time></trkpt><trkpt lat="44.43999627440282" lon="9.9104339862865"><ele>716.0</ele><time>2026-04-03T14:48:00.97Z</time></trkpt><trkpt lat="44.43986613428758" lon="9.910438325808183"><ele>716.0</ele><time>2026-04-03T14:48:01.97Z</time></trkpt><trkpt lat="44.439740328108044" lon="9.910439164091848"><ele>716.0</ele><time>2026-04-03T14:48:02.97Z</time></trkpt><trkpt lat="44.4396479933638" lon="9.910413902802917"><ele>716.0</ele><time>2026-04-03T14:48:03.97Z</time></trkpt><trkpt lat="44.43958090499282" lon="9.91035126046511"><ele>716.0</ele><time>2026-04-03T14:48:04.97Z</time></trkpt><trkpt lat="44.43954301414334" lon="9.91023276014392"><ele>715.8</ele><time>2026-04-03T14:48:05.97Z</time></trkpt><trkpt lat="44.43950523649365" lon="9.910084894929836"><ele>715.5999999999999</ele><time>2026-04-03T14:48:06.97Z</time></trkpt><trkpt lat="44.43947764698816" lon="9.90995620996065"><ele>715.4</ele><time>2026-04-03T14:48:07.97Z</time></trkpt><trkpt lat="44.439436713158905" lon="9.909866359457272"><ele>715.2</ele><time>2026-04-03T14:48:08.97Z</time></trkpt><trkpt lat="44.43936977583651" lon="9.909813818230731"><ele>715.0</ele><time>2026-04-03T14:48:09.97Z</time></trkpt><trkpt lat="44.4392753609939" lon="9.90979672772528"><ele>714.0</ele><time>2026-04-03T14:48:10.97Z</time></trkpt><trkpt lat="44.439191404737095" lon="9.909798886145916"><ele>713.0</ele><time>2026-04-03T14:48:11.97Z</time></trkpt><trkpt lat="44.439066884475125" lon="9.90981274878973"><ele>712.0</ele><time>2026-04-03T14:48:12.97Z</time></trkpt><trkpt lat="44.43869349964725" lon="9.909794207946446"><ele>712.0</ele><time>2026-04-03T14:48:13.97Z</time></trkpt><trkpt lat="44.43843913818479" lon="9.90975169429779"><ele>712.0</ele><time>2026-04-03T14:48:14.97Z</time></trkpt><trkpt lat="44.43820539862758" lon="9.909698235461253"><ele>712.0</ele><time>2026-04-03T14:48:15.97Z</time></trkpt><trkpt lat="44.437988330214395" lon="9.909653919317314"><ele>712.0</ele><time>2026-04-03T14:48:16.97Z</time></trkpt><trkpt lat="44.43779850881729" lon="9.909627460148993"><ele>712.0</ele><time>2026-04-03T14:48:17.97Z</time></trkpt><trkpt lat="44.43762814577627" lon="9.909636719366487"><ele>710.6666666666667</ele><time>2026-04-03T14:48:18.97Z</time></trkpt><trkpt lat="44.43747924339616" lon="9.909702794914226"><ele>709.3333333333334</ele><time>2026-04-03T14:48:19.969Z</time></trkpt><trkpt lat="44.43734593436587" lon="9.909827820193788"><ele>708.0</ele><time>2026-04-03T14:48:20.969Z</time></trkpt><trkpt lat="44.43722534611655" lon="9.909992123168713"><ele>709.0</ele><time>2026-04-03T14:48:21.969Z</time></trkpt><trkpt lat="44.43710359401138" lon="9.910183894908227"><ele>710.0</ele><time>2026-04-03T14:48:22.969Z</time></trkpt><trkpt lat="44.43697257001048" lon="9.910331451492468"><ele>711.0</ele><time>2026-04-03T14:48:23.968Z</time></trkpt><trkpt lat="44.43682191134588" lon="9.910418865378137"><ele>711.0</ele><time>2026-04-03T14:48:24.968Z</time></trkpt><trkpt lat="44.43665752647166" lon="9.910456114220342"><ele>711.0</ele><time>2026-04-03T14:48:25.968Z</time></trkpt><trkpt lat="44.436499334952565" lon="9.910434735760289"><ele>711.0</ele><time>2026-04-03T14:48:26.969Z</time></trkpt><trkpt lat="44.43633640172056" lon="9.910348594148344"><ele>711.0</ele><time>2026-04-03T14:48:27.969Z</time></trkpt><trkpt lat="44.43617469831747" lon="9.910240457456414"><ele>711.0</ele><time>2026-04-03T14:48:28.969Z</time></trkpt><trkpt lat="44.435981953004685" lon="9.91011142780909"><ele>711.0</ele><time>2026-04-03T14:48:29.969Z</time></trkpt><trkpt lat="44.43579510006712" lon="9.909999618267863"><ele>707.3333333333334</ele><time>2026-04-03T14:48:30.969Z</time></trkpt><trkpt lat="44.435621464095576" lon="9.909902391250842"><ele>703.6666666666667</ele><time>2026-04-03T14:48:31.969Z</time></trkpt><trkpt lat="44.43545671781562" lon="9.909807726990694"><ele>700.0</ele><time>2026-04-03T14:48:32.969Z</time></trkpt><trkpt lat="44.435299281892334" lon="9.90970165865325"><ele>700.0</ele><time>2026-04-03T14:48:33.969Z</time></trkpt><trkpt lat="44.43517641009076" lon="9.909567431640598"><ele>700.0</ele><time>2026-04-03T14:48:34.969Z</time></trkpt><trkpt lat="44.435093971377455" lon="9.909389397461998"><ele>700.0</ele><time>2026-04-03T14:48:35.969Z</time></trkpt><trkpt lat="44.43502259467536" lon="9.909219090470678"><ele>700.0</ele><time>2026-04-03T14:48:36.969Z</time></trkpt><trkpt lat="44.434928087534686" lon="9.909075161038647"><ele>697.75</ele><time>2026-04-03T14:48:37.969Z</time></trkpt><trkpt lat="44.43480289780047" lon="9.908998708825669"><ele>695.5</ele><time>2026-04-03T14:48:38.969Z</time></trkpt><trkpt lat="44.4346530068515" lon="9.908989489526958"><ele>693.25</ele><time>2026-04-03T14:48:39.969Z</time></trkpt><trkpt lat="44.43449238450073" lon="9.908992163279873"><ele>691.0</ele><time>2026-04-03T14:48:40.969Z</time></trkpt><trkpt lat="44.43433853336023" lon="9.90895690970536"><ele>691.0</ele><time>2026-04-03T14:48:41.969Z</time></trkpt><trkpt lat="44.434194411535046" lon="9.908863818179544"><ele>691.0</ele><time>2026-04-03T14:48:42.969Z</time></trkpt><trkpt lat="44.43407475997327" lon="9.908709096156814"><ele>691.0</ele><time>2026-04-03T14:48:43.969Z</time></trkpt><trkpt lat="44.433982818490726" lon="9.90851735719565"><ele>689.25</ele><time>2026-04-03T14:48:44.969Z</time></trkpt><trkpt lat="44.43390179306839" lon="9.908319119296479"><ele>687.5</ele><time>2026-04-03T14:48:45.969Z</time></trkpt><trkpt lat="44.43381408600875" lon="9.908142977321946"><ele>685.75</ele><time>2026-04-03T14:48:46.969Z</time></trkpt><trkpt lat="44.43373603323517" lon="9.90799343385421"><ele>684.0</ele><time>2026-04-03T14:48:47.969Z</time></trkpt><trkpt lat="44.43365820534394" lon="9.90788991245827"><ele>684.0</ele><time>2026-04-03T14:48:48.969Z</time></trkpt><trkpt lat="44.4335650391501" lon="9.907835338158893"><ele>684.0</ele><time>2026-04-03T14:48:49.969Z</time></trkpt><trkpt lat="44.433458849297296" lon="9.907852539380992"><ele>684.0</ele><time>2026-04-03T14:48:50.969Z</time></trkpt><trkpt lat="44.43336551468231" lon="9.907934404658603"><ele>684.0</ele><time>2026-04-03T14:48:51.969Z</time></trkpt><trkpt lat="44.433291528779584" lon="9.908073647499494"><ele>684.0</ele><time>2026-04-03T14:48:52.969Z</time></trkpt><trkpt lat="44.43320240654677" lon="9.908225845030772"><ele>684.0</ele><time>2026-04-03T14:48:53.969Z</time></trkpt><trkpt lat="44.43309700684655" lon="9.908342307312335"><ele>684.0</ele><time>2026-04-03T14:48:54.969Z</time></trkpt><trkpt lat="44.43297660143047" lon="9.90840761986922"><ele>684.0</ele><time>2026-04-03T14:48:55.969Z</time></trkpt><trkpt lat="44.432860948817506" lon="9.90840154551001"><ele>684.0</ele><time>2026-04-03T14:48:56.969Z</time></trkpt><trkpt lat="44.432743735103735" lon="9.908337834290437"><ele>683.25</ele><time>2026-04-03T14:48:57.969Z</time></trkpt><trkpt lat="44.43261344258596" lon="9.908245651235742"><ele>682.5</ele><time>2026-04-03T14:48:58.969Z</time></trkpt><trkpt lat="44.43248579595196" lon="9.908154176185896"><ele>681.75</ele><time>2026-04-03T14:48:59.969Z</time></trkpt><trkpt lat="44.43234540021466" lon="9.908081642098779"><ele>681.0</ele><time>2026-04-03T14:49:00.969Z</time></trkpt><trkpt lat="44.43219841597552" lon="9.908028821490749"><ele>677.6666666666666</ele><time>2026-04-03T14:49:01.969Z</time></trkpt><trkpt lat="44.43203333248221" lon="9.908013453986946"><ele>674.3333333333333</ele><time>2026-04-03T14:49:02.969Z</time></trkpt><trkpt lat="44.43186158410005" lon="9.908024077511127"><ele>671.0</ele><time>2026-04-03T14:49:03.969Z</time></trkpt><trkpt lat="44.43167827519175" lon="9.908034690923664"><ele>671.0</ele><time>2026-04-03T14:49:04.969Z</time></trkpt><trkpt lat="44.431494217760275" lon="9.908027761751336"><ele>671.0</ele><time>2026-04-03T14:49:05.969Z</time></trkpt><trkpt lat="44.43131429912421" lon="9.908020584940282"><ele>671.0</ele><time>2026-04-03T14:49:06.969Z</time></trkpt><trkpt lat="44.43114621280915" lon="9.90803197998897"><ele>672.3333333333333</ele><time>2026-04-03T14:49:07.969Z</time></trkpt><trkpt lat="44.430987225637075" lon="9.908076021949023"><ele>673.6666666666666</ele><time>2026-04-03T14:49:08.969Z</time></trkpt><trkpt lat="44.4308317433899" lon="9.908162324211581"><ele>675.0</ele><time>2026-04-03T14:49:09.969Z</time></trkpt><trkpt lat="44.430675275428285" lon="9.9082919416447"><ele>670.6666666666666</ele><time>2026-04-03T14:49:10.969Z</time></trkpt><trkpt lat="44.43051255069831" lon="9.908436239218394"><ele>666.3333333333333</ele><time>2026-04-03T14:49:11.969Z</time></trkpt><trkpt lat="44.430361493674816" lon="9.908562585283956"><ele>662.0</ele><time>2026-04-03T14:49:12.969Z</time></trkpt><trkpt lat="44.43021752838203" lon="9.908669019186188"><ele>662.0</ele><time>2026-04-03T14:49:13.969Z</time></trkpt><trkpt lat="44.43007669840604" lon="9.908715717221565"><ele>662.0</ele><time>2026-04-03T14:49:14.969Z</time></trkpt><trkpt lat="44.429943174614415" lon="9.908709528473757"><ele>662.0</ele><time>2026-04-03T14:49:15.969Z</time></trkpt><trkpt lat="44.4298217480975" lon="9.908673523248542"><ele>662.0</ele><time>2026-04-03T14:49:16.969Z</time></trkpt><trkpt lat="44.42972722339187" lon="9.908586525586927"><ele>661.0</ele><time>2026-04-03T14:49:17.969Z</time></trkpt><trkpt lat="44.42964071784001" lon="9.908472142781477"><ele>660.0</ele><time>2026-04-03T14:49:18.969Z</time></trkpt><trkpt lat="44.429538079852335" lon="9.908394126044215"><ele>659.0</ele><time>2026-04-03T14:49:19.969Z</time></trkpt><trkpt lat="44.42941154466583" lon="9.908385281720838"><ele>658.0</ele><time>2026-04-03T14:49:20.969Z</time></trkpt><trkpt lat="44.429270726061056" lon="9.908411382149488"><ele>658.0</ele><time>2026-04-03T14:49:21.969Z</time></trkpt><trkpt lat="44.42911922595509" lon="9.90844373755153"><ele>658.0</ele><time>2026-04-03T14:49:22.969Z</time></trkpt><trkpt lat="44.42895626164196" lon="9.90848966226046"><ele>658.0</ele><time>2026-04-03T14:49:23.969Z</time></trkpt><trkpt lat="44.428793495369064" lon="9.908511246426954"><ele>657.6666666666667</ele><time>2026-04-03T14:49:24.969Z</time></trkpt><trkpt lat="44.42863534148052" lon="9.908490733902715"><ele>657.3333333333334</ele><time>2026-04-03T14:49:25.969Z</time></trkpt><trkpt lat="44.428473993644836" lon="9.908428243051173"><ele>657.0</ele><time>2026-04-03T14:49:26.969Z</time></trkpt><trkpt lat="44.428316563543376" lon="9.908322147293177"><ele>656.6666666666666</ele><time>2026-04-03T14:49:27.969Z</time></trkpt><trkpt lat="44.42814826699256" lon="9.908210815845532"><ele>656.3333333333333</ele><time>2026-04-03T14:49:28.969Z</time></trkpt><trkpt lat="44.42797358463228" lon="9.908132468065446"><ele>656.0</ele><time>2026-04-03T14:49:29.969Z</time></trkpt><trkpt lat="44.42778656188279" lon="9.908077707368044"><ele>656.0</ele><time>2026-04-03T14:49:30.969Z</time></trkpt><trkpt lat="44.427593191750205" lon="9.908013010437145"><ele>656.0</ele><time>2026-04-03T14:49:31.969Z</time></trkpt><trkpt lat="44.42739802605546" lon="9.907921931804154"><ele>656.0</ele><time>2026-04-03T14:49:32.969Z</time></trkpt><trkpt lat="44.42720071040738" lon="9.907831150602389"><ele>652.6666666666666</ele><time>2026-04-03T14:49:33.969Z</time></trkpt><trkpt lat="44.42701941190182" lon="9.907745436663609"><ele>649.3333333333334</ele><time>2026-04-03T14:49:34.969Z</time></trkpt><trkpt lat="44.42687243054769" lon="9.90767566401685"><ele>646.0</ele><time>2026-04-03T14:49:35.969Z</time></trkpt><trkpt lat="44.426735119469654" lon="9.907644925397108"><ele>646.0</ele><time>2026-04-03T14:49:36.969Z</time></trkpt><trkpt lat="44.42659824634441" lon="9.907670524483825"><ele>646.0</ele><time>2026-04-03T14:49:37.969Z</time></trkpt><trkpt lat="44.42646415307301" lon="9.907735226778746"><ele>646.0</ele><time>2026-04-03T14:49:38.969Z</time></trkpt><trkpt lat="44.4263440096768" lon="9.907787992943643"><ele>646.0</ele><time>2026-04-03T14:49:39.969Z</time></trkpt><trkpt lat="44.42623547835903" lon="9.90781907258901"><ele>646.5</ele><time>2026-04-03T14:49:40.969Z</time></trkpt><trkpt lat="44.4261248780158" lon="9.907795061406372"><ele>647.0</ele><time>2026-04-03T14:49:41.969Z</time></trkpt><trkpt lat="44.426031405942815" lon="9.907701076745079"><ele>647.5</ele><time>2026-04-03T14:49:42.969Z</time></trkpt><trkpt lat="44.42595481582832" lon="9.907561043825735"><ele>648.0</ele><time>2026-04-03T14:49:43.969Z</time></trkpt><trkpt lat="44.425894926187226" lon="9.907379998410839"><ele>648.0</ele><time>2026-04-03T14:49:44.969Z</time></trkpt><trkpt lat="44.42583904235745" lon="9.907185385183972"><ele>648.0</ele><time>2026-04-03T14:49:45.969Z</time></trkpt><trkpt lat="44.42576747431045" lon="9.907001511682282"><ele>648.0</ele><time>2026-04-03T14:49:46.969Z</time></trkpt><trkpt lat="44.42566817778485" lon="9.906819224108842"><ele>652.0</ele><time>2026-04-03T14:49:47.969Z</time></trkpt><trkpt lat="44.42554860554949" lon="9.906634747587466"><ele>656.0</ele><time>2026-04-03T14:49:48.969Z</time></trkpt><trkpt lat="44.42542229632934" lon="9.906444746914172"><ele>660.0</ele><time>2026-04-03T14:49:49.969Z</time></trkpt><trkpt lat="44.425304015795746" lon="9.906282023653036"><ele>651.3333333333334</ele><time>2026-04-03T14:49:50.969Z</time></trkpt><trkpt lat="44.425171012355605" lon="9.906151055858876"><ele>642.6666666666667</ele><time>2026-04-03T14:49:51.969Z</time></trkpt><trkpt lat="44.42500968397197" lon="9.906056071932365"><ele>634.0</ele><time>2026-04-03T14:49:52.969Z</time></trkpt><trkpt lat="44.424840178558675" lon="9.905943090290597"><ele>631.6666666666667</ele><time>2026-04-03T14:49:53.969Z</time></trkpt><trkpt lat="44.424685343309385" lon="9.905812815685941"><ele>629.3333333333334</ele><time>2026-04-03T14:49:54.969Z</time></trkpt><trkpt lat="44.424554611991276" lon="9.90565288823943"><ele>627.0</ele><time>2026-04-03T14:49:55.969Z</time></trkpt><trkpt lat="44.42444273270895" lon="9.905449594443825"><ele>627.0</ele><time>2026-04-03T14:49:56.969Z</time></trkpt><trkpt lat="44.42434879471133" lon="9.905234489379644"><ele>627.0</ele><time>2026-04-03T14:49:57.969Z</time></trkpt><trkpt lat="44.424281436076846" lon="9.90501822437909"><ele>627.0</ele><time>2026-04-03T14:49:58.969Z</time></trkpt><trkpt lat="44.42424043100253" lon="9.904807994108273"><ele>630.25</ele><time>2026-04-03T14:49:59.969Z</time></trkpt><trkpt lat="44.42421722573832" lon="9.904619259592033"><ele>633.5</ele><time>2026-04-03T14:50:00.969Z</time></trkpt><trkpt lat="44.42417411455779" lon="9.904469228434372"><ele>636.75</ele><time>2026-04-03T14:50:01.969Z</time></trkpt><trkpt lat="44.424055405612954" lon="9.904353076379358"><ele>640.0</ele><time>2026-04-03T14:50:02.969Z</time></trkpt><trkpt lat="44.42388616650943" lon="9.904268601761666"><ele>638.3333333333334</ele><time>2026-04-03T14:50:03.969Z</time></trkpt><trkpt lat="44.42371471245753" lon="9.904187404741057"><ele>636.6666666666666</ele><time>2026-04-03T14:50:04.969Z</time></trkpt><trkpt lat="44.423538560464976" lon="9.904110727467241"><ele>635.0</ele><time>2026-04-03T14:50:05.969Z</time></trkpt><trkpt lat="44.423361437018" lon="9.90405386863318"><ele>635.0</ele><time>2026-04-03T14:50:06.969Z</time></trkpt><trkpt lat="44.423195044065594" lon="9.904034221166231"><ele>635.0</ele><time>2026-04-03T14:50:07.969Z</time></trkpt><trkpt lat="44.4230328460592" lon="9.904045576246968"><ele>635.0</ele><time>2026-04-03T14:50:08.969Z</time></trkpt><trkpt lat="44.4228914182185" lon="9.904076539862812"><ele>634.0</ele><time>2026-04-03T14:50:09.969Z</time></trkpt><trkpt lat="44.422757355499904" lon="9.904130191319176"><ele>633.0</ele><time>2026-04-03T14:50:10.969Z</time></trkpt><trkpt lat="44.42264026690317" lon="9.904238060031595"><ele>632.0</ele><time>2026-04-03T14:50:11.969Z</time></trkpt><trkpt lat="44.42252293792195" lon="9.904373510556304"><ele>631.0</ele><time>2026-04-03T14:50:12.969Z</time></trkpt><trkpt lat="44.42240203360484" lon="9.904515684051077"><ele>631.0</ele><time>2026-04-03T14:50:13.969Z</time></trkpt><trkpt lat="44.42225329787763" lon="9.9046608595048"><ele>631.0</ele><time>2026-04-03T14:50:14.969Z</time></trkpt><trkpt lat="44.42208336627646" lon="9.904753124167271"><ele>631.0</ele><time>2026-04-03T14:50:15.969Z</time></trkpt><trkpt lat="44.42190463196446" lon="9.904790302838332"><ele>629.3333333333334</ele><time>2026-04-03T14:50:16.969Z</time></trkpt><trkpt lat="44.4217006440489" lon="9.904787974723634"><ele>627.6666666666666</ele><time>2026-04-03T14:50:17.969Z</time></trkpt><trkpt lat="44.421498061484364" lon="9.904811393894507"><ele>626.0</ele><time>2026-04-03T14:50:18.969Z</time></trkpt><trkpt lat="44.42128300266082" lon="9.904847959552908"><ele>622.3333333333333</ele><time>2026-04-03T14:50:19.969Z</time></trkpt><trkpt lat="44.42109256044743" lon="9.904922820268734"><ele>618.6666666666666</ele><time>2026-04-03T14:50:20.969Z</time></trkpt><trkpt lat="44.42092241906537" lon="9.904965083067275"><ele>615.0</ele><time>2026-04-03T14:50:21.969Z</time></trkpt><trkpt lat="44.42075833507664" lon="9.904938870379564"><ele>615.0</ele><time>2026-04-03T14:50:22.969Z</time></trkpt><trkpt lat="44.42060323723128" lon="9.904857992008054"><ele>615.0</ele><time>2026-04-03T14:50:23.969Z</time></trkpt><trkpt lat="44.42046099964434" lon="9.904729254258438"><ele>615.0</ele><time>2026-04-03T14:50:24.969Z</time></trkpt><trkpt lat="44.42033651760259" lon="9.904556762126978"><ele>614.3333333333334</ele><time>2026-04-03T14:50:25.967Z</time></trkpt><trkpt lat="44.42021606082255" lon="9.904346790648777"><ele>613.6666666666667</ele><time>2026-04-03T14:50:26.968Z</time></trkpt><trkpt lat="44.42009896604735" lon="9.904123886304536"><ele>613.0</ele><time>2026-04-03T14:50:27.968Z</time></trkpt><trkpt lat="44.41997861647734" lon="9.903938576687672"><ele>613.0</ele><time>2026-04-03T14:50:28.968Z</time></trkpt><trkpt lat="44.419829031536146" lon="9.903804418558405"><ele>613.0</ele><time>2026-04-03T14:50:29.967Z</time></trkpt><trkpt lat="44.41965024280724" lon="9.903695000113732"><ele>613.0</ele><time>2026-04-03T14:50:30.967Z</time></trkpt><trkpt lat="44.41946960726634" lon="9.903565751397158"><ele>609.3333333333334</ele><time>2026-04-03T14:50:31.968Z</time></trkpt><trkpt lat="44.41930380894472" lon="9.903424566700815"><ele>605.6666666666666</ele><time>2026-04-03T14:50:32.968Z</time></trkpt><trkpt lat="44.41916936613815" lon="9.903283821214758"><ele>602.0</ele><time>2026-04-03T14:50:33.968Z</time></trkpt><trkpt lat="44.41905689067751" lon="9.90317382130795"><ele>602.0</ele><time>2026-04-03T14:50:34.968Z</time></trkpt><trkpt lat="44.41894108961" lon="9.903138391168177"><ele>602.0</ele><time>2026-04-03T14:50:35.968Z</time></trkpt><trkpt lat="44.418806559082356" lon="9.903167500100038"><ele>602.0</ele><time>2026-04-03T14:50:36.968Z</time></trkpt><trkpt lat="44.418664419657595" lon="9.903240264646646"><ele>602.0</ele><time>2026-04-03T14:50:37.968Z</time></trkpt><trkpt lat="44.418507498284576" lon="9.903302236371273"><ele>600.6666666666666</ele><time>2026-04-03T14:50:38.968Z</time></trkpt><trkpt lat="44.41835224929712" lon="9.903344188996748"><ele>599.3333333333334</ele><time>2026-04-03T14:50:39.968Z</time></trkpt><trkpt lat="44.41820097748202" lon="9.903344550378014"><ele>598.0</ele><time>2026-04-03T14:50:40.968Z</time></trkpt><trkpt lat="44.418049105974845" lon="9.90329817929283"><ele>596.6666666666667</ele><time>2026-04-03T14:50:41.968Z</time></trkpt><trkpt lat="44.41789201824369" lon="9.903230087566662"><ele>595.3333333333334</ele><time>2026-04-03T14:50:42.968Z</time></trkpt><trkpt lat="44.417745752944946" lon="9.903168338062615"><ele>594.0</ele><time>2026-04-03T14:50:43.968Z</time></trkpt><trkpt lat="44.417620238147904" lon="9.903096760251197"><ele>594.0</ele><time>2026-04-03T14:50:44.968Z</time></trkpt><trkpt lat="44.417499149140966" lon="9.90299581749119"><ele>594.0</ele><time>2026-04-03T14:50:45.968Z</time></trkpt><trkpt lat="44.417398203564844" lon="9.902839712211662"><ele>594.0</ele><time>2026-04-03T14:50:46.968Z</time></trkpt><trkpt lat="44.41732470589704" lon="9.90265840736611"><ele>594.0</ele><time>2026-04-03T14:50:47.968Z</time></trkpt><trkpt lat="44.417249750092864" lon="9.902505268109492"><ele>597.3333333333334</ele><time>2026-04-03T14:50:48.968Z</time></trkpt><trkpt lat="44.417134783226956" lon="9.902411335719044"><ele>600.6666666666667</ele><time>2026-04-03T14:50:49.968Z</time></trkpt><trkpt lat="44.416978453566166" lon="9.902377094132497"><ele>604.0</ele><time>2026-04-03T14:50:50.968Z</time></trkpt><trkpt lat="44.416796907176106" lon="9.902367342443673"><ele>604.0</ele><time>2026-04-03T14:50:51.968Z</time></trkpt><trkpt lat="44.416606624429676" lon="9.902335352157673"><ele>604.0</ele><time>2026-04-03T14:50:52.968Z</time></trkpt><trkpt lat="44.4164077378718" lon="9.902297655539416"><ele>604.0</ele><time>2026-04-03T14:50:53.968Z</time></trkpt><trkpt lat="44.416220785700084" lon="9.902262416591201"><ele>602.75</ele><time>2026-04-03T14:50:54.968Z</time></trkpt><trkpt lat="44.41605397520841" lon="9.902231412108634"><ele>601.5</ele><time>2026-04-03T14:50:55.968Z</time></trkpt><trkpt lat="44.415907714781966" lon="9.902200919460709"><ele>600.25</ele><time>2026-04-03T14:50:56.968Z</time></trkpt><trkpt lat="44.41578376508821" lon="9.902153306444996"><ele>599.0</ele><time>2026-04-03T14:50:57.968Z</time></trkpt><trkpt lat="44.41567501582678" lon="9.902067822687563"><ele>599.0</ele><time>2026-04-03T14:50:58.968Z</time></trkpt><trkpt lat="44.415586161254645" lon="9.901926635418679"><ele>599.0</ele><time>2026-04-03T14:50:59.968Z</time></trkpt><trkpt lat="44.415517209765994" lon="9.901735258201757"><ele>599.0</ele><time>2026-04-03T14:51:00.968Z</time></trkpt><trkpt lat="44.41547392315723" lon="9.901507098408786"><ele>601.6666666666666</ele><time>2026-04-03T14:51:01.968Z</time></trkpt><trkpt lat="44.41541951188062" lon="9.90128521100361"><ele>604.3333333333334</ele><time>2026-04-03T14:51:02.968Z</time></trkpt><trkpt lat="44.41533624214199" lon="9.901081069698314"><ele>607.0</ele><time>2026-04-03T14:51:03.968Z</time></trkpt><trkpt lat="44.4152135315633" lon="9.90089491069877"><ele>607.0</ele><time>2026-04-03T14:51:04.968Z</time></trkpt><trkpt lat="44.41507655550834" lon="9.900704206792689"><ele>607.0</ele><time>2026-04-03T14:51:05.968Z</time></trkpt><trkpt lat="44.414972572413454" lon="9.900478769313978"><ele>607.0</ele><time>2026-04-03T14:51:06.968Z</time></trkpt><trkpt lat="44.41488425503079" lon="9.900257323645185"><ele>600.3333333333334</ele><time>2026-04-03T14:51:07.968Z</time></trkpt><trkpt lat="44.414790283266896" lon="9.900068724430858"><ele>593.6666666666666</ele><time>2026-04-03T14:51:08.968Z</time></trkpt><trkpt lat="44.41469063609027" lon="9.899912020814558"><ele>587.0</ele><time>2026-04-03T14:51:09.968Z</time></trkpt><trkpt lat="44.414611394277735" lon="9.8997435975136"><ele>587.0</ele><time>2026-04-03T14:51:10.968Z</time></trkpt><trkpt lat="44.41455854392764" lon="9.899534442315998"><ele>587.0</ele><time>2026-04-03T14:51:11.968Z</time></trkpt><trkpt lat="44.414519561691506" lon="9.89930284301123"><ele>587.0</ele><time>2026-04-03T14:51:12.968Z</time></trkpt><trkpt lat="44.41448729968118" lon="9.899054900569496"><ele>590.0</ele><time>2026-04-03T14:51:13.968Z</time></trkpt><trkpt lat="44.41445339068542" lon="9.898796086922374"><ele>593.0</ele><time>2026-04-03T14:51:14.968Z</time></trkpt><trkpt lat="44.414422552431816" lon="9.898540398423735"><ele>596.0</ele><time>2026-04-03T14:51:15.968Z</time></trkpt><trkpt lat="44.41438975576035" lon="9.898306028640707"><ele>598.75</ele><time>2026-04-03T14:51:16.968Z</time></trkpt><trkpt lat="44.41435730481767" lon="9.898092021932754"><ele>601.5</ele><time>2026-04-03T14:51:17.968Z</time></trkpt><trkpt lat="44.41431405146749" lon="9.897893794885004"><ele>604.25</ele><time>2026-04-03T14:51:18.968Z</time></trkpt><trkpt lat="44.41425006912465" lon="9.897722840840565"><ele>607.0</ele><time>2026-04-03T14:51:19.968Z</time></trkpt><trkpt lat="44.4141498928819" lon="9.897569513455622"><ele>602.3333333333334</ele><time>2026-04-03T14:51:20.968Z</time></trkpt><trkpt lat="44.41402302640424" lon="9.897447964694411"><ele>597.6666666666666</ele><time>2026-04-03T14:51:21.968Z</time></trkpt><trkpt lat="44.41387262266183" lon="9.897348905614688"><ele>593.0</ele><time>2026-04-03T14:51:22.968Z</time></trkpt><trkpt lat="44.41371708144404" lon="9.897264386361218"><ele>593.0</ele><time>2026-04-03T14:51:23.968Z</time></trkpt><trkpt lat="44.41358665712118" lon="9.89717680667774"><ele>593.0</ele><time>2026-04-03T14:51:24.968Z</time></trkpt><trkpt lat="44.41348608410133" lon="9.897073575922992"><ele>593.0</ele><time>2026-04-03T14:51:25.968Z</time></trkpt><trkpt lat="44.41340280054591" lon="9.896926289713146"><ele>593.0</ele><time>2026-04-03T14:51:26.968Z</time></trkpt><trkpt lat="44.41334556683332" lon="9.896736226826366"><ele>599.3333333333333</ele><time>2026-04-03T14:51:27.968Z</time></trkpt><trkpt lat="44.41330613507372" lon="9.896519771616106"><ele>605.6666666666666</ele><time>2026-04-03T14:51:28.968Z</time></trkpt><trkpt lat="44.413271038084424" lon="9.896276641602174"><ele>612.0</ele><time>2026-04-03T14:51:29.968Z</time></trkpt><trkpt lat="44.41324252528793" lon="9.896011915892773"><ele>613.6666666666666</ele><time>2026-04-03T14:51:30.968Z</time></trkpt><trkpt lat="44.41321411062127" lon="9.89573381921095"><ele>615.3333333333333</ele><time>2026-04-03T14:51:31.968Z</time></trkpt><trkpt lat="44.413186491504064" lon="9.895482162854062"><ele>617.0</ele><time>2026-04-03T14:51:32.968Z</time></trkpt><trkpt lat="44.41316220175048" lon="9.895251097782092"><ele>614.5</ele><time>2026-04-03T14:51:33.968Z</time></trkpt><trkpt lat="44.413141875724264" lon="9.895041687638281"><ele>612.0</ele><time>2026-04-03T14:51:34.968Z</time></trkpt><trkpt lat="44.41311476960516" lon="9.894848761407028"><ele>609.5</ele><time>2026-04-03T14:51:35.968Z</time></trkpt><trkpt lat="44.41307468555302" lon="9.894653203214714"><ele>607.0</ele><time>2026-04-03T14:51:36.968Z</time></trkpt><trkpt lat="44.412990679684555" lon="9.894461097647188"><ele>609.0</ele><time>2026-04-03T14:51:37.968Z</time></trkpt><trkpt lat="44.41288295750448" lon="9.894296955691994"><ele>611.0</ele><time>2026-04-03T14:51:38.968Z</time></trkpt><trkpt lat="44.41274669339199" lon="9.894155912670055"><ele>613.0</ele><time>2026-04-03T14:51:39.968Z</time></trkpt><trkpt lat="44.41261338044182" lon="9.894004186422634"><ele>613.0</ele><time>2026-04-03T14:51:40.968Z</time></trkpt><trkpt lat="44.41248088778858" lon="9.893823399681551"><ele>613.0</ele><time>2026-04-03T14:51:41.968Z</time></trkpt><trkpt lat="44.412362578119" lon="9.893628453912433"><ele>613.0</ele><time>2026-04-03T14:51:42.968Z</time></trkpt><trkpt lat="44.412261136151365" lon="9.893421571010544"><ele>611.6666666666667</ele><time>2026-04-03T14:51:43.968Z</time></trkpt><trkpt lat="44.41216357426171" lon="9.893201385325352"><ele>610.3333333333334</ele><time>2026-04-03T14:51:44.968Z</time></trkpt><trkpt lat="44.4120641491179" lon="9.893001626865592"><ele>609.0</ele><time>2026-04-03T14:51:45.968Z</time></trkpt><trkpt lat="44.411952521758664" lon="9.892806415301758"><ele>609.0</ele><time>2026-04-03T14:51:46.968Z</time></trkpt><trkpt lat="44.41183038311023" lon="9.892632556461175"><ele>609.0</ele><time>2026-04-03T14:51:47.968Z</time></trkpt><trkpt lat="44.41170280887079" lon="9.892475027854163"><ele>609.0</ele><time>2026-04-03T14:51:48.968Z</time></trkpt><trkpt lat="44.41155038759291" lon="9.892330662256667"><ele>604.0</ele><time>2026-04-03T14:51:49.968Z</time></trkpt><trkpt lat="44.41137833077056" lon="9.892207511365598"><ele>599.0</ele><time>2026-04-03T14:51:50.968Z</time></trkpt><trkpt lat="44.41119877872925" lon="9.892095715166844"><ele>594.0</ele><time>2026-04-03T14:51:51.968Z</time></trkpt><trkpt lat="44.4110120089063" lon="9.891985995109946"><ele>592.5</ele><time>2026-04-03T14:51:52.968Z</time></trkpt><trkpt lat="44.41080528061468" lon="9.891870074456868"><ele>591.0</ele><time>2026-04-03T14:51:53.968Z</time></trkpt><trkpt lat="44.410588824873535" lon="9.89175154259549"><ele>583.0</ele><time>2026-04-03T14:51:54.968Z</time></trkpt><trkpt lat="44.410371854458056" lon="9.891624133408143"><ele>575.0</ele><time>2026-04-03T14:51:55.968Z</time></trkpt><trkpt lat="44.41015935763978" lon="9.891500520929664"><ele>575.0</ele><time>2026-04-03T14:51:56.968Z</time></trkpt><trkpt lat="44.40995354113065" lon="9.891384159892558"><ele>575.0</ele><time>2026-04-03T14:51:57.968Z</time></trkpt><trkpt lat="44.40975992673115" lon="9.89127234155162"><ele>575.0</ele><time>2026-04-03T14:51:58.968Z</time></trkpt><trkpt lat="44.40958713104564" lon="9.891173766830219"><ele>570.6666666666666</ele><time>2026-04-03T14:51:59.968Z</time></trkpt><trkpt lat="44.40943239296276" lon="9.89108158734498"><ele>566.3333333333334</ele><time>2026-04-03T14:52:00.968Z</time></trkpt><trkpt lat="44.40930492508173" lon="9.890957164782154"><ele>562.0</ele><time>2026-04-03T14:52:01.968Z</time></trkpt><trkpt lat="44.40920125331159" lon="9.890766941552174"><ele>562.0</ele><time>2026-04-03T14:52:02.968Z</time></trkpt><trkpt lat="44.40910399691616" lon="9.890559923460975"><ele>562.0</ele><time>2026-04-03T14:52:03.968Z</time></trkpt><trkpt lat="44.409017615983494" lon="9.890371007503022"><ele>562.0</ele><time>2026-04-03T14:52:04.968Z</time></trkpt><trkpt lat="44.40895646688423" lon="9.890191363408864"><ele>565.0</ele><time>2026-04-03T14:52:05.968Z</time></trkpt><trkpt lat="44.40893590364293" lon="9.889997186801036"><ele>568.0</ele><time>2026-04-03T14:52:06.968Z</time></trkpt><trkpt lat="44.40894772224071" lon="9.889795935680109"><ele>571.0</ele><time>2026-04-03T14:52:07.968Z</time></trkpt><trkpt lat="44.40899085229895" lon="9.889603860544893"><ele>574.0</ele><time>2026-04-03T14:52:08.968Z</time></trkpt><trkpt lat="44.409072814175936" lon="9.889432073774497"><ele>571.3333333333334</ele><time>2026-04-03T14:52:09.968Z</time></trkpt><trkpt lat="44.40917790263016" lon="9.889256335373384"><ele>568.6666666666666</ele><time>2026-04-03T14:52:10.968Z</time></trkpt><trkpt lat="44.40928823388429" lon="9.889067289904972"><ele>566.0</ele><time>2026-04-03T14:52:11.968Z</time></trkpt><trkpt lat="44.409384910406885" lon="9.88888830263616"><ele>566.0</ele><time>2026-04-03T14:52:12.968Z</time></trkpt><trkpt lat="44.4094601931664" lon="9.888738547404422"><ele>566.0</ele><time>2026-04-03T14:52:13.968Z</time></trkpt><trkpt lat="44.40951405046798" lon="9.888603032622544"><ele>566.0</ele><time>2026-04-03T14:52:14.968Z</time></trkpt><trkpt lat="44.40952595972347" lon="9.888455895880789"><ele>566.0</ele><time>2026-04-03T14:52:15.968Z</time></trkpt><trkpt lat="44.409490637708956" lon="9.888328211790963"><ele>566.0</ele><time>2026-04-03T14:52:16.968Z</time></trkpt><trkpt lat="44.40941469114488" lon="9.888221529253146"><ele>563.3333333333333</ele><time>2026-04-03T14:52:17.968Z</time></trkpt><trkpt lat="44.40931633740984" lon="9.888087250939321"><ele>560.6666666666666</ele><time>2026-04-03T14:52:18.968Z</time></trkpt><trkpt lat="44.40920223682525" lon="9.887926888882976"><ele>558.0</ele><time>2026-04-03T14:52:19.968Z</time></trkpt><trkpt lat="44.409068491621156" lon="9.887757531625658"><ele>558.0</ele><time>2026-04-03T14:52:20.968Z</time></trkpt><trkpt lat="44.4089082484361" lon="9.88760398635963"><ele>558.0</ele><time>2026-04-03T14:52:21.968Z</time></trkpt><trkpt lat="44.4087311070209" lon="9.88746481347787"><ele>558.0</ele><time>2026-04-03T14:52:22.968Z</time></trkpt><trkpt lat="44.40855194265485" lon="9.88730477212053"><ele>559.0</ele><time>2026-04-03T14:52:23.968Z</time></trkpt><trkpt lat="44.40838154017299" lon="9.887118319435352"><ele>560.0</ele><time>2026-04-03T14:52:24.968Z</time></trkpt><trkpt lat="44.4082286043348" lon="9.88692183192072"><ele>561.0</ele><time>2026-04-03T14:52:25.968Z</time></trkpt><trkpt lat="44.40808531295501" lon="9.886733083059385"><ele>551.6666666666666</ele><time>2026-04-03T14:52:26.968Z</time></trkpt><trkpt lat="44.40793291769022" lon="9.886575268129324"><ele>542.3333333333333</ele><time>2026-04-03T14:52:27.968Z</time></trkpt><trkpt lat="44.40777729928318" lon="9.886431107596135"><ele>533.0</ele><time>2026-04-03T14:52:28.968Z</time></trkpt><trkpt lat="44.407614326015434" lon="9.886299688710277"><ele>533.0</ele><time>2026-04-03T14:52:29.968Z</time></trkpt><trkpt lat="44.40744302064152" lon="9.886183516866764"><ele>533.0</ele><time>2026-04-03T14:52:30.968Z</time></trkpt><trkpt lat="44.40724637245456" lon="9.886105254119316"><ele>533.0</ele><time>2026-04-03T14:52:31.967Z</time></trkpt><trkpt lat="44.4070437329804" lon="9.886025144532082"><ele>535.3333333333333</ele><time>2026-04-03T14:52:32.966Z</time></trkpt><trkpt lat="44.40685011745694" lon="9.885952704112993"><ele>537.6666666666666</ele><time>2026-04-03T14:52:33.966Z</time></trkpt><trkpt lat="44.406668430219554" lon="9.885871428163153"><ele>540.0</ele><time>2026-04-03T14:52:34.967Z</time></trkpt><trkpt lat="44.40649165563083" lon="9.885761782414475"><ele>531.3333333333334</ele><time>2026-04-03T14:52:35.966Z</time></trkpt><trkpt lat="44.40632357204321" lon="9.885621975423417"><ele>522.6666666666667</ele><time>2026-04-03T14:52:36.966Z</time></trkpt><trkpt lat="44.40617134994024" lon="9.885469603857244"><ele>514.0</ele><time>2026-04-03T14:52:37.966Z</time></trkpt><trkpt lat="44.406041808021115" lon="9.885334668214732"><ele>514.0</ele><time>2026-04-03T14:52:38.967Z</time></trkpt><trkpt lat="44.40591940304871" lon="9.88519970074731"><ele>514.0</ele><time>2026-04-03T14:52:39.967Z</time></trkpt><trkpt lat="44.40582162900845" lon="9.88501942461612"><ele>514.0</ele><time>2026-04-03T14:52:40.966Z</time></trkpt><trkpt lat="44.405736978240675" lon="9.884813926549539"><ele>517.6666666666667</ele><time>2026-04-03T14:52:41.966Z</time></trkpt><trkpt lat="44.405633966662414" lon="9.884615678224048"><ele>521.3333333333334</ele><time>2026-04-03T14:52:42.966Z</time></trkpt><trkpt lat="44.405503643146815" lon="9.884429618496764"><ele>525.0</ele><time>2026-04-03T14:52:43.966Z</time></trkpt><trkpt lat="44.40535503104419" lon="9.88425422892667"><ele>525.0</ele><time>2026-04-03T14:52:44.966Z</time></trkpt><trkpt lat="44.40519533844717" lon="9.884104548744794"><ele>525.0</ele><time>2026-04-03T14:52:45.966Z</time></trkpt><trkpt lat="44.40502826863502" lon="9.883961517769977"><ele>525.0</ele><time>2026-04-03T14:52:46.966Z</time></trkpt><trkpt lat="44.40486837728238" lon="9.883830130117307"><ele>525.0</ele><time>2026-04-03T14:52:47.966Z</time></trkpt><trkpt lat="44.40469589755492" lon="9.883720131482486"><ele>525.0</ele><time>2026-04-03T14:52:48.966Z</time></trkpt><trkpt lat="44.40451952673167" lon="9.883628122021939"><ele>525.0</ele><time>2026-04-03T14:52:49.966Z</time></trkpt><trkpt lat="44.404353901908244" lon="9.883544352474814"><ele>521.5</ele><time>2026-04-03T14:52:50.966Z</time></trkpt><trkpt lat="44.40420499887444" lon="9.883463488756455"><ele>518.0</ele><time>2026-04-03T14:52:51.966Z</time></trkpt><trkpt lat="44.40407274250042" lon="9.88338656108517"><ele>514.5</ele><time>2026-04-03T14:52:52.966Z</time></trkpt><trkpt lat="44.40395392637839" lon="9.883320972675348"><ele>511.0</ele><time>2026-04-03T14:52:53.966Z</time></trkpt><trkpt lat="44.40385692375877" lon="9.883270190711668"><ele>510.6666666666667</ele><time>2026-04-03T14:52:54.966Z</time></trkpt><trkpt lat="44.403775234678236" lon="9.883245247373186"><ele>510.33333333333337</ele><time>2026-04-03T14:52:55.966Z</time></trkpt><trkpt lat="44.4037065682837" lon="9.883289726469359"><ele>510.0</ele><time>2026-04-03T14:52:56.966Z</time></trkpt><trkpt lat="44.403674506817154" lon="9.883383001768326"><ele>509.66666666666663</ele><time>2026-04-03T14:52:57.966Z</time></trkpt><trkpt lat="44.403705955911" lon="9.883502273506098"><ele>509.3333333333333</ele><time>2026-04-03T14:52:58.966Z</time></trkpt><trkpt lat="44.403793514861825" lon="9.883592609063756"><ele>509.0</ele><time>2026-04-03T14:52:59.966Z</time></trkpt><trkpt lat="44.40390373807856" lon="9.883664246366457"><ele>509.0</ele><time>2026-04-03T14:53:00.966Z</time></trkpt><trkpt lat="44.40402958640236" lon="9.883744086810982"><ele>509.0</ele><time>2026-04-03T14:53:01.966Z</time></trkpt><trkpt lat="44.40415359215742" lon="9.883869367610805"><ele>509.0</ele><time>2026-04-03T14:53:02.966Z</time></trkpt><trkpt lat="44.40428250266592" lon="9.88401414363343"><ele>509.0</ele><time>2026-04-03T14:53:03.966Z</time></trkpt><trkpt lat="44.404409712116255" lon="9.88418061521179"><ele>509.0</ele><time>2026-04-03T14:53:04.966Z</time></trkpt><trkpt lat="44.404530765658244" lon="9.884351194873492"><ele>509.0</ele><time>2026-04-03T14:53:05.966Z</time></trkpt><trkpt lat="44.404634593217175" lon="9.884505029097328"><ele>509.6</ele><time>2026-04-03T14:53:06.966Z</time></trkpt><trkpt lat="44.404740183239525" lon="9.884630566630157"><ele>510.2</ele><time>2026-04-03T14:53:07.966Z</time></trkpt><trkpt lat="44.404826558567024" lon="9.884725801025592"><ele>510.80000000000007</ele><time>2026-04-03T14:53:08.966Z</time></trkpt><trkpt lat="44.40488552634609" lon="9.884796473946764"><ele>511.40000000000003</ele><time>2026-04-03T14:53:09.966Z</time></trkpt><trkpt lat="44.4049152563335" lon="9.884878223816893"><ele>512.0</ele><time>2026-04-03T14:53:10.966Z</time></trkpt><trkpt lat="44.40490346688958" lon="9.884987617055614"><ele>512.0</ele><time>2026-04-03T14:53:11.966Z</time></trkpt><trkpt lat="44.404841910595735" lon="9.88508010325577"><ele>512.0</ele><time>2026-04-03T14:53:12.966Z</time></trkpt><trkpt lat="44.4047453832327" lon="9.88509510735493"><ele>512.0</ele><time>2026-04-03T14:53:13.966Z</time></trkpt><trkpt lat="44.4046625205646" lon="9.885026602665398"><ele>512.0</ele><time>2026-04-03T14:53:14.966Z</time></trkpt><trkpt lat="44.40457756090667" lon="9.884935447758862"><ele>512.0</ele><time>2026-04-03T14:53:15.966Z</time></trkpt><trkpt lat="44.40446488092789" lon="9.884836343031516"><ele>506.3333333333333</ele><time>2026-04-03T14:53:16.966Z</time></trkpt><trkpt lat="44.404326525303844" lon="9.884736252125862"><ele>500.66666666666663</ele><time>2026-04-03T14:53:17.966Z</time></trkpt><trkpt lat="44.4041917366199" lon="9.884628376800773"><ele>495.0</ele><time>2026-04-03T14:53:18.966Z</time></trkpt><trkpt lat="44.40403742304439" lon="9.884494874797857"><ele>495.0</ele><time>2026-04-03T14:53:19.966Z</time></trkpt><trkpt lat="44.40389582420408" lon="9.884340745474244"><ele>495.0</ele><time>2026-04-03T14:53:20.966Z</time></trkpt><trkpt lat="44.40376693413647" lon="9.884191499111235"><ele>495.0</ele><time>2026-04-03T14:53:21.966Z</time></trkpt><trkpt lat="44.40362419854838" lon="9.884091239220185"><ele>495.0</ele><time>2026-04-03T14:53:22.966Z</time></trkpt><trkpt lat="44.403463292625915" lon="9.88403310383585"><ele>495.0</ele><time>2026-04-03T14:53:23.966Z</time></trkpt><trkpt lat="44.40328369092052" lon="9.883986517168411"><ele>495.0</ele><time>2026-04-03T14:53:24.966Z</time></trkpt><trkpt lat="44.40312232682497" lon="9.883897510123171"><ele>490.66666666666663</ele><time>2026-04-03T14:53:25.966Z</time></trkpt><trkpt lat="44.40296626258314" lon="9.883805779734788"><ele>486.3333333333333</ele><time>2026-04-03T14:53:26.966Z</time></trkpt><trkpt lat="44.40279817264407" lon="9.883758065895963"><ele>482.0</ele><time>2026-04-03T14:53:27.966Z</time></trkpt><trkpt lat="44.402618052038285" lon="9.883774632258753"><ele>482.0</ele><time>2026-04-03T14:53:28.966Z</time></trkpt><trkpt lat="44.40244727940883" lon="9.883783555000516"><ele>482.0</ele><time>2026-04-03T14:53:29.966Z</time></trkpt><trkpt lat="44.40228978099595" lon="9.88373917427717"><ele>482.0</ele><time>2026-04-03T14:53:30.966Z</time></trkpt><trkpt lat="44.40214424958151" lon="9.883650020848794"><ele>481.3333333333333</ele><time>2026-04-03T14:53:31.966Z</time></trkpt><trkpt lat="44.40201013482969" lon="9.88352271785617"><ele>480.66666666666663</ele><time>2026-04-03T14:53:32.966Z</time></trkpt><trkpt lat="44.40190437325214" lon="9.883380217877987"><ele>480.0</ele><time>2026-04-03T14:53:33.966Z</time></trkpt><trkpt lat="44.40180629419559" lon="9.883220457557437"><ele>480.0</ele><time>2026-04-03T14:53:34.966Z</time></trkpt><trkpt lat="44.40172075410476" lon="9.88306819594102"><ele>480.0</ele><time>2026-04-03T14:53:35.966Z</time></trkpt><trkpt lat="44.40165306808021" lon="9.882930127354419"><ele>480.0</ele><time>2026-04-03T14:53:36.966Z</time></trkpt><trkpt lat="44.40160588669434" lon="9.882805827185745"><ele>480.0</ele><time>2026-04-03T14:53:37.966Z</time></trkpt><trkpt lat="44.40155649566652" lon="9.882709918365011"><ele>480.0</ele><time>2026-04-03T14:53:38.966Z</time></trkpt><trkpt lat="44.401475987657385" lon="9.882670533895938"><ele>480.0</ele><time>2026-04-03T14:53:39.966Z</time></trkpt><trkpt lat="44.40138612904407" lon="9.882698790014345"><ele>480.0</ele><time>2026-04-03T14:53:40.966Z</time></trkpt><trkpt lat="44.40132738471656" lon="9.882794929924803"><ele>480.0</ele><time>2026-04-03T14:53:41.966Z</time></trkpt><trkpt lat="44.40132651245264" lon="9.882929024424842"><ele>480.0</ele><time>2026-04-03T14:53:42.966Z</time></trkpt><trkpt lat="44.4013852730572" lon="9.88305800734594"><ele>480.0</ele><time>2026-04-03T14:53:43.966Z</time></trkpt><trkpt lat="44.40146269237061" lon="9.883185382425438"><ele>480.0</ele><time>2026-04-03T14:53:44.966Z</time></trkpt><trkpt lat="44.40154213277081" lon="9.883347647982061"><ele>480.0</ele><time>2026-04-03T14:53:45.966Z</time></trkpt><trkpt lat="44.40161938577637" lon="9.883537263923914"><ele>480.0</ele><time>2026-04-03T14:53:46.966Z</time></trkpt><trkpt lat="44.40170228720016" lon="9.883738475881698"><ele>476.0</ele><time>2026-04-03T14:53:47.966Z</time></trkpt><trkpt lat="44.40178681263047" lon="9.8839423176198"><ele>472.0</ele><time>2026-04-03T14:53:48.966Z</time></trkpt><trkpt lat="44.40186971098944" lon="9.884121928959026"><ele>468.0</ele><time>2026-04-03T14:53:49.966Z</time></trkpt><trkpt lat="44.40196847078404" lon="9.884283969840057"><ele>466.33333333333337</ele><time>2026-04-03T14:53:50.966Z</time></trkpt><trkpt lat="44.40209470528223" lon="9.884424520153763"><ele>464.6666666666667</ele><time>2026-04-03T14:53:51.966Z</time></trkpt><trkpt lat="44.40224352952686" lon="9.884541873482718"><ele>463.0</ele><time>2026-04-03T14:53:52.966Z</time></trkpt><trkpt lat="44.40240665514825" lon="9.884638529265176"><ele>463.0</ele><time>2026-04-03T14:53:53.966Z</time></trkpt><trkpt lat="44.40257835590734" lon="9.884721969191927"><ele>463.0</ele><time>2026-04-03T14:53:54.966Z</time></trkpt><trkpt lat="44.40275000127043" lon="9.884805792443675"><ele>463.0</ele><time>2026-04-03T14:53:55.966Z</time></trkpt><trkpt lat="44.40291171851426" lon="9.884918131167682"><ele>462.33333333333337</ele><time>2026-04-03T14:53:56.966Z</time></trkpt><trkpt lat="44.403062039759995" lon="9.885032327411936"><ele>461.66666666666663</ele><time>2026-04-03T14:53:57.966Z</time></trkpt><trkpt lat="44.40320685046563" lon="9.885142830934438"><ele>461.0</ele><time>2026-04-03T14:53:58.966Z</time></trkpt><trkpt lat="44.403321017263806" lon="9.88527312070028"><ele>461.0</ele><time>2026-04-03T14:53:59.966Z</time></trkpt><trkpt lat="44.403407007476495" lon="9.885427431546326"><ele>461.0</ele><time>2026-04-03T14:54:00.966Z</time></trkpt><trkpt lat="44.403466254104664" lon="9.885619426610635"><ele>461.0</ele><time>2026-04-03T14:54:01.966Z</time></trkpt><trkpt lat="44.403529275968204" lon="9.885816109068877"><ele>461.0</ele><time>2026-04-03T14:54:02.966Z</time></trkpt><trkpt lat="44.403623320605554" lon="9.885988772005579"><ele>460.3333333333333</ele><time>2026-04-03T14:54:03.966Z</time></trkpt><trkpt lat="44.40375974687366" lon="9.886131132952325"><ele>459.66666666666663</ele><time>2026-04-03T14:54:04.966Z</time></trkpt><trkpt lat="44.403907841085704" lon="9.886229484671922"><ele>459.0</ele><time>2026-04-03T14:54:05.966Z</time></trkpt><trkpt lat="44.40405231892699" lon="9.886300875951088"><ele>459.0</ele><time>2026-04-03T14:54:06.966Z</time></trkpt><trkpt lat="44.40416234507491" lon="9.886375233771673"><ele>459.0</ele><time>2026-04-03T14:54:07.966Z</time></trkpt><trkpt lat="44.4042394138711" lon="9.886416201704442"><ele>459.0</ele><time>2026-04-03T14:54:08.966Z</time></trkpt><trkpt lat="44.40429837954174" lon="9.886457881159535"><ele>459.0</ele><time>2026-04-03T14:54:09.966Z</time></trkpt><trkpt lat="44.40428726343421" lon="9.886623172442887"><ele>459.0</ele><time>2026-04-03T14:54:11.966Z</time></trkpt><trkpt lat="44.40420548301064" lon="9.886672487285642"><ele>459.0</ele><time>2026-04-03T14:54:12.966Z</time></trkpt><trkpt lat="44.40411314921471" lon="9.886636325514047"><ele>459.0</ele><time>2026-04-03T14:54:13.966Z</time></trkpt><trkpt lat="44.40402299245536" lon="9.886562410726608"><ele>459.0</ele><time>2026-04-03T14:54:14.966Z</time></trkpt><trkpt lat="44.40391411902336" lon="9.886463439424926"><ele>459.0</ele><time>2026-04-03T14:54:15.966Z</time></trkpt><trkpt lat="44.4037955819645" lon="9.886372993908045"><ele>455.25</ele><time>2026-04-03T14:54:16.966Z</time></trkpt><trkpt lat="44.40367299018375" lon="9.886271409330005"><ele>451.5</ele><time>2026-04-03T14:54:17.966Z</time></trkpt><trkpt lat="44.4035426006489" lon="9.886169177618624"><ele>447.75</ele><time>2026-04-03T14:54:18.966Z</time></trkpt><trkpt lat="44.40340321681356" lon="9.886072113223417"><ele>444.0</ele><time>2026-04-03T14:54:19.966Z</time></trkpt><trkpt lat="44.40326631728918" lon="9.885954254954832"><ele>444.0</ele><time>2026-04-03T14:54:20.966Z</time></trkpt><trkpt lat="44.40314120713962" lon="9.885794706878162"><ele>444.0</ele><time>2026-04-03T14:54:21.966Z</time></trkpt><trkpt lat="44.403018228059224" lon="9.885629122113404"><ele>444.0</ele><time>2026-04-03T14:54:22.966Z</time></trkpt><trkpt lat="44.40288961498649" lon="9.885489193098968"><ele>444.0</ele><time>2026-04-03T14:54:23.966Z</time></trkpt><trkpt lat="44.40273039738384" lon="9.885384210563885"><ele>444.0</ele><time>2026-04-03T14:54:24.966Z</time></trkpt><trkpt lat="44.4025568287325" lon="9.885309930921707"><ele>444.0</ele><time>2026-04-03T14:54:25.966Z</time></trkpt><trkpt lat="44.402363710458374" lon="9.885271629575106"><ele>444.0</ele><time>2026-04-03T14:54:26.966Z</time></trkpt><trkpt lat="44.40217563072024" lon="9.885241206472589"><ele>444.0</ele><time>2026-04-03T14:54:27.966Z</time></trkpt><trkpt lat="44.40197898916073" lon="9.885203263599461"><ele>444.0</ele><time>2026-04-03T14:54:28.966Z</time></trkpt><trkpt lat="44.40178885543295" lon="9.885159977250183"><ele>445.33333333333337</ele><time>2026-04-03T14:54:29.966Z</time></trkpt><trkpt lat="44.40160593396759" lon="9.885104237287994"><ele>446.6666666666667</ele><time>2026-04-03T14:54:30.966Z</time></trkpt><trkpt lat="44.401426412629355" lon="9.885041738500457"><ele>448.0</ele><time>2026-04-03T14:54:31.966Z</time></trkpt><trkpt lat="44.40124618093833" lon="9.884973874795092"><ele>439.6666666666667</ele><time>2026-04-03T14:54:32.966Z</time></trkpt><trkpt lat="44.401078691991856" lon="9.884898160959775"><ele>431.33333333333337</ele><time>2026-04-03T14:54:33.966Z</time></trkpt><trkpt lat="44.400920421093765" lon="9.884809466943462"><ele>423.0</ele><time>2026-04-03T14:54:34.966Z</time></trkpt><trkpt lat="44.40077485701053" lon="9.884693197511574"><ele>423.0</ele><time>2026-04-03T14:54:35.966Z</time></trkpt><trkpt lat="44.400636708039194" lon="9.884535492194022"><ele>423.0</ele><time>2026-04-03T14:54:36.966Z</time></trkpt><trkpt lat="44.40049684116054" lon="9.884376563331799"><ele>423.0</ele><time>2026-04-03T14:54:37.965Z</time></trkpt><trkpt lat="44.400342684106" lon="9.884267548818597"><ele>423.33333333333337</ele><time>2026-04-03T14:54:38.965Z</time></trkpt><trkpt lat="44.400181859763876" lon="9.884198795293676"><ele>423.6666666666667</ele><time>2026-04-03T14:54:39.965Z</time></trkpt><trkpt lat="44.40002483215312" lon="9.884108535774779"><ele>424.0</ele><time>2026-04-03T14:54:40.965Z</time></trkpt><trkpt lat="44.39987651092983" lon="9.883967525258651"><ele>424.0</ele><time>2026-04-03T14:54:41.965Z</time></trkpt><trkpt lat="44.39973611508815" lon="9.883796104551527"><ele>424.0</ele><time>2026-04-03T14:54:42.965Z</time></trkpt><trkpt lat="44.39961498570266" lon="9.883651786972235"><ele>424.0</ele><time>2026-04-03T14:54:43.965Z</time></trkpt><trkpt lat="44.39951137393102" lon="9.883533868930003"><ele>421.0</ele><time>2026-04-03T14:54:44.965Z</time></trkpt><trkpt lat="44.39943271423586" lon="9.883435594639648"><ele>418.0</ele><time>2026-04-03T14:54:45.965Z</time></trkpt><trkpt lat="44.39938084781706" lon="9.883303823795309"><ele>415.0</ele><time>2026-04-03T14:54:46.965Z</time></trkpt><trkpt lat="44.399360489676205" lon="9.883130524217632"><ele>412.0</ele><time>2026-04-03T14:54:47.964Z</time></trkpt><trkpt lat="44.39937619659803" lon="9.882935053163163"><ele>412.0</ele><time>2026-04-03T14:54:48.964Z</time></trkpt><trkpt lat="44.39936182820991" lon="9.88278255787172"><ele>412.0</ele><time>2026-04-03T14:54:49.965Z</time></trkpt><trkpt lat="44.39930254097043" lon="9.882639973731836"><ele>412.0</ele><time>2026-04-03T14:54:50.965Z</time></trkpt><trkpt lat="44.39917009186107" lon="9.882540195192108"><ele>412.0</ele><time>2026-04-03T14:54:51.965Z</time></trkpt><trkpt lat="44.39899966667512" lon="9.8824845967304"><ele>414.25</ele><time>2026-04-03T14:54:52.965Z</time></trkpt><trkpt lat="44.39885523919726" lon="9.882427672198856"><ele>416.5</ele><time>2026-04-03T14:54:53.965Z</time></trkpt><trkpt lat="44.39874469352335" lon="9.88234582500614"><ele>418.75</ele><time>2026-04-03T14:54:54.965Z</time></trkpt><trkpt lat="44.39866733778802" lon="9.882190131295165"><ele>421.0</ele><time>2026-04-03T14:54:55.965Z</time></trkpt><trkpt lat="44.39860479961147" lon="9.882005884526293"><ele>416.6666666666667</ele><time>2026-04-03T14:54:56.965Z</time></trkpt><trkpt lat="44.398555964200746" lon="9.881828269759154"><ele>412.33333333333337</ele><time>2026-04-03T14:54:57.965Z</time></trkpt><trkpt lat="44.39852585830898" lon="9.881700266837703"><ele>408.0</ele><time>2026-04-03T14:54:58.965Z</time></trkpt><trkpt lat="44.39847789738673" lon="9.881623899248828"><ele>403.66666666666663</ele><time>2026-04-03T14:54:59.965Z</time></trkpt><trkpt lat="44.39841201855074" lon="9.88162286808169"><ele>399.3333333333333</ele><time>2026-04-03T14:55:00.965Z</time></trkpt><trkpt lat="44.39835757523571" lon="9.881696994753945"><ele>395.0</ele><time>2026-04-03T14:55:01.965Z</time></trkpt><trkpt lat="44.39834666761406" lon="9.88185425240863"><ele>394.0</ele><time>2026-04-03T14:55:02.965Z</time></trkpt><trkpt lat="44.398398477113375" lon="9.88201665264019"><ele>393.0</ele><time>2026-04-03T14:55:03.965Z</time></trkpt><trkpt lat="44.39845504984912" lon="9.882180826571055"><ele>392.0</ele><time>2026-04-03T14:55:04.965Z</time></trkpt><trkpt lat="44.398521938417126" lon="9.8823560581055"><ele>391.0</ele><time>2026-04-03T14:55:05.965Z</time></trkpt><trkpt lat="44.39860578033453" lon="9.88252768463424"><ele>387.33333333333337</ele><time>2026-04-03T14:55:06.965Z</time></trkpt><trkpt lat="44.39870379551213" lon="9.882691381911833"><ele>383.6666666666667</ele><time>2026-04-03T14:55:07.965Z</time></trkpt><trkpt lat="44.398772354837" lon="9.88288294468559"><ele>380.0</ele><time>2026-04-03T14:55:08.965Z</time></trkpt><trkpt lat="44.398793314122685" lon="9.883120334066339"><ele>380.0</ele><time>2026-04-03T14:55:09.965Z</time></trkpt><trkpt lat="44.39878863247988" lon="9.883365266630769"><ele>380.0</ele><time>2026-04-03T14:55:10.965Z</time></trkpt><trkpt lat="44.39877400191724" lon="9.883584346541742"><ele>380.0</ele><time>2026-04-03T14:55:11.965Z</time></trkpt><trkpt lat="44.39879582598776" lon="9.883775323397282"><ele>379.33333333333337</ele><time>2026-04-03T14:55:12.965Z</time></trkpt><trkpt lat="44.39886101324621" lon="9.883968027932463"><ele>378.6666666666667</ele><time>2026-04-03T14:55:13.965Z</time></trkpt><trkpt lat="44.39896396833422" lon="9.884151098708072"><ele>378.0</ele><time>2026-04-03T14:55:14.965Z</time></trkpt><trkpt lat="44.39909884862668" lon="9.884313392358296"><ele>378.0</ele><time>2026-04-03T14:55:15.965Z</time></trkpt><trkpt lat="44.39923480479728" lon="9.88448742332169"><ele>378.0</ele><time>2026-04-03T14:55:16.965Z</time></trkpt><trkpt lat="44.39935358698329" lon="9.884728193267344"><ele>378.0</ele><time>2026-04-03T14:55:17.965Z</time></trkpt><trkpt lat="44.39944633161958" lon="9.884954949051348"><ele>376.75</ele><time>2026-04-03T14:55:18.965Z</time></trkpt><trkpt lat="44.399525621853776" lon="9.885146010877365"><ele>375.5</ele><time>2026-04-03T14:55:19.965Z</time></trkpt><trkpt lat="44.39959631926022" lon="9.88528781535186"><ele>374.25</ele><time>2026-04-03T14:55:20.965Z</time></trkpt><trkpt lat="44.39968116351815" lon="9.885380083860122"><ele>373.0</ele><time>2026-04-03T14:55:21.965Z</time></trkpt><trkpt lat="44.39981048291571" lon="9.885455547557237"><ele>373.0</ele><time>2026-04-03T14:55:22.965Z</time></trkpt><trkpt lat="44.399959492932204" lon="9.885498907899494"><ele>373.0</ele><time>2026-04-03T14:55:23.965Z</time></trkpt><trkpt lat="44.40012277247225" lon="9.885587148436288"><ele>373.0</ele><time>2026-04-03T14:55:24.965Z</time></trkpt><trkpt lat="44.4002617561998" lon="9.885719281974612"><ele>373.0</ele><time>2026-04-03T14:55:25.965Z</time></trkpt><trkpt lat="44.40037848871903" lon="9.885884699131765"><ele>373.0</ele><time>2026-04-03T14:55:26.965Z</time></trkpt><trkpt lat="44.40047905759244" lon="9.88608086107301"><ele>373.0</ele><time>2026-04-03T14:55:27.965Z</time></trkpt><trkpt lat="44.4005648060667" lon="9.886289794061058"><ele>375.3333333333333</ele><time>2026-04-03T14:55:28.965Z</time></trkpt><trkpt lat="44.400620520673876" lon="9.886502763255935"><ele>377.6666666666667</ele><time>2026-04-03T14:55:29.965Z</time></trkpt><trkpt lat="44.40065965005566" lon="9.886734044484502"><ele>380.0</ele><time>2026-04-03T14:55:30.965Z</time></trkpt><trkpt lat="44.4006807667019" lon="9.886976479005886"><ele>376.5</ele><time>2026-04-03T14:55:31.965Z</time></trkpt><trkpt lat="44.40068714371935" lon="9.88718206837618"><ele>373.0</ele><time>2026-04-03T14:55:32.965Z</time></trkpt><trkpt lat="44.40069846360375" lon="9.887343757316794"><ele>369.5</ele><time>2026-04-03T14:55:33.965Z</time></trkpt><trkpt lat="44.40075070146125" lon="9.88748900204556"><ele>366.0</ele><time>2026-04-03T14:55:34.965Z</time></trkpt><trkpt lat="44.4008691384263" lon="9.887627731047013"><ele>361.25</ele><time>2026-04-03T14:55:35.965Z</time></trkpt><trkpt lat="44.400994846493305" lon="9.887734886368234"><ele>356.5</ele><time>2026-04-03T14:55:36.965Z</time></trkpt><trkpt lat="44.40113585138393" lon="9.887845813069362"><ele>351.75</ele><time>2026-04-03T14:55:37.965Z</time></trkpt><trkpt lat="44.40123390150506" lon="9.887956101272911"><ele>347.0</ele><time>2026-04-03T14:55:38.965Z</time></trkpt><trkpt lat="44.40130077041605" lon="9.88804507415078"><ele>347.0</ele><time>2026-04-03T14:55:39.965Z</time></trkpt><trkpt lat="44.40135168418977" lon="9.888111239673371"><ele>347.0</ele><time>2026-04-03T14:55:40.965Z</time></trkpt><trkpt lat="44.40134614505469" lon="9.888246105466644"><ele>347.0</ele><time>2026-04-03T14:55:42.965Z</time></trkpt><trkpt lat="44.40126494897546" lon="9.888281426395432"><ele>347.0</ele><time>2026-04-03T14:55:43.965Z</time></trkpt><trkpt lat="44.401182382274285" lon="9.88823337594802"><ele>347.0</ele><time>2026-04-03T14:55:44.965Z</time></trkpt><trkpt lat="44.40110263133191" lon="9.888150806318013"><ele>347.0</ele><time>2026-04-03T14:55:45.965Z</time></trkpt><trkpt lat="44.40100741901163" lon="9.88804612768578"><ele>347.0</ele><time>2026-04-03T14:55:46.965Z</time></trkpt><trkpt lat="44.40088999813969" lon="9.887933273347272"><ele>347.0</ele><time>2026-04-03T14:55:47.965Z</time></trkpt><trkpt lat="44.400764450937196" lon="9.887824211529246"><ele>347.0</ele><time>2026-04-03T14:55:48.965Z</time></trkpt><trkpt lat="44.40063338773558" lon="9.887712373973132"><ele>347.0</ele><time>2026-04-03T14:55:49.965Z</time></trkpt><trkpt lat="44.4005119414488" lon="9.887621826348534"><ele>343.5</ele><time>2026-04-03T14:55:50.965Z</time></trkpt><trkpt lat="44.40041035090986" lon="9.887498805809443"><ele>340.0</ele><time>2026-04-03T14:55:51.965Z</time></trkpt><trkpt lat="44.40032809153751" lon="9.887367510878644"><ele>336.5</ele><time>2026-04-03T14:55:52.965Z</time></trkpt><trkpt lat="44.40026442860259" lon="9.887209304478475"><ele>333.0</ele><time>2026-04-03T14:55:53.965Z</time></trkpt><trkpt lat="44.40022142179331" lon="9.887018155600838"><ele>333.0</ele><time>2026-04-03T14:55:54.965Z</time></trkpt><trkpt lat="44.400181669610305" lon="9.886812980674591"><ele>333.0</ele><time>2026-04-03T14:55:55.965Z</time></trkpt><trkpt lat="44.400131979621406" lon="9.886610826862757"><ele>333.0</ele><time>2026-04-03T14:55:56.965Z</time></trkpt><trkpt lat="44.40006320491257" lon="9.886437598205841"><ele>333.0</ele><time>2026-04-03T14:55:57.965Z</time></trkpt><trkpt lat="44.39997256995517" lon="9.886301382749057"><ele>336.25</ele><time>2026-04-03T14:55:58.965Z</time></trkpt><trkpt lat="44.399861551265296" lon="9.886200116088753"><ele>339.5</ele><time>2026-04-03T14:55:59.965Z</time></trkpt><trkpt lat="44.39971804033065" lon="9.886129277064333"><ele>342.75</ele><time>2026-04-03T14:56:00.965Z</time></trkpt><trkpt lat="44.399565810525615" lon="9.88609737138885"><ele>346.0</ele><time>2026-04-03T14:56:01.965Z</time></trkpt><trkpt lat="44.39939653427626" lon="9.886064404408373"><ele>345.75</ele><time>2026-04-03T14:56:02.965Z</time></trkpt><trkpt lat="44.39925186717538" lon="9.886043650367762"><ele>345.5</ele><time>2026-04-03T14:56:03.965Z</time></trkpt><trkpt lat="44.39913783149393" lon="9.885980003953227"><ele>345.25</ele><time>2026-04-03T14:56:04.965Z</time></trkpt><trkpt lat="44.39905610165719" lon="9.885859747153132"><ele>345.0</ele><time>2026-04-03T14:56:05.965Z</time></trkpt><trkpt lat="44.39897827282669" lon="9.8857280321547"><ele>345.0</ele><time>2026-04-03T14:56:06.965Z</time></trkpt><trkpt lat="44.39887218742683" lon="9.885642445033174"><ele>345.0</ele><time>2026-04-03T14:56:07.965Z</time></trkpt><trkpt lat="44.398744216733334" lon="9.885624922470514"><ele>345.0</ele><time>2026-04-03T14:56:08.965Z</time></trkpt><trkpt lat="44.39860126828426" lon="9.885620571913924"><ele>345.0</ele><time>2026-04-03T14:56:09.965Z</time></trkpt><trkpt lat="44.39845911893357" lon="9.885568063647023"><ele>340.75</ele><time>2026-04-03T14:56:10.965Z</time></trkpt><trkpt lat="44.39833178155863" lon="9.885531824932443"><ele>336.5</ele><time>2026-04-03T14:56:11.965Z</time></trkpt><trkpt lat="44.398208298781356" lon="9.885554084190753"><ele>332.25</ele><time>2026-04-03T14:56:12.965Z</time></trkpt><trkpt lat="44.39808470523989" lon="9.885612248340687"><ele>328.0</ele><time>2026-04-03T14:56:13.965Z</time></trkpt><trkpt lat="44.39796581092116" lon="9.885642047640326"><ele>324.25</ele><time>2026-04-03T14:56:14.965Z</time></trkpt><trkpt lat="44.39787413956323" lon="9.885627292069966"><ele>320.5</ele><time>2026-04-03T14:56:15.965Z</time></trkpt><trkpt lat="44.3977842636032" lon="9.885548974203532"><ele>316.75</ele><time>2026-04-03T14:56:16.965Z</time></trkpt><trkpt lat="44.397687178451875" lon="9.885430400279695"><ele>313.0</ele><time>2026-04-03T14:56:17.965Z</time></trkpt><trkpt lat="44.39757923641917" lon="9.885286644120514"><ele>313.0</ele><time>2026-04-03T14:56:18.965Z</time></trkpt><trkpt lat="44.397481834917855" lon="9.88510932384696"><ele>313.0</ele><time>2026-04-03T14:56:19.965Z</time></trkpt><trkpt lat="44.39737851391404" lon="9.88490046331872"><ele>313.0</ele><time>2026-04-03T14:56:20.965Z</time></trkpt><trkpt lat="44.397267958524694" lon="9.884702541845552"><ele>311.3333333333333</ele><time>2026-04-03T14:56:21.965Z</time></trkpt><trkpt lat="44.3971560123104" lon="9.884503238007559"><ele>309.6666666666667</ele><time>2026-04-03T14:56:22.965Z</time></trkpt><trkpt lat="44.39704871537556" lon="9.884306334811406"><ele>308.0</ele><time>2026-04-03T14:56:23.965Z</time></trkpt><trkpt lat="44.39695404662008" lon="9.884103791453262"><ele>308.0</ele><time>2026-04-03T14:56:24.965Z</time></trkpt><trkpt lat="44.39687410964989" lon="9.883892118060134"><ele>308.0</ele><time>2026-04-03T14:56:25.965Z</time></trkpt><trkpt lat="44.39680345197604" lon="9.883672457738975"><ele>308.0</ele><time>2026-04-03T14:56:26.965Z</time></trkpt><trkpt lat="44.39674048103679" lon="9.883457642307583"><ele>310.5</ele><time>2026-04-03T14:56:27.965Z</time></trkpt><trkpt lat="44.39667142225653" lon="9.883273847961364"><ele>313.0</ele><time>2026-04-03T14:56:28.965Z</time></trkpt><trkpt lat="44.39658770315654" lon="9.883127301522988"><ele>315.5</ele><time>2026-04-03T14:56:29.965Z</time></trkpt><trkpt lat="44.39648668155939" lon="9.883015840602258"><ele>318.0</ele><time>2026-04-03T14:56:30.965Z</time></trkpt><trkpt lat="44.396342120051976" lon="9.882915554562972"><ele>310.6666666666667</ele><time>2026-04-03T14:56:31.965Z</time></trkpt><trkpt lat="44.396171869054605" lon="9.882856313485428"><ele>303.33333333333337</ele><time>2026-04-03T14:56:32.965Z</time></trkpt><trkpt lat="44.39599371295849" lon="9.8828076627387"><ele>296.0</ele><time>2026-04-03T14:56:33.965Z</time></trkpt><trkpt lat="44.39580814124553" lon="9.882750709010944"><ele>296.0</ele><time>2026-04-03T14:56:34.965Z</time></trkpt><trkpt lat="44.39561606060502" lon="9.882695729413424"><ele>296.0</ele><time>2026-04-03T14:56:35.965Z</time></trkpt><trkpt lat="44.395433429084285" lon="9.882636006468516"><ele>296.0</ele><time>2026-04-03T14:56:36.965Z</time></trkpt><trkpt lat="44.3952616272139" lon="9.88258630789572"><ele>297.6666666666667</ele><time>2026-04-03T14:56:37.965Z</time></trkpt><trkpt lat="44.39509631102417" lon="9.882550026248941"><ele>299.3333333333333</ele><time>2026-04-03T14:56:38.965Z</time></trkpt><trkpt lat="44.39493273919966" lon="9.882539852514416"><ele>301.0</ele><time>2026-04-03T14:56:39.965Z</time></trkpt><trkpt lat="44.394781110520896" lon="9.88254929074412"><ele>297.0</ele><time>2026-04-03T14:56:40.965Z</time></trkpt><trkpt lat="44.39463625448669" lon="9.88255099564063"><ele>293.0</ele><time>2026-04-03T14:56:41.965Z</time></trkpt><trkpt lat="44.39449783364291" lon="9.88251895668187"><ele>289.0</ele><time>2026-04-03T14:56:42.965Z</time></trkpt><trkpt lat="44.394367795989076" lon="9.882443794858668"><ele>285.0</ele><time>2026-04-03T14:56:43.963Z</time></trkpt><trkpt lat="44.394244225227055" lon="9.882332253590448"><ele>285.0</ele><time>2026-04-03T14:56:44.963Z</time></trkpt><trkpt lat="44.394140297166004" lon="9.88217656452996"><ele>285.0</ele><time>2026-04-03T14:56:45.963Z</time></trkpt><trkpt lat="44.394045067558395" lon="9.882008808611534"><ele>285.0</ele><time>2026-04-03T14:56:46.963Z</time></trkpt><trkpt lat="44.393946707823815" lon="9.881834140918901"><ele>285.0</ele><time>2026-04-03T14:56:47.963Z</time></trkpt><trkpt lat="44.39384418048761" lon="9.881668865686336"><ele>285.0</ele><time>2026-04-03T14:56:48.963Z</time></trkpt><trkpt lat="44.39374614966072" lon="9.881515814837075"><ele>285.0</ele><time>2026-04-03T14:56:49.963Z</time></trkpt><trkpt lat="44.393658246756736" lon="9.881383172422312"><ele>285.0</ele><time>2026-04-03T14:56:50.963Z</time></trkpt><trkpt lat="44.39356735090642" lon="9.881277414541723"><ele>284.75</ele><time>2026-04-03T14:56:51.963Z</time></trkpt><trkpt lat="44.393463715435296" lon="9.881230803439118"><ele>284.5</ele><time>2026-04-03T14:56:52.963Z</time></trkpt><trkpt lat="44.3933438063572" lon="9.881265617358364"><ele>284.25</ele><time>2026-04-03T14:56:53.962Z</time></trkpt><trkpt lat="44.39321995858126" lon="9.881350405373805"><ele>284.0</ele><time>2026-04-03T14:56:54.962Z</time></trkpt><trkpt lat="44.39309607747012" lon="9.88148435756541"><ele>285.33333333333337</ele><time>2026-04-03T14:56:55.963Z</time></trkpt><trkpt lat="44.392963299940455" lon="9.88163883230276"><ele>286.6666666666667</ele><time>2026-04-03T14:56:56.963Z</time></trkpt><trkpt lat="44.39282181468073" lon="9.881784572604978"><ele>288.0</ele><time>2026-04-03T14:56:57.963Z</time></trkpt><trkpt lat="44.39267592726943" lon="9.881931654918091"><ele>288.0</ele><time>2026-04-03T14:56:58.963Z</time></trkpt><trkpt lat="44.3925330809477" lon="9.882068235509875"><ele>288.0</ele><time>2026-04-03T14:56:59.963Z</time></trkpt><trkpt lat="44.392398937524064" lon="9.882194535739176"><ele>288.0</ele><time>2026-04-03T14:57:00.963Z</time></trkpt><trkpt lat="44.39226745940539" lon="9.882324166574831"><ele>289.0</ele><time>2026-04-03T14:57:01.963Z</time></trkpt><trkpt lat="44.39213504783725" lon="9.882458060846488"><ele>290.0</ele><time>2026-04-03T14:57:02.963Z</time></trkpt><trkpt lat="44.392011861050065" lon="9.8825838342466"><ele>291.0</ele><time>2026-04-03T14:57:03.963Z</time></trkpt><trkpt lat="44.39189557702828" lon="9.882713983861931"><ele>288.0</ele><time>2026-04-03T14:57:04.963Z</time></trkpt><trkpt lat="44.3917714135236" lon="9.882836075828337"><ele>285.0</ele><time>2026-04-03T14:57:05.963Z</time></trkpt><trkpt lat="44.39165321771709" lon="9.882958526944618"><ele>282.0</ele><time>2026-04-03T14:57:06.963Z</time></trkpt><trkpt lat="44.39152944053521" lon="9.88308525373386"><ele>282.0</ele><time>2026-04-03T14:57:07.963Z</time></trkpt><trkpt lat="44.391399856252306" lon="9.88321250300601"><ele>282.0</ele><time>2026-04-03T14:57:08.963Z</time></trkpt><trkpt lat="44.39127419196715" lon="9.883354302125309"><ele>282.0</ele><time>2026-04-03T14:57:09.963Z</time></trkpt><trkpt lat="44.39114117212965" lon="9.883490497525298"><ele>280.3333333333333</ele><time>2026-04-03T14:57:10.963Z</time></trkpt><trkpt lat="44.39100538897465" lon="9.88362333515328"><ele>278.66666666666663</ele><time>2026-04-03T14:57:11.963Z</time></trkpt><trkpt lat="44.39087326276124" lon="9.883748598351342"><ele>277.0</ele><time>2026-04-03T14:57:12.963Z</time></trkpt><trkpt lat="44.39073633139123" lon="9.883867749893943"><ele>277.0</ele><time>2026-04-03T14:57:13.963Z</time></trkpt><trkpt lat="44.39059153044295" lon="9.883979585203496"><ele>277.0</ele><time>2026-04-03T14:57:14.963Z</time></trkpt><trkpt lat="44.3904466826489" lon="9.884071717825211"><ele>277.0</ele><time>2026-04-03T14:57:15.963Z</time></trkpt><trkpt lat="44.390296315419064" lon="9.88415571734253"><ele>277.0</ele><time>2026-04-03T14:57:16.963Z</time></trkpt><trkpt lat="44.390142530499155" lon="9.884232335556838"><ele>277.0</ele><time>2026-04-03T14:57:17.963Z</time></trkpt><trkpt lat="44.38998743017034" lon="9.884294942344406"><ele>277.0</ele><time>2026-04-03T14:57:18.963Z</time></trkpt><trkpt lat="44.38982827903524" lon="9.884350274607785"><ele>273.0</ele><time>2026-04-03T14:57:19.963Z</time></trkpt><trkpt lat="44.389665853192426" lon="9.884383336359496"><ele>269.0</ele><time>2026-04-03T14:57:20.963Z</time></trkpt><trkpt lat="44.38950120673321" lon="9.884406999772573"><ele>265.0</ele><time>2026-04-03T14:57:21.963Z</time></trkpt><trkpt lat="44.38934027670483" lon="9.884413148083928"><ele>265.0</ele><time>2026-04-03T14:57:22.963Z</time></trkpt><trkpt lat="44.38917474142715" lon="9.884411313842538"><ele>265.0</ele><time>2026-04-03T14:57:23.963Z</time></trkpt><trkpt lat="44.389007598115235" lon="9.88439638424249"><ele>265.0</ele><time>2026-04-03T14:57:24.963Z</time></trkpt><trkpt lat="44.388828899418264" lon="9.884369412978126"><ele>265.0</ele><time>2026-04-03T14:57:25.963Z</time></trkpt><trkpt lat="44.388630682530675" lon="9.884341850459725"><ele>265.0</ele><time>2026-04-03T14:57:26.963Z</time></trkpt><trkpt lat="44.38842213166351" lon="9.884315295299047"><ele>265.0</ele><time>2026-04-03T14:57:27.963Z</time></trkpt><trkpt lat="44.38820928635998" lon="9.884283521356405"><ele>265.0</ele><time>2026-04-03T14:57:28.963Z</time></trkpt><trkpt lat="44.38799655390992" lon="9.884251047727568"><ele>265.0</ele><time>2026-04-03T14:57:29.963Z</time></trkpt><trkpt lat="44.38779039810267" lon="9.884217179735593"><ele>265.0</ele><time>2026-04-03T14:57:30.963Z</time></trkpt><trkpt lat="44.38759050703899" lon="9.884176611281115"><ele>265.0</ele><time>2026-04-03T14:57:31.963Z</time></trkpt><trkpt lat="44.38739132433968" lon="9.884148020031743"><ele>265.0</ele><time>2026-04-03T14:57:32.963Z</time></trkpt><trkpt lat="44.38719954894208" lon="9.884118240199252"><ele>265.0</ele><time>2026-04-03T14:57:33.963Z</time></trkpt><trkpt lat="44.3870047260819" lon="9.884091378952142"><ele>263.66666666666663</ele><time>2026-04-03T14:57:34.963Z</time></trkpt><trkpt lat="44.38681373855518" lon="9.884067601120522"><ele>262.3333333333333</ele><time>2026-04-03T14:57:35.963Z</time></trkpt><trkpt lat="44.38662473879194" lon="9.884039669928654"><ele>261.0</ele><time>2026-04-03T14:57:36.963Z</time></trkpt><trkpt lat="44.386437462376236" lon="9.884008911348683"><ele>260.0</ele><time>2026-04-03T14:57:37.963Z</time></trkpt><trkpt lat="44.38625341222788" lon="9.883978472025266"><ele>259.0</ele><time>2026-04-03T14:57:38.963Z</time></trkpt><trkpt lat="44.38606834667746" lon="9.88395178896631"><ele>258.0</ele><time>2026-04-03T14:57:39.963Z</time></trkpt><trkpt lat="44.38589097305639" lon="9.883927136182994"><ele>258.0</ele><time>2026-04-03T14:57:40.963Z</time></trkpt><trkpt lat="44.38571957002599" lon="9.883904270909618"><ele>258.0</ele><time>2026-04-03T14:57:41.963Z</time></trkpt><trkpt lat="44.38554919119464" lon="9.883880391790619"><ele>258.0</ele><time>2026-04-03T14:57:42.963Z</time></trkpt><trkpt lat="44.38538013848038" lon="9.883860271308883"><ele>257.3333333333333</ele><time>2026-04-03T14:57:43.963Z</time></trkpt><trkpt lat="44.38521381349117" lon="9.883833809553058"><ele>256.66666666666663</ele><time>2026-04-03T14:57:44.963Z</time></trkpt><trkpt lat="44.3850439284006" lon="9.883808423778607"><ele>256.0</ele><time>2026-04-03T14:57:45.963Z</time></trkpt><trkpt lat="44.38487331323132" lon="9.883786752246472"><ele>256.0</ele><time>2026-04-03T14:57:46.963Z</time></trkpt><trkpt lat="44.38469841443798" lon="9.883769319679487"><ele>256.0</ele><time>2026-04-03T14:57:47.963Z</time></trkpt><trkpt lat="44.38452512880435" lon="9.883751337667846"><ele>256.0</ele><time>2026-04-03T14:57:48.963Z</time></trkpt><trkpt lat="44.38435308174729" lon="9.883736919590518"><ele>255.0</ele><time>2026-04-03T14:57:49.963Z</time></trkpt><trkpt lat="44.38418047309976" lon="9.883723052903338"><ele>254.0</ele><time>2026-04-03T14:57:50.963Z</time></trkpt><trkpt lat="44.38400729712684" lon="9.883718242830131"><ele>253.0</ele><time>2026-04-03T14:57:51.963Z</time></trkpt><trkpt lat="44.38383543152809" lon="9.883726329520508"><ele>251.66666666666666</ele><time>2026-04-03T14:57:52.963Z</time></trkpt><trkpt lat="44.38366297080117" lon="9.883737084043556"><ele>250.33333333333331</ele><time>2026-04-03T14:57:53.963Z</time></trkpt><trkpt lat="44.383492584940434" lon="9.883750588022268"><ele>249.0</ele><time>2026-04-03T14:57:54.963Z</time></trkpt><trkpt lat="44.38333028644111" lon="9.883776291320007"><ele>249.0</ele><time>2026-04-03T14:57:55.963Z</time></trkpt><trkpt lat="44.38317231649141" lon="9.883795340743006"><ele>249.0</ele><time>2026-04-03T14:57:56.963Z</time></trkpt><trkpt lat="44.383024218905206" lon="9.883807041955038"><ele>249.0</ele><time>2026-04-03T14:57:57.963Z</time></trkpt><trkpt lat="44.382884935272315" lon="9.883808400495516"><ele>249.0</ele><time>2026-04-03T14:57:58.963Z</time></trkpt><trkpt lat="44.38274273441854" lon="9.883840021364088"><ele>249.0</ele><time>2026-04-03T14:57:59.963Z</time></trkpt><trkpt lat="44.382619680080765" lon="9.883925956644758"><ele>249.0</ele><time>2026-04-03T14:58:00.963Z</time></trkpt><trkpt lat="44.382504183144576" lon="9.884067831739465"><ele>249.0</ele><time>2026-04-03T14:58:01.963Z</time></trkpt><trkpt lat="44.38238982379513" lon="9.884208277503818"><ele>249.0</ele><time>2026-04-03T14:58:02.963Z</time></trkpt><trkpt lat="44.38227689112804" lon="9.884330515008283"><ele>251.75</ele><time>2026-04-03T14:58:03.963Z</time></trkpt><trkpt lat="44.38216520003931" lon="9.884441637734785"><ele>254.5</ele><time>2026-04-03T14:58:04.963Z</time></trkpt><trkpt lat="44.3820537870899" lon="9.884548962769836"><ele>257.25</ele><time>2026-04-03T14:58:05.963Z</time></trkpt><trkpt lat="44.38193689577381" lon="9.884632950263846"><ele>260.0</ele><time>2026-04-03T14:58:06.963Z</time></trkpt><trkpt lat="44.381807324187555" lon="9.884693432804383"><ele>260.0</ele><time>2026-04-03T14:58:07.963Z</time></trkpt><trkpt lat="44.381671287902314" lon="9.884722611236972"><ele>260.0</ele><time>2026-04-03T14:58:08.963Z</time></trkpt><trkpt lat="44.38153069755452" lon="9.884735794319615"><ele>260.0</ele><time>2026-04-03T14:58:09.963Z</time></trkpt><trkpt lat="44.381400876433446" lon="9.884729379004748"><ele>260.0</ele><time>2026-04-03T14:58:10.963Z</time></trkpt><trkpt lat="44.3812810575619" lon="9.884707168763205"><ele>261.0</ele><time>2026-04-03T14:58:11.963Z</time></trkpt><trkpt lat="44.38115793745026" lon="9.88468811023864"><ele>262.0</ele><time>2026-04-03T14:58:12.963Z</time></trkpt><trkpt lat="44.38103519857247" lon="9.88466087152721"><ele>263.0</ele><time>2026-04-03T14:58:13.963Z</time></trkpt><trkpt lat="44.38091594939762" lon="9.884634241745132"><ele>264.0</ele><time>2026-04-03T14:58:14.963Z</time></trkpt><trkpt lat="44.38080091969226" lon="9.884604264333634"><ele>264.0</ele><time>2026-04-03T14:58:15.963Z</time></trkpt><trkpt lat="44.38068371886118" lon="9.884581141006821"><ele>264.0</ele><time>2026-04-03T14:58:16.963Z</time></trkpt><trkpt lat="44.38053171911018" lon="9.884524418268734"><ele>264.0</ele><time>2026-04-03T14:58:17.963Z</time></trkpt><trkpt lat="44.379552882347085" lon="9.88422366220277"><ele>262.1666666666667</ele><time>2026-04-03T14:58:29.963Z</time></trkpt><trkpt lat="44.37948602346073" lon="9.884280004500793"><ele>260.3333333333333</ele><time>2026-04-03T14:58:30.963Z</time></trkpt><trkpt lat="44.37939072486761" lon="9.884229917230629"><ele>258.5</ele><time>2026-04-03T14:58:31.963Z</time></trkpt><trkpt lat="44.37930860427127" lon="9.884234695228201"><ele>256.66666666666663</ele><time>2026-04-03T14:58:32.963Z</time></trkpt><trkpt lat="44.379233053843876" lon="9.884263592414074"><ele>254.83333333333331</ele><time>2026-04-03T14:58:33.963Z</time></trkpt><trkpt lat="44.37915141670147" lon="9.884308217881987"><ele>253.0</ele><time>2026-04-03T14:58:34.963Z</time></trkpt><trkpt lat="44.37904819618411" lon="9.884364850321106"><ele>253.0</ele><time>2026-04-03T14:58:35.963Z</time></trkpt><trkpt lat="44.37892027604179" lon="9.88440767094536"><ele>253.0</ele><time>2026-04-03T14:58:36.963Z</time></trkpt><trkpt lat="44.378766993397235" lon="9.884490834757493"><ele>253.0</ele><time>2026-04-03T14:58:37.963Z</time></trkpt><trkpt lat="44.37860216432827" lon="9.884572927669002"><ele>251.33333333333331</ele><time>2026-04-03T14:58:38.963Z</time></trkpt><trkpt lat="44.37843518098791" lon="9.884643868607576"><ele>249.66666666666669</ele><time>2026-04-03T14:58:39.963Z</time></trkpt><trkpt lat="44.37827312921971" lon="9.884706678013917"><ele>248.0</ele><time>2026-04-03T14:58:40.963Z</time></trkpt><trkpt lat="44.37811272937571" lon="9.884770707989412"><ele>246.66666666666669</ele><time>2026-04-03T14:58:41.963Z</time></trkpt><trkpt lat="44.37795172705969" lon="9.884838565261909"><ele>245.33333333333331</ele><time>2026-04-03T14:58:42.963Z</time></trkpt><trkpt lat="44.37779369650006" lon="9.884895041965233"><ele>244.0</ele><time>2026-04-03T14:58:43.963Z</time></trkpt><trkpt lat="44.37763739554511" lon="9.88495562617238"><ele>244.0</ele><time>2026-04-03T14:58:44.963Z</time></trkpt><trkpt lat="44.37748326248311" lon="9.885020357171863"><ele>244.0</ele><time>2026-04-03T14:58:45.963Z</time></trkpt><trkpt lat="44.37733019134813" lon="9.885077702155161"><ele>244.0</ele><time>2026-04-03T14:58:46.963Z</time></trkpt><trkpt lat="44.377181664724276" lon="9.88511971791586"><ele>246.5</ele><time>2026-04-03T14:58:47.963Z</time></trkpt><trkpt lat="44.37704470362876" lon="9.885146193990085"><ele>249.0</ele><time>2026-04-03T14:58:48.963Z</time></trkpt><trkpt lat="44.37691506900427" lon="9.885161951849481"><ele>251.5</ele><time>2026-04-03T14:58:49.961Z</time></trkpt><trkpt lat="44.37679579744209" lon="9.885193587459796"><ele>254.0</ele><time>2026-04-03T14:58:50.962Z</time></trkpt><trkpt lat="44.37667992817865" lon="9.885242989545356"><ele>254.0</ele><time>2026-04-03T14:58:51.962Z</time></trkpt><trkpt lat="44.37656431464383" lon="9.885293252351492"><ele>254.0</ele><time>2026-04-03T14:58:52.961Z</time></trkpt><trkpt lat="44.37645884275852" lon="9.885352918940415"><ele>254.0</ele><time>2026-04-03T14:58:53.961Z</time></trkpt><trkpt lat="44.37635270826898" lon="9.885414283342861"><ele>254.0</ele><time>2026-04-03T14:58:54.961Z</time></trkpt><trkpt lat="44.37625158802669" lon="9.885476884743493"><ele>252.0</ele><time>2026-04-03T14:58:55.961Z</time></trkpt><trkpt lat="44.37616109517486" lon="9.885520397617974"><ele>249.99999999999997</ele><time>2026-04-03T14:58:56.961Z</time></trkpt><trkpt lat="44.37607919558251" lon="9.885556408877124"><ele>247.99999999999997</ele><time>2026-04-03T14:58:57.961Z</time></trkpt><trkpt lat="44.37599053998083" lon="9.885613186492137"><ele>246.0</ele><time>2026-04-03T14:58:58.961Z</time></trkpt><trkpt lat="44.37590217837414" lon="9.885678183208926"><ele>244.0</ele><time>2026-04-03T14:58:59.961Z</time></trkpt><trkpt lat="44.37582030386918" lon="9.885731966490146"><ele>243.99999999999997</ele><time>2026-04-03T14:59:00.961Z</time></trkpt><trkpt lat="44.37573981304928" lon="9.885791684189654"><ele>244.0</ele><time>2026-04-03T14:59:01.961Z</time></trkpt><trkpt lat="44.37566740317035" lon="9.885850488439358"><ele>244.0</ele><time>2026-04-03T14:59:02.961Z</time></trkpt><trkpt lat="44.37559828753315" lon="9.885909545358235"><ele>244.0</ele><time>2026-04-03T14:59:03.961Z</time></trkpt><trkpt lat="44.37553113948511" lon="9.88596579279087"><ele>243.99999999999997</ele><time>2026-04-03T14:59:04.961Z</time></trkpt><trkpt lat="44.37545908844557" lon="9.886034104979057"><ele>244.0</ele><time>2026-04-03T14:59:05.961Z</time></trkpt><trkpt lat="44.37538023668131" lon="9.886104036913132"><ele>243.0</ele><time>2026-04-03T14:59:06.961Z</time></trkpt><trkpt lat="44.375293644122344" lon="9.886181409983825"><ele>241.99999999999997</ele><time>2026-04-03T14:59:07.961Z</time></trkpt><trkpt lat="44.375202526667444" lon="9.886254258897845"><ele>240.99999999999997</ele><time>2026-04-03T14:59:08.961Z</time></trkpt><trkpt lat="44.37510632076529" lon="9.886315851485877"><ele>240.0</ele><time>2026-04-03T14:59:09.961Z</time></trkpt><trkpt lat="44.37500419084067" lon="9.88636002636752"><ele>239.0</ele><time>2026-04-03T14:59:10.961Z</time></trkpt><trkpt lat="44.37490352623893" lon="9.886399212213457"><ele>239.0</ele><time>2026-04-03T14:59:11.961Z</time></trkpt><trkpt lat="44.374809863336424" lon="9.886436214119685"><ele>238.99999999999997</ele><time>2026-04-03T14:59:12.961Z</time></trkpt><trkpt lat="44.37472654550219" lon="9.88646182902171"><ele>238.99999999999997</ele><time>2026-04-03T14:59:13.961Z</time></trkpt><trkpt lat="44.37463830158603" lon="9.886472395119926"><ele>239.0</ele><time>2026-04-03T14:59:14.961Z</time></trkpt><trkpt lat="44.37454138890357" lon="9.886509360267212"><ele>239.0</ele><time>2026-04-03T14:59:15.961Z</time></trkpt><trkpt lat="44.374440960177346" lon="9.886555903726896"><ele>238.0</ele><time>2026-04-03T14:59:16.961Z</time></trkpt><trkpt lat="44.37433567457666" lon="9.886582927875645"><ele>237.0</ele><time>2026-04-03T14:59:17.961Z</time></trkpt><trkpt lat="44.374203499498414" lon="9.886621739880052"><ele>236.0</ele><time>2026-04-03T14:59:18.961Z</time></trkpt><trkpt lat="44.37405475253368" lon="9.886667443395156"><ele>235.0</ele><time>2026-04-03T14:59:19.961Z</time></trkpt><trkpt lat="44.37389968504924" lon="9.886700096214835"><ele>234.75</ele><time>2026-04-03T14:59:20.961Z</time></trkpt><trkpt lat="44.37375181800603" lon="9.886734369738951"><ele>234.5</ele><time>2026-04-03T14:59:21.961Z</time></trkpt><trkpt lat="44.3736077202555" lon="9.886770761585437"><ele>234.25</ele><time>2026-04-03T14:59:22.961Z</time></trkpt><trkpt lat="44.37346760852801" lon="9.886802856794258"><ele>234.0</ele><time>2026-04-03T14:59:23.961Z</time></trkpt><trkpt lat="44.373339492575525" lon="9.88683754083854"><ele>234.2</ele><time>2026-04-03T14:59:24.961Z</time></trkpt><trkpt lat="44.373221074832564" lon="9.886867391234551"><ele>234.39999999999998</ele><time>2026-04-03T14:59:25.961Z</time></trkpt><trkpt lat="44.37311036247629" lon="9.88689860770339"><ele>234.6</ele><time>2026-04-03T14:59:26.961Z</time></trkpt><trkpt lat="44.373010560724765" lon="9.886923147209318"><ele>234.8</ele><time>2026-04-03T14:59:27.961Z</time></trkpt><trkpt lat="44.37292040640368" lon="9.886947185708275"><ele>235.0</ele><time>2026-04-03T14:59:28.961Z</time></trkpt><trkpt lat="44.37283006640419" lon="9.88697335273677"><ele>235.0</ele><time>2026-04-03T14:59:29.961Z</time></trkpt><trkpt lat="44.37273799468771" lon="9.88699841222247"><ele>235.0</ele><time>2026-04-03T14:59:30.961Z</time></trkpt><trkpt lat="44.372643052310096" lon="9.887034459957132"><ele>235.0</ele><time>2026-04-03T14:59:31.961Z</time></trkpt><trkpt lat="44.37254168194785" lon="9.887072198766075"><ele>235.0</ele><time>2026-04-03T14:59:32.961Z</time></trkpt><trkpt lat="44.37243208047378" lon="9.887105773164857"><ele>235.0</ele><time>2026-04-03T14:59:33.961Z</time></trkpt><trkpt lat="44.372325459749455" lon="9.887131709577313"><ele>235.0</ele><time>2026-04-03T14:59:34.961Z</time></trkpt><trkpt lat="44.37222168423693" lon="9.887164089770602"><ele>235.0</ele><time>2026-04-03T14:59:35.961Z</time></trkpt><trkpt lat="44.37210088347163" lon="9.887196059002939"><ele>235.0</ele><time>2026-04-03T14:59:36.961Z</time></trkpt><trkpt lat="44.37196358499242" lon="9.88722878225774"><ele>235.0</ele><time>2026-04-03T14:59:37.961Z</time></trkpt><trkpt lat="44.37181301019622" lon="9.887242406001242"><ele>234.75</ele><time>2026-04-03T14:59:38.961Z</time></trkpt><trkpt lat="44.37166841855314" lon="9.88724865013239"><ele>234.5</ele><time>2026-04-03T14:59:39.961Z</time></trkpt><trkpt lat="44.371531346388736" lon="9.887253223460979"><ele>234.25</ele><time>2026-04-03T14:59:40.961Z</time></trkpt><trkpt lat="44.37140398293966" lon="9.887240797125497"><ele>234.0</ele><time>2026-04-03T14:59:41.961Z</time></trkpt><trkpt lat="44.37128644807174" lon="9.887219476940528"><ele>233.6</ele><time>2026-04-03T14:59:42.961Z</time></trkpt><trkpt lat="44.37118057198288" lon="9.887192102642873"><ele>233.2</ele><time>2026-04-03T14:59:43.961Z</time></trkpt><trkpt lat="44.37108480929152" lon="9.887165544242206"><ele>232.79999999999998</ele><time>2026-04-03T14:59:44.961Z</time></trkpt><trkpt lat="44.3709854891883" lon="9.887136096204928"><ele>232.39999999999998</ele><time>2026-04-03T14:59:45.961Z</time></trkpt><trkpt lat="44.37089018475719" lon="9.887097403260832"><ele>232.0</ele><time>2026-04-03T14:59:46.961Z</time></trkpt><trkpt lat="44.370805478728265" lon="9.887047650781296"><ele>232.0</ele><time>2026-04-03T14:59:47.961Z</time></trkpt><trkpt lat="44.37071083626549" lon="9.886994047751898"><ele>232.0</ele><time>2026-04-03T14:59:48.961Z</time></trkpt><trkpt lat="44.370618824132436" lon="9.886936101820131"><ele>232.0</ele><time>2026-04-03T14:59:49.961Z</time></trkpt><trkpt lat="44.370534622337935" lon="9.886886544777589"><ele>232.0</ele><time>2026-04-03T14:59:50.961Z</time></trkpt><trkpt lat="44.37045596200169" lon="9.886838516667384"><ele>232.0</ele><time>2026-04-03T14:59:51.961Z</time></trkpt><trkpt lat="44.37037474674064" lon="9.88677584798392"><ele>231.8</ele><time>2026-04-03T14:59:52.961Z</time></trkpt><trkpt lat="44.37029115783193" lon="9.88671375313939"><ele>231.6</ele><time>2026-04-03T14:59:53.961Z</time></trkpt><trkpt lat="44.37021006566018" lon="9.886659785904682"><ele>231.40000000000003</ele><time>2026-04-03T14:59:54.961Z</time></trkpt><trkpt lat="44.370125879283556" lon="9.886589615768786"><ele>231.20000000000002</ele><time>2026-04-03T14:59:55.961Z</time></trkpt><trkpt lat="44.37004066921731" lon="9.8865230367046"><ele>231.0</ele><time>2026-04-03T14:59:56.961Z</time></trkpt><trkpt lat="44.369961135572915" lon="9.886454469394096"><ele>231.0</ele><time>2026-04-03T14:59:57.961Z</time></trkpt><trkpt lat="44.36987707375051" lon="9.88638439297694"><ele>231.0</ele><time>2026-04-03T14:59:58.961Z</time></trkpt><trkpt lat="44.369791508413826" lon="9.88630882329833"><ele>231.0</ele><time>2026-04-03T14:59:59.961Z</time></trkpt><trkpt lat="44.36968680878516" lon="9.886233269615119"><ele>231.0</ele><time>2026-04-03T15:00:00.961Z</time></trkpt><trkpt lat="44.36952350235846" lon="9.886130072331497"><ele>231.0</ele><time>2026-04-03T15:00:01.961Z</time></trkpt><trkpt lat="44.369360248568434" lon="9.886001957090743"><ele>231.0</ele><time>2026-04-03T15:00:02.961Z</time></trkpt><trkpt lat="44.369196533715645" lon="9.885893773886664"><ele>231.0</ele><time>2026-04-03T15:00:03.961Z</time></trkpt><trkpt lat="44.36906748664094" lon="9.885796486475702"><ele>230.8</ele><time>2026-04-03T15:00:04.961Z</time></trkpt><trkpt lat="44.36895525190267" lon="9.885722264022936"><ele>230.60000000000002</ele><time>2026-04-03T15:00:05.961Z</time></trkpt><trkpt lat="44.36885865823271" lon="9.88565509403741"><ele>230.4</ele><time>2026-04-03T15:00:06.961Z</time></trkpt><trkpt lat="44.36878361770265" lon="9.885603635957906"><ele>230.2</ele><time>2026-04-03T15:00:07.961Z</time></trkpt><trkpt lat="44.36871355808132" lon="9.885552170145255"><ele>230.0</ele><time>2026-04-03T15:00:08.961Z</time></trkpt><trkpt lat="44.368632323184244" lon="9.88551213974464"><ele>230.0</ele><time>2026-04-03T15:00:09.961Z</time></trkpt><trkpt lat="44.36852147600025" lon="9.885453903330793"><ele>230.0</ele><time>2026-04-03T15:00:10.961Z</time></trkpt><trkpt lat="44.36839503499957" lon="9.885379419642982"><ele>230.0</ele><time>2026-04-03T15:00:11.961Z</time></trkpt><trkpt lat="44.36825627334703" lon="9.885306452494705"><ele>230.0</ele><time>2026-04-03T15:00:12.961Z</time></trkpt><trkpt lat="44.36810892102473" lon="9.885248648646234"><ele>230.33333333333334</ele><time>2026-04-03T15:00:13.961Z</time></trkpt><trkpt lat="44.36795474142979" lon="9.885214739005198"><ele>230.66666666666669</ele><time>2026-04-03T15:00:14.961Z</time></trkpt><trkpt lat="44.36779449046428" lon="9.885200170431377"><ele>231.0</ele><time>2026-04-03T15:00:15.961Z</time></trkpt><trkpt lat="44.36762329471206" lon="9.885198800841126"><ele>231.0</ele><time>2026-04-03T15:00:16.961Z</time></trkpt><trkpt lat="44.367442226749674" lon="9.885203163206606"><ele>231.0</ele><time>2026-04-03T15:00:17.961Z</time></trkpt><trkpt lat="44.367261733260804" lon="9.885204103774003"><ele>231.0</ele><time>2026-04-03T15:00:18.961Z</time></trkpt><trkpt lat="44.36707460800715" lon="9.885198165936185"><ele>236.0</ele><time>2026-04-03T15:00:19.961Z</time></trkpt><trkpt lat="44.366883309860995" lon="9.885192816034259"><ele>241.0</ele><time>2026-04-03T15:00:20.961Z</time></trkpt><trkpt lat="44.36669258522698" lon="9.885190937271506"><ele>246.0</ele><time>2026-04-03T15:00:21.961Z</time></trkpt><trkpt lat="44.36649930845082" lon="9.885191213553084"><ele>251.33333333333331</ele><time>2026-04-03T15:00:22.961Z</time></trkpt><trkpt lat="44.36631143115241" lon="9.885188570341084"><ele>256.66666666666663</ele><time>2026-04-03T15:00:23.961Z</time></trkpt><trkpt lat="44.366127585450535" lon="9.885172651059516"><ele>262.0</ele><time>2026-04-03T15:00:24.961Z</time></trkpt><trkpt lat="44.365947937066615" lon="9.885144542189993"><ele>262.0</ele><time>2026-04-03T15:00:25.961Z</time></trkpt><trkpt lat="44.36577598016808" lon="9.885112185899592"><ele>262.0</ele><time>2026-04-03T15:00:26.961Z</time></trkpt><trkpt lat="44.36561555020197" lon="9.885073783909323"><ele>262.0</ele><time>2026-04-03T15:00:27.961Z</time></trkpt><trkpt lat="44.365464286500874" lon="9.88504445221642"><ele>249.0</ele><time>2026-04-03T15:00:28.961Z</time></trkpt><trkpt lat="44.36531293841587" lon="9.885020985105436"><ele>236.0</ele><time>2026-04-03T15:00:29.961Z</time></trkpt><trkpt lat="44.3651553179339" lon="9.885016857262132"><ele>223.0</ele><time>2026-04-03T15:00:30.961Z</time></trkpt><trkpt lat="44.36500658130039" lon="9.885035040860085"><ele>223.0</ele><time>2026-04-03T15:00:31.961Z</time></trkpt><trkpt lat="44.36486345791374" lon="9.885073363917568"><ele>223.0</ele><time>2026-04-03T15:00:32.961Z</time></trkpt><trkpt lat="44.364713351495894" lon="9.885121059814796"><ele>223.0</ele><time>2026-04-03T15:00:33.961Z</time></trkpt><trkpt lat="44.364582876844345" lon="9.885216565319087"><ele>223.0</ele><time>2026-04-03T15:00:34.961Z</time></trkpt><trkpt lat="44.36445568457708" lon="9.885344752205034"><ele>223.33333333333331</ele><time>2026-04-03T15:00:35.961Z</time></trkpt><trkpt lat="44.36433579568219" lon="9.885512164065162"><ele>223.66666666666669</ele><time>2026-04-03T15:00:36.961Z</time></trkpt><trkpt lat="44.364232807465385" lon="9.885708443219666"><ele>224.0</ele><time>2026-04-03T15:00:37.962Z</time></trkpt><trkpt lat="44.36414208911903" lon="9.885895961995052"><ele>226.66666666666669</ele><time>2026-04-03T15:00:38.962Z</time></trkpt><trkpt lat="44.3640466474704" lon="9.8860830547115"><ele>229.33333333333331</ele><time>2026-04-03T15:00:39.962Z</time></trkpt><trkpt lat="44.36396199260126" lon="9.886259998432196"><ele>232.0</ele><time>2026-04-03T15:00:40.962Z</time></trkpt><trkpt lat="44.36388467003722" lon="9.886429543133309"><ele>228.39999999999998</ele><time>2026-04-03T15:00:41.962Z</time></trkpt><trkpt lat="44.36381787501586" lon="9.88656773377343"><ele>224.79999999999998</ele><time>2026-04-03T15:00:42.962Z</time></trkpt><trkpt lat="44.36375817826908" lon="9.886679501180295"><ele>221.2</ele><time>2026-04-03T15:00:43.962Z</time></trkpt><trkpt lat="44.363702842153124" lon="9.886783913456963"><ele>217.6</ele><time>2026-04-03T15:00:44.962Z</time></trkpt><trkpt lat="44.36364795579339" lon="9.886878730636985"><ele>214.0</ele><time>2026-04-03T15:00:45.962Z</time></trkpt><trkpt lat="44.36361181258313" lon="9.886990438886777"><ele>214.0</ele><time>2026-04-03T15:00:46.962Z</time></trkpt><trkpt lat="44.36359523446415" lon="9.88712919806818"><ele>214.0</ele><time>2026-04-03T15:00:47.962Z</time></trkpt><trkpt lat="44.3636031416028" lon="9.887312904009981"><ele>214.0</ele><time>2026-04-03T15:00:48.962Z</time></trkpt><trkpt lat="44.363617081290975" lon="9.887494719467163"><ele>214.0</ele><time>2026-04-03T15:00:49.962Z</time></trkpt><trkpt lat="44.363627876627746" lon="9.887681756060354"><ele>213.25</ele><time>2026-04-03T15:00:50.962Z</time></trkpt><trkpt lat="44.36364564259593" lon="9.887859011496246"><ele>212.5</ele><time>2026-04-03T15:00:51.962Z</time></trkpt><trkpt lat="44.363658587918074" lon="9.888022046946134"><ele>211.75</ele><time>2026-04-03T15:00:52.962Z</time></trkpt><trkpt lat="44.36369407832831" lon="9.888173148844219"><ele>211.0</ele><time>2026-04-03T15:00:53.962Z</time></trkpt><trkpt lat="44.36376025660869" lon="9.88832659784303"><ele>211.0</ele><time>2026-04-03T15:00:54.962Z</time></trkpt><trkpt lat="44.36384889689233" lon="9.888472282441288"><ele>211.0</ele><time>2026-04-03T15:00:55.96Z</time></trkpt><trkpt lat="44.36391801271074" lon="9.888638235100686"><ele>211.0</ele><time>2026-04-03T15:00:56.959Z</time></trkpt><trkpt lat="44.36396519496407" lon="9.888838975259086"><ele>211.0</ele><time>2026-04-03T15:00:57.959Z</time></trkpt><trkpt lat="44.364019958101366" lon="9.889074043026488"><ele>212.33333333333331</ele><time>2026-04-03T15:00:58.959Z</time></trkpt><trkpt lat="44.36408695202866" lon="9.889320899688443"><ele>213.66666666666669</ele><time>2026-04-03T15:00:59.959Z</time></trkpt><trkpt lat="44.36416010125621" lon="9.889586066788397"><ele>215.0</ele><time>2026-04-03T15:01:00.959Z</time></trkpt><trkpt lat="44.364231238540484" lon="9.889862727672652"><ele>214.33333333333334</ele><time>2026-04-03T15:01:01.959Z</time></trkpt><trkpt lat="44.36429472586183" lon="9.890120620590807"><ele>213.66666666666669</ele><time>2026-04-03T15:01:02.959Z</time></trkpt><trkpt lat="44.364339896932464" lon="9.890375389357173"><ele>213.0</ele><time>2026-04-03T15:01:03.959Z</time></trkpt><trkpt lat="44.364361984896874" lon="9.890632823982909"><ele>213.0</ele><time>2026-04-03T15:01:04.959Z</time></trkpt><trkpt lat="44.36436767674171" lon="9.89088896891048"><ele>213.0</ele><time>2026-04-03T15:01:05.959Z</time></trkpt><trkpt lat="44.36437651510953" lon="9.89114996912575"><ele>213.0</ele><time>2026-04-03T15:01:06.959Z</time></trkpt><trkpt lat="44.36439296334661" lon="9.891423356695492"><ele>212.33333333333331</ele><time>2026-04-03T15:01:07.959Z</time></trkpt><trkpt lat="44.364412098739585" lon="9.891711335438796"><ele>211.66666666666666</ele><time>2026-04-03T15:01:08.96Z</time></trkpt><trkpt lat="44.36442698060052" lon="9.891996997918385"><ele>211.0</ele><time>2026-04-03T15:01:09.96Z</time></trkpt><trkpt lat="44.36444296567878" lon="9.892289574682039"><ele>211.0</ele><time>2026-04-03T15:01:10.96Z</time></trkpt><trkpt lat="44.364458413669915" lon="9.89258633729116"><ele>211.0</ele><time>2026-04-03T15:01:11.96Z</time></trkpt><trkpt lat="44.36445575198857" lon="9.89287909385296"><ele>211.0</ele><time>2026-04-03T15:01:12.96Z</time></trkpt><trkpt lat="44.364434799509105" lon="9.893173930059204"><ele>211.33333333333331</ele><time>2026-04-03T15:01:13.96Z</time></trkpt><trkpt lat="44.36440608033487" lon="9.893464292270721"><ele>211.66666666666669</ele><time>2026-04-03T15:01:14.96Z</time></trkpt><trkpt lat="44.36434528208138" lon="9.89375408475961"><ele>212.0</ele><time>2026-04-03T15:01:15.96Z</time></trkpt><trkpt lat="44.36425876115329" lon="9.894029988078357"><ele>213.0</ele><time>2026-04-03T15:01:16.96Z</time></trkpt><trkpt lat="44.36415777751679" lon="9.894297425733296"><ele>214.0</ele><time>2026-04-03T15:01:17.96Z</time></trkpt><trkpt lat="44.36404369527701" lon="9.894556505475954"><ele>215.0</ele><time>2026-04-03T15:01:18.96Z</time></trkpt><trkpt lat="44.363924439081785" lon="9.894808457832188"><ele>212.66666666666669</ele><time>2026-04-03T15:01:19.96Z</time></trkpt><trkpt lat="44.36380959621035" lon="9.89506909713777"><ele>210.33333333333331</ele><time>2026-04-03T15:01:20.96Z</time></trkpt><trkpt lat="44.363693510359106" lon="9.895327460737798"><ele>208.0</ele><time>2026-04-03T15:01:21.96Z</time></trkpt><trkpt lat="44.36358432333925" lon="9.895574572981952"><ele>207.66666666666666</ele><time>2026-04-03T15:01:22.96Z</time></trkpt><trkpt lat="44.36348290110009" lon="9.895799871078168"><ele>207.33333333333331</ele><time>2026-04-03T15:01:23.96Z</time></trkpt><trkpt lat="44.36338218612456" lon="9.896014466808536"><ele>207.0</ele><time>2026-04-03T15:01:24.96Z</time></trkpt><trkpt lat="44.36326259105566" lon="9.896217905700283"><ele>206.33333333333331</ele><time>2026-04-03T15:01:25.96Z</time></trkpt><trkpt lat="44.36311529139033" lon="9.89639156772106"><ele>205.66666666666666</ele><time>2026-04-03T15:01:26.96Z</time></trkpt><trkpt lat="44.36297308699019" lon="9.896537464448613"><ele>205.0</ele><time>2026-04-03T15:01:27.96Z</time></trkpt><trkpt lat="44.36285407959166" lon="9.89666969536287"><ele>206.0</ele><time>2026-04-03T15:01:28.96Z</time></trkpt><trkpt lat="44.362745965494405" lon="9.896794889217702"><ele>207.0</ele><time>2026-04-03T15:01:29.96Z</time></trkpt><trkpt lat="44.36264581771386" lon="9.896921070250515"><ele>208.0</ele><time>2026-04-03T15:01:30.96Z</time></trkpt><trkpt lat="44.36254595585961" lon="9.897041187533036"><ele>209.0</ele><time>2026-04-03T15:01:31.96Z</time></trkpt><trkpt lat="44.36244260460487" lon="9.897164577452154"><ele>209.0</ele><time>2026-04-03T15:01:32.96Z</time></trkpt><trkpt lat="44.36233543369491" lon="9.897286750238063"><ele>209.0</ele><time>2026-04-03T15:01:33.96Z</time></trkpt><trkpt lat="44.36222642835034" lon="9.897406025746655"><ele>209.0</ele><time>2026-04-03T15:01:34.96Z</time></trkpt><trkpt lat="44.362111737637136" lon="9.89752603796646"><ele>209.0</ele><time>2026-04-03T15:01:35.96Z</time></trkpt><trkpt lat="44.361988652859594" lon="9.89765110656384"><ele>208.66666666666669</ele><time>2026-04-03T15:01:36.96Z</time></trkpt><trkpt lat="44.36185977448122" lon="9.897800356290707"><ele>208.33333333333331</ele><time>2026-04-03T15:01:37.96Z</time></trkpt><trkpt lat="44.36172127280912" lon="9.8979626073437"><ele>208.0</ele><time>2026-04-03T15:01:38.96Z</time></trkpt><trkpt lat="44.361576138182436" lon="9.898125998839017"><ele>208.0</ele><time>2026-04-03T15:01:39.96Z</time></trkpt><trkpt lat="44.361430861004166" lon="9.898290190036953"><ele>208.0</ele><time>2026-04-03T15:01:40.96Z</time></trkpt><trkpt lat="44.36129038626582" lon="9.898450923679391"><ele>208.0</ele><time>2026-04-03T15:01:41.96Z</time></trkpt><trkpt lat="44.361159216961354" lon="9.89860178607459"><ele>207.5</ele><time>2026-04-03T15:01:42.96Z</time></trkpt><trkpt lat="44.361036531446665" lon="9.89874068357262"><ele>207.0</ele><time>2026-04-03T15:01:43.96Z</time></trkpt><trkpt lat="44.36093029754951" lon="9.898867929706723"><ele>206.5</ele><time>2026-04-03T15:01:44.96Z</time></trkpt><trkpt lat="44.360831321032705" lon="9.898986791288085"><ele>206.0</ele><time>2026-04-03T15:01:45.96Z</time></trkpt><trkpt lat="44.36074333633493" lon="9.899097409449976"><ele>206.0</ele><time>2026-04-03T15:01:46.96Z</time></trkpt><trkpt lat="44.36065318217511" lon="9.899202215201463"><ele>206.0</ele><time>2026-04-03T15:01:47.96Z</time></trkpt><trkpt lat="44.3605621623593" lon="9.899309200669865"><ele>206.0</ele><time>2026-04-03T15:01:48.96Z</time></trkpt><trkpt lat="44.36046357963502" lon="9.899413460198854"><ele>206.0</ele><time>2026-04-03T15:01:49.96Z</time></trkpt><trkpt lat="44.36036955978524" lon="9.899520145953291"><ele>205.5</ele><time>2026-04-03T15:01:50.96Z</time></trkpt><trkpt lat="44.36027807558683" lon="9.899619411949601"><ele>205.0</ele><time>2026-04-03T15:01:51.96Z</time></trkpt><trkpt lat="44.3601916184132" lon="9.899723352449675"><ele>204.5</ele><time>2026-04-03T15:01:52.96Z</time></trkpt><trkpt lat="44.360106222459" lon="9.899828358476"><ele>204.0</ele><time>2026-04-03T15:01:53.96Z</time></trkpt><trkpt lat="44.36001539725997" lon="9.899935396987447"><ele>204.0</ele><time>2026-04-03T15:01:54.96Z</time></trkpt><trkpt lat="44.35992498257733" lon="9.9000375826688"><ele>204.0</ele><time>2026-04-03T15:01:55.96Z</time></trkpt><trkpt lat="44.359833279316106" lon="9.900141209345028"><ele>204.0</ele><time>2026-04-03T15:01:56.96Z</time></trkpt><trkpt lat="44.35973834579249" lon="9.900247695385806"><ele>204.0</ele><time>2026-04-03T15:01:57.96Z</time></trkpt><trkpt lat="44.35964201651198" lon="9.900354350470446"><ele>203.5</ele><time>2026-04-03T15:01:58.96Z</time></trkpt><trkpt lat="44.35954264928829" lon="9.900457984447183"><ele>203.0</ele><time>2026-04-03T15:01:59.96Z</time></trkpt><trkpt lat="44.35944767312611" lon="9.900566605275172"><ele>202.5</ele><time>2026-04-03T15:02:00.96Z</time></trkpt><trkpt lat="44.359353462948754" lon="9.900675091921467"><ele>202.0</ele><time>2026-04-03T15:02:01.96Z</time></trkpt><trkpt lat="44.35925883203577" lon="9.900782216637387"><ele>202.0</ele><time>2026-04-03T15:02:02.96Z</time></trkpt><trkpt lat="44.359164706238595" lon="9.900891749929421"><ele>202.0</ele><time>2026-04-03T15:02:03.96Z</time></trkpt><trkpt lat="44.3590723800458" lon="9.900998531003479"><ele>202.0</ele><time>2026-04-03T15:02:04.96Z</time></trkpt><trkpt lat="44.358978632627995" lon="9.901103421728084"><ele>202.0</ele><time>2026-04-03T15:02:05.96Z</time></trkpt><trkpt lat="44.35888523961699" lon="9.901219843039874"><ele>201.75</ele><time>2026-04-03T15:02:06.96Z</time></trkpt><trkpt lat="44.358788489419155" lon="9.90133097428748"><ele>201.5</ele><time>2026-04-03T15:02:07.96Z</time></trkpt><trkpt lat="44.35868622780426" lon="9.901455478086296"><ele>201.25</ele><time>2026-04-03T15:02:08.96Z</time></trkpt><trkpt lat="44.35857592060401" lon="9.901582206622328"><ele>201.0</ele><time>2026-04-03T15:02:09.96Z</time></trkpt><trkpt lat="44.35845506782006" lon="9.901716216013703"><ele>201.66666666666669</ele><time>2026-04-03T15:02:10.96Z</time></trkpt><trkpt lat="44.35832887846718" lon="9.901857711024562"><ele>202.33333333333334</ele><time>2026-04-03T15:02:11.96Z</time></trkpt><trkpt lat="44.35819797243304" lon="9.902008547911812"><ele>203.0</ele><time>2026-04-03T15:02:12.96Z</time></trkpt><trkpt lat="44.35806550653409" lon="9.902149633629552"><ele>202.66666666666669</ele><time>2026-04-03T15:02:13.96Z</time></trkpt><trkpt lat="44.35792500461161" lon="9.902293166156019"><ele>202.33333333333331</ele><time>2026-04-03T15:02:14.96Z</time></trkpt><trkpt lat="44.35776792982208" lon="9.902429164920362"><ele>202.0</ele><time>2026-04-03T15:02:15.96Z</time></trkpt><trkpt lat="44.35758249636502" lon="9.902554637327055"><ele>202.0</ele><time>2026-04-03T15:02:16.96Z</time></trkpt><trkpt lat="44.35737561777329" lon="9.90266191634998"><ele>202.0</ele><time>2026-04-03T15:02:17.96Z</time></trkpt><trkpt lat="44.357160462452704" lon="9.902768723864002"><ele>202.0</ele><time>2026-04-03T15:02:18.96Z</time></trkpt><trkpt lat="44.35694331186005" lon="9.902882140667979"><ele>202.0</ele><time>2026-04-03T15:02:19.96Z</time></trkpt><trkpt lat="44.356743264092486" lon="9.902991995765635"><ele>202.0</ele><time>2026-04-03T15:02:20.96Z</time></trkpt><trkpt lat="44.356556406526465" lon="9.903095291755182"><ele>202.0</ele><time>2026-04-03T15:02:21.96Z</time></trkpt><trkpt lat="44.356374857937645" lon="9.90319775460084"><ele>201.66666666666666</ele><time>2026-04-03T15:02:22.96Z</time></trkpt><trkpt lat="44.356193289204924" lon="9.903298529430346"><ele>201.33333333333331</ele><time>2026-04-03T15:02:23.96Z</time></trkpt><trkpt lat="44.35600957604804" lon="9.903400081458114"><ele>201.0</ele><time>2026-04-03T15:02:24.96Z</time></trkpt><trkpt lat="44.355819366696586" lon="9.903507307710884"><ele>200.33333333333331</ele><time>2026-04-03T15:02:25.96Z</time></trkpt><trkpt lat="44.35562406280808" lon="9.903624306468398"><ele>199.66666666666666</ele><time>2026-04-03T15:02:26.96Z</time></trkpt><trkpt lat="44.35543330614164" lon="9.903756325050978"><ele>199.0</ele><time>2026-04-03T15:02:27.96Z</time></trkpt><trkpt lat="44.35524930765144" lon="9.903905049542784"><ele>199.0</ele><time>2026-04-03T15:02:28.96Z</time></trkpt><trkpt lat="44.35506691779613" lon="9.904056481154278"><ele>199.0</ele><time>2026-04-03T15:02:29.96Z</time></trkpt><trkpt lat="44.35488737432484" lon="9.90420494433703"><ele>199.0</ele><time>2026-04-03T15:02:30.96Z</time></trkpt><trkpt lat="44.354711469957564" lon="9.904350941781887"><ele>198.66666666666666</ele><time>2026-04-03T15:02:31.96Z</time></trkpt><trkpt lat="44.35454189802557" lon="9.90448575349271"><ele>198.33333333333331</ele><time>2026-04-03T15:02:32.96Z</time></trkpt><trkpt lat="44.35438125926018" lon="9.904615301951537"><ele>198.0</ele><time>2026-04-03T15:02:33.96Z</time></trkpt><trkpt lat="44.35423532184406" lon="9.904735044886786"><ele>198.0</ele><time>2026-04-03T15:02:34.96Z</time></trkpt><trkpt lat="44.35410180242915" lon="9.904853416031662"><ele>198.0</ele><time>2026-04-03T15:02:35.96Z</time></trkpt><trkpt lat="44.35397600793329" lon="9.904954814365954"><ele>198.0</ele><time>2026-04-03T15:02:36.96Z</time></trkpt><trkpt lat="44.35385309765478" lon="9.905054705013411"><ele>198.0</ele><time>2026-04-03T15:02:37.96Z</time></trkpt><trkpt lat="44.353730477438994" lon="9.905154511867167"><ele>197.5</ele><time>2026-04-03T15:02:38.96Z</time></trkpt><trkpt lat="44.35360652185386" lon="9.905258180461871"><ele>197.0</ele><time>2026-04-03T15:02:39.96Z</time></trkpt><trkpt lat="44.353481882521415" lon="9.905370298080195"><ele>196.5</ele><time>2026-04-03T15:02:40.96Z</time></trkpt><trkpt lat="44.35335313322993" lon="9.905478509498721"><ele>196.0</ele><time>2026-04-03T15:02:41.96Z</time></trkpt><trkpt lat="44.353224464886566" lon="9.90558433453501"><ele>196.0</ele><time>2026-04-03T15:02:42.96Z</time></trkpt><trkpt lat="44.35309758351842" lon="9.905682689033389"><ele>196.0</ele><time>2026-04-03T15:02:43.96Z</time></trkpt><trkpt lat="44.35296735590766" lon="9.905786559202687"><ele>196.0</ele><time>2026-04-03T15:02:44.96Z</time></trkpt><trkpt lat="44.35283171357786" lon="9.90589197325777"><ele>195.0</ele><time>2026-04-03T15:02:45.96Z</time></trkpt><trkpt lat="44.35269682843255" lon="9.905987711830647"><ele>194.0</ele><time>2026-04-03T15:02:46.96Z</time></trkpt><trkpt lat="44.35254935807668" lon="9.906072369980276"><ele>193.0</ele><time>2026-04-03T15:02:47.96Z</time></trkpt><trkpt lat="44.352398724684996" lon="9.906143703046281"><ele>193.0</ele><time>2026-04-03T15:02:48.96Z</time></trkpt><trkpt lat="44.35224777542811" lon="9.906207288766415"><ele>193.0</ele><time>2026-04-03T15:02:49.96Z</time></trkpt><trkpt lat="44.3520985021448" lon="9.906267191571619"><ele>193.0</ele><time>2026-04-03T15:02:50.96Z</time></trkpt><trkpt lat="44.35194778162788" lon="9.906330243838323"><ele>192.66666666666666</ele><time>2026-04-03T15:02:51.96Z</time></trkpt><trkpt lat="44.35179791895686" lon="9.906392028964525"><ele>192.33333333333331</ele><time>2026-04-03T15:02:52.96Z</time></trkpt><trkpt lat="44.35164676445414" lon="9.906454761371"><ele>192.0</ele><time>2026-04-03T15:02:53.96Z</time></trkpt><trkpt lat="44.35149836574946" lon="9.906518654846987"><ele>191.0</ele><time>2026-04-03T15:02:54.96Z</time></trkpt><trkpt lat="44.351352539304095" lon="9.906582778685266"><ele>190.0</ele><time>2026-04-03T15:02:55.96Z</time></trkpt><trkpt lat="44.35120640974843" lon="9.906641864462484"><ele>189.0</ele><time>2026-04-03T15:02:56.96Z</time></trkpt><trkpt lat="44.35106345194873" lon="9.906697186902774"><ele>189.0</ele><time>2026-04-03T15:02:57.96Z</time></trkpt><trkpt lat="44.35092310449567" lon="9.906753839374911"><ele>189.0</ele><time>2026-04-03T15:02:58.96Z</time></trkpt><trkpt lat="44.35077921471736" lon="9.906804667960794"><ele>189.0</ele><time>2026-04-03T15:02:59.96Z</time></trkpt><trkpt lat="44.35064163657948" lon="9.906850699393845"><ele>189.0</ele><time>2026-04-03T15:03:00.96Z</time></trkpt><trkpt lat="44.35050406277737" lon="9.9069012464275"><ele>188.75</ele><time>2026-04-03T15:03:01.958Z</time></trkpt><trkpt lat="44.35036451378634" lon="9.9069534427384"><ele>188.5</ele><time>2026-04-03T15:03:02.957Z</time></trkpt><trkpt lat="44.35022993181821" lon="9.907004760461433"><ele>188.25</ele><time>2026-04-03T15:03:03.957Z</time></trkpt><trkpt lat="44.350107899916864" lon="9.907060669747082"><ele>188.0</ele><time>2026-04-03T15:03:04.957Z</time></trkpt><trkpt lat="44.34999426333615" lon="9.907114652831044"><ele>188.0</ele><time>2026-04-03T15:03:05.958Z</time></trkpt><trkpt lat="44.349886898571796" lon="9.907172327242098"><ele>188.0</ele><time>2026-04-03T15:03:06.958Z</time></trkpt><trkpt lat="44.3497832185323" lon="9.907223467977138"><ele>188.0</ele><time>2026-04-03T15:03:07.958Z</time></trkpt><trkpt lat="44.34968607257643" lon="9.907276892125111"><ele>188.0</ele><time>2026-04-03T15:03:08.957Z</time></trkpt><trkpt lat="44.349588304334716" lon="9.907336252273522"><ele>188.0</ele><time>2026-04-03T15:03:09.957Z</time></trkpt><trkpt lat="44.349492839282455" lon="9.907407589176236"><ele>187.66666666666666</ele><time>2026-04-03T15:03:10.958Z</time></trkpt><trkpt lat="44.349403587513955" lon="9.907478711307446"><ele>187.33333333333331</ele><time>2026-04-03T15:03:11.957Z</time></trkpt><trkpt lat="44.34932108807581" lon="9.9075470861936"><ele>187.0</ele><time>2026-04-03T15:03:12.957Z</time></trkpt><trkpt lat="44.34923617311736" lon="9.90761064899096"><ele>186.66666666666666</ele><time>2026-04-03T15:03:13.958Z</time></trkpt><trkpt lat="44.34916116835964" lon="9.907667736393536"><ele>186.33333333333334</ele><time>2026-04-03T15:03:14.957Z</time></trkpt><trkpt lat="44.34910553140858" lon="9.907712035914324"><ele>186.0</ele><time>2026-04-03T15:03:15.957Z</time></trkpt><trkpt lat="44.34902450066582" lon="9.907774498025882"><ele>186.0</ele><time>2026-04-03T15:03:17.957Z</time></trkpt><trkpt lat="44.34890627265285" lon="9.907872826773037"><ele>186.0</ele><time>2026-04-03T15:03:19.957Z</time></trkpt><trkpt lat="44.34882910999766" lon="9.907934313535078"><ele>186.0</ele><time>2026-04-03T15:03:20.957Z</time></trkpt><trkpt lat="44.34874922994913" lon="9.908005712458856"><ele>186.0</ele><time>2026-04-03T15:03:21.957Z</time></trkpt><trkpt lat="44.34866155743631" lon="9.908082751662098"><ele>186.0</ele><time>2026-04-03T15:03:22.957Z</time></trkpt><trkpt lat="44.348569561364755" lon="9.908180853297738"><ele>186.0</ele><time>2026-04-03T15:03:23.957Z</time></trkpt><trkpt lat="44.34847743041873" lon="9.908281103893126"><ele>186.0</ele><time>2026-04-03T15:03:24.957Z</time></trkpt><trkpt lat="44.34838623376942" lon="9.9083812791474"><ele>186.0</ele><time>2026-04-03T15:03:25.957Z</time></trkpt><trkpt lat="44.348296320865295" lon="9.908487808624237"><ele>186.0</ele><time>2026-04-03T15:03:26.957Z</time></trkpt><trkpt lat="44.34820297881473" lon="9.908610763357565"><ele>186.0</ele><time>2026-04-03T15:03:27.957Z</time></trkpt><trkpt lat="44.34811367483287" lon="9.908739893623697"><ele>186.0</ele><time>2026-04-03T15:03:28.957Z</time></trkpt><trkpt lat="44.348029695646694" lon="9.908875604406164"><ele>186.0</ele><time>2026-04-03T15:03:29.957Z</time></trkpt><trkpt lat="44.34794990552973" lon="9.909013613757828"><ele>186.0</ele><time>2026-04-03T15:03:30.957Z</time></trkpt><trkpt lat="44.34786410499167" lon="9.909160402058966"><ele>185.33333333333334</ele><time>2026-04-03T15:03:31.957Z</time></trkpt><trkpt lat="44.347772112667684" lon="9.909325421493655"><ele>184.66666666666669</ele><time>2026-04-03T15:03:32.957Z</time></trkpt><trkpt lat="44.34767799307601" lon="9.90948919411217"><ele>184.0</ele><time>2026-04-03T15:03:33.957Z</time></trkpt><trkpt lat="44.347584283878575" lon="9.909654329405786"><ele>184.0</ele><time>2026-04-03T15:03:34.957Z</time></trkpt><trkpt lat="44.347497349754015" lon="9.909810086303048"><ele>184.0</ele><time>2026-04-03T15:03:35.957Z</time></trkpt><trkpt lat="44.347412062194" lon="9.909981408883455"><ele>184.0</ele><time>2026-04-03T15:03:36.957Z</time></trkpt><trkpt lat="44.347319908068435" lon="9.910155528248023"><ele>184.0</ele><time>2026-04-03T15:03:37.957Z</time></trkpt><trkpt lat="44.34722463043411" lon="9.91032610369807"><ele>183.66666666666669</ele><time>2026-04-03T15:03:38.957Z</time></trkpt><trkpt lat="44.347129786603666" lon="9.910502257326488"><ele>183.33333333333334</ele><time>2026-04-03T15:03:39.957Z</time></trkpt><trkpt lat="44.347033617620674" lon="9.910676322548744"><ele>183.0</ele><time>2026-04-03T15:03:40.957Z</time></trkpt><trkpt lat="44.34693853505548" lon="9.910850626945669"><ele>185.66666666666666</ele><time>2026-04-03T15:03:41.958Z</time></trkpt><trkpt lat="44.34684017692293" lon="9.911020312288542"><ele>188.33333333333331</ele><time>2026-04-03T15:03:42.958Z</time></trkpt><trkpt lat="44.34673313074996" lon="9.911175163098823"><ele>191.0</ele><time>2026-04-03T15:03:43.958Z</time></trkpt><trkpt lat="44.34661049595019" lon="9.911311195263133"><ele>191.0</ele><time>2026-04-03T15:03:44.958Z</time></trkpt><trkpt lat="44.34647796399719" lon="9.911418253856358"><ele>191.0</ele><time>2026-04-03T15:03:45.958Z</time></trkpt><trkpt lat="44.34633904958371" lon="9.911521197967048"><ele>191.0</ele><time>2026-04-03T15:03:46.958Z</time></trkpt><trkpt lat="44.34619499646437" lon="9.911606822079264"><ele>190.25</ele><time>2026-04-03T15:03:47.958Z</time></trkpt><trkpt lat="44.34604954591983" lon="9.911663410535622"><ele>189.5</ele><time>2026-04-03T15:03:48.958Z</time></trkpt><trkpt lat="44.34591653828054" lon="9.911702776129616"><ele>188.75</ele><time>2026-04-03T15:03:49.958Z</time></trkpt><trkpt lat="44.34580245258833" lon="9.91172004533001"><ele>188.0</ele><time>2026-04-03T15:03:50.958Z</time></trkpt><trkpt lat="44.345710691208374" lon="9.911724440611962"><ele>188.0</ele><time>2026-04-03T15:03:51.958Z</time></trkpt><trkpt lat="44.34563459072142" lon="9.91173041316395"><ele>188.0</ele><time>2026-04-03T15:03:52.958Z</time></trkpt><trkpt lat="44.34556818045773" lon="9.911752035134512"><ele>192.0</ele><time>2026-04-03T15:03:53.958Z</time></trkpt><trkpt lat="44.34551803839367" lon="9.911810465255826"><ele>190.0</ele><time>2026-04-03T15:03:54.958Z</time></trkpt><trkpt lat="44.34547816430348" lon="9.91190239089221"><ele>190.0</ele><time>2026-04-03T15:03:55.958Z</time></trkpt><trkpt lat="44.34543587843543" lon="9.912070665943132"><ele>190.0</ele><time>2026-04-03T15:03:57.958Z</time></trkpt></trkseg></trk></gpx>